<?xml version='1.0' encoding='UTF-8'?><gpx version="1.1" creator="JPX - https://github.com/jenetics/jpx" xmlns="http://www.topografix.com/GPX/1/1"><trk><trkseg><trkpt lat="45.08520205606231" lon="7.5205046526314625"><ele>344.0</ele><time>2026-05-01T08:02:51Z</time></trkpt><trkpt lat="45.08502752000673" lon="7.520580850930101"><ele>344.0</ele><time>2026-05-01T08:03:00Z</time></trkpt><trkpt lat="45.085089709779446" lon="7.520555149145381"><ele>344.0</ele><time>2026-05-01T08:04:10.999Z</time></trkpt><trkpt lat="45.085065703780316" lon="7.520435907965483"><ele>344.0</ele><time>2026-05-01T08:04:26Z</time></trkpt><trkpt lat="45.08498832589753" lon="7.520278890169347"><ele>344.2</ele><time>2026-05-01T08:04:28Z</time></trkpt><trkpt lat="45.08491863794474" lon="7.5201991903828755"><ele>344.4</ele><time>2026-05-01T08:04:29Z</time></trkpt><trkpt lat="45.0848128372862" lon="7.5202222555746765"><ele>344.6</ele><time>2026-05-01T08:04:30Z</time></trkpt><trkpt lat="45.08472883569203" lon="7.520170947553432"><ele>344.8</ele><time>2026-05-01T08:04:31Z</time></trkpt><trkpt lat="45.084643618928716" lon="7.520118029900822"><ele>345.0</ele><time>2026-05-01T08:04:32Z</time></trkpt><trkpt lat="45.08453538409822" lon="7.520071898600757"><ele>345.0</ele><time>2026-05-01T08:04:33.012Z</time></trkpt><trkpt lat="45.08444716580423" lon="7.5200081092892255"><ele>345.0</ele><time>2026-05-01T08:04:34.017Z</time></trkpt><trkpt lat="45.08435501367215" lon="7.519943256432536"><ele>345.0</ele><time>2026-05-01T08:04:35.019Z</time></trkpt><trkpt lat="45.08426366686992" lon="7.519884941614297"><ele>345.0</ele><time>2026-05-01T08:04:36Z</time></trkpt><trkpt lat="45.08418209938165" lon="7.519830417076783"><ele>345.0</ele><time>2026-05-01T08:04:37Z</time></trkpt><trkpt lat="45.08407927914475" lon="7.519752706700312"><ele>344.75</ele><time>2026-05-01T08:04:38Z</time></trkpt><trkpt lat="45.083955250114336" lon="7.5196931575043156"><ele>344.5</ele><time>2026-05-01T08:04:39Z</time></trkpt><trkpt lat="45.08383657594238" lon="7.519620277669767"><ele>344.25</ele><time>2026-05-01T08:04:40Z</time></trkpt><trkpt lat="45.08368020897351" lon="7.519550394893585"><ele>344.0</ele><time>2026-05-01T08:04:41Z</time></trkpt><trkpt lat="45.08354070439616" lon="7.519469423741814"><ele>343.75</ele><time>2026-05-01T08:04:42Z</time></trkpt><trkpt lat="45.0834078562914" lon="7.519392386541699"><ele>343.5</ele><time>2026-05-01T08:04:43Z</time></trkpt><trkpt lat="45.08327870395805" lon="7.519314418865759"><ele>343.25</ele><time>2026-05-01T08:04:44Z</time></trkpt><trkpt lat="45.08315599017565" lon="7.519235084998233"><ele>343.0</ele><time>2026-05-01T08:04:45Z</time></trkpt><trkpt lat="45.083022823255874" lon="7.519185880636437"><ele>344.5</ele><time>2026-05-01T08:04:46Z</time></trkpt><trkpt lat="45.082900014867015" lon="7.519127981988212"><ele>346.0</ele><time>2026-05-01T08:04:47Z</time></trkpt><trkpt lat="45.08278568305995" lon="7.5190466672086265"><ele>347.5</ele><time>2026-05-01T08:04:48Z</time></trkpt><trkpt lat="45.08265936979868" lon="7.518976198959776"><ele>349.0</ele><time>2026-05-01T08:04:49Z</time></trkpt><trkpt lat="45.08253697558579" lon="7.518896758860594"><ele>348.75</ele><time>2026-05-01T08:04:50Z</time></trkpt><trkpt lat="45.082408070632425" lon="7.518825339604528"><ele>348.5</ele><time>2026-05-01T08:04:51Z</time></trkpt><trkpt lat="45.08228373683229" lon="7.5187507661927855"><ele>348.25</ele><time>2026-05-01T08:04:52Z</time></trkpt><trkpt lat="45.082172789953354" lon="7.518661225441377"><ele>348.0</ele><time>2026-05-01T08:04:53Z</time></trkpt><trkpt lat="45.08205280545955" lon="7.51858761991746"><ele>348.0</ele><time>2026-05-01T08:04:54Z</time></trkpt><trkpt lat="45.08192779861291" lon="7.518509525524008"><ele>348.0</ele><time>2026-05-01T08:04:55Z</time></trkpt><trkpt lat="45.081804605355124" lon="7.518431914533218"><ele>348.0</ele><time>2026-05-01T08:04:56Z</time></trkpt><trkpt lat="45.08156868216502" lon="7.51827665775669"><ele>349.5</ele><time>2026-05-01T08:04:58Z</time></trkpt><trkpt lat="45.08144662928503" lon="7.518195581681168"><ele>351.0</ele><time>2026-05-01T08:04:59Z</time></trkpt><trkpt lat="45.081313607166635" lon="7.518129624463366"><ele>352.5</ele><time>2026-05-01T08:05:00Z</time></trkpt><trkpt lat="45.081199825351725" lon="7.518047443400304"><ele>354.0</ele><time>2026-05-01T08:05:01Z</time></trkpt><trkpt lat="45.08108169979876" lon="7.517979243363546"><ele>354.0</ele><time>2026-05-01T08:05:02Z</time></trkpt><trkpt lat="45.08096176221677" lon="7.5179092641054766"><ele>354.0</ele><time>2026-05-01T08:05:03Z</time></trkpt><trkpt lat="45.080840121731086" lon="7.517837040841932"><ele>354.0</ele><time>2026-05-01T08:05:04Z</time></trkpt><trkpt lat="45.08070659842454" lon="7.517743885706188"><ele>354.0</ele><time>2026-05-01T08:05:05Z</time></trkpt><trkpt lat="45.08057948485142" lon="7.517681431240985"><ele>354.0</ele><time>2026-05-01T08:05:06Z</time></trkpt><trkpt lat="45.08044721843845" lon="7.51761262822946"><ele>354.0</ele><time>2026-05-01T08:05:07Z</time></trkpt><trkpt lat="45.08032311574484" lon="7.517538447869367"><ele>354.0</ele><time>2026-05-01T08:05:08Z</time></trkpt><trkpt lat="45.08020629072711" lon="7.517462400868026"><ele>354.0</ele><time>2026-05-01T08:05:09Z</time></trkpt><trkpt lat="45.0800880317269" lon="7.517390922956117"><ele>354.0</ele><time>2026-05-01T08:05:10Z</time></trkpt><trkpt lat="45.07997347966084" lon="7.517307589206681"><ele>354.0</ele><time>2026-05-01T08:05:11Z</time></trkpt><trkpt lat="45.07986962966221" lon="7.517210644847513"><ele>354.0</ele><time>2026-05-01T08:05:12Z</time></trkpt><trkpt lat="45.079760835764624" lon="7.517146824257057"><ele>354.0</ele><time>2026-05-01T08:05:13Z</time></trkpt><trkpt lat="45.07963976366665" lon="7.517074942550059"><ele>353.0</ele><time>2026-05-01T08:05:14Z</time></trkpt><trkpt lat="45.079517458410315" lon="7.517013249065844"><ele>352.0</ele><time>2026-05-01T08:05:15Z</time></trkpt><trkpt lat="45.079402684871305" lon="7.516944129381413"><ele>351.0</ele><time>2026-05-01T08:05:16Z</time></trkpt><trkpt lat="45.07929697697616" lon="7.516869989131546"><ele>350.0</ele><time>2026-05-01T08:05:17Z</time></trkpt><trkpt lat="45.07919272345706" lon="7.516803262106477"><ele>350.8</ele><time>2026-05-01T08:05:18Z</time></trkpt><trkpt lat="45.079084119212354" lon="7.516745536821222"><ele>351.6</ele><time>2026-05-01T08:05:19Z</time></trkpt><trkpt lat="45.078985904894935" lon="7.516691103120029"><ele>352.4</ele><time>2026-05-01T08:05:20Z</time></trkpt><trkpt lat="45.07890434685014" lon="7.516618533537534"><ele>353.2</ele><time>2026-05-01T08:05:21Z</time></trkpt><trkpt lat="45.07880655575306" lon="7.516567984858675"><ele>354.0</ele><time>2026-05-01T08:05:22Z</time></trkpt><trkpt lat="45.078711542210335" lon="7.516519791730307"><ele>354.0</ele><time>2026-05-01T08:05:23Z</time></trkpt><trkpt lat="45.078617641880385" lon="7.51645556859037"><ele>354.0</ele><time>2026-05-01T08:05:24Z</time></trkpt><trkpt lat="45.07854273423669" lon="7.516376416953377"><ele>354.0</ele><time>2026-05-01T08:05:25Z</time></trkpt><trkpt lat="45.07844849135615" lon="7.516320389083672"><ele>354.0</ele><time>2026-05-01T08:05:26Z</time></trkpt><trkpt lat="45.078349301460754" lon="7.5162666109413285"><ele>354.0</ele><time>2026-05-01T08:05:27Z</time></trkpt><trkpt lat="45.078263181518324" lon="7.516176917472562"><ele>353.79999999999995</ele><time>2026-05-01T08:05:28Z</time></trkpt><trkpt lat="45.078172680419506" lon="7.516135075627893"><ele>353.59999999999997</ele><time>2026-05-01T08:05:28.999Z</time></trkpt><trkpt lat="45.078077139804385" lon="7.516075859224264"><ele>353.4</ele><time>2026-05-01T08:05:29.999Z</time></trkpt><trkpt lat="45.077982016657536" lon="7.516031101618725"><ele>353.2</ele><time>2026-05-01T08:05:30.999Z</time></trkpt><trkpt lat="45.07789090004781" lon="7.51598892599439"><ele>353.0</ele><time>2026-05-01T08:05:31.999Z</time></trkpt><trkpt lat="45.077824197609864" lon="7.515930395812813"><ele>353.0</ele><time>2026-05-01T08:05:32.999Z</time></trkpt><trkpt lat="45.07774638466967" lon="7.515832391755771"><ele>353.0</ele><time>2026-05-01T08:05:34.999Z</time></trkpt><trkpt lat="45.07766178351907" lon="7.515806793186705"><ele>353.0</ele><time>2026-05-01T08:05:48.999Z</time></trkpt><trkpt lat="45.07760674161134" lon="7.515739213900914"><ele>353.0</ele><time>2026-05-01T08:05:51.999Z</time></trkpt><trkpt lat="45.0775926937149" lon="7.515625254357223"><ele>353.0</ele><time>2026-05-01T08:05:54.999Z</time></trkpt><trkpt lat="45.07761213056666" lon="7.515521460243948"><ele>353.0</ele><time>2026-05-01T08:05:56.999Z</time></trkpt><trkpt lat="45.07759663261045" lon="7.515289146018648"><ele>352.83333333333337</ele><time>2026-05-01T08:05:59.999Z</time></trkpt><trkpt lat="45.077617754133115" lon="7.51516416347161"><ele>352.6666666666667</ele><time>2026-05-01T08:06:00.999Z</time></trkpt><trkpt lat="45.07764192534991" lon="7.515068689452975"><ele>352.5</ele><time>2026-05-01T08:06:01.999Z</time></trkpt><trkpt lat="45.077665725065586" lon="7.514962722549942"><ele>352.3333333333333</ele><time>2026-05-01T08:06:02.999Z</time></trkpt><trkpt lat="45.07772283526507" lon="7.514816646864617"><ele>352.16666666666663</ele><time>2026-05-01T08:06:04.999Z</time></trkpt><trkpt lat="45.07775852493097" lon="7.514715328421329"><ele>352.0</ele><time>2026-05-01T08:06:06.999Z</time></trkpt><trkpt lat="45.07779505933268" lon="7.514626456963473"><ele>352.16666666666663</ele><time>2026-05-01T08:06:10.999Z</time></trkpt><trkpt lat="45.077835577118584" lon="7.514555253106004"><ele>352.3333333333333</ele><time>2026-05-01T08:06:13.999Z</time></trkpt><trkpt lat="45.07787068552708" lon="7.514466201730329"><ele>352.5</ele><time>2026-05-01T08:06:15.999Z</time></trkpt><trkpt lat="45.077939448627475" lon="7.514375121594242"><ele>352.6666666666667</ele><time>2026-05-01T08:06:17.999Z</time></trkpt><trkpt lat="45.07801031196719" lon="7.51431386920105"><ele>352.83333333333337</ele><time>2026-05-01T08:06:19.999Z</time></trkpt><trkpt lat="45.07807249687215" lon="7.514267136731999"><ele>353.0</ele><time>2026-05-01T08:06:21.999Z</time></trkpt><trkpt lat="45.07806357499253" lon="7.514126908229682"><ele>353.0</ele><time>2026-05-01T08:06:23.999Z</time></trkpt><trkpt lat="45.07806158365712" lon="7.51397286549871"><ele>353.0</ele><time>2026-05-01T08:06:25.999Z</time></trkpt><trkpt lat="45.078087323387436" lon="7.513813328811498"><ele>353.0</ele><time>2026-05-01T08:06:28Z</time></trkpt><trkpt lat="45.078091262953734" lon="7.51371992199594"><ele>353.0</ele><time>2026-05-01T08:06:29Z</time></trkpt><trkpt lat="45.07814136749143" lon="7.513647227803573"><ele>353.0</ele><time>2026-05-01T08:06:30Z</time></trkpt><trkpt lat="45.078135480169294" lon="7.513531583107264"><ele>353.0</ele><time>2026-05-01T08:06:31Z</time></trkpt><trkpt lat="45.07816684836303" lon="7.51344441534591"><ele>353.0</ele><time>2026-05-01T08:06:32Z</time></trkpt><trkpt lat="45.078205356986864" lon="7.513362115473289"><ele>353.0</ele><time>2026-05-01T08:06:33Z</time></trkpt><trkpt lat="45.07823919529274" lon="7.513276223874578"><ele>353.0</ele><time>2026-05-01T08:06:34Z</time></trkpt><trkpt lat="45.078305224645" lon="7.513121007390517"><ele>353.0</ele><time>2026-05-01T08:06:36Z</time></trkpt><trkpt lat="45.078342009058936" lon="7.513039457917495"><ele>353.0</ele><time>2026-05-01T08:06:37Z</time></trkpt><trkpt lat="45.07840258188005" lon="7.512850655392532"><ele>353.0</ele><time>2026-05-01T08:06:39Z</time></trkpt><trkpt lat="45.07843783786636" lon="7.512737667397422"><ele>353.0</ele><time>2026-05-01T08:06:40Z</time></trkpt><trkpt lat="45.078504382367036" lon="7.5126734014170795"><ele>353.0</ele><time>2026-05-01T08:06:41Z</time></trkpt><trkpt lat="45.07853689706339" lon="7.512585494390801"><ele>353.0</ele><time>2026-05-01T08:06:42Z</time></trkpt><trkpt lat="45.07854049591504" lon="7.512492996289255"><ele>353.0</ele><time>2026-05-01T08:06:43Z</time></trkpt><trkpt lat="45.078595760747625" lon="7.5123820258796625"><ele>353.0</ele><time>2026-05-01T08:06:45Z</time></trkpt><trkpt lat="45.078681440805376" lon="7.5122834252606605"><ele>353.0</ele><time>2026-05-01T08:06:47Z</time></trkpt><trkpt lat="45.078736692687585" lon="7.512158159391599"><ele>353.0</ele><time>2026-05-01T08:06:49Z</time></trkpt><trkpt lat="45.078756589106334" lon="7.5120283790143265"><ele>353.0</ele><time>2026-05-01T08:06:51Z</time></trkpt><trkpt lat="45.07880944535001" lon="7.511891716231863"><ele>353.0</ele><time>2026-05-01T08:06:53Z</time></trkpt><trkpt lat="45.078832197001454" lon="7.51180743737316"><ele>353.0</ele><time>2026-05-01T08:06:54Z</time></trkpt><trkpt lat="45.07887720590701" lon="7.511662031455758"><ele>353.0</ele><time>2026-05-01T08:06:56Z</time></trkpt><trkpt lat="45.078912037805786" lon="7.511587238359711"><ele>353.0</ele><time>2026-05-01T08:06:57Z</time></trkpt><trkpt lat="45.07895353782846" lon="7.511418196184674"><ele>353.0</ele><time>2026-05-01T08:06:59Z</time></trkpt><trkpt lat="45.078989506566664" lon="7.511322882961609"><ele>353.0</ele><time>2026-05-01T08:07:00Z</time></trkpt><trkpt lat="45.07902879175877" lon="7.511214646235112"><ele>353.0</ele><time>2026-05-01T08:07:01Z</time></trkpt><trkpt lat="45.079076023082756" lon="7.511109729886336"><ele>353.0</ele><time>2026-05-01T08:07:02Z</time></trkpt><trkpt lat="45.0791166705289" lon="7.511004447828111"><ele>353.0</ele><time>2026-05-01T08:07:03Z</time></trkpt><trkpt lat="45.07915695106064" lon="7.510893754281208"><ele>353.0</ele><time>2026-05-01T08:07:04Z</time></trkpt><trkpt lat="45.07919391364069" lon="7.510784198795551"><ele>353.0</ele><time>2026-05-01T08:07:05Z</time></trkpt><trkpt lat="45.07924664239887" lon="7.510692601993574"><ele>353.0</ele><time>2026-05-01T08:07:06Z</time></trkpt><trkpt lat="45.07928417720576" lon="7.510592448911035"><ele>353.0</ele><time>2026-05-01T08:07:07Z</time></trkpt><trkpt lat="45.079322196735156" lon="7.510490951959406"><ele>353.0</ele><time>2026-05-01T08:07:08Z</time></trkpt><trkpt lat="45.079351732263945" lon="7.510379145244119"><ele>353.2</ele><time>2026-05-01T08:07:09Z</time></trkpt><trkpt lat="45.079405424497736" lon="7.510268510799843"><ele>353.4</ele><time>2026-05-01T08:07:10Z</time></trkpt><trkpt lat="45.079463360904136" lon="7.5101291851953755"><ele>353.59999999999997</ele><time>2026-05-01T08:07:11Z</time></trkpt><trkpt lat="45.07950654073367" lon="7.510013276097657"><ele>353.79999999999995</ele><time>2026-05-01T08:07:12Z</time></trkpt><trkpt lat="45.079551665400835" lon="7.509909300383256"><ele>354.0</ele><time>2026-05-01T08:07:13Z</time></trkpt><trkpt lat="45.07959177042446" lon="7.509814240122664"><ele>354.0</ele><time>2026-05-01T08:07:14Z</time></trkpt><trkpt lat="45.079627448131276" lon="7.509709758082083"><ele>354.0</ele><time>2026-05-01T08:07:15Z</time></trkpt><trkpt lat="45.07966612669858" lon="7.509634024967918"><ele>354.0</ele><time>2026-05-01T08:07:16Z</time></trkpt><trkpt lat="45.07972099228667" lon="7.509466855372539"><ele>354.0</ele><time>2026-05-01T08:07:18Z</time></trkpt><trkpt lat="45.07976631065229" lon="7.509378877212328"><ele>354.0</ele><time>2026-05-01T08:07:19Z</time></trkpt><trkpt lat="45.079806509022355" lon="7.509277617403924"><ele>354.0</ele><time>2026-05-01T08:07:20Z</time></trkpt><trkpt lat="45.07984447788251" lon="7.50917715996286"><ele>354.1666666666667</ele><time>2026-05-01T08:07:21Z</time></trkpt><trkpt lat="45.079877496124226" lon="7.509081749184399"><ele>354.3333333333333</ele><time>2026-05-01T08:07:22Z</time></trkpt><trkpt lat="45.07990793882532" lon="7.508978250217117"><ele>354.5</ele><time>2026-05-01T08:07:23Z</time></trkpt><trkpt lat="45.07994015505479" lon="7.508886507258407"><ele>354.66666666666663</ele><time>2026-05-01T08:07:24Z</time></trkpt><trkpt lat="45.07996797311173" lon="7.5087998356284915"><ele>354.8333333333333</ele><time>2026-05-01T08:07:25Z</time></trkpt><trkpt lat="45.08002061829733" lon="7.508647509350011"><ele>355.0</ele><time>2026-05-01T08:07:27Z</time></trkpt><trkpt lat="45.080051053625915" lon="7.5085582429972035"><ele>355.2</ele><time>2026-05-01T08:07:29Z</time></trkpt><trkpt lat="45.08010040422683" lon="7.508441256877345"><ele>355.4</ele><time>2026-05-01T08:07:32Z</time></trkpt><trkpt lat="45.08014184823066" lon="7.508357920944584"><ele>355.6</ele><time>2026-05-01T08:07:33Z</time></trkpt><trkpt lat="45.080226711237096" lon="7.508206408651424"><ele>355.8</ele><time>2026-05-01T08:07:35Z</time></trkpt><trkpt lat="45.08025528366561" lon="7.508115049106652"><ele>356.0</ele><time>2026-05-01T08:07:36Z</time></trkpt><trkpt lat="45.080283504798984" lon="7.507992009326785"><ele>356.0</ele><time>2026-05-01T08:07:38Z</time></trkpt><trkpt lat="45.08031076589285" lon="7.507884263656215"><ele>356.0</ele><time>2026-05-01T08:07:41.999Z</time></trkpt><trkpt lat="45.08035405981306" lon="7.507777006954292"><ele>356.0</ele><time>2026-05-01T08:07:43.999Z</time></trkpt><trkpt lat="45.08043191033471" lon="7.507560166804606"><ele>356.0</ele><time>2026-05-01T08:07:45.999Z</time></trkpt><trkpt lat="45.080474664351364" lon="7.507409028895522"><ele>356.0</ele><time>2026-05-01T08:07:46.999Z</time></trkpt><trkpt lat="45.080528363587035" lon="7.507259400050976"><ele>356.0</ele><time>2026-05-01T08:07:47.999Z</time></trkpt><trkpt lat="45.08060742372223" lon="7.507064176535201"><ele>356.0</ele><time>2026-05-01T08:07:48.999Z</time></trkpt><trkpt lat="45.08069222994279" lon="7.506849653603253"><ele>355.6666666666667</ele><time>2026-05-01T08:07:49.999Z</time></trkpt><trkpt lat="45.080773563737054" lon="7.506642633305716"><ele>355.3333333333333</ele><time>2026-05-01T08:07:50.999Z</time></trkpt><trkpt lat="45.080819748691646" lon="7.506423594553775"><ele>355.0</ele><time>2026-05-01T08:07:51.999Z</time></trkpt><trkpt lat="45.08089132280133" lon="7.50623940452355"><ele>356.25</ele><time>2026-05-01T08:07:52.999Z</time></trkpt><trkpt lat="45.08097103838098" lon="7.506082539000145"><ele>357.5</ele><time>2026-05-01T08:07:53.999Z</time></trkpt><trkpt lat="45.081033614219976" lon="7.505936873495966"><ele>358.75</ele><time>2026-05-01T08:07:54.999Z</time></trkpt><trkpt lat="45.08109533090157" lon="7.505796264414253"><ele>360.0</ele><time>2026-05-01T08:07:55.999Z</time></trkpt><trkpt lat="45.081165976652734" lon="7.505681379905284"><ele>360.0</ele><time>2026-05-01T08:07:56.999Z</time></trkpt><trkpt lat="45.08122201872679" lon="7.50557841457633"><ele>360.0</ele><time>2026-05-01T08:07:57.999Z</time></trkpt><trkpt lat="45.081286769758805" lon="7.505508980988031"><ele>360.0</ele><time>2026-05-01T08:07:58.999Z</time></trkpt><trkpt lat="45.08134764140105" lon="7.505421057050651"><ele>360.0</ele><time>2026-05-01T08:07:59.999Z</time></trkpt><trkpt lat="45.081382869043196" lon="7.505340473124741"><ele>360.0</ele><time>2026-05-01T08:08:00.999Z</time></trkpt><trkpt lat="45.08139295373665" lon="7.505239169321028"><ele>360.0</ele><time>2026-05-01T08:08:01.999Z</time></trkpt><trkpt lat="45.08138588972924" lon="7.505131822176726"><ele>360.0</ele><time>2026-05-01T08:08:02.999Z</time></trkpt><trkpt lat="45.08141057950491" lon="7.505006126315107"><ele>360.0</ele><time>2026-05-01T08:08:03.999Z</time></trkpt><trkpt lat="45.08144507866494" lon="7.504855857570769"><ele>360.0</ele><time>2026-05-01T08:08:04.999Z</time></trkpt><trkpt lat="45.0814847016983" lon="7.504701913420533"><ele>360.0</ele><time>2026-05-01T08:08:05.999Z</time></trkpt><trkpt lat="45.08154195445039" lon="7.504531229967747"><ele>359.6666666666667</ele><time>2026-05-01T08:08:06.999Z</time></trkpt><trkpt lat="45.08162490969267" lon="7.504324541068874"><ele>359.33333333333337</ele><time>2026-05-01T08:08:07.999Z</time></trkpt><trkpt lat="45.08169259960097" lon="7.504145004595587"><ele>359.0</ele><time>2026-05-01T08:08:08.999Z</time></trkpt><trkpt lat="45.081755352839544" lon="7.503960172476324"><ele>359.0</ele><time>2026-05-01T08:08:09.999Z</time></trkpt><trkpt lat="45.08182446224736" lon="7.503772965199571"><ele>359.0</ele><time>2026-05-01T08:08:10.999Z</time></trkpt><trkpt lat="45.08190305438764" lon="7.503602681634488"><ele>359.0</ele><time>2026-05-01T08:08:11.999Z</time></trkpt><trkpt lat="45.081975194201654" lon="7.503413187124096"><ele>359.0</ele><time>2026-05-01T08:08:12.999Z</time></trkpt><trkpt lat="45.082042165343445" lon="7.5032137271170285"><ele>359.33333333333337</ele><time>2026-05-01T08:08:13.999Z</time></trkpt><trkpt lat="45.08212888663981" lon="7.503011396509799"><ele>359.6666666666667</ele><time>2026-05-01T08:08:14.999Z</time></trkpt><trkpt lat="45.08221118968902" lon="7.502801181777884"><ele>360.0</ele><time>2026-05-01T08:08:15.999Z</time></trkpt><trkpt lat="45.08228374326486" lon="7.502588394614823"><ele>360.3333333333333</ele><time>2026-05-01T08:08:16.999Z</time></trkpt><trkpt lat="45.0823584916612" lon="7.502361973739595"><ele>360.66666666666663</ele><time>2026-05-01T08:08:17.999Z</time></trkpt><trkpt lat="45.08243794584252" lon="7.502171640196612"><ele>361.0</ele><time>2026-05-01T08:08:18.999Z</time></trkpt><trkpt lat="45.082503568124174" lon="7.501993650995602"><ele>360.6</ele><time>2026-05-01T08:08:19.999Z</time></trkpt><trkpt lat="45.08253986029983" lon="7.5018454090771955"><ele>360.20000000000005</ele><time>2026-05-01T08:08:20.999Z</time></trkpt><trkpt lat="45.082589665673986" lon="7.501716684349824"><ele>359.79999999999995</ele><time>2026-05-01T08:08:21.999Z</time></trkpt><trkpt lat="45.08264741376907" lon="7.501610815628438"><ele>359.4</ele><time>2026-05-01T08:08:22.999Z</time></trkpt><trkpt lat="45.082735615681145" lon="7.50155168468097"><ele>359.0</ele><time>2026-05-01T08:08:23.999Z</time></trkpt><trkpt lat="45.082784255307494" lon="7.501444493350993"><ele>359.0</ele><time>2026-05-01T08:08:24.999Z</time></trkpt><trkpt lat="45.082806932553204" lon="7.5013209392603555"><ele>359.0</ele><time>2026-05-01T08:08:25.999Z</time></trkpt><trkpt lat="45.0828390621783" lon="7.501175236033207"><ele>359.0</ele><time>2026-05-01T08:08:26.999Z</time></trkpt><trkpt lat="45.08288321508777" lon="7.501015238771118"><ele>359.0</ele><time>2026-05-01T08:08:27.999Z</time></trkpt><trkpt lat="45.082944361787604" lon="7.500862108430657"><ele>359.0</ele><time>2026-05-01T08:08:28.999Z</time></trkpt><trkpt lat="45.08300440495047" lon="7.500699235009213"><ele>359.0</ele><time>2026-05-01T08:08:29.999Z</time></trkpt><trkpt lat="45.083073355259906" lon="7.500536037292548"><ele>359.0</ele><time>2026-05-01T08:08:30.999Z</time></trkpt><trkpt lat="45.08313898947243" lon="7.5003696887320785"><ele>359.0</ele><time>2026-05-01T08:08:31.999Z</time></trkpt><trkpt lat="45.08319869475725" lon="7.500214558575331"><ele>359.0</ele><time>2026-05-01T08:08:32.999Z</time></trkpt><trkpt lat="45.083254382171894" lon="7.500075706745463"><ele>359.0</ele><time>2026-05-01T08:08:34Z</time></trkpt><trkpt lat="45.08329579690686" lon="7.499934700598743"><ele>359.0</ele><time>2026-05-01T08:08:35Z</time></trkpt><trkpt lat="45.083331522616135" lon="7.499822607731366"><ele>359.0</ele><time>2026-05-01T08:08:36Z</time></trkpt><trkpt lat="45.08337446064524" lon="7.499718830887322"><ele>359.0</ele><time>2026-05-01T08:08:37Z</time></trkpt><trkpt lat="45.08342222777521" lon="7.49956657256177"><ele>359.0</ele><time>2026-05-01T08:08:39Z</time></trkpt><trkpt lat="45.083475869215114" lon="7.499427250371183"><ele>359.0</ele><time>2026-05-01T08:08:41Z</time></trkpt><trkpt lat="45.083508023679" lon="7.49934141657221"><ele>359.0</ele><time>2026-05-01T08:08:42Z</time></trkpt><trkpt lat="45.08355705383091" lon="7.499221819261207"><ele>359.0</ele><time>2026-05-01T08:08:43Z</time></trkpt><trkpt lat="45.08362917334445" lon="7.499078588295597"><ele>359.0</ele><time>2026-05-01T08:08:44Z</time></trkpt><trkpt lat="45.083678175485275" lon="7.498898354375766"><ele>359.0</ele><time>2026-05-01T08:08:45Z</time></trkpt><trkpt lat="45.083763233455386" lon="7.498729370543345"><ele>361.0</ele><time>2026-05-01T08:08:46Z</time></trkpt><trkpt lat="45.08384252315079" lon="7.498549422819746"><ele>363.0</ele><time>2026-05-01T08:08:47Z</time></trkpt><trkpt lat="45.08389579166622" lon="7.498318429582111"><ele>365.0</ele><time>2026-05-01T08:08:48Z</time></trkpt><trkpt lat="45.083979252961505" lon="7.498083951198065"><ele>362.6666666666667</ele><time>2026-05-01T08:08:49Z</time></trkpt><trkpt lat="45.08405969675249" lon="7.497865583807437"><ele>360.3333333333333</ele><time>2026-05-01T08:08:50Z</time></trkpt><trkpt lat="45.08412423185276" lon="7.497624778047659"><ele>358.0</ele><time>2026-05-01T08:08:51Z</time></trkpt><trkpt lat="45.084202426030835" lon="7.497385528654358"><ele>358.0</ele><time>2026-05-01T08:08:52Z</time></trkpt><trkpt lat="45.084284985073715" lon="7.4971379399909575"><ele>358.0</ele><time>2026-05-01T08:08:53Z</time></trkpt><trkpt lat="45.08435005705288" lon="7.496873723556958"><ele>358.0</ele><time>2026-05-01T08:08:54Z</time></trkpt><trkpt lat="45.084396305938526" lon="7.4965612474989545"><ele>357.5</ele><time>2026-05-01T08:08:55Z</time></trkpt><trkpt lat="45.08442466428826" lon="7.496236018268941"><ele>357.0</ele><time>2026-05-01T08:08:56Z</time></trkpt><trkpt lat="45.084422728749935" lon="7.495917494978341"><ele>357.0</ele><time>2026-05-01T08:08:57Z</time></trkpt><trkpt lat="45.084426473298684" lon="7.495622546764102"><ele>357.0</ele><time>2026-05-01T08:08:58Z</time></trkpt><trkpt lat="45.08443266820101" lon="7.495337406142914"><ele>357.0</ele><time>2026-05-01T08:08:59Z</time></trkpt><trkpt lat="45.084410645901826" lon="7.495044848816011"><ele>355.3333333333333</ele><time>2026-05-01T08:09:00Z</time></trkpt><trkpt lat="45.084391051070675" lon="7.494733427011982"><ele>353.66666666666663</ele><time>2026-05-01T08:09:01Z</time></trkpt><trkpt lat="45.08434001279014" lon="7.494442439223036"><ele>352.0</ele><time>2026-05-01T08:09:02Z</time></trkpt><trkpt lat="45.08427683284751" lon="7.494174101507396"><ele>350.0</ele><time>2026-05-01T08:09:03Z</time></trkpt><trkpt lat="45.084233236343664" lon="7.493882313224287"><ele>348.0</ele><time>2026-05-01T08:09:04Z</time></trkpt><trkpt lat="45.08421474907974" lon="7.493599226129883"><ele>346.0</ele><time>2026-05-01T08:09:05Z</time></trkpt><trkpt lat="45.08424259224624" lon="7.493335114277855"><ele>344.3333333333333</ele><time>2026-05-01T08:09:06Z</time></trkpt><trkpt lat="45.08429563913961" lon="7.493068753654381"><ele>342.6666666666667</ele><time>2026-05-01T08:09:07Z</time></trkpt><trkpt lat="45.0843581904378" lon="7.492823880414015"><ele>341.0</ele><time>2026-05-01T08:09:08Z</time></trkpt><trkpt lat="45.0844431878924" lon="7.49255889161902"><ele>340.6666666666667</ele><time>2026-05-01T08:09:09Z</time></trkpt><trkpt lat="45.08457179816145" lon="7.492344034329624"><ele>340.3333333333333</ele><time>2026-05-01T08:09:10Z</time></trkpt><trkpt lat="45.08467817612652" lon="7.4920964308080125"><ele>340.0</ele><time>2026-05-01T08:09:11Z</time></trkpt><trkpt lat="45.08478854504135" lon="7.49181816528905"><ele>340.0</ele><time>2026-05-01T08:09:12Z</time></trkpt><trkpt lat="45.08488103094722" lon="7.491555461037441"><ele>340.0</ele><time>2026-05-01T08:09:13Z</time></trkpt><trkpt lat="45.084967368962815" lon="7.491298494620568"><ele>340.0</ele><time>2026-05-01T08:09:14Z</time></trkpt><trkpt lat="45.08501586827304" lon="7.491042505558336"><ele>339.66666666666663</ele><time>2026-05-01T08:09:15Z</time></trkpt><trkpt lat="45.08505372356574" lon="7.490769958025745"><ele>339.3333333333333</ele><time>2026-05-01T08:09:16Z</time></trkpt><trkpt lat="45.08509889062841" lon="7.490465787436773"><ele>339.0</ele><time>2026-05-01T08:09:17Z</time></trkpt><trkpt lat="45.0851026484175" lon="7.490166666967244"><ele>339.0</ele><time>2026-05-01T08:09:18Z</time></trkpt><trkpt lat="45.085097685185644" lon="7.489868212599723"><ele>339.0</ele><time>2026-05-01T08:09:19Z</time></trkpt><trkpt lat="45.08509036787042" lon="7.489563176812203"><ele>339.0</ele><time>2026-05-01T08:09:20Z</time></trkpt><trkpt lat="45.085071296279224" lon="7.489246393601053"><ele>339.0</ele><time>2026-05-01T08:09:21Z</time></trkpt><trkpt lat="45.08504807015724" lon="7.488946536102832"><ele>339.0</ele><time>2026-05-01T08:09:22Z</time></trkpt><trkpt lat="45.08503230524682" lon="7.4886286875264005"><ele>339.0</ele><time>2026-05-01T08:09:23Z</time></trkpt><trkpt lat="45.085026567812655" lon="7.488287861724404"><ele>338.5</ele><time>2026-05-01T08:09:24Z</time></trkpt><trkpt lat="45.08501988502671" lon="7.487940621353024"><ele>338.0</ele><time>2026-05-01T08:09:25Z</time></trkpt><trkpt lat="45.08499877406487" lon="7.487554648736492"><ele>337.0</ele><time>2026-05-01T08:09:26Z</time></trkpt><trkpt lat="45.08498652253257" lon="7.487198025642654"><ele>336.0</ele><time>2026-05-01T08:09:27Z</time></trkpt><trkpt lat="45.08497239124492" lon="7.486852317917876"><ele>336.0</ele><time>2026-05-01T08:09:28Z</time></trkpt><trkpt lat="45.08496327587184" lon="7.486514179460601"><ele>336.0</ele><time>2026-05-01T08:09:29Z</time></trkpt><trkpt lat="45.084953830952415" lon="7.486177431888138"><ele>335.0</ele><time>2026-05-01T08:09:30Z</time></trkpt><trkpt lat="45.08494242419174" lon="7.485839744277591"><ele>334.0</ele><time>2026-05-01T08:09:31Z</time></trkpt><trkpt lat="45.08492305604935" lon="7.485529619632526"><ele>334.3333333333333</ele><time>2026-05-01T08:09:32Z</time></trkpt><trkpt lat="45.08491072132331" lon="7.485207013067911"><ele>334.6666666666667</ele><time>2026-05-01T08:09:33Z</time></trkpt><trkpt lat="45.08492163472844" lon="7.48493428540578"><ele>335.0</ele><time>2026-05-01T08:09:34Z</time></trkpt><trkpt lat="45.08490675818252" lon="7.484652040688904"><ele>334.6666666666667</ele><time>2026-05-01T08:09:35Z</time></trkpt><trkpt lat="45.08490755198302" lon="7.4843900804422985"><ele>334.3333333333333</ele><time>2026-05-01T08:09:36Z</time></trkpt><trkpt lat="45.08492064997985" lon="7.484156793687979"><ele>334.0</ele><time>2026-05-01T08:09:37Z</time></trkpt><trkpt lat="45.08490935048096" lon="7.483911506970623"><ele>333.0</ele><time>2026-05-01T08:09:38Z</time></trkpt><trkpt lat="45.084887525434524" lon="7.483670131125328"><ele>332.0</ele><time>2026-05-01T08:09:39Z</time></trkpt><trkpt lat="45.08488244493384" lon="7.483433539090671"><ele>331.0</ele><time>2026-05-01T08:09:40Z</time></trkpt><trkpt lat="45.08487301505303" lon="7.48320325085593"><ele>331.0</ele><time>2026-05-01T08:09:41Z</time></trkpt><trkpt lat="45.084877263093915" lon="7.482988603318857"><ele>331.0</ele><time>2026-05-01T08:09:42Z</time></trkpt><trkpt lat="45.08487629088" lon="7.482777618418116"><ele>331.0</ele><time>2026-05-01T08:09:43Z</time></trkpt><trkpt lat="45.084875585896796" lon="7.482574718023387"><ele>331.0</ele><time>2026-05-01T08:09:44Z</time></trkpt><trkpt lat="45.08490527089325" lon="7.482389363894297"><ele>331.0</ele><time>2026-05-01T08:09:45Z</time></trkpt><trkpt lat="45.0848915962274" lon="7.482211009566068"><ele>331.0</ele><time>2026-05-01T08:09:46Z</time></trkpt><trkpt lat="45.08491016386216" lon="7.482031391893917"><ele>331.0</ele><time>2026-05-01T08:09:47Z</time></trkpt><trkpt lat="45.08494179641973" lon="7.4818394053165305"><ele>331.0</ele><time>2026-05-01T08:09:48Z</time></trkpt><trkpt lat="45.084955099439824" lon="7.481678146455298"><ele>331.0</ele><time>2026-05-01T08:09:49Z</time></trkpt><trkpt lat="45.08491911693058" lon="7.481505586266919"><ele>331.0</ele><time>2026-05-01T08:09:50Z</time></trkpt><trkpt lat="45.0848509373768" lon="7.481290488749624"><ele>331.0</ele><time>2026-05-01T08:09:51Z</time></trkpt><trkpt lat="45.08481946026781" lon="7.481077207231744"><ele>331.0</ele><time>2026-05-01T08:09:52Z</time></trkpt><trkpt lat="45.08480200986352" lon="7.480858165191544"><ele>331.66666666666663</ele><time>2026-05-01T08:09:52.999Z</time></trkpt><trkpt lat="45.084777577636935" lon="7.480595110562636"><ele>332.3333333333333</ele><time>2026-05-01T08:09:53.999Z</time></trkpt><trkpt lat="45.084766397563236" lon="7.480323771453869"><ele>333.0</ele><time>2026-05-01T08:09:54.999Z</time></trkpt><trkpt lat="45.08474722018054" lon="7.480042061496734"><ele>333.0</ele><time>2026-05-01T08:09:55.999Z</time></trkpt><trkpt lat="45.08473207043039" lon="7.479746072331126"><ele>333.0</ele><time>2026-05-01T08:09:56.999Z</time></trkpt><trkpt lat="45.084730971851236" lon="7.4794244570752335"><ele>333.0</ele><time>2026-05-01T08:09:57.999Z</time></trkpt><trkpt lat="45.084731520494806" lon="7.47906507294778"><ele>333.0</ele><time>2026-05-01T08:09:58.999Z</time></trkpt><trkpt lat="45.08473288162792" lon="7.478721404492798"><ele>333.0</ele><time>2026-05-01T08:09:59.999Z</time></trkpt><trkpt lat="45.08472892609233" lon="7.478375911617369"><ele>333.0</ele><time>2026-05-01T08:10:00.999Z</time></trkpt><trkpt lat="45.08473271432004" lon="7.47804091280839"><ele>333.0</ele><time>2026-05-01T08:10:01.999Z</time></trkpt><trkpt lat="45.0847250282671" lon="7.477684059784726"><ele>333.0</ele><time>2026-05-01T08:10:02.999Z</time></trkpt><trkpt lat="45.08472093791926" lon="7.477352630318918"><ele>333.0</ele><time>2026-05-01T08:10:03.999Z</time></trkpt><trkpt lat="45.084708767694515" lon="7.477025648376861"><ele>333.0</ele><time>2026-05-01T08:10:04.999Z</time></trkpt><trkpt lat="45.084701071891956" lon="7.476700726634189"><ele>333.0</ele><time>2026-05-01T08:10:05.999Z</time></trkpt><trkpt lat="45.08469377980242" lon="7.4763700342991495"><ele>332.0</ele><time>2026-05-01T08:10:06.999Z</time></trkpt><trkpt lat="45.08468863971028" lon="7.476048088691625"><ele>331.0</ele><time>2026-05-01T08:10:07.999Z</time></trkpt><trkpt lat="45.08467973709469" lon="7.475727701126202"><ele>330.66666666666663</ele><time>2026-05-01T08:10:08.999Z</time></trkpt><trkpt lat="45.08467605039902" lon="7.4754079856104205"><ele>330.3333333333333</ele><time>2026-05-01T08:10:09.999Z</time></trkpt><trkpt lat="45.084666412166925" lon="7.475101122876693"><ele>330.0</ele><time>2026-05-01T08:10:10.999Z</time></trkpt><trkpt lat="45.08465307914147" lon="7.474785155637408"><ele>330.3333333333333</ele><time>2026-05-01T08:10:11.999Z</time></trkpt><trkpt lat="45.08464253900881" lon="7.474474709593189"><ele>330.66666666666663</ele><time>2026-05-01T08:10:12.999Z</time></trkpt><trkpt lat="45.084624930828184" lon="7.474175191760187"><ele>331.0</ele><time>2026-05-01T08:10:13.999Z</time></trkpt><trkpt lat="45.084618997817856" lon="7.473879550802707"><ele>331.3333333333333</ele><time>2026-05-01T08:10:14.999Z</time></trkpt><trkpt lat="45.08461110257763" lon="7.4735737118819"><ele>331.6666666666667</ele><time>2026-05-01T08:10:15.999Z</time></trkpt><trkpt lat="45.08459799926737" lon="7.47325741411782"><ele>332.0</ele><time>2026-05-01T08:10:16.999Z</time></trkpt><trkpt lat="45.08459279163309" lon="7.472944703940607"><ele>331.5</ele><time>2026-05-01T08:10:17.999Z</time></trkpt><trkpt lat="45.08458476472843" lon="7.472620624276202"><ele>331.0</ele><time>2026-05-01T08:10:18.999Z</time></trkpt><trkpt lat="45.08457021460998" lon="7.472301479186468"><ele>330.5</ele><time>2026-05-01T08:10:19.999Z</time></trkpt><trkpt lat="45.08456010737363" lon="7.471973583071164"><ele>330.0</ele><time>2026-05-01T08:10:20.999Z</time></trkpt><trkpt lat="45.0845554001925" lon="7.4716301872417965"><ele>329.5</ele><time>2026-05-01T08:10:21.999Z</time></trkpt><trkpt lat="45.08454524519225" lon="7.471264464221263"><ele>329.0</ele><time>2026-05-01T08:10:22.999Z</time></trkpt><trkpt lat="45.08452507127995" lon="7.470901364273021"><ele>329.0</ele><time>2026-05-01T08:10:23.999Z</time></trkpt><trkpt lat="45.08451414834433" lon="7.470542466992607"><ele>329.0</ele><time>2026-05-01T08:10:24.999Z</time></trkpt><trkpt lat="45.08449791042187" lon="7.470184591905463"><ele>328.5</ele><time>2026-05-01T08:10:25.999Z</time></trkpt><trkpt lat="45.0844872301629" lon="7.469825578028535"><ele>328.0</ele><time>2026-05-01T08:10:26.999Z</time></trkpt><trkpt lat="45.08449084328831" lon="7.469470173056258"><ele>330.0</ele><time>2026-05-01T08:10:27.999Z</time></trkpt><trkpt lat="45.08449032903212" lon="7.469113901000797"><ele>332.0</ele><time>2026-05-01T08:10:28.999Z</time></trkpt><trkpt lat="45.084480139076824" lon="7.468756135881643"><ele>332.0</ele><time>2026-05-01T08:10:29.999Z</time></trkpt><trkpt lat="45.08446251845941" lon="7.468402391223609"><ele>332.0</ele><time>2026-05-01T08:10:30.999Z</time></trkpt><trkpt lat="45.08445557370761" lon="7.468048624474434"><ele>332.0</ele><time>2026-05-01T08:10:31.999Z</time></trkpt><trkpt lat="45.084450848829036" lon="7.467694109037794"><ele>332.0</ele><time>2026-05-01T08:10:32.999Z</time></trkpt><trkpt lat="45.08443849492829" lon="7.467342956611642"><ele>331.5</ele><time>2026-05-01T08:10:33.999Z</time></trkpt><trkpt lat="45.08443483881066" lon="7.466993963142194"><ele>331.0</ele><time>2026-05-01T08:10:34.999Z</time></trkpt><trkpt lat="45.08442482040393" lon="7.466653652351004"><ele>331.0</ele><time>2026-05-01T08:10:35.999Z</time></trkpt><trkpt lat="45.0844180715729" lon="7.466312436559364"><ele>331.0</ele><time>2026-05-01T08:10:36.999Z</time></trkpt><trkpt lat="45.08441033620276" lon="7.46597014662264"><ele>331.5</ele><time>2026-05-01T08:10:37.999Z</time></trkpt><trkpt lat="45.084399288024606" lon="7.465631709489766"><ele>332.0</ele><time>2026-05-01T08:10:38.999Z</time></trkpt><trkpt lat="45.08439139834194" lon="7.465303468670286"><ele>332.5</ele><time>2026-05-01T08:10:40Z</time></trkpt><trkpt lat="45.084395393231304" lon="7.464980045643052"><ele>333.0</ele><time>2026-05-01T08:10:41Z</time></trkpt><trkpt lat="45.084385645546895" lon="7.464658896957233"><ele>332.6666666666667</ele><time>2026-05-01T08:10:42Z</time></trkpt><trkpt lat="45.08437752881721" lon="7.464342772817638"><ele>332.33333333333337</ele><time>2026-05-01T08:10:43Z</time></trkpt><trkpt lat="45.08437278248837" lon="7.46404957085167"><ele>332.0</ele><time>2026-05-01T08:10:44Z</time></trkpt><trkpt lat="45.08437083196207" lon="7.463796748709751"><ele>331.5</ele><time>2026-05-01T08:10:45Z</time></trkpt><trkpt lat="45.084365909334686" lon="7.463559588291682"><ele>331.0</ele><time>2026-05-01T08:10:46Z</time></trkpt><trkpt lat="45.08436154142621" lon="7.463351226690535"><ele>330.5</ele><time>2026-05-01T08:10:47Z</time></trkpt><trkpt lat="45.08437020689114" lon="7.463170354869883"><ele>330.0</ele><time>2026-05-01T08:10:48Z</time></trkpt><trkpt lat="45.084388503314386" lon="7.46298600831055"><ele>329.8</ele><time>2026-05-01T08:10:49Z</time></trkpt><trkpt lat="45.08442768414533" lon="7.462835366579636"><ele>329.6</ele><time>2026-05-01T08:10:50Z</time></trkpt><trkpt lat="45.084478740765775" lon="7.4627030822681695"><ele>329.4</ele><time>2026-05-01T08:10:51Z</time></trkpt><trkpt lat="45.08449129639874" lon="7.462577123849954"><ele>329.2</ele><time>2026-05-01T08:10:52Z</time></trkpt><trkpt lat="45.084480137162295" lon="7.46244194429863"><ele>329.0</ele><time>2026-05-01T08:10:53Z</time></trkpt><trkpt lat="45.08440865251193" lon="7.4623080699967295"><ele>329.0</ele><time>2026-05-01T08:10:54Z</time></trkpt><trkpt lat="45.08436312329272" lon="7.462168772385288"><ele>329.0</ele><time>2026-05-01T08:10:55Z</time></trkpt><trkpt lat="45.084300400211845" lon="7.461954398201381"><ele>329.0</ele><time>2026-05-01T08:10:56Z</time></trkpt><trkpt lat="45.084265149129855" lon="7.461763097886635"><ele>329.0</ele><time>2026-05-01T08:10:57Z</time></trkpt><trkpt lat="45.08426050507002" lon="7.461514977441846"><ele>328.33333333333337</ele><time>2026-05-01T08:10:58Z</time></trkpt><trkpt lat="45.084265311686806" lon="7.4612467456980935"><ele>327.6666666666667</ele><time>2026-05-01T08:10:59Z</time></trkpt><trkpt lat="45.08426693278378" lon="7.460980081630483"><ele>327.0</ele><time>2026-05-01T08:11:00Z</time></trkpt><trkpt lat="45.08427911083421" lon="7.460716453810043"><ele>327.0</ele><time>2026-05-01T08:11:01Z</time></trkpt><trkpt lat="45.08428272356998" lon="7.4604191117229215"><ele>327.0</ele><time>2026-05-01T08:11:02Z</time></trkpt><trkpt lat="45.084275437744516" lon="7.460096093633313"><ele>327.0</ele><time>2026-05-01T08:11:03Z</time></trkpt><trkpt lat="45.084268719355386" lon="7.459800488267332"><ele>327.0</ele><time>2026-05-01T08:11:04Z</time></trkpt><trkpt lat="45.08427034371746" lon="7.459499999207319"><ele>327.0</ele><time>2026-05-01T08:11:05Z</time></trkpt><trkpt lat="45.08425870000769" lon="7.459184343259887"><ele>327.0</ele><time>2026-05-01T08:11:06Z</time></trkpt><trkpt lat="45.08424270190144" lon="7.458881838938708"><ele>327.3333333333333</ele><time>2026-05-01T08:11:07Z</time></trkpt><trkpt lat="45.084229199038866" lon="7.458568439131708"><ele>327.66666666666663</ele><time>2026-05-01T08:11:08Z</time></trkpt><trkpt lat="45.084215421757655" lon="7.4582562457661306"><ele>328.0</ele><time>2026-05-01T08:11:09Z</time></trkpt><trkpt lat="45.084205083272444" lon="7.4579102158684405"><ele>328.5</ele><time>2026-05-01T08:11:10Z</time></trkpt><trkpt lat="45.08419692006529" lon="7.4575586412399915"><ele>329.0</ele><time>2026-05-01T08:11:11Z</time></trkpt><trkpt lat="45.084181611453765" lon="7.45719893447883"><ele>330.0</ele><time>2026-05-01T08:11:12Z</time></trkpt><trkpt lat="45.08418002058216" lon="7.456828759167913"><ele>331.0</ele><time>2026-05-01T08:11:13Z</time></trkpt><trkpt lat="45.084173151126556" lon="7.4564599477609805"><ele>332.5</ele><time>2026-05-01T08:11:14Z</time></trkpt><trkpt lat="45.08416102077644" lon="7.4560977425507575"><ele>334.0</ele><time>2026-05-01T08:11:15Z</time></trkpt><trkpt lat="45.08415260478125" lon="7.455739971583134"><ele>334.0</ele><time>2026-05-01T08:11:16Z</time></trkpt><trkpt lat="45.08413568224956" lon="7.455380044890329"><ele>334.0</ele><time>2026-05-01T08:11:17Z</time></trkpt><trkpt lat="45.08412559832174" lon="7.455028431733341"><ele>334.0</ele><time>2026-05-01T08:11:18Z</time></trkpt><trkpt lat="45.084114084585416" lon="7.4546944113565665"><ele>334.0</ele><time>2026-05-01T08:11:19Z</time></trkpt><trkpt lat="45.084107212442085" lon="7.454374685812261"><ele>333.5</ele><time>2026-05-01T08:11:20Z</time></trkpt><trkpt lat="45.084101299597165" lon="7.454047592197726"><ele>333.0</ele><time>2026-05-01T08:11:21Z</time></trkpt><trkpt lat="45.084082729994016" lon="7.4537019342947675"><ele>332.5</ele><time>2026-05-01T08:11:22Z</time></trkpt><trkpt lat="45.084064333127294" lon="7.453355693036787"><ele>332.0</ele><time>2026-05-01T08:11:23Z</time></trkpt><trkpt lat="45.08405049927898" lon="7.45300820271244"><ele>333.0</ele><time>2026-05-01T08:11:24Z</time></trkpt><trkpt lat="45.0840379881045" lon="7.4526664064289045"><ele>334.0</ele><time>2026-05-01T08:11:25Z</time></trkpt><trkpt lat="45.08403018631427" lon="7.452346319630906"><ele>334.0</ele><time>2026-05-01T08:11:26Z</time></trkpt><trkpt lat="45.084031567083024" lon="7.452021208982019"><ele>334.0</ele><time>2026-05-01T08:11:27Z</time></trkpt><trkpt lat="45.084031452753976" lon="7.451710414392202"><ele>334.0</ele><time>2026-05-01T08:11:28Z</time></trkpt><trkpt lat="45.08403238359604" lon="7.451391286239893"><ele>334.0</ele><time>2026-05-01T08:11:29Z</time></trkpt><trkpt lat="45.08403472287124" lon="7.45108229135687"><ele>334.0</ele><time>2026-05-01T08:11:30Z</time></trkpt><trkpt lat="45.08403574735279" lon="7.450789734563489"><ele>334.0</ele><time>2026-05-01T08:11:31Z</time></trkpt><trkpt lat="45.0840371007404" lon="7.450522629628742"><ele>334.3333333333333</ele><time>2026-05-01T08:11:32Z</time></trkpt><trkpt lat="45.08404104672716" lon="7.4502721509243885"><ele>334.6666666666667</ele><time>2026-05-01T08:11:33Z</time></trkpt><trkpt lat="45.08403551700394" lon="7.4500331582114345"><ele>335.0</ele><time>2026-05-01T08:11:34Z</time></trkpt><trkpt lat="45.08404301789169" lon="7.4498175426249285"><ele>335.25</ele><time>2026-05-01T08:11:35Z</time></trkpt><trkpt lat="45.08404727566493" lon="7.449615805705815"><ele>335.5</ele><time>2026-05-01T08:11:36Z</time></trkpt><trkpt lat="45.08404370798276" lon="7.449412277674955"><ele>335.75</ele><time>2026-05-01T08:11:37Z</time></trkpt><trkpt lat="45.084051256582974" lon="7.449220854938903"><ele>336.0</ele><time>2026-05-01T08:11:38Z</time></trkpt><trkpt lat="45.08406004825952" lon="7.449043053443134"><ele>336.0</ele><time>2026-05-01T08:11:39Z</time></trkpt><trkpt lat="45.08407529762795" lon="7.448916188370397"><ele>336.0</ele><time>2026-05-01T08:11:40Z</time></trkpt><trkpt lat="45.08411560421307" lon="7.448768318921695"><ele>336.0</ele><time>2026-05-01T08:11:42Z</time></trkpt><trkpt lat="45.08414636307612" lon="7.448681469057127"><ele>336.0</ele><time>2026-05-01T08:11:43Z</time></trkpt><trkpt lat="45.08416268241648" lon="7.448591375709775"><ele>336.0</ele><time>2026-05-01T08:11:44Z</time></trkpt><trkpt lat="45.08415294515908" lon="7.448495679588444"><ele>336.0</ele><time>2026-05-01T08:11:45Z</time></trkpt><trkpt lat="45.08414515992912" lon="7.448399810783403"><ele>335.6</ele><time>2026-05-01T08:11:46Z</time></trkpt><trkpt lat="45.084107309564445" lon="7.4482971440156245"><ele>335.20000000000005</ele><time>2026-05-01T08:11:47Z</time></trkpt><trkpt lat="45.084079454781204" lon="7.448170387116131"><ele>334.79999999999995</ele><time>2026-05-01T08:11:48Z</time></trkpt><trkpt lat="45.08405058329864" lon="7.448025024993079"><ele>334.4</ele><time>2026-05-01T08:11:49Z</time></trkpt><trkpt lat="45.08401596842232" lon="7.447833479745725"><ele>334.0</ele><time>2026-05-01T08:11:50Z</time></trkpt><trkpt lat="45.08397304883696" lon="7.4475432082320845"><ele>334.0</ele><time>2026-05-01T08:11:51Z</time></trkpt><trkpt lat="45.083970962418384" lon="7.4472765100868035"><ele>334.0</ele><time>2026-05-01T08:11:52Z</time></trkpt><trkpt lat="45.083977532353515" lon="7.446930427712127"><ele>334.0</ele><time>2026-05-01T08:11:53Z</time></trkpt><trkpt lat="45.083917886805445" lon="7.446624288164707"><ele>334.0</ele><time>2026-05-01T08:11:54Z</time></trkpt><trkpt lat="45.08392969395095" lon="7.446345906893901"><ele>334.0</ele><time>2026-05-01T08:11:55Z</time></trkpt><trkpt lat="45.08391317559903" lon="7.446067674039783"><ele>334.0</ele><time>2026-05-01T08:11:56Z</time></trkpt><trkpt lat="45.08387922508966" lon="7.445773997754915"><ele>334.0</ele><time>2026-05-01T08:11:57Z</time></trkpt><trkpt lat="45.08385488267987" lon="7.445485787138548"><ele>334.0</ele><time>2026-05-01T08:11:58Z</time></trkpt><trkpt lat="45.083836315880944" lon="7.445200915171045"><ele>334.0</ele><time>2026-05-01T08:11:59Z</time></trkpt><trkpt lat="45.083827593816316" lon="7.444904233601058"><ele>333.3333333333333</ele><time>2026-05-01T08:12:00Z</time></trkpt><trkpt lat="45.08380360880772" lon="7.444606270877002"><ele>332.6666666666667</ele><time>2026-05-01T08:12:01Z</time></trkpt><trkpt lat="45.08380061718647" lon="7.444311002429102"><ele>332.0</ele><time>2026-05-01T08:12:02Z</time></trkpt><trkpt lat="45.08378367656802" lon="7.444016110971084"><ele>332.6666666666667</ele><time>2026-05-01T08:12:03Z</time></trkpt><trkpt lat="45.0837841672831" lon="7.443722985381024"><ele>333.3333333333333</ele><time>2026-05-01T08:12:04Z</time></trkpt><trkpt lat="45.08377390246787" lon="7.443442364734338"><ele>334.0</ele><time>2026-05-01T08:12:05Z</time></trkpt><trkpt lat="45.08377481659753" lon="7.443162013169551"><ele>334.3333333333333</ele><time>2026-05-01T08:12:06Z</time></trkpt><trkpt lat="45.08376634069373" lon="7.442903208295167"><ele>334.6666666666667</ele><time>2026-05-01T08:12:07Z</time></trkpt><trkpt lat="45.083761185439705" lon="7.442646323766086"><ele>335.0</ele><time>2026-05-01T08:12:08Z</time></trkpt><trkpt lat="45.08374827568398" lon="7.442388985195772"><ele>335.33333333333337</ele><time>2026-05-01T08:12:09Z</time></trkpt><trkpt lat="45.08373588612842" lon="7.44212942748029"><ele>335.6666666666667</ele><time>2026-05-01T08:12:10Z</time></trkpt><trkpt lat="45.083716911323506" lon="7.441870949253077"><ele>336.0</ele><time>2026-05-01T08:12:10.999Z</time></trkpt><trkpt lat="45.08370972428794" lon="7.441586570125731"><ele>335.6666666666667</ele><time>2026-05-01T08:12:11.999Z</time></trkpt><trkpt lat="45.083712152571664" lon="7.441294301341202"><ele>335.33333333333337</ele><time>2026-05-01T08:12:12.999Z</time></trkpt><trkpt lat="45.08370456291987" lon="7.441007362248412"><ele>335.0</ele><time>2026-05-01T08:12:13.999Z</time></trkpt><trkpt lat="45.08370002065155" lon="7.440732538448401"><ele>335.33333333333337</ele><time>2026-05-01T08:12:14.999Z</time></trkpt><trkpt lat="45.083697494716716" lon="7.440437704493029"><ele>335.6666666666667</ele><time>2026-05-01T08:12:15.999Z</time></trkpt><trkpt lat="45.08369364676198" lon="7.440139319373917"><ele>336.0</ele><time>2026-05-01T08:12:16.999Z</time></trkpt><trkpt lat="45.08368168156198" lon="7.439842780635759"><ele>336.0</ele><time>2026-05-01T08:12:17.999Z</time></trkpt><trkpt lat="45.08366752876506" lon="7.4395518314924445"><ele>336.0</ele><time>2026-05-01T08:12:18.999Z</time></trkpt><trkpt lat="45.08365778948088" lon="7.439264815168521"><ele>336.0</ele><time>2026-05-01T08:12:19.999Z</time></trkpt><trkpt lat="45.08364491977269" lon="7.438976117482449"><ele>336.0</ele><time>2026-05-01T08:12:20.999Z</time></trkpt><trkpt lat="45.08363784968302" lon="7.438685959516405"><ele>336.0</ele><time>2026-05-01T08:12:21.999Z</time></trkpt><trkpt lat="45.08362591244903" lon="7.43838957127293"><ele>336.0</ele><time>2026-05-01T08:12:22.999Z</time></trkpt><trkpt lat="45.0836174035943" lon="7.4381079078844"><ele>336.0</ele><time>2026-05-01T08:12:23.999Z</time></trkpt><trkpt lat="45.083612655073736" lon="7.437854043949934"><ele>336.0</ele><time>2026-05-01T08:12:24.999Z</time></trkpt><trkpt lat="45.083614099969914" lon="7.437608808271598"><ele>336.0</ele><time>2026-05-01T08:12:25.999Z</time></trkpt><trkpt lat="45.08360696764518" lon="7.437367994122242"><ele>336.0</ele><time>2026-05-01T08:12:26.999Z</time></trkpt><trkpt lat="45.08360428558771" lon="7.437138311975036"><ele>336.0</ele><time>2026-05-01T08:12:27.999Z</time></trkpt><trkpt lat="45.083614930856186" lon="7.436944492770348"><ele>336.0</ele><time>2026-05-01T08:12:28.999Z</time></trkpt><trkpt lat="45.08360721120337" lon="7.436776320427185"><ele>336.0</ele><time>2026-05-01T08:12:29.999Z</time></trkpt><trkpt lat="45.08361093507606" lon="7.436599527746366"><ele>336.0</ele><time>2026-05-01T08:12:30.999Z</time></trkpt><trkpt lat="45.08359418629369" lon="7.436447743626558"><ele>336.0</ele><time>2026-05-01T08:12:31.999Z</time></trkpt><trkpt lat="45.08358861684327" lon="7.43631941140922"><ele>336.0</ele><time>2026-05-01T08:12:32.999Z</time></trkpt><trkpt lat="45.08358354858238" lon="7.436152848569746"><ele>336.0</ele><time>2026-05-01T08:12:34.999Z</time></trkpt><trkpt lat="45.083571360629364" lon="7.436062121543758"><ele>336.0</ele><time>2026-05-01T08:12:35.999Z</time></trkpt><trkpt lat="45.0835686807332" lon="7.435969147728407"><ele>336.0</ele><time>2026-05-01T08:12:36.999Z</time></trkpt><trkpt lat="45.08356011537761" lon="7.435846091198533"><ele>336.0</ele><time>2026-05-01T08:12:37.999Z</time></trkpt><trkpt lat="45.08355469491224" lon="7.435714074478091"><ele>336.0</ele><time>2026-05-01T08:12:38.999Z</time></trkpt><trkpt lat="45.08355428042615" lon="7.435545219548393"><ele>336.0</ele><time>2026-05-01T08:12:39.999Z</time></trkpt><trkpt lat="45.08354266878568" lon="7.4353772395775435"><ele>336.0</ele><time>2026-05-01T08:12:40.999Z</time></trkpt><trkpt lat="45.08351877817113" lon="7.43518624607091"><ele>336.75</ele><time>2026-05-01T08:12:41.999Z</time></trkpt><trkpt lat="45.08352655404821" lon="7.435013052392336"><ele>337.5</ele><time>2026-05-01T08:12:42.999Z</time></trkpt><trkpt lat="45.08352060450406" lon="7.434828087283451"><ele>338.25</ele><time>2026-05-01T08:12:43.999Z</time></trkpt><trkpt lat="45.083520399624035" lon="7.434639655312513"><ele>339.0</ele><time>2026-05-01T08:12:44.999Z</time></trkpt><trkpt lat="45.083509459023354" lon="7.434437395123655"><ele>339.0</ele><time>2026-05-01T08:12:46Z</time></trkpt><trkpt lat="45.08350239539837" lon="7.4342288207051155"><ele>339.0</ele><time>2026-05-01T08:12:47Z</time></trkpt><trkpt lat="45.0834991338536" lon="7.434026965195993"><ele>339.0</ele><time>2026-05-01T08:12:48Z</time></trkpt><trkpt lat="45.083499192004254" lon="7.433828726568591"><ele>339.0</ele><time>2026-05-01T08:12:49Z</time></trkpt><trkpt lat="45.083492157136405" lon="7.43363735304706"><ele>339.0</ele><time>2026-05-01T08:12:50Z</time></trkpt><trkpt lat="45.083487219588704" lon="7.433452569034126"><ele>339.0</ele><time>2026-05-01T08:12:51Z</time></trkpt><trkpt lat="45.083484552435316" lon="7.433270432651602"><ele>339.0</ele><time>2026-05-01T08:12:52Z</time></trkpt><trkpt lat="45.083476771277546" lon="7.433079188131204"><ele>339.0</ele><time>2026-05-01T08:12:53Z</time></trkpt><trkpt lat="45.08347619814549" lon="7.4329094754019644"><ele>339.0</ele><time>2026-05-01T08:12:54Z</time></trkpt><trkpt lat="45.08347113547976" lon="7.432737587527665"><ele>339.0</ele><time>2026-05-01T08:12:55Z</time></trkpt><trkpt lat="45.083458464394795" lon="7.43255204530917"><ele>339.0</ele><time>2026-05-01T08:12:56Z</time></trkpt><trkpt lat="45.083464050701764" lon="7.432374810206114"><ele>339.0</ele><time>2026-05-01T08:12:57Z</time></trkpt><trkpt lat="45.083457389202934" lon="7.432187534243687"><ele>339.25</ele><time>2026-05-01T08:12:58Z</time></trkpt><trkpt lat="45.0834452756968" lon="7.43198564512653"><ele>339.5</ele><time>2026-05-01T08:12:59Z</time></trkpt><trkpt lat="45.08344246222619" lon="7.431795761513682"><ele>339.75</ele><time>2026-05-01T08:13:00Z</time></trkpt><trkpt lat="45.083445248293515" lon="7.431589403265883"><ele>340.0</ele><time>2026-05-01T08:13:01Z</time></trkpt><trkpt lat="45.08344484926321" lon="7.4313792343259735"><ele>339.66666666666663</ele><time>2026-05-01T08:13:02Z</time></trkpt><trkpt lat="45.08343965273402" lon="7.431164545973561"><ele>339.3333333333333</ele><time>2026-05-01T08:13:03Z</time></trkpt><trkpt lat="45.08342805000347" lon="7.430936227444394"><ele>339.0</ele><time>2026-05-01T08:13:04Z</time></trkpt><trkpt lat="45.08341792037948" lon="7.430720409551146"><ele>339.0</ele><time>2026-05-01T08:13:05Z</time></trkpt><trkpt lat="45.08341179349831" lon="7.430502700059556"><ele>339.0</ele><time>2026-05-01T08:13:06Z</time></trkpt><trkpt lat="45.08339710431034" lon="7.430282986409151"><ele>339.0</ele><time>2026-05-01T08:13:07Z</time></trkpt><trkpt lat="45.08339939027647" lon="7.43005589755395"><ele>339.0</ele><time>2026-05-01T08:13:08Z</time></trkpt><trkpt lat="45.08338718791239" lon="7.4298353983281915"><ele>339.0</ele><time>2026-05-01T08:13:09Z</time></trkpt><trkpt lat="45.08339457499844" lon="7.429627689209432"><ele>339.0</ele><time>2026-05-01T08:13:10Z</time></trkpt><trkpt lat="45.08339028515638" lon="7.42941921811298"><ele>339.0</ele><time>2026-05-01T08:13:11Z</time></trkpt><trkpt lat="45.08338056594029" lon="7.429217471723"><ele>339.0</ele><time>2026-05-01T08:13:12Z</time></trkpt><trkpt lat="45.083378331624644" lon="7.429007102401898"><ele>339.0</ele><time>2026-05-01T08:13:13Z</time></trkpt><trkpt lat="45.083380033560054" lon="7.428795013887136"><ele>339.0</ele><time>2026-05-01T08:13:14Z</time></trkpt><trkpt lat="45.083371887842326" lon="7.42858647457913"><ele>339.0</ele><time>2026-05-01T08:13:15Z</time></trkpt><trkpt lat="45.08335589709473" lon="7.428386260052733"><ele>339.0</ele><time>2026-05-01T08:13:16Z</time></trkpt><trkpt lat="45.083340191534504" lon="7.428188219556725"><ele>339.0</ele><time>2026-05-01T08:13:17Z</time></trkpt><trkpt lat="45.08333427997565" lon="7.427965729821612"><ele>339.0</ele><time>2026-05-01T08:13:18Z</time></trkpt><trkpt lat="45.083326916800324" lon="7.427761201949053"><ele>339.25</ele><time>2026-05-01T08:13:19Z</time></trkpt><trkpt lat="45.083325209748544" lon="7.427572868751822"><ele>339.5</ele><time>2026-05-01T08:13:20Z</time></trkpt><trkpt lat="45.08332590957427" lon="7.427378851257626"><ele>339.75</ele><time>2026-05-01T08:13:21Z</time></trkpt><trkpt lat="45.08332269228485" lon="7.427183145382008"><ele>340.0</ele><time>2026-05-01T08:13:22Z</time></trkpt><trkpt lat="45.08331999481347" lon="7.426961310897448"><ele>340.3333333333333</ele><time>2026-05-01T08:13:23Z</time></trkpt><trkpt lat="45.083318670872764" lon="7.426747886276788"><ele>340.6666666666667</ele><time>2026-05-01T08:13:24Z</time></trkpt><trkpt lat="45.08330540198433" lon="7.426524550389838"><ele>341.0</ele><time>2026-05-01T08:13:25Z</time></trkpt><trkpt lat="45.083304574281335" lon="7.426312836991167"><ele>341.25</ele><time>2026-05-01T08:13:26Z</time></trkpt><trkpt lat="45.08331432623464" lon="7.426098987508957"><ele>341.5</ele><time>2026-05-01T08:13:27Z</time></trkpt><trkpt lat="45.08331304748071" lon="7.425885274991485"><ele>341.75</ele><time>2026-05-01T08:13:28Z</time></trkpt><trkpt lat="45.08330953002146" lon="7.425676823235704"><ele>342.0</ele><time>2026-05-01T08:13:29Z</time></trkpt><trkpt lat="45.08330543617553" lon="7.425468316562086"><ele>341.3333333333333</ele><time>2026-05-01T08:13:30Z</time></trkpt><trkpt lat="45.08329641953081" lon="7.425233012977735"><ele>340.66666666666663</ele><time>2026-05-01T08:13:31Z</time></trkpt><trkpt lat="45.08328312900591" lon="7.4250255315611104"><ele>340.0</ele><time>2026-05-01T08:13:32Z</time></trkpt><trkpt lat="45.083276593621015" lon="7.424810245045076"><ele>340.0</ele><time>2026-05-01T08:13:33Z</time></trkpt><trkpt lat="45.08327884895547" lon="7.424588023877436"><ele>340.0</ele><time>2026-05-01T08:13:34Z</time></trkpt><trkpt lat="45.08327189349991" lon="7.424356907437605"><ele>340.0</ele><time>2026-05-01T08:13:35Z</time></trkpt><trkpt lat="45.08326893988157" lon="7.424115663313213"><ele>340.0</ele><time>2026-05-01T08:13:36Z</time></trkpt><trkpt lat="45.08326460683994" lon="7.423883559789149"><ele>340.0</ele><time>2026-05-01T08:13:37Z</time></trkpt><trkpt lat="45.08324926835001" lon="7.423633346828012"><ele>340.0</ele><time>2026-05-01T08:13:38Z</time></trkpt><trkpt lat="45.08325419492159" lon="7.423383480716595"><ele>339.66666666666663</ele><time>2026-05-01T08:13:39Z</time></trkpt><trkpt lat="45.08324832052182" lon="7.423138499507151"><ele>339.3333333333333</ele><time>2026-05-01T08:13:40Z</time></trkpt><trkpt lat="45.08323865299846" lon="7.422888984246523"><ele>339.0</ele><time>2026-05-01T08:13:41Z</time></trkpt><trkpt lat="45.08322039499554" lon="7.422631399257043"><ele>339.0</ele><time>2026-05-01T08:13:42Z</time></trkpt><trkpt lat="45.08321329586659" lon="7.422345835462134"><ele>339.0</ele><time>2026-05-01T08:13:43Z</time></trkpt><trkpt lat="45.08321049728761" lon="7.422065672369344"><ele>339.0</ele><time>2026-05-01T08:13:44Z</time></trkpt><trkpt lat="45.08320527577245" lon="7.421828765033985"><ele>338.6666666666667</ele><time>2026-05-01T08:13:45Z</time></trkpt><trkpt lat="45.08320360153966" lon="7.421582234074673"><ele>338.33333333333337</ele><time>2026-05-01T08:13:46Z</time></trkpt><trkpt lat="45.083193265229895" lon="7.42134469146116"><ele>338.0</ele><time>2026-05-01T08:13:47Z</time></trkpt><trkpt lat="45.08318399621742" lon="7.421101375243802"><ele>338.0</ele><time>2026-05-01T08:13:48Z</time></trkpt><trkpt lat="45.08317578958771" lon="7.420863174923998"><ele>338.0</ele><time>2026-05-01T08:13:49Z</time></trkpt><trkpt lat="45.083170332525626" lon="7.420648161245097"><ele>338.0</ele><time>2026-05-01T08:13:50Z</time></trkpt><trkpt lat="45.08316145627055" lon="7.420439350152122"><ele>337.79999999999995</ele><time>2026-05-01T08:13:51Z</time></trkpt><trkpt lat="45.083160295962486" lon="7.420235623213598"><ele>337.6</ele><time>2026-05-01T08:13:52Z</time></trkpt><trkpt lat="45.08315182919796" lon="7.420069136186567"><ele>337.4</ele><time>2026-05-01T08:13:53Z</time></trkpt><trkpt lat="45.08315949130884" lon="7.419963775134419"><ele>337.20000000000005</ele><time>2026-05-01T08:13:54Z</time></trkpt><trkpt lat="45.08317191050618" lon="7.419824774493949"><ele>337.0</ele><time>2026-05-01T08:13:55Z</time></trkpt><trkpt lat="45.08326998074751" lon="7.419722259290902"><ele>337.40000000000003</ele><time>2026-05-01T08:13:56Z</time></trkpt><trkpt lat="45.08332396777882" lon="7.419607332527493"><ele>337.8</ele><time>2026-05-01T08:13:57Z</time></trkpt><trkpt lat="45.08337449197433" lon="7.419495320026539"><ele>338.2</ele><time>2026-05-01T08:13:58Z</time></trkpt><trkpt lat="45.08339345435306" lon="7.419356851883389"><ele>338.6</ele><time>2026-05-01T08:13:59Z</time></trkpt><trkpt lat="45.08338184974697" lon="7.419197944919688"><ele>339.0</ele><time>2026-05-01T08:14:00Z</time></trkpt><trkpt lat="45.08331078354806" lon="7.41905563668412"><ele>339.5</ele><time>2026-05-01T08:14:01Z</time></trkpt><trkpt lat="45.083237508140826" lon="7.4189252124735905"><ele>340.0</ele><time>2026-05-01T08:14:02Z</time></trkpt><trkpt lat="45.0831850221175" lon="7.418797690687272"><ele>340.5</ele><time>2026-05-01T08:14:03Z</time></trkpt><trkpt lat="45.08309996475971" lon="7.418680489769485"><ele>341.0</ele><time>2026-05-01T08:14:04Z</time></trkpt><trkpt lat="45.0830730995363" lon="7.418514109029886"><ele>341.0</ele><time>2026-05-01T08:14:05Z</time></trkpt><trkpt lat="45.08306100487214" lon="7.4183487800949095"><ele>341.0</ele><time>2026-05-01T08:14:06Z</time></trkpt><trkpt lat="45.08305981871713" lon="7.418171638984086"><ele>341.0</ele><time>2026-05-01T08:14:07Z</time></trkpt><trkpt lat="45.08305231662072" lon="7.417997484190601"><ele>341.0</ele><time>2026-05-01T08:14:07.999Z</time></trkpt><trkpt lat="45.0830535088257" lon="7.417769848974103"><ele>341.0</ele><time>2026-05-01T08:14:08.999Z</time></trkpt><trkpt lat="45.083094649269185" lon="7.4175368980441565"><ele>341.0</ele><time>2026-05-01T08:14:09.999Z</time></trkpt><trkpt lat="45.08312559378219" lon="7.417316978897248"><ele>341.0</ele><time>2026-05-01T08:14:10.999Z</time></trkpt><trkpt lat="45.08316827973994" lon="7.41707912996685"><ele>340.6666666666667</ele><time>2026-05-01T08:14:11.999Z</time></trkpt><trkpt lat="45.083224104167755" lon="7.416845360350186"><ele>340.3333333333333</ele><time>2026-05-01T08:14:12.999Z</time></trkpt><trkpt lat="45.08329836816686" lon="7.416616258014749"><ele>340.0</ele><time>2026-05-01T08:14:13.999Z</time></trkpt><trkpt lat="45.083386303388224" lon="7.416385703750886"><ele>340.0</ele><time>2026-05-01T08:14:14.999Z</time></trkpt><trkpt lat="45.083488061097114" lon="7.416164801834953"><ele>340.0</ele><time>2026-05-01T08:14:15.999Z</time></trkpt><trkpt lat="45.083575322317884" lon="7.4159298101839966"><ele>340.0</ele><time>2026-05-01T08:14:16.999Z</time></trkpt><trkpt lat="45.08367247774629" lon="7.415703879667003"><ele>340.0</ele><time>2026-05-01T08:14:17.999Z</time></trkpt><trkpt lat="45.08376067449066" lon="7.415469360656575"><ele>340.0</ele><time>2026-05-01T08:14:18.999Z</time></trkpt><trkpt lat="45.08385427653964" lon="7.415216785055601"><ele>340.0</ele><time>2026-05-01T08:14:19.999Z</time></trkpt><trkpt lat="45.083946997722094" lon="7.414933933948074"><ele>340.0</ele><time>2026-05-01T08:14:20.999Z</time></trkpt><trkpt lat="45.08404890238994" lon="7.4146677652522035"><ele>340.0</ele><time>2026-05-01T08:14:21.999Z</time></trkpt><trkpt lat="45.084140865875895" lon="7.414420421291634"><ele>340.0</ele><time>2026-05-01T08:14:22.999Z</time></trkpt><trkpt lat="45.08423069131667" lon="7.414191845313906"><ele>340.3333333333333</ele><time>2026-05-01T08:14:23.999Z</time></trkpt><trkpt lat="45.084314207490706" lon="7.413976858185456"><ele>340.6666666666667</ele><time>2026-05-01T08:14:24.999Z</time></trkpt><trkpt lat="45.08439268176633" lon="7.413773795097996"><ele>341.0</ele><time>2026-05-01T08:14:25.999Z</time></trkpt><trkpt lat="45.084461608619115" lon="7.413590667105386"><ele>341.0</ele><time>2026-05-01T08:14:26.999Z</time></trkpt><trkpt lat="45.0845302953684" lon="7.413411224442241"><ele>341.0</ele><time>2026-05-01T08:14:27.999Z</time></trkpt><trkpt lat="45.08459537720938" lon="7.4132554859181345"><ele>341.0</ele><time>2026-05-01T08:14:28.999Z</time></trkpt><trkpt lat="45.08464202628546" lon="7.413136731290747"><ele>341.0</ele><time>2026-05-01T08:14:29.999Z</time></trkpt><trkpt lat="45.08470114802753" lon="7.413030388708499"><ele>340.8</ele><time>2026-05-01T08:14:30.999Z</time></trkpt><trkpt lat="45.084799273846095" lon="7.412973176966593"><ele>340.6</ele><time>2026-05-01T08:14:31.999Z</time></trkpt><trkpt lat="45.08489417727801" lon="7.412917091970729"><ele>340.4</ele><time>2026-05-01T08:14:32.999Z</time></trkpt><trkpt lat="45.08499153244644" lon="7.4128784234206115"><ele>340.2</ele><time>2026-05-01T08:14:33.999Z</time></trkpt><trkpt lat="45.08507840765289" lon="7.412826163277872"><ele>340.0</ele><time>2026-05-01T08:14:34.999Z</time></trkpt><trkpt lat="45.08516232671911" lon="7.412751259968834"><ele>340.0</ele><time>2026-05-01T08:14:35.999Z</time></trkpt><trkpt lat="45.08523274675579" lon="7.412642473504309"><ele>340.0</ele><time>2026-05-01T08:14:36.999Z</time></trkpt><trkpt lat="45.08527492788546" lon="7.412509635209743"><ele>340.0</ele><time>2026-05-01T08:14:37.999Z</time></trkpt><trkpt lat="45.08529571224783" lon="7.412386026621794"><ele>340.0</ele><time>2026-05-01T08:14:38.999Z</time></trkpt><trkpt lat="45.085264326994235" lon="7.412216594374583"><ele>340.0</ele><time>2026-05-01T08:14:39.999Z</time></trkpt><trkpt lat="45.085231797371286" lon="7.412067754570139"><ele>340.0</ele><time>2026-05-01T08:14:40.999Z</time></trkpt><trkpt lat="45.08517993754371" lon="7.411908149448371"><ele>340.0</ele><time>2026-05-01T08:14:41.999Z</time></trkpt><trkpt lat="45.0851536988588" lon="7.411759830261207"><ele>340.0</ele><time>2026-05-01T08:14:42.999Z</time></trkpt><trkpt lat="45.08517107142372" lon="7.411573108355416"><ele>340.0</ele><time>2026-05-01T08:14:43.999Z</time></trkpt><trkpt lat="45.08520974441739" lon="7.411387225930321"><ele>339.66666666666663</ele><time>2026-05-01T08:14:44.999Z</time></trkpt><trkpt lat="45.085256524554325" lon="7.411190954509271"><ele>339.3333333333333</ele><time>2026-05-01T08:14:45.999Z</time></trkpt><trkpt lat="45.08531223290411" lon="7.4109904634397274"><ele>339.0</ele><time>2026-05-01T08:14:46.999Z</time></trkpt><trkpt lat="45.08539606723903" lon="7.410781937623185"><ele>339.0</ele><time>2026-05-01T08:14:47.999Z</time></trkpt><trkpt lat="45.08548334948668" lon="7.4105438579520015"><ele>339.0</ele><time>2026-05-01T08:14:48.999Z</time></trkpt><trkpt lat="45.08555029151218" lon="7.410316003865104"><ele>339.0</ele><time>2026-05-01T08:14:49.999Z</time></trkpt><trkpt lat="45.085609359856434" lon="7.410087491420442"><ele>338.6666666666667</ele><time>2026-05-01T08:14:50.999Z</time></trkpt><trkpt lat="45.08565806095854" lon="7.409856808531762"><ele>338.33333333333337</ele><time>2026-05-01T08:14:52Z</time></trkpt><trkpt lat="45.08571344779564" lon="7.4096354886827"><ele>338.0</ele><time>2026-05-01T08:14:53Z</time></trkpt><trkpt lat="45.08575822495091" lon="7.409419804569192"><ele>338.25</ele><time>2026-05-01T08:14:54Z</time></trkpt><trkpt lat="45.08580288179213" lon="7.409223947508924"><ele>338.5</ele><time>2026-05-01T08:14:55Z</time></trkpt><trkpt lat="45.08583722518558" lon="7.409038097083393"><ele>338.75</ele><time>2026-05-01T08:14:56Z</time></trkpt><trkpt lat="45.08587570664657" lon="7.408855700387072"><ele>339.0</ele><time>2026-05-01T08:14:57Z</time></trkpt><trkpt lat="45.085915116929876" lon="7.408684770606281"><ele>339.4</ele><time>2026-05-01T08:14:58Z</time></trkpt><trkpt lat="45.085945304628154" lon="7.408536261256415"><ele>339.79999999999995</ele><time>2026-05-01T08:14:59Z</time></trkpt><trkpt lat="45.085964413254736" lon="7.408401543186045"><ele>340.20000000000005</ele><time>2026-05-01T08:15:00Z</time></trkpt><trkpt lat="45.08598766991238" lon="7.40828763762059"><ele>340.6</ele><time>2026-05-01T08:15:01Z</time></trkpt><trkpt lat="45.08602337386729" lon="7.408187110365273"><ele>341.0</ele><time>2026-05-01T08:15:02Z</time></trkpt><trkpt lat="45.08606590250962" lon="7.408089147920222"><ele>341.0</ele><time>2026-05-01T08:15:03Z</time></trkpt><trkpt lat="45.08612439916803" lon="7.408019818809132"><ele>341.0</ele><time>2026-05-01T08:15:04Z</time></trkpt><trkpt lat="45.0861928639634" lon="7.40797509591243"><ele>341.0</ele><time>2026-05-01T08:15:05Z</time></trkpt><trkpt lat="45.08624193490089" lon="7.4078835144440145"><ele>341.0</ele><time>2026-05-01T08:15:06Z</time></trkpt><trkpt lat="45.086274048922604" lon="7.407791165323177"><ele>341.0</ele><time>2026-05-01T08:15:07Z</time></trkpt><trkpt lat="45.08625205690904" lon="7.407652375388696"><ele>341.0</ele><time>2026-05-01T08:15:08Z</time></trkpt><trkpt lat="45.08622824603474" lon="7.407533885986292"><ele>341.0</ele><time>2026-05-01T08:15:09Z</time></trkpt><trkpt lat="45.08620947953166" lon="7.407425477213605"><ele>341.0</ele><time>2026-05-01T08:15:10Z</time></trkpt><trkpt lat="45.086210992077284" lon="7.4072693400636265"><ele>341.0</ele><time>2026-05-01T08:15:11Z</time></trkpt><trkpt lat="45.08624181997637" lon="7.407076489314978"><ele>341.0</ele><time>2026-05-01T08:15:12Z</time></trkpt><trkpt lat="45.08629204504856" lon="7.4068861037681835"><ele>341.0</ele><time>2026-05-01T08:15:13Z</time></trkpt><trkpt lat="45.08633441692955" lon="7.406702678962467"><ele>341.0</ele><time>2026-05-01T08:15:14Z</time></trkpt><trkpt lat="45.086388970765405" lon="7.406533111584267"><ele>341.0</ele><time>2026-05-01T08:15:15Z</time></trkpt><trkpt lat="45.08644740476424" lon="7.406361964245274"><ele>341.0</ele><time>2026-05-01T08:15:16Z</time></trkpt><trkpt lat="45.0864990333109" lon="7.406192490056023"><ele>341.0</ele><time>2026-05-01T08:15:17Z</time></trkpt><trkpt lat="45.086547119389245" lon="7.406009742077761"><ele>341.0</ele><time>2026-05-01T08:15:18Z</time></trkpt><trkpt lat="45.08660248144802" lon="7.405816056389266"><ele>341.0</ele><time>2026-05-01T08:15:19Z</time></trkpt><trkpt lat="45.08667013030128" lon="7.405620313330221"><ele>341.0</ele><time>2026-05-01T08:15:20Z</time></trkpt><trkpt lat="45.08673355919478" lon="7.405441872081221"><ele>340.75</ele><time>2026-05-01T08:15:21Z</time></trkpt><trkpt lat="45.086792287205775" lon="7.405258972173647"><ele>340.5</ele><time>2026-05-01T08:15:22Z</time></trkpt><trkpt lat="45.08686567979407" lon="7.4050793104878805"><ele>340.25</ele><time>2026-05-01T08:15:23Z</time></trkpt><trkpt lat="45.08692756653954" lon="7.404907693015053"><ele>340.0</ele><time>2026-05-01T08:15:24Z</time></trkpt><trkpt lat="45.08698372878574" lon="7.404725089211551"><ele>340.25</ele><time>2026-05-01T08:15:25Z</time></trkpt><trkpt lat="45.08704465014486" lon="7.404552098012862"><ele>340.5</ele><time>2026-05-01T08:15:26Z</time></trkpt><trkpt lat="45.08710987934847" lon="7.404377293602213"><ele>340.75</ele><time>2026-05-01T08:15:27Z</time></trkpt><trkpt lat="45.08717200048971" lon="7.404207226792979"><ele>341.0</ele><time>2026-05-01T08:15:28Z</time></trkpt><trkpt lat="45.08722928949425" lon="7.40404242926269"><ele>341.0</ele><time>2026-05-01T08:15:29Z</time></trkpt><trkpt lat="45.08727959099703" lon="7.403885667719135"><ele>341.0</ele><time>2026-05-01T08:15:30Z</time></trkpt><trkpt lat="45.08733604336705" lon="7.4037289263303245"><ele>341.0</ele><time>2026-05-01T08:15:31Z</time></trkpt><trkpt lat="45.08738623294581" lon="7.403580887251679"><ele>341.0</ele><time>2026-05-01T08:15:32Z</time></trkpt><trkpt lat="45.08743632156946" lon="7.403430518993158"><ele>341.0</ele><time>2026-05-01T08:15:33Z</time></trkpt><trkpt lat="45.08748804032693" lon="7.403294883250589"><ele>341.0</ele><time>2026-05-01T08:15:34Z</time></trkpt><trkpt lat="45.0875250303356" lon="7.403176738108784"><ele>341.0</ele><time>2026-05-01T08:15:35Z</time></trkpt><trkpt lat="45.08756762743399" lon="7.403060348692474"><ele>341.0</ele><time>2026-05-01T08:15:36Z</time></trkpt><trkpt lat="45.08759825700141" lon="7.402948846984874"><ele>341.0</ele><time>2026-05-01T08:15:37Z</time></trkpt><trkpt lat="45.08763022433681" lon="7.40284077079728"><ele>341.0</ele><time>2026-05-01T08:15:38Z</time></trkpt><trkpt lat="45.087659998777404" lon="7.402738861839013"><ele>341.0</ele><time>2026-05-01T08:15:39Z</time></trkpt><trkpt lat="45.08769350885329" lon="7.402650562404731"><ele>341.0</ele><time>2026-05-01T08:15:40Z</time></trkpt><trkpt lat="45.087722116952676" lon="7.402563792851664"><ele>341.0</ele><time>2026-05-01T08:15:41Z</time></trkpt><trkpt lat="45.087760783997325" lon="7.402482578418457"><ele>341.0</ele><time>2026-05-01T08:15:42Z</time></trkpt><trkpt lat="45.08779871252496" lon="7.4023982592507185"><ele>341.0</ele><time>2026-05-01T08:15:43Z</time></trkpt><trkpt lat="45.08787152321349" lon="7.402254849739516"><ele>341.0</ele><time>2026-05-01T08:15:45Z</time></trkpt><trkpt lat="45.08791447048861" lon="7.402180417248069"><ele>341.0</ele><time>2026-05-01T08:15:46Z</time></trkpt><trkpt lat="45.08794640813371" lon="7.402080907267306"><ele>341.0</ele><time>2026-05-01T08:15:47Z</time></trkpt><trkpt lat="45.08796327968781" lon="7.401951769215277"><ele>341.0</ele><time>2026-05-01T08:15:48Z</time></trkpt><trkpt lat="45.08797308028788" lon="7.401813815496377"><ele>341.0</ele><time>2026-05-01T08:15:49Z</time></trkpt><trkpt lat="45.08800901346821" lon="7.4016637106766545"><ele>341.0</ele><time>2026-05-01T08:15:50Z</time></trkpt><trkpt lat="45.08807078894625" lon="7.401493693155027"><ele>341.5</ele><time>2026-05-01T08:15:51Z</time></trkpt><trkpt lat="45.08812547677884" lon="7.401326213754582"><ele>342.0</ele><time>2026-05-01T08:15:52Z</time></trkpt><trkpt lat="45.08818425461824" lon="7.401139114594516"><ele>342.5</ele><time>2026-05-01T08:15:53Z</time></trkpt><trkpt lat="45.08824285911633" lon="7.400907024468996"><ele>343.0</ele><time>2026-05-01T08:15:54Z</time></trkpt><trkpt lat="45.08832039965744" lon="7.400657353996109"><ele>343.3333333333333</ele><time>2026-05-01T08:15:55Z</time></trkpt><trkpt lat="45.08838783728589" lon="7.4004499396952514"><ele>343.6666666666667</ele><time>2026-05-01T08:15:56Z</time></trkpt><trkpt lat="45.08845605065603" lon="7.400241004489629"><ele>344.0</ele><time>2026-05-01T08:15:57Z</time></trkpt><trkpt lat="45.08849897893851" lon="7.4000102077326515"><ele>344.0</ele><time>2026-05-01T08:15:58Z</time></trkpt><trkpt lat="45.088536358645854" lon="7.399767495026397"><ele>344.0</ele><time>2026-05-01T08:15:59Z</time></trkpt><trkpt lat="45.08855700783118" lon="7.39953462478405"><ele>344.0</ele><time>2026-05-01T08:16:00Z</time></trkpt><trkpt lat="45.08858852693981" lon="7.399303482629275"><ele>344.0</ele><time>2026-05-01T08:16:01Z</time></trkpt><trkpt lat="45.08860324675955" lon="7.3990723538763525"><ele>344.0</ele><time>2026-05-01T08:16:02Z</time></trkpt><trkpt lat="45.088622261874484" lon="7.398835377227358"><ele>344.0</ele><time>2026-05-01T08:16:03Z</time></trkpt><trkpt lat="45.0886322704711" lon="7.398603216210141"><ele>344.33333333333337</ele><time>2026-05-01T08:16:04Z</time></trkpt><trkpt lat="45.088629139311934" lon="7.398368510865015"><ele>344.6666666666667</ele><time>2026-05-01T08:16:05Z</time></trkpt><trkpt lat="45.088624372805825" lon="7.398122996573316"><ele>345.0</ele><time>2026-05-01T08:16:06Z</time></trkpt><trkpt lat="45.08863327646375" lon="7.397846984377583"><ele>345.0</ele><time>2026-05-01T08:16:07Z</time></trkpt><trkpt lat="45.08864596284339" lon="7.39757953914684"><ele>345.0</ele><time>2026-05-01T08:16:08Z</time></trkpt><trkpt lat="45.08866151151937" lon="7.3973079693369055"><ele>345.0</ele><time>2026-05-01T08:16:09Z</time></trkpt><trkpt lat="45.08865913339134" lon="7.397040642450854"><ele>344.3333333333333</ele><time>2026-05-01T08:16:10Z</time></trkpt><trkpt lat="45.088673240855606" lon="7.3968087596592955"><ele>343.66666666666663</ele><time>2026-05-01T08:16:11Z</time></trkpt><trkpt lat="45.08867805984726" lon="7.39655339915289"><ele>343.0</ele><time>2026-05-01T08:16:12Z</time></trkpt><trkpt lat="45.088689840549634" lon="7.396275798239498"><ele>343.0</ele><time>2026-05-01T08:16:13Z</time></trkpt><trkpt lat="45.088698582821394" lon="7.396037414244454"><ele>343.0</ele><time>2026-05-01T08:16:14Z</time></trkpt><trkpt lat="45.08870784632362" lon="7.395781976025047"><ele>343.0</ele><time>2026-05-01T08:16:15Z</time></trkpt><trkpt lat="45.088717096331386" lon="7.395526625247352"><ele>343.66666666666663</ele><time>2026-05-01T08:16:16Z</time></trkpt><trkpt lat="45.088727907993785" lon="7.3952746679799475"><ele>344.3333333333333</ele><time>2026-05-01T08:16:17Z</time></trkpt><trkpt lat="45.08874084582221" lon="7.3950402378393445"><ele>345.0</ele><time>2026-05-01T08:16:18Z</time></trkpt><trkpt lat="45.088748682370266" lon="7.394820417671419"><ele>345.0</ele><time>2026-05-01T08:16:19Z</time></trkpt><trkpt lat="45.08875865179912" lon="7.394610540239359"><ele>345.0</ele><time>2026-05-01T08:16:20Z</time></trkpt><trkpt lat="45.08876584816591" lon="7.39441753764957"><ele>345.0</ele><time>2026-05-01T08:16:21Z</time></trkpt><trkpt lat="45.088772770850454" lon="7.394198281760798"><ele>345.0</ele><time>2026-05-01T08:16:22Z</time></trkpt><trkpt lat="45.088761664129635" lon="7.394011723819459"><ele>345.0</ele><time>2026-05-01T08:16:23Z</time></trkpt><trkpt lat="45.088744066755524" lon="7.393870100206486"><ele>345.0</ele><time>2026-05-01T08:16:24Z</time></trkpt><trkpt lat="45.08874242655575" lon="7.393720474050586"><ele>345.0</ele><time>2026-05-01T08:16:25Z</time></trkpt><trkpt lat="45.088728158234346" lon="7.393583202514411"><ele>345.0</ele><time>2026-05-01T08:16:25.999Z</time></trkpt><trkpt lat="45.08871708110901" lon="7.393450313246329"><ele>345.0</ele><time>2026-05-01T08:16:26.999Z</time></trkpt><trkpt lat="45.08870939861067" lon="7.3933330642201796"><ele>345.0</ele><time>2026-05-01T08:16:27.999Z</time></trkpt><trkpt lat="45.08871321384825" lon="7.393211399879961"><ele>345.0</ele><time>2026-05-01T08:16:28.999Z</time></trkpt><trkpt lat="45.08874240656211" lon="7.393077321404196"><ele>345.0</ele><time>2026-05-01T08:16:29.999Z</time></trkpt><trkpt lat="45.08874100262814" lon="7.392955669451792"><ele>345.0</ele><time>2026-05-01T08:16:30.999Z</time></trkpt><trkpt lat="45.08871163748502" lon="7.392822072300744"><ele>345.0</ele><time>2026-05-01T08:16:31.999Z</time></trkpt><trkpt lat="45.088672154990434" lon="7.392711531813224"><ele>345.0</ele><time>2026-05-01T08:16:32.999Z</time></trkpt><trkpt lat="45.08864895216347" lon="7.392570055749163"><ele>345.0</ele><time>2026-05-01T08:16:33.999Z</time></trkpt><trkpt lat="45.08865763236974" lon="7.392427155384969"><ele>345.0</ele><time>2026-05-01T08:16:34.999Z</time></trkpt><trkpt lat="45.088701060338686" lon="7.3922723367002545"><ele>345.0</ele><time>2026-05-01T08:16:35.999Z</time></trkpt><trkpt lat="45.08876032410054" lon="7.392116630764537"><ele>345.0</ele><time>2026-05-01T08:16:36.999Z</time></trkpt><trkpt lat="45.088836666626676" lon="7.391960084194844"><ele>345.0</ele><time>2026-05-01T08:16:37.999Z</time></trkpt><trkpt lat="45.08892791941359" lon="7.391763009759946"><ele>345.0</ele><time>2026-05-01T08:16:38.999Z</time></trkpt><trkpt lat="45.08900739712642" lon="7.391546972431142"><ele>345.0</ele><time>2026-05-01T08:16:39.999Z</time></trkpt><trkpt lat="45.08910316612887" lon="7.391315571693438"><ele>345.0</ele><time>2026-05-01T08:16:40.999Z</time></trkpt><trkpt lat="45.08921930539924" lon="7.391033742849529"><ele>345.0</ele><time>2026-05-01T08:16:41.999Z</time></trkpt><trkpt lat="45.08931136654776" lon="7.390774554798544"><ele>345.0</ele><time>2026-05-01T08:16:42.999Z</time></trkpt><trkpt lat="45.08944307363651" lon="7.39048189177727"><ele>345.0</ele><time>2026-05-01T08:16:43.999Z</time></trkpt><trkpt lat="45.089555436132486" lon="7.390181500273211"><ele>345.0</ele><time>2026-05-01T08:16:44.999Z</time></trkpt><trkpt lat="45.08968239682797" lon="7.3898863304549405"><ele>345.0</ele><time>2026-05-01T08:16:45.999Z</time></trkpt><trkpt lat="45.089822300824174" lon="7.389604729296921"><ele>345.0</ele><time>2026-05-01T08:16:46.999Z</time></trkpt><trkpt lat="45.089932627857245" lon="7.389328884638519"><ele>345.0</ele><time>2026-05-01T08:16:47.999Z</time></trkpt><trkpt lat="45.09004395348186" lon="7.389033822781389"><ele>345.0</ele><time>2026-05-01T08:16:48.999Z</time></trkpt><trkpt lat="45.090157029408076" lon="7.388749310511065"><ele>345.5</ele><time>2026-05-01T08:16:49.999Z</time></trkpt><trkpt lat="45.09028402830598" lon="7.388468394687452"><ele>346.0</ele><time>2026-05-01T08:16:50.999Z</time></trkpt><trkpt lat="45.09039791477213" lon="7.3881648763652565"><ele>346.0</ele><time>2026-05-01T08:16:51.999Z</time></trkpt><trkpt lat="45.09052630517042" lon="7.3878973784683835"><ele>346.0</ele><time>2026-05-01T08:16:52.999Z</time></trkpt><trkpt lat="45.090645094451226" lon="7.387618211843358"><ele>346.0</ele><time>2026-05-01T08:16:53.999Z</time></trkpt><trkpt lat="45.09075219509453" lon="7.387335229290623"><ele>346.0</ele><time>2026-05-01T08:16:54.999Z</time></trkpt><trkpt lat="45.090858810268536" lon="7.387067722192952"><ele>346.0</ele><time>2026-05-01T08:16:55.999Z</time></trkpt><trkpt lat="45.09095047274157" lon="7.386802502057547"><ele>346.3333333333333</ele><time>2026-05-01T08:16:56.999Z</time></trkpt><trkpt lat="45.091041961717025" lon="7.386544568842103"><ele>346.6666666666667</ele><time>2026-05-01T08:16:58Z</time></trkpt><trkpt lat="45.09112699565047" lon="7.386308895091948"><ele>347.0</ele><time>2026-05-01T08:16:59Z</time></trkpt><trkpt lat="45.09117600079617" lon="7.386074388298734"><ele>347.0</ele><time>2026-05-01T08:17:00Z</time></trkpt><trkpt lat="45.091201683383076" lon="7.3858347097864465"><ele>347.0</ele><time>2026-05-01T08:17:01Z</time></trkpt><trkpt lat="45.09116487797275" lon="7.3856195482868205"><ele>347.0</ele><time>2026-05-01T08:17:02Z</time></trkpt><trkpt lat="45.091077965109015" lon="7.385385577631223"><ele>346.33333333333337</ele><time>2026-05-01T08:17:03Z</time></trkpt><trkpt lat="45.090998222183224" lon="7.3851293012699095"><ele>345.6666666666667</ele><time>2026-05-01T08:17:04Z</time></trkpt><trkpt lat="45.09095374218278" lon="7.384860421655977"><ele>345.0</ele><time>2026-05-01T08:17:05Z</time></trkpt><trkpt lat="45.09092488681638" lon="7.384609305931421"><ele>344.6666666666667</ele><time>2026-05-01T08:17:06Z</time></trkpt><trkpt lat="45.09092889712325" lon="7.384357069463776"><ele>344.33333333333337</ele><time>2026-05-01T08:17:07Z</time></trkpt><trkpt lat="45.09096321983948" lon="7.384113490805403"><ele>344.0</ele><time>2026-05-01T08:17:08Z</time></trkpt><trkpt lat="45.0910424053976" lon="7.383885692326169"><ele>344.33333333333337</ele><time>2026-05-01T08:17:09Z</time></trkpt><trkpt lat="45.091106233443426" lon="7.383645025824143"><ele>344.6666666666667</ele><time>2026-05-01T08:17:10Z</time></trkpt><trkpt lat="45.09119179317174" lon="7.383401580546912"><ele>345.0</ele><time>2026-05-01T08:17:11Z</time></trkpt><trkpt lat="45.09127238579468" lon="7.383129625390389"><ele>345.3333333333333</ele><time>2026-05-01T08:17:12Z</time></trkpt><trkpt lat="45.09135609280964" lon="7.3828624859130585"><ele>345.66666666666663</ele><time>2026-05-01T08:17:13Z</time></trkpt><trkpt lat="45.091443937623154" lon="7.382596554702327"><ele>346.0</ele><time>2026-05-01T08:17:14Z</time></trkpt><trkpt lat="45.09152536871513" lon="7.382324797190538"><ele>346.3333333333333</ele><time>2026-05-01T08:17:15Z</time></trkpt><trkpt lat="45.091604826513944" lon="7.382062033177855"><ele>346.6666666666667</ele><time>2026-05-01T08:17:16Z</time></trkpt><trkpt lat="45.09167606373149" lon="7.381803480312205"><ele>347.0</ele><time>2026-05-01T08:17:17Z</time></trkpt><trkpt lat="45.09175261126063" lon="7.381552672236991"><ele>347.6666666666667</ele><time>2026-05-01T08:17:18Z</time></trkpt><trkpt lat="45.091827030716495" lon="7.381321620692155"><ele>348.3333333333333</ele><time>2026-05-01T08:17:19Z</time></trkpt><trkpt lat="45.09190543336829" lon="7.381097639894549"><ele>349.0</ele><time>2026-05-01T08:17:20Z</time></trkpt><trkpt lat="45.09197060722341" lon="7.3808617651718675"><ele>349.0</ele><time>2026-05-01T08:17:21Z</time></trkpt><trkpt lat="45.09203654065567" lon="7.380624458832884"><ele>349.0</ele><time>2026-05-01T08:17:22Z</time></trkpt><trkpt lat="45.092109791708516" lon="7.380399381065864"><ele>349.0</ele><time>2026-05-01T08:17:23Z</time></trkpt><trkpt lat="45.09217359635123" lon="7.380159732073039"><ele>348.66666666666663</ele><time>2026-05-01T08:17:24Z</time></trkpt><trkpt lat="45.09224168645638" lon="7.379916186370413"><ele>348.3333333333333</ele><time>2026-05-01T08:17:25Z</time></trkpt><trkpt lat="45.09231901722249" lon="7.379670101011976"><ele>348.0</ele><time>2026-05-01T08:17:26Z</time></trkpt><trkpt lat="45.09238679023949" lon="7.379412699889685"><ele>349.0</ele><time>2026-05-01T08:17:27Z</time></trkpt><trkpt lat="45.09246181600503" lon="7.379160559002297"><ele>350.0</ele><time>2026-05-01T08:17:28Z</time></trkpt><trkpt lat="45.09253437146094" lon="7.378904296690646"><ele>351.0</ele><time>2026-05-01T08:17:29Z</time></trkpt><trkpt lat="45.09260946705152" lon="7.378654345869401"><ele>351.0</ele><time>2026-05-01T08:17:30Z</time></trkpt><trkpt lat="45.09268743028428" lon="7.378405695318044"><ele>351.0</ele><time>2026-05-01T08:17:31Z</time></trkpt><trkpt lat="45.09276610515619" lon="7.3781523734716945"><ele>351.0</ele><time>2026-05-01T08:17:32Z</time></trkpt><trkpt lat="45.09284642030666" lon="7.377895566310577"><ele>351.0</ele><time>2026-05-01T08:17:33Z</time></trkpt><trkpt lat="45.09291956465819" lon="7.3776302241335605"><ele>351.0</ele><time>2026-05-01T08:17:34Z</time></trkpt><trkpt lat="45.09299608007179" lon="7.377365512532961"><ele>351.0</ele><time>2026-05-01T08:17:35Z</time></trkpt><trkpt lat="45.09308366748341" lon="7.37709625789384"><ele>351.0</ele><time>2026-05-01T08:17:36Z</time></trkpt><trkpt lat="45.093168036820174" lon="7.376835065333284"><ele>351.0</ele><time>2026-05-01T08:17:37Z</time></trkpt><trkpt lat="45.09324579721673" lon="7.376572824092348"><ele>351.0</ele><time>2026-05-01T08:17:38Z</time></trkpt><trkpt lat="45.09331776744914" lon="7.376303625422374"><ele>351.3333333333333</ele><time>2026-05-01T08:17:39Z</time></trkpt><trkpt lat="45.09339372918632" lon="7.376047467339765"><ele>351.66666666666663</ele><time>2026-05-01T08:17:40Z</time></trkpt><trkpt lat="45.09347170102051" lon="7.375789855084584"><ele>352.0</ele><time>2026-05-01T08:17:41Z</time></trkpt><trkpt lat="45.093546249520855" lon="7.375536439630107"><ele>351.66666666666663</ele><time>2026-05-01T08:17:42Z</time></trkpt><trkpt lat="45.09361882782555" lon="7.375289252640739"><ele>351.3333333333333</ele><time>2026-05-01T08:17:43Z</time></trkpt><trkpt lat="45.0936924521765" lon="7.375034721611657"><ele>351.0</ele><time>2026-05-01T08:17:44Z</time></trkpt><trkpt lat="45.09377124746375" lon="7.374780710871453"><ele>350.6666666666667</ele><time>2026-05-01T08:17:45Z</time></trkpt><trkpt lat="45.09384450428006" lon="7.3745220024812905"><ele>350.33333333333337</ele><time>2026-05-01T08:17:46Z</time></trkpt><trkpt lat="45.09392060965907" lon="7.374256219241336"><ele>350.0</ele><time>2026-05-01T08:17:47Z</time></trkpt><trkpt lat="45.094004967771475" lon="7.373990484727781"><ele>350.6666666666667</ele><time>2026-05-01T08:17:48Z</time></trkpt><trkpt lat="45.09408986467458" lon="7.373723229141673"><ele>351.3333333333333</ele><time>2026-05-01T08:17:49Z</time></trkpt><trkpt lat="45.09416641627269" lon="7.373442810122718"><ele>352.0</ele><time>2026-05-01T08:17:50Z</time></trkpt><trkpt lat="45.094240672594466" lon="7.373167918483571"><ele>352.0</ele><time>2026-05-01T08:17:51Z</time></trkpt><trkpt lat="45.0943211340893" lon="7.372893831505111"><ele>352.0</ele><time>2026-05-01T08:17:52Z</time></trkpt><trkpt lat="45.09440293058517" lon="7.372629905118688"><ele>352.0</ele><time>2026-05-01T08:17:53Z</time></trkpt><trkpt lat="45.09448358524663" lon="7.372367017979731"><ele>352.0</ele><time>2026-05-01T08:17:54Z</time></trkpt><trkpt lat="45.09456217236139" lon="7.372107050144378"><ele>352.0</ele><time>2026-05-01T08:17:55Z</time></trkpt><trkpt lat="45.09463670024684" lon="7.371856441212974"><ele>352.0</ele><time>2026-05-01T08:17:56Z</time></trkpt><trkpt lat="45.09470947407055" lon="7.371613408518224"><ele>352.0</ele><time>2026-05-01T08:17:57Z</time></trkpt><trkpt lat="45.09478385059443" lon="7.37137018146566"><ele>352.0</ele><time>2026-05-01T08:17:58Z</time></trkpt><trkpt lat="45.094856881221965" lon="7.371138887351658"><ele>352.0</ele><time>2026-05-01T08:17:59Z</time></trkpt><trkpt lat="45.09491607538915" lon="7.370927452017222"><ele>352.20000000000005</ele><time>2026-05-01T08:18:00Z</time></trkpt><trkpt lat="45.09495369645176" lon="7.370750597590979"><ele>352.4</ele><time>2026-05-01T08:18:01Z</time></trkpt><trkpt lat="45.09498500832399" lon="7.370641108624563"><ele>352.6</ele><time>2026-05-01T08:18:02Z</time></trkpt><trkpt lat="45.09502388800056" lon="7.370540451143955"><ele>352.79999999999995</ele><time>2026-05-01T08:18:03Z</time></trkpt><trkpt lat="45.09506997925266" lon="7.370399834397165"><ele>353.0</ele><time>2026-05-01T08:18:05Z</time></trkpt><trkpt lat="45.09509209602582" lon="7.370315582655616"><ele>353.25</ele><time>2026-05-01T08:18:08Z</time></trkpt><trkpt lat="45.09514826143362" lon="7.370149855173906"><ele>353.5</ele><time>2026-05-01T08:18:45.999Z</time></trkpt><trkpt lat="45.09518482666686" lon="7.370010723396445"><ele>353.75</ele><time>2026-05-01T08:18:46.999Z</time></trkpt><trkpt lat="45.09523272117758" lon="7.369846960121337"><ele>354.0</ele><time>2026-05-01T08:18:47.999Z</time></trkpt><trkpt lat="45.09527665501237" lon="7.369696739406331"><ele>354.25</ele><time>2026-05-01T08:18:48.999Z</time></trkpt><trkpt lat="45.09531903851763" lon="7.369517559130744"><ele>354.5</ele><time>2026-05-01T08:18:49.999Z</time></trkpt><trkpt lat="45.09537445045859" lon="7.369329937707249"><ele>354.75</ele><time>2026-05-01T08:18:50.999Z</time></trkpt><trkpt lat="45.09543113414156" lon="7.369112048618953"><ele>355.0</ele><time>2026-05-01T08:18:51.999Z</time></trkpt><trkpt lat="45.095531404362724" lon="7.368933923966465"><ele>354.66666666666663</ele><time>2026-05-01T08:18:52.999Z</time></trkpt><trkpt lat="45.095591613589725" lon="7.368741698467949"><ele>354.3333333333333</ele><time>2026-05-01T08:18:53.999Z</time></trkpt><trkpt lat="45.09566612241111" lon="7.368550027438012"><ele>354.0</ele><time>2026-05-01T08:18:54.999Z</time></trkpt><trkpt lat="45.095749356318684" lon="7.368378137467329"><ele>354.0</ele><time>2026-05-01T08:18:55.999Z</time></trkpt><trkpt lat="45.09584132169284" lon="7.368201320418694"><ele>354.0</ele><time>2026-05-01T08:18:56.999Z</time></trkpt><trkpt lat="45.095947686310694" lon="7.3680219757628675"><ele>354.0</ele><time>2026-05-01T08:18:57.999Z</time></trkpt><trkpt lat="45.096057641845576" lon="7.36782766871926"><ele>354.0</ele><time>2026-05-01T08:18:58.999Z</time></trkpt><trkpt lat="45.09618052211896" lon="7.367670203207315"><ele>354.0</ele><time>2026-05-01T08:18:59.999Z</time></trkpt><trkpt lat="45.096308956479696" lon="7.367523627585703"><ele>354.0</ele><time>2026-05-01T08:19:00.999Z</time></trkpt><trkpt lat="45.096458155044154" lon="7.367416726204019"><ele>354.0</ele><time>2026-05-01T08:19:01.999Z</time></trkpt><trkpt lat="45.09660804703307" lon="7.367286750020659"><ele>354.0</ele><time>2026-05-01T08:19:02.999Z</time></trkpt><trkpt lat="45.09675339433102" lon="7.367163642353459"><ele>354.0</ele><time>2026-05-01T08:19:04Z</time></trkpt><trkpt lat="45.09689134603645" lon="7.367049469020803"><ele>354.0</ele><time>2026-05-01T08:19:05Z</time></trkpt><trkpt lat="45.0970440742222" lon="7.366923005860456"><ele>354.0</ele><time>2026-05-01T08:19:06Z</time></trkpt><trkpt lat="45.09718509603562" lon="7.3668062359829"><ele>354.0</ele><time>2026-05-01T08:19:07Z</time></trkpt><trkpt lat="45.097326119555404" lon="7.366689464626793"><ele>353.6666666666667</ele><time>2026-05-01T08:19:08Z</time></trkpt><trkpt lat="45.09746184527687" lon="7.366577079981285"><ele>353.33333333333337</ele><time>2026-05-01T08:19:09Z</time></trkpt><trkpt lat="45.09761814025695" lon="7.366453776902908"><ele>353.0</ele><time>2026-05-01T08:19:10Z</time></trkpt><trkpt lat="45.09775994028909" lon="7.366338229332746"><ele>353.0</ele><time>2026-05-01T08:19:11Z</time></trkpt><trkpt lat="45.097899991219236" lon="7.366221724967598"><ele>353.0</ele><time>2026-05-01T08:19:12Z</time></trkpt><trkpt lat="45.09803220446447" lon="7.366111087771034"><ele>353.0</ele><time>2026-05-01T08:19:13Z</time></trkpt><trkpt lat="45.09817221912071" lon="7.366005736932859"><ele>353.0</ele><time>2026-05-01T08:19:14Z</time></trkpt><trkpt lat="45.09830331438437" lon="7.365877862196595"><ele>353.0</ele><time>2026-05-01T08:19:15Z</time></trkpt><trkpt lat="45.09846058245444" lon="7.3657546684786555"><ele>353.0</ele><time>2026-05-01T08:19:16Z</time></trkpt><trkpt lat="45.098614973360505" lon="7.3656363026752745"><ele>353.0</ele><time>2026-05-01T08:19:17Z</time></trkpt><trkpt lat="45.09875274469493" lon="7.365508448787617"><ele>353.0</ele><time>2026-05-01T08:19:18Z</time></trkpt><trkpt lat="45.09888396140702" lon="7.365366442051717"><ele>353.0</ele><time>2026-05-01T08:19:19Z</time></trkpt><trkpt lat="45.09900476792694" lon="7.365202304148592"><ele>353.0</ele><time>2026-05-01T08:19:20Z</time></trkpt><trkpt lat="45.099121639888466" lon="7.365022842408935"><ele>353.0</ele><time>2026-05-01T08:19:21Z</time></trkpt><trkpt lat="45.09923327735496" lon="7.364846113520873"><ele>353.0</ele><time>2026-05-01T08:19:22Z</time></trkpt><trkpt lat="45.09931859088018" lon="7.364627233946166"><ele>353.33333333333337</ele><time>2026-05-01T08:19:23Z</time></trkpt><trkpt lat="45.09941257998887" lon="7.36440883692232"><ele>353.6666666666667</ele><time>2026-05-01T08:19:24Z</time></trkpt><trkpt lat="45.09949054747079" lon="7.3641180463730995"><ele>354.0</ele><time>2026-05-01T08:19:25Z</time></trkpt><trkpt lat="45.099575222985735" lon="7.363821802938102"><ele>354.0</ele><time>2026-05-01T08:19:26Z</time></trkpt><trkpt lat="45.09962544939923" lon="7.3635637722757075"><ele>354.0</ele><time>2026-05-01T08:19:27Z</time></trkpt><trkpt lat="45.099704926029695" lon="7.363306117545938"><ele>354.0</ele><time>2026-05-01T08:19:28Z</time></trkpt><trkpt lat="45.09977289765558" lon="7.363075529811525"><ele>354.3333333333333</ele><time>2026-05-01T08:19:29Z</time></trkpt><trkpt lat="45.09983974239201" lon="7.362829170844605"><ele>354.66666666666663</ele><time>2026-05-01T08:19:30Z</time></trkpt><trkpt lat="45.09990044797993" lon="7.362623631191903"><ele>355.0</ele><time>2026-05-01T08:19:31Z</time></trkpt><trkpt lat="45.099956368638686" lon="7.362416815841139"><ele>355.25</ele><time>2026-05-01T08:19:32Z</time></trkpt><trkpt lat="45.100017482070406" lon="7.362221214356575"><ele>355.5</ele><time>2026-05-01T08:19:33Z</time></trkpt><trkpt lat="45.10007849384338" lon="7.362051406495786"><ele>355.75</ele><time>2026-05-01T08:19:34Z</time></trkpt><trkpt lat="45.10012584548003" lon="7.36189395279583"><ele>356.0</ele><time>2026-05-01T08:19:35Z</time></trkpt><trkpt lat="45.100172902076324" lon="7.3617630852451015"><ele>356.0</ele><time>2026-05-01T08:19:36Z</time></trkpt><trkpt lat="45.10021704813609" lon="7.361622213882053"><ele>356.0</ele><time>2026-05-01T08:19:37Z</time></trkpt><trkpt lat="45.10026470994374" lon="7.361480915769785"><ele>356.0</ele><time>2026-05-01T08:19:38Z</time></trkpt><trkpt lat="45.10032509801457" lon="7.361355513472011"><ele>356.0</ele><time>2026-05-01T08:19:39Z</time></trkpt><trkpt lat="45.10035748339392" lon="7.361202848801016"><ele>356.0</ele><time>2026-05-01T08:19:40Z</time></trkpt><trkpt lat="45.100396180933544" lon="7.361055510484585"><ele>356.0</ele><time>2026-05-01T08:19:41Z</time></trkpt><trkpt lat="45.100433122232054" lon="7.360926869121816"><ele>356.0</ele><time>2026-05-01T08:19:42Z</time></trkpt><trkpt lat="45.10045941589007" lon="7.360809758084726"><ele>356.0</ele><time>2026-05-01T08:19:43Z</time></trkpt><trkpt lat="45.10048889975714" lon="7.360707261536643"><ele>356.0</ele><time>2026-05-01T08:19:44Z</time></trkpt><trkpt lat="45.10052364725265" lon="7.3606127606036935"><ele>356.0</ele><time>2026-05-01T08:19:45Z</time></trkpt><trkpt lat="45.100560200322676" lon="7.360524384635786"><ele>356.0</ele><time>2026-05-01T08:19:46Z</time></trkpt><trkpt lat="45.100596898415965" lon="7.360439259451971"><ele>356.1666666666667</ele><time>2026-05-01T08:19:47Z</time></trkpt><trkpt lat="45.10064970570666" lon="7.360351988583552"><ele>356.33333333333337</ele><time>2026-05-01T08:19:48Z</time></trkpt><trkpt lat="45.10070185784574" lon="7.360257100250651"><ele>356.5</ele><time>2026-05-01T08:19:49Z</time></trkpt><trkpt lat="45.10075542365001" lon="7.360161772326012"><ele>356.6666666666667</ele><time>2026-05-01T08:19:50Z</time></trkpt><trkpt lat="45.10082774221807" lon="7.360053414046956"><ele>356.8333333333333</ele><time>2026-05-01T08:19:51Z</time></trkpt><trkpt lat="45.10089930404203" lon="7.359975752014646"><ele>357.0</ele><time>2026-05-01T08:19:52Z</time></trkpt><trkpt lat="45.100971700636094" lon="7.359886532209549"><ele>357.0</ele><time>2026-05-01T08:19:53Z</time></trkpt><trkpt lat="45.101041267448" lon="7.359785135114469"><ele>357.0</ele><time>2026-05-01T08:19:54Z</time></trkpt><trkpt lat="45.10110844841138" lon="7.3596690587800335"><ele>357.0</ele><time>2026-05-01T08:19:55Z</time></trkpt><trkpt lat="45.10117758303039" lon="7.359563252176697"><ele>357.0</ele><time>2026-05-01T08:19:56Z</time></trkpt><trkpt lat="45.10125054834423" lon="7.359458408556306"><ele>357.0</ele><time>2026-05-01T08:19:57Z</time></trkpt><trkpt lat="45.101326480248794" lon="7.359346202115065"><ele>357.0</ele><time>2026-05-01T08:19:58Z</time></trkpt><trkpt lat="45.10140361820789" lon="7.3592312197165315"><ele>357.0</ele><time>2026-05-01T08:19:59Z</time></trkpt><trkpt lat="45.10149312405426" lon="7.359109204417607"><ele>357.0</ele><time>2026-05-01T08:20:00Z</time></trkpt><trkpt lat="45.10157583971281" lon="7.35898128056316"><ele>357.0</ele><time>2026-05-01T08:20:01Z</time></trkpt><trkpt lat="45.10166204765119" lon="7.35886240481502"><ele>357.0</ele><time>2026-05-01T08:20:02Z</time></trkpt><trkpt lat="45.10174728147129" lon="7.358730095136161"><ele>357.0</ele><time>2026-05-01T08:20:03Z</time></trkpt><trkpt lat="45.101814398823976" lon="7.358612747000405"><ele>357.0</ele><time>2026-05-01T08:20:04Z</time></trkpt><trkpt lat="45.10188433495115" lon="7.358454759962073"><ele>357.0</ele><time>2026-05-01T08:20:05Z</time></trkpt><trkpt lat="45.10195123400069" lon="7.358254286637614"><ele>357.0</ele><time>2026-05-01T08:20:06Z</time></trkpt><trkpt lat="45.10200587522611" lon="7.3580351038172225"><ele>357.0</ele><time>2026-05-01T08:20:07Z</time></trkpt><trkpt lat="45.102059411026616" lon="7.357798541877427"><ele>357.0</ele><time>2026-05-01T08:20:08Z</time></trkpt><trkpt lat="45.102136792803286" lon="7.357527291817134"><ele>357.0</ele><time>2026-05-01T08:20:09Z</time></trkpt><trkpt lat="45.102208951329146" lon="7.357276662054308"><ele>357.0</ele><time>2026-05-01T08:20:10Z</time></trkpt><trkpt lat="45.10228451460769" lon="7.3570345383056654"><ele>357.0</ele><time>2026-05-01T08:20:11Z</time></trkpt><trkpt lat="45.10236347655862" lon="7.356773008182379"><ele>357.0</ele><time>2026-05-01T08:20:12Z</time></trkpt><trkpt lat="45.10243433175625" lon="7.3565160078510266"><ele>357.0</ele><time>2026-05-01T08:20:13Z</time></trkpt><trkpt lat="45.102499259811204" lon="7.356250182199689"><ele>357.0</ele><time>2026-05-01T08:20:14Z</time></trkpt><trkpt lat="45.10257712132016" lon="7.355988952081749"><ele>357.3333333333333</ele><time>2026-05-01T08:20:15Z</time></trkpt><trkpt lat="45.10264329398686" lon="7.35571506101658"><ele>357.66666666666663</ele><time>2026-05-01T08:20:16Z</time></trkpt><trkpt lat="45.102717525975734" lon="7.355457009047685"><ele>358.0</ele><time>2026-05-01T08:20:17Z</time></trkpt><trkpt lat="45.10279719352235" lon="7.355204591855079"><ele>358.0</ele><time>2026-05-01T08:20:18Z</time></trkpt><trkpt lat="45.102871758197395" lon="7.354942275908432"><ele>358.0</ele><time>2026-05-01T08:20:19Z</time></trkpt><trkpt lat="45.10294367809634" lon="7.354680868484333"><ele>358.0</ele><time>2026-05-01T08:20:20Z</time></trkpt><trkpt lat="45.1030327390184" lon="7.354413196432451"><ele>358.0</ele><time>2026-05-01T08:20:21Z</time></trkpt><trkpt lat="45.10310001088517" lon="7.354125150819083"><ele>358.0</ele><time>2026-05-01T08:20:22Z</time></trkpt><trkpt lat="45.10317876308278" lon="7.353864906541195"><ele>358.0</ele><time>2026-05-01T08:20:23Z</time></trkpt><trkpt lat="45.10325372570883" lon="7.353592742881326"><ele>358.0</ele><time>2026-05-01T08:20:23.999Z</time></trkpt><trkpt lat="45.10334468472029" lon="7.3533345147721825"><ele>358.0</ele><time>2026-05-01T08:20:24.999Z</time></trkpt><trkpt lat="45.103413335631586" lon="7.3530550888428206"><ele>358.0</ele><time>2026-05-01T08:20:25.999Z</time></trkpt><trkpt lat="45.103489928653595" lon="7.352785034745947"><ele>358.0</ele><time>2026-05-01T08:20:26.999Z</time></trkpt><trkpt lat="45.103566579157246" lon="7.352530197494794"><ele>358.0</ele><time>2026-05-01T08:20:27.999Z</time></trkpt><trkpt lat="45.10363932618458" lon="7.352278858047478"><ele>358.0</ele><time>2026-05-01T08:20:28.999Z</time></trkpt><trkpt lat="45.10370863633102" lon="7.352035456699567"><ele>358.0</ele><time>2026-05-01T08:20:29.999Z</time></trkpt><trkpt lat="45.103779603218335" lon="7.351793282579389"><ele>358.0</ele><time>2026-05-01T08:20:30.999Z</time></trkpt><trkpt lat="45.10384939959047" lon="7.351551582929218"><ele>358.0</ele><time>2026-05-01T08:20:31.999Z</time></trkpt><trkpt lat="45.103914356444356" lon="7.351310207812924"><ele>358.0</ele><time>2026-05-01T08:20:32.999Z</time></trkpt><trkpt lat="45.10397721727455" lon="7.351092467167345"><ele>358.0</ele><time>2026-05-01T08:20:33.999Z</time></trkpt><trkpt lat="45.1040372478545" lon="7.350876359957949"><ele>358.0</ele><time>2026-05-01T08:20:34.999Z</time></trkpt><trkpt lat="45.10409308379926" lon="7.350699302563903"><ele>358.0</ele><time>2026-05-01T08:20:35.999Z</time></trkpt><trkpt lat="45.104136187806624" lon="7.350572609644234"><ele>358.0</ele><time>2026-05-01T08:20:36.999Z</time></trkpt><trkpt lat="45.10418002886537" lon="7.350440184140253"><ele>358.0</ele><time>2026-05-01T08:20:37.999Z</time></trkpt><trkpt lat="45.1042216432595" lon="7.350327188735531"><ele>358.0</ele><time>2026-05-01T08:20:38.999Z</time></trkpt><trkpt lat="45.104258705501074" lon="7.350229803121169"><ele>358.0</ele><time>2026-05-01T08:20:39.999Z</time></trkpt><trkpt lat="45.1042994589722" lon="7.350141704142592"><ele>358.0</ele><time>2026-05-01T08:20:40.999Z</time></trkpt><trkpt lat="45.104344633539476" lon="7.350043678406101"><ele>358.66666666666663</ele><time>2026-05-01T08:20:41.999Z</time></trkpt><trkpt lat="45.104421914382655" lon="7.3499773890018245"><ele>359.3333333333333</ele><time>2026-05-01T08:20:42.999Z</time></trkpt><trkpt lat="45.10447528525304" lon="7.349906686617583"><ele>360.0</ele><time>2026-05-01T08:20:43.999Z</time></trkpt><trkpt lat="45.10451165792282" lon="7.349813245577891"><ele>360.6666666666667</ele><time>2026-05-01T08:20:44.999Z</time></trkpt><trkpt lat="45.1044944519232" lon="7.349721373969926"><ele>361.33333333333337</ele><time>2026-05-01T08:20:45.999Z</time></trkpt><trkpt lat="45.104438117093956" lon="7.349620212585423"><ele>362.0</ele><time>2026-05-01T08:20:46.999Z</time></trkpt><trkpt lat="45.104427316542655" lon="7.34951702073651"><ele>362.0</ele><time>2026-05-01T08:20:47.999Z</time></trkpt><trkpt lat="45.10443719227888" lon="7.34938030301549"><ele>362.0</ele><time>2026-05-01T08:20:48.999Z</time></trkpt><trkpt lat="45.10444847575657" lon="7.349228736227069"><ele>362.0</ele><time>2026-05-01T08:20:49.999Z</time></trkpt><trkpt lat="45.104464643687955" lon="7.349083089014052"><ele>362.0</ele><time>2026-05-01T08:20:50.999Z</time></trkpt><trkpt lat="45.10447891110001" lon="7.348938712412703"><ele>362.0</ele><time>2026-05-01T08:20:51.999Z</time></trkpt><trkpt lat="45.10449408092344" lon="7.3487818802696925"><ele>361.75</ele><time>2026-05-01T08:20:52.999Z</time></trkpt><trkpt lat="45.1045061038338" lon="7.348610723388478"><ele>361.5</ele><time>2026-05-01T08:20:53.999Z</time></trkpt><trkpt lat="45.10451252435144" lon="7.348442228915509"><ele>361.25</ele><time>2026-05-01T08:20:54.999Z</time></trkpt><trkpt lat="45.10452903528693" lon="7.348258929821026"><ele>361.0</ele><time>2026-05-01T08:20:55.999Z</time></trkpt><trkpt lat="45.10454721482153" lon="7.348054926097985"><ele>361.3333333333333</ele><time>2026-05-01T08:20:56.999Z</time></trkpt><trkpt lat="45.10456702242544" lon="7.347866409123584"><ele>361.6666666666667</ele><time>2026-05-01T08:20:57.999Z</time></trkpt><trkpt lat="45.10457234744735" lon="7.347590698139208"><ele>362.0</ele><time>2026-05-01T08:20:58.999Z</time></trkpt><trkpt lat="45.10460655191577" lon="7.347391386013241"><ele>362.33333333333337</ele><time>2026-05-01T08:20:59.999Z</time></trkpt><trkpt lat="45.10461725789325" lon="7.3471555764641145"><ele>362.6666666666667</ele><time>2026-05-01T08:21:00.999Z</time></trkpt><trkpt lat="45.10462573359642" lon="7.3469465418573945"><ele>363.0</ele><time>2026-05-01T08:21:01.999Z</time></trkpt><trkpt lat="45.1046331397462" lon="7.346730314564486"><ele>363.0</ele><time>2026-05-01T08:21:02.999Z</time></trkpt><trkpt lat="45.104651652291274" lon="7.346530193282348"><ele>363.0</ele><time>2026-05-01T08:21:03.999Z</time></trkpt><trkpt lat="45.10465120258196" lon="7.346310675537607"><ele>363.0</ele><time>2026-05-01T08:21:04.999Z</time></trkpt><trkpt lat="45.10466419298415" lon="7.346085846823612"><ele>362.6666666666667</ele><time>2026-05-01T08:21:05.999Z</time></trkpt><trkpt lat="45.10467465108406" lon="7.345844699887869"><ele>362.33333333333337</ele><time>2026-05-01T08:21:06.999Z</time></trkpt><trkpt lat="45.10468374213862" lon="7.345597163711888"><ele>362.0</ele><time>2026-05-01T08:21:07.999Z</time></trkpt><trkpt lat="45.10469896348548" lon="7.345361445251494"><ele>362.0</ele><time>2026-05-01T08:21:08.999Z</time></trkpt><trkpt lat="45.10471452245723" lon="7.345086293881102"><ele>362.0</ele><time>2026-05-01T08:21:10Z</time></trkpt><trkpt lat="45.10474107779367" lon="7.3448136439824525"><ele>362.0</ele><time>2026-05-01T08:21:11Z</time></trkpt><trkpt lat="45.10474300863323" lon="7.344552182219492"><ele>361.6666666666667</ele><time>2026-05-01T08:21:12Z</time></trkpt><trkpt lat="45.10475867122724" lon="7.344287244564313"><ele>361.3333333333333</ele><time>2026-05-01T08:21:13Z</time></trkpt><trkpt lat="45.10477470597895" lon="7.344017397024281"><ele>361.0</ele><time>2026-05-01T08:21:14Z</time></trkpt><trkpt lat="45.104791292448205" lon="7.343754221816802"><ele>361.0</ele><time>2026-05-01T08:21:15Z</time></trkpt><trkpt lat="45.104812631805416" lon="7.3434847068698375"><ele>361.0</ele><time>2026-05-01T08:21:16Z</time></trkpt><trkpt lat="45.10480912524963" lon="7.343198516007354"><ele>361.0</ele><time>2026-05-01T08:21:17Z</time></trkpt><trkpt lat="45.104829668401" lon="7.342915667119494"><ele>361.66666666666663</ele><time>2026-05-01T08:21:18Z</time></trkpt><trkpt lat="45.1048522225278" lon="7.342650478507779"><ele>362.3333333333333</ele><time>2026-05-01T08:21:19Z</time></trkpt><trkpt lat="45.104869699697154" lon="7.342378340331424"><ele>363.0</ele><time>2026-05-01T08:21:20Z</time></trkpt><trkpt lat="45.10488183998229" lon="7.342111435550553"><ele>362.6666666666667</ele><time>2026-05-01T08:21:21Z</time></trkpt><trkpt lat="45.10489030939889" lon="7.3418287334889385"><ele>362.33333333333337</ele><time>2026-05-01T08:21:22Z</time></trkpt><trkpt lat="45.10490586070457" lon="7.341569450465342"><ele>362.0</ele><time>2026-05-01T08:21:23Z</time></trkpt><trkpt lat="45.104917151505525" lon="7.341298623123608"><ele>362.0</ele><time>2026-05-01T08:21:24Z</time></trkpt><trkpt lat="45.104939147056626" lon="7.341036305817629"><ele>362.0</ele><time>2026-05-01T08:21:25Z</time></trkpt><trkpt lat="45.104955560182525" lon="7.3407677856056"><ele>362.0</ele><time>2026-05-01T08:21:26Z</time></trkpt><trkpt lat="45.10495180158776" lon="7.340478653656082"><ele>362.0</ele><time>2026-05-01T08:21:27Z</time></trkpt><trkpt lat="45.10497649178083" lon="7.340221583706141"><ele>362.0</ele><time>2026-05-01T08:21:28Z</time></trkpt><trkpt lat="45.10498927599248" lon="7.339939007214269"><ele>362.0</ele><time>2026-05-01T08:21:29Z</time></trkpt><trkpt lat="45.10500268937239" lon="7.339659044105203"><ele>362.0</ele><time>2026-05-01T08:21:30Z</time></trkpt><trkpt lat="45.10500727047592" lon="7.339389052865047"><ele>362.0</ele><time>2026-05-01T08:21:31Z</time></trkpt><trkpt lat="45.10502371738753" lon="7.339140757618638"><ele>362.0</ele><time>2026-05-01T08:21:32Z</time></trkpt><trkpt lat="45.10504324249012" lon="7.338887700463132"><ele>361.6666666666667</ele><time>2026-05-01T08:21:33Z</time></trkpt><trkpt lat="45.10505052748997" lon="7.338639502744748"><ele>361.3333333333333</ele><time>2026-05-01T08:21:34Z</time></trkpt><trkpt lat="45.105059465630475" lon="7.338378581192696"><ele>361.0</ele><time>2026-05-01T08:21:35Z</time></trkpt><trkpt lat="45.10507350244494" lon="7.338144116110328"><ele>361.3333333333333</ele><time>2026-05-01T08:21:36Z</time></trkpt><trkpt lat="45.10509310068725" lon="7.337915315853363"><ele>361.6666666666667</ele><time>2026-05-01T08:21:37Z</time></trkpt><trkpt lat="45.105105373855366" lon="7.337675013314387"><ele>362.0</ele><time>2026-05-01T08:21:38Z</time></trkpt><trkpt lat="45.10511827323653" lon="7.337424834669395"><ele>362.6666666666667</ele><time>2026-05-01T08:21:39Z</time></trkpt><trkpt lat="45.10513488950849" lon="7.337182705858797"><ele>363.3333333333333</ele><time>2026-05-01T08:21:40Z</time></trkpt><trkpt lat="45.105153554667424" lon="7.336946553615952"><ele>364.0</ele><time>2026-05-01T08:21:41Z</time></trkpt><trkpt lat="45.10516940462629" lon="7.3366991177063134"><ele>364.0</ele><time>2026-05-01T08:21:42Z</time></trkpt><trkpt lat="45.105188886453824" lon="7.336466962226856"><ele>364.0</ele><time>2026-05-01T08:21:43Z</time></trkpt><trkpt lat="45.10519084805276" lon="7.336240336984645"><ele>364.0</ele><time>2026-05-01T08:21:44Z</time></trkpt><trkpt lat="45.10519803297455" lon="7.336007029282817"><ele>364.0</ele><time>2026-05-01T08:21:45Z</time></trkpt><trkpt lat="45.10520624027558" lon="7.335759541009411"><ele>364.0</ele><time>2026-05-01T08:21:46Z</time></trkpt><trkpt lat="45.1052270238658" lon="7.335504409454285"><ele>364.0</ele><time>2026-05-01T08:21:47Z</time></trkpt><trkpt lat="45.1052253724467" lon="7.335270491578465"><ele>364.0</ele><time>2026-05-01T08:21:48Z</time></trkpt><trkpt lat="45.10525154343842" lon="7.335042009901191"><ele>364.0</ele><time>2026-05-01T08:21:49Z</time></trkpt><trkpt lat="45.10526310731414" lon="7.334823933879709"><ele>364.0</ele><time>2026-05-01T08:21:50Z</time></trkpt><trkpt lat="45.10524875108082" lon="7.334597734083401"><ele>363.66666666666663</ele><time>2026-05-01T08:21:51Z</time></trkpt><trkpt lat="45.10527445431887" lon="7.3343908296177505"><ele>363.3333333333333</ele><time>2026-05-01T08:21:52Z</time></trkpt><trkpt lat="45.10529308758897" lon="7.334157374948327"><ele>363.0</ele><time>2026-05-01T08:21:53Z</time></trkpt><trkpt lat="45.10529533144384" lon="7.333935610614314"><ele>363.3333333333333</ele><time>2026-05-01T08:21:54Z</time></trkpt><trkpt lat="45.10531816811208" lon="7.333703771284293"><ele>363.66666666666663</ele><time>2026-05-01T08:21:55Z</time></trkpt><trkpt lat="45.10533138452746" lon="7.333466664085278"><ele>364.0</ele><time>2026-05-01T08:21:56Z</time></trkpt><trkpt lat="45.10533941413812" lon="7.3332269515374096"><ele>363.66666666666663</ele><time>2026-05-01T08:21:57Z</time></trkpt><trkpt lat="45.105342712500295" lon="7.332991587431225"><ele>363.3333333333333</ele><time>2026-05-01T08:21:58Z</time></trkpt><trkpt lat="45.105356553268656" lon="7.332758448903955"><ele>363.0</ele><time>2026-05-01T08:21:59Z</time></trkpt><trkpt lat="45.10537034056929" lon="7.332533249251676"><ele>363.0</ele><time>2026-05-01T08:22:00Z</time></trkpt><trkpt lat="45.10539415484573" lon="7.33230310958617"><ele>363.0</ele><time>2026-05-01T08:22:01Z</time></trkpt><trkpt lat="45.10540483874481" lon="7.332051846398031"><ele>363.0</ele><time>2026-05-01T08:22:02Z</time></trkpt><trkpt lat="45.10542387816926" lon="7.331806261442712"><ele>363.3333333333333</ele><time>2026-05-01T08:22:03Z</time></trkpt><trkpt lat="45.10543947175124" lon="7.331582431562889"><ele>363.66666666666663</ele><time>2026-05-01T08:22:04Z</time></trkpt><trkpt lat="45.1054568230901" lon="7.331348141684096"><ele>364.0</ele><time>2026-05-01T08:22:05Z</time></trkpt><trkpt lat="45.105465374217154" lon="7.33112700510053"><ele>364.0</ele><time>2026-05-01T08:22:06Z</time></trkpt><trkpt lat="45.105475563726124" lon="7.33091992951577"><ele>364.0</ele><time>2026-05-01T08:22:07Z</time></trkpt><trkpt lat="45.10549068921224" lon="7.330715258266608"><ele>364.0</ele><time>2026-05-01T08:22:08Z</time></trkpt><trkpt lat="45.10550584618644" lon="7.330513740817377"><ele>364.0</ele><time>2026-05-01T08:22:09Z</time></trkpt><trkpt lat="45.10550624308295" lon="7.330311636767219"><ele>364.66666666666663</ele><time>2026-05-01T08:22:10Z</time></trkpt><trkpt lat="45.105507247450085" lon="7.330089087741505"><ele>365.3333333333333</ele><time>2026-05-01T08:22:11Z</time></trkpt><trkpt lat="45.10550731916906" lon="7.3298688726947505"><ele>366.0</ele><time>2026-05-01T08:22:12Z</time></trkpt><trkpt lat="45.10552907988717" lon="7.329664964949985"><ele>366.0</ele><time>2026-05-01T08:22:13Z</time></trkpt><trkpt lat="45.10553964172839" lon="7.329454828408181"><ele>366.0</ele><time>2026-05-01T08:22:14Z</time></trkpt><trkpt lat="45.105523919315324" lon="7.329271495145924"><ele>366.0</ele><time>2026-05-01T08:22:15Z</time></trkpt><trkpt lat="45.105533329774346" lon="7.329097593766322"><ele>366.0</ele><time>2026-05-01T08:22:16Z</time></trkpt><trkpt lat="45.10554473321711" lon="7.328921762404924"><ele>365.75</ele><time>2026-05-01T08:22:17Z</time></trkpt><trkpt lat="45.10554809324425" lon="7.328737693007626"><ele>365.5</ele><time>2026-05-01T08:22:18Z</time></trkpt><trkpt lat="45.10556823679549" lon="7.328570928215589"><ele>365.25</ele><time>2026-05-01T08:22:19Z</time></trkpt><trkpt lat="45.105595089611114" lon="7.3283740683062595"><ele>365.0</ele><time>2026-05-01T08:22:20Z</time></trkpt><trkpt lat="45.10559127533051" lon="7.328200116074552"><ele>365.25</ele><time>2026-05-01T08:22:21Z</time></trkpt><trkpt lat="45.10561315996764" lon="7.328027545507508"><ele>365.5</ele><time>2026-05-01T08:22:22Z</time></trkpt><trkpt lat="45.10563489653923" lon="7.327841555079061"><ele>365.75</ele><time>2026-05-01T08:22:23Z</time></trkpt><trkpt lat="45.105627808934976" lon="7.327657563401981"><ele>366.0</ele><time>2026-05-01T08:22:24Z</time></trkpt><trkpt lat="45.105640533825635" lon="7.327467584261113"><ele>366.0</ele><time>2026-05-01T08:22:25Z</time></trkpt><trkpt lat="45.10565251062266" lon="7.327272181247165"><ele>366.0</ele><time>2026-05-01T08:22:26Z</time></trkpt><trkpt lat="45.10566337640554" lon="7.327104422604602"><ele>366.0</ele><time>2026-05-01T08:22:27Z</time></trkpt><trkpt lat="45.10567410478489" lon="7.326905997652233"><ele>366.0</ele><time>2026-05-01T08:22:28Z</time></trkpt><trkpt lat="45.105685123969664" lon="7.326702194149561"><ele>366.25</ele><time>2026-05-01T08:22:29Z</time></trkpt><trkpt lat="45.105694790946515" lon="7.326523961564175"><ele>366.5</ele><time>2026-05-01T08:22:30Z</time></trkpt><trkpt lat="45.10570313507168" lon="7.32637014922242"><ele>366.75</ele><time>2026-05-01T08:22:31Z</time></trkpt><trkpt lat="45.105696253267034" lon="7.326211174405567"><ele>367.0</ele><time>2026-05-01T08:22:31.999Z</time></trkpt><trkpt lat="45.105745066664525" lon="7.32606391825429"><ele>367.0</ele><time>2026-05-01T08:22:32.999Z</time></trkpt><trkpt lat="45.10574879627743" lon="7.325942874307006"><ele>367.0</ele><time>2026-05-01T08:22:33.999Z</time></trkpt><trkpt lat="45.10575067078522" lon="7.325841543141797"><ele>367.0</ele><time>2026-05-01T08:22:34.999Z</time></trkpt><trkpt lat="45.105757300154266" lon="7.3256827233444675"><ele>367.0</ele><time>2026-05-01T08:22:36.999Z</time></trkpt><trkpt lat="45.10576684805735" lon="7.325575311108963"><ele>367.0</ele><time>2026-05-01T08:22:37.999Z</time></trkpt><trkpt lat="45.1057738640895" lon="7.3253674777240025"><ele>367.0</ele><time>2026-05-01T08:22:39.999Z</time></trkpt><trkpt lat="45.10577827354627" lon="7.325252017789744"><ele>367.0</ele><time>2026-05-01T08:22:40.999Z</time></trkpt><trkpt lat="45.10577739121755" lon="7.325083709676827"><ele>367.0</ele><time>2026-05-01T08:22:41.999Z</time></trkpt><trkpt lat="45.1057832308972" lon="7.324931374358125"><ele>367.0</ele><time>2026-05-01T08:22:42.999Z</time></trkpt><trkpt lat="45.105790831266006" lon="7.324757219948646"><ele>367.0</ele><time>2026-05-01T08:22:43.999Z</time></trkpt><trkpt lat="45.10580028506234" lon="7.3245842977074"><ele>367.0</ele><time>2026-05-01T08:22:44.999Z</time></trkpt><trkpt lat="45.10580844769602" lon="7.3244349924659655"><ele>367.0</ele><time>2026-05-01T08:22:45.999Z</time></trkpt><trkpt lat="45.10581805681439" lon="7.324259229020625"><ele>367.0</ele><time>2026-05-01T08:22:46.999Z</time></trkpt><trkpt lat="45.10583945017021" lon="7.324080454677756"><ele>367.0</ele><time>2026-05-01T08:22:47.999Z</time></trkpt><trkpt lat="45.105859361614336" lon="7.323862534137824"><ele>367.3333333333333</ele><time>2026-05-01T08:22:48.999Z</time></trkpt><trkpt lat="45.10587314240186" lon="7.3236596023207685"><ele>367.6666666666667</ele><time>2026-05-01T08:22:49.999Z</time></trkpt><trkpt lat="45.105897879056286" lon="7.3234321132267555"><ele>368.0</ele><time>2026-05-01T08:22:50.999Z</time></trkpt><trkpt lat="45.10590535397563" lon="7.32319844764803"><ele>368.0</ele><time>2026-05-01T08:22:51.999Z</time></trkpt><trkpt lat="45.10590482629089" lon="7.322996982976172"><ele>368.0</ele><time>2026-05-01T08:22:52.999Z</time></trkpt><trkpt lat="45.10591697957191" lon="7.322771728586278"><ele>368.0</ele><time>2026-05-01T08:22:53.999Z</time></trkpt><trkpt lat="45.105923327254956" lon="7.322552835638364"><ele>368.0</ele><time>2026-05-01T08:22:54.999Z</time></trkpt><trkpt lat="45.10592798317845" lon="7.322335325406532"><ele>368.0</ele><time>2026-05-01T08:22:55.999Z</time></trkpt><trkpt lat="45.105939354307154" lon="7.3221273700290475"><ele>368.0</ele><time>2026-05-01T08:22:56.999Z</time></trkpt><trkpt lat="45.105950506133034" lon="7.321922813417465"><ele>368.0</ele><time>2026-05-01T08:22:57.999Z</time></trkpt><trkpt lat="45.105956052482455" lon="7.321710066435223"><ele>368.0</ele><time>2026-05-01T08:22:58.999Z</time></trkpt><trkpt lat="45.10596956913223" lon="7.321501194047075"><ele>368.0</ele><time>2026-05-01T08:22:59.999Z</time></trkpt><trkpt lat="45.10598175890511" lon="7.321299469342073"><ele>368.0</ele><time>2026-05-01T08:23:00.999Z</time></trkpt><trkpt lat="45.1059889796958" lon="7.321074113332532"><ele>368.25</ele><time>2026-05-01T08:23:01.999Z</time></trkpt><trkpt lat="45.106003527984754" lon="7.320889983053643"><ele>368.5</ele><time>2026-05-01T08:23:02.999Z</time></trkpt><trkpt lat="45.10602138536158" lon="7.320687153287452"><ele>368.75</ele><time>2026-05-01T08:23:03.999Z</time></trkpt><trkpt lat="45.10602864394406" lon="7.320455126172909"><ele>369.0</ele><time>2026-05-01T08:23:04.999Z</time></trkpt><trkpt lat="45.10604233870487" lon="7.320252179631005"><ele>369.0</ele><time>2026-05-01T08:23:05.999Z</time></trkpt><trkpt lat="45.10605227033068" lon="7.3200304038846875"><ele>369.0</ele><time>2026-05-01T08:23:06.999Z</time></trkpt><trkpt lat="45.10606179260469" lon="7.319821281603089"><ele>369.0</ele><time>2026-05-01T08:23:07.999Z</time></trkpt><trkpt lat="45.10607811748502" lon="7.3195777195560385"><ele>369.0</ele><time>2026-05-01T08:23:08.999Z</time></trkpt><trkpt lat="45.10608421668746" lon="7.31934381208901"><ele>369.0</ele><time>2026-05-01T08:23:09.999Z</time></trkpt><trkpt lat="45.10610008674652" lon="7.319115878944938"><ele>369.0</ele><time>2026-05-01T08:23:10.999Z</time></trkpt><trkpt lat="45.106107434492486" lon="7.318864445341477"><ele>369.0</ele><time>2026-05-01T08:23:11.999Z</time></trkpt><trkpt lat="45.10610887940513" lon="7.318571340947248"><ele>369.0</ele><time>2026-05-01T08:23:12.999Z</time></trkpt><trkpt lat="45.106130205626094" lon="7.318269850463961"><ele>369.0</ele><time>2026-05-01T08:23:13.999Z</time></trkpt><trkpt lat="45.106144277341045" lon="7.317988831330894"><ele>369.0</ele><time>2026-05-01T08:23:14.999Z</time></trkpt><trkpt lat="45.10615940152768" lon="7.317695908219377"><ele>369.0</ele><time>2026-05-01T08:23:16Z</time></trkpt><trkpt lat="45.10616218433474" lon="7.31740534025391"><ele>369.0</ele><time>2026-05-01T08:23:17Z</time></trkpt><trkpt lat="45.10618749627537" lon="7.317124712348811"><ele>369.0</ele><time>2026-05-01T08:23:18Z</time></trkpt><trkpt lat="45.1062155852034" lon="7.316834588936367"><ele>369.0</ele><time>2026-05-01T08:23:19Z</time></trkpt><trkpt lat="45.10624239477396" lon="7.316536957375705"><ele>369.0</ele><time>2026-05-01T08:23:20Z</time></trkpt><trkpt lat="45.10626541815528" lon="7.316244691725554"><ele>369.0</ele><time>2026-05-01T08:23:21Z</time></trkpt><trkpt lat="45.10628532076274" lon="7.3159336811241795"><ele>369.0</ele><time>2026-05-01T08:23:22Z</time></trkpt><trkpt lat="45.10628579254218" lon="7.315631273603334"><ele>369.0</ele><time>2026-05-01T08:23:23Z</time></trkpt><trkpt lat="45.10630234274727" lon="7.315347719333115"><ele>369.0</ele><time>2026-05-01T08:23:24Z</time></trkpt><trkpt lat="45.10631342036663" lon="7.315078797517543"><ele>369.0</ele><time>2026-05-01T08:23:25Z</time></trkpt><trkpt lat="45.10632198590869" lon="7.314850405549236"><ele>369.0</ele><time>2026-05-01T08:23:26Z</time></trkpt><trkpt lat="45.10634340027279" lon="7.314579235311958"><ele>369.0</ele><time>2026-05-01T08:23:27Z</time></trkpt><trkpt lat="45.10635770346235" lon="7.314304585209231"><ele>369.0</ele><time>2026-05-01T08:23:28Z</time></trkpt><trkpt lat="45.106365062396655" lon="7.3140056806397515"><ele>369.0</ele><time>2026-05-01T08:23:29Z</time></trkpt><trkpt lat="45.106376472444495" lon="7.313716691927462"><ele>368.6666666666667</ele><time>2026-05-01T08:23:30Z</time></trkpt><trkpt lat="45.1063872756278" lon="7.313424975804843"><ele>368.33333333333337</ele><time>2026-05-01T08:23:31Z</time></trkpt><trkpt lat="45.10640328339731" lon="7.3131523074531595"><ele>368.0</ele><time>2026-05-01T08:23:32Z</time></trkpt><trkpt lat="45.106411842054314" lon="7.312900832052356"><ele>369.0</ele><time>2026-05-01T08:23:33Z</time></trkpt><trkpt lat="45.10643444209337" lon="7.312648729322517"><ele>370.0</ele><time>2026-05-01T08:23:34Z</time></trkpt><trkpt lat="45.10644540636445" lon="7.312412045596211"><ele>371.0</ele><time>2026-05-01T08:23:35Z</time></trkpt><trkpt lat="45.10647010707512" lon="7.312222572843361"><ele>371.25</ele><time>2026-05-01T08:23:36Z</time></trkpt><trkpt lat="45.106488648429945" lon="7.3120063199408785"><ele>371.5</ele><time>2026-05-01T08:23:37Z</time></trkpt><trkpt lat="45.106498894026444" lon="7.311817429624999"><ele>371.75</ele><time>2026-05-01T08:23:38Z</time></trkpt><trkpt lat="45.10648072273178" lon="7.311665344093699"><ele>372.0</ele><time>2026-05-01T08:23:39Z</time></trkpt><trkpt lat="45.106519305181045" lon="7.3115103782511035"><ele>372.0</ele><time>2026-05-01T08:23:41Z</time></trkpt><trkpt lat="45.10657030941755" lon="7.311435485665468"><ele>372.0</ele><time>2026-05-01T08:23:42Z</time></trkpt><trkpt lat="45.10662859009064" lon="7.311367264797086"><ele>372.0</ele><time>2026-05-01T08:23:43Z</time></trkpt><trkpt lat="45.106628107817365" lon="7.311238853043859"><ele>372.0</ele><time>2026-05-01T08:23:44Z</time></trkpt><trkpt lat="45.10661173035252" lon="7.3111473970383765"><ele>372.0</ele><time>2026-05-01T08:23:45Z</time></trkpt><trkpt lat="45.10653805059328" lon="7.31102923669959"><ele>372.0</ele><time>2026-05-01T08:23:46Z</time></trkpt><trkpt lat="45.10652050272503" lon="7.3108897739216365"><ele>371.75</ele><time>2026-05-01T08:23:47Z</time></trkpt><trkpt lat="45.10650542272436" lon="7.310719496875172"><ele>371.5</ele><time>2026-05-01T08:23:48Z</time></trkpt><trkpt lat="45.10651144771877" lon="7.310557165928636"><ele>371.25</ele><time>2026-05-01T08:23:49Z</time></trkpt><trkpt lat="45.106532621429594" lon="7.310371675476252"><ele>371.0</ele><time>2026-05-01T08:23:50Z</time></trkpt><trkpt lat="45.10652881288186" lon="7.310160783301832"><ele>371.0</ele><time>2026-05-01T08:23:51Z</time></trkpt><trkpt lat="45.10653209508474" lon="7.309935749503063"><ele>371.0</ele><time>2026-05-01T08:23:52Z</time></trkpt><trkpt lat="45.10656027470396" lon="7.309696167434282"><ele>371.0</ele><time>2026-05-01T08:23:53Z</time></trkpt><trkpt lat="45.106566217432125" lon="7.309463388737157"><ele>370.6666666666667</ele><time>2026-05-01T08:23:54Z</time></trkpt><trkpt lat="45.10657846562886" lon="7.309223195749423"><ele>370.3333333333333</ele><time>2026-05-01T08:23:55Z</time></trkpt><trkpt lat="45.10660530441884" lon="7.308984704830857"><ele>370.0</ele><time>2026-05-01T08:23:56Z</time></trkpt><trkpt lat="45.10662696149511" lon="7.3087292178100345"><ele>370.0</ele><time>2026-05-01T08:23:57Z</time></trkpt><trkpt lat="45.10663664152388" lon="7.308409095667237"><ele>370.0</ele><time>2026-05-01T08:23:58Z</time></trkpt><trkpt lat="45.10665073326294" lon="7.308117685304039"><ele>370.0</ele><time>2026-05-01T08:23:59Z</time></trkpt><trkpt lat="45.10666699784966" lon="7.307802919797003"><ele>370.0</ele><time>2026-05-01T08:24:00Z</time></trkpt><trkpt lat="45.10669042218204" lon="7.307483194018931"><ele>370.0</ele><time>2026-05-01T08:24:01Z</time></trkpt><trkpt lat="45.106715509527845" lon="7.307175826155229"><ele>370.0</ele><time>2026-05-01T08:24:02Z</time></trkpt><trkpt lat="45.10673655926161" lon="7.306895382307902"><ele>370.0</ele><time>2026-05-01T08:24:03Z</time></trkpt><trkpt lat="45.10675354120263" lon="7.306561632758643"><ele>370.0</ele><time>2026-05-01T08:24:04Z</time></trkpt><trkpt lat="45.10675240570109" lon="7.306289348924102"><ele>370.0</ele><time>2026-05-01T08:24:05Z</time></trkpt><trkpt lat="45.106782866697074" lon="7.3059817427937155"><ele>370.3333333333333</ele><time>2026-05-01T08:24:06Z</time></trkpt><trkpt lat="45.106797027389554" lon="7.305662990967299"><ele>370.6666666666667</ele><time>2026-05-01T08:24:07Z</time></trkpt><trkpt lat="45.10681601702761" lon="7.305350061343825"><ele>371.0</ele><time>2026-05-01T08:24:08Z</time></trkpt><trkpt lat="45.10682499644951" lon="7.305011457426489"><ele>373.0</ele><time>2026-05-01T08:24:09Z</time></trkpt><trkpt lat="45.10682889998901" lon="7.30466191448497"><ele>375.0</ele><time>2026-05-01T08:24:10Z</time></trkpt><trkpt lat="45.10682888086638" lon="7.3043536281759796"><ele>375.0</ele><time>2026-05-01T08:24:11Z</time></trkpt><trkpt lat="45.106844209570674" lon="7.30402607182602"><ele>375.0</ele><time>2026-05-01T08:24:12Z</time></trkpt><trkpt lat="45.10685901654326" lon="7.303707516092846"><ele>374.6666666666667</ele><time>2026-05-01T08:24:13Z</time></trkpt><trkpt lat="45.106876820500105" lon="7.303398764976871"><ele>374.33333333333337</ele><time>2026-05-01T08:24:14Z</time></trkpt><trkpt lat="45.10689314498607" lon="7.3030873214353385"><ele>374.0</ele><time>2026-05-01T08:24:15Z</time></trkpt><trkpt lat="45.10691923972199" lon="7.302779221561123"><ele>373.5</ele><time>2026-05-01T08:24:16Z</time></trkpt><trkpt lat="45.106935196917554" lon="7.30245213883554"><ele>373.0</ele><time>2026-05-01T08:24:17Z</time></trkpt><trkpt lat="45.106933977997684" lon="7.302124330579068"><ele>373.0</ele><time>2026-05-01T08:24:18Z</time></trkpt><trkpt lat="45.10695508106447" lon="7.301792240615798"><ele>373.0</ele><time>2026-05-01T08:24:19Z</time></trkpt><trkpt lat="45.10697487724362" lon="7.301456490638835"><ele>373.0</ele><time>2026-05-01T08:24:20Z</time></trkpt><trkpt lat="45.10698470360447" lon="7.301106425041985"><ele>373.0</ele><time>2026-05-01T08:24:21Z</time></trkpt><trkpt lat="45.1070066220524" lon="7.30077722845196"><ele>373.5</ele><time>2026-05-01T08:24:22Z</time></trkpt><trkpt lat="45.10702808418955" lon="7.300446582932381"><ele>374.0</ele><time>2026-05-01T08:24:23Z</time></trkpt><trkpt lat="45.10704035539308" lon="7.300122849011319"><ele>374.0</ele><time>2026-05-01T08:24:23.999Z</time></trkpt><trkpt lat="45.10705716568443" lon="7.299786258129778"><ele>374.0</ele><time>2026-05-01T08:24:24.999Z</time></trkpt><trkpt lat="45.107066230111975" lon="7.299463418125314"><ele>373.5</ele><time>2026-05-01T08:24:25.999Z</time></trkpt><trkpt lat="45.10708079725766" lon="7.299140007735966"><ele>373.0</ele><time>2026-05-01T08:24:26.999Z</time></trkpt><trkpt lat="45.10710589781318" lon="7.298826208241296"><ele>372.66666666666663</ele><time>2026-05-01T08:24:27.999Z</time></trkpt><trkpt lat="45.1071201429042" lon="7.298514297965791"><ele>372.3333333333333</ele><time>2026-05-01T08:24:28.999Z</time></trkpt><trkpt lat="45.10711834019645" lon="7.298204097616657"><ele>372.0</ele><time>2026-05-01T08:24:29.999Z</time></trkpt><trkpt lat="45.107134005084085" lon="7.297893002574235"><ele>372.3333333333333</ele><time>2026-05-01T08:24:30.999Z</time></trkpt><trkpt lat="45.10715203923187" lon="7.297596580762096"><ele>372.66666666666663</ele><time>2026-05-01T08:24:31.999Z</time></trkpt><trkpt lat="45.10716281547823" lon="7.297300757067656"><ele>373.0</ele><time>2026-05-01T08:24:32.999Z</time></trkpt><trkpt lat="45.10717981142475" lon="7.297010075630071"><ele>373.0</ele><time>2026-05-01T08:24:33.999Z</time></trkpt><trkpt lat="45.1071923823633" lon="7.2967159479233095"><ele>373.0</ele><time>2026-05-01T08:24:34.999Z</time></trkpt><trkpt lat="45.10720679615733" lon="7.296414605583393"><ele>373.0</ele><time>2026-05-01T08:24:35.999Z</time></trkpt><trkpt lat="45.107220294219395" lon="7.296110524361495"><ele>373.0</ele><time>2026-05-01T08:24:36.999Z</time></trkpt><trkpt lat="45.10723396843185" lon="7.29579843472856"><ele>373.0</ele><time>2026-05-01T08:24:37.999Z</time></trkpt><trkpt lat="45.10725842727717" lon="7.295492246292073"><ele>373.0</ele><time>2026-05-01T08:24:38.999Z</time></trkpt><trkpt lat="45.1072690196605" lon="7.295187227584531"><ele>373.0</ele><time>2026-05-01T08:24:39.999Z</time></trkpt><trkpt lat="45.10728361247325" lon="7.294903122783385"><ele>373.0</ele><time>2026-05-01T08:24:40.999Z</time></trkpt><trkpt lat="45.10730521377553" lon="7.294596529150683"><ele>373.0</ele><time>2026-05-01T08:24:41.999Z</time></trkpt><trkpt lat="45.10731651718372" lon="7.294296168157568"><ele>373.0</ele><time>2026-05-01T08:24:42.999Z</time></trkpt><trkpt lat="45.10732821272061" lon="7.294000855913737"><ele>373.0</ele><time>2026-05-01T08:24:43.999Z</time></trkpt><trkpt lat="45.10733697053271" lon="7.2937135214682955"><ele>373.0</ele><time>2026-05-01T08:24:44.999Z</time></trkpt><trkpt lat="45.10734971505801" lon="7.2934504453905635"><ele>373.3333333333333</ele><time>2026-05-01T08:24:45.999Z</time></trkpt><trkpt lat="45.10736372093501" lon="7.293175103125678"><ele>373.6666666666667</ele><time>2026-05-01T08:24:46.999Z</time></trkpt><trkpt lat="45.10737758524235" lon="7.292917117370474"><ele>374.0</ele><time>2026-05-01T08:24:47.999Z</time></trkpt><trkpt lat="45.107382616688234" lon="7.292656434778833"><ele>374.0</ele><time>2026-05-01T08:24:48.999Z</time></trkpt><trkpt lat="45.10739202159924" lon="7.292421193814351"><ele>374.0</ele><time>2026-05-01T08:24:49.999Z</time></trkpt><trkpt lat="45.10741076496102" lon="7.292178533460067"><ele>374.0</ele><time>2026-05-01T08:24:50.999Z</time></trkpt><trkpt lat="45.10742095621201" lon="7.291937684422148"><ele>374.0</ele><time>2026-05-01T08:24:51.999Z</time></trkpt><trkpt lat="45.107431347291545" lon="7.291709001264264"><ele>374.0</ele><time>2026-05-01T08:24:52.999Z</time></trkpt><trkpt lat="45.10743700900719" lon="7.291492027927125"><ele>374.0</ele><time>2026-05-01T08:24:53.999Z</time></trkpt><trkpt lat="45.107441395702416" lon="7.291278623984064"><ele>374.0</ele><time>2026-05-01T08:24:54.999Z</time></trkpt><trkpt lat="45.10745573961562" lon="7.291091727747552"><ele>374.0</ele><time>2026-05-01T08:24:55.999Z</time></trkpt><trkpt lat="45.10746892846014" lon="7.290922110239145"><ele>374.0</ele><time>2026-05-01T08:24:56.999Z</time></trkpt><trkpt lat="45.10748277858609" lon="7.2907648814601655"><ele>374.0</ele><time>2026-05-01T08:24:57.999Z</time></trkpt><trkpt lat="45.10748441767303" lon="7.290583317025858"><ele>374.79999999999995</ele><time>2026-05-01T08:24:58.999Z</time></trkpt><trkpt lat="45.10749011088857" lon="7.290448912492221"><ele>375.59999999999997</ele><time>2026-05-01T08:24:59.999Z</time></trkpt><trkpt lat="45.10749152614816" lon="7.290294629712635"><ele>376.4</ele><time>2026-05-01T08:25:00.999Z</time></trkpt><trkpt lat="45.107491979425056" lon="7.290140875554037"><ele>377.2</ele><time>2026-05-01T08:25:01.999Z</time></trkpt><trkpt lat="45.10749477116582" lon="7.289992385905883"><ele>378.0</ele><time>2026-05-01T08:25:02.999Z</time></trkpt><trkpt lat="45.1074997737354" lon="7.289861149077448"><ele>377.8333333333333</ele><time>2026-05-01T08:25:03.999Z</time></trkpt><trkpt lat="45.10751041704622" lon="7.289749515410222"><ele>377.6666666666667</ele><time>2026-05-01T08:25:04.999Z</time></trkpt><trkpt lat="45.107509593951114" lon="7.289620058987774"><ele>377.5</ele><time>2026-05-01T08:25:05.999Z</time></trkpt><trkpt lat="45.107525360549204" lon="7.289523303572895"><ele>377.33333333333337</ele><time>2026-05-01T08:25:06.999Z</time></trkpt><trkpt lat="45.10753678667453" lon="7.289430294115307"><ele>377.1666666666667</ele><time>2026-05-01T08:25:07.999Z</time></trkpt><trkpt lat="45.10755953062886" lon="7.289334309176985"><ele>377.0</ele><time>2026-05-01T08:25:08.999Z</time></trkpt><trkpt lat="45.10765726578186" lon="7.289223844702345"><ele>377.0</ele><time>2026-05-01T08:25:10.999Z</time></trkpt><trkpt lat="45.107656227185615" lon="7.2890169190081515"><ele>377.0</ele><time>2026-05-01T08:25:12.999Z</time></trkpt><trkpt lat="45.10762997513348" lon="7.288924816571386"><ele>377.0</ele><time>2026-05-01T08:25:13.999Z</time></trkpt><trkpt lat="45.10758555961048" lon="7.288815828832873"><ele>377.0</ele><time>2026-05-01T08:25:14.999Z</time></trkpt><trkpt lat="45.10756413041909" lon="7.288702986078556"><ele>377.0</ele><time>2026-05-01T08:25:15.999Z</time></trkpt><trkpt lat="45.10755597859166" lon="7.288581218593642"><ele>377.0</ele><time>2026-05-01T08:25:16.999Z</time></trkpt><trkpt lat="45.107549398347345" lon="7.288491932647547"><ele>377.0</ele><time>2026-05-01T08:25:17.999Z</time></trkpt><trkpt lat="45.10755000627858" lon="7.288351234169904"><ele>377.0</ele><time>2026-05-01T08:25:18.999Z</time></trkpt><trkpt lat="45.107544318641445" lon="7.2881849056963866"><ele>377.0</ele><time>2026-05-01T08:25:19.999Z</time></trkpt><trkpt lat="45.107555520112854" lon="7.288018277342841"><ele>377.0</ele><time>2026-05-01T08:25:20.999Z</time></trkpt><trkpt lat="45.10759426405022" lon="7.287853228408233"><ele>377.0</ele><time>2026-05-01T08:25:22Z</time></trkpt><trkpt lat="45.107602641534264" lon="7.287650954666346"><ele>377.0</ele><time>2026-05-01T08:25:23Z</time></trkpt><trkpt lat="45.10761179426408" lon="7.28744848179672"><ele>377.0</ele><time>2026-05-01T08:25:24Z</time></trkpt><trkpt lat="45.107618466141105" lon="7.287251165091676"><ele>377.0</ele><time>2026-05-01T08:25:25Z</time></trkpt><trkpt lat="45.10763889719632" lon="7.2870757059286015"><ele>377.0</ele><time>2026-05-01T08:25:26Z</time></trkpt><trkpt lat="45.10763699303702" lon="7.286875549233414"><ele>377.0</ele><time>2026-05-01T08:25:27Z</time></trkpt><trkpt lat="45.10763453046381" lon="7.286668492991569"><ele>377.0</ele><time>2026-05-01T08:25:28Z</time></trkpt><trkpt lat="45.10765667703725" lon="7.286479966173257"><ele>377.0</ele><time>2026-05-01T08:25:29Z</time></trkpt><trkpt lat="45.10765831698648" lon="7.286261848999704"><ele>376.75</ele><time>2026-05-01T08:25:30Z</time></trkpt><trkpt lat="45.10766838409941" lon="7.2860555906174485"><ele>376.5</ele><time>2026-05-01T08:25:31Z</time></trkpt><trkpt lat="45.10767503684598" lon="7.2858573245305065"><ele>376.25</ele><time>2026-05-01T08:25:32Z</time></trkpt><trkpt lat="45.10768671420858" lon="7.285655140986009"><ele>376.0</ele><time>2026-05-01T08:25:33Z</time></trkpt><trkpt lat="45.1077040963797" lon="7.285458074774867"><ele>376.0</ele><time>2026-05-01T08:25:34Z</time></trkpt><trkpt lat="45.10772065169919" lon="7.285248944252581"><ele>376.0</ele><time>2026-05-01T08:25:35Z</time></trkpt><trkpt lat="45.10773009690707" lon="7.285038322951383"><ele>376.0</ele><time>2026-05-01T08:25:36Z</time></trkpt><trkpt lat="45.10774324045295" lon="7.284834791301306"><ele>376.0</ele><time>2026-05-01T08:25:37Z</time></trkpt><trkpt lat="45.107746734651" lon="7.284644470430012"><ele>376.25</ele><time>2026-05-01T08:25:38Z</time></trkpt><trkpt lat="45.107754352269986" lon="7.284467278210608"><ele>376.5</ele><time>2026-05-01T08:25:39Z</time></trkpt><trkpt lat="45.107756473582455" lon="7.284296777120234"><ele>376.75</ele><time>2026-05-01T08:25:40Z</time></trkpt><trkpt lat="45.1077687510911" lon="7.284127120041671"><ele>377.0</ele><time>2026-05-01T08:25:41Z</time></trkpt><trkpt lat="45.10777463638905" lon="7.283964387944574"><ele>377.20000000000005</ele><time>2026-05-01T08:25:42Z</time></trkpt><trkpt lat="45.107780368168314" lon="7.283800217901061"><ele>377.4</ele><time>2026-05-01T08:25:43Z</time></trkpt><trkpt lat="45.10779691526234" lon="7.283650002724414"><ele>377.6</ele><time>2026-05-01T08:25:44Z</time></trkpt><trkpt lat="45.107802075070964" lon="7.283506574750024"><ele>377.79999999999995</ele><time>2026-05-01T08:25:45Z</time></trkpt><trkpt lat="45.107805316716316" lon="7.283360866911252"><ele>378.0</ele><time>2026-05-01T08:25:46Z</time></trkpt><trkpt lat="45.107812888403494" lon="7.283209038097558"><ele>378.2</ele><time>2026-05-01T08:25:47Z</time></trkpt><trkpt lat="45.10781771618659" lon="7.283044567576935"><ele>378.4</ele><time>2026-05-01T08:25:48Z</time></trkpt><trkpt lat="45.107827476197954" lon="7.282862186375479"><ele>378.59999999999997</ele><time>2026-05-01T08:25:49Z</time></trkpt><trkpt lat="45.10783350468473" lon="7.282727596807511"><ele>378.79999999999995</ele><time>2026-05-01T08:25:50Z</time></trkpt><trkpt lat="45.10784643569757" lon="7.282596468142762"><ele>379.0</ele><time>2026-05-01T08:25:51Z</time></trkpt><trkpt lat="45.10785391205752" lon="7.2824667357279615"><ele>379.0</ele><time>2026-05-01T08:25:52Z</time></trkpt><trkpt lat="45.10785614772313" lon="7.28237454374724"><ele>379.0</ele><time>2026-05-01T08:25:53Z</time></trkpt><trkpt lat="45.107860604838166" lon="7.282174579444593"><ele>379.0</ele><time>2026-05-01T08:27:21.999Z</time></trkpt><trkpt lat="45.107853264474045" lon="7.28203966912281"><ele>379.0</ele><time>2026-05-01T08:27:22.999Z</time></trkpt><trkpt lat="45.107870064223796" lon="7.281894650639696"><ele>379.0</ele><time>2026-05-01T08:27:23.999Z</time></trkpt><trkpt lat="45.107887459858944" lon="7.281743579057588"><ele>379.5</ele><time>2026-05-01T08:27:24.999Z</time></trkpt><trkpt lat="45.107884601138124" lon="7.281593829961676"><ele>380.0</ele><time>2026-05-01T08:27:25.999Z</time></trkpt><trkpt lat="45.10788966919843" lon="7.281430560005202"><ele>380.5</ele><time>2026-05-01T08:27:26.999Z</time></trkpt><trkpt lat="45.10789282978793" lon="7.2812717805310445"><ele>381.0</ele><time>2026-05-01T08:27:28Z</time></trkpt><trkpt lat="45.10789807697404" lon="7.281103968032751"><ele>381.0</ele><time>2026-05-01T08:27:29Z</time></trkpt><trkpt lat="45.1079064954584" lon="7.280935017023647"><ele>381.0</ele><time>2026-05-01T08:27:30Z</time></trkpt><trkpt lat="45.10790995986781" lon="7.280754033016964"><ele>381.0</ele><time>2026-05-01T08:27:31Z</time></trkpt><trkpt lat="45.10792105666521" lon="7.280555031820952"><ele>381.0</ele><time>2026-05-01T08:27:32Z</time></trkpt><trkpt lat="45.10793694787028" lon="7.280319356907411"><ele>381.0</ele><time>2026-05-01T08:27:33Z</time></trkpt><trkpt lat="45.107955160307505" lon="7.280047602586213"><ele>381.0</ele><time>2026-05-01T08:27:34Z</time></trkpt><trkpt lat="45.10797074809003" lon="7.279807988841039"><ele>381.0</ele><time>2026-05-01T08:27:35Z</time></trkpt><trkpt lat="45.10797399164834" lon="7.2795701521857135"><ele>381.0</ele><time>2026-05-01T08:27:36Z</time></trkpt><trkpt lat="45.10799019471449" lon="7.27933435763937"><ele>381.0</ele><time>2026-05-01T08:27:37Z</time></trkpt><trkpt lat="45.108001026050474" lon="7.279107790856152"><ele>381.0</ele><time>2026-05-01T08:27:38Z</time></trkpt><trkpt lat="45.10801952216242" lon="7.278855259084531"><ele>381.0</ele><time>2026-05-01T08:27:39Z</time></trkpt><trkpt lat="45.10805981943125" lon="7.278612877988523"><ele>381.0</ele><time>2026-05-01T08:27:40Z</time></trkpt><trkpt lat="45.10810279470945" lon="7.2783893877331645"><ele>381.0</ele><time>2026-05-01T08:27:41Z</time></trkpt><trkpt lat="45.108166442271056" lon="7.278150447248524"><ele>381.3333333333333</ele><time>2026-05-01T08:27:42Z</time></trkpt><trkpt lat="45.10823452403292" lon="7.277934453001711"><ele>381.66666666666663</ele><time>2026-05-01T08:27:43Z</time></trkpt><trkpt lat="45.108294741620966" lon="7.277717822507892"><ele>382.0</ele><time>2026-05-01T08:27:44Z</time></trkpt><trkpt lat="45.108356965096256" lon="7.277475639669408"><ele>382.3333333333333</ele><time>2026-05-01T08:27:45Z</time></trkpt><trkpt lat="45.10841718211731" lon="7.277261846434587"><ele>382.6666666666667</ele><time>2026-05-01T08:27:46Z</time></trkpt><trkpt lat="45.10847370609467" lon="7.27700741469855"><ele>383.0</ele><time>2026-05-01T08:27:47Z</time></trkpt><trkpt lat="45.10851211512286" lon="7.276767026016938"><ele>383.0</ele><time>2026-05-01T08:27:48Z</time></trkpt><trkpt lat="45.10854198091234" lon="7.276526630699871"><ele>383.0</ele><time>2026-05-01T08:27:49Z</time></trkpt><trkpt lat="45.10856700908887" lon="7.276302747068921"><ele>383.0</ele><time>2026-05-01T08:27:50Z</time></trkpt><trkpt lat="45.108574965172714" lon="7.276058807429755"><ele>383.6666666666667</ele><time>2026-05-01T08:27:51Z</time></trkpt><trkpt lat="45.10858672252577" lon="7.275812407157485"><ele>384.33333333333337</ele><time>2026-05-01T08:27:52Z</time></trkpt><trkpt lat="45.108604778516735" lon="7.275575633581993"><ele>385.0</ele><time>2026-05-01T08:27:53Z</time></trkpt><trkpt lat="45.10861372088306" lon="7.275315443456901"><ele>385.0</ele><time>2026-05-01T08:27:54Z</time></trkpt><trkpt lat="45.10863994769743" lon="7.275085916237138"><ele>385.0</ele><time>2026-05-01T08:27:55Z</time></trkpt><trkpt lat="45.108648345461084" lon="7.274829157688901"><ele>385.0</ele><time>2026-05-01T08:27:56Z</time></trkpt><trkpt lat="45.108661453723265" lon="7.27459651797963"><ele>384.6666666666667</ele><time>2026-05-01T08:27:57Z</time></trkpt><trkpt lat="45.10866884041723" lon="7.274334644425323"><ele>384.33333333333337</ele><time>2026-05-01T08:27:58Z</time></trkpt><trkpt lat="45.108680118299404" lon="7.274086302851917"><ele>384.0</ele><time>2026-05-01T08:27:59Z</time></trkpt><trkpt lat="45.108692132168805" lon="7.273831835794711"><ele>383.6666666666667</ele><time>2026-05-01T08:28:00Z</time></trkpt><trkpt lat="45.10868352934298" lon="7.273573939838059"><ele>383.33333333333337</ele><time>2026-05-01T08:28:01Z</time></trkpt><trkpt lat="45.108661407760955" lon="7.273290527749851"><ele>383.0</ele><time>2026-05-01T08:28:02Z</time></trkpt><trkpt lat="45.10862523349949" lon="7.273018582206124"><ele>383.0</ele><time>2026-05-01T08:28:03Z</time></trkpt><trkpt lat="45.108574937318345" lon="7.272752716986988"><ele>383.0</ele><time>2026-05-01T08:28:04Z</time></trkpt><trkpt lat="45.10852965900233" lon="7.272495527860648"><ele>383.0</ele><time>2026-05-01T08:28:05Z</time></trkpt><trkpt lat="45.108496676032644" lon="7.272223893882578"><ele>383.6666666666667</ele><time>2026-05-01T08:28:06Z</time></trkpt><trkpt lat="45.10847060008244" lon="7.271987486720003"><ele>384.33333333333337</ele><time>2026-05-01T08:28:07Z</time></trkpt><trkpt lat="45.10844526980233" lon="7.2717502353257455"><ele>385.0</ele><time>2026-05-01T08:28:08Z</time></trkpt><trkpt lat="45.108402001521284" lon="7.2715162108430125"><ele>384.33333333333337</ele><time>2026-05-01T08:28:09Z</time></trkpt><trkpt lat="45.10837119122603" lon="7.271275651844832"><ele>383.6666666666667</ele><time>2026-05-01T08:28:10Z</time></trkpt><trkpt lat="45.10834623246914" lon="7.271058568645025"><ele>383.0</ele><time>2026-05-01T08:28:11Z</time></trkpt><trkpt lat="45.108313307547725" lon="7.27084405717187"><ele>383.0</ele><time>2026-05-01T08:28:12Z</time></trkpt><trkpt lat="45.108283518751605" lon="7.270635899228738"><ele>383.0</ele><time>2026-05-01T08:28:13Z</time></trkpt><trkpt lat="45.108257996974736" lon="7.270420660668673"><ele>383.0</ele><time>2026-05-01T08:28:14Z</time></trkpt><trkpt lat="45.108239900023385" lon="7.270233179809028"><ele>383.0</ele><time>2026-05-01T08:28:15Z</time></trkpt><trkpt lat="45.10820502427184" lon="7.270012160415255"><ele>383.33333333333337</ele><time>2026-05-01T08:28:16Z</time></trkpt><trkpt lat="45.108174833425736" lon="7.269776831662811"><ele>383.6666666666667</ele><time>2026-05-01T08:28:17Z</time></trkpt><trkpt lat="45.10814182040186" lon="7.269538201607581"><ele>384.0</ele><time>2026-05-01T08:28:18Z</time></trkpt><trkpt lat="45.1081052787771" lon="7.269293147998175"><ele>384.0</ele><time>2026-05-01T08:28:19Z</time></trkpt><trkpt lat="45.10807320897985" lon="7.269023149210606"><ele>384.0</ele><time>2026-05-01T08:28:20Z</time></trkpt><trkpt lat="45.10803055625097" lon="7.268742604548834"><ele>384.0</ele><time>2026-05-01T08:28:21Z</time></trkpt><trkpt lat="45.10799364816564" lon="7.268472876096112"><ele>383.6666666666667</ele><time>2026-05-01T08:28:22Z</time></trkpt><trkpt lat="45.107968839566354" lon="7.268203674839701"><ele>383.33333333333337</ele><time>2026-05-01T08:28:23Z</time></trkpt><trkpt lat="45.10793325843789" lon="7.267913384334897"><ele>383.0</ele><time>2026-05-01T08:28:24Z</time></trkpt><trkpt lat="45.107901345487846" lon="7.267635460811441"><ele>383.0</ele><time>2026-05-01T08:28:25Z</time></trkpt><trkpt lat="45.1078545913375" lon="7.26734053742893"><ele>383.0</ele><time>2026-05-01T08:28:26Z</time></trkpt><trkpt lat="45.1078180412358" lon="7.267072645807899"><ele>383.0</ele><time>2026-05-01T08:28:27Z</time></trkpt><trkpt lat="45.10777242886587" lon="7.266797377155778"><ele>383.0</ele><time>2026-05-01T08:28:28Z</time></trkpt><trkpt lat="45.10774268112334" lon="7.266535033996585"><ele>383.0</ele><time>2026-05-01T08:28:29Z</time></trkpt><trkpt lat="45.107704450207045" lon="7.266257383542321"><ele>383.0</ele><time>2026-05-01T08:28:30Z</time></trkpt><trkpt lat="45.10765806031179" lon="7.265972223623717"><ele>382.6666666666667</ele><time>2026-05-01T08:28:31Z</time></trkpt><trkpt lat="45.10762866626964" lon="7.2657044789398"><ele>382.3333333333333</ele><time>2026-05-01T08:28:32Z</time></trkpt><trkpt lat="45.107592654676075" lon="7.265456643373322"><ele>382.0</ele><time>2026-05-01T08:28:33Z</time></trkpt><trkpt lat="45.10756228644325" lon="7.265203287605306"><ele>382.66666666666663</ele><time>2026-05-01T08:28:34Z</time></trkpt><trkpt lat="45.10751605232744" lon="7.264974588896539"><ele>383.3333333333333</ele><time>2026-05-01T08:28:35Z</time></trkpt><trkpt lat="45.107477413997884" lon="7.2647512089636885"><ele>384.0</ele><time>2026-05-01T08:28:36Z</time></trkpt><trkpt lat="45.107445830261526" lon="7.264520999885025"><ele>384.25</ele><time>2026-05-01T08:28:37Z</time></trkpt><trkpt lat="45.10742298598365" lon="7.264352603270489"><ele>384.5</ele><time>2026-05-01T08:28:38Z</time></trkpt><trkpt lat="45.10739738895856" lon="7.264172485379512"><ele>384.75</ele><time>2026-05-01T08:28:39Z</time></trkpt><trkpt lat="45.10738033878158" lon="7.26400999666635"><ele>385.0</ele><time>2026-05-01T08:28:39.999Z</time></trkpt><trkpt lat="45.1073776295291" lon="7.263866608394261"><ele>385.4</ele><time>2026-05-01T08:28:40.999Z</time></trkpt><trkpt lat="45.10733962488099" lon="7.263756412839297"><ele>385.8</ele><time>2026-05-01T08:28:41.999Z</time></trkpt><trkpt lat="45.10733077626142" lon="7.263639055685477"><ele>386.20000000000005</ele><time>2026-05-01T08:28:42.999Z</time></trkpt><trkpt lat="45.10729683999551" lon="7.263509092923225"><ele>386.6</ele><time>2026-05-01T08:28:44.999Z</time></trkpt><trkpt lat="45.107288992014254" lon="7.263376101360329"><ele>387.0</ele><time>2026-05-01T08:28:46.999Z</time></trkpt><trkpt lat="45.10728132754993" lon="7.263244811753045"><ele>387.0</ele><time>2026-05-01T08:28:48.999Z</time></trkpt><trkpt lat="45.10728115238899" lon="7.263153945269494"><ele>387.0</ele><time>2026-05-01T08:28:49.999Z</time></trkpt><trkpt lat="45.107317962825164" lon="7.2629630606517654"><ele>387.0</ele><time>2026-05-01T08:28:51.999Z</time></trkpt><trkpt lat="45.10735052732438" lon="7.26286595687085"><ele>387.0</ele><time>2026-05-01T08:28:52.999Z</time></trkpt><trkpt lat="45.107385050478456" lon="7.2627606689220086"><ele>387.0</ele><time>2026-05-01T08:28:53.999Z</time></trkpt><trkpt lat="45.107395288328576" lon="7.262617209487175"><ele>386.5</ele><time>2026-05-01T08:28:54.999Z</time></trkpt><trkpt lat="45.10740394073829" lon="7.2624641726867525"><ele>386.0</ele><time>2026-05-01T08:28:55.999Z</time></trkpt><trkpt lat="45.10743209425559" lon="7.262277023976631"><ele>385.5</ele><time>2026-05-01T08:28:56.999Z</time></trkpt><trkpt lat="45.10748319941997" lon="7.262139483897746"><ele>385.0</ele><time>2026-05-01T08:28:57.999Z</time></trkpt><trkpt lat="45.10755326654638" lon="7.261940536133786"><ele>385.0</ele><time>2026-05-01T08:28:58.999Z</time></trkpt><trkpt lat="45.107594334548054" lon="7.2617642723527025"><ele>385.0</ele><time>2026-05-01T08:28:59.999Z</time></trkpt><trkpt lat="45.10766368906549" lon="7.261595037483929"><ele>385.0</ele><time>2026-05-01T08:29:00.999Z</time></trkpt><trkpt lat="45.10772723589744" lon="7.261415133692018"><ele>385.0</ele><time>2026-05-01T08:29:01.999Z</time></trkpt><trkpt lat="45.10778474509349" lon="7.261244418862164"><ele>385.25</ele><time>2026-05-01T08:29:02.999Z</time></trkpt><trkpt lat="45.10784201593192" lon="7.2610952012694145"><ele>385.5</ele><time>2026-05-01T08:29:03.999Z</time></trkpt><trkpt lat="45.10790531921652" lon="7.260935934890503"><ele>385.75</ele><time>2026-05-01T08:29:04.999Z</time></trkpt><trkpt lat="45.10795039432935" lon="7.260781380481239"><ele>386.0</ele><time>2026-05-01T08:29:05.999Z</time></trkpt><trkpt lat="45.10800926194669" lon="7.260645190944819"><ele>386.0</ele><time>2026-05-01T08:29:06.999Z</time></trkpt><trkpt lat="45.10807049950185" lon="7.260495220132946"><ele>386.0</ele><time>2026-05-01T08:29:07.999Z</time></trkpt><trkpt lat="45.10812428253761" lon="7.260357571403201"><ele>386.0</ele><time>2026-05-01T08:29:08.999Z</time></trkpt><trkpt lat="45.108167286007664" lon="7.260202746313774"><ele>386.0</ele><time>2026-05-01T08:29:09.999Z</time></trkpt><trkpt lat="45.10821554252515" lon="7.260044755560041"><ele>386.0</ele><time>2026-05-01T08:29:10.999Z</time></trkpt><trkpt lat="45.10827054207541" lon="7.259868571074102"><ele>386.0</ele><time>2026-05-01T08:29:11.999Z</time></trkpt><trkpt lat="45.10832953136985" lon="7.259726980988726"><ele>386.0</ele><time>2026-05-01T08:29:12.999Z</time></trkpt><trkpt lat="45.10838015972705" lon="7.259577382662659"><ele>386.0</ele><time>2026-05-01T08:29:13.999Z</time></trkpt><trkpt lat="45.10843433898483" lon="7.259436110323701"><ele>386.0</ele><time>2026-05-01T08:29:14.999Z</time></trkpt><trkpt lat="45.108480960788725" lon="7.259299817451809"><ele>386.0</ele><time>2026-05-01T08:29:15.999Z</time></trkpt><trkpt lat="45.108538375810866" lon="7.259166788798273"><ele>386.0</ele><time>2026-05-01T08:29:16.999Z</time></trkpt><trkpt lat="45.10858558200423" lon="7.259023293242396"><ele>386.0</ele><time>2026-05-01T08:29:17.999Z</time></trkpt><trkpt lat="45.10863080588634" lon="7.258894015079524"><ele>386.0</ele><time>2026-05-01T08:29:18.999Z</time></trkpt><trkpt lat="45.10868632383596" lon="7.2587641341188"><ele>386.20000000000005</ele><time>2026-05-01T08:29:19.999Z</time></trkpt><trkpt lat="45.10873468885895" lon="7.258608905750174"><ele>386.40000000000003</ele><time>2026-05-01T08:29:20.999Z</time></trkpt><trkpt lat="45.108784886508275" lon="7.258487525577931"><ele>386.6</ele><time>2026-05-01T08:29:21.999Z</time></trkpt><trkpt lat="45.108857645748344" lon="7.258339800925237"><ele>386.8</ele><time>2026-05-01T08:29:22.999Z</time></trkpt><trkpt lat="45.10889978499465" lon="7.258206852959805"><ele>387.0</ele><time>2026-05-01T08:29:23.999Z</time></trkpt><trkpt lat="45.108939054349484" lon="7.258057292703717"><ele>386.5</ele><time>2026-05-01T08:29:24.999Z</time></trkpt><trkpt lat="45.10899132344891" lon="7.25790416161365"><ele>386.0</ele><time>2026-05-01T08:29:25.999Z</time></trkpt><trkpt lat="45.10901947367892" lon="7.257739914788756"><ele>385.5</ele><time>2026-05-01T08:29:26.999Z</time></trkpt><trkpt lat="45.10908179552198" lon="7.257594674980557"><ele>385.0</ele><time>2026-05-01T08:29:27.999Z</time></trkpt><trkpt lat="45.10911553019013" lon="7.25746779549964"><ele>385.5</ele><time>2026-05-01T08:29:28.999Z</time></trkpt><trkpt lat="45.10916180725425" lon="7.257322435838258"><ele>386.0</ele><time>2026-05-01T08:29:29.999Z</time></trkpt><trkpt lat="45.10920328738405" lon="7.257167225044482"><ele>386.5</ele><time>2026-05-01T08:29:30.999Z</time></trkpt><trkpt lat="45.10925676085774" lon="7.257026574064171"><ele>387.0</ele><time>2026-05-01T08:29:31.999Z</time></trkpt><trkpt lat="45.10930750362859" lon="7.256860846429653"><ele>387.0</ele><time>2026-05-01T08:29:33Z</time></trkpt><trkpt lat="45.109352349578515" lon="7.256710573111657"><ele>387.0</ele><time>2026-05-01T08:29:34Z</time></trkpt><trkpt lat="45.10939710826821" lon="7.256544821125223"><ele>387.0</ele><time>2026-05-01T08:29:35Z</time></trkpt><trkpt lat="45.10945405582185" lon="7.256389856056163"><ele>387.0</ele><time>2026-05-01T08:29:36Z</time></trkpt><trkpt lat="45.1095090199377" lon="7.2562274479624"><ele>387.0</ele><time>2026-05-01T08:29:37Z</time></trkpt><trkpt lat="45.10956599344515" lon="7.256066748047698"><ele>387.0</ele><time>2026-05-01T08:29:38Z</time></trkpt><trkpt lat="45.10961889383102" lon="7.255908478960221"><ele>387.0</ele><time>2026-05-01T08:29:39Z</time></trkpt><trkpt lat="45.10966975296858" lon="7.255713590058783"><ele>387.0</ele><time>2026-05-01T08:29:40Z</time></trkpt><trkpt lat="45.109724216091465" lon="7.255545632129477"><ele>386.75</ele><time>2026-05-01T08:29:41Z</time></trkpt><trkpt lat="45.109777975563354" lon="7.255370312223416"><ele>386.5</ele><time>2026-05-01T08:29:42Z</time></trkpt><trkpt lat="45.10983603141171" lon="7.255213697839442"><ele>386.25</ele><time>2026-05-01T08:29:43Z</time></trkpt><trkpt lat="45.10988916746966" lon="7.255049261966183"><ele>386.0</ele><time>2026-05-01T08:29:44Z</time></trkpt><trkpt lat="45.109944911101145" lon="7.25489509098529"><ele>385.75</ele><time>2026-05-01T08:29:45Z</time></trkpt><trkpt lat="45.110034194137086" lon="7.254739290644987"><ele>385.5</ele><time>2026-05-01T08:29:46Z</time></trkpt><trkpt lat="45.11008320966367" lon="7.254578337791056"><ele>385.25</ele><time>2026-05-01T08:29:47Z</time></trkpt><trkpt lat="45.11013383255458" lon="7.254413344107413"><ele>385.0</ele><time>2026-05-01T08:29:48Z</time></trkpt><trkpt lat="45.11018897071476" lon="7.254237737568298"><ele>385.0</ele><time>2026-05-01T08:29:49Z</time></trkpt><trkpt lat="45.11024242380139" lon="7.254057779582149"><ele>385.0</ele><time>2026-05-01T08:29:50Z</time></trkpt><trkpt lat="45.11030514857445" lon="7.253890089342543"><ele>385.0</ele><time>2026-05-01T08:29:51Z</time></trkpt><trkpt lat="45.110363088576264" lon="7.253730652477022"><ele>385.0</ele><time>2026-05-01T08:29:52Z</time></trkpt><trkpt lat="45.11042587328781" lon="7.253568387288338"><ele>385.25</ele><time>2026-05-01T08:29:53Z</time></trkpt><trkpt lat="45.11049387223859" lon="7.253419811595134"><ele>385.5</ele><time>2026-05-01T08:29:54Z</time></trkpt><trkpt lat="45.11054133417693" lon="7.2532349349945395"><ele>385.75</ele><time>2026-05-01T08:29:55Z</time></trkpt><trkpt lat="45.11058875483479" lon="7.253049133506283"><ele>386.0</ele><time>2026-05-01T08:29:56Z</time></trkpt><trkpt lat="45.110642831182176" lon="7.252874530261347"><ele>386.0</ele><time>2026-05-01T08:29:57Z</time></trkpt><trkpt lat="45.11069955953129" lon="7.252706588585211"><ele>386.0</ele><time>2026-05-01T08:29:58Z</time></trkpt><trkpt lat="45.11076072963392" lon="7.252545048787622"><ele>386.0</ele><time>2026-05-01T08:29:59Z</time></trkpt><trkpt lat="45.110823672179315" lon="7.252382392262276"><ele>386.0</ele><time>2026-05-01T08:30:00Z</time></trkpt><trkpt lat="45.11087554901178" lon="7.2522166752954895"><ele>386.25</ele><time>2026-05-01T08:30:01Z</time></trkpt><trkpt lat="45.11094432123351" lon="7.252028141110768"><ele>386.5</ele><time>2026-05-01T08:30:02Z</time></trkpt><trkpt lat="45.1109980831621" lon="7.25184556048697"><ele>386.75</ele><time>2026-05-01T08:30:03Z</time></trkpt><trkpt lat="45.11105671127516" lon="7.2516751898096325"><ele>387.0</ele><time>2026-05-01T08:30:04Z</time></trkpt><trkpt lat="45.111126064527376" lon="7.2515128167650555"><ele>387.0</ele><time>2026-05-01T08:30:05Z</time></trkpt><trkpt lat="45.11118879033352" lon="7.251334448981467"><ele>387.0</ele><time>2026-05-01T08:30:06Z</time></trkpt><trkpt lat="45.11124421402145" lon="7.251175125046587"><ele>387.0</ele><time>2026-05-01T08:30:07Z</time></trkpt><trkpt lat="45.11130283766146" lon="7.251004833016056"><ele>387.0</ele><time>2026-05-01T08:30:08Z</time></trkpt><trkpt lat="45.1113660528988" lon="7.250838930983761"><ele>387.0</ele><time>2026-05-01T08:30:09Z</time></trkpt><trkpt lat="45.11141661581085" lon="7.250650540823295"><ele>387.0</ele><time>2026-05-01T08:30:10Z</time></trkpt><trkpt lat="45.11147505303082" lon="7.250455993995398"><ele>387.0</ele><time>2026-05-01T08:30:11Z</time></trkpt><trkpt lat="45.11155576683953" lon="7.250270331682278"><ele>387.0</ele><time>2026-05-01T08:30:12Z</time></trkpt><trkpt lat="45.111623840036565" lon="7.25005784306099"><ele>387.33333333333337</ele><time>2026-05-01T08:30:13Z</time></trkpt><trkpt lat="45.111699058964135" lon="7.249839706075215"><ele>387.6666666666667</ele><time>2026-05-01T08:30:14Z</time></trkpt><trkpt lat="45.11176846386884" lon="7.249613574520858"><ele>388.0</ele><time>2026-05-01T08:30:15Z</time></trkpt><trkpt lat="45.11184412946706" lon="7.2493970694820735"><ele>388.0</ele><time>2026-05-01T08:30:16Z</time></trkpt><trkpt lat="45.1119143510973" lon="7.249168819247516"><ele>388.0</ele><time>2026-05-01T08:30:17Z</time></trkpt><trkpt lat="45.11197726830045" lon="7.248930166235412"><ele>388.0</ele><time>2026-05-01T08:30:18Z</time></trkpt><trkpt lat="45.112055628027115" lon="7.248735863188065"><ele>388.0</ele><time>2026-05-01T08:30:19Z</time></trkpt><trkpt lat="45.11211701668605" lon="7.248507523253353"><ele>388.0</ele><time>2026-05-01T08:30:20Z</time></trkpt><trkpt lat="45.112191687291265" lon="7.248294957689374"><ele>388.0</ele><time>2026-05-01T08:30:21Z</time></trkpt><trkpt lat="45.112279757918415" lon="7.2480691151013765"><ele>388.6666666666667</ele><time>2026-05-01T08:30:22Z</time></trkpt><trkpt lat="45.112363517071884" lon="7.247820989599691"><ele>389.33333333333337</ele><time>2026-05-01T08:30:23Z</time></trkpt><trkpt lat="45.11245570371936" lon="7.247603099409179"><ele>390.0</ele><time>2026-05-01T08:30:24Z</time></trkpt><trkpt lat="45.11253998483042" lon="7.247373785682094"><ele>390.0</ele><time>2026-05-01T08:30:25Z</time></trkpt><trkpt lat="45.112617877688244" lon="7.247142785622025"><ele>390.0</ele><time>2026-05-01T08:30:26Z</time></trkpt><trkpt lat="45.112695463445526" lon="7.2469038779184345"><ele>390.0</ele><time>2026-05-01T08:30:27Z</time></trkpt><trkpt lat="45.11277669180927" lon="7.246682657911259"><ele>390.0</ele><time>2026-05-01T08:30:28Z</time></trkpt><trkpt lat="45.11285371868939" lon="7.246474155595134"><ele>390.0</ele><time>2026-05-01T08:30:29Z</time></trkpt><trkpt lat="45.11292506071914" lon="7.246272159588527"><ele>390.0</ele><time>2026-05-01T08:30:30Z</time></trkpt><trkpt lat="45.1129894627269" lon="7.246079102478093"><ele>390.0</ele><time>2026-05-01T08:30:31Z</time></trkpt><trkpt lat="45.11305055186073" lon="7.245898191080269"><ele>390.0</ele><time>2026-05-01T08:30:32Z</time></trkpt><trkpt lat="45.11310678785203" lon="7.245715796478903"><ele>390.0</ele><time>2026-05-01T08:30:33Z</time></trkpt><trkpt lat="45.113171154035406" lon="7.245560991284872"><ele>390.0</ele><time>2026-05-01T08:30:34Z</time></trkpt><trkpt lat="45.11322917013777" lon="7.2454583832871915"><ele>390.25</ele><time>2026-05-01T08:30:35Z</time></trkpt><trkpt lat="45.11327865714404" lon="7.245327177730293"><ele>390.5</ele><time>2026-05-01T08:30:36Z</time></trkpt><trkpt lat="45.11333013989662" lon="7.245160804496108"><ele>390.75</ele><time>2026-05-01T08:30:37Z</time></trkpt><trkpt lat="45.113386745023845" lon="7.244989306099372"><ele>391.0</ele><time>2026-05-01T08:30:38Z</time></trkpt><trkpt lat="45.113444913718936" lon="7.244794379378254"><ele>391.0</ele><time>2026-05-01T08:30:39Z</time></trkpt><trkpt lat="45.11352995971846" lon="7.24457452991549"><ele>391.0</ele><time>2026-05-01T08:30:39.999Z</time></trkpt><trkpt lat="45.11359410266632" lon="7.244354895169888"><ele>391.0</ele><time>2026-05-01T08:30:40.999Z</time></trkpt><trkpt lat="45.1136779656973" lon="7.244127200498434"><ele>390.6666666666667</ele><time>2026-05-01T08:30:41.999Z</time></trkpt><trkpt lat="45.11374896468236" lon="7.2439071684950385"><ele>390.33333333333337</ele><time>2026-05-01T08:30:42.999Z</time></trkpt><trkpt lat="45.113814568922145" lon="7.243649774531721"><ele>390.0</ele><time>2026-05-01T08:30:43.999Z</time></trkpt><trkpt lat="45.113897591390746" lon="7.243428763215301"><ele>390.0</ele><time>2026-05-01T08:30:44.999Z</time></trkpt><trkpt lat="45.11397208099833" lon="7.243233121787733"><ele>390.0</ele><time>2026-05-01T08:30:45.999Z</time></trkpt><trkpt lat="45.11404005331538" lon="7.243039640621931"><ele>390.0</ele><time>2026-05-01T08:30:46.999Z</time></trkpt><trkpt lat="45.11411318710983" lon="7.2428527661846385"><ele>390.25</ele><time>2026-05-01T08:30:47.999Z</time></trkpt><trkpt lat="45.11418303736214" lon="7.242681773360866"><ele>390.5</ele><time>2026-05-01T08:30:48.999Z</time></trkpt><trkpt lat="45.11423678790555" lon="7.24250582292269"><ele>390.75</ele><time>2026-05-01T08:30:49.999Z</time></trkpt><trkpt lat="45.11429324736441" lon="7.242311402507198"><ele>391.0</ele><time>2026-05-01T08:30:50.999Z</time></trkpt><trkpt lat="45.11435448334009" lon="7.2421258984686965"><ele>391.25</ele><time>2026-05-01T08:30:51.999Z</time></trkpt><trkpt lat="45.11441130007292" lon="7.241941743474857"><ele>391.5</ele><time>2026-05-01T08:30:52.999Z</time></trkpt><trkpt lat="45.11446538375675" lon="7.241753253610859"><ele>391.75</ele><time>2026-05-01T08:30:53.999Z</time></trkpt><trkpt lat="45.1145326203587" lon="7.241570239035862"><ele>392.0</ele><time>2026-05-01T08:30:54.999Z</time></trkpt><trkpt lat="45.11459259687953" lon="7.241386113829997"><ele>392.75</ele><time>2026-05-01T08:30:55.999Z</time></trkpt><trkpt lat="45.114650692638094" lon="7.241207077347868"><ele>393.5</ele><time>2026-05-01T08:30:56.999Z</time></trkpt><trkpt lat="45.114717263139774" lon="7.241021756909638"><ele>394.25</ele><time>2026-05-01T08:30:57.999Z</time></trkpt><trkpt lat="45.11479500117568" lon="7.24085130277744"><ele>395.0</ele><time>2026-05-01T08:30:58.999Z</time></trkpt><trkpt lat="45.11486788516325" lon="7.240683161788244"><ele>394.75</ele><time>2026-05-01T08:30:59.999Z</time></trkpt><trkpt lat="45.11494924787028" lon="7.24051569283773"><ele>394.5</ele><time>2026-05-01T08:31:00.999Z</time></trkpt><trkpt lat="45.11503285150328" lon="7.2403588144687525"><ele>394.25</ele><time>2026-05-01T08:31:01.999Z</time></trkpt><trkpt lat="45.11510645766038" lon="7.24020313884321"><ele>394.0</ele><time>2026-05-01T08:31:02.999Z</time></trkpt><trkpt lat="45.115188543503756" lon="7.240055213604918"><ele>394.0</ele><time>2026-05-01T08:31:03.999Z</time></trkpt><trkpt lat="45.11526881207529" lon="7.239917327701404"><ele>394.0</ele><time>2026-05-01T08:31:04.999Z</time></trkpt><trkpt lat="45.11535354557865" lon="7.239777153333793"><ele>394.0</ele><time>2026-05-01T08:31:05.999Z</time></trkpt><trkpt lat="45.11543625970747" lon="7.239637771020646"><ele>394.0</ele><time>2026-05-01T08:31:06.999Z</time></trkpt><trkpt lat="45.115522072130055" lon="7.239522209093969"><ele>394.0</ele><time>2026-05-01T08:31:07.999Z</time></trkpt><trkpt lat="45.11559801219746" lon="7.239402928774209"><ele>394.0</ele><time>2026-05-01T08:31:08.999Z</time></trkpt><trkpt lat="45.115669666090305" lon="7.239285902278727"><ele>394.0</ele><time>2026-05-01T08:31:09.999Z</time></trkpt><trkpt lat="45.11574175891848" lon="7.239188627958234"><ele>394.0</ele><time>2026-05-01T08:31:10.999Z</time></trkpt><trkpt lat="45.1158031988083" lon="7.2390777578080625"><ele>394.0</ele><time>2026-05-01T08:31:11.999Z</time></trkpt><trkpt lat="45.115868999110646" lon="7.238970875353899"><ele>394.1666666666667</ele><time>2026-05-01T08:31:12.999Z</time></trkpt><trkpt lat="45.11593337348731" lon="7.238877640705236"><ele>394.33333333333337</ele><time>2026-05-01T08:31:13.999Z</time></trkpt><trkpt lat="45.116000583457165" lon="7.2388062597610645"><ele>394.5</ele><time>2026-05-01T08:31:14.999Z</time></trkpt><trkpt lat="45.116049433945264" lon="7.2387469518947505"><ele>394.66666666666663</ele><time>2026-05-01T08:31:15.999Z</time></trkpt><trkpt lat="45.116108511052715" lon="7.2386640371848365"><ele>394.8333333333333</ele><time>2026-05-01T08:31:19.999Z</time></trkpt><trkpt lat="45.11616937481013" lon="7.238609817642816"><ele>395.0</ele><time>2026-05-01T08:31:21.999Z</time></trkpt><trkpt lat="45.11626739360346" lon="7.238574491860147"><ele>394.99999999999994</ele><time>2026-05-01T08:31:23.999Z</time></trkpt><trkpt lat="45.116337473700746" lon="7.238567821387204"><ele>395.0</ele><time>2026-05-01T08:31:24.999Z</time></trkpt><trkpt lat="45.1164738633962" lon="7.238486683781135"><ele>395.0</ele><time>2026-05-01T08:31:26.999Z</time></trkpt><trkpt lat="45.11652454326318" lon="7.238407923264477"><ele>395.0</ele><time>2026-05-01T08:31:27.999Z</time></trkpt><trkpt lat="45.116557332338225" lon="7.238322952298859"><ele>394.99999999999994</ele><time>2026-05-01T08:31:28.999Z</time></trkpt><trkpt lat="45.11656616390991" lon="7.238233906062936"><ele>395.0</ele><time>2026-05-01T08:31:29.999Z</time></trkpt><trkpt lat="45.116551969998106" lon="7.238122542529246"><ele>395.0</ele><time>2026-05-01T08:31:30.999Z</time></trkpt><trkpt lat="45.116526194758755" lon="7.238027931714475"><ele>395.0</ele><time>2026-05-01T08:31:31.999Z</time></trkpt><trkpt lat="45.11650368957692" lon="7.237935844558694"><ele>395.0</ele><time>2026-05-01T08:31:32.999Z</time></trkpt><trkpt lat="45.116594502882684" lon="7.237724556704359"><ele>395.0</ele><time>2026-05-01T08:31:34.999Z</time></trkpt><trkpt lat="45.116653102637166" lon="7.23762390196826"><ele>395.0</ele><time>2026-05-01T08:31:35.999Z</time></trkpt><trkpt lat="45.11671269761819" lon="7.237529988421226"><ele>395.0</ele><time>2026-05-01T08:31:36.999Z</time></trkpt><trkpt lat="45.116774784520224" lon="7.237438970904678"><ele>395.0</ele><time>2026-05-01T08:31:37.999Z</time></trkpt><trkpt lat="45.116833834667766" lon="7.237334805552912"><ele>395.0</ele><time>2026-05-01T08:31:39Z</time></trkpt><trkpt lat="45.11690417514688" lon="7.23720425172875"><ele>395.0</ele><time>2026-05-01T08:31:40Z</time></trkpt><trkpt lat="45.11697821591982" lon="7.2370951332485"><ele>395.0</ele><time>2026-05-01T08:31:41Z</time></trkpt><trkpt lat="45.11705272823574" lon="7.236974081838031"><ele>395.25</ele><time>2026-05-01T08:31:42Z</time></trkpt><trkpt lat="45.117137529664994" lon="7.2368517007990425"><ele>395.5</ele><time>2026-05-01T08:31:43Z</time></trkpt><trkpt lat="45.11721462855314" lon="7.236706294023096"><ele>395.75</ele><time>2026-05-01T08:31:44Z</time></trkpt><trkpt lat="45.11730464488225" lon="7.236582730099717"><ele>396.0</ele><time>2026-05-01T08:31:45Z</time></trkpt><trkpt lat="45.11738450001495" lon="7.236445208573292"><ele>396.25</ele><time>2026-05-01T08:31:46Z</time></trkpt><trkpt lat="45.11747064106736" lon="7.2363159329413955"><ele>396.5</ele><time>2026-05-01T08:31:47Z</time></trkpt><trkpt lat="45.11756022974599" lon="7.236184698228422"><ele>396.75</ele><time>2026-05-01T08:31:48Z</time></trkpt><trkpt lat="45.11764602135385" lon="7.236041918000742"><ele>397.0</ele><time>2026-05-01T08:31:49Z</time></trkpt><trkpt lat="45.11773201149289" lon="7.235911507743387"><ele>397.0</ele><time>2026-05-01T08:31:50Z</time></trkpt><trkpt lat="45.11781807474106" lon="7.235775322408125"><ele>397.0</ele><time>2026-05-01T08:31:51Z</time></trkpt><trkpt lat="45.117910402265544" lon="7.235665431048323"><ele>397.0</ele><time>2026-05-01T08:31:52Z</time></trkpt><trkpt lat="45.11799183075412" lon="7.235552102720791"><ele>397.0</ele><time>2026-05-01T08:31:53Z</time></trkpt><trkpt lat="45.118073449163504" lon="7.23541989750782"><ele>397.5</ele><time>2026-05-01T08:31:54Z</time></trkpt><trkpt lat="45.11815102045411" lon="7.23528118173533"><ele>398.0</ele><time>2026-05-01T08:31:55Z</time></trkpt><trkpt lat="45.11824984702272" lon="7.235140212073054"><ele>398.5</ele><time>2026-05-01T08:31:56Z</time></trkpt><trkpt lat="45.11833644763826" lon="7.234993809675961"><ele>399.0</ele><time>2026-05-01T08:31:57Z</time></trkpt><trkpt lat="45.11843018269555" lon="7.234829946422114"><ele>398.75</ele><time>2026-05-01T08:31:58Z</time></trkpt><trkpt lat="45.11851829141466" lon="7.234663036473433"><ele>398.5</ele><time>2026-05-01T08:31:59Z</time></trkpt><trkpt lat="45.11859882890627" lon="7.234499107719362"><ele>398.25</ele><time>2026-05-01T08:32:00Z</time></trkpt><trkpt lat="45.118655201145806" lon="7.234309000613252"><ele>398.0</ele><time>2026-05-01T08:32:01Z</time></trkpt><trkpt lat="45.118706955397016" lon="7.234130594189675"><ele>398.0</ele><time>2026-05-01T08:32:02Z</time></trkpt><trkpt lat="45.11877488905237" lon="7.233972475418886"><ele>398.0</ele><time>2026-05-01T08:32:03Z</time></trkpt><trkpt lat="45.118817809591505" lon="7.23379832768307"><ele>398.0</ele><time>2026-05-01T08:32:04Z</time></trkpt><trkpt lat="45.11886701993894" lon="7.23363739244932"><ele>398.0</ele><time>2026-05-01T08:32:05Z</time></trkpt><trkpt lat="45.11891906133036" lon="7.233478690017976"><ele>398.75</ele><time>2026-05-01T08:32:06Z</time></trkpt><trkpt lat="45.11896264850559" lon="7.233319026497731"><ele>399.5</ele><time>2026-05-01T08:32:07Z</time></trkpt><trkpt lat="45.119008089170244" lon="7.233168159006921"><ele>400.25</ele><time>2026-05-01T08:32:08Z</time></trkpt><trkpt lat="45.119062773399165" lon="7.233012182897012"><ele>401.0</ele><time>2026-05-01T08:32:09Z</time></trkpt><trkpt lat="45.119110633338245" lon="7.232837841076315"><ele>401.0</ele><time>2026-05-01T08:32:10Z</time></trkpt><trkpt lat="45.11916160055836" lon="7.232683782340316"><ele>401.0</ele><time>2026-05-01T08:32:11Z</time></trkpt><trkpt lat="45.11922325377621" lon="7.232561405634639"><ele>401.0</ele><time>2026-05-01T08:32:12Z</time></trkpt><trkpt lat="45.119247715409045" lon="7.232401944971078"><ele>401.0</ele><time>2026-05-01T08:32:13Z</time></trkpt><trkpt lat="45.11928342968826" lon="7.232264542024321"><ele>401.0</ele><time>2026-05-01T08:32:14Z</time></trkpt><trkpt lat="45.11930340176676" lon="7.232142892467155"><ele>401.4</ele><time>2026-05-01T08:32:15Z</time></trkpt><trkpt lat="45.11932180217814" lon="7.232023181322709"><ele>401.8</ele><time>2026-05-01T08:32:16Z</time></trkpt><trkpt lat="45.11934136010451" lon="7.231925587494314"><ele>402.2</ele><time>2026-05-01T08:32:17Z</time></trkpt><trkpt lat="45.119355471080084" lon="7.231821523957926"><ele>402.59999999999997</ele><time>2026-05-01T08:32:18Z</time></trkpt><trkpt lat="45.119450938360686" lon="7.231670897755261"><ele>403.0</ele><time>2026-05-01T08:32:20Z</time></trkpt><trkpt lat="45.119490814419635" lon="7.23155734050833"><ele>403.0</ele><time>2026-05-01T08:32:21Z</time></trkpt><trkpt lat="45.11950805983133" lon="7.231457613439363"><ele>403.0</ele><time>2026-05-01T08:32:22Z</time></trkpt><trkpt lat="45.11949460143434" lon="7.231322302907013"><ele>403.0</ele><time>2026-05-01T08:32:23Z</time></trkpt><trkpt lat="45.11947642439226" lon="7.23119556433822"><ele>403.0</ele><time>2026-05-01T08:32:24Z</time></trkpt><trkpt lat="45.119458704847034" lon="7.231083497373926"><ele>403.0</ele><time>2026-05-01T08:32:25Z</time></trkpt><trkpt lat="45.11943417398563" lon="7.230922466597207"><ele>403.0</ele><time>2026-05-01T08:32:26Z</time></trkpt><trkpt lat="45.119417666617" lon="7.230707271806679"><ele>403.0</ele><time>2026-05-01T08:32:27Z</time></trkpt><trkpt lat="45.1194278349893" lon="7.230501023350962"><ele>403.0</ele><time>2026-05-01T08:32:28Z</time></trkpt><trkpt lat="45.11942457129118" lon="7.230289916499933"><ele>403.0</ele><time>2026-05-01T08:32:29Z</time></trkpt><trkpt lat="45.11943043187575" lon="7.23003799406212"><ele>403.0</ele><time>2026-05-01T08:32:30Z</time></trkpt><trkpt lat="45.11943011019915" lon="7.229788801904803"><ele>403.0</ele><time>2026-05-01T08:32:31Z</time></trkpt><trkpt lat="45.119428749587776" lon="7.229445199172367"><ele>403.0</ele><time>2026-05-01T08:32:32Z</time></trkpt><trkpt lat="45.11944725038073" lon="7.2291139460752305"><ele>404.0</ele><time>2026-05-01T08:32:33Z</time></trkpt><trkpt lat="45.11945739020323" lon="7.228766459931236"><ele>405.0</ele><time>2026-05-01T08:32:34Z</time></trkpt><trkpt lat="45.119473047132075" lon="7.228401685413167"><ele>405.0</ele><time>2026-05-01T08:32:35Z</time></trkpt><trkpt lat="45.11949415852498" lon="7.228054579625619"><ele>405.0</ele><time>2026-05-01T08:32:36Z</time></trkpt><trkpt lat="45.119520984034914" lon="7.227744348319399"><ele>405.0</ele><time>2026-05-01T08:32:37Z</time></trkpt><trkpt lat="45.119547166490015" lon="7.227453930703242"><ele>405.0</ele><time>2026-05-01T08:32:38Z</time></trkpt><trkpt lat="45.11956037661988" lon="7.227176125966922"><ele>405.0</ele><time>2026-05-01T08:32:39Z</time></trkpt><trkpt lat="45.119586829492995" lon="7.226904845432172"><ele>405.33333333333337</ele><time>2026-05-01T08:32:40Z</time></trkpt><trkpt lat="45.1195701014446" lon="7.226646534665486"><ele>405.6666666666667</ele><time>2026-05-01T08:32:41Z</time></trkpt><trkpt lat="45.11956156231882" lon="7.226450686485687"><ele>406.0</ele><time>2026-05-01T08:32:42Z</time></trkpt><trkpt lat="45.11955712853438" lon="7.226245604732237"><ele>406.0</ele><time>2026-05-01T08:32:43Z</time></trkpt><trkpt lat="45.1195333946558" lon="7.226046344190153"><ele>406.0</ele><time>2026-05-01T08:32:44Z</time></trkpt><trkpt lat="45.119508533967554" lon="7.2258370470412725"><ele>406.0</ele><time>2026-05-01T08:32:45Z</time></trkpt><trkpt lat="45.11948748865345" lon="7.225618718147145"><ele>406.0</ele><time>2026-05-01T08:32:46Z</time></trkpt><trkpt lat="45.11946468445666" lon="7.225381979610945"><ele>406.0</ele><time>2026-05-01T08:32:47Z</time></trkpt><trkpt lat="45.119457922639164" lon="7.22514998173779"><ele>406.0</ele><time>2026-05-01T08:32:48Z</time></trkpt><trkpt lat="45.119445458245465" lon="7.224922376339725"><ele>406.0</ele><time>2026-05-01T08:32:49Z</time></trkpt><trkpt lat="45.119428539522914" lon="7.2246970826846715"><ele>405.6666666666667</ele><time>2026-05-01T08:32:50Z</time></trkpt><trkpt lat="45.11941504317638" lon="7.224486562523347"><ele>405.33333333333337</ele><time>2026-05-01T08:32:51Z</time></trkpt><trkpt lat="45.11939886310168" lon="7.224261075424133"><ele>405.0</ele><time>2026-05-01T08:32:52Z</time></trkpt><trkpt lat="45.11938834871443" lon="7.2240332360192"><ele>405.66666666666663</ele><time>2026-05-01T08:32:52.999Z</time></trkpt><trkpt lat="45.119376293531964" lon="7.2237959042161135"><ele>406.3333333333333</ele><time>2026-05-01T08:32:53.999Z</time></trkpt><trkpt lat="45.11936681514567" lon="7.223560099582798"><ele>407.0</ele><time>2026-05-01T08:32:54.999Z</time></trkpt><trkpt lat="45.11936144027811" lon="7.223322134706527"><ele>407.0</ele><time>2026-05-01T08:32:55.999Z</time></trkpt><trkpt lat="45.119350875859716" lon="7.223082712456705"><ele>407.0</ele><time>2026-05-01T08:32:56.999Z</time></trkpt><trkpt lat="45.11936014482594" lon="7.222856955198155"><ele>407.0</ele><time>2026-05-01T08:32:57.999Z</time></trkpt><trkpt lat="45.1193490117884" lon="7.222599649750514"><ele>407.0</ele><time>2026-05-01T08:32:58.999Z</time></trkpt><trkpt lat="45.11935330486453" lon="7.222378742239459"><ele>407.0</ele><time>2026-05-01T08:32:59.999Z</time></trkpt><trkpt lat="45.119361651095694" lon="7.222179771926921"><ele>407.0</ele><time>2026-05-01T08:33:00.999Z</time></trkpt><trkpt lat="45.11936779559783" lon="7.221969832734425"><ele>407.0</ele><time>2026-05-01T08:33:01.999Z</time></trkpt><trkpt lat="45.119362912937135" lon="7.221768616645451"><ele>407.0</ele><time>2026-05-01T08:33:02.999Z</time></trkpt><trkpt lat="45.11935915319513" lon="7.221553849479029"><ele>407.0</ele><time>2026-05-01T08:33:03.999Z</time></trkpt><trkpt lat="45.11935433710837" lon="7.221324006746427"><ele>407.0</ele><time>2026-05-01T08:33:04.999Z</time></trkpt><trkpt lat="45.11934818718927" lon="7.221085753618457"><ele>407.0</ele><time>2026-05-01T08:33:05.999Z</time></trkpt><trkpt lat="45.11933865959703" lon="7.220857519118764"><ele>407.0</ele><time>2026-05-01T08:33:06.999Z</time></trkpt><trkpt lat="45.119346156214284" lon="7.220646273145652"><ele>407.0</ele><time>2026-05-01T08:33:07.999Z</time></trkpt><trkpt lat="45.11932935534968" lon="7.220400115291591"><ele>407.0</ele><time>2026-05-01T08:33:08.999Z</time></trkpt><trkpt lat="45.11928953923285" lon="7.220175805163081"><ele>407.0</ele><time>2026-05-01T08:33:09.999Z</time></trkpt><trkpt lat="45.11926147946124" lon="7.219924610535417"><ele>407.0</ele><time>2026-05-01T08:33:10.999Z</time></trkpt><trkpt lat="45.119233477921696" lon="7.2196445808612655"><ele>407.0</ele><time>2026-05-01T08:33:11.999Z</time></trkpt><trkpt lat="45.119205748161036" lon="7.219364678819296"><ele>407.0</ele><time>2026-05-01T08:33:12.999Z</time></trkpt><trkpt lat="45.119181348776706" lon="7.219060564826353"><ele>407.0</ele><time>2026-05-01T08:33:13.999Z</time></trkpt><trkpt lat="45.11911637366623" lon="7.218713991227528"><ele>407.0</ele><time>2026-05-01T08:33:14.999Z</time></trkpt><trkpt lat="45.119072408974674" lon="7.218357714939056"><ele>407.0</ele><time>2026-05-01T08:33:15.999Z</time></trkpt><trkpt lat="45.11903891764805" lon="7.21804166118094"><ele>406.5</ele><time>2026-05-01T08:33:16.999Z</time></trkpt><trkpt lat="45.119003323323724" lon="7.2177039925155055"><ele>406.0</ele><time>2026-05-01T08:33:17.999Z</time></trkpt><trkpt lat="45.11897843545965" lon="7.217386429760693"><ele>404.0</ele><time>2026-05-01T08:33:18.999Z</time></trkpt><trkpt lat="45.11895074033712" lon="7.2170637499618495"><ele>402.0</ele><time>2026-05-01T08:33:19.999Z</time></trkpt><trkpt lat="45.118931494656344" lon="7.216738558323605"><ele>402.0</ele><time>2026-05-01T08:33:20.999Z</time></trkpt><trkpt lat="45.118892388266424" lon="7.2164429718692"><ele>402.0</ele><time>2026-05-01T08:33:21.999Z</time></trkpt><trkpt lat="45.11885309105012" lon="7.216138020938395"><ele>402.0</ele><time>2026-05-01T08:33:22.999Z</time></trkpt><trkpt lat="45.11881428539164" lon="7.215839871945877"><ele>402.0</ele><time>2026-05-01T08:33:23.999Z</time></trkpt><trkpt lat="45.118775204490476" lon="7.215548506584673"><ele>402.0</ele><time>2026-05-01T08:33:24.999Z</time></trkpt><trkpt lat="45.11876348236284" lon="7.21522911444207"><ele>402.0</ele><time>2026-05-01T08:33:25.999Z</time></trkpt><trkpt lat="45.118763949693246" lon="7.214895375398443"><ele>402.66666666666663</ele><time>2026-05-01T08:33:26.999Z</time></trkpt><trkpt lat="45.11877542379191" lon="7.214578313232639"><ele>403.3333333333333</ele><time>2026-05-01T08:33:27.999Z</time></trkpt><trkpt lat="45.11879603184986" lon="7.214267419466826"><ele>404.0</ele><time>2026-05-01T08:33:28.999Z</time></trkpt><trkpt lat="45.11881336824242" lon="7.213965060885946"><ele>405.3333333333333</ele><time>2026-05-01T08:33:29.999Z</time></trkpt><trkpt lat="45.11882847050464" lon="7.213671647333227"><ele>406.66666666666663</ele><time>2026-05-01T08:33:30.999Z</time></trkpt><trkpt lat="45.11884087140099" lon="7.21339889758259"><ele>408.0</ele><time>2026-05-01T08:33:31.999Z</time></trkpt><trkpt lat="45.11885799746607" lon="7.213126417778825"><ele>409.66666666666663</ele><time>2026-05-01T08:33:32.999Z</time></trkpt><trkpt lat="45.118883514719585" lon="7.212857895439536"><ele>411.3333333333333</ele><time>2026-05-01T08:33:33.999Z</time></trkpt><trkpt lat="45.118917224134286" lon="7.21259316663582"><ele>413.0</ele><time>2026-05-01T08:33:34.999Z</time></trkpt><trkpt lat="45.118966723483794" lon="7.212330483357432"><ele>410.3333333333333</ele><time>2026-05-01T08:33:35.999Z</time></trkpt><trkpt lat="45.119000301132495" lon="7.212070420793478"><ele>407.66666666666663</ele><time>2026-05-01T08:33:36.999Z</time></trkpt><trkpt lat="45.11904081728882" lon="7.211804164013386"><ele>405.0</ele><time>2026-05-01T08:33:37.999Z</time></trkpt><trkpt lat="45.11908402681275" lon="7.211552419659534"><ele>406.33333333333337</ele><time>2026-05-01T08:33:38.999Z</time></trkpt><trkpt lat="45.1191260567567" lon="7.211309430877178"><ele>407.6666666666667</ele><time>2026-05-01T08:33:39.999Z</time></trkpt><trkpt lat="45.11916380320242" lon="7.211075417446382"><ele>409.0</ele><time>2026-05-01T08:33:40.999Z</time></trkpt><trkpt lat="45.119206854455605" lon="7.210846510489726"><ele>412.6666666666667</ele><time>2026-05-01T08:33:41.999Z</time></trkpt><trkpt lat="45.11925928169372" lon="7.2106200083923655"><ele>416.33333333333337</ele><time>2026-05-01T08:33:42.999Z</time></trkpt><trkpt lat="45.11933797908454" lon="7.210399036501546"><ele>420.0</ele><time>2026-05-01T08:33:43.999Z</time></trkpt><trkpt lat="45.11941321866298" lon="7.21018631683453"><ele>420.0</ele><time>2026-05-01T08:33:45Z</time></trkpt><trkpt lat="45.11949685453312" lon="7.209997965233123"><ele>420.0</ele><time>2026-05-01T08:33:46Z</time></trkpt><trkpt lat="45.11958127249461" lon="7.209837347951795"><ele>420.0</ele><time>2026-05-01T08:33:47Z</time></trkpt><trkpt lat="45.119657988530854" lon="7.2096577247900555"><ele>420.0</ele><time>2026-05-01T08:33:48Z</time></trkpt><trkpt lat="45.11972882130787" lon="7.20947873850455"><ele>418.33333333333337</ele><time>2026-05-01T08:33:49Z</time></trkpt><trkpt lat="45.11980013253187" lon="7.209278258885743"><ele>416.6666666666667</ele><time>2026-05-01T08:33:50Z</time></trkpt><trkpt lat="45.119882724227296" lon="7.209081240038028"><ele>415.0</ele><time>2026-05-01T08:33:51Z</time></trkpt><trkpt lat="45.11998054911766" lon="7.208928502290244"><ele>415.0</ele><time>2026-05-01T08:33:52Z</time></trkpt><trkpt lat="45.120042827421" lon="7.208734761519352"><ele>415.0</ele><time>2026-05-01T08:33:53Z</time></trkpt><trkpt lat="45.120086297241336" lon="7.208507895098676"><ele>415.0</ele><time>2026-05-01T08:33:54Z</time></trkpt><trkpt lat="45.12014513186807" lon="7.20828319078333"><ele>415.33333333333337</ele><time>2026-05-01T08:33:55Z</time></trkpt><trkpt lat="45.12020042930739" lon="7.208069753316526"><ele>415.66666666666663</ele><time>2026-05-01T08:33:56Z</time></trkpt><trkpt lat="45.120237606723876" lon="7.207820710249389"><ele>416.0</ele><time>2026-05-01T08:33:57Z</time></trkpt><trkpt lat="45.12026905850148" lon="7.207592216514585"><ele>415.0</ele><time>2026-05-01T08:33:58Z</time></trkpt><trkpt lat="45.120293291972196" lon="7.2073045651995455"><ele>414.0</ele><time>2026-05-01T08:33:59Z</time></trkpt><trkpt lat="45.12033741877454" lon="7.207040960192522"><ele>413.0</ele><time>2026-05-01T08:34:00Z</time></trkpt><trkpt lat="45.12037438067044" lon="7.206776557543286"><ele>413.0</ele><time>2026-05-01T08:34:01Z</time></trkpt><trkpt lat="45.120424053386" lon="7.206519320348522"><ele>413.0</ele><time>2026-05-01T08:34:02Z</time></trkpt><trkpt lat="45.1204581152921" lon="7.206220756965366"><ele>413.0</ele><time>2026-05-01T08:34:03Z</time></trkpt><trkpt lat="45.12050881378837" lon="7.205913366861617"><ele>417.0</ele><time>2026-05-01T08:34:04Z</time></trkpt><trkpt lat="45.120556518721884" lon="7.20557254675901"><ele>421.0</ele><time>2026-05-01T08:34:05Z</time></trkpt><trkpt lat="45.12063058415319" lon="7.205240736009584"><ele>421.0</ele><time>2026-05-01T08:34:06Z</time></trkpt><trkpt lat="45.120695793993974" lon="7.204903426694673"><ele>421.0</ele><time>2026-05-01T08:34:07Z</time></trkpt><trkpt lat="45.12076670673649" lon="7.204562850122712"><ele>419.0</ele><time>2026-05-01T08:34:08Z</time></trkpt><trkpt lat="45.12082809896103" lon="7.204224686263205"><ele>417.0</ele><time>2026-05-01T08:34:09Z</time></trkpt><trkpt lat="45.120882576290796" lon="7.203893238342646"><ele>417.0</ele><time>2026-05-01T08:34:10Z</time></trkpt><trkpt lat="45.12094358822858" lon="7.20355467164225"><ele>417.0</ele><time>2026-05-01T08:34:11Z</time></trkpt><trkpt lat="45.12100945577311" lon="7.203212012490254"><ele>420.5</ele><time>2026-05-01T08:34:12Z</time></trkpt><trkpt lat="45.12107602253812" lon="7.2028595766875485"><ele>424.0</ele><time>2026-05-01T08:34:13Z</time></trkpt><trkpt lat="45.12113645033783" lon="7.202509089383053"><ele>428.0</ele><time>2026-05-01T08:34:14Z</time></trkpt><trkpt lat="45.121197601854966" lon="7.202147726294921"><ele>432.0</ele><time>2026-05-01T08:34:15Z</time></trkpt><trkpt lat="45.121250998532" lon="7.20178852543656"><ele>434.5</ele><time>2026-05-01T08:34:16Z</time></trkpt><trkpt lat="45.12131256842505" lon="7.201444285609866"><ele>437.0</ele><time>2026-05-01T08:34:17Z</time></trkpt><trkpt lat="45.12137283198025" lon="7.2011070070932615"><ele>437.0</ele><time>2026-05-01T08:34:18Z</time></trkpt><trkpt lat="45.12143614485827" lon="7.200771249608635"><ele>437.0</ele><time>2026-05-01T08:34:19Z</time></trkpt><trkpt lat="45.12149243926688" lon="7.200451558997745"><ele>438.0</ele><time>2026-05-01T08:34:20Z</time></trkpt><trkpt lat="45.12154320777479" lon="7.200154763047192"><ele>439.0</ele><time>2026-05-01T08:34:21Z</time></trkpt><trkpt lat="45.12159276596094" lon="7.199858313459292"><ele>440.0</ele><time>2026-05-01T08:34:22Z</time></trkpt><trkpt lat="45.1216255041767" lon="7.199577373979423"><ele>433.0</ele><time>2026-05-01T08:34:23Z</time></trkpt><trkpt lat="45.12164862847533" lon="7.19930761257496"><ele>426.0</ele><time>2026-05-01T08:34:24Z</time></trkpt><trkpt lat="45.121594750841446" lon="7.199050573971404"><ele>419.0</ele><time>2026-05-01T08:34:25Z</time></trkpt><trkpt lat="45.12158476065424" lon="7.198745377859972"><ele>422.5</ele><time>2026-05-01T08:34:26Z</time></trkpt><trkpt lat="45.12151261962812" lon="7.198390553759471"><ele>426.0</ele><time>2026-05-01T08:34:27Z</time></trkpt><trkpt lat="45.12147470874894" lon="7.1980313640171305"><ele>426.0</ele><time>2026-05-01T08:34:28Z</time></trkpt><trkpt lat="45.12143564117143" lon="7.197725402639744"><ele>426.0</ele><time>2026-05-01T08:34:29Z</time></trkpt><trkpt lat="45.12141575313105" lon="7.197411279656654"><ele>426.0</ele><time>2026-05-01T08:34:30Z</time></trkpt><trkpt lat="45.12140691228374" lon="7.197123936709466"><ele>426.0</ele><time>2026-05-01T08:34:31Z</time></trkpt><trkpt lat="45.12140053466887" lon="7.196846783834291"><ele>426.0</ele><time>2026-05-01T08:34:32Z</time></trkpt><trkpt lat="45.12144266301284" lon="7.19659914100832"><ele>426.0</ele><time>2026-05-01T08:34:33Z</time></trkpt><trkpt lat="45.12150272823793" lon="7.196364594260353"><ele>425.66666666666663</ele><time>2026-05-01T08:34:34Z</time></trkpt><trkpt lat="45.12160402320709" lon="7.196135104605578"><ele>425.3333333333333</ele><time>2026-05-01T08:34:35Z</time></trkpt><trkpt lat="45.12172248118623" lon="7.195862664738206"><ele>425.0</ele><time>2026-05-01T08:34:36Z</time></trkpt><trkpt lat="45.12182725703737" lon="7.19559477605743"><ele>425.0</ele><time>2026-05-01T08:34:37Z</time></trkpt><trkpt lat="45.12194238234837" lon="7.195326623217445"><ele>425.0</ele><time>2026-05-01T08:34:38Z</time></trkpt><trkpt lat="45.122063930929045" lon="7.195065207340796"><ele>425.0</ele><time>2026-05-01T08:34:39Z</time></trkpt><trkpt lat="45.12219511338033" lon="7.1948079010366675"><ele>425.0</ele><time>2026-05-01T08:34:40Z</time></trkpt><trkpt lat="45.12233556019388" lon="7.1945557291117375"><ele>425.0</ele><time>2026-05-01T08:34:41Z</time></trkpt><trkpt lat="45.122482138879036" lon="7.194317501217069"><ele>425.0</ele><time>2026-05-01T08:34:42Z</time></trkpt><trkpt lat="45.12262647535615" lon="7.194123367946014"><ele>425.0</ele><time>2026-05-01T08:34:43Z</time></trkpt><trkpt lat="45.12275518095616" lon="7.19389633583115"><ele>425.0</ele><time>2026-05-01T08:34:44Z</time></trkpt><trkpt lat="45.122919798387144" lon="7.193649688744794"><ele>425.0</ele><time>2026-05-01T08:34:45Z</time></trkpt><trkpt lat="45.123035793335994" lon="7.193392312275652"><ele>425.0</ele><time>2026-05-01T08:34:46Z</time></trkpt><trkpt lat="45.12314835526011" lon="7.193124691503648"><ele>425.0</ele><time>2026-05-01T08:34:47Z</time></trkpt><trkpt lat="45.12326263714084" lon="7.192857764163629"><ele>425.0</ele><time>2026-05-01T08:34:48Z</time></trkpt><trkpt lat="45.12335801629633" lon="7.192550004561262"><ele>425.0</ele><time>2026-05-01T08:34:49Z</time></trkpt><trkpt lat="45.12346577731913" lon="7.192263419670258"><ele>426.66666666666663</ele><time>2026-05-01T08:34:50Z</time></trkpt><trkpt lat="45.12356706929856" lon="7.192001972397735"><ele>428.33333333333337</ele><time>2026-05-01T08:34:51Z</time></trkpt><trkpt lat="45.123677824174635" lon="7.191707295091913"><ele>430.0</ele><time>2026-05-01T08:34:52Z</time></trkpt><trkpt lat="45.123785865552485" lon="7.191433896140999"><ele>431.33333333333337</ele><time>2026-05-01T08:34:53Z</time></trkpt><trkpt lat="45.123890158182924" lon="7.191155770078534"><ele>432.66666666666663</ele><time>2026-05-01T08:34:54Z</time></trkpt><trkpt lat="45.12398993881443" lon="7.1908733484018805"><ele>434.0</ele><time>2026-05-01T08:34:55Z</time></trkpt><trkpt lat="45.12409806677428" lon="7.190580327896338"><ele>435.5</ele><time>2026-05-01T08:34:55.999Z</time></trkpt><trkpt lat="45.12418879906405" lon="7.190283116503005"><ele>437.0</ele><time>2026-05-01T08:34:56.999Z</time></trkpt><trkpt lat="45.124268267451804" lon="7.189976173624768"><ele>436.0</ele><time>2026-05-01T08:34:57.999Z</time></trkpt><trkpt lat="45.124338326747264" lon="7.189655147980041"><ele>435.0</ele><time>2026-05-01T08:34:58.999Z</time></trkpt><trkpt lat="45.124407816563014" lon="7.1893474027730475"><ele>435.0</ele><time>2026-05-01T08:34:59.999Z</time></trkpt><trkpt lat="45.12446005626073" lon="7.189042411980462"><ele>435.0</ele><time>2026-05-01T08:35:00.999Z</time></trkpt><trkpt lat="45.12448559948748" lon="7.188726654682159"><ele>435.0</ele><time>2026-05-01T08:35:01.999Z</time></trkpt><trkpt lat="45.12449768747527" lon="7.188404388511425"><ele>433.0</ele><time>2026-05-01T08:35:02.999Z</time></trkpt><trkpt lat="45.12451826981814" lon="7.1880560961568625"><ele>431.0</ele><time>2026-05-01T08:35:03.999Z</time></trkpt><trkpt lat="45.12450809928949" lon="7.187711752374112"><ele>431.0</ele><time>2026-05-01T08:35:04.999Z</time></trkpt><trkpt lat="45.12449622248563" lon="7.1873685636625355"><ele>431.0</ele><time>2026-05-01T08:35:05.999Z</time></trkpt><trkpt lat="45.124492410904494" lon="7.187016891042487"><ele>431.5</ele><time>2026-05-01T08:35:06.999Z</time></trkpt><trkpt lat="45.1244930589633" lon="7.1866804064120675"><ele>432.0</ele><time>2026-05-01T08:35:07.999Z</time></trkpt><trkpt lat="45.12449900372759" lon="7.186342713462347"><ele>432.0</ele><time>2026-05-01T08:35:08.999Z</time></trkpt><trkpt lat="45.12449903391649" lon="7.186009479308738"><ele>432.0</ele><time>2026-05-01T08:35:09.999Z</time></trkpt><trkpt lat="45.12450505871308" lon="7.185702736437309"><ele>434.33333333333337</ele><time>2026-05-01T08:35:10.999Z</time></trkpt><trkpt lat="45.12451339926506" lon="7.18544254493825"><ele>436.6666666666667</ele><time>2026-05-01T08:35:11.999Z</time></trkpt><trkpt lat="45.12452556374812" lon="7.185172692859692"><ele>439.0</ele><time>2026-05-01T08:35:12.999Z</time></trkpt><trkpt lat="45.124575323585" lon="7.184941317677791"><ele>439.75</ele><time>2026-05-01T08:35:13.999Z</time></trkpt><trkpt lat="45.12464319571947" lon="7.184736609624066"><ele>440.5</ele><time>2026-05-01T08:35:14.999Z</time></trkpt><trkpt lat="45.1247222650884" lon="7.184555843581779"><ele>441.25</ele><time>2026-05-01T08:35:15.999Z</time></trkpt><trkpt lat="45.124803564700144" lon="7.184424599072972"><ele>442.0</ele><time>2026-05-01T08:35:16.999Z</time></trkpt><trkpt lat="45.1249210763393" lon="7.184269708234782"><ele>442.0</ele><time>2026-05-01T08:35:17.999Z</time></trkpt><trkpt lat="45.12505801906614" lon="7.184082907232138"><ele>442.0</ele><time>2026-05-01T08:35:18.999Z</time></trkpt><trkpt lat="45.125186438531614" lon="7.1839456439622085"><ele>442.0</ele><time>2026-05-01T08:35:19.999Z</time></trkpt><trkpt lat="45.12533914253699" lon="7.183780776533998"><ele>441.6666666666667</ele><time>2026-05-01T08:35:20.999Z</time></trkpt><trkpt lat="45.125476466767175" lon="7.183631944657394"><ele>441.33333333333337</ele><time>2026-05-01T08:35:21.999Z</time></trkpt><trkpt lat="45.125610433498494" lon="7.183474779850453"><ele>441.0</ele><time>2026-05-01T08:35:22.999Z</time></trkpt><trkpt lat="45.12577203782895" lon="7.183305978391334"><ele>442.0</ele><time>2026-05-01T08:35:23.999Z</time></trkpt><trkpt lat="45.125913307811345" lon="7.183152787616287"><ele>443.0</ele><time>2026-05-01T08:35:24.999Z</time></trkpt><trkpt lat="45.1260544947208" lon="7.18300244006686"><ele>444.0</ele><time>2026-05-01T08:35:25.999Z</time></trkpt><trkpt lat="45.12618303994329" lon="7.182874218309459"><ele>444.0</ele><time>2026-05-01T08:35:26.999Z</time></trkpt><trkpt lat="45.126318198039066" lon="7.182714269408838"><ele>444.0</ele><time>2026-05-01T08:35:27.999Z</time></trkpt><trkpt lat="45.12641612423028" lon="7.182572262075158"><ele>444.0</ele><time>2026-05-01T08:35:28.999Z</time></trkpt><trkpt lat="45.1265175100128" lon="7.182464723641445"><ele>444.0</ele><time>2026-05-01T08:35:29.999Z</time></trkpt><trkpt lat="45.12659175012853" lon="7.182295511079159"><ele>442.75</ele><time>2026-05-01T08:35:30.999Z</time></trkpt><trkpt lat="45.12666828464781" lon="7.182160699780464"><ele>441.5</ele><time>2026-05-01T08:35:31.999Z</time></trkpt><trkpt lat="45.12666604567954" lon="7.181967397989556"><ele>440.25</ele><time>2026-05-01T08:35:32.999Z</time></trkpt><trkpt lat="45.126703512938015" lon="7.1817406497997505"><ele>439.0</ele><time>2026-05-01T08:35:33.999Z</time></trkpt><trkpt lat="45.126755065422735" lon="7.181499609730805"><ele>439.0</ele><time>2026-05-01T08:35:34.999Z</time></trkpt><trkpt lat="45.1268050903451" lon="7.181259887537463"><ele>439.0</ele><time>2026-05-01T08:35:35.999Z</time></trkpt><trkpt lat="45.12684218483715" lon="7.1810063758388845"><ele>439.0</ele><time>2026-05-01T08:35:36.999Z</time></trkpt><trkpt lat="45.12689257287923" lon="7.180725909519035"><ele>439.0</ele><time>2026-05-01T08:35:37.999Z</time></trkpt><trkpt lat="45.12692967518928" lon="7.1804627744296505"><ele>439.0</ele><time>2026-05-01T08:35:38.999Z</time></trkpt><trkpt lat="45.12696209076121" lon="7.180174933011485"><ele>439.0</ele><time>2026-05-01T08:35:39.999Z</time></trkpt><trkpt lat="45.12698479743913" lon="7.179895974968707"><ele>438.33333333333337</ele><time>2026-05-01T08:35:40.999Z</time></trkpt><trkpt lat="45.12701520778856" lon="7.179620740320914"><ele>437.66666666666663</ele><time>2026-05-01T08:35:41.999Z</time></trkpt><trkpt lat="45.12702327339064" lon="7.179343672272869"><ele>437.0</ele><time>2026-05-01T08:35:42.999Z</time></trkpt><trkpt lat="45.12704007383137" lon="7.179069410552713"><ele>437.3333333333333</ele><time>2026-05-01T08:35:43.999Z</time></trkpt><trkpt lat="45.127045618382425" lon="7.178793908121483"><ele>437.66666666666663</ele><time>2026-05-01T08:35:44.999Z</time></trkpt><trkpt lat="45.12703952507297" lon="7.178518995387898"><ele>438.0</ele><time>2026-05-01T08:35:45.999Z</time></trkpt><trkpt lat="45.12704328479193" lon="7.1782517425861325"><ele>436.33333333333337</ele><time>2026-05-01T08:35:46.999Z</time></trkpt><trkpt lat="45.127049697621665" lon="7.177995943135401"><ele>434.6666666666667</ele><time>2026-05-01T08:35:47.999Z</time></trkpt><trkpt lat="45.1270567730682" lon="7.177747528706243"><ele>433.0</ele><time>2026-05-01T08:35:48.999Z</time></trkpt><trkpt lat="45.127071600771714" lon="7.177512827610944"><ele>432.33333333333337</ele><time>2026-05-01T08:35:49.999Z</time></trkpt><trkpt lat="45.127101094752106" lon="7.177256372057672"><ele>431.66666666666663</ele><time>2026-05-01T08:35:51Z</time></trkpt><trkpt lat="45.12717275992547" lon="7.177019726371087"><ele>431.0</ele><time>2026-05-01T08:35:52Z</time></trkpt><trkpt lat="45.12727772762269" lon="7.176802562495326"><ele>431.0</ele><time>2026-05-01T08:35:53Z</time></trkpt><trkpt lat="45.12736383279918" lon="7.176597938989581"><ele>431.0</ele><time>2026-05-01T08:35:54Z</time></trkpt><trkpt lat="45.12747398076225" lon="7.176401845693272"><ele>431.0</ele><time>2026-05-01T08:35:55Z</time></trkpt><trkpt lat="45.12758501330708" lon="7.1762154233236215"><ele>429.66666666666663</ele><time>2026-05-01T08:35:56Z</time></trkpt><trkpt lat="45.1277178227881" lon="7.17606223840899"><ele>428.33333333333337</ele><time>2026-05-01T08:35:57Z</time></trkpt><trkpt lat="45.12783599867989" lon="7.175895744085422"><ele>427.0</ele><time>2026-05-01T08:35:58Z</time></trkpt><trkpt lat="45.12798846798314" lon="7.175704420792442"><ele>427.0</ele><time>2026-05-01T08:35:59Z</time></trkpt><trkpt lat="45.128127912178215" lon="7.175532450549089"><ele>427.0</ele><time>2026-05-01T08:36:00Z</time></trkpt><trkpt lat="45.128259243880564" lon="7.1753597620963525"><ele>427.0</ele><time>2026-05-01T08:36:01Z</time></trkpt><trkpt lat="45.12838846469075" lon="7.1751853942899695"><ele>427.0</ele><time>2026-05-01T08:36:02Z</time></trkpt><trkpt lat="45.128518786138144" lon="7.175003426437916"><ele>427.0</ele><time>2026-05-01T08:36:03Z</time></trkpt><trkpt lat="45.12865294750339" lon="7.174827110140135"><ele>427.0</ele><time>2026-05-01T08:36:04Z</time></trkpt><trkpt lat="45.12878190795111" lon="7.174667738081834"><ele>427.0</ele><time>2026-05-01T08:36:05Z</time></trkpt><trkpt lat="45.12891346051739" lon="7.1744903600219825"><ele>427.0</ele><time>2026-05-01T08:36:06Z</time></trkpt><trkpt lat="45.12904117575984" lon="7.17433140694672"><ele>427.0</ele><time>2026-05-01T08:36:07Z</time></trkpt><trkpt lat="45.12916012553497" lon="7.174172990624159"><ele>427.0</ele><time>2026-05-01T08:36:08Z</time></trkpt><trkpt lat="45.12928145415324" lon="7.174032095819718"><ele>427.0</ele><time>2026-05-01T08:36:09Z</time></trkpt><trkpt lat="45.12938899986793" lon="7.173878417647314"><ele>427.0</ele><time>2026-05-01T08:36:10Z</time></trkpt><trkpt lat="45.12948933284474" lon="7.173763837785009"><ele>427.0</ele><time>2026-05-01T08:36:11Z</time></trkpt><trkpt lat="45.1295782925661" lon="7.173647405939845"><ele>426.8</ele><time>2026-05-01T08:36:12Z</time></trkpt><trkpt lat="45.129632549974566" lon="7.17357832036566"><ele>426.6</ele><time>2026-05-01T08:36:13Z</time></trkpt><trkpt lat="45.12970441073929" lon="7.173516588080686"><ele>426.40000000000003</ele><time>2026-05-01T08:36:15Z</time></trkpt><trkpt lat="45.129777057218746" lon="7.17337743039781"><ele>426.20000000000005</ele><time>2026-05-01T08:36:21Z</time></trkpt><trkpt lat="45.12990113554884" lon="7.173264935754549"><ele>426.0</ele><time>2026-05-01T08:36:23Z</time></trkpt><trkpt lat="45.13002394990515" lon="7.173094788038457"><ele>426.5</ele><time>2026-05-01T08:36:25Z</time></trkpt><trkpt lat="45.13007776903317" lon="7.172983423504757"><ele>427.0</ele><time>2026-05-01T08:36:26Z</time></trkpt><trkpt lat="45.1301533102821" lon="7.172879873414964"><ele>427.5</ele><time>2026-05-01T08:36:27Z</time></trkpt><trkpt lat="45.130250940950745" lon="7.172725053194858"><ele>428.0</ele><time>2026-05-01T08:36:28Z</time></trkpt><trkpt lat="45.13032640575319" lon="7.1724917899566805"><ele>428.75</ele><time>2026-05-01T08:36:29Z</time></trkpt><trkpt lat="45.130382980656385" lon="7.172309294402973"><ele>429.5</ele><time>2026-05-01T08:36:30Z</time></trkpt><trkpt lat="45.13042722100091" lon="7.172160259359117"><ele>430.25</ele><time>2026-05-01T08:36:31Z</time></trkpt><trkpt lat="45.13048315714258" lon="7.171993748958823"><ele>431.0</ele><time>2026-05-01T08:36:32Z</time></trkpt><trkpt lat="45.13053192210126" lon="7.171815603509615"><ele>431.0</ele><time>2026-05-01T08:36:33Z</time></trkpt><trkpt lat="45.13056586572421" lon="7.171582944598623"><ele>431.0</ele><time>2026-05-01T08:36:34Z</time></trkpt><trkpt lat="45.130582124516785" lon="7.171364666858521"><ele>431.0</ele><time>2026-05-01T08:36:35Z</time></trkpt><trkpt lat="45.13061302036816" lon="7.171144017538959"><ele>431.3333333333333</ele><time>2026-05-01T08:36:36Z</time></trkpt><trkpt lat="45.130635747019625" lon="7.170913862847301"><ele>431.66666666666663</ele><time>2026-05-01T08:36:37Z</time></trkpt><trkpt lat="45.130670818201956" lon="7.170683589802107"><ele>432.0</ele><time>2026-05-01T08:36:38Z</time></trkpt><trkpt lat="45.130698740189516" lon="7.170441489572298"><ele>431.0</ele><time>2026-05-01T08:36:39Z</time></trkpt><trkpt lat="45.13073149040946" lon="7.17019758751969"><ele>430.0</ele><time>2026-05-01T08:36:40Z</time></trkpt><trkpt lat="45.130767868945476" lon="7.1699360099196685"><ele>429.0</ele><time>2026-05-01T08:36:41Z</time></trkpt><trkpt lat="45.130805717422156" lon="7.169675089827542"><ele>429.0</ele><time>2026-05-01T08:36:42Z</time></trkpt><trkpt lat="45.130845727944426" lon="7.169414402537877"><ele>429.0</ele><time>2026-05-01T08:36:43Z</time></trkpt><trkpt lat="45.13088466840845" lon="7.169131439952913"><ele>429.0</ele><time>2026-05-01T08:36:44Z</time></trkpt><trkpt lat="45.130913196378636" lon="7.168867327492461"><ele>429.0</ele><time>2026-05-01T08:36:45Z</time></trkpt><trkpt lat="45.13094492802934" lon="7.1685940065895775"><ele>429.0</ele><time>2026-05-01T08:36:46Z</time></trkpt><trkpt lat="45.13098621083963" lon="7.168343769523497"><ele>429.0</ele><time>2026-05-01T08:36:47Z</time></trkpt><trkpt lat="45.13101729298296" lon="7.168082684742046"><ele>429.0</ele><time>2026-05-01T08:36:48Z</time></trkpt><trkpt lat="45.13104903866453" lon="7.167801613184563"><ele>429.0</ele><time>2026-05-01T08:36:49Z</time></trkpt><trkpt lat="45.131091705460136" lon="7.167534713137542"><ele>429.0</ele><time>2026-05-01T08:36:50Z</time></trkpt><trkpt lat="45.131120015227175" lon="7.16726452998924"><ele>429.66666666666663</ele><time>2026-05-01T08:36:51Z</time></trkpt><trkpt lat="45.13116123791119" lon="7.167002851581782"><ele>430.3333333333333</ele><time>2026-05-01T08:36:52Z</time></trkpt><trkpt lat="45.13119948509604" lon="7.166739769164396"><ele>431.0</ele><time>2026-05-01T08:36:53Z</time></trkpt><trkpt lat="45.131238766064264" lon="7.166480530628296"><ele>431.3333333333333</ele><time>2026-05-01T08:36:54Z</time></trkpt><trkpt lat="45.13127035143184" lon="7.166207092862304"><ele>431.66666666666663</ele><time>2026-05-01T08:36:55Z</time></trkpt><trkpt lat="45.13129661193418" lon="7.165940040992951"><ele>432.0</ele><time>2026-05-01T08:36:56Z</time></trkpt><trkpt lat="45.13133286946405" lon="7.165682035440182"><ele>432.66666666666663</ele><time>2026-05-01T08:36:57Z</time></trkpt><trkpt lat="45.131384947118356" lon="7.165429023905578"><ele>433.3333333333333</ele><time>2026-05-01T08:36:58Z</time></trkpt><trkpt lat="45.13145230341346" lon="7.165194728386139"><ele>434.0</ele><time>2026-05-01T08:36:59Z</time></trkpt><trkpt lat="45.13154191309478" lon="7.1649753667832385"><ele>432.66666666666663</ele><time>2026-05-01T08:37:00Z</time></trkpt><trkpt lat="45.13163457151496" lon="7.164741334564302"><ele>431.33333333333337</ele><time>2026-05-01T08:37:01Z</time></trkpt><trkpt lat="45.13173741216312" lon="7.164496312197445"><ele>430.0</ele><time>2026-05-01T08:37:01.999Z</time></trkpt><trkpt lat="45.13182934188703" lon="7.164236371697282"><ele>431.0</ele><time>2026-05-01T08:37:02.999Z</time></trkpt><trkpt lat="45.13193660537268" lon="7.16397596299364"><ele>432.0</ele><time>2026-05-01T08:37:03.999Z</time></trkpt><trkpt lat="45.13203677658809" lon="7.163679090950723"><ele>433.0</ele><time>2026-05-01T08:37:04.999Z</time></trkpt><trkpt lat="45.132144203710986" lon="7.16339848737051"><ele>433.0</ele><time>2026-05-01T08:37:05.999Z</time></trkpt><trkpt lat="45.132257683352826" lon="7.163121301708824"><ele>433.0</ele><time>2026-05-01T08:37:06.999Z</time></trkpt><trkpt lat="45.13236441613347" lon="7.162848188423074"><ele>433.0</ele><time>2026-05-01T08:37:07.999Z</time></trkpt><trkpt lat="45.13246577289985" lon="7.162587445226881"><ele>432.33333333333337</ele><time>2026-05-01T08:37:08.999Z</time></trkpt><trkpt lat="45.13256911037582" lon="7.16232582301724"><ele>431.66666666666663</ele><time>2026-05-01T08:37:09.999Z</time></trkpt><trkpt lat="45.13267228237299" lon="7.162056556662382"><ele>431.0</ele><time>2026-05-01T08:37:10.999Z</time></trkpt><trkpt lat="45.13277545400053" lon="7.161787706003958"><ele>431.0</ele><time>2026-05-01T08:37:11.999Z</time></trkpt><trkpt lat="45.13287944984086" lon="7.161518747926274"><ele>431.0</ele><time>2026-05-01T08:37:12.999Z</time></trkpt><trkpt lat="45.13297310686576" lon="7.161256598602506"><ele>431.0</ele><time>2026-05-01T08:37:13.999Z</time></trkpt><trkpt lat="45.13305199490076" lon="7.160933197143668"><ele>432.5</ele><time>2026-05-01T08:37:14.999Z</time></trkpt><trkpt lat="45.133147650223314" lon="7.1605921148925065"><ele>434.0</ele><time>2026-05-01T08:37:15.999Z</time></trkpt><trkpt lat="45.13324725699833" lon="7.160241681320275"><ele>434.0</ele><time>2026-05-01T08:37:16.999Z</time></trkpt><trkpt lat="45.13333700603687" lon="7.159912977358634"><ele>434.0</ele><time>2026-05-01T08:37:17.999Z</time></trkpt><trkpt lat="45.13341434068276" lon="7.159557658999772"><ele>434.5</ele><time>2026-05-01T08:37:18.999Z</time></trkpt><trkpt lat="45.13349945458552" lon="7.15922720519569"><ele>435.0</ele><time>2026-05-01T08:37:19.999Z</time></trkpt><trkpt lat="45.13358744671477" lon="7.158893274889857"><ele>435.0</ele><time>2026-05-01T08:37:20.999Z</time></trkpt><trkpt lat="45.13366437737598" lon="7.158554890029339"><ele>435.0</ele><time>2026-05-01T08:37:21.999Z</time></trkpt><trkpt lat="45.13373976510958" lon="7.158229610410348"><ele>436.0</ele><time>2026-05-01T08:37:22.999Z</time></trkpt><trkpt lat="45.133823966514164" lon="7.157917758523252"><ele>437.0</ele><time>2026-05-01T08:37:23.999Z</time></trkpt><trkpt lat="45.13392359224454" lon="7.157630137750991"><ele>437.0</ele><time>2026-05-01T08:37:24.999Z</time></trkpt><trkpt lat="45.13403819481353" lon="7.157335634324066"><ele>437.0</ele><time>2026-05-01T08:37:25.999Z</time></trkpt><trkpt lat="45.1341531037302" lon="7.157048048917916"><ele>437.0</ele><time>2026-05-01T08:37:26.999Z</time></trkpt><trkpt lat="45.13427055682504" lon="7.156765850859254"><ele>437.0</ele><time>2026-05-01T08:37:27.999Z</time></trkpt><trkpt lat="45.13438530157787" lon="7.1564650048254626"><ele>437.5</ele><time>2026-05-01T08:37:28.999Z</time></trkpt><trkpt lat="45.13450785950819" lon="7.15618485227048"><ele>438.0</ele><time>2026-05-01T08:37:29.999Z</time></trkpt><trkpt lat="45.13462259921549" lon="7.155894545974307"><ele>438.0</ele><time>2026-05-01T08:37:30.999Z</time></trkpt><trkpt lat="45.13474477567459" lon="7.155614806028389"><ele>438.0</ele><time>2026-05-01T08:37:31.999Z</time></trkpt><trkpt lat="45.13485036551147" lon="7.155327719520624"><ele>437.66666666666663</ele><time>2026-05-01T08:37:32.999Z</time></trkpt><trkpt lat="45.134953829598004" lon="7.15504267105548"><ele>437.3333333333333</ele><time>2026-05-01T08:37:33.999Z</time></trkpt><trkpt lat="45.135056317955865" lon="7.1547867210031155"><ele>437.0</ele><time>2026-05-01T08:37:34.999Z</time></trkpt><trkpt lat="45.1351274179855" lon="7.1545009177295125"><ele>437.0</ele><time>2026-05-01T08:37:35.999Z</time></trkpt><trkpt lat="45.135217932520376" lon="7.154253215408419"><ele>437.0</ele><time>2026-05-01T08:37:36.999Z</time></trkpt><trkpt lat="45.13528520440966" lon="7.153999814019388"><ele>437.0</ele><time>2026-05-01T08:37:37.999Z</time></trkpt><trkpt lat="45.135336125520276" lon="7.153744969257797"><ele>437.3333333333333</ele><time>2026-05-01T08:37:38.999Z</time></trkpt><trkpt lat="45.13537563612993" lon="7.153528221771464"><ele>437.66666666666663</ele><time>2026-05-01T08:37:39.999Z</time></trkpt><trkpt lat="45.13541508459948" lon="7.153280698781226"><ele>438.0</ele><time>2026-05-01T08:37:40.999Z</time></trkpt><trkpt lat="45.135426365463545" lon="7.153043400623895"><ele>438.25</ele><time>2026-05-01T08:37:41.999Z</time></trkpt><trkpt lat="45.13541928102234" lon="7.152883603028589"><ele>438.5</ele><time>2026-05-01T08:37:42.999Z</time></trkpt><trkpt lat="45.13543391921121" lon="7.15270770818453"><ele>438.75</ele><time>2026-05-01T08:37:43.999Z</time></trkpt><trkpt lat="45.13544829154395" lon="7.152554810037281"><ele>439.0</ele><time>2026-05-01T08:37:44.999Z</time></trkpt><trkpt lat="45.135481537563976" lon="7.152402873939642"><ele>439.25</ele><time>2026-05-01T08:37:45.999Z</time></trkpt><trkpt lat="45.13549386608699" lon="7.152256440770256"><ele>439.5</ele><time>2026-05-01T08:37:46.999Z</time></trkpt><trkpt lat="45.13547448284441" lon="7.152079890786717"><ele>439.75</ele><time>2026-05-01T08:37:47.999Z</time></trkpt><trkpt lat="45.13546932670344" lon="7.15188297337394"><ele>440.0</ele><time>2026-05-01T08:37:48.999Z</time></trkpt><trkpt lat="45.135458052603774" lon="7.151611317574751"><ele>441.0</ele><time>2026-05-01T08:37:49.999Z</time></trkpt><trkpt lat="45.13546967744007" lon="7.151371965796257"><ele>442.0</ele><time>2026-05-01T08:37:50.999Z</time></trkpt><trkpt lat="45.13547731969439" lon="7.151088639404104"><ele>443.0</ele><time>2026-05-01T08:37:51.999Z</time></trkpt><trkpt lat="45.13548373876897" lon="7.150755660661395"><ele>443.0</ele><time>2026-05-01T08:37:52.999Z</time></trkpt><trkpt lat="45.1355072651141" lon="7.150462820343572"><ele>443.0</ele><time>2026-05-01T08:37:53.999Z</time></trkpt><trkpt lat="45.1355153683551" lon="7.1501695968649175"><ele>443.0</ele><time>2026-05-01T08:37:54.999Z</time></trkpt><trkpt lat="45.13555474384864" lon="7.1499045578068685"><ele>443.3333333333333</ele><time>2026-05-01T08:37:55.999Z</time></trkpt><trkpt lat="45.13556623215199" lon="7.149628347449724"><ele>443.66666666666663</ele><time>2026-05-01T08:37:57Z</time></trkpt><trkpt lat="45.135572919391365" lon="7.149363040632625"><ele>444.0</ele><time>2026-05-01T08:37:58Z</time></trkpt><trkpt lat="45.135588180378086" lon="7.149112719194205"><ele>444.33333333333337</ele><time>2026-05-01T08:37:59Z</time></trkpt><trkpt lat="45.135613772250714" lon="7.148918192330774"><ele>444.6666666666667</ele><time>2026-05-01T08:38:00Z</time></trkpt><trkpt lat="45.13562390135676" lon="7.148699870064021"><ele>445.0</ele><time>2026-05-01T08:38:01Z</time></trkpt><trkpt lat="45.13563557246622" lon="7.148478185332947"><ele>445.0</ele><time>2026-05-01T08:38:02Z</time></trkpt><trkpt lat="45.13564362206767" lon="7.148248988805106"><ele>445.0</ele><time>2026-05-01T08:38:03Z</time></trkpt><trkpt lat="45.135641963964204" lon="7.148014317075627"><ele>445.0</ele><time>2026-05-01T08:38:04Z</time></trkpt><trkpt lat="45.1356475927104" lon="7.147769985667385"><ele>446.33333333333337</ele><time>2026-05-01T08:38:05Z</time></trkpt><trkpt lat="45.135650389426154" lon="7.147521613018365"><ele>447.66666666666663</ele><time>2026-05-01T08:38:06Z</time></trkpt><trkpt lat="45.135664158689" lon="7.14729586286321"><ele>449.0</ele><time>2026-05-01T08:38:07Z</time></trkpt><trkpt lat="45.13567836619418" lon="7.147092745245057"><ele>449.25</ele><time>2026-05-01T08:38:08Z</time></trkpt><trkpt lat="45.135681835625256" lon="7.146892129314073"><ele>449.5</ele><time>2026-05-01T08:38:09Z</time></trkpt><trkpt lat="45.13568652634201" lon="7.146710172505674"><ele>449.75</ele><time>2026-05-01T08:38:10Z</time></trkpt><trkpt lat="45.13568929313494" lon="7.146570311357139"><ele>450.0</ele><time>2026-05-01T08:38:11Z</time></trkpt><trkpt lat="45.13568940981621" lon="7.146415299766109"><ele>449.75</ele><time>2026-05-01T08:38:12Z</time></trkpt><trkpt lat="45.13571635052579" lon="7.146279914229668"><ele>449.5</ele><time>2026-05-01T08:38:13Z</time></trkpt><trkpt lat="45.13575422373165" lon="7.146104222461684"><ele>449.25</ele><time>2026-05-01T08:38:14Z</time></trkpt><trkpt lat="45.13576796730203" lon="7.145915505049257"><ele>449.0</ele><time>2026-05-01T08:38:15Z</time></trkpt><trkpt lat="45.13576442071861" lon="7.145691008295424"><ele>449.0</ele><time>2026-05-01T08:38:16Z</time></trkpt><trkpt lat="45.135788223882194" lon="7.145463410672164"><ele>449.0</ele><time>2026-05-01T08:38:17Z</time></trkpt><trkpt lat="45.13579607584515" lon="7.145241725225164"><ele>449.0</ele><time>2026-05-01T08:38:18Z</time></trkpt><trkpt lat="45.13580248733871" lon="7.1450145941003536"><ele>449.3333333333333</ele><time>2026-05-01T08:38:19Z</time></trkpt><trkpt lat="45.13580792566633" lon="7.144772606799369"><ele>449.66666666666663</ele><time>2026-05-01T08:38:20Z</time></trkpt><trkpt lat="45.13581645144153" lon="7.144543679830634"><ele>450.0</ele><time>2026-05-01T08:38:21Z</time></trkpt><trkpt lat="45.13582793270319" lon="7.144318398121744"><ele>450.0</ele><time>2026-05-01T08:38:22Z</time></trkpt><trkpt lat="45.13584400539623" lon="7.1440768748206045"><ele>450.0</ele><time>2026-05-01T08:38:23Z</time></trkpt><trkpt lat="45.135854344759096" lon="7.14383434582398"><ele>450.0</ele><time>2026-05-01T08:38:24Z</time></trkpt><trkpt lat="45.135857538391924" lon="7.143591164495663"><ele>450.0</ele><time>2026-05-01T08:38:25Z</time></trkpt><trkpt lat="45.1358559688645" lon="7.143345831515008"><ele>450.0</ele><time>2026-05-01T08:38:26Z</time></trkpt><trkpt lat="45.13582885642804" lon="7.143096554981899"><ele>450.0</ele><time>2026-05-01T08:38:27Z</time></trkpt><trkpt lat="45.13581113486747" lon="7.142868394411126"><ele>449.66666666666663</ele><time>2026-05-01T08:38:28Z</time></trkpt><trkpt lat="45.13577796622904" lon="7.142607992324"><ele>449.3333333333333</ele><time>2026-05-01T08:38:29Z</time></trkpt><trkpt lat="45.135732776142234" lon="7.142358646868303"><ele>449.0</ele><time>2026-05-01T08:38:30Z</time></trkpt><trkpt lat="45.13569690536665" lon="7.142106511440658"><ele>450.0</ele><time>2026-05-01T08:38:31Z</time></trkpt><trkpt lat="45.1356705348545" lon="7.141826895342102"><ele>451.0</ele><time>2026-05-01T08:38:32Z</time></trkpt><trkpt lat="45.135629188760866" lon="7.141538996145666"><ele>452.0</ele><time>2026-05-01T08:38:33Z</time></trkpt><trkpt lat="45.13558367026723" lon="7.141264227600117"><ele>452.3333333333333</ele><time>2026-05-01T08:38:34Z</time></trkpt><trkpt lat="45.13555878128596" lon="7.141025487683011"><ele>452.66666666666663</ele><time>2026-05-01T08:38:35Z</time></trkpt><trkpt lat="45.13552456390016" lon="7.140754941030708"><ele>453.0</ele><time>2026-05-01T08:38:36Z</time></trkpt><trkpt lat="45.135489496539854" lon="7.140480117741838"><ele>453.0</ele><time>2026-05-01T08:38:37Z</time></trkpt><trkpt lat="45.135452257178024" lon="7.1401930099583195"><ele>453.0</ele><time>2026-05-01T08:38:38Z</time></trkpt><trkpt lat="45.13540366977304" lon="7.139929634700378"><ele>453.0</ele><time>2026-05-01T08:38:39Z</time></trkpt><trkpt lat="45.13534055144316" lon="7.1396667850997195"><ele>453.0</ele><time>2026-05-01T08:38:40Z</time></trkpt><trkpt lat="45.13528332446375" lon="7.13941844299421"><ele>453.0</ele><time>2026-05-01T08:38:41Z</time></trkpt><trkpt lat="45.13521437665222" lon="7.139149848235502"><ele>453.0</ele><time>2026-05-01T08:38:42Z</time></trkpt><trkpt lat="45.13513514676203" lon="7.138898566478233"><ele>452.33333333333337</ele><time>2026-05-01T08:38:43Z</time></trkpt><trkpt lat="45.13505769915797" lon="7.138628225968078"><ele>451.6666666666667</ele><time>2026-05-01T08:38:44Z</time></trkpt><trkpt lat="45.13497593426566" lon="7.1383708073380285"><ele>451.0</ele><time>2026-05-01T08:38:45Z</time></trkpt><trkpt lat="45.13489372138522" lon="7.138116445785653"><ele>451.6666666666667</ele><time>2026-05-01T08:38:46Z</time></trkpt><trkpt lat="45.134822833477145" lon="7.137863174997991"><ele>452.33333333333337</ele><time>2026-05-01T08:38:47Z</time></trkpt><trkpt lat="45.134740917786736" lon="7.137593704416705"><ele>453.0</ele><time>2026-05-01T08:38:48Z</time></trkpt><trkpt lat="45.13466364729142" lon="7.137313715106343"><ele>453.0</ele><time>2026-05-01T08:38:49Z</time></trkpt><trkpt lat="45.134585200160544" lon="7.1370439870589815"><ele>453.0</ele><time>2026-05-01T08:38:50Z</time></trkpt><trkpt lat="45.13449822411052" lon="7.136782787497935"><ele>453.0</ele><time>2026-05-01T08:38:51Z</time></trkpt><trkpt lat="45.134446761255454" lon="7.13650881908854"><ele>452.0</ele><time>2026-05-01T08:38:52Z</time></trkpt><trkpt lat="45.13435194857336" lon="7.136236994007167"><ele>451.0</ele><time>2026-05-01T08:38:53Z</time></trkpt><trkpt lat="45.13426945034588" lon="7.135966576757304"><ele>450.0</ele><time>2026-05-01T08:38:54Z</time></trkpt><trkpt lat="45.13417958395637" lon="7.135703637269885"><ele>450.66666666666663</ele><time>2026-05-01T08:38:55Z</time></trkpt><trkpt lat="45.13409557688265" lon="7.13543760125468"><ele>451.3333333333333</ele><time>2026-05-01T08:38:56Z</time></trkpt><trkpt lat="45.13401426545921" lon="7.135173639139446"><ele>452.0</ele><time>2026-05-01T08:38:57Z</time></trkpt><trkpt lat="45.13391816727844" lon="7.134918812860332"><ele>451.66666666666663</ele><time>2026-05-01T08:38:58Z</time></trkpt><trkpt lat="45.133839650527634" lon="7.13464871800937"><ele>451.33333333333337</ele><time>2026-05-01T08:38:59Z</time></trkpt><trkpt lat="45.13375537199013" lon="7.134395822754303"><ele>451.0</ele><time>2026-05-01T08:39:00Z</time></trkpt><trkpt lat="45.13366728275536" lon="7.134140132763896"><ele>451.0</ele><time>2026-05-01T08:39:01Z</time></trkpt><trkpt lat="45.133579043486186" lon="7.133889080763884"><ele>451.0</ele><time>2026-05-01T08:39:02Z</time></trkpt><trkpt lat="45.13350265701706" lon="7.133610974353381"><ele>451.0</ele><time>2026-05-01T08:39:03Z</time></trkpt><trkpt lat="45.1334352523391" lon="7.133326289468975"><ele>449.6666666666667</ele><time>2026-05-01T08:39:04Z</time></trkpt><trkpt lat="45.133384157456504" lon="7.133033318042695"><ele>448.33333333333337</ele><time>2026-05-01T08:39:05Z</time></trkpt><trkpt lat="45.13335042460511" lon="7.132743774660647"><ele>447.0</ele><time>2026-05-01T08:39:06Z</time></trkpt><trkpt lat="45.13331781390561" lon="7.13243813517836"><ele>446.0</ele><time>2026-05-01T08:39:07Z</time></trkpt><trkpt lat="45.13330390354064" lon="7.132126789006398"><ele>445.0</ele><time>2026-05-01T08:39:08Z</time></trkpt><trkpt lat="45.13329570938756" lon="7.131808056187815"><ele>444.0</ele><time>2026-05-01T08:39:09Z</time></trkpt><trkpt lat="45.13328878039972" lon="7.13148052147968"><ele>444.0</ele><time>2026-05-01T08:39:10Z</time></trkpt><trkpt lat="45.13328890183031" lon="7.131155097741136"><ele>444.0</ele><time>2026-05-01T08:39:11Z</time></trkpt><trkpt lat="45.13327949753392" lon="7.130816430571151"><ele>444.5</ele><time>2026-05-01T08:39:12Z</time></trkpt><trkpt lat="45.13326830638442" lon="7.1304890715306115"><ele>445.0</ele><time>2026-05-01T08:39:13Z</time></trkpt><trkpt lat="45.133261065226904" lon="7.13017595263283"><ele>445.33333333333337</ele><time>2026-05-01T08:39:14Z</time></trkpt><trkpt lat="45.13325357925218" lon="7.1298599985749"><ele>445.66666666666663</ele><time>2026-05-01T08:39:15Z</time></trkpt><trkpt lat="45.133248145154916" lon="7.129551758399664"><ele>446.0</ele><time>2026-05-01T08:39:16Z</time></trkpt><trkpt lat="45.13324126512332" lon="7.12924862343252"><ele>446.3333333333333</ele><time>2026-05-01T08:39:17Z</time></trkpt><trkpt lat="45.13323156361008" lon="7.128949621924331"><ele>446.66666666666663</ele><time>2026-05-01T08:39:17.999Z</time></trkpt><trkpt lat="45.13321941703462" lon="7.12864890293661"><ele>447.0</ele><time>2026-05-01T08:39:18.999Z</time></trkpt><trkpt lat="45.13320136011891" lon="7.128354762690481"><ele>449.33333333333337</ele><time>2026-05-01T08:39:19.999Z</time></trkpt><trkpt lat="45.13318328434796" lon="7.128069404097913"><ele>451.6666666666667</ele><time>2026-05-01T08:39:20.999Z</time></trkpt><trkpt lat="45.13315548746995" lon="7.12777548077244"><ele>454.0</ele><time>2026-05-01T08:39:21.999Z</time></trkpt><trkpt lat="45.133112894957776" lon="7.127475046027884"><ele>452.6666666666667</ele><time>2026-05-01T08:39:22.999Z</time></trkpt><trkpt lat="45.133025060566226" lon="7.12721578411316"><ele>451.33333333333337</ele><time>2026-05-01T08:39:23.999Z</time></trkpt><trkpt lat="45.13293183878365" lon="7.1269435057344825"><ele>450.0</ele><time>2026-05-01T08:39:24.999Z</time></trkpt><trkpt lat="45.132847760415906" lon="7.1267071037181235"><ele>449.0</ele><time>2026-05-01T08:39:25.999Z</time></trkpt><trkpt lat="45.132752758856235" lon="7.126440397147171"><ele>448.0</ele><time>2026-05-01T08:39:26.999Z</time></trkpt><trkpt lat="45.13265969729897" lon="7.126179026914113"><ele>447.0</ele><time>2026-05-01T08:39:27.999Z</time></trkpt><trkpt lat="45.13255796600814" lon="7.125920939407145"><ele>447.33333333333337</ele><time>2026-05-01T08:39:28.999Z</time></trkpt><trkpt lat="45.13245163760122" lon="7.1257233247425065"><ele>447.6666666666667</ele><time>2026-05-01T08:39:29.999Z</time></trkpt><trkpt lat="45.132295203982174" lon="7.1254948114606815"><ele>448.0</ele><time>2026-05-01T08:39:30.999Z</time></trkpt><trkpt lat="45.13214757175639" lon="7.125278930542758"><ele>448.0</ele><time>2026-05-01T08:39:31.999Z</time></trkpt><trkpt lat="45.13198210057045" lon="7.12506664619814"><ele>448.0</ele><time>2026-05-01T08:39:32.999Z</time></trkpt><trkpt lat="45.13184499554735" lon="7.124831115922214"><ele>448.0</ele><time>2026-05-01T08:39:33.999Z</time></trkpt><trkpt lat="45.131713450590844" lon="7.1246234781013715"><ele>447.6666666666667</ele><time>2026-05-01T08:39:34.999Z</time></trkpt><trkpt lat="45.13161564244484" lon="7.124381637741036"><ele>447.33333333333337</ele><time>2026-05-01T08:39:35.999Z</time></trkpt><trkpt lat="45.13155158293827" lon="7.124140383154374"><ele>447.0</ele><time>2026-05-01T08:39:36.999Z</time></trkpt><trkpt lat="45.13152301094995" lon="7.123826227521971"><ele>447.0</ele><time>2026-05-01T08:39:37.999Z</time></trkpt><trkpt lat="45.13153105657561" lon="7.123557509629007"><ele>447.0</ele><time>2026-05-01T08:39:38.999Z</time></trkpt><trkpt lat="45.13156246664779" lon="7.12329769043041"><ele>447.0</ele><time>2026-05-01T08:39:39.999Z</time></trkpt><trkpt lat="45.131607333335964" lon="7.123011315048916"><ele>447.0</ele><time>2026-05-01T08:39:40.999Z</time></trkpt><trkpt lat="45.131665251109865" lon="7.122657018155462"><ele>447.0</ele><time>2026-05-01T08:39:41.999Z</time></trkpt><trkpt lat="45.131721829924444" lon="7.122309362755816"><ele>447.0</ele><time>2026-05-01T08:39:42.999Z</time></trkpt><trkpt lat="45.13177573656086" lon="7.121956501401944"><ele>447.0</ele><time>2026-05-01T08:39:43.999Z</time></trkpt><trkpt lat="45.13184188176529" lon="7.121605892293305"><ele>447.5</ele><time>2026-05-01T08:39:44.999Z</time></trkpt><trkpt lat="45.13190710940975" lon="7.121246664657023"><ele>448.0</ele><time>2026-05-01T08:39:45.999Z</time></trkpt><trkpt lat="45.131974433020375" lon="7.1208654008019145"><ele>448.0</ele><time>2026-05-01T08:39:46.999Z</time></trkpt><trkpt lat="45.13202221495383" lon="7.120471488952865"><ele>448.0</ele><time>2026-05-01T08:39:47.999Z</time></trkpt><trkpt lat="45.132045025982926" lon="7.120057258746904"><ele>448.0</ele><time>2026-05-01T08:39:48.999Z</time></trkpt><trkpt lat="45.13200196658417" lon="7.119581930743211"><ele>448.0</ele><time>2026-05-01T08:39:49.999Z</time></trkpt><trkpt lat="45.132009331323594" lon="7.1191941008876"><ele>448.5</ele><time>2026-05-01T08:39:50.999Z</time></trkpt><trkpt lat="45.1320186304883" lon="7.1188291924564515"><ele>449.0</ele><time>2026-05-01T08:39:51.999Z</time></trkpt><trkpt lat="45.13202832881761" lon="7.118489628783777"><ele>449.3333333333333</ele><time>2026-05-01T08:39:52.999Z</time></trkpt><trkpt lat="45.132049204503375" lon="7.118181967167082"><ele>449.66666666666663</ele><time>2026-05-01T08:39:53.999Z</time></trkpt><trkpt lat="45.13208614937438" lon="7.117881234282701"><ele>450.0</ele><time>2026-05-01T08:39:54.999Z</time></trkpt><trkpt lat="45.132176348626025" lon="7.117591427837359"><ele>450.5</ele><time>2026-05-01T08:39:55.999Z</time></trkpt><trkpt lat="45.132263675099914" lon="7.117267042892648"><ele>451.0</ele><time>2026-05-01T08:39:56.999Z</time></trkpt><trkpt lat="45.132361175804796" lon="7.116950617310692"><ele>451.0</ele><time>2026-05-01T08:39:57.999Z</time></trkpt><trkpt lat="45.13247853672707" lon="7.116616044913712"><ele>451.0</ele><time>2026-05-01T08:39:58.999Z</time></trkpt><trkpt lat="45.13257845740535" lon="7.116314912693088"><ele>451.0</ele><time>2026-05-01T08:39:59.999Z</time></trkpt><trkpt lat="45.13265198048653" lon="7.116023857944936"><ele>451.0</ele><time>2026-05-01T08:40:00.999Z</time></trkpt><trkpt lat="45.132715609433966" lon="7.11573732532456"><ele>451.0</ele><time>2026-05-01T08:40:01.999Z</time></trkpt><trkpt lat="45.13274548382483" lon="7.115438234898554"><ele>452.0</ele><time>2026-05-01T08:40:03Z</time></trkpt><trkpt lat="45.13272713313162" lon="7.115106170724413"><ele>453.0</ele><time>2026-05-01T08:40:04Z</time></trkpt><trkpt lat="45.132712529454864" lon="7.114761854248929"><ele>454.0</ele><time>2026-05-01T08:40:05Z</time></trkpt><trkpt lat="45.13267143971413" lon="7.114444998399483"><ele>455.0</ele><time>2026-05-01T08:40:06Z</time></trkpt><trkpt lat="45.13262102869653" lon="7.114120255364513"><ele>455.5</ele><time>2026-05-01T08:40:07Z</time></trkpt><trkpt lat="45.132567437317455" lon="7.113786583392052"><ele>456.0</ele><time>2026-05-01T08:40:08Z</time></trkpt><trkpt lat="45.132523548858245" lon="7.113463364801264"><ele>456.5</ele><time>2026-05-01T08:40:09Z</time></trkpt><trkpt lat="45.13246782059104" lon="7.11312798549521"><ele>457.0</ele><time>2026-05-01T08:40:10Z</time></trkpt><trkpt lat="45.132416474982705" lon="7.11279304059704"><ele>458.0</ele><time>2026-05-01T08:40:11Z</time></trkpt><trkpt lat="45.13238147304802" lon="7.112469266833959"><ele>459.0</ele><time>2026-05-01T08:40:12Z</time></trkpt><trkpt lat="45.13234615102671" lon="7.112176327064248"><ele>460.0</ele><time>2026-05-01T08:40:13Z</time></trkpt><trkpt lat="45.13230517224346" lon="7.111847735251956"><ele>460.0</ele><time>2026-05-01T08:40:14Z</time></trkpt><trkpt lat="45.13226379926174" lon="7.1115310774512945"><ele>460.0</ele><time>2026-05-01T08:40:15Z</time></trkpt><trkpt lat="45.13221886872927" lon="7.1112182031909725"><ele>460.0</ele><time>2026-05-01T08:40:16Z</time></trkpt><trkpt lat="45.13218532670604" lon="7.110931032793934"><ele>460.0</ele><time>2026-05-01T08:40:17Z</time></trkpt><trkpt lat="45.13214164122008" lon="7.1106307854914705"><ele>460.0</ele><time>2026-05-01T08:40:18Z</time></trkpt><trkpt lat="45.132108094817326" lon="7.1103591073211385"><ele>459.6666666666667</ele><time>2026-05-01T08:40:19Z</time></trkpt><trkpt lat="45.13206679631126" lon="7.110074609474213"><ele>459.33333333333337</ele><time>2026-05-01T08:40:20Z</time></trkpt><trkpt lat="45.132042084442936" lon="7.109832832586556"><ele>459.0</ele><time>2026-05-01T08:40:21Z</time></trkpt><trkpt lat="45.13201570071685" lon="7.10957370891292"><ele>459.0</ele><time>2026-05-01T08:40:22Z</time></trkpt><trkpt lat="45.131991772391174" lon="7.109326309559967"><ele>459.0</ele><time>2026-05-01T08:40:23Z</time></trkpt><trkpt lat="45.131956245517074" lon="7.10906797050797"><ele>459.0</ele><time>2026-05-01T08:40:24Z</time></trkpt><trkpt lat="45.131935616753296" lon="7.108827173033173"><ele>458.33333333333337</ele><time>2026-05-01T08:40:25Z</time></trkpt><trkpt lat="45.1319067743818" lon="7.108567351072641"><ele>457.6666666666667</ele><time>2026-05-01T08:40:26Z</time></trkpt><trkpt lat="45.13189245614426" lon="7.108298027187348"><ele>457.0</ele><time>2026-05-01T08:40:27Z</time></trkpt><trkpt lat="45.13189831346727" lon="7.108040944422409"><ele>456.33333333333337</ele><time>2026-05-01T08:40:28Z</time></trkpt><trkpt lat="45.13192897882816" lon="7.107786614070235"><ele>455.66666666666663</ele><time>2026-05-01T08:40:29Z</time></trkpt><trkpt lat="45.13198465923832" lon="7.10752409822342"><ele>455.0</ele><time>2026-05-01T08:40:30Z</time></trkpt><trkpt lat="45.13202791814121" lon="7.107234799933441"><ele>455.0</ele><time>2026-05-01T08:40:31Z</time></trkpt><trkpt lat="45.132067972845014" lon="7.10696035838303"><ele>455.0</ele><time>2026-05-01T08:40:32Z</time></trkpt><trkpt lat="45.13211007574283" lon="7.106677812845998"><ele>455.0</ele><time>2026-05-01T08:40:33Z</time></trkpt><trkpt lat="45.132161329110744" lon="7.106375506036701"><ele>455.0</ele><time>2026-05-01T08:40:34Z</time></trkpt><trkpt lat="45.13220968771672" lon="7.106057393703336"><ele>455.0</ele><time>2026-05-01T08:40:35Z</time></trkpt><trkpt lat="45.1322481953572" lon="7.105700635453364"><ele>455.5</ele><time>2026-05-01T08:40:36Z</time></trkpt><trkpt lat="45.13229466108397" lon="7.1053551981636645"><ele>456.0</ele><time>2026-05-01T08:40:37Z</time></trkpt><trkpt lat="45.13232097768881" lon="7.105022215398999"><ele>457.0</ele><time>2026-05-01T08:40:38Z</time></trkpt><trkpt lat="45.13233433388989" lon="7.104670516404761"><ele>458.0</ele><time>2026-05-01T08:40:39Z</time></trkpt><trkpt lat="45.13230638794409" lon="7.10428790442542"><ele>459.0</ele><time>2026-05-01T08:40:40Z</time></trkpt><trkpt lat="45.13227600746563" lon="7.103920193884916"><ele>460.0</ele><time>2026-05-01T08:40:41Z</time></trkpt><trkpt lat="45.13225210597393" lon="7.103575833934235"><ele>460.0</ele><time>2026-05-01T08:40:42Z</time></trkpt><trkpt lat="45.13222422958918" lon="7.10320662922806"><ele>460.0</ele><time>2026-05-01T08:40:43Z</time></trkpt><trkpt lat="45.132223634434006" lon="7.102866277823667"><ele>460.0</ele><time>2026-05-01T08:40:44Z</time></trkpt><trkpt lat="45.1322401887833" lon="7.1025094469790755"><ele>460.0</ele><time>2026-05-01T08:40:45Z</time></trkpt><trkpt lat="45.13225499169137" lon="7.10216142461119"><ele>461.0</ele><time>2026-05-01T08:40:46Z</time></trkpt><trkpt lat="45.13229048500841" lon="7.101802001002245"><ele>462.0</ele><time>2026-05-01T08:40:47Z</time></trkpt><trkpt lat="45.13234237187679" lon="7.101430826314774"><ele>462.0</ele><time>2026-05-01T08:40:48Z</time></trkpt><trkpt lat="45.13241039039949" lon="7.101083040734366"><ele>462.0</ele><time>2026-05-01T08:40:49Z</time></trkpt><trkpt lat="45.132487009408635" lon="7.100729604048438"><ele>462.0</ele><time>2026-05-01T08:40:50Z</time></trkpt><trkpt lat="45.1325700992023" lon="7.10038775881557"><ele>462.0</ele><time>2026-05-01T08:40:51Z</time></trkpt><trkpt lat="45.132677371154095" lon="7.100041155545214"><ele>463.0</ele><time>2026-05-01T08:40:52Z</time></trkpt><trkpt lat="45.13278561702855" lon="7.099681511416644"><ele>464.0</ele><time>2026-05-01T08:40:53Z</time></trkpt><trkpt lat="45.132878423728755" lon="7.0993290736954915"><ele>464.5</ele><time>2026-05-01T08:40:54Z</time></trkpt><trkpt lat="45.13294887027357" lon="7.098962735179993"><ele>465.0</ele><time>2026-05-01T08:40:55Z</time></trkpt><trkpt lat="45.133012912045785" lon="7.098618093385183"><ele>465.0</ele><time>2026-05-01T08:40:56Z</time></trkpt><trkpt lat="45.13306466121438" lon="7.098276087548807"><ele>465.0</ele><time>2026-05-01T08:40:57Z</time></trkpt><trkpt lat="45.13310547907444" lon="7.097926204633222"><ele>466.0</ele><time>2026-05-01T08:40:58Z</time></trkpt><trkpt lat="45.133152033572344" lon="7.097598133814192"><ele>467.0</ele><time>2026-05-01T08:40:59Z</time></trkpt><trkpt lat="45.133218066829585" lon="7.097277611637637"><ele>467.0</ele><time>2026-05-01T08:41:00Z</time></trkpt><trkpt lat="45.133269954843186" lon="7.096968626178574"><ele>467.0</ele><time>2026-05-01T08:41:01Z</time></trkpt><trkpt lat="45.13334315087666" lon="7.096699641873351"><ele>467.0</ele><time>2026-05-01T08:41:02Z</time></trkpt><trkpt lat="45.133431667993925" lon="7.096453336149951"><ele>467.3333333333333</ele><time>2026-05-01T08:41:03Z</time></trkpt><trkpt lat="45.133522484970655" lon="7.096199012626975"><ele>467.66666666666663</ele><time>2026-05-01T08:41:04Z</time></trkpt><trkpt lat="45.1336253938548" lon="7.095942051698542"><ele>468.0</ele><time>2026-05-01T08:41:05Z</time></trkpt><trkpt lat="45.13374864476149" lon="7.09567232597134"><ele>468.66666666666663</ele><time>2026-05-01T08:41:06Z</time></trkpt><trkpt lat="45.133847916195684" lon="7.095399382349308"><ele>469.3333333333333</ele><time>2026-05-01T08:41:07Z</time></trkpt><trkpt lat="45.13395573457038" lon="7.095120672520885"><ele>470.0</ele><time>2026-05-01T08:41:08Z</time></trkpt><trkpt lat="45.13405621051224" lon="7.094869561490797"><ele>470.0</ele><time>2026-05-01T08:41:09Z</time></trkpt><trkpt lat="45.13413927164871" lon="7.094615572227862"><ele>470.0</ele><time>2026-05-01T08:41:09.999Z</time></trkpt><trkpt lat="45.134216901296895" lon="7.094339028536246"><ele>470.0</ele><time>2026-05-01T08:41:10.999Z</time></trkpt><trkpt lat="45.134286128085314" lon="7.094050148173261"><ele>469.66666666666663</ele><time>2026-05-01T08:41:11.999Z</time></trkpt><trkpt lat="45.13434830985469" lon="7.0937616854422645"><ele>469.33333333333337</ele><time>2026-05-01T08:41:12.999Z</time></trkpt><trkpt lat="45.13438333495524" lon="7.09345907014162"><ele>469.0</ele><time>2026-05-01T08:41:13.999Z</time></trkpt><trkpt lat="45.13441443639479" lon="7.093135808744703"><ele>469.0</ele><time>2026-05-01T08:41:14.999Z</time></trkpt><trkpt lat="45.13443114418716" lon="7.092819709177169"><ele>469.0</ele><time>2026-05-01T08:41:15.999Z</time></trkpt><trkpt lat="45.13444469256017" lon="7.092496467121365"><ele>469.0</ele><time>2026-05-01T08:41:16.999Z</time></trkpt><trkpt lat="45.13447568312277" lon="7.092181833255688"><ele>469.0</ele><time>2026-05-01T08:41:17.999Z</time></trkpt><trkpt lat="45.13450906800921" lon="7.091872178469172"><ele>469.0</ele><time>2026-05-01T08:41:18.999Z</time></trkpt><trkpt lat="45.13452697118368" lon="7.091551855965911"><ele>469.33333333333337</ele><time>2026-05-01T08:41:19.999Z</time></trkpt><trkpt lat="45.13456254205378" lon="7.091250572241458"><ele>469.66666666666663</ele><time>2026-05-01T08:41:20.999Z</time></trkpt><trkpt lat="45.134586128373364" lon="7.090933721535298"><ele>470.0</ele><time>2026-05-01T08:41:21.999Z</time></trkpt><trkpt lat="45.13460457786668" lon="7.090623216432069"><ele>470.66666666666663</ele><time>2026-05-01T08:41:22.999Z</time></trkpt><trkpt lat="45.1346289178898" lon="7.090316970545346"><ele>471.33333333333337</ele><time>2026-05-01T08:41:23.999Z</time></trkpt><trkpt lat="45.134654346733974" lon="7.090014687042156"><ele>472.0</ele><time>2026-05-01T08:41:24.999Z</time></trkpt><trkpt lat="45.134678320044024" lon="7.089705980209556"><ele>472.0</ele><time>2026-05-01T08:41:25.999Z</time></trkpt><trkpt lat="45.13470336474514" lon="7.089403437144714"><ele>472.0</ele><time>2026-05-01T08:41:26.999Z</time></trkpt><trkpt lat="45.13472429517342" lon="7.0890875647217095"><ele>472.0</ele><time>2026-05-01T08:41:27.999Z</time></trkpt><trkpt lat="45.13474687504423" lon="7.088774290380486"><ele>473.5</ele><time>2026-05-01T08:41:28.999Z</time></trkpt><trkpt lat="45.13477963385877" lon="7.088439337094659"><ele>475.0</ele><time>2026-05-01T08:41:29.999Z</time></trkpt><trkpt lat="45.13480877172006" lon="7.08813491438797"><ele>475.5</ele><time>2026-05-01T08:41:30.999Z</time></trkpt><trkpt lat="45.1348385303965" lon="7.087813911153166"><ele>476.0</ele><time>2026-05-01T08:41:31.999Z</time></trkpt><trkpt lat="45.134867858254225" lon="7.087496817784658"><ele>474.0</ele><time>2026-05-01T08:41:32.999Z</time></trkpt><trkpt lat="45.134895008074196" lon="7.0871689728223695"><ele>472.0</ele><time>2026-05-01T08:41:33.999Z</time></trkpt><trkpt lat="45.13493048402777" lon="7.086860891058623"><ele>473.0</ele><time>2026-05-01T08:41:34.999Z</time></trkpt><trkpt lat="45.13495173615418" lon="7.086531941959313"><ele>474.0</ele><time>2026-05-01T08:41:35.999Z</time></trkpt><trkpt lat="45.134980081590044" lon="7.086226827197939"><ele>474.0</ele><time>2026-05-01T08:41:36.999Z</time></trkpt><trkpt lat="45.13500514678806" lon="7.085934663383863"><ele>474.0</ele><time>2026-05-01T08:41:37.999Z</time></trkpt><trkpt lat="45.135032754970815" lon="7.085646211888697"><ele>474.0</ele><time>2026-05-01T08:41:38.999Z</time></trkpt><trkpt lat="45.13504945646222" lon="7.085363163669398"><ele>474.33333333333337</ele><time>2026-05-01T08:41:39.999Z</time></trkpt><trkpt lat="45.13505913012502" lon="7.085110240719063"><ele>474.6666666666667</ele><time>2026-05-01T08:41:40.999Z</time></trkpt><trkpt lat="45.135063032117976" lon="7.0848640409479735"><ele>475.0</ele><time>2026-05-01T08:41:41.999Z</time></trkpt><trkpt lat="45.13506252746132" lon="7.084622358091848"><ele>475.33333333333337</ele><time>2026-05-01T08:41:42.999Z</time></trkpt><trkpt lat="45.13503495761139" lon="7.084400975741096"><ele>475.66666666666663</ele><time>2026-05-01T08:41:43.999Z</time></trkpt><trkpt lat="45.1350152697838" lon="7.084144220638069"><ele>476.0</ele><time>2026-05-01T08:41:44.999Z</time></trkpt><trkpt lat="45.13498968353668" lon="7.0838914427978725"><ele>476.0</ele><time>2026-05-01T08:41:45.999Z</time></trkpt><trkpt lat="45.13495324853128" lon="7.083621126900172"><ele>476.0</ele><time>2026-05-01T08:41:46.999Z</time></trkpt><trkpt lat="45.13492318299341" lon="7.083347742273145"><ele>476.0</ele><time>2026-05-01T08:41:47.999Z</time></trkpt><trkpt lat="45.13487030616546" lon="7.083069153347281"><ele>476.66666666666663</ele><time>2026-05-01T08:41:48.999Z</time></trkpt><trkpt lat="45.134807738165684" lon="7.082795433003227"><ele>477.33333333333337</ele><time>2026-05-01T08:41:49.999Z</time></trkpt><trkpt lat="45.134741572457614" lon="7.082524461388559"><ele>478.0</ele><time>2026-05-01T08:41:50.999Z</time></trkpt><trkpt lat="45.13466269291915" lon="7.0822451334284935"><ele>478.0</ele><time>2026-05-01T08:41:51.999Z</time></trkpt><trkpt lat="45.134576140895625" lon="7.081955779145462"><ele>478.0</ele><time>2026-05-01T08:41:52.999Z</time></trkpt><trkpt lat="45.13448483262424" lon="7.081673397827599"><ele>478.0</ele><time>2026-05-01T08:41:53.999Z</time></trkpt><trkpt lat="45.13440206479757" lon="7.081400221869412"><ele>477.0</ele><time>2026-05-01T08:41:54.999Z</time></trkpt><trkpt lat="45.13431754360501" lon="7.081132963055979"><ele>476.0</ele><time>2026-05-01T08:41:55.999Z</time></trkpt><trkpt lat="45.134234186352685" lon="7.08085353033474"><ele>475.0</ele><time>2026-05-01T08:41:56.999Z</time></trkpt><trkpt lat="45.134147664302326" lon="7.080559283268145"><ele>475.0</ele><time>2026-05-01T08:41:57.999Z</time></trkpt><trkpt lat="45.13406373841595" lon="7.080264587819661"><ele>475.0</ele><time>2026-05-01T08:41:58.999Z</time></trkpt><trkpt lat="45.13397542989582" lon="7.079969680529216"><ele>475.0</ele><time>2026-05-01T08:41:59.999Z</time></trkpt><trkpt lat="45.13389230995382" lon="7.079670499776727"><ele>475.0</ele><time>2026-05-01T08:42:00.999Z</time></trkpt><trkpt lat="45.13382448305031" lon="7.0793813278130955"><ele>475.0</ele><time>2026-05-01T08:42:01.999Z</time></trkpt><trkpt lat="45.133770753385846" lon="7.079066667821107"><ele>475.0</ele><time>2026-05-01T08:42:02.999Z</time></trkpt><trkpt lat="45.13369661974774" lon="7.0787539602533744"><ele>475.0</ele><time>2026-05-01T08:42:03.999Z</time></trkpt><trkpt lat="45.1336267168878" lon="7.078444257045341"><ele>474.5</ele><time>2026-05-01T08:42:04.999Z</time></trkpt><trkpt lat="45.13356368427428" lon="7.078139562196541"><ele>474.0</ele><time>2026-05-01T08:42:05.999Z</time></trkpt><trkpt lat="45.13348744340228" lon="7.077807628068901"><ele>474.0</ele><time>2026-05-01T08:42:06.999Z</time></trkpt><trkpt lat="45.133425750413224" lon="7.077482371485444"><ele>474.0</ele><time>2026-05-01T08:42:07.999Z</time></trkpt><trkpt lat="45.13335543678307" lon="7.077151698958955"><ele>473.5</ele><time>2026-05-01T08:42:09Z</time></trkpt><trkpt lat="45.13329746232559" lon="7.076845726419777"><ele>473.0</ele><time>2026-05-01T08:42:10Z</time></trkpt><trkpt lat="45.13322723312172" lon="7.07651767581708"><ele>473.0</ele><time>2026-05-01T08:42:11Z</time></trkpt><trkpt lat="45.133158516180366" lon="7.0761870402979135"><ele>473.0</ele><time>2026-05-01T08:42:12Z</time></trkpt><trkpt lat="45.13309266679934" lon="7.075892522144245"><ele>474.5</ele><time>2026-05-01T08:42:13Z</time></trkpt><trkpt lat="45.13302823059429" lon="7.075554301508876"><ele>476.0</ele><time>2026-05-01T08:42:14Z</time></trkpt><trkpt lat="45.13296456927439" lon="7.075220591027155"><ele>476.0</ele><time>2026-05-01T08:42:15Z</time></trkpt><trkpt lat="45.13290827763824" lon="7.074877689541705"><ele>476.0</ele><time>2026-05-01T08:42:16Z</time></trkpt><trkpt lat="45.13286776272778" lon="7.074545984478976"><ele>476.0</ele><time>2026-05-01T08:42:17Z</time></trkpt><trkpt lat="45.13285072294826" lon="7.0742150395235965"><ele>476.0</ele><time>2026-05-01T08:42:18Z</time></trkpt><trkpt lat="45.132846869321845" lon="7.073889898935632"><ele>476.0</ele><time>2026-05-01T08:42:19Z</time></trkpt><trkpt lat="45.132842518106706" lon="7.073552374675988"><ele>476.0</ele><time>2026-05-01T08:42:20Z</time></trkpt><trkpt lat="45.13283662453094" lon="7.0732142124198685"><ele>476.0</ele><time>2026-05-01T08:42:21Z</time></trkpt><trkpt lat="45.13285498691721" lon="7.07290335331614"><ele>476.0</ele><time>2026-05-01T08:42:22Z</time></trkpt><trkpt lat="45.13285640050966" lon="7.072574444619256"><ele>476.5</ele><time>2026-05-01T08:42:23Z</time></trkpt><trkpt lat="45.13285196398225" lon="7.072249032059998"><ele>477.0</ele><time>2026-05-01T08:42:24Z</time></trkpt><trkpt lat="45.132845706710384" lon="7.0719294138757824"><ele>477.0</ele><time>2026-05-01T08:42:25Z</time></trkpt><trkpt lat="45.13283397816461" lon="7.071610456431326"><ele>477.0</ele><time>2026-05-01T08:42:26Z</time></trkpt><trkpt lat="45.132827509142615" lon="7.071282206993455"><ele>477.5</ele><time>2026-05-01T08:42:27Z</time></trkpt><trkpt lat="45.13282861183186" lon="7.070968146146404"><ele>478.0</ele><time>2026-05-01T08:42:28Z</time></trkpt><trkpt lat="45.13282605076208" lon="7.070642417477874"><ele>478.0</ele><time>2026-05-01T08:42:29Z</time></trkpt><trkpt lat="45.13282819337504" lon="7.070333627802748"><ele>478.0</ele><time>2026-05-01T08:42:30Z</time></trkpt><trkpt lat="45.13282918905211" lon="7.0700117196458345"><ele>478.0</ele><time>2026-05-01T08:42:31Z</time></trkpt><trkpt lat="45.13283225656968" lon="7.069681791720005"><ele>478.5</ele><time>2026-05-01T08:42:32Z</time></trkpt><trkpt lat="45.13283364278293" lon="7.069351516787226"><ele>479.0</ele><time>2026-05-01T08:42:33Z</time></trkpt><trkpt lat="45.13282850968085" lon="7.069010099114222"><ele>479.5</ele><time>2026-05-01T08:42:34Z</time></trkpt><trkpt lat="45.132830988188566" lon="7.068693912240716"><ele>480.0</ele><time>2026-05-01T08:42:35Z</time></trkpt><trkpt lat="45.13282957079738" lon="7.068370332951935"><ele>481.0</ele><time>2026-05-01T08:42:36Z</time></trkpt><trkpt lat="45.132830373645014" lon="7.068069382677719"><ele>482.0</ele><time>2026-05-01T08:42:37Z</time></trkpt><trkpt lat="45.132830183439225" lon="7.067762980573465"><ele>483.0</ele><time>2026-05-01T08:42:38Z</time></trkpt><trkpt lat="45.132836805606054" lon="7.067468461015553"><ele>484.0</ele><time>2026-05-01T08:42:39Z</time></trkpt><trkpt lat="45.13283707585684" lon="7.0671769041965815"><ele>485.0</ele><time>2026-05-01T08:42:40Z</time></trkpt><trkpt lat="45.13284079557708" lon="7.066893010456193"><ele>486.0</ele><time>2026-05-01T08:42:41Z</time></trkpt><trkpt lat="45.13284132575293" lon="7.066617903185544"><ele>486.33333333333337</ele><time>2026-05-01T08:42:42Z</time></trkpt><trkpt lat="45.13285159637778" lon="7.06635977112503"><ele>486.6666666666667</ele><time>2026-05-01T08:42:43Z</time></trkpt><trkpt lat="45.132848669941765" lon="7.066093670418329"><ele>487.0</ele><time>2026-05-01T08:42:44Z</time></trkpt><trkpt lat="45.13285161839399" lon="7.0658304555923594"><ele>486.33333333333337</ele><time>2026-05-01T08:42:45Z</time></trkpt><trkpt lat="45.132854230313356" lon="7.0655820550183535"><ele>485.66666666666663</ele><time>2026-05-01T08:42:46Z</time></trkpt><trkpt lat="45.13285565477521" lon="7.065322548298776"><ele>485.0</ele><time>2026-05-01T08:42:47Z</time></trkpt><trkpt lat="45.13284858498905" lon="7.065038799226608"><ele>485.0</ele><time>2026-05-01T08:42:48Z</time></trkpt><trkpt lat="45.13285943501214" lon="7.06478069198254"><ele>485.0</ele><time>2026-05-01T08:42:49Z</time></trkpt><trkpt lat="45.13288406769171" lon="7.0645223977816185"><ele>485.0</ele><time>2026-05-01T08:42:50Z</time></trkpt><trkpt lat="45.13293977418403" lon="7.064242076030234"><ele>485.3333333333333</ele><time>2026-05-01T08:42:51Z</time></trkpt><trkpt lat="45.13300314267688" lon="7.063980254036596"><ele>485.66666666666663</ele><time>2026-05-01T08:42:52Z</time></trkpt><trkpt lat="45.13308996158927" lon="7.063756932313823"><ele>486.0</ele><time>2026-05-01T08:42:53Z</time></trkpt><trkpt lat="45.13317537714562" lon="7.063511981230459"><ele>485.33333333333337</ele><time>2026-05-01T08:42:54Z</time></trkpt><trkpt lat="45.1332654922915" lon="7.063275657810964"><ele>484.6666666666667</ele><time>2026-05-01T08:42:55Z</time></trkpt><trkpt lat="45.133351767062464" lon="7.063067430546097"><ele>484.0</ele><time>2026-05-01T08:42:56Z</time></trkpt><trkpt lat="45.13343900777963" lon="7.062842029666349"><ele>484.0</ele><time>2026-05-01T08:42:57Z</time></trkpt><trkpt lat="45.13351785262122" lon="7.0626115573709205"><ele>484.0</ele><time>2026-05-01T08:42:58Z</time></trkpt><trkpt lat="45.13359465141042" lon="7.062412139064101"><ele>484.0</ele><time>2026-05-01T08:42:59Z</time></trkpt><trkpt lat="45.13367181784473" lon="7.062193145301586"><ele>484.0</ele><time>2026-05-01T08:43:00Z</time></trkpt><trkpt lat="45.133748646733245" lon="7.061982435391272"><ele>484.0</ele><time>2026-05-01T08:43:01Z</time></trkpt><trkpt lat="45.133825524472215" lon="7.061756259223445"><ele>484.0</ele><time>2026-05-01T08:43:02Z</time></trkpt><trkpt lat="45.1339096047933" lon="7.061550080129822"><ele>483.6666666666667</ele><time>2026-05-01T08:43:03Z</time></trkpt><trkpt lat="45.13398327258128" lon="7.061342610895009"><ele>483.33333333333337</ele><time>2026-05-01T08:43:04Z</time></trkpt><trkpt lat="45.13405764571614" lon="7.0611364837129855"><ele>483.0</ele><time>2026-05-01T08:43:05Z</time></trkpt><trkpt lat="45.13412257592167" lon="7.060937885795984"><ele>484.0</ele><time>2026-05-01T08:43:06Z</time></trkpt><trkpt lat="45.13419628215969" lon="7.060761895621347"><ele>485.0</ele><time>2026-05-01T08:43:07Z</time></trkpt><trkpt lat="45.13425228549404" lon="7.060570785054812"><ele>486.0</ele><time>2026-05-01T08:43:08Z</time></trkpt><trkpt lat="45.13433101466378" lon="7.060414985408596"><ele>487.0</ele><time>2026-05-01T08:43:09Z</time></trkpt><trkpt lat="45.13438955638883" lon="7.060287143846434"><ele>487.0</ele><time>2026-05-01T08:43:10Z</time></trkpt><trkpt lat="45.134433412346404" lon="7.0601716825840235"><ele>487.00000000000006</ele><time>2026-05-01T08:43:11Z</time></trkpt><trkpt lat="45.134490158076794" lon="7.060064062950519"><ele>487.00000000000006</ele><time>2026-05-01T08:43:12Z</time></trkpt><trkpt lat="45.13456844503293" lon="7.060008360754577"><ele>487.0</ele><time>2026-05-01T08:43:13Z</time></trkpt><trkpt lat="45.13466601692846" lon="7.059877444027423"><ele>487.0</ele><time>2026-05-01T08:43:15Z</time></trkpt><trkpt lat="45.13472006264059" lon="7.059720719603327"><ele>487.20000000000005</ele><time>2026-05-01T08:43:17Z</time></trkpt><trkpt lat="45.13472665804144" lon="7.059598458854264"><ele>487.40000000000003</ele><time>2026-05-01T08:43:18Z</time></trkpt><trkpt lat="45.13469237803831" lon="7.059445436556982"><ele>487.59999999999997</ele><time>2026-05-01T08:43:19Z</time></trkpt><trkpt lat="45.13472874217427" lon="7.059306188583394"><ele>487.79999999999995</ele><time>2026-05-01T08:43:20Z</time></trkpt><trkpt lat="45.13475798054814" lon="7.059140116473175"><ele>488.0</ele><time>2026-05-01T08:43:21Z</time></trkpt><trkpt lat="45.13480193905881" lon="7.058996459916379"><ele>488.0</ele><time>2026-05-01T08:43:22Z</time></trkpt><trkpt lat="45.134833758445154" lon="7.058867044732938"><ele>487.99999999999994</ele><time>2026-05-01T08:43:23Z</time></trkpt><trkpt lat="45.13486610261814" lon="7.058763471656881"><ele>487.99999999999994</ele><time>2026-05-01T08:43:24Z</time></trkpt><trkpt lat="45.134906852960604" lon="7.058681584284367"><ele>488.0</ele><time>2026-05-01T08:43:24.999Z</time></trkpt><trkpt lat="45.13495927028066" lon="7.058540178670312"><ele>488.0</ele><time>2026-05-01T08:43:26.999Z</time></trkpt><trkpt lat="45.135028687815904" lon="7.058406370838522"><ele>488.25</ele><time>2026-05-01T08:43:28.999Z</time></trkpt><trkpt lat="45.135074406212574" lon="7.058283971892973"><ele>488.5</ele><time>2026-05-01T08:43:29.999Z</time></trkpt><trkpt lat="45.135135176305965" lon="7.058157040578559"><ele>488.75</ele><time>2026-05-01T08:43:30.999Z</time></trkpt><trkpt lat="45.13520483046561" lon="7.057953726896423"><ele>489.0</ele><time>2026-05-01T08:43:31.999Z</time></trkpt><trkpt lat="45.135272659943766" lon="7.057757386214477"><ele>489.0</ele><time>2026-05-01T08:43:32.999Z</time></trkpt><trkpt lat="45.13534969509878" lon="7.057571069241902"><ele>489.0</ele><time>2026-05-01T08:43:33.999Z</time></trkpt><trkpt lat="45.13541882731464" lon="7.057333202854762"><ele>489.0</ele><time>2026-05-01T08:43:34.999Z</time></trkpt><trkpt lat="45.13551128921933" lon="7.057086821687265"><ele>489.0</ele><time>2026-05-01T08:43:35.999Z</time></trkpt><trkpt lat="45.135664424074456" lon="7.056818100490877"><ele>489.0</ele><time>2026-05-01T08:43:36.999Z</time></trkpt><trkpt lat="45.1357318197473" lon="7.056574018817793"><ele>489.0</ele><time>2026-05-01T08:43:37.999Z</time></trkpt><trkpt lat="45.13581696768818" lon="7.056362990923012"><ele>489.0</ele><time>2026-05-01T08:43:38.999Z</time></trkpt><trkpt lat="45.135897143538074" lon="7.056129306563665"><ele>489.0</ele><time>2026-05-01T08:43:39.999Z</time></trkpt><trkpt lat="45.13597454408705" lon="7.055909638819959"><ele>489.0</ele><time>2026-05-01T08:43:40.999Z</time></trkpt><trkpt lat="45.13602147803017" lon="7.0556720526780925"><ele>492.0</ele><time>2026-05-01T08:43:41.999Z</time></trkpt><trkpt lat="45.1360735448122" lon="7.055449916007383"><ele>495.0</ele><time>2026-05-01T08:43:42.999Z</time></trkpt><trkpt lat="45.136114434701426" lon="7.055233438624835"><ele>498.0</ele><time>2026-05-01T08:43:43.999Z</time></trkpt><trkpt lat="45.13615132320229" lon="7.055009577708185"><ele>497.66666666666663</ele><time>2026-05-01T08:43:44.999Z</time></trkpt><trkpt lat="45.13614839437138" lon="7.054777727124698"><ele>497.3333333333333</ele><time>2026-05-01T08:43:45.999Z</time></trkpt><trkpt lat="45.136132261302386" lon="7.054549773380499"><ele>497.0</ele><time>2026-05-01T08:43:46.999Z</time></trkpt><trkpt lat="45.13608925097279" lon="7.054353370871733"><ele>497.0</ele><time>2026-05-01T08:43:47.999Z</time></trkpt><trkpt lat="45.136022381672674" lon="7.054163654075575"><ele>497.0</ele><time>2026-05-01T08:43:48.999Z</time></trkpt><trkpt lat="45.13591512716307" lon="7.053971138738878"><ele>497.0</ele><time>2026-05-01T08:43:49.999Z</time></trkpt><trkpt lat="45.135825823458" lon="7.053755674169277"><ele>497.0</ele><time>2026-05-01T08:43:50.999Z</time></trkpt><trkpt lat="45.135747444323435" lon="7.053553215090255"><ele>497.0</ele><time>2026-05-01T08:43:51.999Z</time></trkpt><trkpt lat="45.13564901057248" lon="7.053348641415156"><ele>497.0</ele><time>2026-05-01T08:43:52.999Z</time></trkpt><trkpt lat="45.13554671413364" lon="7.053139097440119"><ele>497.0</ele><time>2026-05-01T08:43:53.999Z</time></trkpt><trkpt lat="45.13545720395503" lon="7.052940622015871"><ele>497.0</ele><time>2026-05-01T08:43:54.999Z</time></trkpt><trkpt lat="45.13535901443728" lon="7.052751287036212"><ele>497.0</ele><time>2026-05-01T08:43:55.999Z</time></trkpt><trkpt lat="45.13528647912921" lon="7.052552935898847"><ele>497.25</ele><time>2026-05-01T08:43:56.999Z</time></trkpt><trkpt lat="45.13522217290495" lon="7.052367590010944"><ele>497.5</ele><time>2026-05-01T08:43:57.999Z</time></trkpt><trkpt lat="45.13515944112222" lon="7.052205080264435"><ele>497.75</ele><time>2026-05-01T08:43:58.999Z</time></trkpt><trkpt lat="45.13511525240774" lon="7.052035394342131"><ele>498.0</ele><time>2026-05-01T08:43:59.999Z</time></trkpt><trkpt lat="45.135078995322075" lon="7.051931555398214"><ele>498.0</ele><time>2026-05-01T08:44:00.999Z</time></trkpt><trkpt lat="45.13502837049844" lon="7.051777645144006"><ele>498.0</ele><time>2026-05-01T08:44:01.999Z</time></trkpt><trkpt lat="45.13497825906212" lon="7.051609751945742"><ele>498.0</ele><time>2026-05-01T08:44:02.999Z</time></trkpt><trkpt lat="45.134923535274204" lon="7.051433982508403"><ele>498.0</ele><time>2026-05-01T08:44:03.999Z</time></trkpt><trkpt lat="45.13487142213476" lon="7.051285442524591"><ele>498.79999999999995</ele><time>2026-05-01T08:44:04.999Z</time></trkpt><trkpt lat="45.1348251063122" lon="7.051135914388636"><ele>499.59999999999997</ele><time>2026-05-01T08:44:05.999Z</time></trkpt><trkpt lat="45.134769975928364" lon="7.050993983863871"><ele>500.40000000000003</ele><time>2026-05-01T08:44:06.999Z</time></trkpt><trkpt lat="45.134736573140316" lon="7.0508615137474475"><ele>501.20000000000005</ele><time>2026-05-01T08:44:07.999Z</time></trkpt><trkpt lat="45.134689919911104" lon="7.050733485882952"><ele>502.0</ele><time>2026-05-01T08:44:08.999Z</time></trkpt><trkpt lat="45.13464733281053" lon="7.050620353273051"><ele>502.40000000000003</ele><time>2026-05-01T08:44:09.999Z</time></trkpt><trkpt lat="45.134600626238196" lon="7.050523354460296"><ele>502.80000000000007</ele><time>2026-05-01T08:44:10.999Z</time></trkpt><trkpt lat="45.13453789039512" lon="7.050356123646842"><ele>503.2</ele><time>2026-05-01T08:44:12.999Z</time></trkpt><trkpt lat="45.13448896909241" lon="7.050249009054287"><ele>503.6</ele><time>2026-05-01T08:44:13.999Z</time></trkpt><trkpt lat="45.13446239310675" lon="7.050154929615364"><ele>504.0</ele><time>2026-05-01T08:44:15Z</time></trkpt><trkpt lat="45.13442818019808" lon="7.050032625640654"><ele>504.6</ele><time>2026-05-01T08:44:16Z</time></trkpt><trkpt lat="45.134397978471604" lon="7.0499210382053015"><ele>505.2</ele><time>2026-05-01T08:44:17Z</time></trkpt><trkpt lat="45.13435464312199" lon="7.0497915754891025"><ele>505.80000000000007</ele><time>2026-05-01T08:44:18Z</time></trkpt><trkpt lat="45.13431672333605" lon="7.049669368861802"><ele>506.40000000000003</ele><time>2026-05-01T08:44:19Z</time></trkpt><trkpt lat="45.13427241471031" lon="7.0495154684793615"><ele>507.0</ele><time>2026-05-01T08:44:20Z</time></trkpt><trkpt lat="45.13421936374" lon="7.049384949075818"><ele>507.0</ele><time>2026-05-01T08:44:21Z</time></trkpt><trkpt lat="45.134161443100034" lon="7.049213948206508"><ele>507.0</ele><time>2026-05-01T08:44:22Z</time></trkpt><trkpt lat="45.13409809842438" lon="7.049032341794256"><ele>507.0</ele><time>2026-05-01T08:44:23Z</time></trkpt><trkpt lat="45.13403226065993" lon="7.048850300119558"><ele>507.0</ele><time>2026-05-01T08:44:24Z</time></trkpt><trkpt lat="45.13397225152418" lon="7.048673468156537"><ele>509.0</ele><time>2026-05-01T08:44:25Z</time></trkpt><trkpt lat="45.1339184276409" lon="7.048507339598027"><ele>511.0</ele><time>2026-05-01T08:44:26Z</time></trkpt><trkpt lat="45.133862420909175" lon="7.048348617968225"><ele>513.0</ele><time>2026-05-01T08:44:27Z</time></trkpt><trkpt lat="45.133818654718915" lon="7.048225605104913"><ele>515.0</ele><time>2026-05-01T08:44:28Z</time></trkpt><trkpt lat="45.13376642282548" lon="7.048092490470343"><ele>515.0</ele><time>2026-05-01T08:44:29Z</time></trkpt><trkpt lat="45.133711345702245" lon="7.047976630803057"><ele>515.0</ele><time>2026-05-01T08:44:30Z</time></trkpt><trkpt lat="45.13362587516341" lon="7.047862508468937"><ele>515.0</ele><time>2026-05-01T08:44:31Z</time></trkpt><trkpt lat="45.13358037224347" lon="7.04775801759941"><ele>515.0</ele><time>2026-05-01T08:44:32Z</time></trkpt><trkpt lat="45.13353994187083" lon="7.047688925820554"><ele>515.0</ele><time>2026-05-01T08:44:33Z</time></trkpt><trkpt lat="45.133609652855675" lon="7.047735558777904"><ele>515.0</ele><time>2026-05-01T08:44:38Z</time></trkpt><trkpt lat="45.13355245551542" lon="7.047582550715616"><ele>514.8</ele><time>2026-05-01T08:44:44Z</time></trkpt><trkpt lat="45.1334781828515" lon="7.0474233871867265"><ele>514.6</ele><time>2026-05-01T08:44:46Z</time></trkpt><trkpt lat="45.133412314420944" lon="7.047326317104823"><ele>514.4</ele><time>2026-05-01T08:44:48Z</time></trkpt><trkpt lat="45.13336797344091" lon="7.0472464722334776"><ele>514.2</ele><time>2026-05-01T08:44:52Z</time></trkpt><trkpt lat="45.133333597077645" lon="7.047143131592536"><ele>514.0</ele><time>2026-05-01T08:45:00Z</time></trkpt><trkpt lat="45.13325962831966" lon="7.0469753708726675"><ele>515.75</ele><time>2026-05-01T08:45:02Z</time></trkpt><trkpt lat="45.1331650043509" lon="7.0468240299013924"><ele>517.5</ele><time>2026-05-01T08:45:04Z</time></trkpt><trkpt lat="45.13309221312431" lon="7.046721995109766"><ele>519.25</ele><time>2026-05-01T08:45:05Z</time></trkpt><trkpt lat="45.13301589379088" lon="7.046620178931959"><ele>521.0</ele><time>2026-05-01T08:45:06Z</time></trkpt><trkpt lat="45.13293206158298" lon="7.046495330463924"><ele>521.5</ele><time>2026-05-01T08:45:07Z</time></trkpt><trkpt lat="45.13283520732548" lon="7.046366904491906"><ele>522.0</ele><time>2026-05-01T08:45:08Z</time></trkpt><trkpt lat="45.13273045905737" lon="7.046245229986669"><ele>522.5</ele><time>2026-05-01T08:45:09Z</time></trkpt><trkpt lat="45.13262531297773" lon="7.046083044107852"><ele>523.0</ele><time>2026-05-01T08:45:10Z</time></trkpt><trkpt lat="45.13250986186398" lon="7.0459939216085745"><ele>524.5</ele><time>2026-05-01T08:45:11Z</time></trkpt><trkpt lat="45.1323850798382" lon="7.045900200983883"><ele>526.0</ele><time>2026-05-01T08:45:12Z</time></trkpt><trkpt lat="45.132276843941725" lon="7.045784082498359"><ele>527.5</ele><time>2026-05-01T08:45:13Z</time></trkpt><trkpt lat="45.132159396147365" lon="7.045664727794165"><ele>529.0</ele><time>2026-05-01T08:45:14Z</time></trkpt><trkpt lat="45.132052671962185" lon="7.045531858561684"><ele>529.0</ele><time>2026-05-01T08:45:15Z</time></trkpt><trkpt lat="45.13194608685848" lon="7.045382663287245"><ele>529.0</ele><time>2026-05-01T08:45:16Z</time></trkpt><trkpt lat="45.131838531375955" lon="7.045205655489119"><ele>529.0</ele><time>2026-05-01T08:45:17Z</time></trkpt><trkpt lat="45.13172542306222" lon="7.045040911033151"><ele>530.0</ele><time>2026-05-01T08:45:18Z</time></trkpt><trkpt lat="45.13162994382975" lon="7.044854329239756"><ele>531.0</ele><time>2026-05-01T08:45:19Z</time></trkpt><trkpt lat="45.131559911298964" lon="7.04468059539386"><ele>532.0</ele><time>2026-05-01T08:45:20Z</time></trkpt><trkpt lat="45.131478098519175" lon="7.044512964998407"><ele>533.0</ele><time>2026-05-01T08:45:21Z</time></trkpt><trkpt lat="45.13138676969976" lon="7.04431232547877"><ele>534.5</ele><time>2026-05-01T08:45:22Z</time></trkpt><trkpt lat="45.13130481260411" lon="7.044133987264689"><ele>536.0</ele><time>2026-05-01T08:45:23Z</time></trkpt><trkpt lat="45.131246956767306" lon="7.043930792206324"><ele>537.5</ele><time>2026-05-01T08:45:24Z</time></trkpt><trkpt lat="45.13124144683323" lon="7.043733610865335"><ele>539.0</ele><time>2026-05-01T08:45:25Z</time></trkpt><trkpt lat="45.13123531330362" lon="7.043519546276656"><ele>541.0</ele><time>2026-05-01T08:45:26Z</time></trkpt><trkpt lat="45.13127028364922" lon="7.043285562466789"><ele>543.0</ele><time>2026-05-01T08:45:27Z</time></trkpt><trkpt lat="45.13126901368159" lon="7.043106076091651"><ele>545.0</ele><time>2026-05-01T08:45:28Z</time></trkpt><trkpt lat="45.13125401747841" lon="7.042947602620601"><ele>547.0</ele><time>2026-05-01T08:45:29Z</time></trkpt><trkpt lat="45.1312117067441" lon="7.042803388972513"><ele>547.0</ele><time>2026-05-01T08:45:30Z</time></trkpt><trkpt lat="45.13110687495658" lon="7.042663887369768"><ele>547.0</ele><time>2026-05-01T08:45:31Z</time></trkpt><trkpt lat="45.13095029669041" lon="7.042646163528188"><ele>547.0</ele><time>2026-05-01T08:45:31.999Z</time></trkpt><trkpt lat="45.13081287561295" lon="7.042575777893225"><ele>547.0</ele><time>2026-05-01T08:45:32.999Z</time></trkpt><trkpt lat="45.13067743314086" lon="7.042513429210272"><ele>549.5</ele><time>2026-05-01T08:45:33.999Z</time></trkpt><trkpt lat="45.13051367885306" lon="7.042450569125236"><ele>552.0</ele><time>2026-05-01T08:45:34.999Z</time></trkpt><trkpt lat="45.130395514331155" lon="7.042416753596598"><ele>554.5</ele><time>2026-05-01T08:45:35.999Z</time></trkpt><trkpt lat="45.13029461978219" lon="7.04240021494928"><ele>557.0</ele><time>2026-05-01T08:45:36.999Z</time></trkpt><trkpt lat="45.13025514202061" lon="7.0422808026277774"><ele>557.0</ele><time>2026-05-01T08:45:37.999Z</time></trkpt><trkpt lat="45.13022481026914" lon="7.042176266971435"><ele>557.0</ele><time>2026-05-01T08:45:38.999Z</time></trkpt><trkpt lat="45.13021571875159" lon="7.0420447366084815"><ele>557.0</ele><time>2026-05-01T08:45:39.999Z</time></trkpt><trkpt lat="45.13028098479434" lon="7.041915575806393"><ele>557.0</ele><time>2026-05-01T08:45:40.999Z</time></trkpt><trkpt lat="45.13037279949141" lon="7.041803209292409"><ele>557.0</ele><time>2026-05-01T08:45:41.999Z</time></trkpt><trkpt lat="45.1304841253972" lon="7.0418127276942055"><ele>557.0</ele><time>2026-05-01T08:45:42.999Z</time></trkpt><trkpt lat="45.13058831345437" lon="7.041937471313167"><ele>557.0</ele><time>2026-05-01T08:45:43.999Z</time></trkpt><trkpt lat="45.13070437293903" lon="7.041976340991117"><ele>557.0</ele><time>2026-05-01T08:45:44.999Z</time></trkpt><trkpt lat="45.1308241653103" lon="7.042016460856077"><ele>557.0</ele><time>2026-05-01T08:45:45.999Z</time></trkpt><trkpt lat="45.130982880818" lon="7.04206961654794"><ele>558.0</ele><time>2026-05-01T08:45:46.999Z</time></trkpt><trkpt lat="45.13119794147643" lon="7.042140549063233"><ele>559.0</ele><time>2026-05-01T08:45:47.999Z</time></trkpt><trkpt lat="45.13141741763814" lon="7.042221612532218"><ele>560.0</ele><time>2026-05-01T08:45:48.999Z</time></trkpt><trkpt lat="45.13158927975512" lon="7.042279086194371"><ele>563.6666666666666</ele><time>2026-05-01T08:45:49.999Z</time></trkpt><trkpt lat="45.13177683919268" lon="7.0423228726969125"><ele>567.3333333333334</ele><time>2026-05-01T08:45:50.999Z</time></trkpt><trkpt lat="45.1319476800755" lon="7.042329264445165"><ele>571.0</ele><time>2026-05-01T08:45:51.999Z</time></trkpt><trkpt lat="45.132109509295574" lon="7.042293081103468"><ele>571.0</ele><time>2026-05-01T08:45:52.999Z</time></trkpt><trkpt lat="45.132215748014005" lon="7.042285344749847"><ele>571.0</ele><time>2026-05-01T08:45:53.999Z</time></trkpt><trkpt lat="45.13233049166531" lon="7.042392233570035"><ele>571.0</ele><time>2026-05-01T08:45:54.999Z</time></trkpt><trkpt lat="45.132430003570356" lon="7.042551300516005"><ele>571.0</ele><time>2026-05-01T08:45:55.999Z</time></trkpt><trkpt lat="45.13245010575353" lon="7.042765357961801"><ele>566.6666666666667</ele><time>2026-05-01T08:45:56.999Z</time></trkpt><trkpt lat="45.13244249991906" lon="7.042989823329746"><ele>562.3333333333334</ele><time>2026-05-01T08:45:57.999Z</time></trkpt><trkpt lat="45.13249570787592" lon="7.0432183519896085"><ele>558.0</ele><time>2026-05-01T08:45:58.999Z</time></trkpt><trkpt lat="45.13254105124315" lon="7.043447348955555"><ele>556.4</ele><time>2026-05-01T08:45:59.999Z</time></trkpt><trkpt lat="45.132570176659925" lon="7.043613639827513"><ele>554.8</ele><time>2026-05-01T08:46:00.999Z</time></trkpt><trkpt lat="45.13263224235784" lon="7.043752467104371"><ele>553.2</ele><time>2026-05-01T08:46:01.999Z</time></trkpt><trkpt lat="45.132689694700176" lon="7.043892555490174"><ele>551.6</ele><time>2026-05-01T08:46:02.999Z</time></trkpt><trkpt lat="45.132762617932165" lon="7.043924132441492"><ele>550.0</ele><time>2026-05-01T08:46:03.999Z</time></trkpt><trkpt lat="45.132898946079536" lon="7.043901033357483"><ele>550.0</ele><time>2026-05-01T08:46:04.999Z</time></trkpt><trkpt lat="45.13300864472647" lon="7.043731777598247"><ele>550.0</ele><time>2026-05-01T08:46:05.999Z</time></trkpt><trkpt lat="45.13307030133848" lon="7.0436494282161055"><ele>550.0</ele><time>2026-05-01T08:46:06.999Z</time></trkpt><trkpt lat="45.13309225761285" lon="7.04348017658634"><ele>550.0</ele><time>2026-05-01T08:46:07.999Z</time></trkpt><trkpt lat="45.13311682692051" lon="7.043350762723304"><ele>552.6666666666667</ele><time>2026-05-01T08:46:08.999Z</time></trkpt><trkpt lat="45.133085766383026" lon="7.04316549892704"><ele>555.3333333333334</ele><time>2026-05-01T08:46:09.999Z</time></trkpt><trkpt lat="45.13300524793476" lon="7.042991636578326"><ele>558.0</ele><time>2026-05-01T08:46:10.999Z</time></trkpt><trkpt lat="45.13291603762755" lon="7.042568953991441"><ele>563.5</ele><time>2026-05-01T08:46:11.999Z</time></trkpt><trkpt lat="45.13278307923523" lon="7.042167882633069"><ele>569.0</ele><time>2026-05-01T08:46:12.999Z</time></trkpt><trkpt lat="45.13278303700371" lon="7.041889584162126"><ele>569.0</ele><time>2026-05-01T08:46:13.999Z</time></trkpt><trkpt lat="45.13282795929311" lon="7.041650930118144"><ele>569.0</ele><time>2026-05-01T08:46:14.999Z</time></trkpt><trkpt lat="45.13290723100892" lon="7.041448158769549"><ele>569.0</ele><time>2026-05-01T08:46:15.999Z</time></trkpt><trkpt lat="45.13300561115316" lon="7.041274221368307"><ele>571.0</ele><time>2026-05-01T08:46:16.999Z</time></trkpt><trkpt lat="45.13312398816365" lon="7.041136341624746"><ele>573.0</ele><time>2026-05-01T08:46:17.999Z</time></trkpt><trkpt lat="45.13324026457361" lon="7.040980783524684"><ele>575.0</ele><time>2026-05-01T08:46:18.999Z</time></trkpt><trkpt lat="45.13333980889725" lon="7.040788343777062"><ele>578.75</ele><time>2026-05-01T08:46:19.999Z</time></trkpt><trkpt lat="45.133439590777705" lon="7.040643806539521"><ele>582.5</ele><time>2026-05-01T08:46:21Z</time></trkpt><trkpt lat="45.13347427932261" lon="7.040470556303189"><ele>586.25</ele><time>2026-05-01T08:46:22Z</time></trkpt><trkpt lat="45.133466335619424" lon="7.040275470117434"><ele>590.0</ele><time>2026-05-01T08:46:23Z</time></trkpt><trkpt lat="45.133373371218205" lon="7.0400872992229555"><ele>595.0</ele><time>2026-05-01T08:46:24Z</time></trkpt><trkpt lat="45.13325260379356" lon="7.039915834591352"><ele>600.0</ele><time>2026-05-01T08:46:25Z</time></trkpt><trkpt lat="45.1331688940221" lon="7.039772470314672"><ele>605.0</ele><time>2026-05-01T08:46:26Z</time></trkpt><trkpt lat="45.13308408575252" lon="7.039636909371471"><ele>610.0</ele><time>2026-05-01T08:46:27Z</time></trkpt><trkpt lat="45.132945594209225" lon="7.039525932056171"><ele>610.0</ele><time>2026-05-01T08:46:28Z</time></trkpt><trkpt lat="45.132814910113694" lon="7.039444410003044"><ele>610.0</ele><time>2026-05-01T08:46:29Z</time></trkpt><trkpt lat="45.132695967859505" lon="7.039369475520752"><ele>610.0</ele><time>2026-05-01T08:46:30Z</time></trkpt><trkpt lat="45.13255311371473" lon="7.039361394500017"><ele>610.0</ele><time>2026-05-01T08:46:31Z</time></trkpt><trkpt lat="45.132427001748795" lon="7.0393782413184685"><ele>609.5</ele><time>2026-05-01T08:46:32Z</time></trkpt><trkpt lat="45.13232373518659" lon="7.039473870331472"><ele>609.0</ele><time>2026-05-01T08:46:33Z</time></trkpt><trkpt lat="45.1322332091407" lon="7.039587346808114"><ele>608.5</ele><time>2026-05-01T08:46:34Z</time></trkpt><trkpt lat="45.132152933559404" lon="7.039731779193781"><ele>608.0</ele><time>2026-05-01T08:46:35Z</time></trkpt><trkpt lat="45.13206930383834" lon="7.039912386277789"><ele>607.0</ele><time>2026-05-01T08:46:36Z</time></trkpt><trkpt lat="45.13200491468484" lon="7.04006161958309"><ele>606.0</ele><time>2026-05-01T08:46:37Z</time></trkpt><trkpt lat="45.13191491900027" lon="7.040220808424483"><ele>605.0</ele><time>2026-05-01T08:46:38Z</time></trkpt><trkpt lat="45.131797643092234" lon="7.040332797998227"><ele>604.0</ele><time>2026-05-01T08:46:39Z</time></trkpt><trkpt lat="45.13165900001312" lon="7.040419060196577"><ele>601.0</ele><time>2026-05-01T08:46:40Z</time></trkpt><trkpt lat="45.13153109161391" lon="7.040471502958034"><ele>598.0</ele><time>2026-05-01T08:46:41Z</time></trkpt><trkpt lat="45.13140544369523" lon="7.04048268042964"><ele>595.0</ele><time>2026-05-01T08:46:42Z</time></trkpt><trkpt lat="45.13130674011432" lon="7.04046184394625"><ele>592.0</ele><time>2026-05-01T08:46:43Z</time></trkpt><trkpt lat="45.13121564756401" lon="7.040390735076518"><ele>592.0</ele><time>2026-05-01T08:46:44Z</time></trkpt><trkpt lat="45.13111548005912" lon="7.040303118959978"><ele>592.0</ele><time>2026-05-01T08:46:45Z</time></trkpt><trkpt lat="45.13105583180476" lon="7.040131445202487"><ele>592.0</ele><time>2026-05-01T08:46:46Z</time></trkpt><trkpt lat="45.1310065303375" lon="7.039978068360517"><ele>592.0</ele><time>2026-05-01T08:46:47Z</time></trkpt><trkpt lat="45.131000447498636" lon="7.039811099328326"><ele>593.0</ele><time>2026-05-01T08:46:48Z</time></trkpt><trkpt lat="45.13104557008798" lon="7.039611770144903"><ele>594.0</ele><time>2026-05-01T08:46:49Z</time></trkpt><trkpt lat="45.13111251633109" lon="7.039451199121112"><ele>595.0</ele><time>2026-05-01T08:46:50Z</time></trkpt><trkpt lat="45.131203565488576" lon="7.039350677697041"><ele>596.0</ele><time>2026-05-01T08:46:51Z</time></trkpt><trkpt lat="45.13130842800075" lon="7.0392560890415155"><ele>597.0</ele><time>2026-05-01T08:46:52Z</time></trkpt><trkpt lat="45.1314339664651" lon="7.039110935031639"><ele>598.0</ele><time>2026-05-01T08:46:53Z</time></trkpt><trkpt lat="45.13156644455872" lon="7.038918491698819"><ele>599.0</ele><time>2026-05-01T08:46:54Z</time></trkpt><trkpt lat="45.131634830994635" lon="7.03873795837734"><ele>601.75</ele><time>2026-05-01T08:46:55Z</time></trkpt><trkpt lat="45.13169002036667" lon="7.038565762717493"><ele>604.5</ele><time>2026-05-01T08:46:56Z</time></trkpt><trkpt lat="45.131731831540726" lon="7.038377948526476"><ele>607.25</ele><time>2026-05-01T08:46:57Z</time></trkpt><trkpt lat="45.13175587881671" lon="7.038166588770484"><ele>610.0</ele><time>2026-05-01T08:46:58Z</time></trkpt><trkpt lat="45.13169227035264" lon="7.037936642743435"><ele>613.3333333333334</ele><time>2026-05-01T08:46:59Z</time></trkpt><trkpt lat="45.13166571709254" lon="7.037686142752632"><ele>616.6666666666666</ele><time>2026-05-01T08:47:00Z</time></trkpt><trkpt lat="45.13163672453554" lon="7.037336492087465"><ele>620.0</ele><time>2026-05-01T08:47:01Z</time></trkpt><trkpt lat="45.13157139281379" lon="7.0370045637319825"><ele>618.5</ele><time>2026-05-01T08:47:02Z</time></trkpt><trkpt lat="45.131512971352876" lon="7.036622953668707"><ele>617.0</ele><time>2026-05-01T08:47:03Z</time></trkpt><trkpt lat="45.131454936524094" lon="7.036219443210383"><ele>617.0</ele><time>2026-05-01T08:47:04Z</time></trkpt><trkpt lat="45.13140985726184" lon="7.035821873601502"><ele>617.0</ele><time>2026-05-01T08:47:05Z</time></trkpt><trkpt lat="45.131370664343024" lon="7.03545223021201"><ele>621.3333333333333</ele><time>2026-05-01T08:47:06Z</time></trkpt><trkpt lat="45.13134434570982" lon="7.035130634724146"><ele>625.6666666666666</ele><time>2026-05-01T08:47:07Z</time></trkpt><trkpt lat="45.13129677402529" lon="7.034828743124782"><ele>630.0</ele><time>2026-05-01T08:47:08Z</time></trkpt><trkpt lat="45.13123588485344" lon="7.034533773795957"><ele>633.0</ele><time>2026-05-01T08:47:09Z</time></trkpt><trkpt lat="45.13117483765639" lon="7.034260975286436"><ele>636.0</ele><time>2026-05-01T08:47:10Z</time></trkpt><trkpt lat="45.13106600766732" lon="7.033997879013565"><ele>639.0</ele><time>2026-05-01T08:47:11Z</time></trkpt><trkpt lat="45.13092294232122" lon="7.033734330937196"><ele>645.5</ele><time>2026-05-01T08:47:12Z</time></trkpt><trkpt lat="45.13078515597666" lon="7.033454941979595"><ele>652.0</ele><time>2026-05-01T08:47:13Z</time></trkpt><trkpt lat="45.13062747425794" lon="7.033198601480706"><ele>652.0</ele><time>2026-05-01T08:47:14Z</time></trkpt><trkpt lat="45.13049630532826" lon="7.032944467262409"><ele>652.0</ele><time>2026-05-01T08:47:15Z</time></trkpt><trkpt lat="45.13035200756641" lon="7.032675018832744"><ele>656.3333333333334</ele><time>2026-05-01T08:47:16Z</time></trkpt><trkpt lat="45.130229782807085" lon="7.032418749096901"><ele>660.6666666666666</ele><time>2026-05-01T08:47:17Z</time></trkpt><trkpt lat="45.13009827909393" lon="7.03216806027478"><ele>665.0</ele><time>2026-05-01T08:47:18Z</time></trkpt><trkpt lat="45.12998346975173" lon="7.031922468255022"><ele>669.6666666666666</ele><time>2026-05-01T08:47:19Z</time></trkpt><trkpt lat="45.129878748167705" lon="7.031686100658209"><ele>674.3333333333334</ele><time>2026-05-01T08:47:20Z</time></trkpt><trkpt lat="45.12973536515879" lon="7.031470071909119"><ele>679.0</ele><time>2026-05-01T08:47:21Z</time></trkpt><trkpt lat="45.12960830110425" lon="7.031279353492214"><ele>679.0</ele><time>2026-05-01T08:47:22Z</time></trkpt><trkpt lat="45.129485388383806" lon="7.0310949045473095"><ele>679.0</ele><time>2026-05-01T08:47:23Z</time></trkpt><trkpt lat="45.12937685815947" lon="7.030933026143931"><ele>679.0</ele><time>2026-05-01T08:47:24Z</time></trkpt><trkpt lat="45.12928117444784" lon="7.030773288455874"><ele>679.75</ele><time>2026-05-01T08:47:25Z</time></trkpt><trkpt lat="45.129176738799615" lon="7.0306239836723545"><ele>680.5</ele><time>2026-05-01T08:47:25.999Z</time></trkpt><trkpt lat="45.12914194656134" lon="7.030421220747463"><ele>681.25</ele><time>2026-05-01T08:47:26.999Z</time></trkpt><trkpt lat="45.12911557019143" lon="7.030250730370963"><ele>682.0</ele><time>2026-05-01T08:47:27.999Z</time></trkpt><trkpt lat="45.12910797707415" lon="7.030066292472667"><ele>683.75</ele><time>2026-05-01T08:47:28.999Z</time></trkpt><trkpt lat="45.129128423214276" lon="7.029882698204402"><ele>685.5</ele><time>2026-05-01T08:47:29.999Z</time></trkpt><trkpt lat="45.129182917561046" lon="7.029718738423169"><ele>687.25</ele><time>2026-05-01T08:47:30.999Z</time></trkpt><trkpt lat="45.12926020983094" lon="7.029544804424713"><ele>689.0</ele><time>2026-05-01T08:47:31.999Z</time></trkpt><trkpt lat="45.129331061531964" lon="7.0293813953452275"><ele>689.0</ele><time>2026-05-01T08:47:32.999Z</time></trkpt><trkpt lat="45.12941114346951" lon="7.029201951992223"><ele>689.0</ele><time>2026-05-01T08:47:33.999Z</time></trkpt><trkpt lat="45.12947529747954" lon="7.0290394034258545"><ele>689.0</ele><time>2026-05-01T08:47:34.999Z</time></trkpt><trkpt lat="45.1295585584194" lon="7.028877818158982"><ele>689.0</ele><time>2026-05-01T08:47:35.999Z</time></trkpt><trkpt lat="45.129625563161525" lon="7.028713073215606"><ele>689.75</ele><time>2026-05-01T08:47:36.999Z</time></trkpt><trkpt lat="45.12966007268579" lon="7.028545409687814"><ele>690.5</ele><time>2026-05-01T08:47:37.999Z</time></trkpt><trkpt lat="45.12966456592723" lon="7.0283138340334235"><ele>691.25</ele><time>2026-05-01T08:47:38.999Z</time></trkpt><trkpt lat="45.12968826348161" lon="7.028102765818657"><ele>692.0</ele><time>2026-05-01T08:47:39.999Z</time></trkpt><trkpt lat="45.129717500899055" lon="7.027893844399796"><ele>693.0</ele><time>2026-05-01T08:47:40.999Z</time></trkpt><trkpt lat="45.129680222644375" lon="7.027596278932283"><ele>694.0</ele><time>2026-05-01T08:47:41.999Z</time></trkpt><trkpt lat="45.12968283993029" lon="7.027357812221029"><ele>695.0</ele><time>2026-05-01T08:47:42.999Z</time></trkpt><trkpt lat="45.12969493857967" lon="7.027144855994871"><ele>695.0</ele><time>2026-05-01T08:47:43.999Z</time></trkpt><trkpt lat="45.12970026864982" lon="7.026949346986055"><ele>695.0</ele><time>2026-05-01T08:47:44.999Z</time></trkpt><trkpt lat="45.129686340400276" lon="7.026771168943497"><ele>695.0</ele><time>2026-05-01T08:47:45.999Z</time></trkpt><trkpt lat="45.129682160267144" lon="7.026570547128696"><ele>695.0</ele><time>2026-05-01T08:47:46.999Z</time></trkpt><trkpt lat="45.12967900101412" lon="7.026436653471006"><ele>695.5</ele><time>2026-05-01T08:47:47.999Z</time></trkpt><trkpt lat="45.129651381102505" lon="7.026274910882206"><ele>696.0</ele><time>2026-05-01T08:47:48.999Z</time></trkpt><trkpt lat="45.1296510701539" lon="7.02609866682697"><ele>696.5</ele><time>2026-05-01T08:47:49.999Z</time></trkpt><trkpt lat="45.12960541098766" lon="7.025942576955239"><ele>697.0</ele><time>2026-05-01T08:47:50.999Z</time></trkpt><trkpt lat="45.12952057219063" lon="7.025771249967546"><ele>697.25</ele><time>2026-05-01T08:47:51.999Z</time></trkpt><trkpt lat="45.129440026458646" lon="7.02561479672649"><ele>697.5</ele><time>2026-05-01T08:47:52.999Z</time></trkpt><trkpt lat="45.129369192440365" lon="7.025458511779612"><ele>697.75</ele><time>2026-05-01T08:47:53.999Z</time></trkpt><trkpt lat="45.12929339967812" lon="7.025286680581907"><ele>698.0</ele><time>2026-05-01T08:47:54.999Z</time></trkpt><trkpt lat="45.12919271309876" lon="7.025136722405676"><ele>698.0</ele><time>2026-05-01T08:47:55.999Z</time></trkpt><trkpt lat="45.1290884866511" lon="7.025004693776404"><ele>698.0</ele><time>2026-05-01T08:47:56.999Z</time></trkpt><trkpt lat="45.12897903433052" lon="7.0248699943991255"><ele>698.0</ele><time>2026-05-01T08:47:57.999Z</time></trkpt><trkpt lat="45.12884814149893" lon="7.024702012372561"><ele>702.0</ele><time>2026-05-01T08:47:58.999Z</time></trkpt><trkpt lat="45.128693815518204" lon="7.024528736152844"><ele>706.0</ele><time>2026-05-01T08:47:59.999Z</time></trkpt><trkpt lat="45.128487021515994" lon="7.0243774377899015"><ele>710.0</ele><time>2026-05-01T08:48:00.999Z</time></trkpt><trkpt lat="45.12831465973218" lon="7.024229458507557"><ele>713.6666666666666</ele><time>2026-05-01T08:48:01.999Z</time></trkpt><trkpt lat="45.12815717562032" lon="7.024094252281379"><ele>717.3333333333334</ele><time>2026-05-01T08:48:02.999Z</time></trkpt><trkpt lat="45.12800756435088" lon="7.023965805194705"><ele>721.0</ele><time>2026-05-01T08:48:03.999Z</time></trkpt><trkpt lat="45.12783524163715" lon="7.023818515501975"><ele>721.0</ele><time>2026-05-01T08:48:04.999Z</time></trkpt><trkpt lat="45.12765152102779" lon="7.023660415925003"><ele>721.0</ele><time>2026-05-01T08:48:05.999Z</time></trkpt><trkpt lat="45.127452054907195" lon="7.023488766594716"><ele>721.0</ele><time>2026-05-01T08:48:06.999Z</time></trkpt><trkpt lat="45.12726758673093" lon="7.0233039541220625"><ele>722.6666666666667</ele><time>2026-05-01T08:48:07.999Z</time></trkpt><trkpt lat="45.12707166426758" lon="7.023175532078747"><ele>724.3333333333334</ele><time>2026-05-01T08:48:08.999Z</time></trkpt><trkpt lat="45.126894607659246" lon="7.023052431716082"><ele>726.0</ele><time>2026-05-01T08:48:09.999Z</time></trkpt><trkpt lat="45.126749335502204" lon="7.022902231128338"><ele>726.0</ele><time>2026-05-01T08:48:10.999Z</time></trkpt><trkpt lat="45.12659755026842" lon="7.0227966051060315"><ele>726.0</ele><time>2026-05-01T08:48:11.999Z</time></trkpt><trkpt lat="45.12645756235905" lon="7.022708522032148"><ele>726.0</ele><time>2026-05-01T08:48:12.999Z</time></trkpt><trkpt lat="45.12635125013959" lon="7.022606686021492"><ele>730.0</ele><time>2026-05-01T08:48:13.999Z</time></trkpt><trkpt lat="45.126232900717575" lon="7.022494998801927"><ele>734.0</ele><time>2026-05-01T08:48:14.999Z</time></trkpt><trkpt lat="45.12613944132533" lon="7.022388700961709"><ele>738.0</ele><time>2026-05-01T08:48:15.999Z</time></trkpt><trkpt lat="45.126031243776886" lon="7.022283923706981"><ele>742.0</ele><time>2026-05-01T08:48:16.999Z</time></trkpt><trkpt lat="45.125923596629775" lon="7.022166380482692"><ele>742.0</ele><time>2026-05-01T08:48:17.999Z</time></trkpt><trkpt lat="45.125839319283955" lon="7.02202757273194"><ele>742.0</ele><time>2026-05-01T08:48:18.999Z</time></trkpt><trkpt lat="45.12574895068489" lon="7.021907797565288"><ele>742.0</ele><time>2026-05-01T08:48:19.999Z</time></trkpt><trkpt lat="45.12569208285651" lon="7.021753901099281"><ele>742.0</ele><time>2026-05-01T08:48:20.999Z</time></trkpt><trkpt lat="45.12564045678333" lon="7.021519368666388"><ele>750.25</ele><time>2026-05-01T08:48:21.999Z</time></trkpt><trkpt lat="45.1256136738855" lon="7.0212798415375826"><ele>758.5</ele><time>2026-05-01T08:48:22.999Z</time></trkpt><trkpt lat="45.125616816790476" lon="7.021107856414402"><ele>766.75</ele><time>2026-05-01T08:48:23.999Z</time></trkpt><trkpt lat="45.125638202594" lon="7.020955695994173"><ele>775.0</ele><time>2026-05-01T08:48:24.999Z</time></trkpt><trkpt lat="45.125680510654725" lon="7.0208120819394955"><ele>768.75</ele><time>2026-05-01T08:48:25.999Z</time></trkpt><trkpt lat="45.12574728222452" lon="7.020668208265614"><ele>762.5</ele><time>2026-05-01T08:48:27Z</time></trkpt><trkpt lat="45.125791058113926" lon="7.020526952106135"><ele>756.25</ele><time>2026-05-01T08:48:28Z</time></trkpt><trkpt lat="45.12584516536722" lon="7.02042195519053"><ele>750.0</ele><time>2026-05-01T08:48:29Z</time></trkpt><trkpt lat="45.1259452771528" lon="7.020257120237252"><ele>750.0</ele><time>2026-05-01T08:48:30Z</time></trkpt><trkpt lat="45.12603227198588" lon="7.020089948111312"><ele>750.0</ele><time>2026-05-01T08:48:31Z</time></trkpt><trkpt lat="45.12610952850867" lon="7.019915190242501"><ele>750.0</ele><time>2026-05-01T08:48:32Z</time></trkpt><trkpt lat="45.126191469697176" lon="7.019753934747592"><ele>750.0</ele><time>2026-05-01T08:48:33Z</time></trkpt><trkpt lat="45.126258597923474" lon="7.019583926833174"><ele>751.5</ele><time>2026-05-01T08:48:34Z</time></trkpt><trkpt lat="45.12632333842933" lon="7.019416495188067"><ele>753.0</ele><time>2026-05-01T08:48:35Z</time></trkpt><trkpt lat="45.12636806609201" lon="7.019212356028203"><ele>754.5</ele><time>2026-05-01T08:48:36Z</time></trkpt><trkpt lat="45.126426385063205" lon="7.019035264987377"><ele>756.0</ele><time>2026-05-01T08:48:37Z</time></trkpt><trkpt lat="45.12648094403116" lon="7.018827707490639"><ele>756.75</ele><time>2026-05-01T08:48:38Z</time></trkpt><trkpt lat="45.126526145764934" lon="7.018629887210403"><ele>757.5</ele><time>2026-05-01T08:48:39Z</time></trkpt><trkpt lat="45.126571717436" lon="7.018444112899645"><ele>758.25</ele><time>2026-05-01T08:48:40Z</time></trkpt><trkpt lat="45.12659587572442" lon="7.018259935536961"><ele>759.0</ele><time>2026-05-01T08:48:41Z</time></trkpt><trkpt lat="45.12661145494225" lon="7.018079644125087"><ele>759.25</ele><time>2026-05-01T08:48:42Z</time></trkpt><trkpt lat="45.12662596675381" lon="7.017892740910895"><ele>759.5</ele><time>2026-05-01T08:48:43Z</time></trkpt><trkpt lat="45.126632507636266" lon="7.01771240303864"><ele>759.75</ele><time>2026-05-01T08:48:44Z</time></trkpt><trkpt lat="45.12663337770395" lon="7.017556623824912"><ele>760.0</ele><time>2026-05-01T08:48:45Z</time></trkpt><trkpt lat="45.1266443327181" lon="7.017387607935612"><ele>760.0</ele><time>2026-05-01T08:48:46Z</time></trkpt><trkpt lat="45.12668280339586" lon="7.017219631450676"><ele>760.0</ele><time>2026-05-01T08:48:47Z</time></trkpt><trkpt lat="45.126720724549436" lon="7.017053831354404"><ele>760.0</ele><time>2026-05-01T08:48:48Z</time></trkpt><trkpt lat="45.12679633007463" lon="7.016833648752906"><ele>760.0</ele><time>2026-05-01T08:48:49Z</time></trkpt><trkpt lat="45.12685310626418" lon="7.016670776477373"><ele>760.0</ele><time>2026-05-01T08:48:50Z</time></trkpt><trkpt lat="45.126909881454225" lon="7.016482244910249"><ele>760.0</ele><time>2026-05-01T08:48:51Z</time></trkpt><trkpt lat="45.12695106797849" lon="7.016296445112238"><ele>760.0</ele><time>2026-05-01T08:48:52Z</time></trkpt><trkpt lat="45.126992528894284" lon="7.016101237521659"><ele>760.0</ele><time>2026-05-01T08:48:53Z</time></trkpt><trkpt lat="45.127038417118435" lon="7.015907736764757"><ele>759.75</ele><time>2026-05-01T08:48:54Z</time></trkpt><trkpt lat="45.12706129599502" lon="7.015717625693956"><ele>759.5</ele><time>2026-05-01T08:48:55Z</time></trkpt><trkpt lat="45.12709135350998" lon="7.015518316300704"><ele>759.25</ele><time>2026-05-01T08:48:56Z</time></trkpt><trkpt lat="45.12712381871443" lon="7.015323595655636"><ele>759.0</ele><time>2026-05-01T08:48:57Z</time></trkpt><trkpt lat="45.127171455113526" lon="7.0151400461704885"><ele>758.5</ele><time>2026-05-01T08:48:58Z</time></trkpt><trkpt lat="45.127221716356615" lon="7.014951004701698"><ele>758.0</ele><time>2026-05-01T08:48:59Z</time></trkpt><trkpt lat="45.12727439473088" lon="7.014770088108326"><ele>757.5</ele><time>2026-05-01T08:49:00Z</time></trkpt><trkpt lat="45.12732849621692" lon="7.0145982167295395"><ele>757.0</ele><time>2026-05-01T08:49:01Z</time></trkpt><trkpt lat="45.12736653424556" lon="7.014418924735431"><ele>757.0</ele><time>2026-05-01T08:49:02Z</time></trkpt><trkpt lat="45.12737978661499" lon="7.01423061676113"><ele>757.0</ele><time>2026-05-01T08:49:03Z</time></trkpt><trkpt lat="45.12739054044144" lon="7.014049456407746"><ele>757.0</ele><time>2026-05-01T08:49:04Z</time></trkpt><trkpt lat="45.12738070368025" lon="7.013874602315483"><ele>757.0</ele><time>2026-05-01T08:49:05Z</time></trkpt><trkpt lat="45.12736737926992" lon="7.013728103805765"><ele>757.1666666666667</ele><time>2026-05-01T08:49:06Z</time></trkpt><trkpt lat="45.12736477166848" lon="7.0136065066045825"><ele>757.3333333333334</ele><time>2026-05-01T08:49:07Z</time></trkpt><trkpt lat="45.12735934933854" lon="7.013502894016569"><ele>757.5</ele><time>2026-05-01T08:49:08Z</time></trkpt><trkpt lat="45.12732547208846" lon="7.013399748859459"><ele>757.6666666666666</ele><time>2026-05-01T08:49:10Z</time></trkpt><trkpt lat="45.12730280725967" lon="7.013245494668756"><ele>757.8333333333333</ele><time>2026-05-01T08:49:12Z</time></trkpt><trkpt lat="45.12728322410858" lon="7.013128535089248"><ele>758.0</ele><time>2026-05-01T08:49:13Z</time></trkpt><trkpt lat="45.12727196749702" lon="7.013004750603027"><ele>756.3333333333333</ele><time>2026-05-01T08:49:14Z</time></trkpt><trkpt lat="45.12723862513516" lon="7.012823686308648"><ele>754.6666666666666</ele><time>2026-05-01T08:49:15Z</time></trkpt><trkpt lat="45.12722412015816" lon="7.012601176637261"><ele>753.0</ele><time>2026-05-01T08:49:16Z</time></trkpt><trkpt lat="45.12719339644504" lon="7.012331276470261"><ele>752.0</ele><time>2026-05-01T08:49:17Z</time></trkpt><trkpt lat="45.12718100929021" lon="7.012122375466023"><ele>751.0</ele><time>2026-05-01T08:49:18Z</time></trkpt><trkpt lat="45.12714507435917" lon="7.011909040370369"><ele>750.0</ele><time>2026-05-01T08:49:19Z</time></trkpt><trkpt lat="45.127124844262866" lon="7.011706423074768"><ele>749.0</ele><time>2026-05-01T08:49:20Z</time></trkpt><trkpt lat="45.12709955753201" lon="7.011496866842465"><ele>748.3333333333333</ele><time>2026-05-01T08:49:21Z</time></trkpt><trkpt lat="45.127055649016086" lon="7.0112564463723315"><ele>747.6666666666666</ele><time>2026-05-01T08:49:22Z</time></trkpt><trkpt lat="45.12703796149868" lon="7.011041250342294"><ele>747.0</ele><time>2026-05-01T08:49:23Z</time></trkpt><trkpt lat="45.127005439563995" lon="7.010807763910376"><ele>746.6666666666666</ele><time>2026-05-01T08:49:24Z</time></trkpt><trkpt lat="45.12698483473892" lon="7.010573418504147"><ele>746.3333333333333</ele><time>2026-05-01T08:49:25Z</time></trkpt><trkpt lat="45.12695180975324" lon="7.010336228496204"><ele>746.0</ele><time>2026-05-01T08:49:26Z</time></trkpt><trkpt lat="45.12691309735955" lon="7.010092672342394"><ele>745.0</ele><time>2026-05-01T08:49:27Z</time></trkpt><trkpt lat="45.12687406012535" lon="7.0098446684486095"><ele>744.0</ele><time>2026-05-01T08:49:28Z</time></trkpt><trkpt lat="45.12682999639396" lon="7.00957605986036"><ele>743.0</ele><time>2026-05-01T08:49:29Z</time></trkpt><trkpt lat="45.12679816788428" lon="7.009274303084937"><ele>739.5</ele><time>2026-05-01T08:49:30Z</time></trkpt><trkpt lat="45.12673859988823" lon="7.008916064792809"><ele>736.0</ele><time>2026-05-01T08:49:31Z</time></trkpt><trkpt lat="45.1266711457093" lon="7.008515280475185"><ele>736.0</ele><time>2026-05-01T08:49:32Z</time></trkpt><trkpt lat="45.12660777509283" lon="7.008132025063766"><ele>736.0</ele><time>2026-05-01T08:49:32.999Z</time></trkpt><trkpt lat="45.12656400062574" lon="7.007758123774906"><ele>740.5</ele><time>2026-05-01T08:49:33.999Z</time></trkpt><trkpt lat="45.12651663154408" lon="7.0074142088047"><ele>745.0</ele><time>2026-05-01T08:49:34.999Z</time></trkpt><trkpt lat="45.12646096958565" lon="7.007060889751032"><ele>745.0</ele><time>2026-05-01T08:49:35.999Z</time></trkpt><trkpt lat="45.126419546961834" lon="7.006737896751809"><ele>745.0</ele><time>2026-05-01T08:49:36.999Z</time></trkpt><trkpt lat="45.126373405616754" lon="7.006438939030812"><ele>745.0</ele><time>2026-05-01T08:49:37.999Z</time></trkpt><trkpt lat="45.12631732463662" lon="7.0061347158436345"><ele>745.3333333333334</ele><time>2026-05-01T08:49:38.999Z</time></trkpt><trkpt lat="45.12625358235929" lon="7.0058432153545835"><ele>745.6666666666666</ele><time>2026-05-01T08:49:39.999Z</time></trkpt><trkpt lat="45.12615307579214" lon="7.005568899057303"><ele>746.0</ele><time>2026-05-01T08:49:40.999Z</time></trkpt><trkpt lat="45.126070741097266" lon="7.00526867081418"><ele>742.5</ele><time>2026-05-01T08:49:41.999Z</time></trkpt><trkpt lat="45.125981294790506" lon="7.004983529811366"><ele>739.0</ele><time>2026-05-01T08:49:42.999Z</time></trkpt><trkpt lat="45.12587588324786" lon="7.004694027970792"><ele>739.0</ele><time>2026-05-01T08:49:43.999Z</time></trkpt><trkpt lat="45.12574683428614" lon="7.004376791933806"><ele>739.0</ele><time>2026-05-01T08:49:44.999Z</time></trkpt><trkpt lat="45.12562795038907" lon="7.004089441454965"><ele>741.5</ele><time>2026-05-01T08:49:45.999Z</time></trkpt><trkpt lat="45.12551086067686" lon="7.003795183761263"><ele>744.0</ele><time>2026-05-01T08:49:46.999Z</time></trkpt><trkpt lat="45.12538805142641" lon="7.003523136807611"><ele>743.0</ele><time>2026-05-01T08:49:47.999Z</time></trkpt><trkpt lat="45.12524041189809" lon="7.003217529805477"><ele>742.0</ele><time>2026-05-01T08:49:48.999Z</time></trkpt><trkpt lat="45.125093292266094" lon="7.0029415879358785"><ele>742.0</ele><time>2026-05-01T08:49:49.999Z</time></trkpt><trkpt lat="45.124964421616674" lon="7.002673206775967"><ele>742.0</ele><time>2026-05-01T08:49:50.999Z</time></trkpt><trkpt lat="45.12483799858349" lon="7.002414061099763"><ele>743.6666666666667</ele><time>2026-05-01T08:49:51.999Z</time></trkpt><trkpt lat="45.1247086309694" lon="7.002172362967613"><ele>745.3333333333334</ele><time>2026-05-01T08:49:52.999Z</time></trkpt><trkpt lat="45.124643837808826" lon="7.002019254543443"><ele>747.0</ele><time>2026-05-01T08:49:53.999Z</time></trkpt><trkpt lat="45.12462033049001" lon="7.0017808836645195"><ele>746.3333333333334</ele><time>2026-05-01T08:49:54.999Z</time></trkpt><trkpt lat="45.12463240463877" lon="7.001543325594479"><ele>745.6666666666667</ele><time>2026-05-01T08:49:55.999Z</time></trkpt><trkpt lat="45.12461241285923" lon="7.001285851603107"><ele>745.0</ele><time>2026-05-01T08:49:56.999Z</time></trkpt><trkpt lat="45.124613428829065" lon="7.00102321623722"><ele>745.0</ele><time>2026-05-01T08:49:57.999Z</time></trkpt><trkpt lat="45.12465093844259" lon="7.0007345603794775"><ele>745.0</ele><time>2026-05-01T08:49:58.999Z</time></trkpt><trkpt lat="45.124679642889106" lon="7.000437289131205"><ele>745.0</ele><time>2026-05-01T08:49:59.999Z</time></trkpt><trkpt lat="45.124694736483946" lon="7.000130895057098"><ele>745.0</ele><time>2026-05-01T08:50:00.999Z</time></trkpt><trkpt lat="45.12472779773402" lon="6.999832496046089"><ele>745.0</ele><time>2026-05-01T08:50:01.999Z</time></trkpt><trkpt lat="45.124764557504044" lon="6.999588612257337"><ele>745.0</ele><time>2026-05-01T08:50:02.999Z</time></trkpt><trkpt lat="45.124773553733355" lon="6.999335719857147"><ele>744.0</ele><time>2026-05-01T08:50:03.999Z</time></trkpt><trkpt lat="45.12474771405632" lon="6.999045442153512"><ele>743.0</ele><time>2026-05-01T08:50:04.999Z</time></trkpt><trkpt lat="45.12472184787933" lon="6.998775659429405"><ele>742.0</ele><time>2026-05-01T08:50:05.999Z</time></trkpt><trkpt lat="45.124685207984605" lon="6.998514626665675"><ele>742.0</ele><time>2026-05-01T08:50:06.999Z</time></trkpt><trkpt lat="45.124603205566885" lon="6.998242815410806"><ele>742.0</ele><time>2026-05-01T08:50:07.999Z</time></trkpt><trkpt lat="45.12450889488245" lon="6.997989861037134"><ele>742.0</ele><time>2026-05-01T08:50:08.999Z</time></trkpt><trkpt lat="45.12439995667169" lon="6.997731245742252"><ele>741.0</ele><time>2026-05-01T08:50:09.999Z</time></trkpt><trkpt lat="45.12427864008255" lon="6.997496772732914"><ele>740.0</ele><time>2026-05-01T08:50:10.999Z</time></trkpt><trkpt lat="45.124122370426214" lon="6.997266075189331"><ele>739.0</ele><time>2026-05-01T08:50:11.999Z</time></trkpt><trkpt lat="45.123965692793" lon="6.997032976705783"><ele>741.5</ele><time>2026-05-01T08:50:12.999Z</time></trkpt><trkpt lat="45.12380126175152" lon="6.996789778209941"><ele>744.0</ele><time>2026-05-01T08:50:13.999Z</time></trkpt><trkpt lat="45.123658538951204" lon="6.996526447654593"><ele>744.0</ele><time>2026-05-01T08:50:14.999Z</time></trkpt><trkpt lat="45.12352809940443" lon="6.9962581972990465"><ele>744.0</ele><time>2026-05-01T08:50:15.999Z</time></trkpt><trkpt lat="45.12343018411962" lon="6.995973932745695"><ele>742.0</ele><time>2026-05-01T08:50:16.999Z</time></trkpt><trkpt lat="45.123341989349605" lon="6.995689014532089"><ele>740.0</ele><time>2026-05-01T08:50:17.999Z</time></trkpt><trkpt lat="45.123250791148486" lon="6.995410313488571"><ele>738.0</ele><time>2026-05-01T08:50:18.999Z</time></trkpt><trkpt lat="45.12317272889919" lon="6.995102114255941"><ele>743.5</ele><time>2026-05-01T08:50:19.999Z</time></trkpt><trkpt lat="45.123100710952265" lon="6.994782076489851"><ele>749.0</ele><time>2026-05-01T08:50:20.999Z</time></trkpt><trkpt lat="45.12301173926435" lon="6.994487172535829"><ele>749.0</ele><time>2026-05-01T08:50:21.999Z</time></trkpt><trkpt lat="45.12293120248068" lon="6.994175719692424"><ele>749.0</ele><time>2026-05-01T08:50:22.999Z</time></trkpt><trkpt lat="45.12286052317057" lon="6.993875273725185"><ele>747.0</ele><time>2026-05-01T08:50:23.999Z</time></trkpt><trkpt lat="45.12278406461288" lon="6.993572552268688"><ele>745.0</ele><time>2026-05-01T08:50:24.999Z</time></trkpt><trkpt lat="45.12270205856006" lon="6.993282697648739"><ele>743.0</ele><time>2026-05-01T08:50:25.999Z</time></trkpt><trkpt lat="45.12263531477112" lon="6.9930159228556175"><ele>742.3333333333333</ele><time>2026-05-01T08:50:26.999Z</time></trkpt><trkpt lat="45.122554802503146" lon="6.992727441059365"><ele>741.6666666666666</ele><time>2026-05-01T08:50:27.999Z</time></trkpt><trkpt lat="45.12249374166375" lon="6.992463579506521"><ele>741.0</ele><time>2026-05-01T08:50:28.999Z</time></trkpt><trkpt lat="45.122422428117744" lon="6.992208535408365"><ele>744.6666666666666</ele><time>2026-05-01T08:50:29.999Z</time></trkpt><trkpt lat="45.12235470695783" lon="6.991965285416862"><ele>748.3333333333333</ele><time>2026-05-01T08:50:30.999Z</time></trkpt><trkpt lat="45.12228526777792" lon="6.991720160246039"><ele>752.0</ele><time>2026-05-01T08:50:31.999Z</time></trkpt><trkpt lat="45.12221969917903" lon="6.991490163728418"><ele>752.0</ele><time>2026-05-01T08:50:33Z</time></trkpt><trkpt lat="45.12215519509681" lon="6.991255882315482"><ele>752.0</ele><time>2026-05-01T08:50:34Z</time></trkpt><trkpt lat="45.122087611781986" lon="6.991033676180556"><ele>752.0</ele><time>2026-05-01T08:50:35Z</time></trkpt><trkpt lat="45.12205771010133" lon="6.990786326781505"><ele>751.0</ele><time>2026-05-01T08:50:36Z</time></trkpt><trkpt lat="45.12202540034555" lon="6.990554146081542"><ele>750.0</ele><time>2026-05-01T08:50:37Z</time></trkpt><trkpt lat="45.12199128497423" lon="6.990322586856144"><ele>749.0</ele><time>2026-05-01T08:50:38Z</time></trkpt><trkpt lat="45.12195800932245" lon="6.990093340918343"><ele>748.6666666666666</ele><time>2026-05-01T08:50:39Z</time></trkpt><trkpt lat="45.12192028605826" lon="6.989884637923312"><ele>748.3333333333334</ele><time>2026-05-01T08:50:40Z</time></trkpt><trkpt lat="45.12185421608576" lon="6.9896835967172"><ele>748.0</ele><time>2026-05-01T08:50:41Z</time></trkpt><trkpt lat="45.12178017923122" lon="6.98947516132699"><ele>748.0</ele><time>2026-05-01T08:50:42Z</time></trkpt><trkpt lat="45.12169947932416" lon="6.9892619276132955"><ele>748.0</ele><time>2026-05-01T08:50:43Z</time></trkpt><trkpt lat="45.121620550288526" lon="6.9890831122035015"><ele>748.0</ele><time>2026-05-01T08:50:44Z</time></trkpt><trkpt lat="45.12155143066279" lon="6.988880694321941"><ele>750.0</ele><time>2026-05-01T08:50:45Z</time></trkpt><trkpt lat="45.12147652805755" lon="6.988681835432268"><ele>752.0</ele><time>2026-05-01T08:50:46Z</time></trkpt><trkpt lat="45.12139812259429" lon="6.988491382763181"><ele>754.0</ele><time>2026-05-01T08:50:47Z</time></trkpt><trkpt lat="45.121333162218505" lon="6.98833654419415"><ele>756.0</ele><time>2026-05-01T08:50:48Z</time></trkpt><trkpt lat="45.121274143084676" lon="6.9881518672277725"><ele>756.0</ele><time>2026-05-01T08:50:49Z</time></trkpt><trkpt lat="45.12121656028978" lon="6.987985724450284"><ele>756.0</ele><time>2026-05-01T08:50:50Z</time></trkpt><trkpt lat="45.12115233043903" lon="6.987815593644458"><ele>756.0</ele><time>2026-05-01T08:50:51Z</time></trkpt><trkpt lat="45.12108491896125" lon="6.987642569847483"><ele>756.0</ele><time>2026-05-01T08:50:52Z</time></trkpt><trkpt lat="45.12101743312949" lon="6.987468018815709"><ele>755.5</ele><time>2026-05-01T08:50:53Z</time></trkpt><trkpt lat="45.1209579266283" lon="6.987304937198708"><ele>755.0</ele><time>2026-05-01T08:50:54Z</time></trkpt><trkpt lat="45.12089742513003" lon="6.987148760872928"><ele>754.5</ele><time>2026-05-01T08:50:55Z</time></trkpt><trkpt lat="45.12084158909636" lon="6.987007901479999"><ele>754.0</ele><time>2026-05-01T08:50:56Z</time></trkpt><trkpt lat="45.120791854192646" lon="6.986878192616366"><ele>754.0</ele><time>2026-05-01T08:50:57Z</time></trkpt><trkpt lat="45.120769198371526" lon="6.986742452457381"><ele>754.0</ele><time>2026-05-01T08:50:58Z</time></trkpt><trkpt lat="45.12070667255637" lon="6.986638097911714"><ele>754.0</ele><time>2026-05-01T08:50:59Z</time></trkpt><trkpt lat="45.12063018099045" lon="6.986528989457163"><ele>754.0</ele><time>2026-05-01T08:51:00Z</time></trkpt><trkpt lat="45.12051903135076" lon="6.986427128340494"><ele>754.0</ele><time>2026-05-01T08:51:01Z</time></trkpt><trkpt lat="45.12041259895888" lon="6.986405698525806"><ele>755.25</ele><time>2026-05-01T08:51:02Z</time></trkpt><trkpt lat="45.12029297331774" lon="6.986337891922079"><ele>756.5</ele><time>2026-05-01T08:51:03Z</time></trkpt><trkpt lat="45.12016014750372" lon="6.986282847889641"><ele>757.75</ele><time>2026-05-01T08:51:04Z</time></trkpt><trkpt lat="45.12002923444455" lon="6.98622450289139"><ele>759.0</ele><time>2026-05-01T08:51:05Z</time></trkpt><trkpt lat="45.11989607222042" lon="6.986186600637338"><ele>760.5</ele><time>2026-05-01T08:51:06Z</time></trkpt><trkpt lat="45.119758097806624" lon="6.9861535810746345"><ele>762.0</ele><time>2026-05-01T08:51:07Z</time></trkpt><trkpt lat="45.11963358257029" lon="6.986108260231685"><ele>763.5</ele><time>2026-05-01T08:51:08Z</time></trkpt><trkpt lat="45.119512471031804" lon="6.986008044992915"><ele>765.0</ele><time>2026-05-01T08:51:09Z</time></trkpt><trkpt lat="45.11940312584521" lon="6.985884438326762"><ele>766.0</ele><time>2026-05-01T08:51:10Z</time></trkpt><trkpt lat="45.11928614058632" lon="6.985763628510288"><ele>767.0</ele><time>2026-05-01T08:51:11Z</time></trkpt><trkpt lat="45.119174192759765" lon="6.985633100568252"><ele>768.0</ele><time>2026-05-01T08:51:12Z</time></trkpt><trkpt lat="45.119065930724915" lon="6.9854832831687785"><ele>769.0</ele><time>2026-05-01T08:51:13Z</time></trkpt><trkpt lat="45.118950993659766" lon="6.985278635682059"><ele>769.0</ele><time>2026-05-01T08:51:14Z</time></trkpt><trkpt lat="45.118826949803875" lon="6.985084345366072"><ele>769.0</ele><time>2026-05-01T08:51:15Z</time></trkpt><trkpt lat="45.11870418399649" lon="6.9848908827498235"><ele>769.0</ele><time>2026-05-01T08:51:16Z</time></trkpt><trkpt lat="45.11858588896812" lon="6.984702281401196"><ele>769.0</ele><time>2026-05-01T08:51:17Z</time></trkpt><trkpt lat="45.118460990236514" lon="6.984502736146073"><ele>769.0</ele><time>2026-05-01T08:51:18Z</time></trkpt><trkpt lat="45.118345222663" lon="6.984310334767811"><ele>769.0</ele><time>2026-05-01T08:51:19Z</time></trkpt><trkpt lat="45.11822831763548" lon="6.984121457501392"><ele>769.0</ele><time>2026-05-01T08:51:20Z</time></trkpt><trkpt lat="45.11812287395077" lon="6.98394556390065"><ele>769.0</ele><time>2026-05-01T08:51:21Z</time></trkpt><trkpt lat="45.1180234375037" lon="6.9837712076021505"><ele>769.0</ele><time>2026-05-01T08:51:22Z</time></trkpt><trkpt lat="45.11791829040957" lon="6.9836112395842775"><ele>769.0</ele><time>2026-05-01T08:51:23Z</time></trkpt><trkpt lat="45.11779743233884" lon="6.983438938476505"><ele>769.0</ele><time>2026-05-01T08:51:24Z</time></trkpt><trkpt lat="45.11768804968346" lon="6.983252758363251"><ele>769.0</ele><time>2026-05-01T08:51:25Z</time></trkpt><trkpt lat="45.11758610639288" lon="6.983080808515907"><ele>767.3333333333333</ele><time>2026-05-01T08:51:26Z</time></trkpt><trkpt lat="45.117499670759116" lon="6.982880324822638"><ele>765.6666666666666</ele><time>2026-05-01T08:51:27Z</time></trkpt><trkpt lat="45.117423801611956" lon="6.982677447248462"><ele>764.0</ele><time>2026-05-01T08:51:28Z</time></trkpt><trkpt lat="45.117348920489185" lon="6.982451295965672"><ele>770.3333333333333</ele><time>2026-05-01T08:51:29Z</time></trkpt><trkpt lat="45.11729933116258" lon="6.982227915263677"><ele>776.6666666666666</ele><time>2026-05-01T08:51:30Z</time></trkpt><trkpt lat="45.117260912269735" lon="6.981989761069689"><ele>783.0</ele><time>2026-05-01T08:51:31Z</time></trkpt><trkpt lat="45.11723173983264" lon="6.98174079905122"><ele>780.0</ele><time>2026-05-01T08:51:32Z</time></trkpt><trkpt lat="45.11723692484742" lon="6.9814802831803835"><ele>777.0</ele><time>2026-05-01T08:51:33Z</time></trkpt><trkpt lat="45.117227606232795" lon="6.981223365962224"><ele>774.0</ele><time>2026-05-01T08:51:34Z</time></trkpt><trkpt lat="45.11721856146904" lon="6.9809461068869965"><ele>772.3333333333333</ele><time>2026-05-01T08:51:35Z</time></trkpt><trkpt lat="45.117225915544324" lon="6.980667687646911"><ele>770.6666666666666</ele><time>2026-05-01T08:51:36Z</time></trkpt><trkpt lat="45.117208793078895" lon="6.980359440931626"><ele>769.0</ele><time>2026-05-01T08:51:37Z</time></trkpt><trkpt lat="45.11720120337329" lon="6.980065154758653"><ele>767.0</ele><time>2026-05-01T08:51:38Z</time></trkpt><trkpt lat="45.11718644325019" lon="6.979781983755568"><ele>765.0</ele><time>2026-05-01T08:51:39Z</time></trkpt><trkpt lat="45.11717488321982" lon="6.979490189236061"><ele>763.0</ele><time>2026-05-01T08:51:40Z</time></trkpt><trkpt lat="45.117161188338095" lon="6.979206621657855"><ele>763.3333333333334</ele><time>2026-05-01T08:51:41Z</time></trkpt><trkpt lat="45.11716151599608" lon="6.978912026263785"><ele>763.6666666666666</ele><time>2026-05-01T08:51:42Z</time></trkpt><trkpt lat="45.117143042415" lon="6.97863690076059"><ele>764.0</ele><time>2026-05-01T08:51:43Z</time></trkpt><trkpt lat="45.117140187374154" lon="6.978370776209972"><ele>765.0</ele><time>2026-05-01T08:51:43.999Z</time></trkpt><trkpt lat="45.1171348257434" lon="6.97810744366075"><ele>766.0</ele><time>2026-05-01T08:51:44.999Z</time></trkpt><trkpt lat="45.11710980341493" lon="6.97784612595415"><ele>767.0</ele><time>2026-05-01T08:51:45.999Z</time></trkpt><trkpt lat="45.11711296083333" lon="6.977643936111073"><ele>767.25</ele><time>2026-05-01T08:51:46.999Z</time></trkpt><trkpt lat="45.11708403710865" lon="6.977444545906572"><ele>767.5</ele><time>2026-05-01T08:51:47.999Z</time></trkpt><trkpt lat="45.11704580180381" lon="6.9772701736901945"><ele>767.75</ele><time>2026-05-01T08:51:48.999Z</time></trkpt><trkpt lat="45.11699729108371" lon="6.97710151588721"><ele>768.0</ele><time>2026-05-01T08:51:49.999Z</time></trkpt><trkpt lat="45.11694701746825" lon="6.976909702160524"><ele>768.0</ele><time>2026-05-01T08:51:50.999Z</time></trkpt><trkpt lat="45.11687829795709" lon="6.976741794491071"><ele>768.0</ele><time>2026-05-01T08:51:51.999Z</time></trkpt><trkpt lat="45.11677378232013" lon="6.976565411416653"><ele>768.0</ele><time>2026-05-01T08:51:52.999Z</time></trkpt><trkpt lat="45.11668443664433" lon="6.976391103589661"><ele>769.0</ele><time>2026-05-01T08:51:53.999Z</time></trkpt><trkpt lat="45.116576173920905" lon="6.976219070799854"><ele>770.0</ele><time>2026-05-01T08:51:54.999Z</time></trkpt><trkpt lat="45.11646504738111" lon="6.976070805173518"><ele>771.0</ele><time>2026-05-01T08:51:55.999Z</time></trkpt><trkpt lat="45.11635497894151" lon="6.9759091419194075"><ele>774.0</ele><time>2026-05-01T08:51:56.999Z</time></trkpt><trkpt lat="45.116240455860265" lon="6.975743781613317"><ele>777.0</ele><time>2026-05-01T08:51:57.999Z</time></trkpt><trkpt lat="45.11612300350361" lon="6.975559708260409"><ele>780.0</ele><time>2026-05-01T08:51:58.999Z</time></trkpt><trkpt lat="45.11600766483089" lon="6.975372996505756"><ele>780.0</ele><time>2026-05-01T08:51:59.999Z</time></trkpt><trkpt lat="45.11588689764642" lon="6.975183445839298"><ele>780.0</ele><time>2026-05-01T08:52:00.999Z</time></trkpt><trkpt lat="45.11576289048197" lon="6.974985425767361"><ele>780.0</ele><time>2026-05-01T08:52:01.999Z</time></trkpt><trkpt lat="45.115641912871084" lon="6.974796610325334"><ele>781.6666666666667</ele><time>2026-05-01T08:52:02.999Z</time></trkpt><trkpt lat="45.1155181580389" lon="6.974598710984521"><ele>783.3333333333334</ele><time>2026-05-01T08:52:03.999Z</time></trkpt><trkpt lat="45.11538858755482" lon="6.974420588910405"><ele>785.0</ele><time>2026-05-01T08:52:04.999Z</time></trkpt><trkpt lat="45.11525411994272" lon="6.974216121696426"><ele>788.0</ele><time>2026-05-01T08:52:05.999Z</time></trkpt><trkpt lat="45.11512210578305" lon="6.974008955743659"><ele>791.0</ele><time>2026-05-01T08:52:06.999Z</time></trkpt><trkpt lat="45.11498617875079" lon="6.973801955007969"><ele>794.0</ele><time>2026-05-01T08:52:07.999Z</time></trkpt><trkpt lat="45.1148458825525" lon="6.973596471376123"><ele>791.6666666666667</ele><time>2026-05-01T08:52:08.999Z</time></trkpt><trkpt lat="45.114698136414745" lon="6.973348760728555"><ele>789.3333333333333</ele><time>2026-05-01T08:52:09.999Z</time></trkpt><trkpt lat="45.114550375312135" lon="6.973134721935553"><ele>787.0</ele><time>2026-05-01T08:52:10.999Z</time></trkpt><trkpt lat="45.11440634974168" lon="6.972920988001279"><ele>787.0</ele><time>2026-05-01T08:52:11.999Z</time></trkpt><trkpt lat="45.11426971061378" lon="6.972691837820804"><ele>787.0</ele><time>2026-05-01T08:52:12.999Z</time></trkpt><trkpt lat="45.11413939683094" lon="6.972486944805675"><ele>787.0</ele><time>2026-05-01T08:52:13.999Z</time></trkpt><trkpt lat="45.1140216875258" lon="6.972280089417831"><ele>788.3333333333333</ele><time>2026-05-01T08:52:14.999Z</time></trkpt><trkpt lat="45.11391244087128" lon="6.9720634133763255"><ele>789.6666666666667</ele><time>2026-05-01T08:52:15.999Z</time></trkpt><trkpt lat="45.11383462803205" lon="6.97180200259384"><ele>791.0</ele><time>2026-05-01T08:52:16.999Z</time></trkpt><trkpt lat="45.11374835620743" lon="6.971552495328981"><ele>791.0</ele><time>2026-05-01T08:52:17.999Z</time></trkpt><trkpt lat="45.1136728713751" lon="6.97127386276456"><ele>791.0</ele><time>2026-05-01T08:52:18.999Z</time></trkpt><trkpt lat="45.11357749792205" lon="6.971025860348803"><ele>791.0</ele><time>2026-05-01T08:52:19.999Z</time></trkpt><trkpt lat="45.1134796708388" lon="6.970793283171636"><ele>786.6666666666667</ele><time>2026-05-01T08:52:20.999Z</time></trkpt><trkpt lat="45.11337618086813" lon="6.970579378784095"><ele>782.3333333333333</ele><time>2026-05-01T08:52:21.999Z</time></trkpt><trkpt lat="45.113254073511754" lon="6.970384134416766"><ele>778.0</ele><time>2026-05-01T08:52:22.999Z</time></trkpt><trkpt lat="45.11311105937612" lon="6.970210433179248"><ele>779.3333333333333</ele><time>2026-05-01T08:52:23.999Z</time></trkpt><trkpt lat="45.11293368060889" lon="6.970053494672815"><ele>780.6666666666667</ele><time>2026-05-01T08:52:24.999Z</time></trkpt><trkpt lat="45.11279830598741" lon="6.969952627813075"><ele>782.0</ele><time>2026-05-01T08:52:25.999Z</time></trkpt><trkpt lat="45.11262798544854" lon="6.96982908678247"><ele>782.0</ele><time>2026-05-01T08:52:26.999Z</time></trkpt><trkpt lat="45.11245311433963" lon="6.969746663717653"><ele>782.0</ele><time>2026-05-01T08:52:27.999Z</time></trkpt><trkpt lat="45.11231043506558" lon="6.969653072401425"><ele>782.0</ele><time>2026-05-01T08:52:28.999Z</time></trkpt><trkpt lat="45.112185290533006" lon="6.969557948930816"><ele>786.5</ele><time>2026-05-01T08:52:29.999Z</time></trkpt><trkpt lat="45.11207371193877" lon="6.969438024041541"><ele>791.0</ele><time>2026-05-01T08:52:30.999Z</time></trkpt><trkpt lat="45.111991218224546" lon="6.969293124989208"><ele>795.5</ele><time>2026-05-01T08:52:31.999Z</time></trkpt><trkpt lat="45.111928465510886" lon="6.969108345598005"><ele>800.0</ele><time>2026-05-01T08:52:32.999Z</time></trkpt><trkpt lat="45.11190016117186" lon="6.968919993005587"><ele>800.0</ele><time>2026-05-01T08:52:33.999Z</time></trkpt><trkpt lat="45.11191130197778" lon="6.96872486695189"><ele>800.0</ele><time>2026-05-01T08:52:34.999Z</time></trkpt><trkpt lat="45.11191935492074" lon="6.9685008962410375"><ele>800.0</ele><time>2026-05-01T08:52:35.999Z</time></trkpt><trkpt lat="45.111926808975795" lon="6.968277235346019"><ele>800.0</ele><time>2026-05-01T08:52:36.999Z</time></trkpt><trkpt lat="45.11193437975309" lon="6.968015307253684"><ele>800.0</ele><time>2026-05-01T08:52:37.999Z</time></trkpt><trkpt lat="45.11193386723137" lon="6.967651298208676"><ele>800.0</ele><time>2026-05-01T08:52:39Z</time></trkpt><trkpt lat="45.11193017160932" lon="6.967389773628397"><ele>800.0</ele><time>2026-05-01T08:52:40Z</time></trkpt><trkpt lat="45.111911979401626" lon="6.967122157095541"><ele>800.0</ele><time>2026-05-01T08:52:41Z</time></trkpt><trkpt lat="45.11191363972049" lon="6.966870622647922"><ele>800.0</ele><time>2026-05-01T08:52:42Z</time></trkpt><trkpt lat="45.111905419970704" lon="6.966628408356164"><ele>798.0</ele><time>2026-05-01T08:52:43Z</time></trkpt><trkpt lat="45.11189405961781" lon="6.966390313043459"><ele>796.0</ele><time>2026-05-01T08:52:44Z</time></trkpt><trkpt lat="45.1118429466512" lon="6.966165083999511"><ele>794.0</ele><time>2026-05-01T08:52:45Z</time></trkpt><trkpt lat="45.111826366866985" lon="6.965966233167353"><ele>789.6666666666667</ele><time>2026-05-01T08:52:46Z</time></trkpt><trkpt lat="45.11170228887736" lon="6.965779610900289"><ele>785.3333333333333</ele><time>2026-05-01T08:52:47Z</time></trkpt><trkpt lat="45.11155522408939" lon="6.965634484805829"><ele>781.0</ele><time>2026-05-01T08:52:48Z</time></trkpt><trkpt lat="45.11145554689285" lon="6.9654675679483615"><ele>785.3333333333333</ele><time>2026-05-01T08:52:49Z</time></trkpt><trkpt lat="45.11133621763153" lon="6.9652909642338585"><ele>789.6666666666667</ele><time>2026-05-01T08:52:50Z</time></trkpt><trkpt lat="45.111204005967316" lon="6.965086203204717"><ele>794.0</ele><time>2026-05-01T08:52:51Z</time></trkpt><trkpt lat="45.111070570780996" lon="6.964865561898711"><ele>794.0</ele><time>2026-05-01T08:52:52Z</time></trkpt><trkpt lat="45.110912107080175" lon="6.964592938808096"><ele>794.0</ele><time>2026-05-01T08:52:53Z</time></trkpt><trkpt lat="45.11074863850258" lon="6.964311706377695"><ele>802.0</ele><time>2026-05-01T08:52:54Z</time></trkpt><trkpt lat="45.110602065067056" lon="6.964059539813532"><ele>810.0</ele><time>2026-05-01T08:52:55Z</time></trkpt><trkpt lat="45.110459290414425" lon="6.963813907994961"><ele>810.0</ele><time>2026-05-01T08:52:56Z</time></trkpt><trkpt lat="45.110316560059886" lon="6.963574040583257"><ele>810.0</ele><time>2026-05-01T08:52:57Z</time></trkpt><trkpt lat="45.110172787316216" lon="6.963350230039101"><ele>810.0</ele><time>2026-05-01T08:52:58Z</time></trkpt><trkpt lat="45.11009167079576" lon="6.963121606779521"><ele>804.3333333333333</ele><time>2026-05-01T08:52:59Z</time></trkpt><trkpt lat="45.11000925563238" lon="6.9628689470233365"><ele>798.6666666666666</ele><time>2026-05-01T08:53:00Z</time></trkpt><trkpt lat="45.11000940502299" lon="6.962584299132381"><ele>793.0</ele><time>2026-05-01T08:53:01Z</time></trkpt><trkpt lat="45.10992343218972" lon="6.962339302775208"><ele>795.3333333333333</ele><time>2026-05-01T08:53:02Z</time></trkpt><trkpt lat="45.109812189413105" lon="6.962107128945654"><ele>797.6666666666667</ele><time>2026-05-01T08:53:03Z</time></trkpt><trkpt lat="45.10969709905428" lon="6.961886120401728"><ele>800.0</ele><time>2026-05-01T08:53:04Z</time></trkpt><trkpt lat="45.10958125257683" lon="6.961694768869848"><ele>800.0</ele><time>2026-05-01T08:53:05Z</time></trkpt><trkpt lat="45.10945131778614" lon="6.961486711029906"><ele>800.0</ele><time>2026-05-01T08:53:06Z</time></trkpt><trkpt lat="45.109346785972214" lon="6.961271986764789"><ele>800.0</ele><time>2026-05-01T08:53:07Z</time></trkpt><trkpt lat="45.10926189028623" lon="6.961027830125876"><ele>806.3333333333334</ele><time>2026-05-01T08:53:08Z</time></trkpt><trkpt lat="45.10915876978575" lon="6.960771877002576"><ele>812.6666666666667</ele><time>2026-05-01T08:53:09Z</time></trkpt><trkpt lat="45.10909338853182" lon="6.960514851577199"><ele>819.0</ele><time>2026-05-01T08:53:10Z</time></trkpt><trkpt lat="45.1089839013219" lon="6.960268688003561"><ele>819.0</ele><time>2026-05-01T08:53:11Z</time></trkpt><trkpt lat="45.10885759479504" lon="6.960051484238102"><ele>819.0</ele><time>2026-05-01T08:53:12Z</time></trkpt><trkpt lat="45.10877355601833" lon="6.9598302149748985"><ele>819.0</ele><time>2026-05-01T08:53:13Z</time></trkpt><trkpt lat="45.10870347944614" lon="6.959605572103301"><ele>812.0</ele><time>2026-05-01T08:53:14Z</time></trkpt><trkpt lat="45.10866989707351" lon="6.959387612657252"><ele>805.0</ele><time>2026-05-01T08:53:15Z</time></trkpt><trkpt lat="45.108654545340215" lon="6.959122342669373"><ele>798.0</ele><time>2026-05-01T08:53:16Z</time></trkpt><trkpt lat="45.10866191629363" lon="6.958849507366851"><ele>793.6666666666667</ele><time>2026-05-01T08:53:17Z</time></trkpt><trkpt lat="45.108687950995304" lon="6.958550721663475"><ele>789.3333333333334</ele><time>2026-05-01T08:53:18Z</time></trkpt><trkpt lat="45.10870119863331" lon="6.9582553008465435"><ele>785.0</ele><time>2026-05-01T08:53:19Z</time></trkpt><trkpt lat="45.10868551052134" lon="6.957953477682413"><ele>782.6666666666667</ele><time>2026-05-01T08:53:20Z</time></trkpt><trkpt lat="45.10867274739094" lon="6.957669221551044"><ele>780.3333333333333</ele><time>2026-05-01T08:53:21Z</time></trkpt><trkpt lat="45.10862097658953" lon="6.957383889939849"><ele>778.0</ele><time>2026-05-01T08:53:22Z</time></trkpt><trkpt lat="45.10854585701113" lon="6.957120345257947"><ele>776.3333333333333</ele><time>2026-05-01T08:53:23Z</time></trkpt><trkpt lat="45.108465742112976" lon="6.956852516190857"><ele>774.6666666666667</ele><time>2026-05-01T08:53:24Z</time></trkpt><trkpt lat="45.108355740075005" lon="6.95658173017602"><ele>773.0</ele><time>2026-05-01T08:53:25Z</time></trkpt><trkpt lat="45.108248531607124" lon="6.956285200915244"><ele>765.5</ele><time>2026-05-01T08:53:26Z</time></trkpt><trkpt lat="45.108136591553354" lon="6.95595945978926"><ele>758.0</ele><time>2026-05-01T08:53:27Z</time></trkpt><trkpt lat="45.10801228383427" lon="6.955641809794833"><ele>751.0</ele><time>2026-05-01T08:53:28Z</time></trkpt><trkpt lat="45.107921701452014" lon="6.955317599659648"><ele>744.0</ele><time>2026-05-01T08:53:29Z</time></trkpt><trkpt lat="45.10784379708449" lon="6.955004060533934"><ele>741.0</ele><time>2026-05-01T08:53:30Z</time></trkpt><trkpt lat="45.10777526334773" lon="6.954670033453733"><ele>738.0</ele><time>2026-05-01T08:53:31Z</time></trkpt><trkpt lat="45.107680479217194" lon="6.9543430220388505"><ele>745.5</ele><time>2026-05-01T08:53:32Z</time></trkpt><trkpt lat="45.10760032128545" lon="6.954018907957587"><ele>753.0</ele><time>2026-05-01T08:53:33Z</time></trkpt><trkpt lat="45.10751554844303" lon="6.953704700480692"><ele>753.0</ele><time>2026-05-01T08:53:34Z</time></trkpt><trkpt lat="45.10744270125827" lon="6.953386367022787"><ele>753.0</ele><time>2026-05-01T08:53:35Z</time></trkpt><trkpt lat="45.107372592080154" lon="6.953081211662623"><ele>752.0</ele><time>2026-05-01T08:53:36Z</time></trkpt><trkpt lat="45.107303784885026" lon="6.952764869917391"><ele>751.0</ele><time>2026-05-01T08:53:37Z</time></trkpt><trkpt lat="45.10723397796119" lon="6.952466699451946"><ele>751.0</ele><time>2026-05-01T08:53:38Z</time></trkpt><trkpt lat="45.1071670467868" lon="6.952186615338149"><ele>751.0</ele><time>2026-05-01T08:53:39Z</time></trkpt><trkpt lat="45.107094647508056" lon="6.951910150378451"><ele>751.0</ele><time>2026-05-01T08:53:40Z</time></trkpt><trkpt lat="45.107008926148644" lon="6.951637414117951"><ele>755.3333333333334</ele><time>2026-05-01T08:53:41Z</time></trkpt><trkpt lat="45.106919903879806" lon="6.951382420955326"><ele>759.6666666666666</ele><time>2026-05-01T08:53:42Z</time></trkpt><trkpt lat="45.10682369865429" lon="6.951143827096362"><ele>764.0</ele><time>2026-05-01T08:53:43Z</time></trkpt><trkpt lat="45.106731479937814" lon="6.950924590366322"><ele>756.0</ele><time>2026-05-01T08:53:44Z</time></trkpt><trkpt lat="45.106665004410175" lon="6.9507090401289835"><ele>748.0</ele><time>2026-05-01T08:53:45Z</time></trkpt><trkpt lat="45.10661520404153" lon="6.950457040767925"><ele>740.0</ele><time>2026-05-01T08:53:46Z</time></trkpt><trkpt lat="45.10657520085511" lon="6.950213545883051"><ele>745.0</ele><time>2026-05-01T08:53:47Z</time></trkpt><trkpt lat="45.106544913865626" lon="6.949975676518308"><ele>750.0</ele><time>2026-05-01T08:53:48Z</time></trkpt><trkpt lat="45.10652621731292" lon="6.949774376134583"><ele>755.0</ele><time>2026-05-01T08:53:49Z</time></trkpt><trkpt lat="45.106471995278774" lon="6.949579095207685"><ele>755.0</ele><time>2026-05-01T08:53:50Z</time></trkpt><trkpt lat="45.106401868339866" lon="6.949417307889188"><ele>755.0</ele><time>2026-05-01T08:53:51Z</time></trkpt><trkpt lat="45.10625302025056" lon="6.949304564370605"><ele>755.0</ele><time>2026-05-01T08:53:52Z</time></trkpt><trkpt lat="45.10621102402323" lon="6.949192373367061"><ele>755.0</ele><time>2026-05-01T08:53:53Z</time></trkpt><trkpt lat="45.10616326567182" lon="6.949076752787249"><ele>759.25</ele><time>2026-05-01T08:53:54Z</time></trkpt><trkpt lat="45.10608583271543" lon="6.948917572560581"><ele>763.5</ele><time>2026-05-01T08:53:55Z</time></trkpt><trkpt lat="45.10604346851538" lon="6.948719387199283"><ele>767.75</ele><time>2026-05-01T08:53:55.999Z</time></trkpt><trkpt lat="45.106005172022144" lon="6.948501184838441"><ele>772.0</ele><time>2026-05-01T08:53:56.999Z</time></trkpt><trkpt lat="45.10594687546079" lon="6.948311232591294"><ele>777.25</ele><time>2026-05-01T08:53:57.999Z</time></trkpt><trkpt lat="45.1059634545921" lon="6.948076196396014"><ele>782.5</ele><time>2026-05-01T08:53:58.999Z</time></trkpt><trkpt lat="45.105946651322235" lon="6.947893861530949"><ele>787.75</ele><time>2026-05-01T08:53:59.999Z</time></trkpt><trkpt lat="45.10593770433134" lon="6.947727021068918"><ele>793.0</ele><time>2026-05-01T08:54:00.999Z</time></trkpt><trkpt lat="45.10588139438388" lon="6.9475321110172565"><ele>799.0</ele><time>2026-05-01T08:54:01.999Z</time></trkpt><trkpt lat="45.10579495389608" lon="6.947352257590217"><ele>805.0</ele><time>2026-05-01T08:54:02.999Z</time></trkpt><trkpt lat="45.10571254340602" lon="6.947160197514802"><ele>811.0</ele><time>2026-05-01T08:54:03.999Z</time></trkpt><trkpt lat="45.10562367831663" lon="6.9469469679443305"><ele>804.3333333333333</ele><time>2026-05-01T08:54:04.999Z</time></trkpt><trkpt lat="45.105512250311925" lon="6.946729943766529"><ele>797.6666666666667</ele><time>2026-05-01T08:54:05.999Z</time></trkpt><trkpt lat="45.105379401148554" lon="6.9465448621765615"><ele>791.0</ele><time>2026-05-01T08:54:06.999Z</time></trkpt><trkpt lat="45.10528112731947" lon="6.946355613013757"><ele>791.0</ele><time>2026-05-01T08:54:07.999Z</time></trkpt><trkpt lat="45.105174011332494" lon="6.946182493333754"><ele>791.0</ele><time>2026-05-01T08:54:08.999Z</time></trkpt><trkpt lat="45.10504265125701" lon="6.946025050715193"><ele>791.0</ele><time>2026-05-01T08:54:09.999Z</time></trkpt><trkpt lat="45.104910422249354" lon="6.945962905792053"><ele>789.6666666666667</ele><time>2026-05-01T08:54:10.999Z</time></trkpt><trkpt lat="45.10476894172083" lon="6.945864603967611"><ele>788.3333333333333</ele><time>2026-05-01T08:54:11.999Z</time></trkpt><trkpt lat="45.10460355447236" lon="6.9457441738244725"><ele>787.0</ele><time>2026-05-01T08:54:12.999Z</time></trkpt><trkpt lat="45.10444206143384" lon="6.945628120486369"><ele>787.0</ele><time>2026-05-01T08:54:13.999Z</time></trkpt><trkpt lat="45.10431931834315" lon="6.945494165502528"><ele>787.0</ele><time>2026-05-01T08:54:14.999Z</time></trkpt><trkpt lat="45.10422419821329" lon="6.9453398611230135"><ele>787.0</ele><time>2026-05-01T08:54:15.999Z</time></trkpt><trkpt lat="45.10415912481819" lon="6.945159701060339"><ele>787.0</ele><time>2026-05-01T08:54:16.999Z</time></trkpt><trkpt lat="45.10406706783363" lon="6.944956405282142"><ele>786.0</ele><time>2026-05-01T08:54:17.999Z</time></trkpt><trkpt lat="45.103937461746135" lon="6.944786800600479"><ele>785.0</ele><time>2026-05-01T08:54:18.999Z</time></trkpt><trkpt lat="45.10382823022037" lon="6.944598544639778"><ele>784.0</ele><time>2026-05-01T08:54:19.999Z</time></trkpt><trkpt lat="45.10371303673318" lon="6.944361999170637"><ele>792.3333333333333</ele><time>2026-05-01T08:54:20.999Z</time></trkpt><trkpt lat="45.10360009937158" lon="6.944178124867657"><ele>800.6666666666667</ele><time>2026-05-01T08:54:21.999Z</time></trkpt><trkpt lat="45.10348151063277" lon="6.943990711366584"><ele>809.0</ele><time>2026-05-01T08:54:22.999Z</time></trkpt><trkpt lat="45.10337585388592" lon="6.943807284408324"><ele>809.0</ele><time>2026-05-01T08:54:23.999Z</time></trkpt><trkpt lat="45.10330529863934" lon="6.943532633182601"><ele>809.0</ele><time>2026-05-01T08:54:24.999Z</time></trkpt><trkpt lat="45.103222076571406" lon="6.943282852122245"><ele>809.0</ele><time>2026-05-01T08:54:25.999Z</time></trkpt><trkpt lat="45.10312782889586" lon="6.943059689887536"><ele>807.6666666666667</ele><time>2026-05-01T08:54:26.999Z</time></trkpt><trkpt lat="45.103019855115484" lon="6.942854738457442"><ele>806.3333333333333</ele><time>2026-05-01T08:54:27.999Z</time></trkpt><trkpt lat="45.10291990173257" lon="6.942685059392114"><ele>805.0</ele><time>2026-05-01T08:54:28.999Z</time></trkpt><trkpt lat="45.102823435247366" lon="6.942508183704764"><ele>808.5</ele><time>2026-05-01T08:54:29.999Z</time></trkpt><trkpt lat="45.10273625568529" lon="6.942356542926579"><ele>812.0</ele><time>2026-05-01T08:54:30.999Z</time></trkpt><trkpt lat="45.102669285766744" lon="6.942190579908677"><ele>815.5</ele><time>2026-05-01T08:54:31.999Z</time></trkpt><trkpt lat="45.102638064891295" lon="6.941961253698782"><ele>819.0</ele><time>2026-05-01T08:54:32.999Z</time></trkpt><trkpt lat="45.10261436649303" lon="6.941687259798007"><ele>823.0</ele><time>2026-05-01T08:54:33.999Z</time></trkpt><trkpt lat="45.10261085025065" lon="6.941443758254527"><ele>827.0</ele><time>2026-05-01T08:54:34.999Z</time></trkpt><trkpt lat="45.102588213200605" lon="6.94121129252828"><ele>831.0</ele><time>2026-05-01T08:54:35.999Z</time></trkpt><trkpt lat="45.10252363518124" lon="6.940922194880979"><ele>836.6666666666667</ele><time>2026-05-01T08:54:36.999Z</time></trkpt><trkpt lat="45.10247953850612" lon="6.9406516889546035"><ele>842.3333333333334</ele><time>2026-05-01T08:54:37.999Z</time></trkpt><trkpt lat="45.1024599841783" lon="6.9403520021608625"><ele>848.0</ele><time>2026-05-01T08:54:38.999Z</time></trkpt><trkpt lat="45.102420155089085" lon="6.940065987582511"><ele>844.0</ele><time>2026-05-01T08:54:39.999Z</time></trkpt><trkpt lat="45.10236650147072" lon="6.9397517751527324"><ele>840.0</ele><time>2026-05-01T08:54:40.999Z</time></trkpt><trkpt lat="45.102325106289406" lon="6.93948601482984"><ele>836.0</ele><time>2026-05-01T08:54:41.999Z</time></trkpt><trkpt lat="45.10228114424554" lon="6.939224825270223"><ele>839.0</ele><time>2026-05-01T08:54:42.999Z</time></trkpt><trkpt lat="45.102208358981144" lon="6.939011723047566"><ele>842.0</ele><time>2026-05-01T08:54:43.999Z</time></trkpt><trkpt lat="45.10211817151074" lon="6.938840664665438"><ele>845.0</ele><time>2026-05-01T08:54:45Z</time></trkpt><trkpt lat="45.10202067466692" lon="6.93863375475537"><ele>846.0</ele><time>2026-05-01T08:54:46Z</time></trkpt><trkpt lat="45.10193358625942" lon="6.938372028500971"><ele>847.0</ele><time>2026-05-01T08:54:47Z</time></trkpt><trkpt lat="45.10190806235698" lon="6.9381674780226845"><ele>848.0</ele><time>2026-05-01T08:54:48Z</time></trkpt><trkpt lat="45.10188471596697" lon="6.938045492286327"><ele>849.0</ele><time>2026-05-01T08:54:49Z</time></trkpt><trkpt lat="45.101848035770246" lon="6.937877327456247"><ele>849.0</ele><time>2026-05-01T08:54:50Z</time></trkpt><trkpt lat="45.101888480832166" lon="6.937689685748057"><ele>849.0</ele><time>2026-05-01T08:54:51Z</time></trkpt><trkpt lat="45.10190995187261" lon="6.937442395393959"><ele>849.0</ele><time>2026-05-01T08:54:52Z</time></trkpt><trkpt lat="45.10191215638494" lon="6.937167312397146"><ele>850.0</ele><time>2026-05-01T08:54:53Z</time></trkpt><trkpt lat="45.101953072198675" lon="6.9368667820328564"><ele>851.0</ele><time>2026-05-01T08:54:54Z</time></trkpt><trkpt lat="45.1019204313986" lon="6.936594571233223"><ele>852.0</ele><time>2026-05-01T08:54:55Z</time></trkpt><trkpt lat="45.10188086121429" lon="6.936348521616411"><ele>853.3333333333333</ele><time>2026-05-01T08:54:56Z</time></trkpt><trkpt lat="45.10184523426214" lon="6.936091373105775"><ele>854.6666666666666</ele><time>2026-05-01T08:54:57Z</time></trkpt><trkpt lat="45.10178494986251" lon="6.935870353718888"><ele>856.0</ele><time>2026-05-01T08:54:58Z</time></trkpt><trkpt lat="45.101706401937555" lon="6.935593494913269"><ele>856.6666666666666</ele><time>2026-05-01T08:54:59Z</time></trkpt><trkpt lat="45.10163826321431" lon="6.935377451745321"><ele>857.3333333333333</ele><time>2026-05-01T08:55:00Z</time></trkpt><trkpt lat="45.10156441061847" lon="6.935143111734818"><ele>858.0</ele><time>2026-05-01T08:55:01Z</time></trkpt><trkpt lat="45.101447414897564" lon="6.934943839243011"><ele>860.0</ele><time>2026-05-01T08:55:02Z</time></trkpt><trkpt lat="45.10133153905288" lon="6.934720774054817"><ele>862.0</ele><time>2026-05-01T08:55:03Z</time></trkpt><trkpt lat="45.10119405725351" lon="6.934547555638694"><ele>864.0</ele><time>2026-05-01T08:55:04Z</time></trkpt><trkpt lat="45.10107745288535" lon="6.9343463226946636"><ele>864.0</ele><time>2026-05-01T08:55:05Z</time></trkpt><trkpt lat="45.10097484520453" lon="6.93416841506063"><ele>864.0</ele><time>2026-05-01T08:55:06Z</time></trkpt><trkpt lat="45.10090710298728" lon="6.933943795375358"><ele>864.0</ele><time>2026-05-01T08:55:07Z</time></trkpt><trkpt lat="45.10085480930653" lon="6.933718509433466"><ele>864.0</ele><time>2026-05-01T08:55:08Z</time></trkpt><trkpt lat="45.10080975530049" lon="6.9334991184671875"><ele>864.0</ele><time>2026-05-01T08:55:09Z</time></trkpt><trkpt lat="45.100773642867004" lon="6.933253835544416"><ele>864.0</ele><time>2026-05-01T08:55:10Z</time></trkpt><trkpt lat="45.10075090885177" lon="6.933016692600575"><ele>862.6666666666667</ele><time>2026-05-01T08:55:11Z</time></trkpt><trkpt lat="45.10071169886914" lon="6.9327968014166474"><ele>861.3333333333334</ele><time>2026-05-01T08:55:12Z</time></trkpt><trkpt lat="45.1006537173676" lon="6.93259530064431"><ele>860.0</ele><time>2026-05-01T08:55:13Z</time></trkpt><trkpt lat="45.1005565255348" lon="6.932411907650814"><ele>862.6666666666667</ele><time>2026-05-01T08:55:14Z</time></trkpt><trkpt lat="45.10045610266611" lon="6.932263009914263"><ele>865.3333333333333</ele><time>2026-05-01T08:55:15Z</time></trkpt><trkpt lat="45.10031150736538" lon="6.932116417176535"><ele>868.0</ele><time>2026-05-01T08:55:16Z</time></trkpt><trkpt lat="45.10017334087626" lon="6.9320012881564015"><ele>868.0</ele><time>2026-05-01T08:55:17Z</time></trkpt><trkpt lat="45.100044994359386" lon="6.931897808712713"><ele>868.0</ele><time>2026-05-01T08:55:18Z</time></trkpt><trkpt lat="45.09989914811358" lon="6.931746304243645"><ele>868.0</ele><time>2026-05-01T08:55:19Z</time></trkpt><trkpt lat="45.09976845990681" lon="6.9315857259384535"><ele>867.6666666666666</ele><time>2026-05-01T08:55:20Z</time></trkpt><trkpt lat="45.09958216497881" lon="6.931441789682806"><ele>867.3333333333333</ele><time>2026-05-01T08:55:21Z</time></trkpt><trkpt lat="45.09943366074343" lon="6.931284540720088"><ele>867.0</ele><time>2026-05-01T08:55:22Z</time></trkpt><trkpt lat="45.09930870357253" lon="6.93108054662884"><ele>867.6666666666667</ele><time>2026-05-01T08:55:23Z</time></trkpt><trkpt lat="45.09918314850388" lon="6.930867603743131"><ele>868.3333333333334</ele><time>2026-05-01T08:55:24Z</time></trkpt><trkpt lat="45.0990570591231" lon="6.930688005974105"><ele>869.0</ele><time>2026-05-01T08:55:25Z</time></trkpt><trkpt lat="45.09893813916095" lon="6.9304699460670625"><ele>869.0</ele><time>2026-05-01T08:55:26Z</time></trkpt><trkpt lat="45.098817408701635" lon="6.930252188641926"><ele>869.0</ele><time>2026-05-01T08:55:27Z</time></trkpt><trkpt lat="45.09872922946363" lon="6.929970093676035"><ele>869.0</ele><time>2026-05-01T08:55:28Z</time></trkpt><trkpt lat="45.09863116958261" lon="6.929726549157975"><ele>873.0</ele><time>2026-05-01T08:55:29Z</time></trkpt><trkpt lat="45.098532249729196" lon="6.929478752341529"><ele>877.0</ele><time>2026-05-01T08:55:30Z</time></trkpt><trkpt lat="45.09843163049836" lon="6.929215599285473"><ele>881.0</ele><time>2026-05-01T08:55:31Z</time></trkpt><trkpt lat="45.09834449207393" lon="6.928948474793613"><ele>881.0</ele><time>2026-05-01T08:55:32Z</time></trkpt><trkpt lat="45.098240359697606" lon="6.928656599820818"><ele>881.0</ele><time>2026-05-01T08:55:33Z</time></trkpt><trkpt lat="45.098139140872476" lon="6.928379387584867"><ele>882.0</ele><time>2026-05-01T08:55:34Z</time></trkpt><trkpt lat="45.098031352035576" lon="6.928113633328972"><ele>883.0</ele><time>2026-05-01T08:55:35Z</time></trkpt><trkpt lat="45.097933345966474" lon="6.927855254239084"><ele>884.0</ele><time>2026-05-01T08:55:36Z</time></trkpt><trkpt lat="45.09784025571984" lon="6.927604773048803"><ele>887.3333333333334</ele><time>2026-05-01T08:55:37Z</time></trkpt><trkpt lat="45.09775847623338" lon="6.927371132123412"><ele>890.6666666666667</ele><time>2026-05-01T08:55:38Z</time></trkpt><trkpt lat="45.09768239810464" lon="6.927179944220002"><ele>894.0</ele><time>2026-05-01T08:55:39Z</time></trkpt><trkpt lat="45.097601560592054" lon="6.92697647268361"><ele>894.0</ele><time>2026-05-01T08:55:40Z</time></trkpt><trkpt lat="45.09752152181931" lon="6.926797601334937"><ele>894.0</ele><time>2026-05-01T08:55:41Z</time></trkpt><trkpt lat="45.097411411117236" lon="6.926688664257575"><ele>894.0</ele><time>2026-05-01T08:55:42Z</time></trkpt><trkpt lat="45.09726473733711" lon="6.926579512534673"><ele>894.0</ele><time>2026-05-01T08:55:43Z</time></trkpt><trkpt lat="45.097146578925724" lon="6.9265730085221096"><ele>894.0</ele><time>2026-05-01T08:55:44Z</time></trkpt><trkpt lat="45.09698490270665" lon="6.926556118282711"><ele>894.0</ele><time>2026-05-01T08:55:45Z</time></trkpt><trkpt lat="45.096807187714504" lon="6.926517366386535"><ele>894.0</ele><time>2026-05-01T08:55:46Z</time></trkpt><trkpt lat="45.09663821955215" lon="6.926464019173495"><ele>888.0</ele><time>2026-05-01T08:55:47Z</time></trkpt><trkpt lat="45.09645630687268" lon="6.926402455539983"><ele>882.0</ele><time>2026-05-01T08:55:48Z</time></trkpt><trkpt lat="45.096257850656166" lon="6.9263025815732"><ele>876.0</ele><time>2026-05-01T08:55:49Z</time></trkpt><trkpt lat="45.096064874615315" lon="6.926199852461049"><ele>876.0</ele><time>2026-05-01T08:55:50Z</time></trkpt><trkpt lat="45.09586691570371" lon="6.926087765943008"><ele>876.0</ele><time>2026-05-01T08:55:51Z</time></trkpt><trkpt lat="45.09567569698043" lon="6.925948415566045"><ele>876.0</ele><time>2026-05-01T08:55:52Z</time></trkpt><trkpt lat="45.09549286300149" lon="6.925749170902068"><ele>877.3333333333333</ele><time>2026-05-01T08:55:53Z</time></trkpt><trkpt lat="45.09533217040416" lon="6.925577977719557"><ele>878.6666666666666</ele><time>2026-05-01T08:55:54Z</time></trkpt><trkpt lat="45.09518313229005" lon="6.925389621145244"><ele>880.0</ele><time>2026-05-01T08:55:55Z</time></trkpt><trkpt lat="45.09504658627955" lon="6.925202344464095"><ele>875.6666666666666</ele><time>2026-05-01T08:55:56Z</time></trkpt><trkpt lat="45.094922585261266" lon="6.925010677945194"><ele>871.3333333333333</ele><time>2026-05-01T08:55:57Z</time></trkpt><trkpt lat="45.094757767679596" lon="6.924725584988622"><ele>867.0</ele><time>2026-05-01T08:55:58Z</time></trkpt><trkpt lat="45.09462445988028" lon="6.924463433879139"><ele>877.3333333333333</ele><time>2026-05-01T08:55:59Z</time></trkpt><trkpt lat="45.09449073280105" lon="6.924200458018001"><ele>887.6666666666666</ele><time>2026-05-01T08:56:00.015Z</time></trkpt><trkpt lat="45.09437092657618" lon="6.92396485766812"><ele>898.0</ele><time>2026-05-01T08:56:01.021Z</time></trkpt><trkpt lat="45.09425084860467" lon="6.923722104302302"><ele>898.0</ele><time>2026-05-01T08:56:01.999Z</time></trkpt><trkpt lat="45.09411219458566" lon="6.923401504295893"><ele>898.0</ele><time>2026-05-01T08:56:02.999Z</time></trkpt><trkpt lat="45.09400396132172" lon="6.923089735274679"><ele>895.0</ele><time>2026-05-01T08:56:03.999Z</time></trkpt><trkpt lat="45.09392667907011" lon="6.922799570139893"><ele>892.0</ele><time>2026-05-01T08:56:04.999Z</time></trkpt><trkpt lat="45.0938628493141" lon="6.9224963614109445"><ele>889.0</ele><time>2026-05-01T08:56:05.999Z</time></trkpt><trkpt lat="45.09384068392632" lon="6.92219259806619"><ele>889.0</ele><time>2026-05-01T08:56:06.999Z</time></trkpt><trkpt lat="45.0938031080409" lon="6.921875275134774"><ele>889.0</ele><time>2026-05-01T08:56:07.999Z</time></trkpt><trkpt lat="45.093767564273875" lon="6.921548111352699"><ele>892.6666666666666</ele><time>2026-05-01T08:56:08.999Z</time></trkpt><trkpt lat="45.093705831708" lon="6.921263643323673"><ele>896.3333333333333</ele><time>2026-05-01T08:56:09.999Z</time></trkpt><trkpt lat="45.09363121761943" lon="6.920978722495013"><ele>900.0</ele><time>2026-05-01T08:56:10.999Z</time></trkpt><trkpt lat="45.09354833992436" lon="6.920696385764768"><ele>899.3333333333333</ele><time>2026-05-01T08:56:11.999Z</time></trkpt><trkpt lat="45.09344992415053" lon="6.9204148743934395"><ele>898.6666666666666</ele><time>2026-05-01T08:56:12.999Z</time></trkpt><trkpt lat="45.09334929494378" lon="6.920150738785771"><ele>898.0</ele><time>2026-05-01T08:56:13.999Z</time></trkpt><trkpt lat="45.093237309407705" lon="6.919884331646113"><ele>898.0</ele><time>2026-05-01T08:56:14.999Z</time></trkpt><trkpt lat="45.0931315419226" lon="6.919636153606532"><ele>898.0</ele><time>2026-05-01T08:56:15.999Z</time></trkpt><trkpt lat="45.09300410376876" lon="6.919389653452066"><ele>898.0</ele><time>2026-05-01T08:56:16.999Z</time></trkpt><trkpt lat="45.09286973408897" lon="6.91915534785118"><ele>906.0</ele><time>2026-05-01T08:56:17.999Z</time></trkpt><trkpt lat="45.09274061874569" lon="6.918919858064034"><ele>914.0</ele><time>2026-05-01T08:56:18.999Z</time></trkpt><trkpt lat="45.092606461735485" lon="6.918697195287053"><ele>922.0</ele><time>2026-05-01T08:56:19.999Z</time></trkpt><trkpt lat="45.09245849832618" lon="6.918467361370828"><ele>919.6666666666666</ele><time>2026-05-01T08:56:20.999Z</time></trkpt><trkpt lat="45.092313848327635" lon="6.918238531847074"><ele>917.3333333333333</ele><time>2026-05-01T08:56:21.999Z</time></trkpt><trkpt lat="45.09216681637264" lon="6.918003489542916"><ele>915.0</ele><time>2026-05-01T08:56:22.999Z</time></trkpt><trkpt lat="45.09202121072396" lon="6.917760464337834"><ele>925.6666666666667</ele><time>2026-05-01T08:56:23.999Z</time></trkpt><trkpt lat="45.091890932508974" lon="6.917520753244401"><ele>936.3333333333334</ele><time>2026-05-01T08:56:24.999Z</time></trkpt><trkpt lat="45.09175660295572" lon="6.917279940771484"><ele>947.0</ele><time>2026-05-01T08:56:25.999Z</time></trkpt><trkpt lat="45.09162291475682" lon="6.917043886844881"><ele>939.6666666666667</ele><time>2026-05-01T08:56:26.999Z</time></trkpt><trkpt lat="45.09148819106337" lon="6.9167992552627675"><ele>932.3333333333333</ele><time>2026-05-01T08:56:27.999Z</time></trkpt><trkpt lat="45.09136453885646" lon="6.916568317167242"><ele>925.0</ele><time>2026-05-01T08:56:28.999Z</time></trkpt><trkpt lat="45.09129119413379" lon="6.916463068471975"><ele>925.0</ele><time>2026-05-01T08:56:29.999Z</time></trkpt><trkpt lat="45.091193301297864" lon="6.91631982994878"><ele>925.0</ele><time>2026-05-01T08:56:30.999Z</time></trkpt><trkpt lat="45.091083156218346" lon="6.916130140614432"><ele>925.0</ele><time>2026-05-01T08:56:31.999Z</time></trkpt><trkpt lat="45.0909488888099" lon="6.9159480322541595"><ele>920.3333333333333</ele><time>2026-05-01T08:56:32.999Z</time></trkpt><trkpt lat="45.09079971464239" lon="6.915715276278355"><ele>915.6666666666667</ele><time>2026-05-01T08:56:33.999Z</time></trkpt><trkpt lat="45.090662787228766" lon="6.91549689709174"><ele>911.0</ele><time>2026-05-01T08:56:34.999Z</time></trkpt><trkpt lat="45.09054498547338" lon="6.915275186722334"><ele>923.3333333333334</ele><time>2026-05-01T08:56:35.999Z</time></trkpt><trkpt lat="45.09042309921262" lon="6.915033422331346"><ele>935.6666666666667</ele><time>2026-05-01T08:56:36.999Z</time></trkpt><trkpt lat="45.09030303809711" lon="6.914768729501657"><ele>948.0</ele><time>2026-05-01T08:56:37.999Z</time></trkpt><trkpt lat="45.09020890501979" lon="6.914469649752367"><ele>954.6666666666667</ele><time>2026-05-01T08:56:38.999Z</time></trkpt><trkpt lat="45.09010716151903" lon="6.91420070133877"><ele>961.3333333333334</ele><time>2026-05-01T08:56:39.999Z</time></trkpt><trkpt lat="45.09001292335989" lon="6.913951415157675"><ele>968.0</ele><time>2026-05-01T08:56:40.999Z</time></trkpt><trkpt lat="45.08993394807244" lon="6.913705516729148"><ele>962.6666666666667</ele><time>2026-05-01T08:56:41.999Z</time></trkpt><trkpt lat="45.08985394505237" lon="6.913488171806505"><ele>957.3333333333333</ele><time>2026-05-01T08:56:42.999Z</time></trkpt><trkpt lat="45.08976723142103" lon="6.913235711704064"><ele>952.0</ele><time>2026-05-01T08:56:43.999Z</time></trkpt><trkpt lat="45.08968547115946" lon="6.912994993898342"><ele>952.0</ele><time>2026-05-01T08:56:44.999Z</time></trkpt><trkpt lat="45.08960150066371" lon="6.912741085702136"><ele>952.0</ele><time>2026-05-01T08:56:45.999Z</time></trkpt><trkpt lat="45.08952808687879" lon="6.912486011741324"><ele>952.0</ele><time>2026-05-01T08:56:46.999Z</time></trkpt><trkpt lat="45.08946767345118" lon="6.9122358009126295"><ele>957.6666666666666</ele><time>2026-05-01T08:56:47.999Z</time></trkpt><trkpt lat="45.089375712363356" lon="6.912046551141849"><ele>963.3333333333333</ele><time>2026-05-01T08:56:48.999Z</time></trkpt><trkpt lat="45.089263798110764" lon="6.911839760645172"><ele>969.0</ele><time>2026-05-01T08:56:49.999Z</time></trkpt><trkpt lat="45.08912922126131" lon="6.911646467552781"><ele>965.3333333333333</ele><time>2026-05-01T08:56:51Z</time></trkpt><trkpt lat="45.089027087938014" lon="6.911452508233807"><ele>961.6666666666666</ele><time>2026-05-01T08:56:52Z</time></trkpt><trkpt lat="45.088929389990206" lon="6.911284176071985"><ele>958.0</ele><time>2026-05-01T08:56:53Z</time></trkpt><trkpt lat="45.08877777387434" lon="6.911126358706937"><ele>958.0</ele><time>2026-05-01T08:56:54Z</time></trkpt><trkpt lat="45.088663818380944" lon="6.911002576097542"><ele>958.0</ele><time>2026-05-01T08:56:55Z</time></trkpt><trkpt lat="45.08858679320958" lon="6.9108628613665655"><ele>958.0</ele><time>2026-05-01T08:56:56Z</time></trkpt><trkpt lat="45.08855824007052" lon="6.910667042730853"><ele>958.0</ele><time>2026-05-01T08:56:57Z</time></trkpt><trkpt lat="45.088525330820524" lon="6.910477579118057"><ele>966.3333333333333</ele><time>2026-05-01T08:56:58Z</time></trkpt><trkpt lat="45.08852084024891" lon="6.910234456472271"><ele>974.6666666666667</ele><time>2026-05-01T08:56:59Z</time></trkpt><trkpt lat="45.08856684315117" lon="6.909969488107028"><ele>983.0</ele><time>2026-05-01T08:57:00Z</time></trkpt><trkpt lat="45.088576664437355" lon="6.909723754213609"><ele>985.3333333333334</ele><time>2026-05-01T08:57:01Z</time></trkpt><trkpt lat="45.088586407431315" lon="6.909474004533439"><ele>987.6666666666667</ele><time>2026-05-01T08:57:02Z</time></trkpt><trkpt lat="45.088553900308895" lon="6.909190520642309"><ele>990.0</ele><time>2026-05-01T08:57:03Z</time></trkpt><trkpt lat="45.08852498946172" lon="6.908972128946187"><ele>992.3333333333333</ele><time>2026-05-01T08:57:04Z</time></trkpt><trkpt lat="45.088496412226036" lon="6.908746350374688"><ele>994.6666666666666</ele><time>2026-05-01T08:57:05Z</time></trkpt><trkpt lat="45.0884532302058" lon="6.908540188770743"><ele>997.0</ele><time>2026-05-01T08:57:06Z</time></trkpt><trkpt lat="45.08841805431581" lon="6.908351227191923"><ele>997.5</ele><time>2026-05-01T08:57:07Z</time></trkpt><trkpt lat="45.08837798993224" lon="6.908172678983588"><ele>998.0</ele><time>2026-05-01T08:57:08Z</time></trkpt><trkpt lat="45.08833201745379" lon="6.90800348368168"><ele>998.5</ele><time>2026-05-01T08:57:09Z</time></trkpt><trkpt lat="45.08826141282398" lon="6.90787997736777"><ele>999.0</ele><time>2026-05-01T08:57:10Z</time></trkpt><trkpt lat="45.0881742466525" lon="6.90774537955332"><ele>999.0</ele><time>2026-05-01T08:57:11Z</time></trkpt><trkpt lat="45.088072706319956" lon="6.907691188435452"><ele>999.0</ele><time>2026-05-01T08:57:12Z</time></trkpt><trkpt lat="45.08794611756422" lon="6.907659689777426"><ele>999.0</ele><time>2026-05-01T08:57:13Z</time></trkpt><trkpt lat="45.08779127917346" lon="6.907613406044392"><ele>999.0</ele><time>2026-05-01T08:57:14Z</time></trkpt><trkpt lat="45.08768596081772" lon="6.907598154364234"><ele>999.0</ele><time>2026-05-01T08:57:15Z</time></trkpt><trkpt lat="45.087578340966196" lon="6.907609180916314"><ele>999.0</ele><time>2026-05-01T08:57:16Z</time></trkpt><trkpt lat="45.08744664863982" lon="6.9076458595971495"><ele>999.0</ele><time>2026-05-01T08:57:17Z</time></trkpt><trkpt lat="45.087275048386644" lon="6.907714056621656"><ele>999.0</ele><time>2026-05-01T08:57:18Z</time></trkpt><trkpt lat="45.08710873753288" lon="6.907815124457561"><ele>1002.3333333333333</ele><time>2026-05-01T08:57:19Z</time></trkpt><trkpt lat="45.08694410490581" lon="6.907855460211756"><ele>1005.6666666666666</ele><time>2026-05-01T08:57:20Z</time></trkpt><trkpt lat="45.08678643698615" lon="6.90786022228315"><ele>1009.0</ele><time>2026-05-01T08:57:21Z</time></trkpt><trkpt lat="45.08663618843508" lon="6.907874198282028"><ele>1013.0</ele><time>2026-05-01T08:57:22Z</time></trkpt><trkpt lat="45.08648935268388" lon="6.907900974550803"><ele>1017.0</ele><time>2026-05-01T08:57:23Z</time></trkpt><trkpt lat="45.0863471237882" lon="6.907930639411646"><ele>1021.0</ele><time>2026-05-01T08:57:24Z</time></trkpt><trkpt lat="45.08625003536658" lon="6.907893976714073"><ele>1025.0</ele><time>2026-05-01T08:57:25Z</time></trkpt><trkpt lat="45.08611296008575" lon="6.9079429816784"><ele>1025.0</ele><time>2026-05-01T08:57:26Z</time></trkpt><trkpt lat="45.08598496662545" lon="6.908004787590312"><ele>1025.0</ele><time>2026-05-01T08:57:27Z</time></trkpt><trkpt lat="45.085863154323505" lon="6.9080860555454855"><ele>1025.0</ele><time>2026-05-01T08:57:28Z</time></trkpt><trkpt lat="45.085782485462104" lon="6.908244544044534"><ele>1025.0</ele><time>2026-05-01T08:57:29Z</time></trkpt><trkpt lat="45.08564540916332" lon="6.9083528568887"><ele>1025.5</ele><time>2026-05-01T08:57:30Z</time></trkpt><trkpt lat="45.08553186457542" lon="6.908404922862674"><ele>1026.0</ele><time>2026-05-01T08:57:31Z</time></trkpt><trkpt lat="45.08539811912745" lon="6.908408659161491"><ele>1026.5</ele><time>2026-05-01T08:57:32Z</time></trkpt><trkpt lat="45.085249812005294" lon="6.9084011241445875"><ele>1027.0</ele><time>2026-05-01T08:57:33Z</time></trkpt><trkpt lat="45.08509109183211" lon="6.908374708203523"><ele>1023.6666666666666</ele><time>2026-05-01T08:57:34Z</time></trkpt><trkpt lat="45.08492758630552" lon="6.908348883290186"><ele>1020.3333333333333</ele><time>2026-05-01T08:57:35Z</time></trkpt><trkpt lat="45.084783610277356" lon="6.908323157512453"><ele>1017.0</ele><time>2026-05-01T08:57:36Z</time></trkpt><trkpt lat="45.08464122043691" lon="6.908304916161425"><ele>1017.0</ele><time>2026-05-01T08:57:37Z</time></trkpt><trkpt lat="45.08453165055554" lon="6.9082799622574305"><ele>1017.0</ele><time>2026-05-01T08:57:38Z</time></trkpt><trkpt lat="45.08443688497805" lon="6.908239946034795"><ele>1017.0</ele><time>2026-05-01T08:57:39Z</time></trkpt><trkpt lat="45.084322975224936" lon="6.908241104571721"><ele>1017.0</ele><time>2026-05-01T08:57:40Z</time></trkpt><trkpt lat="45.084245135061565" lon="6.908181746673738"><ele>1017.0</ele><time>2026-05-01T08:57:41Z</time></trkpt><trkpt lat="45.08416605967592" lon="6.9080966516076"><ele>1017.0</ele><time>2026-05-01T08:57:42Z</time></trkpt><trkpt lat="45.08411585199298" lon="6.907962547218127"><ele>1017.0</ele><time>2026-05-01T08:57:43Z</time></trkpt><trkpt lat="45.08408657016928" lon="6.9078533427402995"><ele>1017.0</ele><time>2026-05-01T08:57:44Z</time></trkpt><trkpt lat="45.084100134357215" lon="6.907743070116614"><ele>1017.0</ele><time>2026-05-01T08:57:45Z</time></trkpt><trkpt lat="45.08414450958405" lon="6.907636100927333"><ele>1017.0</ele><time>2026-05-01T08:57:46Z</time></trkpt><trkpt lat="45.084242534367945" lon="6.907583426930345"><ele>1017.0</ele><time>2026-05-01T08:57:47Z</time></trkpt><trkpt lat="45.084324295127395" lon="6.907602094241448"><ele>1017.0</ele><time>2026-05-01T08:57:48Z</time></trkpt><trkpt lat="45.084398698139935" lon="6.9076561328494"><ele>1017.0</ele><time>2026-05-01T08:57:49Z</time></trkpt><trkpt lat="45.08451614566507" lon="6.907709766169329"><ele>1017.0</ele><time>2026-05-01T08:57:50Z</time></trkpt><trkpt lat="45.084640109438276" lon="6.907778431437754"><ele>1017.0</ele><time>2026-05-01T08:57:51Z</time></trkpt><trkpt lat="45.084800411157396" lon="6.907856201204431"><ele>1017.0</ele><time>2026-05-01T08:57:52Z</time></trkpt><trkpt lat="45.0849100276767" lon="6.907944602248485"><ele>1017.0</ele><time>2026-05-01T08:57:53Z</time></trkpt><trkpt lat="45.08504230867626" lon="6.907981668543869"><ele>1017.0</ele><time>2026-05-01T08:57:54Z</time></trkpt><trkpt lat="45.08517007881765" lon="6.9080071144335236"><ele>1017.0</ele><time>2026-05-01T08:57:55Z</time></trkpt><trkpt lat="45.085289475265874" lon="6.908023676116502"><ele>1019.0</ele><time>2026-05-01T08:57:56Z</time></trkpt><trkpt lat="45.085383746989585" lon="6.908037771224404"><ele>1021.0</ele><time>2026-05-01T08:57:57Z</time></trkpt><trkpt lat="45.08553360269975" lon="6.908059505066287"><ele>1023.0</ele><time>2026-05-01T08:57:59Z</time></trkpt><trkpt lat="45.085607031575925" lon="6.908006136063489"><ele>1025.0</ele><time>2026-05-01T08:58:00Z</time></trkpt><trkpt lat="45.08565290675031" lon="6.907923137850848"><ele>1027.0</ele><time>2026-05-01T08:58:01Z</time></trkpt><trkpt lat="45.085671690998524" lon="6.907833197552303"><ele>1027.0</ele><time>2026-05-01T08:58:02Z</time></trkpt><trkpt lat="45.08556927820642" lon="6.907657015292203"><ele>1027.0</ele><time>2026-05-01T08:58:04Z</time></trkpt><trkpt lat="45.08549460069682" lon="6.9076047655878385"><ele>1027.0</ele><time>2026-05-01T08:58:05Z</time></trkpt><trkpt lat="45.08540427567752" lon="6.907562686051625"><ele>1027.0</ele><time>2026-05-01T08:58:06Z</time></trkpt><trkpt lat="45.08530222986878" lon="6.907584268629694"><ele>1027.0</ele><time>2026-05-01T08:58:07Z</time></trkpt><trkpt lat="45.08517604687483" lon="6.907575352488598"><ele>1031.25</ele><time>2026-05-01T08:58:08Z</time></trkpt><trkpt lat="45.08504979841833" lon="6.907544509472767"><ele>1035.5</ele><time>2026-05-01T08:58:09Z</time></trkpt><trkpt lat="45.08494174626918" lon="6.907452094715268"><ele>1039.75</ele><time>2026-05-01T08:58:10Z</time></trkpt><trkpt lat="45.084819078808664" lon="6.907348898680966"><ele>1044.0</ele><time>2026-05-01T08:58:11Z</time></trkpt><trkpt lat="45.08471248761737" lon="6.9072624263256435"><ele>1044.0</ele><time>2026-05-01T08:58:11.999Z</time></trkpt><trkpt lat="45.08462659694099" lon="6.9071538780948005"><ele>1044.0</ele><time>2026-05-01T08:58:12.999Z</time></trkpt><trkpt lat="45.08452176708207" lon="6.907077667304471"><ele>1044.0</ele><time>2026-05-01T08:58:13.999Z</time></trkpt><trkpt lat="45.08441384440396" lon="6.907000801719195"><ele>1044.0</ele><time>2026-05-01T08:58:14.999Z</time></trkpt><trkpt lat="45.08431730094856" lon="6.906893942567905"><ele>1044.0</ele><time>2026-05-01T08:58:15.999Z</time></trkpt><trkpt lat="45.084227095854175" lon="6.906785683969907"><ele>1044.0</ele><time>2026-05-01T08:58:16.999Z</time></trkpt><trkpt lat="45.08413394251344" lon="6.906690320250781"><ele>1044.0</ele><time>2026-05-01T08:58:17.999Z</time></trkpt><trkpt lat="45.084045076250845" lon="6.906588245659405"><ele>1044.0</ele><time>2026-05-01T08:58:18.999Z</time></trkpt><trkpt lat="45.08394563895013" lon="6.906485409036612"><ele>1042.0</ele><time>2026-05-01T08:58:19.999Z</time></trkpt><trkpt lat="45.08384200058118" lon="6.906373474117886"><ele>1040.0</ele><time>2026-05-01T08:58:20.999Z</time></trkpt><trkpt lat="45.083754508214625" lon="6.906230422218842"><ele>1038.0</ele><time>2026-05-01T08:58:21.999Z</time></trkpt><trkpt lat="45.083684295875" lon="6.906077987102423"><ele>1036.0</ele><time>2026-05-01T08:58:22.999Z</time></trkpt><trkpt lat="45.083607246952184" lon="6.90594167074717"><ele>1041.5</ele><time>2026-05-01T08:58:23.999Z</time></trkpt><trkpt lat="45.08355333751063" lon="6.905775451566238"><ele>1047.0</ele><time>2026-05-01T08:58:24.999Z</time></trkpt><trkpt lat="45.08349648169714" lon="6.905605122461952"><ele>1052.5</ele><time>2026-05-01T08:58:25.999Z</time></trkpt><trkpt lat="45.083443993272354" lon="6.905426847664112"><ele>1058.0</ele><time>2026-05-01T08:58:26.999Z</time></trkpt><trkpt lat="45.0833814255218" lon="6.905201985208134"><ele>1056.75</ele><time>2026-05-01T08:58:27.999Z</time></trkpt><trkpt lat="45.083316657451554" lon="6.905020532390152"><ele>1055.5</ele><time>2026-05-01T08:58:28.999Z</time></trkpt><trkpt lat="45.08325749016672" lon="6.904840211861895"><ele>1054.25</ele><time>2026-05-01T08:58:29.999Z</time></trkpt><trkpt lat="45.083192038687336" lon="6.904676807980529"><ele>1053.0</ele><time>2026-05-01T08:58:30.999Z</time></trkpt><trkpt lat="45.08313191130389" lon="6.904526544549657"><ele>1053.0</ele><time>2026-05-01T08:58:31.999Z</time></trkpt><trkpt lat="45.083065004861794" lon="6.904370968390277"><ele>1053.0</ele><time>2026-05-01T08:58:32.999Z</time></trkpt><trkpt lat="45.08299412103361" lon="6.90423651155195"><ele>1053.0</ele><time>2026-05-01T08:58:33.999Z</time></trkpt><trkpt lat="45.08291271098324" lon="6.904134251278252"><ele>1053.0</ele><time>2026-05-01T08:58:34.999Z</time></trkpt><trkpt lat="45.08282665840566" lon="6.90400465187905"><ele>1055.8</ele><time>2026-05-01T08:58:35.999Z</time></trkpt><trkpt lat="45.08272206501452" lon="6.903907699121587"><ele>1058.6</ele><time>2026-05-01T08:58:36.999Z</time></trkpt><trkpt lat="45.08261673096967" lon="6.903808490299728"><ele>1061.4</ele><time>2026-05-01T08:58:37.999Z</time></trkpt><trkpt lat="45.08253274371979" lon="6.903740323721526"><ele>1064.2</ele><time>2026-05-01T08:58:38.999Z</time></trkpt><trkpt lat="45.08245046015867" lon="6.903675296980129"><ele>1067.0</ele><time>2026-05-01T08:58:39.999Z</time></trkpt><trkpt lat="45.08236271189436" lon="6.9036292402808215"><ele>1067.0</ele><time>2026-05-01T08:58:40.999Z</time></trkpt><trkpt lat="45.082261977741325" lon="6.903605012442121"><ele>1067.0</ele><time>2026-05-01T08:58:41.999Z</time></trkpt><trkpt lat="45.08210693971634" lon="6.903686281779712"><ele>1067.0</ele><time>2026-05-01T08:58:42.999Z</time></trkpt><trkpt lat="45.08199081014547" lon="6.903725160473609"><ele>1067.0</ele><time>2026-05-01T08:58:43.999Z</time></trkpt><trkpt lat="45.08187622648054" lon="6.903790085952381"><ele>1067.0</ele><time>2026-05-01T08:58:44.999Z</time></trkpt><trkpt lat="45.08175977793886" lon="6.903820140997458"><ele>1067.0</ele><time>2026-05-01T08:58:45.999Z</time></trkpt><trkpt lat="45.08163047155325" lon="6.9038505140363"><ele>1067.0</ele><time>2026-05-01T08:58:46.999Z</time></trkpt><trkpt lat="45.08152259793985" lon="6.903829108374117"><ele>1067.0</ele><time>2026-05-01T08:58:47.999Z</time></trkpt><trkpt lat="45.08140651931423" lon="6.903769172315209"><ele>1067.0</ele><time>2026-05-01T08:58:48.999Z</time></trkpt><trkpt lat="45.081317052193306" lon="6.903686560366128"><ele>1067.0</ele><time>2026-05-01T08:58:49.999Z</time></trkpt><trkpt lat="45.08123659220685" lon="6.903537338446295"><ele>1067.0</ele><time>2026-05-01T08:58:50.999Z</time></trkpt><trkpt lat="45.08114001068509" lon="6.903380005095782"><ele>1067.0</ele><time>2026-05-01T08:58:51.999Z</time></trkpt><trkpt lat="45.08101769863698" lon="6.903179985427498"><ele>1067.0</ele><time>2026-05-01T08:58:52.999Z</time></trkpt><trkpt lat="45.08089370569095" lon="6.903020952054007"><ele>1067.0</ele><time>2026-05-01T08:58:53.999Z</time></trkpt><trkpt lat="45.08075894694551" lon="6.902887404870468"><ele>1067.0</ele><time>2026-05-01T08:58:54.999Z</time></trkpt><trkpt lat="45.080634919779264" lon="6.902779888809119"><ele>1064.25</ele><time>2026-05-01T08:58:55.999Z</time></trkpt><trkpt lat="45.08052872331033" lon="6.902659025505453"><ele>1061.5</ele><time>2026-05-01T08:58:57Z</time></trkpt><trkpt lat="45.08041579385627" lon="6.902555473443278"><ele>1058.75</ele><time>2026-05-01T08:58:58Z</time></trkpt><trkpt lat="45.0802878104487" lon="6.902488199462944"><ele>1056.0</ele><time>2026-05-01T08:58:59Z</time></trkpt><trkpt lat="45.080173220198546" lon="6.902372256499632"><ele>1056.0</ele><time>2026-05-01T08:59:00Z</time></trkpt><trkpt lat="45.080063271906525" lon="6.902272754900341"><ele>1056.0</ele><time>2026-05-01T08:59:01Z</time></trkpt><trkpt lat="45.07995911968059" lon="6.902190022378476"><ele>1056.0</ele><time>2026-05-01T08:59:02Z</time></trkpt><trkpt lat="45.07985255447465" lon="6.902090533506944"><ele>1056.0</ele><time>2026-05-01T08:59:03Z</time></trkpt><trkpt lat="45.07975590091811" lon="6.9019873971475025"><ele>1053.25</ele><time>2026-05-01T08:59:04Z</time></trkpt><trkpt lat="45.07969298572464" lon="6.901842084304313"><ele>1050.5</ele><time>2026-05-01T08:59:05Z</time></trkpt><trkpt lat="45.079648606344364" lon="6.901674455435417"><ele>1047.75</ele><time>2026-05-01T08:59:06Z</time></trkpt><trkpt lat="45.07960334488474" lon="6.901524903591412"><ele>1045.0</ele><time>2026-05-01T08:59:07Z</time></trkpt><trkpt lat="45.079579211428346" lon="6.901370830772107"><ele>1045.0</ele><time>2026-05-01T08:59:08Z</time></trkpt><trkpt lat="45.07953619484248" lon="6.9012351049257585"><ele>1045.0</ele><time>2026-05-01T08:59:09Z</time></trkpt><trkpt lat="45.07950409139421" lon="6.901088822202657"><ele>1045.0</ele><time>2026-05-01T08:59:10Z</time></trkpt><trkpt lat="45.079477022053844" lon="6.9009497224856755"><ele>1045.0</ele><time>2026-05-01T08:59:11Z</time></trkpt><trkpt lat="45.07939276519835" lon="6.900901125249872"><ele>1045.0</ele><time>2026-05-01T08:59:12Z</time></trkpt><trkpt lat="45.07928104508888" lon="6.900958277658375"><ele>1045.0</ele><time>2026-05-01T08:59:14Z</time></trkpt><trkpt lat="45.0792104176515" lon="6.90112704797942"><ele>1045.0</ele><time>2026-05-01T08:59:16Z</time></trkpt><trkpt lat="45.079155656090755" lon="6.9013836569897515"><ele>1045.0</ele><time>2026-05-01T08:59:18Z</time></trkpt><trkpt lat="45.079193142670924" lon="6.901650285413052"><ele>1041.3333333333333</ele><time>2026-05-01T08:59:19Z</time></trkpt><trkpt lat="45.07927667870328" lon="6.901917361291078"><ele>1037.6666666666667</ele><time>2026-05-01T08:59:20Z</time></trkpt><trkpt lat="45.07936877406321" lon="6.902220372971447"><ele>1034.0</ele><time>2026-05-01T08:59:21Z</time></trkpt><trkpt lat="45.07962037881878" lon="6.90244183300009"><ele>1031.6666666666667</ele><time>2026-05-01T08:59:22Z</time></trkpt><trkpt lat="45.07974705238853" lon="6.902679793832816"><ele>1029.3333333333333</ele><time>2026-05-01T08:59:23Z</time></trkpt><trkpt lat="45.07986999261487" lon="6.902864141689382"><ele>1027.0</ele><time>2026-05-01T08:59:24Z</time></trkpt><trkpt lat="45.079959889814496" lon="6.903042849112527"><ele>1028.0</ele><time>2026-05-01T08:59:25Z</time></trkpt><trkpt lat="45.08002660139821" lon="6.903167390551274"><ele>1029.0</ele><time>2026-05-01T08:59:26Z</time></trkpt><trkpt lat="45.080065944883046" lon="6.903325460813178"><ele>1030.0</ele><time>2026-05-01T08:59:27Z</time></trkpt><trkpt lat="45.080140153327385" lon="6.903448350255571"><ele>1031.0</ele><time>2026-05-01T08:59:28Z</time></trkpt><trkpt lat="45.08019634352047" lon="6.903528062903758"><ele>1032.0</ele><time>2026-05-01T08:59:29Z</time></trkpt><trkpt lat="45.08022825646054" lon="6.903698364816954"><ele>1032.0</ele><time>2026-05-01T08:59:31Z</time></trkpt><trkpt lat="45.08015415348871" lon="6.903742534102252"><ele>1032.0</ele><time>2026-05-01T08:59:32Z</time></trkpt><trkpt lat="45.08004061826486" lon="6.903801963726689"><ele>1032.0</ele><time>2026-05-01T08:59:33Z</time></trkpt><trkpt lat="45.07996014579333" lon="6.903707325191994"><ele>1032.0</ele><time>2026-05-01T08:59:34Z</time></trkpt><trkpt lat="45.07987099336659" lon="6.9035868427715705"><ele>1032.0</ele><time>2026-05-01T08:59:35Z</time></trkpt><trkpt lat="45.07978102097042" lon="6.903435835851549"><ele>1030.3333333333333</ele><time>2026-05-01T08:59:36Z</time></trkpt><trkpt lat="45.07967864063499" lon="6.903263675789752"><ele>1028.6666666666665</ele><time>2026-05-01T08:59:37Z</time></trkpt><trkpt lat="45.079584286589366" lon="6.903113203178904"><ele>1027.0</ele><time>2026-05-01T08:59:38Z</time></trkpt><trkpt lat="45.07948323530281" lon="6.9029390020357475"><ele>1027.0</ele><time>2026-05-01T08:59:39Z</time></trkpt><trkpt lat="45.07936148427162" lon="6.902763938753884"><ele>1027.0</ele><time>2026-05-01T08:59:40Z</time></trkpt><trkpt lat="45.07921645670057" lon="6.902617343590015"><ele>1027.0</ele><time>2026-05-01T08:59:41Z</time></trkpt><trkpt lat="45.079087128128066" lon="6.902460951802265"><ele>1022.75</ele><time>2026-05-01T08:59:42Z</time></trkpt><trkpt lat="45.07894894382704" lon="6.902314425687296"><ele>1018.5</ele><time>2026-05-01T08:59:43Z</time></trkpt><trkpt lat="45.07884037867092" lon="6.902205033453069"><ele>1014.25</ele><time>2026-05-01T08:59:44Z</time></trkpt><trkpt lat="45.078792748130404" lon="6.902028274569085"><ele>1010.0</ele><time>2026-05-01T08:59:45Z</time></trkpt><trkpt lat="45.078745428949794" lon="6.901823803303722"><ele>1010.6666666666667</ele><time>2026-05-01T08:59:46Z</time></trkpt><trkpt lat="45.07872530334913" lon="6.901610113846106"><ele>1011.3333333333333</ele><time>2026-05-01T08:59:47Z</time></trkpt><trkpt lat="45.07870815934958" lon="6.901401668176038"><ele>1012.0</ele><time>2026-05-01T08:59:48Z</time></trkpt><trkpt lat="45.07868797974161" lon="6.9011890091293155"><ele>1012.0</ele><time>2026-05-01T08:59:49Z</time></trkpt><trkpt lat="45.07867218222807" lon="6.900971459533776"><ele>1012.0</ele><time>2026-05-01T08:59:50Z</time></trkpt><trkpt lat="45.07866456544427" lon="6.900783052638183"><ele>1012.0</ele><time>2026-05-01T08:59:51Z</time></trkpt><trkpt lat="45.07867193522357" lon="6.900604932357477"><ele>1012.0</ele><time>2026-05-01T08:59:52Z</time></trkpt><trkpt lat="45.07870534915048" lon="6.900383339559279"><ele>1011.6666666666666</ele><time>2026-05-01T08:59:53Z</time></trkpt><trkpt lat="45.07876180942143" lon="6.900208016841735"><ele>1011.3333333333333</ele><time>2026-05-01T08:59:54Z</time></trkpt><trkpt lat="45.07886627691976" lon="6.899947985893232"><ele>1011.0</ele><time>2026-05-01T08:59:55Z</time></trkpt><trkpt lat="45.0789382079095" lon="6.899807731100691"><ele>1011.0</ele><time>2026-05-01T08:59:56Z</time></trkpt><trkpt lat="45.07901562069921" lon="6.899653328296933"><ele>1011.0</ele><time>2026-05-01T08:59:57Z</time></trkpt><trkpt lat="45.07909070995906" lon="6.899500659853346"><ele>1011.0</ele><time>2026-05-01T08:59:58Z</time></trkpt><trkpt lat="45.079165813340964" lon="6.899339629223656"><ele>1011.0</ele><time>2026-05-01T08:59:59Z</time></trkpt><trkpt lat="45.07923750062865" lon="6.899178898808236"><ele>1015.25</ele><time>2026-05-01T09:00:00Z</time></trkpt><trkpt lat="45.079311608521614" lon="6.89900510350725"><ele>1019.5</ele><time>2026-05-01T09:00:01Z</time></trkpt><trkpt lat="45.07937392251973" lon="6.898850608966659"><ele>1023.75</ele><time>2026-05-01T09:00:02Z</time></trkpt><trkpt lat="45.07943505793025" lon="6.898687586755247"><ele>1028.0</ele><time>2026-05-01T09:00:03Z</time></trkpt><trkpt lat="45.07948718447038" lon="6.8985222435741544"><ele>1027.0</ele><time>2026-05-01T09:00:04Z</time></trkpt><trkpt lat="45.079508119350535" lon="6.898361773875175"><ele>1026.0</ele><time>2026-05-01T09:00:05Z</time></trkpt><trkpt lat="45.079537980436946" lon="6.898240306897696"><ele>1025.0</ele><time>2026-05-01T09:00:06Z</time></trkpt><trkpt lat="45.07949173383299" lon="6.898089629605299"><ele>1024.0</ele><time>2026-05-01T09:00:07Z</time></trkpt><trkpt lat="45.079441257429835" lon="6.897891185518985"><ele>1024.0</ele><time>2026-05-01T09:00:08Z</time></trkpt><trkpt lat="45.07938615242321" lon="6.897743567298243"><ele>1024.0</ele><time>2026-05-01T09:00:09Z</time></trkpt><trkpt lat="45.07933382101676" lon="6.897563924688225"><ele>1024.0</ele><time>2026-05-01T09:00:10Z</time></trkpt><trkpt lat="45.0792751023584" lon="6.897371618924965"><ele>1024.0</ele><time>2026-05-01T09:00:11Z</time></trkpt><trkpt lat="45.07926833541247" lon="6.897212136949845"><ele>1024.0</ele><time>2026-05-01T09:00:12Z</time></trkpt><trkpt lat="45.07924724729693" lon="6.897034397352934"><ele>1024.0</ele><time>2026-05-01T09:00:13Z</time></trkpt><trkpt lat="45.07922612734944" lon="6.896824263926307"><ele>1024.0</ele><time>2026-05-01T09:00:13.999Z</time></trkpt><trkpt lat="45.079222386359916" lon="6.896589227021096"><ele>1024.0</ele><time>2026-05-01T09:00:14.999Z</time></trkpt><trkpt lat="45.07922396200787" lon="6.896361155228807"><ele>1024.0</ele><time>2026-05-01T09:00:15.999Z</time></trkpt><trkpt lat="45.07927594899393" lon="6.896114410927101"><ele>1024.0</ele><time>2026-05-01T09:00:16.999Z</time></trkpt><trkpt lat="45.079301131946664" lon="6.895869094168869"><ele>1024.0</ele><time>2026-05-01T09:00:17.999Z</time></trkpt><trkpt lat="45.07933483458042" lon="6.895641863165235"><ele>1025.75</ele><time>2026-05-01T09:00:18.999Z</time></trkpt><trkpt lat="45.07937437372901" lon="6.8954410215652775"><ele>1027.5</ele><time>2026-05-01T09:00:19.999Z</time></trkpt><trkpt lat="45.07939121422145" lon="6.895257476396091"><ele>1029.25</ele><time>2026-05-01T09:00:20.999Z</time></trkpt><trkpt lat="45.07938520423675" lon="6.895079233345179"><ele>1031.0</ele><time>2026-05-01T09:00:21.999Z</time></trkpt><trkpt lat="45.0793287789806" lon="6.894876989748288"><ele>1031.25</ele><time>2026-05-01T09:00:22.999Z</time></trkpt><trkpt lat="45.079268168741606" lon="6.894717060457185"><ele>1031.5</ele><time>2026-05-01T09:00:23.999Z</time></trkpt><trkpt lat="45.079199142999144" lon="6.894562424198614"><ele>1031.75</ele><time>2026-05-01T09:00:24.999Z</time></trkpt><trkpt lat="45.07909588188437" lon="6.894364319515081"><ele>1032.0</ele><time>2026-05-01T09:00:25.999Z</time></trkpt><trkpt lat="45.07897512083033" lon="6.894164613083718"><ele>1026.0</ele><time>2026-05-01T09:00:26.999Z</time></trkpt><trkpt lat="45.078862550480046" lon="6.893941420579714"><ele>1020.0</ele><time>2026-05-01T09:00:27.999Z</time></trkpt><trkpt lat="45.07877123653309" lon="6.893749275386673"><ele>1014.0</ele><time>2026-05-01T09:00:28.999Z</time></trkpt><trkpt lat="45.078682121354625" lon="6.893558809329168"><ele>1018.6666666666667</ele><time>2026-05-01T09:00:29.999Z</time></trkpt><trkpt lat="45.07859291790825" lon="6.893365062933862"><ele>1023.3333333333334</ele><time>2026-05-01T09:00:30.999Z</time></trkpt><trkpt lat="45.07850742659672" lon="6.89317964568396"><ele>1028.0</ele><time>2026-05-01T09:00:31.999Z</time></trkpt><trkpt lat="45.078418286067055" lon="6.892995518437807"><ele>1028.0</ele><time>2026-05-01T09:00:32.999Z</time></trkpt><trkpt lat="45.07831855390619" lon="6.89280922169136"><ele>1028.0</ele><time>2026-05-01T09:00:33.999Z</time></trkpt><trkpt lat="45.078224934385304" lon="6.892655553014896"><ele>1028.0</ele><time>2026-05-01T09:00:34.999Z</time></trkpt><trkpt lat="45.07814090802947" lon="6.892506518103487"><ele>1028.0</ele><time>2026-05-01T09:00:35.999Z</time></trkpt><trkpt lat="45.07805300326503" lon="6.892333306670509"><ele>1021.3333333333334</ele><time>2026-05-01T09:00:36.999Z</time></trkpt><trkpt lat="45.07797948165592" lon="6.892138764988644"><ele>1014.6666666666667</ele><time>2026-05-01T09:00:37.999Z</time></trkpt><trkpt lat="45.077908802113285" lon="6.891965209157441"><ele>1008.0</ele><time>2026-05-01T09:00:38.999Z</time></trkpt><trkpt lat="45.07781549473613" lon="6.891774479006847"><ele>1011.3333333333333</ele><time>2026-05-01T09:00:39.999Z</time></trkpt><trkpt lat="45.07770841700779" lon="6.891577858883143"><ele>1014.6666666666666</ele><time>2026-05-01T09:00:40.999Z</time></trkpt><trkpt lat="45.077594857807995" lon="6.891394269674201"><ele>1018.0</ele><time>2026-05-01T09:00:41.999Z</time></trkpt><trkpt lat="45.07748418114043" lon="6.891220780117683"><ele>1013.6666666666666</ele><time>2026-05-01T09:00:42.999Z</time></trkpt><trkpt lat="45.07737578793723" lon="6.891049657019516"><ele>1009.3333333333333</ele><time>2026-05-01T09:00:43.999Z</time></trkpt><trkpt lat="45.07727869463137" lon="6.890893171102845"><ele>1005.0</ele><time>2026-05-01T09:00:44.999Z</time></trkpt><trkpt lat="45.077185810114116" lon="6.890705981426531"><ele>1005.0</ele><time>2026-05-01T09:00:45.999Z</time></trkpt><trkpt lat="45.07709353088049" lon="6.890520409615513"><ele>1005.0</ele><time>2026-05-01T09:00:46.999Z</time></trkpt><trkpt lat="45.077035234887205" lon="6.890316749136995"><ele>1005.0</ele><time>2026-05-01T09:00:47.999Z</time></trkpt><trkpt lat="45.07696907073966" lon="6.890109439237183"><ele>1009.6666666666667</ele><time>2026-05-01T09:00:48.999Z</time></trkpt><trkpt lat="45.076875022418115" lon="6.889897112082399"><ele>1014.3333333333334</ele><time>2026-05-01T09:00:49.999Z</time></trkpt><trkpt lat="45.07676324288531" lon="6.889708506261396"><ele>1019.0</ele><time>2026-05-01T09:00:50.999Z</time></trkpt><trkpt lat="45.076653287803666" lon="6.889537130807929"><ele>1016.0</ele><time>2026-05-01T09:00:51.999Z</time></trkpt><trkpt lat="45.07654644452023" lon="6.889369211155952"><ele>1013.0</ele><time>2026-05-01T09:00:52.999Z</time></trkpt><trkpt lat="45.0764455182383" lon="6.889187824761539"><ele>1010.0</ele><time>2026-05-01T09:00:53.999Z</time></trkpt><trkpt lat="45.076347376730354" lon="6.889033552559226"><ele>1010.0</ele><time>2026-05-01T09:00:54.999Z</time></trkpt><trkpt lat="45.076261892981805" lon="6.888916360893338"><ele>1010.0</ele><time>2026-05-01T09:00:55.999Z</time></trkpt><trkpt lat="45.07616636960591" lon="6.888763238712911"><ele>1010.0</ele><time>2026-05-01T09:00:56.999Z</time></trkpt><trkpt lat="45.07605872445809" lon="6.888660752416139"><ele>1010.0</ele><time>2026-05-01T09:00:57.999Z</time></trkpt><trkpt lat="45.07596439032226" lon="6.8885003386548505"><ele>1008.0</ele><time>2026-05-01T09:00:58.999Z</time></trkpt><trkpt lat="45.07587965009112" lon="6.888316690499439"><ele>1006.0</ele><time>2026-05-01T09:00:59.999Z</time></trkpt><trkpt lat="45.07579284369887" lon="6.8881010353901635"><ele>1004.0</ele><time>2026-05-01T09:01:00.999Z</time></trkpt><trkpt lat="45.07570201564597" lon="6.887904514496266"><ele>1004.0</ele><time>2026-05-01T09:01:01.999Z</time></trkpt><trkpt lat="45.075607612295244" lon="6.887712615324134"><ele>1004.0</ele><time>2026-05-01T09:01:03Z</time></trkpt><trkpt lat="45.07551351161894" lon="6.88753707341856"><ele>1004.0</ele><time>2026-05-01T09:01:04Z</time></trkpt><trkpt lat="45.07541086374388" lon="6.88739264444099"><ele>1006.5</ele><time>2026-05-01T09:01:05Z</time></trkpt><trkpt lat="45.07527965870396" lon="6.8873064889474875"><ele>1009.0</ele><time>2026-05-01T09:01:06Z</time></trkpt><trkpt lat="45.07516580180888" lon="6.887187326489173"><ele>1011.5</ele><time>2026-05-01T09:01:07Z</time></trkpt><trkpt lat="45.07506191903201" lon="6.887083526556913"><ele>1014.0</ele><time>2026-05-01T09:01:08Z</time></trkpt><trkpt lat="45.07495959079496" lon="6.886936631020991"><ele>1012.5</ele><time>2026-05-01T09:01:09Z</time></trkpt><trkpt lat="45.07486922144866" lon="6.88679839190816"><ele>1011.0</ele><time>2026-05-01T09:01:10Z</time></trkpt><trkpt lat="45.074819504604655" lon="6.886598802137312"><ele>1009.5</ele><time>2026-05-01T09:01:11Z</time></trkpt><trkpt lat="45.074738516874106" lon="6.886436394568758"><ele>1008.0</ele><time>2026-05-01T09:01:12Z</time></trkpt><trkpt lat="45.07465155360769" lon="6.886279636640726"><ele>1008.0</ele><time>2026-05-01T09:01:13Z</time></trkpt><trkpt lat="45.07456530110867" lon="6.886171068022943"><ele>1008.0</ele><time>2026-05-01T09:01:14Z</time></trkpt><trkpt lat="45.07447578823308" lon="6.88605751449998"><ele>1008.0</ele><time>2026-05-01T09:01:15Z</time></trkpt><trkpt lat="45.07439688865064" lon="6.885923157017212"><ele>1008.0</ele><time>2026-05-01T09:01:16Z</time></trkpt><trkpt lat="45.07431248603208" lon="6.8857997782907"><ele>1009.5</ele><time>2026-05-01T09:01:17Z</time></trkpt><trkpt lat="45.074231927763435" lon="6.885682269445818"><ele>1011.0</ele><time>2026-05-01T09:01:18Z</time></trkpt><trkpt lat="45.07414056595711" lon="6.885570029848263"><ele>1012.5</ele><time>2026-05-01T09:01:19Z</time></trkpt><trkpt lat="45.074050566090506" lon="6.885471595169701"><ele>1014.0</ele><time>2026-05-01T09:01:20Z</time></trkpt><trkpt lat="45.07394811460006" lon="6.885382909445083"><ele>1014.0</ele><time>2026-05-01T09:01:21Z</time></trkpt><trkpt lat="45.07385475701203" lon="6.885323002614766"><ele>1014.0000000000001</ele><time>2026-05-01T09:01:22Z</time></trkpt><trkpt lat="45.073760150909216" lon="6.885239826328363"><ele>1014.0000000000001</ele><time>2026-05-01T09:01:23Z</time></trkpt><trkpt lat="45.073666778876756" lon="6.885168299951521"><ele>1014.0</ele><time>2026-05-01T09:01:24Z</time></trkpt><trkpt lat="45.07356191747973" lon="6.885099867845099"><ele>1014.0</ele><time>2026-05-01T09:01:25Z</time></trkpt><trkpt lat="45.07343993337018" lon="6.885038097818695"><ele>1015.75</ele><time>2026-05-01T09:01:26Z</time></trkpt><trkpt lat="45.07332236263677" lon="6.88498916206568"><ele>1017.5</ele><time>2026-05-01T09:01:27Z</time></trkpt><trkpt lat="45.07318811493757" lon="6.884954240831756"><ele>1019.25</ele><time>2026-05-01T09:01:28Z</time></trkpt><trkpt lat="45.0730411771282" lon="6.884918976785078"><ele>1021.0</ele><time>2026-05-01T09:01:29Z</time></trkpt><trkpt lat="45.07291149805699" lon="6.884881711616936"><ele>1021.0</ele><time>2026-05-01T09:01:30Z</time></trkpt><trkpt lat="45.072807461272134" lon="6.8848268876973115"><ele>1021.0</ele><time>2026-05-01T09:01:31Z</time></trkpt><trkpt lat="45.072675419131464" lon="6.884776601460346"><ele>1021.0</ele><time>2026-05-01T09:01:32Z</time></trkpt><trkpt lat="45.07254848595716" lon="6.884730797641206"><ele>1021.0</ele><time>2026-05-01T09:01:33Z</time></trkpt><trkpt lat="45.07241444997092" lon="6.88468867429113"><ele>1019.5</ele><time>2026-05-01T09:01:34Z</time></trkpt><trkpt lat="45.07228907191339" lon="6.884639903924711"><ele>1018.0</ele><time>2026-05-01T09:01:35Z</time></trkpt><trkpt lat="45.07215669040979" lon="6.884596393449356"><ele>1016.5</ele><time>2026-05-01T09:01:36Z</time></trkpt><trkpt lat="45.072016684221694" lon="6.884547957706343"><ele>1015.0</ele><time>2026-05-01T09:01:37Z</time></trkpt><trkpt lat="45.07187477397356" lon="6.884501168564832"><ele>1015.0</ele><time>2026-05-01T09:01:38Z</time></trkpt><trkpt lat="45.071751973657605" lon="6.884434134215598"><ele>1015.0</ele><time>2026-05-01T09:01:39Z</time></trkpt><trkpt lat="45.07161998974615" lon="6.8843878061353525"><ele>1015.0</ele><time>2026-05-01T09:01:40Z</time></trkpt><trkpt lat="45.071501897029286" lon="6.884338434578398"><ele>1015.0</ele><time>2026-05-01T09:01:41Z</time></trkpt><trkpt lat="45.07138950045799" lon="6.884287648973022"><ele>1017.75</ele><time>2026-05-01T09:01:42Z</time></trkpt><trkpt lat="45.07126802150389" lon="6.8842426572410655"><ele>1020.5</ele><time>2026-05-01T09:01:43Z</time></trkpt><trkpt lat="45.07115130508308" lon="6.884188179852045"><ele>1023.25</ele><time>2026-05-01T09:01:44Z</time></trkpt><trkpt lat="45.0710447485771" lon="6.8841224508497945"><ele>1026.0</ele><time>2026-05-01T09:01:45Z</time></trkpt><trkpt lat="45.070941960677956" lon="6.884030649926134"><ele>1026.0</ele><time>2026-05-01T09:01:46Z</time></trkpt><trkpt lat="45.070845046576466" lon="6.88392691146082"><ele>1026.0</ele><time>2026-05-01T09:01:47Z</time></trkpt><trkpt lat="45.070752317040196" lon="6.88380500835814"><ele>1026.0</ele><time>2026-05-01T09:01:48Z</time></trkpt><trkpt lat="45.07066188581175" lon="6.8836618146865085"><ele>1026.0</ele><time>2026-05-01T09:01:49Z</time></trkpt><trkpt lat="45.070583578849586" lon="6.8835100761767"><ele>1025.5</ele><time>2026-05-01T09:01:50Z</time></trkpt><trkpt lat="45.07050570317006" lon="6.883346355707888"><ele>1025.0</ele><time>2026-05-01T09:01:51Z</time></trkpt><trkpt lat="45.07042442141338" lon="6.883173374568653"><ele>1024.5</ele><time>2026-05-01T09:01:52Z</time></trkpt><trkpt lat="45.07034887490072" lon="6.8829913372471605"><ele>1024.0</ele><time>2026-05-01T09:01:53Z</time></trkpt><trkpt lat="45.07027092270083" lon="6.882809225059262"><ele>1024.0</ele><time>2026-05-01T09:01:54Z</time></trkpt><trkpt lat="45.07019030661907" lon="6.8826308899812805"><ele>1024.0</ele><time>2026-05-01T09:01:55Z</time></trkpt><trkpt lat="45.07010967289848" lon="6.882455717054535"><ele>1024.0</ele><time>2026-05-01T09:01:56Z</time></trkpt><trkpt lat="45.07002906513452" lon="6.882287243150103"><ele>1024.0</ele><time>2026-05-01T09:01:57Z</time></trkpt><trkpt lat="45.06994813495618" lon="6.882120431115274"><ele>1023.25</ele><time>2026-05-01T09:01:58Z</time></trkpt><trkpt lat="45.06988645182168" lon="6.881972189163314"><ele>1022.5</ele><time>2026-05-01T09:01:59Z</time></trkpt><trkpt lat="45.069825377967085" lon="6.881790189003419"><ele>1021.75</ele><time>2026-05-01T09:02:00Z</time></trkpt><trkpt lat="45.06978395729987" lon="6.881609582651946"><ele>1021.0</ele><time>2026-05-01T09:02:01Z</time></trkpt><trkpt lat="45.0697286115501" lon="6.88141674108756"><ele>1022.75</ele><time>2026-05-01T09:02:02Z</time></trkpt><trkpt lat="45.06968156731849" lon="6.88122689789449"><ele>1024.5</ele><time>2026-05-01T09:02:03Z</time></trkpt><trkpt lat="45.069634944626074" lon="6.881046418112255"><ele>1026.25</ele><time>2026-05-01T09:02:04Z</time></trkpt><trkpt lat="45.069592987874685" lon="6.880856217107736"><ele>1028.0</ele><time>2026-05-01T09:02:05Z</time></trkpt><trkpt lat="45.06954417149973" lon="6.880668057995175"><ele>1029.75</ele><time>2026-05-01T09:02:06Z</time></trkpt><trkpt lat="45.069496550808886" lon="6.88047409758697"><ele>1031.5</ele><time>2026-05-01T09:02:07Z</time></trkpt><trkpt lat="45.06945129998831" lon="6.88028663936359"><ele>1033.25</ele><time>2026-05-01T09:02:08Z</time></trkpt><trkpt lat="45.06940697353218" lon="6.88009894629021"><ele>1035.0</ele><time>2026-05-01T09:02:09Z</time></trkpt><trkpt lat="45.069362872295194" lon="6.879920470803373"><ele>1035.4</ele><time>2026-05-01T09:02:10Z</time></trkpt><trkpt lat="45.06933254374181" lon="6.879799392907607"><ele>1035.8</ele><time>2026-05-01T09:02:11Z</time></trkpt><trkpt lat="45.06928476241769" lon="6.8796858688287"><ele>1036.2</ele><time>2026-05-01T09:02:13Z</time></trkpt><trkpt lat="45.06925741761359" lon="6.879532494287607"><ele>1036.6</ele><time>2026-05-01T09:02:20.999Z</time></trkpt><trkpt lat="45.069214381536604" lon="6.87936519821495"><ele>1037.0</ele><time>2026-05-01T09:02:22.999Z</time></trkpt><trkpt lat="45.069186252105844" lon="6.879247800519913"><ele>1037.2</ele><time>2026-05-01T09:02:23.999Z</time></trkpt><trkpt lat="45.06915816077918" lon="6.879123257862983"><ele>1037.4</ele><time>2026-05-01T09:02:24.999Z</time></trkpt><trkpt lat="45.06912047493833" lon="6.878987763597257"><ele>1037.6</ele><time>2026-05-01T09:02:25.999Z</time></trkpt><trkpt lat="45.06907989003891" lon="6.8788456958570094"><ele>1037.8</ele><time>2026-05-01T09:02:26.999Z</time></trkpt><trkpt lat="45.06900669653447" lon="6.87867102638231"><ele>1038.0</ele><time>2026-05-01T09:02:27.999Z</time></trkpt><trkpt lat="45.068911908180596" lon="6.8785014354915175"><ele>1036.0</ele><time>2026-05-01T09:02:28.999Z</time></trkpt><trkpt lat="45.0687737894802" lon="6.878300805637439"><ele>1034.0</ele><time>2026-05-01T09:02:29.999Z</time></trkpt><trkpt lat="45.06864438443532" lon="6.878102350132093"><ele>1032.0</ele><time>2026-05-01T09:02:30.999Z</time></trkpt><trkpt lat="45.068514541475615" lon="6.877953837268144"><ele>1032.0</ele><time>2026-05-01T09:02:31.999Z</time></trkpt><trkpt lat="45.06838881194734" lon="6.877810665625048"><ele>1032.0</ele><time>2026-05-01T09:02:32.999Z</time></trkpt><trkpt lat="45.068256386530386" lon="6.877668479937707"><ele>1032.0</ele><time>2026-05-01T09:02:33.999Z</time></trkpt><trkpt lat="45.068115847612724" lon="6.8775162909705925"><ele>1030.0</ele><time>2026-05-01T09:02:34.999Z</time></trkpt><trkpt lat="45.06796656475545" lon="6.877344616027437"><ele>1028.0</ele><time>2026-05-01T09:02:35.999Z</time></trkpt><trkpt lat="45.067812575399635" lon="6.877164240569698"><ele>1026.0</ele><time>2026-05-01T09:02:36.999Z</time></trkpt><trkpt lat="45.06766071940905" lon="6.87698570433507"><ele>1026.0</ele><time>2026-05-01T09:02:37.999Z</time></trkpt><trkpt lat="45.06751271747871" lon="6.876824039341904"><ele>1026.0</ele><time>2026-05-01T09:02:38.999Z</time></trkpt><trkpt lat="45.06736568210541" lon="6.876638415114343"><ele>1026.0</ele><time>2026-05-01T09:02:39.999Z</time></trkpt><trkpt lat="45.06722085076634" lon="6.87646148447225"><ele>1026.6666666666667</ele><time>2026-05-01T09:02:40.999Z</time></trkpt><trkpt lat="45.067074299134404" lon="6.876267890815345"><ele>1027.3333333333335</ele><time>2026-05-01T09:02:41.999Z</time></trkpt><trkpt lat="45.06692751176281" lon="6.876077592953397"><ele>1028.0</ele><time>2026-05-01T09:02:42.999Z</time></trkpt><trkpt lat="45.06678726458164" lon="6.875907290546617"><ele>1028.0</ele><time>2026-05-01T09:02:43.999Z</time></trkpt><trkpt lat="45.066660460461996" lon="6.875752154248343"><ele>1028.0</ele><time>2026-05-01T09:02:44.999Z</time></trkpt><trkpt lat="45.06651601875575" lon="6.875584767425051"><ele>1028.0</ele><time>2026-05-01T09:02:45.999Z</time></trkpt><trkpt lat="45.06636710778508" lon="6.8753967764723"><ele>1028.0</ele><time>2026-05-01T09:02:46.999Z</time></trkpt><trkpt lat="45.066213865918975" lon="6.875207631852322"><ele>1028.0</ele><time>2026-05-01T09:02:47.999Z</time></trkpt><trkpt lat="45.0660705458438" lon="6.875020514640211"><ele>1028.0</ele><time>2026-05-01T09:02:48.999Z</time></trkpt><trkpt lat="45.065933342586355" lon="6.874851670217712"><ele>1027.6666666666667</ele><time>2026-05-01T09:02:49.999Z</time></trkpt><trkpt lat="45.065797519138656" lon="6.8746815618402035"><ele>1027.3333333333333</ele><time>2026-05-01T09:02:50.999Z</time></trkpt><trkpt lat="45.06565693928072" lon="6.874495177476472"><ele>1027.0</ele><time>2026-05-01T09:02:51.999Z</time></trkpt><trkpt lat="45.065518487464864" lon="6.874315086649936"><ele>1026.6666666666665</ele><time>2026-05-01T09:02:52.999Z</time></trkpt><trkpt lat="45.065378784628294" lon="6.874130572178031"><ele>1026.3333333333333</ele><time>2026-05-01T09:02:53.999Z</time></trkpt><trkpt lat="45.06523928326006" lon="6.873936999518649"><ele>1026.0</ele><time>2026-05-01T09:02:54.999Z</time></trkpt><trkpt lat="45.06511062210351" lon="6.873715242121994"><ele>1026.0</ele><time>2026-05-01T09:02:55.999Z</time></trkpt><trkpt lat="45.0649889141368" lon="6.873493863479381"><ele>1026.0</ele><time>2026-05-01T09:02:56.999Z</time></trkpt><trkpt lat="45.06486048466418" lon="6.873282301616161"><ele>1026.0</ele><time>2026-05-01T09:02:57.999Z</time></trkpt><trkpt lat="45.06473803696986" lon="6.873064973184276"><ele>1026.0</ele><time>2026-05-01T09:02:58.999Z</time></trkpt><trkpt lat="45.064616105602134" lon="6.872861673051108"><ele>1026.0</ele><time>2026-05-01T09:02:59.999Z</time></trkpt><trkpt lat="45.064500684186136" lon="6.872649206594579"><ele>1026.0</ele><time>2026-05-01T09:03:00.999Z</time></trkpt><trkpt lat="45.0643921939935" lon="6.872450733248015"><ele>1025.6666666666667</ele><time>2026-05-01T09:03:01.999Z</time></trkpt><trkpt lat="45.064283577860856" lon="6.872229526276728"><ele>1025.3333333333335</ele><time>2026-05-01T09:03:02.999Z</time></trkpt><trkpt lat="45.06418088866174" lon="6.871993772954683"><ele>1025.0</ele><time>2026-05-01T09:03:03.999Z</time></trkpt><trkpt lat="45.06408572721996" lon="6.871756432467396"><ele>1025.0</ele><time>2026-05-01T09:03:04.999Z</time></trkpt><trkpt lat="45.06398026802238" lon="6.871496960131878"><ele>1025.0</ele><time>2026-05-01T09:03:05.999Z</time></trkpt><trkpt lat="45.06389408946092" lon="6.87122639662181"><ele>1025.0</ele><time>2026-05-01T09:03:06.999Z</time></trkpt><trkpt lat="45.063804025631" lon="6.870955450454676"><ele>1025.0</ele><time>2026-05-01T09:03:07.999Z</time></trkpt><trkpt lat="45.06372200067581" lon="6.870693130937544"><ele>1025.0</ele><time>2026-05-01T09:03:09Z</time></trkpt><trkpt lat="45.0636307506052" lon="6.870434201684983"><ele>1025.0</ele><time>2026-05-01T09:03:10Z</time></trkpt><trkpt lat="45.0635307973716" lon="6.870200222811668"><ele>1025.0</ele><time>2026-05-01T09:03:11Z</time></trkpt><trkpt lat="45.0633951723021" lon="6.869967507922516"><ele>1025.0</ele><time>2026-05-01T09:03:12Z</time></trkpt><trkpt lat="45.06325077192149" lon="6.869751920315173"><ele>1025.0</ele><time>2026-05-01T09:03:13Z</time></trkpt><trkpt lat="45.06310512674477" lon="6.869564089685888"><ele>1025.0</ele><time>2026-05-01T09:03:14Z</time></trkpt><trkpt lat="45.06293379239456" lon="6.869382722597823"><ele>1025.0</ele><time>2026-05-01T09:03:15Z</time></trkpt><trkpt lat="45.062737750877595" lon="6.869221423686267"><ele>1025.0</ele><time>2026-05-01T09:03:16Z</time></trkpt><trkpt lat="45.06254725893866" lon="6.869022053366519"><ele>1025.0</ele><time>2026-05-01T09:03:17Z</time></trkpt><trkpt lat="45.06237181424817" lon="6.868851857160966"><ele>1025.0</ele><time>2026-05-01T09:03:18Z</time></trkpt><trkpt lat="45.062200692731345" lon="6.868672013321974"><ele>1025.0</ele><time>2026-05-01T09:03:19Z</time></trkpt><trkpt lat="45.06202320217212" lon="6.868517457045451"><ele>1024.6666666666667</ele><time>2026-05-01T09:03:20Z</time></trkpt><trkpt lat="45.06188248886635" lon="6.8683781380099935"><ele>1024.3333333333333</ele><time>2026-05-01T09:03:21Z</time></trkpt><trkpt lat="45.06172202829603" lon="6.868223666878233"><ele>1024.0</ele><time>2026-05-01T09:03:22Z</time></trkpt><trkpt lat="45.061559549076264" lon="6.8680693502236485"><ele>1024.6666666666665</ele><time>2026-05-01T09:03:23Z</time></trkpt><trkpt lat="45.06138472568346" lon="6.8679216211324245"><ele>1025.3333333333333</ele><time>2026-05-01T09:03:24Z</time></trkpt><trkpt lat="45.06121055728999" lon="6.867763969277895"><ele>1026.0</ele><time>2026-05-01T09:03:25Z</time></trkpt><trkpt lat="45.06104473386074" lon="6.867620616892603"><ele>1025.6666666666667</ele><time>2026-05-01T09:03:26Z</time></trkpt><trkpt lat="45.06089394063929" lon="6.867483921177226"><ele>1025.3333333333335</ele><time>2026-05-01T09:03:27Z</time></trkpt><trkpt lat="45.06074649223492" lon="6.8673593839080125"><ele>1025.0</ele><time>2026-05-01T09:03:28Z</time></trkpt><trkpt lat="45.06059505819795" lon="6.867242295754237"><ele>1025.6666666666667</ele><time>2026-05-01T09:03:29Z</time></trkpt><trkpt lat="45.06044182586691" lon="6.867110549828415"><ele>1026.3333333333333</ele><time>2026-05-01T09:03:30Z</time></trkpt><trkpt lat="45.06027785452191" lon="6.866968712327957"><ele>1027.0</ele><time>2026-05-01T09:03:31Z</time></trkpt><trkpt lat="45.06011156449022" lon="6.866831004663685"><ele>1027.0</ele><time>2026-05-01T09:03:32Z</time></trkpt><trkpt lat="45.05994665969433" lon="6.866667788788682"><ele>1027.0</ele><time>2026-05-01T09:03:33Z</time></trkpt><trkpt lat="45.059778544923766" lon="6.866513570531598"><ele>1027.0</ele><time>2026-05-01T09:03:34Z</time></trkpt><trkpt lat="45.059640429186004" lon="6.8663226817501"><ele>1027.0</ele><time>2026-05-01T09:03:35Z</time></trkpt><trkpt lat="45.059493050205404" lon="6.866144692145152"><ele>1027.0</ele><time>2026-05-01T09:03:36Z</time></trkpt><trkpt lat="45.05935204268149" lon="6.865983433814817"><ele>1027.0</ele><time>2026-05-01T09:03:37Z</time></trkpt><trkpt lat="45.05922038484456" lon="6.865812341815347"><ele>1028.3333333333333</ele><time>2026-05-01T09:03:38Z</time></trkpt><trkpt lat="45.05908579312032" lon="6.865625002487307"><ele>1029.6666666666667</ele><time>2026-05-01T09:03:39Z</time></trkpt><trkpt lat="45.058951170720725" lon="6.865444418662902"><ele>1031.0</ele><time>2026-05-01T09:03:40Z</time></trkpt><trkpt lat="45.05880610127018" lon="6.865288209122737"><ele>1031.0</ele><time>2026-05-01T09:03:41Z</time></trkpt><trkpt lat="45.058679117307044" lon="6.86508369198571"><ele>1031.0</ele><time>2026-05-01T09:03:42Z</time></trkpt><trkpt lat="45.058547868141964" lon="6.864874913442268"><ele>1031.0</ele><time>2026-05-01T09:03:43Z</time></trkpt><trkpt lat="45.05841412563812" lon="6.864671540374657"><ele>1031.0</ele><time>2026-05-01T09:03:44Z</time></trkpt><trkpt lat="45.058289347117054" lon="6.864469966638483"><ele>1031.0</ele><time>2026-05-01T09:03:45Z</time></trkpt><trkpt lat="45.05818129346917" lon="6.864265283020289"><ele>1031.0</ele><time>2026-05-01T09:03:46Z</time></trkpt><trkpt lat="45.05806827199794" lon="6.864051820271293"><ele>1031.3333333333335</ele><time>2026-05-01T09:03:47Z</time></trkpt><trkpt lat="45.057976063643856" lon="6.863842306168068"><ele>1031.6666666666667</ele><time>2026-05-01T09:03:48Z</time></trkpt><trkpt lat="45.05789387533475" lon="6.863634373588116"><ele>1032.0</ele><time>2026-05-01T09:03:49Z</time></trkpt><trkpt lat="45.05780387858768" lon="6.863429587465484"><ele>1031.0</ele><time>2026-05-01T09:03:50Z</time></trkpt><trkpt lat="45.05771151565998" lon="6.863253042592191"><ele>1030.0</ele><time>2026-05-01T09:03:51Z</time></trkpt><trkpt lat="45.05759867902865" lon="6.863064459832739"><ele>1029.0</ele><time>2026-05-01T09:03:52Z</time></trkpt><trkpt lat="45.057463646337126" lon="6.862867349378316"><ele>1029.6666666666667</ele><time>2026-05-01T09:03:53Z</time></trkpt><trkpt lat="45.057343789441255" lon="6.862687725828419"><ele>1030.3333333333335</ele><time>2026-05-01T09:03:54Z</time></trkpt><trkpt lat="45.05722094563497" lon="6.862547103177258"><ele>1031.0</ele><time>2026-05-01T09:03:55Z</time></trkpt><trkpt lat="45.05709513797643" lon="6.862369804829028"><ele>1031.0</ele><time>2026-05-01T09:03:56Z</time></trkpt><trkpt lat="45.05697461574977" lon="6.862198996651298"><ele>1031.0</ele><time>2026-05-01T09:03:57Z</time></trkpt><trkpt lat="45.05685917616579" lon="6.862013009094856"><ele>1031.0</ele><time>2026-05-01T09:03:58Z</time></trkpt><trkpt lat="45.05673687634889" lon="6.861815041587175"><ele>1030.6666666666667</ele><time>2026-05-01T09:03:59Z</time></trkpt><trkpt lat="45.056619843487304" lon="6.86164453676431"><ele>1030.3333333333333</ele><time>2026-05-01T09:04:00Z</time></trkpt><trkpt lat="45.05650438401571" lon="6.8614833588603865"><ele>1030.0</ele><time>2026-05-01T09:04:01Z</time></trkpt><trkpt lat="45.05639607276759" lon="6.861321439193731"><ele>1030.6666666666665</ele><time>2026-05-01T09:04:02Z</time></trkpt><trkpt lat="45.05628247065095" lon="6.861164689493161"><ele>1031.3333333333333</ele><time>2026-05-01T09:04:03Z</time></trkpt><trkpt lat="45.056175150711674" lon="6.861001456489459"><ele>1032.0</ele><time>2026-05-01T09:04:04Z</time></trkpt><trkpt lat="45.05606297486975" lon="6.860829209982897"><ele>1033.0</ele><time>2026-05-01T09:04:05Z</time></trkpt><trkpt lat="45.05595375455686" lon="6.860648479424479"><ele>1034.0</ele><time>2026-05-01T09:04:06Z</time></trkpt><trkpt lat="45.055847027057816" lon="6.860467186520822"><ele>1035.0</ele><time>2026-05-01T09:04:07Z</time></trkpt><trkpt lat="45.05573737416721" lon="6.860262790214733"><ele>1035.3333333333333</ele><time>2026-05-01T09:04:08Z</time></trkpt><trkpt lat="45.055641331505" lon="6.860067057333469"><ele>1035.6666666666665</ele><time>2026-05-01T09:04:09Z</time></trkpt><trkpt lat="45.055550429454435" lon="6.859878185702825"><ele>1036.0</ele><time>2026-05-01T09:04:10Z</time></trkpt><trkpt lat="45.05546772656227" lon="6.859687964366891"><ele>1036.0</ele><time>2026-05-01T09:04:11Z</time></trkpt><trkpt lat="45.055377985155" lon="6.85951048667175"><ele>1036.0</ele><time>2026-05-01T09:04:12Z</time></trkpt><trkpt lat="45.05529348942552" lon="6.859335062584251"><ele>1036.0</ele><time>2026-05-01T09:04:13Z</time></trkpt><trkpt lat="45.05520392080397" lon="6.859149887733939"><ele>1036.75</ele><time>2026-05-01T09:04:14Z</time></trkpt><trkpt lat="45.05512276760696" lon="6.858974551328647"><ele>1037.5</ele><time>2026-05-01T09:04:14.999Z</time></trkpt><trkpt lat="45.05503771840475" lon="6.858801908402581"><ele>1038.25</ele><time>2026-05-01T09:04:15.999Z</time></trkpt><trkpt lat="45.05495488812953" lon="6.8586239458285405"><ele>1039.0</ele><time>2026-05-01T09:04:16.999Z</time></trkpt><trkpt lat="45.05486512067485" lon="6.858434420382903"><ele>1039.0</ele><time>2026-05-01T09:04:17.999Z</time></trkpt><trkpt lat="45.054787756056726" lon="6.858265270820302"><ele>1039.0</ele><time>2026-05-01T09:04:18.999Z</time></trkpt><trkpt lat="45.05469768944121" lon="6.858062403669278"><ele>1039.0</ele><time>2026-05-01T09:04:19.999Z</time></trkpt><trkpt lat="45.054612413818845" lon="6.857899810992655"><ele>1039.0</ele><time>2026-05-01T09:04:20.999Z</time></trkpt><trkpt lat="45.05453576283036" lon="6.857744204562933"><ele>1039.0</ele><time>2026-05-01T09:04:21.999Z</time></trkpt><trkpt lat="45.05446214368956" lon="6.857580742904259"><ele>1039.0</ele><time>2026-05-01T09:04:22.999Z</time></trkpt><trkpt lat="45.05437915843788" lon="6.857412275213328"><ele>1039.0</ele><time>2026-05-01T09:04:23.999Z</time></trkpt><trkpt lat="45.05430339829262" lon="6.857245226462846"><ele>1039.5</ele><time>2026-05-01T09:04:24.999Z</time></trkpt><trkpt lat="45.05422561561218" lon="6.857072857436109"><ele>1040.0</ele><time>2026-05-01T09:04:25.999Z</time></trkpt><trkpt lat="45.05414601513808" lon="6.856916563659923"><ele>1040.5</ele><time>2026-05-01T09:04:26.999Z</time></trkpt><trkpt lat="45.054076458419615" lon="6.856752218471294"><ele>1041.0</ele><time>2026-05-01T09:04:27.999Z</time></trkpt><trkpt lat="45.05400031738754" lon="6.856607357676714"><ele>1041.0</ele><time>2026-05-01T09:04:28.999Z</time></trkpt><trkpt lat="45.05392772075169" lon="6.856462850569108"><ele>1041.0</ele><time>2026-05-01T09:04:29.999Z</time></trkpt><trkpt lat="45.05384205591996" lon="6.856295739916186"><ele>1041.0</ele><time>2026-05-01T09:04:30.999Z</time></trkpt><trkpt lat="45.053747423532556" lon="6.856120262776604"><ele>1041.0</ele><time>2026-05-01T09:04:31.999Z</time></trkpt><trkpt lat="45.053645131178335" lon="6.855931542620188"><ele>1040.3333333333333</ele><time>2026-05-01T09:04:32.999Z</time></trkpt><trkpt lat="45.05353650181883" lon="6.855765278127256"><ele>1039.6666666666665</ele><time>2026-05-01T09:04:33.999Z</time></trkpt><trkpt lat="45.05341184542014" lon="6.855589533924778"><ele>1039.0</ele><time>2026-05-01T09:04:34.999Z</time></trkpt><trkpt lat="45.053281433797856" lon="6.855418733458247"><ele>1039.0</ele><time>2026-05-01T09:04:35.999Z</time></trkpt><trkpt lat="45.05314608686794" lon="6.855224546737784"><ele>1039.0</ele><time>2026-05-01T09:04:36.999Z</time></trkpt><trkpt lat="45.05300724073344" lon="6.855051238433431"><ele>1039.0</ele><time>2026-05-01T09:04:37.999Z</time></trkpt><trkpt lat="45.05287143719296" lon="6.854867833643023"><ele>1040.3333333333333</ele><time>2026-05-01T09:04:38.999Z</time></trkpt><trkpt lat="45.052741429304135" lon="6.85470594306854"><ele>1041.6666666666667</ele><time>2026-05-01T09:04:39.999Z</time></trkpt><trkpt lat="45.052595614457644" lon="6.854540017011509"><ele>1043.0</ele><time>2026-05-01T09:04:40.999Z</time></trkpt><trkpt lat="45.05244886387175" lon="6.85436371302877"><ele>1048.0</ele><time>2026-05-01T09:04:41.999Z</time></trkpt><trkpt lat="45.052301040229075" lon="6.854178856413623"><ele>1053.0</ele><time>2026-05-01T09:04:42.999Z</time></trkpt><trkpt lat="45.05215213611639" lon="6.853994416879327"><ele>1058.0</ele><time>2026-05-01T09:04:43.999Z</time></trkpt><trkpt lat="45.05199414472113" lon="6.853821081650753"><ele>1058.0</ele><time>2026-05-01T09:04:44.999Z</time></trkpt><trkpt lat="45.05183739512143" lon="6.853638209312058"><ele>1058.0</ele><time>2026-05-01T09:04:45.999Z</time></trkpt><trkpt lat="45.05168981653481" lon="6.8534602398806515"><ele>1058.0</ele><time>2026-05-01T09:04:46.999Z</time></trkpt><trkpt lat="45.05161633903358" lon="6.853334534019969"><ele>1056.6666666666667</ele><time>2026-05-01T09:04:47.999Z</time></trkpt><trkpt lat="45.051463886518476" lon="6.853163853256773"><ele>1055.3333333333333</ele><time>2026-05-01T09:04:48.999Z</time></trkpt><trkpt lat="45.051316182098205" lon="6.852998488484595"><ele>1054.0</ele><time>2026-05-01T09:04:49.999Z</time></trkpt><trkpt lat="45.051142901467855" lon="6.852806934948985"><ele>1054.0</ele><time>2026-05-01T09:04:50.999Z</time></trkpt><trkpt lat="45.0509837178" lon="6.852632963301036"><ele>1054.0</ele><time>2026-05-01T09:04:51.999Z</time></trkpt><trkpt lat="45.05084644219566" lon="6.852441823082759"><ele>1054.0</ele><time>2026-05-01T09:04:52.999Z</time></trkpt><trkpt lat="45.050746918798126" lon="6.852440053946515"><ele>1052.25</ele><time>2026-05-01T09:04:53.999Z</time></trkpt><trkpt lat="45.05073226534773" lon="6.8522619469104695"><ele>1050.5</ele><time>2026-05-01T09:04:54.999Z</time></trkpt><trkpt lat="45.05057813780837" lon="6.852066823855064"><ele>1048.75</ele><time>2026-05-01T09:04:55.999Z</time></trkpt><trkpt lat="45.050523551029954" lon="6.851963983325448"><ele>1047.0</ele><time>2026-05-01T09:04:56.999Z</time></trkpt><trkpt lat="45.05052356561879" lon="6.8518182160337515"><ele>1047.0</ele><time>2026-05-01T09:04:57.999Z</time></trkpt><trkpt lat="45.05049921021337" lon="6.851638083143208"><ele>1047.0</ele><time>2026-05-01T09:04:58.999Z</time></trkpt><trkpt lat="45.050522131403085" lon="6.851452721289864"><ele>1047.0</ele><time>2026-05-01T09:04:59.999Z</time></trkpt><trkpt lat="45.05058536848013" lon="6.851232212483025"><ele>1047.0</ele><time>2026-05-01T09:05:00.999Z</time></trkpt><trkpt lat="45.05064281571556" lon="6.850999629411912"><ele>1047.6666666666667</ele><time>2026-05-01T09:05:01.999Z</time></trkpt><trkpt lat="45.050690255515406" lon="6.850787301448095"><ele>1048.3333333333335</ele><time>2026-05-01T09:05:02.999Z</time></trkpt><trkpt lat="45.05072157561238" lon="6.850567304779581"><ele>1049.0</ele><time>2026-05-01T09:05:03.999Z</time></trkpt><trkpt lat="45.05074720798946" lon="6.85037926036925"><ele>1049.0</ele><time>2026-05-01T09:05:04.999Z</time></trkpt><trkpt lat="45.05073530624595" lon="6.850198649809256"><ele>1049.0</ele><time>2026-05-01T09:05:05.999Z</time></trkpt><trkpt lat="45.05069722239396" lon="6.850009644987304"><ele>1049.0</ele><time>2026-05-01T09:05:06.999Z</time></trkpt><trkpt lat="45.05061403788362" lon="6.849819006123235"><ele>1049.0</ele><time>2026-05-01T09:05:07.999Z</time></trkpt><trkpt lat="45.05050632919055" lon="6.849654332838383"><ele>1048.6666666666667</ele><time>2026-05-01T09:05:08.999Z</time></trkpt><trkpt lat="45.05038557937929" lon="6.8494832164085375"><ele>1048.3333333333333</ele><time>2026-05-01T09:05:09.999Z</time></trkpt><trkpt lat="45.05027396291357" lon="6.849314985075267"><ele>1048.0</ele><time>2026-05-01T09:05:10.999Z</time></trkpt><trkpt lat="45.0502121433056" lon="6.849156124441606"><ele>1047.0</ele><time>2026-05-01T09:05:11.999Z</time></trkpt><trkpt lat="45.0501678606697" lon="6.848971665024338"><ele>1046.0</ele><time>2026-05-01T09:05:12.999Z</time></trkpt><trkpt lat="45.05010953061317" lon="6.848808835852091"><ele>1045.0</ele><time>2026-05-01T09:05:13.999Z</time></trkpt><trkpt lat="45.050027389744585" lon="6.848649692435769"><ele>1044.0</ele><time>2026-05-01T09:05:15Z</time></trkpt><trkpt lat="45.04992927988207" lon="6.8485189287221155"><ele>1046.0</ele><time>2026-05-01T09:05:16Z</time></trkpt><trkpt lat="45.04980834784807" lon="6.84836070305518"><ele>1048.0</ele><time>2026-05-01T09:05:17Z</time></trkpt><trkpt lat="45.049657025115486" lon="6.848316502469787"><ele>1050.0</ele><time>2026-05-01T09:05:18Z</time></trkpt><trkpt lat="45.04951882306872" lon="6.84822043043281"><ele>1050.0</ele><time>2026-05-01T09:05:19Z</time></trkpt><trkpt lat="45.04941164264617" lon="6.8481131019202985"><ele>1050.0</ele><time>2026-05-01T09:05:20Z</time></trkpt><trkpt lat="45.04930521614542" lon="6.847982360829376"><ele>1050.0</ele><time>2026-05-01T09:05:21Z</time></trkpt><trkpt lat="45.04922424329638" lon="6.847836804494429"><ele>1050.0</ele><time>2026-05-01T09:05:22Z</time></trkpt><trkpt lat="45.04917760683937" lon="6.8476434344514505"><ele>1048.5</ele><time>2026-05-01T09:05:23Z</time></trkpt><trkpt lat="45.049099456298684" lon="6.847460362884995"><ele>1047.0</ele><time>2026-05-01T09:05:24Z</time></trkpt><trkpt lat="45.04902292183301" lon="6.847281571389797"><ele>1045.5</ele><time>2026-05-01T09:05:25Z</time></trkpt><trkpt lat="45.0489445313361" lon="6.847103962759241"><ele>1044.0</ele><time>2026-05-01T09:05:26Z</time></trkpt><trkpt lat="45.048883449097715" lon="6.846938159496983"><ele>1044.0</ele><time>2026-05-01T09:05:27Z</time></trkpt><trkpt lat="45.04882347923898" lon="6.846800025730013"><ele>1044.0</ele><time>2026-05-01T09:05:28Z</time></trkpt><trkpt lat="45.048778497185026" lon="6.846688164419353"><ele>1044.0</ele><time>2026-05-01T09:05:29Z</time></trkpt><trkpt lat="45.048721925134735" lon="6.846549907081297"><ele>1044.0</ele><time>2026-05-01T09:05:30Z</time></trkpt><trkpt lat="45.04866629119655" lon="6.846412814119005"><ele>1044.0</ele><time>2026-05-01T09:05:31Z</time></trkpt><trkpt lat="45.04861130243088" lon="6.846286489087069"><ele>1045.25</ele><time>2026-05-01T09:05:32Z</time></trkpt><trkpt lat="45.048558021280165" lon="6.846137023741824"><ele>1046.5</ele><time>2026-05-01T09:05:33Z</time></trkpt><trkpt lat="45.048494512222284" lon="6.845998521353181"><ele>1047.75</ele><time>2026-05-01T09:05:34Z</time></trkpt><trkpt lat="45.04843731883866" lon="6.845853431765849"><ele>1049.0</ele><time>2026-05-01T09:05:35Z</time></trkpt><trkpt lat="45.04837477687192" lon="6.8457094821953115"><ele>1049.0</ele><time>2026-05-01T09:05:36Z</time></trkpt><trkpt lat="45.04831406815106" lon="6.84557854022664"><ele>1049.0</ele><time>2026-05-01T09:05:37Z</time></trkpt><trkpt lat="45.04824893669408" lon="6.8454354662196115"><ele>1049.0</ele><time>2026-05-01T09:05:38Z</time></trkpt><trkpt lat="45.048178053679166" lon="6.845263740595318"><ele>1049.0</ele><time>2026-05-01T09:05:39Z</time></trkpt><trkpt lat="45.0481122329095" lon="6.845121042400791"><ele>1050.0</ele><time>2026-05-01T09:05:40Z</time></trkpt><trkpt lat="45.048046809963814" lon="6.844980396248598"><ele>1051.0</ele><time>2026-05-01T09:05:41Z</time></trkpt><trkpt lat="45.04798968603492" lon="6.844830652822351"><ele>1052.0</ele><time>2026-05-01T09:05:42Z</time></trkpt><trkpt lat="45.04794311694394" lon="6.844680927713848"><ele>1053.0</ele><time>2026-05-01T09:05:43Z</time></trkpt><trkpt lat="45.04792329562591" lon="6.844509617018218"><ele>1053.0</ele><time>2026-05-01T09:05:44Z</time></trkpt><trkpt lat="45.047896101119676" lon="6.8443315101438795"><ele>1053.0</ele><time>2026-05-01T09:05:45Z</time></trkpt><trkpt lat="45.04787540821381" lon="6.844152383947461"><ele>1053.0</ele><time>2026-05-01T09:05:46Z</time></trkpt><trkpt lat="45.0478792566815" lon="6.843985604383301"><ele>1053.0</ele><time>2026-05-01T09:05:47Z</time></trkpt><trkpt lat="45.04786430720309" lon="6.843819667259232"><ele>1052.8</ele><time>2026-05-01T09:05:48Z</time></trkpt><trkpt lat="45.04785456935241" lon="6.843686793821193"><ele>1052.6</ele><time>2026-05-01T09:05:49Z</time></trkpt><trkpt lat="45.04785463849916" lon="6.843545909595664"><ele>1052.4</ele><time>2026-05-01T09:05:50Z</time></trkpt><trkpt lat="45.04784041439681" lon="6.843425295929895"><ele>1052.2</ele><time>2026-05-01T09:05:51Z</time></trkpt><trkpt lat="45.047837988438076" lon="6.843302847617546"><ele>1052.0</ele><time>2026-05-01T09:05:52Z</time></trkpt><trkpt lat="45.04782052233155" lon="6.84316356781534"><ele>1052.0</ele><time>2026-05-01T09:05:53Z</time></trkpt><trkpt lat="45.047818735215124" lon="6.843014277143919"><ele>1052.0</ele><time>2026-05-01T09:05:54Z</time></trkpt><trkpt lat="45.047809152977614" lon="6.842849741926945"><ele>1052.0</ele><time>2026-05-01T09:05:55Z</time></trkpt><trkpt lat="45.047815192050514" lon="6.842685198627923"><ele>1052.0</ele><time>2026-05-01T09:05:56Z</time></trkpt><trkpt lat="45.04781273249382" lon="6.842544459541362"><ele>1052.0</ele><time>2026-05-01T09:05:57Z</time></trkpt><trkpt lat="45.04781671675305" lon="6.842398359292007"><ele>1052.2</ele><time>2026-05-01T09:05:58Z</time></trkpt><trkpt lat="45.0478188513788" lon="6.8422579203554195"><ele>1052.4</ele><time>2026-05-01T09:05:59Z</time></trkpt><trkpt lat="45.04782643553408" lon="6.842117889171741"><ele>1052.6</ele><time>2026-05-01T09:06:00Z</time></trkpt><trkpt lat="45.04783946942951" lon="6.841958109602092"><ele>1052.8</ele><time>2026-05-01T09:06:01Z</time></trkpt><trkpt lat="45.04788673155874" lon="6.841820084409377"><ele>1053.0</ele><time>2026-05-01T09:06:02Z</time></trkpt><trkpt lat="45.04788103805872" lon="6.8416616776187364"><ele>1053.0</ele><time>2026-05-01T09:06:03Z</time></trkpt><trkpt lat="45.04786632193033" lon="6.841493764833215"><ele>1053.0</ele><time>2026-05-01T09:06:04Z</time></trkpt><trkpt lat="45.04784519817466" lon="6.841286326631623"><ele>1053.0</ele><time>2026-05-01T09:06:05Z</time></trkpt><trkpt lat="45.047841030826284" lon="6.841092697506574"><ele>1053.0</ele><time>2026-05-01T09:06:06Z</time></trkpt><trkpt lat="45.04784628047095" lon="6.840917973563327"><ele>1054.75</ele><time>2026-05-01T09:06:07Z</time></trkpt><trkpt lat="45.04786950195863" lon="6.840741276158105"><ele>1056.5</ele><time>2026-05-01T09:06:08Z</time></trkpt><trkpt lat="45.0478885635752" lon="6.84054816873948"><ele>1058.25</ele><time>2026-05-01T09:06:09Z</time></trkpt><trkpt lat="45.04788894034443" lon="6.840372966321032"><ele>1060.0</ele><time>2026-05-01T09:06:10Z</time></trkpt><trkpt lat="45.04788035328304" lon="6.840188507926479"><ele>1062.6666666666665</ele><time>2026-05-01T09:06:11Z</time></trkpt><trkpt lat="45.04785002648515" lon="6.840017343359389"><ele>1065.3333333333333</ele><time>2026-05-01T09:06:12Z</time></trkpt><trkpt lat="45.04778132865077" lon="6.839804796861531"><ele>1068.0</ele><time>2026-05-01T09:06:13Z</time></trkpt><trkpt lat="45.04768592346997" lon="6.839583790241457"><ele>1068.0</ele><time>2026-05-01T09:06:14Z</time></trkpt><trkpt lat="45.047582922988546" lon="6.839405617567808"><ele>1068.0</ele><time>2026-05-01T09:06:15Z</time></trkpt><trkpt lat="45.04750023435632" lon="6.839258393073228"><ele>1068.0</ele><time>2026-05-01T09:06:16Z</time></trkpt><trkpt lat="45.04741451135889" lon="6.839094375021123"><ele>1068.0</ele><time>2026-05-01T09:06:17Z</time></trkpt><trkpt lat="45.047332540167446" lon="6.838935161404191"><ele>1065.5</ele><time>2026-05-01T09:06:18Z</time></trkpt><trkpt lat="45.047259958610695" lon="6.838772896696162"><ele>1063.0</ele><time>2026-05-01T09:06:19Z</time></trkpt><trkpt lat="45.04719278331707" lon="6.838607443919185"><ele>1060.5</ele><time>2026-05-01T09:06:20Z</time></trkpt><trkpt lat="45.04711141475712" lon="6.838453989890545"><ele>1058.0</ele><time>2026-05-01T09:06:21Z</time></trkpt><trkpt lat="45.04703358389905" lon="6.838264234023769"><ele>1058.0</ele><time>2026-05-01T09:06:22Z</time></trkpt><trkpt lat="45.04693740269795" lon="6.838090277563709"><ele>1058.0</ele><time>2026-05-01T09:06:23Z</time></trkpt><trkpt lat="45.04685302366049" lon="6.837910992956141"><ele>1058.0</ele><time>2026-05-01T09:06:24Z</time></trkpt><trkpt lat="45.046759955062484" lon="6.837720816287527"><ele>1058.3333333333335</ele><time>2026-05-01T09:06:25Z</time></trkpt><trkpt lat="45.04666229868615" lon="6.83749183789837"><ele>1058.6666666666667</ele><time>2026-05-01T09:06:26Z</time></trkpt><trkpt lat="45.04653564771165" lon="6.837264455211171"><ele>1059.0</ele><time>2026-05-01T09:06:27Z</time></trkpt><trkpt lat="45.0464065263622" lon="6.837004637092858"><ele>1057.5</ele><time>2026-05-01T09:06:28Z</time></trkpt><trkpt lat="45.04625330050439" lon="6.836657267713983"><ele>1056.0</ele><time>2026-05-01T09:06:29Z</time></trkpt><trkpt lat="45.04614762259322" lon="6.836392187442204"><ele>1056.0</ele><time>2026-05-01T09:06:30Z</time></trkpt><trkpt lat="45.046044724747524" lon="6.836170454850808"><ele>1056.0</ele><time>2026-05-01T09:06:30.999Z</time></trkpt><trkpt lat="45.04594953725962" lon="6.835935381169123"><ele>1056.0</ele><time>2026-05-01T09:06:31.999Z</time></trkpt><trkpt lat="45.04585288219889" lon="6.835724626237526"><ele>1056.5</ele><time>2026-05-01T09:06:32.999Z</time></trkpt><trkpt lat="45.04578408633207" lon="6.835543513543406"><ele>1057.0</ele><time>2026-05-01T09:06:33.999Z</time></trkpt><trkpt lat="45.04570859843247" lon="6.835373478496233"><ele>1057.5</ele><time>2026-05-01T09:06:34.999Z</time></trkpt><trkpt lat="45.045623241798154" lon="6.8351905316573855"><ele>1058.0</ele><time>2026-05-01T09:06:35.999Z</time></trkpt><trkpt lat="45.04554360126722" lon="6.835050440989887"><ele>1059.3333333333335</ele><time>2026-05-01T09:06:36.999Z</time></trkpt><trkpt lat="45.045471164331126" lon="6.8348916744330745"><ele>1060.6666666666667</ele><time>2026-05-01T09:06:37.999Z</time></trkpt><trkpt lat="45.045384903830616" lon="6.834706945554329"><ele>1062.0</ele><time>2026-05-01T09:06:38.999Z</time></trkpt><trkpt lat="45.045288141896535" lon="6.83451554346796"><ele>1062.0</ele><time>2026-05-01T09:06:39.999Z</time></trkpt><trkpt lat="45.04520265780736" lon="6.834345952025813"><ele>1062.0</ele><time>2026-05-01T09:06:40.999Z</time></trkpt><trkpt lat="45.045125019748035" lon="6.834158673950779"><ele>1062.0</ele><time>2026-05-01T09:06:41.999Z</time></trkpt><trkpt lat="45.04504069156149" lon="6.8339592866535845"><ele>1062.0</ele><time>2026-05-01T09:06:42.999Z</time></trkpt><trkpt lat="45.04495125532655" lon="6.833746040861733"><ele>1062.0</ele><time>2026-05-01T09:06:43.999Z</time></trkpt><trkpt lat="45.04485603545705" lon="6.833541960742453"><ele>1062.0</ele><time>2026-05-01T09:06:44.999Z</time></trkpt><trkpt lat="45.044763491064124" lon="6.8333604741423635"><ele>1062.6666666666667</ele><time>2026-05-01T09:06:45.999Z</time></trkpt><trkpt lat="45.044677542189724" lon="6.8331735070810575"><ele>1063.3333333333335</ele><time>2026-05-01T09:06:46.999Z</time></trkpt><trkpt lat="45.044605906544405" lon="6.832981217722149"><ele>1064.0</ele><time>2026-05-01T09:06:47.999Z</time></trkpt><trkpt lat="45.0445303346446" lon="6.832804877283263"><ele>1064.0</ele><time>2026-05-01T09:06:48.999Z</time></trkpt><trkpt lat="45.04444904223469" lon="6.832646091457647"><ele>1064.0</ele><time>2026-05-01T09:06:49.999Z</time></trkpt><trkpt lat="45.04437379727672" lon="6.832502121903663"><ele>1064.0</ele><time>2026-05-01T09:06:50.999Z</time></trkpt><trkpt lat="45.04429072160884" lon="6.83235945219683"><ele>1064.0</ele><time>2026-05-01T09:06:51.999Z</time></trkpt><trkpt lat="45.04420930312858" lon="6.832173058801386"><ele>1064.0</ele><time>2026-05-01T09:06:52.999Z</time></trkpt><trkpt lat="45.04412476284274" lon="6.831966985029392"><ele>1064.0</ele><time>2026-05-01T09:06:53.999Z</time></trkpt><trkpt lat="45.04402220754313" lon="6.831761301292727"><ele>1064.0</ele><time>2026-05-01T09:06:54.999Z</time></trkpt><trkpt lat="45.043942274114976" lon="6.831591861867548"><ele>1064.0</ele><time>2026-05-01T09:06:55.999Z</time></trkpt><trkpt lat="45.043869115023014" lon="6.831420583391369"><ele>1064.0</ele><time>2026-05-01T09:06:56.999Z</time></trkpt><trkpt lat="45.04379738526855" lon="6.831265525101254"><ele>1064.0</ele><time>2026-05-01T09:06:57.999Z</time></trkpt><trkpt lat="45.043727628747725" lon="6.83109934655039"><ele>1064.0</ele><time>2026-05-01T09:06:58.999Z</time></trkpt><trkpt lat="45.04364922413143" lon="6.830943309736657"><ele>1064.25</ele><time>2026-05-01T09:06:59.999Z</time></trkpt><trkpt lat="45.04357970847238" lon="6.830759191745446"><ele>1064.5</ele><time>2026-05-01T09:07:00.999Z</time></trkpt><trkpt lat="45.04350922624492" lon="6.830595746819872"><ele>1064.75</ele><time>2026-05-01T09:07:01.999Z</time></trkpt><trkpt lat="45.043419541723" lon="6.830438489945089"><ele>1065.0</ele><time>2026-05-01T09:07:02.999Z</time></trkpt><trkpt lat="45.043341892555475" lon="6.830270376254041"><ele>1064.75</ele><time>2026-05-01T09:07:03.999Z</time></trkpt><trkpt lat="45.04326755979034" lon="6.830116784852144"><ele>1064.5</ele><time>2026-05-01T09:07:04.999Z</time></trkpt><trkpt lat="45.04320283894476" lon="6.829969799576427"><ele>1064.25</ele><time>2026-05-01T09:07:05.999Z</time></trkpt><trkpt lat="45.04312700562738" lon="6.82983193887768"><ele>1064.0</ele><time>2026-05-01T09:07:06.999Z</time></trkpt><trkpt lat="45.04305754211415" lon="6.829684225423895"><ele>1064.0</ele><time>2026-05-01T09:07:07.999Z</time></trkpt><trkpt lat="45.04299099144403" lon="6.829540611611515"><ele>1064.0</ele><time>2026-05-01T09:07:08.999Z</time></trkpt><trkpt lat="45.0429220046317" lon="6.829391568951127"><ele>1064.0</ele><time>2026-05-01T09:07:09.999Z</time></trkpt><trkpt lat="45.042853910784956" lon="6.82924292674317"><ele>1064.0</ele><time>2026-05-01T09:07:10.999Z</time></trkpt><trkpt lat="45.04278200869603" lon="6.82908879202932"><ele>1065.25</ele><time>2026-05-01T09:07:11.999Z</time></trkpt><trkpt lat="45.04271183630276" lon="6.828935243403873"><ele>1066.5</ele><time>2026-05-01T09:07:12.999Z</time></trkpt><trkpt lat="45.042639846914064" lon="6.82877551498164"><ele>1067.75</ele><time>2026-05-01T09:07:13.999Z</time></trkpt><trkpt lat="45.04258109515609" lon="6.828625492975289"><ele>1069.0</ele><time>2026-05-01T09:07:14.999Z</time></trkpt><trkpt lat="45.04254327355859" lon="6.828460072757936"><ele>1070.0</ele><time>2026-05-01T09:07:15.999Z</time></trkpt><trkpt lat="45.04252946932536" lon="6.828295233232597"><ele>1071.0</ele><time>2026-05-01T09:07:16.999Z</time></trkpt><trkpt lat="45.0424894570802" lon="6.828123697823521"><ele>1072.0</ele><time>2026-05-01T09:07:17.999Z</time></trkpt><trkpt lat="45.042465241580466" lon="6.8279620489537125"><ele>1073.0</ele><time>2026-05-01T09:07:18.999Z</time></trkpt><trkpt lat="45.04244971472815" lon="6.827804810671615"><ele>1071.25</ele><time>2026-05-01T09:07:19.999Z</time></trkpt><trkpt lat="45.042448979076156" lon="6.82764952504846"><ele>1069.5</ele><time>2026-05-01T09:07:21Z</time></trkpt><trkpt lat="45.042440425692526" lon="6.827483331291093"><ele>1067.75</ele><time>2026-05-01T09:07:22Z</time></trkpt><trkpt lat="45.042423807487694" lon="6.82731916445665"><ele>1066.0</ele><time>2026-05-01T09:07:23Z</time></trkpt><trkpt lat="45.04240153523807" lon="6.827160415440977"><ele>1066.0</ele><time>2026-05-01T09:07:24Z</time></trkpt><trkpt lat="45.04238589121622" lon="6.82701511885596"><ele>1066.0</ele><time>2026-05-01T09:07:25Z</time></trkpt><trkpt lat="45.04236252559548" lon="6.826862677773204"><ele>1066.0</ele><time>2026-05-01T09:07:26Z</time></trkpt><trkpt lat="45.0423348104868" lon="6.826719945165449"><ele>1066.0</ele><time>2026-05-01T09:07:27Z</time></trkpt><trkpt lat="45.04230556862907" lon="6.826610944543961"><ele>1066.0</ele><time>2026-05-01T09:07:28Z</time></trkpt><trkpt lat="45.04226873887639" lon="6.826489766139194"><ele>1066.5</ele><time>2026-05-01T09:07:29Z</time></trkpt><trkpt lat="45.04222105431031" lon="6.826395154197016"><ele>1067.0</ele><time>2026-05-01T09:07:30Z</time></trkpt><trkpt lat="45.042182960737236" lon="6.826289549502304"><ele>1067.5</ele><time>2026-05-01T09:07:31Z</time></trkpt><trkpt lat="45.0421449490496" lon="6.826176462612201"><ele>1068.0</ele><time>2026-05-01T09:07:32Z</time></trkpt><trkpt lat="45.04210869589472" lon="6.826100318482283"><ele>1068.5</ele><time>2026-05-01T09:07:33Z</time></trkpt><trkpt lat="45.042077698605894" lon="6.826002553297219"><ele>1069.0</ele><time>2026-05-01T09:07:34Z</time></trkpt><trkpt lat="45.04204967346446" lon="6.825911386805502"><ele>1069.6666666666665</ele><time>2026-05-01T09:07:35Z</time></trkpt><trkpt lat="45.04200176489694" lon="6.825812326903684"><ele>1070.3333333333333</ele><time>2026-05-01T09:07:36Z</time></trkpt><trkpt lat="45.041959041267226" lon="6.825715870373826"><ele>1071.0</ele><time>2026-05-01T09:07:37Z</time></trkpt><trkpt lat="45.0419227583871" lon="6.825601399828816"><ele>1071.6666666666667</ele><time>2026-05-01T09:07:38Z</time></trkpt><trkpt lat="45.04188681474089" lon="6.825508915914828"><ele>1072.3333333333335</ele><time>2026-05-01T09:07:39Z</time></trkpt><trkpt lat="45.04185239812256" lon="6.825415854086476"><ele>1073.0</ele><time>2026-05-01T09:07:40Z</time></trkpt><trkpt lat="45.04182310437525" lon="6.825323663324028"><ele>1073.0</ele><time>2026-05-01T09:07:41Z</time></trkpt><trkpt lat="45.041788354801376" lon="6.8252246363469"><ele>1073.0</ele><time>2026-05-01T09:07:42Z</time></trkpt><trkpt lat="45.04175027473578" lon="6.825111473731696"><ele>1073.0</ele><time>2026-05-01T09:07:43Z</time></trkpt><trkpt lat="45.0417216841725" lon="6.82500818179188"><ele>1073.0</ele><time>2026-05-01T09:07:44Z</time></trkpt><trkpt lat="45.041687676126344" lon="6.824823422672708"><ele>1073.0</ele><time>2026-05-01T09:07:46Z</time></trkpt><trkpt lat="45.04168894692973" lon="6.8247303033510285"><ele>1073.0</ele><time>2026-05-01T09:07:48Z</time></trkpt><trkpt lat="45.041427451538226" lon="6.824839863476089"><ele>1072.6666666666667</ele><time>2026-05-01T09:07:50Z</time></trkpt><trkpt lat="45.04132686038128" lon="6.8249046555839525"><ele>1072.3333333333335</ele><time>2026-05-01T09:07:51Z</time></trkpt><trkpt lat="45.041242067517736" lon="6.824938405946235"><ele>1072.0</ele><time>2026-05-01T09:07:52Z</time></trkpt><trkpt lat="45.04115300954398" lon="6.82494916192789"><ele>1071.6666666666667</ele><time>2026-05-01T09:07:53Z</time></trkpt><trkpt lat="45.041073676040895" lon="6.824949531166352"><ele>1071.3333333333333</ele><time>2026-05-01T09:07:54Z</time></trkpt><trkpt lat="45.041010413736174" lon="6.824906460364553"><ele>1071.0</ele><time>2026-05-01T09:07:55Z</time></trkpt><trkpt lat="45.04097952419884" lon="6.824760739878484"><ele>1071.0</ele><time>2026-05-01T09:07:56Z</time></trkpt><trkpt lat="45.04093463737027" lon="6.824648421001163"><ele>1071.0</ele><time>2026-05-01T09:07:57Z</time></trkpt><trkpt lat="45.0409434138073" lon="6.824472351285526"><ele>1071.0</ele><time>2026-05-01T09:07:58Z</time></trkpt><trkpt lat="45.04092991720152" lon="6.824328356250233"><ele>1071.0</ele><time>2026-05-01T09:07:59Z</time></trkpt><trkpt lat="45.04094397213248" lon="6.824152050693292"><ele>1071.0</ele><time>2026-05-01T09:08:00Z</time></trkpt><trkpt lat="45.04096207351865" lon="6.8239814445673765"><ele>1071.0</ele><time>2026-05-01T09:08:01Z</time></trkpt><trkpt lat="45.0409027520447" lon="6.823764120935762"><ele>1071.0</ele><time>2026-05-01T09:08:02Z</time></trkpt><trkpt lat="45.04084479392967" lon="6.823589853454865"><ele>1071.0</ele><time>2026-05-01T09:08:03Z</time></trkpt><trkpt lat="45.04076674387017" lon="6.823380619793469"><ele>1071.0</ele><time>2026-05-01T09:08:04Z</time></trkpt><trkpt lat="45.04070396354443" lon="6.823182449262204"><ele>1071.0</ele><time>2026-05-01T09:08:05Z</time></trkpt><trkpt lat="45.04059414242511" lon="6.822957981732106"><ele>1071.0</ele><time>2026-05-01T09:08:06Z</time></trkpt><trkpt lat="45.04051388953589" lon="6.8227441649545595"><ele>1071.6666666666667</ele><time>2026-05-01T09:08:07Z</time></trkpt><trkpt lat="45.04042293045964" lon="6.8225465005172605"><ele>1072.3333333333335</ele><time>2026-05-01T09:08:08Z</time></trkpt><trkpt lat="45.040356366335615" lon="6.8223428911802255"><ele>1073.0</ele><time>2026-05-01T09:08:09Z</time></trkpt><trkpt lat="45.04031137118146" lon="6.822129116455978"><ele>1073.0</ele><time>2026-05-01T09:08:10Z</time></trkpt><trkpt lat="45.04024353619321" lon="6.821901374353703"><ele>1073.0</ele><time>2026-05-01T09:08:11Z</time></trkpt><trkpt lat="45.04019164812297" lon="6.821618097004822"><ele>1073.0</ele><time>2026-05-01T09:08:12Z</time></trkpt><trkpt lat="45.04015077523423" lon="6.8213666350172435"><ele>1072.6666666666667</ele><time>2026-05-01T09:08:13Z</time></trkpt><trkpt lat="45.04010195120305" lon="6.821102768412874"><ele>1072.3333333333333</ele><time>2026-05-01T09:08:14Z</time></trkpt><trkpt lat="45.04006206795863" lon="6.820832936228005"><ele>1072.0</ele><time>2026-05-01T09:08:15Z</time></trkpt><trkpt lat="45.040005334167816" lon="6.820554468504707"><ele>1072.3333333333333</ele><time>2026-05-01T09:08:16Z</time></trkpt><trkpt lat="45.03995041250194" lon="6.820296934703598"><ele>1072.6666666666667</ele><time>2026-05-01T09:08:17Z</time></trkpt><trkpt lat="45.03989587288418" lon="6.820030665301081"><ele>1073.0</ele><time>2026-05-01T09:08:18Z</time></trkpt><trkpt lat="45.039877548615614" lon="6.819737677453346"><ele>1073.3333333333335</ele><time>2026-05-01T09:08:19Z</time></trkpt><trkpt lat="45.03981939339581" lon="6.819463647370226"><ele>1073.6666666666667</ele><time>2026-05-01T09:08:20Z</time></trkpt><trkpt lat="45.03976716237667" lon="6.819178209731393"><ele>1074.0</ele><time>2026-05-01T09:08:21Z</time></trkpt><trkpt lat="45.03971396567796" lon="6.818892661282471"><ele>1074.3333333333333</ele><time>2026-05-01T09:08:22Z</time></trkpt><trkpt lat="45.03965833851176" lon="6.818598948493607"><ele>1074.6666666666665</ele><time>2026-05-01T09:08:23Z</time></trkpt><trkpt lat="45.039605881880924" lon="6.818317200540973"><ele>1075.0</ele><time>2026-05-01T09:08:24Z</time></trkpt><trkpt lat="45.03954689343237" lon="6.818018847735711"><ele>1075.3333333333333</ele><time>2026-05-01T09:08:25Z</time></trkpt><trkpt lat="45.03949782216385" lon="6.8177568785573746"><ele>1075.6666666666667</ele><time>2026-05-01T09:08:26Z</time></trkpt><trkpt lat="45.03945577871314" lon="6.8175216726921795"><ele>1076.0</ele><time>2026-05-01T09:08:27Z</time></trkpt><trkpt lat="45.039413415272925" lon="6.817288430324129"><ele>1076.6666666666667</ele><time>2026-05-01T09:08:28Z</time></trkpt><trkpt lat="45.03937252663583" lon="6.817071202806305"><ele>1077.3333333333333</ele><time>2026-05-01T09:08:29Z</time></trkpt><trkpt lat="45.03932632485791" lon="6.816842354630923"><ele>1078.0</ele><time>2026-05-01T09:08:30Z</time></trkpt><trkpt lat="45.03928994739755" lon="6.816626757497709"><ele>1078.6666666666665</ele><time>2026-05-01T09:08:31Z</time></trkpt><trkpt lat="45.03924045139152" lon="6.816419085620667"><ele>1079.3333333333333</ele><time>2026-05-01T09:08:32Z</time></trkpt><trkpt lat="45.03916628603929" lon="6.81623579013365"><ele>1080.0</ele><time>2026-05-01T09:08:33Z</time></trkpt><trkpt lat="45.03907621373546" lon="6.816072320120683"><ele>1080.0</ele><time>2026-05-01T09:08:34Z</time></trkpt><trkpt lat="45.038925141746034" lon="6.815988567068392"><ele>1080.0</ele><time>2026-05-01T09:08:35Z</time></trkpt><trkpt lat="45.03882750823191" lon="6.815904392374839"><ele>1080.0</ele><time>2026-05-01T09:08:36Z</time></trkpt><trkpt lat="45.038698342816595" lon="6.8158341979285435"><ele>1080.0</ele><time>2026-05-01T09:08:36.999Z</time></trkpt><trkpt lat="45.03855995234788" lon="6.815780500581444"><ele>1080.75</ele><time>2026-05-01T09:08:37.999Z</time></trkpt><trkpt lat="45.03842359019847" lon="6.815759627031085"><ele>1081.5</ele><time>2026-05-01T09:08:38.999Z</time></trkpt><trkpt lat="45.03828870158984" lon="6.815767548281511"><ele>1082.25</ele><time>2026-05-01T09:08:39.999Z</time></trkpt><trkpt lat="45.03814674844897" lon="6.815782509720217"><ele>1083.0</ele><time>2026-05-01T09:08:40.999Z</time></trkpt><trkpt lat="45.038012019217" lon="6.815849704748673"><ele>1083.6666666666667</ele><time>2026-05-01T09:08:41.999Z</time></trkpt><trkpt lat="45.03788876519668" lon="6.815972053857501"><ele>1084.3333333333335</ele><time>2026-05-01T09:08:42.999Z</time></trkpt><trkpt lat="45.03774751564726" lon="6.816105712469808"><ele>1085.0</ele><time>2026-05-01T09:08:43.999Z</time></trkpt><trkpt lat="45.037602272121084" lon="6.816225221216238"><ele>1086.6666666666667</ele><time>2026-05-01T09:08:44.999Z</time></trkpt><trkpt lat="45.03744094817401" lon="6.816386040756094"><ele>1088.3333333333333</ele><time>2026-05-01T09:08:45.999Z</time></trkpt><trkpt lat="45.037253006427186" lon="6.81656354842751"><ele>1090.0</ele><time>2026-05-01T09:08:46.999Z</time></trkpt><trkpt lat="45.037057485192776" lon="6.8167124964952635"><ele>1089.3333333333333</ele><time>2026-05-01T09:08:47.999Z</time></trkpt><trkpt lat="45.03688811638898" lon="6.81686296814125"><ele>1088.6666666666667</ele><time>2026-05-01T09:08:48.999Z</time></trkpt><trkpt lat="45.03670382058746" lon="6.817026796846316"><ele>1088.0</ele><time>2026-05-01T09:08:49.999Z</time></trkpt><trkpt lat="45.03653185266115" lon="6.817208903213502"><ele>1088.0</ele><time>2026-05-01T09:08:50.999Z</time></trkpt><trkpt lat="45.036344858515506" lon="6.817377365880456"><ele>1088.0</ele><time>2026-05-01T09:08:51.999Z</time></trkpt><trkpt lat="45.036165419155616" lon="6.817527660169708"><ele>1088.0</ele><time>2026-05-01T09:08:52.999Z</time></trkpt><trkpt lat="45.035998084176875" lon="6.817704774227001"><ele>1090.0</ele><time>2026-05-01T09:08:53.999Z</time></trkpt><trkpt lat="45.03581662876327" lon="6.817856722698562"><ele>1092.0</ele><time>2026-05-01T09:08:54.999Z</time></trkpt><trkpt lat="45.03565106746937" lon="6.818000213863714"><ele>1094.0</ele><time>2026-05-01T09:08:55.999Z</time></trkpt><trkpt lat="45.03549651268701" lon="6.818134319771664"><ele>1094.0</ele><time>2026-05-01T09:08:56.999Z</time></trkpt><trkpt lat="45.035336743669326" lon="6.8182691473032735"><ele>1094.0</ele><time>2026-05-01T09:08:57.999Z</time></trkpt><trkpt lat="45.03518391957614" lon="6.818410439603672"><ele>1094.0</ele><time>2026-05-01T09:08:58.999Z</time></trkpt><trkpt lat="45.03503298728656" lon="6.8185442202477375"><ele>1099.6666666666667</ele><time>2026-05-01T09:08:59.999Z</time></trkpt><trkpt lat="45.03487544672484" lon="6.818669516840552"><ele>1105.3333333333333</ele><time>2026-05-01T09:09:00.999Z</time></trkpt><trkpt lat="45.03473124344871" lon="6.818807859993884"><ele>1111.0</ele><time>2026-05-01T09:09:01.999Z</time></trkpt><trkpt lat="45.03458993095466" lon="6.818926357240249"><ele>1111.0</ele><time>2026-05-01T09:09:02.999Z</time></trkpt><trkpt lat="45.03444365470556" lon="6.819048667579713"><ele>1111.0</ele><time>2026-05-01T09:09:03.999Z</time></trkpt><trkpt lat="45.03429029554916" lon="6.819195904446725"><ele>1111.0</ele><time>2026-05-01T09:09:04.999Z</time></trkpt><trkpt lat="45.034139560010296" lon="6.819335512237867"><ele>1126.6666666666665</ele><time>2026-05-01T09:09:05.999Z</time></trkpt><trkpt lat="45.03398726314897" lon="6.819478957360575"><ele>1142.3333333333333</ele><time>2026-05-01T09:09:07.014Z</time></trkpt><trkpt lat="45.033835469948556" lon="6.8196158904493975"><ele>1158.0</ele><time>2026-05-01T09:09:08.012Z</time></trkpt><trkpt lat="45.03367315142791" lon="6.819733576207194"><ele>1158.0</ele><time>2026-05-01T09:09:09.013Z</time></trkpt><trkpt lat="45.033519065323866" lon="6.8198683140268805"><ele>1158.0</ele><time>2026-05-01T09:09:10.021Z</time></trkpt><trkpt lat="45.03295768879" lon="6.820359130201789"><ele>1172.6666666666667</ele><time>2026-05-01T09:09:13.706Z</time></trkpt><trkpt lat="45.03281412580486" lon="6.820512186477341"><ele>1187.3333333333335</ele><time>2026-05-01T09:09:14.706Z</time></trkpt><trkpt lat="45.032662216932806" lon="6.820644921414562"><ele>1202.0</ele><time>2026-05-01T09:09:15.703Z</time></trkpt><trkpt lat="45.03251003187921" lon="6.820777897673695"><ele>1211.6666666666667</ele><time>2026-05-01T09:09:16.702Z</time></trkpt><trkpt lat="45.032357543550724" lon="6.8209111389283725"><ele>1221.3333333333333</ele><time>2026-05-01T09:09:17.703Z</time></trkpt><trkpt lat="45.03220540618289" lon="6.821044073520642"><ele>1231.0</ele><time>2026-05-01T09:09:18.702Z</time></trkpt><trkpt lat="45.032044701581746" lon="6.821160060538502"><ele>1231.0</ele><time>2026-05-01T09:09:19.705Z</time></trkpt><trkpt lat="45.03190313995747" lon="6.8213158136057155"><ele>1231.0</ele><time>2026-05-01T09:09:20.702Z</time></trkpt><trkpt lat="45.03175170697409" lon="6.821452607696092"><ele>1231.0</ele><time>2026-05-01T09:09:21.706Z</time></trkpt><trkpt lat="45.03159202856992" lon="6.8215689741452925"><ele>1235.3333333333333</ele><time>2026-05-01T09:09:22.705Z</time></trkpt><trkpt lat="45.031450346033445" lon="6.821724836340283"><ele>1239.6666666666667</ele><time>2026-05-01T09:09:23.703Z</time></trkpt><trkpt lat="45.031299540337656" lon="6.821861063782411"><ele>1244.0</ele><time>2026-05-01T09:09:24.703Z</time></trkpt><trkpt lat="45.031148459297235" lon="6.821997404503632"><ele>1244.0</ele><time>2026-05-01T09:09:25.703Z</time></trkpt><trkpt lat="45.03098863600919" lon="6.822113568716485"><ele>1244.0</ele><time>2026-05-01T09:09:26.702Z</time></trkpt><trkpt lat="45.03084608406167" lon="6.822269878426568"><ele>1244.0</ele><time>2026-05-01T09:09:27.706Z</time></trkpt><trkpt lat="45.03069470506811" lon="6.822404164900181"><ele>1248.6666666666667</ele><time>2026-05-01T09:09:28.704Z</time></trkpt><trkpt lat="45.030533803400324" lon="6.822517605708078"><ele>1253.3333333333333</ele><time>2026-05-01T09:09:29.704Z</time></trkpt><trkpt lat="45.0303812666081" lon="6.822650627632996"><ele>1258.0</ele><time>2026-05-01T09:09:30.704Z</time></trkpt><trkpt lat="45.03023788578171" lon="6.822803262101337"><ele>1258.0</ele><time>2026-05-01T09:09:31.703Z</time></trkpt><trkpt lat="45.03007624502004" lon="6.822916626130276"><ele>1258.0</ele><time>2026-05-01T09:09:32.706Z</time></trkpt><trkpt lat="45.02993273217557" lon="6.823069840922349"><ele>1258.0</ele><time>2026-05-01T09:09:33.706Z</time></trkpt><trkpt lat="45.029780643426705" lon="6.823203467663181"><ele>1256.6666666666665</ele><time>2026-05-01T09:09:34.706Z</time></trkpt><trkpt lat="45.029628926545215" lon="6.8233367676775165"><ele>1255.3333333333333</ele><time>2026-05-01T09:09:35.703Z</time></trkpt><trkpt lat="45.029468367911946" lon="6.823450771425594"><ele>1254.0</ele><time>2026-05-01T09:09:36.702Z</time></trkpt><trkpt lat="45.029316244192024" lon="6.823586268353755"><ele>1254.0</ele><time>2026-05-01T09:09:37.706Z</time></trkpt><trkpt lat="45.02916590619395" lon="6.8237222483075515"><ele>1254.0</ele><time>2026-05-01T09:09:38.701Z</time></trkpt><trkpt lat="45.029024396914515" lon="6.823879613576133"><ele>1254.0</ele><time>2026-05-01T09:09:39.703Z</time></trkpt><trkpt lat="45.02887519336122" lon="6.824018817367166"><ele>1260.0</ele><time>2026-05-01T09:09:40.701Z</time></trkpt><trkpt lat="45.02872616334949" lon="6.824159158761204"><ele>1266.0</ele><time>2026-05-01T09:09:41.701Z</time></trkpt><trkpt lat="45.028568606210854" lon="6.824281741964605"><ele>1272.0</ele><time>2026-05-01T09:09:42.701Z</time></trkpt><trkpt lat="45.028420492349355" lon="6.824426668361044"><ele>1262.6666666666667</ele><time>2026-05-01T09:09:43.706Z</time></trkpt><trkpt lat="45.02828376348952" lon="6.824590461692446"><ele>1253.3333333333335</ele><time>2026-05-01T09:09:44.703Z</time></trkpt><trkpt lat="45.02812828981526" lon="6.824719169404393"><ele>1244.0</ele><time>2026-05-01T09:09:45.704Z</time></trkpt><trkpt lat="45.027993600302494" lon="6.824887770450752"><ele>1244.0</ele><time>2026-05-01T09:09:46.704Z</time></trkpt><trkpt lat="45.02784026498779" lon="6.8250213870185785"><ele>1244.0</ele><time>2026-05-01T09:09:47.706Z</time></trkpt><trkpt lat="45.02769838264051" lon="6.825176460885078"><ele>1244.0</ele><time>2026-05-01T09:09:48.706Z</time></trkpt><trkpt lat="45.027557313350066" lon="6.82533236527171"><ele>1224.0</ele><time>2026-05-01T09:09:49.706Z</time></trkpt><trkpt lat="45.0274274344407" lon="6.825508556116826"><ele>1204.0</ele><time>2026-05-01T09:09:50.706Z</time></trkpt><trkpt lat="45.02728875138089" lon="6.825667977435886"><ele>1184.0</ele><time>2026-05-01T09:09:51.705Z</time></trkpt><trkpt lat="45.02715138178369" lon="6.825830514576984"><ele>1184.0</ele><time>2026-05-01T09:09:52.706Z</time></trkpt><trkpt lat="45.02700356800542" lon="6.825974770239806"><ele>1184.0</ele><time>2026-05-01T09:09:53.704Z</time></trkpt><trkpt lat="45.0269505" lon="6.8260682"><ele>1184.0</ele><time>2026-05-01T09:09:54.702Z</time></trkpt><trkpt lat="45.02457923599263" lon="6.829240432834683"><ele>1156.6666666666667</ele><time>2026-05-01T09:10:04.999Z</time></trkpt><trkpt lat="45.024415566632435" lon="6.829291451679725"><ele>1129.3333333333333</ele><time>2026-05-01T09:10:05.999Z</time></trkpt><trkpt lat="45.024241566180095" lon="6.82949677033779"><ele>1102.0</ele><time>2026-05-01T09:10:06.999Z</time></trkpt><trkpt lat="45.024067960161844" lon="6.829654972950908"><ele>1101.0</ele><time>2026-05-01T09:10:07.999Z</time></trkpt><trkpt lat="45.02392280071779" lon="6.829789258996145"><ele>1100.0</ele><time>2026-05-01T09:10:08.999Z</time></trkpt><trkpt lat="45.02379873441797" lon="6.829905366991153"><ele>1099.0</ele><time>2026-05-01T09:10:10Z</time></trkpt><trkpt lat="45.02363252577674" lon="6.830055599802028"><ele>1099.0</ele><time>2026-05-01T09:10:11Z</time></trkpt><trkpt lat="45.023488438058806" lon="6.830162330111359"><ele>1099.0</ele><time>2026-05-01T09:10:12Z</time></trkpt><trkpt lat="45.02330964107929" lon="6.83023785241885"><ele>1099.0</ele><time>2026-05-01T09:10:13Z</time></trkpt><trkpt lat="45.023158360371845" lon="6.830299928427044"><ele>1099.3333333333333</ele><time>2026-05-01T09:10:14Z</time></trkpt><trkpt lat="45.022978437485335" lon="6.830396435198006"><ele>1099.6666666666667</ele><time>2026-05-01T09:10:15Z</time></trkpt><trkpt lat="45.02279623677396" lon="6.830479041193828"><ele>1100.0</ele><time>2026-05-01T09:10:16Z</time></trkpt><trkpt lat="45.02263105491882" lon="6.830545436448206"><ele>1101.75</ele><time>2026-05-01T09:10:17Z</time></trkpt><trkpt lat="45.02247115973019" lon="6.83060360047112"><ele>1103.5</ele><time>2026-05-01T09:10:18Z</time></trkpt><trkpt lat="45.02231937351603" lon="6.830652775914829"><ele>1105.25</ele><time>2026-05-01T09:10:19Z</time></trkpt><trkpt lat="45.022193229781415" lon="6.830688885624602"><ele>1107.0</ele><time>2026-05-01T09:10:20Z</time></trkpt><trkpt lat="45.02205905115731" lon="6.8306930556442556"><ele>1107.0</ele><time>2026-05-01T09:10:21Z</time></trkpt><trkpt lat="45.02191728884878" lon="6.830731886904012"><ele>1107.0</ele><time>2026-05-01T09:10:22Z</time></trkpt><trkpt lat="45.02176957165098" lon="6.8307771529160775"><ele>1107.0</ele><time>2026-05-01T09:10:23Z</time></trkpt><trkpt lat="45.02160193392022" lon="6.830831685351347"><ele>1107.3333333333333</ele><time>2026-05-01T09:10:24Z</time></trkpt><trkpt lat="45.02143185669214" lon="6.830896612725518"><ele>1107.6666666666665</ele><time>2026-05-01T09:10:25Z</time></trkpt><trkpt lat="45.02124399110179" lon="6.831009737034066"><ele>1108.0</ele><time>2026-05-01T09:10:26Z</time></trkpt><trkpt lat="45.02103254471958" lon="6.831063856271255"><ele>1114.0</ele><time>2026-05-01T09:10:27Z</time></trkpt><trkpt lat="45.02082149618494" lon="6.831155305425466"><ele>1120.0</ele><time>2026-05-01T09:10:28Z</time></trkpt><trkpt lat="45.02059487966637" lon="6.8312574288883825"><ele>1120.0</ele><time>2026-05-01T09:10:29Z</time></trkpt><trkpt lat="45.020358296493974" lon="6.831347986267243"><ele>1120.0</ele><time>2026-05-01T09:10:30Z</time></trkpt><trkpt lat="45.02005927289307" lon="6.831438631063706"><ele>1114.5</ele><time>2026-05-01T09:10:31Z</time></trkpt><trkpt lat="45.01981786150329" lon="6.831527815893443"><ele>1109.0</ele><time>2026-05-01T09:10:32Z</time></trkpt><trkpt lat="45.019564173293155" lon="6.8316116950887915"><ele>1109.0</ele><time>2026-05-01T09:10:33Z</time></trkpt><trkpt lat="45.01933571405146" lon="6.831671810023041"><ele>1109.0</ele><time>2026-05-01T09:10:34Z</time></trkpt><trkpt lat="45.0190785318117" lon="6.83171434289397"><ele>1109.5</ele><time>2026-05-01T09:10:35Z</time></trkpt><trkpt lat="45.018838947376466" lon="6.831802097511123"><ele>1110.0</ele><time>2026-05-01T09:10:36Z</time></trkpt><trkpt lat="45.018624754483284" lon="6.831788184864997"><ele>1110.0</ele><time>2026-05-01T09:10:37Z</time></trkpt><trkpt lat="45.01843562266564" lon="6.831729285597097"><ele>1110.0</ele><time>2026-05-01T09:10:38Z</time></trkpt><trkpt lat="45.01824433140353" lon="6.831683727559683"><ele>1110.0</ele><time>2026-05-01T09:10:39Z</time></trkpt><trkpt lat="45.018048903562125" lon="6.831636248486033"><ele>1112.6666666666667</ele><time>2026-05-01T09:10:40Z</time></trkpt><trkpt lat="45.01789818381108" lon="6.831597913186163"><ele>1115.3333333333335</ele><time>2026-05-01T09:10:41Z</time></trkpt><trkpt lat="45.017699238305944" lon="6.831511154864971"><ele>1118.0</ele><time>2026-05-01T09:10:42Z</time></trkpt><trkpt lat="45.01749317939067" lon="6.831384783639412"><ele>1121.0</ele><time>2026-05-01T09:10:43Z</time></trkpt><trkpt lat="45.01725415540268" lon="6.831251391177962"><ele>1124.0</ele><time>2026-05-01T09:10:44Z</time></trkpt><trkpt lat="45.01701308556724" lon="6.831113849453961"><ele>1124.0</ele><time>2026-05-01T09:10:45Z</time></trkpt><trkpt lat="45.016776029738104" lon="6.830978597792072"><ele>1124.0</ele><time>2026-05-01T09:10:46Z</time></trkpt><trkpt lat="45.01655349651796" lon="6.8308516337342535"><ele>1126.0</ele><time>2026-05-01T09:10:47Z</time></trkpt><trkpt lat="45.016347443944724" lon="6.8307352669898"><ele>1128.0</ele><time>2026-05-01T09:10:48Z</time></trkpt><trkpt lat="45.01615528726199" lon="6.83062884682098"><ele>1130.0</ele><time>2026-05-01T09:10:49Z</time></trkpt><trkpt lat="45.015990581501015" lon="6.830524227720116"><ele>1130.0</ele><time>2026-05-01T09:10:50Z</time></trkpt><trkpt lat="45.01584286130736" lon="6.830424016262449"><ele>1130.0</ele><time>2026-05-01T09:10:51Z</time></trkpt><trkpt lat="45.015670117963275" lon="6.830323805588716"><ele>1130.0</ele><time>2026-05-01T09:10:52Z</time></trkpt><trkpt lat="45.015493048159286" lon="6.83017008927119"><ele>1127.5</ele><time>2026-05-01T09:10:53Z</time></trkpt><trkpt lat="45.01530041917461" lon="6.830001880148641"><ele>1125.0</ele><time>2026-05-01T09:10:54Z</time></trkpt><trkpt lat="45.01508546297208" lon="6.829804525248733"><ele>1139.0</ele><time>2026-05-01T09:10:55Z</time></trkpt><trkpt lat="45.01485711050729" lon="6.829603455303641"><ele>1153.0</ele><time>2026-05-01T09:10:56Z</time></trkpt><trkpt lat="45.01463359780954" lon="6.829378469653662"><ele>1141.0</ele><time>2026-05-01T09:10:57Z</time></trkpt><trkpt lat="45.014408033588154" lon="6.829168828514856"><ele>1129.0</ele><time>2026-05-01T09:10:58Z</time></trkpt><trkpt lat="45.01417772936767" lon="6.82895984656262"><ele>1143.0</ele><time>2026-05-01T09:10:59Z</time></trkpt><trkpt lat="45.013953018051886" lon="6.828755787434169"><ele>1157.0</ele><time>2026-05-01T09:11:00Z</time></trkpt><trkpt lat="45.013715915372146" lon="6.828567958037085"><ele>1151.0</ele><time>2026-05-01T09:11:01Z</time></trkpt><trkpt lat="45.01342620076067" lon="6.828384441386478"><ele>1145.0</ele><time>2026-05-01T09:11:02Z</time></trkpt><trkpt lat="45.013171593409105" lon="6.82820064055381"><ele>1145.0</ele><time>2026-05-01T09:11:03Z</time></trkpt><trkpt lat="45.012915757377215" lon="6.828021737350452"><ele>1145.0</ele><time>2026-05-01T09:11:04Z</time></trkpt><trkpt lat="45.012662251933484" lon="6.827856156807165"><ele>1150.5</ele><time>2026-05-01T09:11:05Z</time></trkpt><trkpt lat="45.01241319245983" lon="6.827677797285064"><ele>1156.0</ele><time>2026-05-01T09:11:06Z</time></trkpt><trkpt lat="45.012171363314614" lon="6.827505523213038"><ele>1156.0</ele><time>2026-05-01T09:11:07Z</time></trkpt><trkpt lat="45.01193023210284" lon="6.827338670077749"><ele>1156.0</ele><time>2026-05-01T09:11:08Z</time></trkpt><trkpt lat="45.01168953035896" lon="6.827176273726049"><ele>1168.0</ele><time>2026-05-01T09:11:09Z</time></trkpt><trkpt lat="45.0114549596348" lon="6.827033683081871"><ele>1180.0</ele><time>2026-05-01T09:11:10Z</time></trkpt><trkpt lat="45.01124487771058" lon="6.826881534254212"><ele>1180.0</ele><time>2026-05-01T09:11:11Z</time></trkpt><trkpt lat="45.011063270532965" lon="6.826719604849648"><ele>1180.0</ele><time>2026-05-01T09:11:12Z</time></trkpt><trkpt lat="45.010909629860066" lon="6.8265204100719235"><ele>1180.0</ele><time>2026-05-01T09:11:13Z</time></trkpt><trkpt lat="45.01072007977811" lon="6.826317585321398"><ele>1180.0</ele><time>2026-05-01T09:11:14Z</time></trkpt><trkpt lat="45.01053342202448" lon="6.826142936431165"><ele>1180.0</ele><time>2026-05-01T09:11:15Z</time></trkpt><trkpt lat="45.01034663228504" lon="6.8259762039402965"><ele>1180.0</ele><time>2026-05-01T09:11:16Z</time></trkpt><trkpt lat="45.0101498292831" lon="6.825842147476703"><ele>1168.0</ele><time>2026-05-01T09:11:17Z</time></trkpt><trkpt lat="45.00990171687441" lon="6.825776179913549"><ele>1156.0</ele><time>2026-05-01T09:11:18Z</time></trkpt><trkpt lat="45.00971735402641" lon="6.825653246038859"><ele>1156.0</ele><time>2026-05-01T09:11:19Z</time></trkpt><trkpt lat="45.00953169553603" lon="6.825485143242381"><ele>1156.0</ele><time>2026-05-01T09:11:20Z</time></trkpt><trkpt lat="45.009353822346995" lon="6.825277383039446"><ele>1160.5</ele><time>2026-05-01T09:11:21Z</time></trkpt><trkpt lat="45.0091762092276" lon="6.8250570683481655"><ele>1165.0</ele><time>2026-05-01T09:11:22Z</time></trkpt><trkpt lat="45.009007044192394" lon="6.824852605546234"><ele>1165.0</ele><time>2026-05-01T09:11:22.999Z</time></trkpt><trkpt lat="45.008839293581104" lon="6.82466656384259"><ele>1165.0</ele><time>2026-05-01T09:11:23.999Z</time></trkpt><trkpt lat="45.00868166751491" lon="6.824492438008157"><ele>1165.0</ele><time>2026-05-01T09:11:24.999Z</time></trkpt><trkpt lat="45.00855323854855" lon="6.8243459543425065"><ele>1163.0</ele><time>2026-05-01T09:11:25.999Z</time></trkpt><trkpt lat="45.00840953119397" lon="6.824265215651795"><ele>1161.0</ele><time>2026-05-01T09:11:26.999Z</time></trkpt><trkpt lat="45.00824146854726" lon="6.824223755900044"><ele>1159.0</ele><time>2026-05-01T09:11:27.999Z</time></trkpt><trkpt lat="45.008033910811044" lon="6.824256585716897"><ele>1159.0</ele><time>2026-05-01T09:11:28.999Z</time></trkpt><trkpt lat="45.00785716514045" lon="6.824231856931589"><ele>1159.0</ele><time>2026-05-01T09:11:29.999Z</time></trkpt><trkpt lat="45.007681560758236" lon="6.824203234312652"><ele>1159.0</ele><time>2026-05-01T09:11:30.999Z</time></trkpt><trkpt lat="45.007494341357386" lon="6.824172202684261"><ele>1168.6666666666665</ele><time>2026-05-01T09:11:31.999Z</time></trkpt><trkpt lat="45.00731413488106" lon="6.824127524283554"><ele>1178.3333333333333</ele><time>2026-05-01T09:11:32.999Z</time></trkpt><trkpt lat="45.00716444978717" lon="6.824071047980905"><ele>1188.0</ele><time>2026-05-01T09:11:33.999Z</time></trkpt><trkpt lat="45.00706154066582" lon="6.823903035425827"><ele>1188.0</ele><time>2026-05-01T09:11:34.999Z</time></trkpt><trkpt lat="45.00691438178046" lon="6.82376830668349"><ele>1188.0</ele><time>2026-05-01T09:11:35.999Z</time></trkpt><trkpt lat="45.00677074620732" lon="6.82362883403956"><ele>1188.0</ele><time>2026-05-01T09:11:36.999Z</time></trkpt><trkpt lat="45.00665766236112" lon="6.823475531681446"><ele>1191.6666666666667</ele><time>2026-05-01T09:11:37.999Z</time></trkpt><trkpt lat="45.00650932151135" lon="6.823277443343488"><ele>1195.3333333333335</ele><time>2026-05-01T09:11:38.999Z</time></trkpt><trkpt lat="45.00635635101822" lon="6.823093028077636"><ele>1199.0</ele><time>2026-05-01T09:11:39.999Z</time></trkpt><trkpt lat="45.006220493406325" lon="6.822910784443249"><ele>1199.0</ele><time>2026-05-01T09:11:40.999Z</time></trkpt><trkpt lat="45.006095856125405" lon="6.822776615964352"><ele>1199.0</ele><time>2026-05-01T09:11:41.999Z</time></trkpt><trkpt lat="45.005987130766265" lon="6.822628513027652"><ele>1199.0</ele><time>2026-05-01T09:11:42.999Z</time></trkpt><trkpt lat="45.00588517155465" lon="6.822484984924771"><ele>1201.0</ele><time>2026-05-01T09:11:43.999Z</time></trkpt><trkpt lat="45.005786411232826" lon="6.8223539337471655"><ele>1203.0</ele><time>2026-05-01T09:11:44.999Z</time></trkpt><trkpt lat="45.00567296047766" lon="6.822206324629551"><ele>1205.0</ele><time>2026-05-01T09:11:45.999Z</time></trkpt><trkpt lat="45.00555886095845" lon="6.822075359567629"><ele>1207.0</ele><time>2026-05-01T09:11:46.999Z</time></trkpt><trkpt lat="45.00543779156983" lon="6.821934117663267"><ele>1202.3333333333333</ele><time>2026-05-01T09:11:47.999Z</time></trkpt><trkpt lat="45.00532110868178" lon="6.821792595430814"><ele>1197.6666666666667</ele><time>2026-05-01T09:11:48.999Z</time></trkpt><trkpt lat="45.005200410266575" lon="6.821647466120452"><ele>1193.0</ele><time>2026-05-01T09:11:50.014Z</time></trkpt><trkpt lat="45.00507090797387" lon="6.821504411925894"><ele>1197.75</ele><time>2026-05-01T09:11:51.013Z</time></trkpt><trkpt lat="45.00494499018802" lon="6.8213686758242185"><ele>1202.5</ele><time>2026-05-01T09:11:52.013Z</time></trkpt><trkpt lat="45.00482737218933" lon="6.821241182257272"><ele>1207.25</ele><time>2026-05-01T09:11:53.014Z</time></trkpt><trkpt lat="45.00473816352138" lon="6.821108132973029"><ele>1212.0</ele><time>2026-05-01T09:11:53.999Z</time></trkpt><trkpt lat="45.004713589721" lon="6.820801271643441"><ele>1212.0</ele><time>2026-05-01T09:11:54.999Z</time></trkpt><trkpt lat="45.004731324691086" lon="6.8205331623876075"><ele>1212.0</ele><time>2026-05-01T09:11:55.999Z</time></trkpt><trkpt lat="45.00466962954416" lon="6.820318096795881"><ele>1212.0</ele><time>2026-05-01T09:11:56.999Z</time></trkpt><trkpt lat="45.00461958044183" lon="6.82008761639046"><ele>1208.6666666666667</ele><time>2026-05-01T09:11:57.999Z</time></trkpt><trkpt lat="45.00457552665896" lon="6.8198152488580375"><ele>1205.3333333333335</ele><time>2026-05-01T09:11:58.999Z</time></trkpt><trkpt lat="45.00453421277219" lon="6.819525903386478"><ele>1202.0</ele><time>2026-05-01T09:11:59.999Z</time></trkpt><trkpt lat="45.00449150169008" lon="6.819298648111882"><ele>1199.6666666666667</ele><time>2026-05-01T09:12:00.999Z</time></trkpt><trkpt lat="45.004420139506706" lon="6.819055815857782"><ele>1197.3333333333333</ele><time>2026-05-01T09:12:01.999Z</time></trkpt><trkpt lat="45.00432292128209" lon="6.818827246269084"><ele>1195.0</ele><time>2026-05-01T09:12:02.999Z</time></trkpt><trkpt lat="45.00420613982093" lon="6.818638878995529"><ele>1202.6666666666665</ele><time>2026-05-01T09:12:03.999Z</time></trkpt><trkpt lat="45.004083886835296" lon="6.818458133550445"><ele>1210.3333333333333</ele><time>2026-05-01T09:12:04.999Z</time></trkpt><trkpt lat="45.00399895211567" lon="6.8182484830367525"><ele>1218.0</ele><time>2026-05-01T09:12:05.999Z</time></trkpt><trkpt lat="45.003896580598585" lon="6.818039368063017"><ele>1218.0</ele><time>2026-05-01T09:12:06.999Z</time></trkpt><trkpt lat="45.00378114556345" lon="6.8178302927024035"><ele>1218.0</ele><time>2026-05-01T09:12:07.999Z</time></trkpt><trkpt lat="45.00368374003389" lon="6.817649576132599"><ele>1218.0</ele><time>2026-05-01T09:12:08.999Z</time></trkpt><trkpt lat="45.00358472453261" lon="6.817456295133831"><ele>1215.0</ele><time>2026-05-01T09:12:09.999Z</time></trkpt><trkpt lat="45.003511350678124" lon="6.81726928751234"><ele>1212.0</ele><time>2026-05-01T09:12:10.999Z</time></trkpt><trkpt lat="45.00342212686996" lon="6.817082395261121"><ele>1209.0</ele><time>2026-05-01T09:12:11.999Z</time></trkpt><trkpt lat="45.003332049644186" lon="6.816891236558491"><ele>1216.6666666666667</ele><time>2026-05-01T09:12:12.999Z</time></trkpt><trkpt lat="45.00324268400477" lon="6.816700750563669"><ele>1224.3333333333335</ele><time>2026-05-01T09:12:13.999Z</time></trkpt><trkpt lat="45.00314911777107" lon="6.816512337245921"><ele>1232.0</ele><time>2026-05-01T09:12:14.999Z</time></trkpt><trkpt lat="45.00304947842453" lon="6.816325158372676"><ele>1232.0</ele><time>2026-05-01T09:12:16Z</time></trkpt><trkpt lat="45.00295187067457" lon="6.816135738818646"><ele>1232.0</ele><time>2026-05-01T09:12:17Z</time></trkpt><trkpt lat="45.00296670928296" lon="6.815922598256167"><ele>1232.0</ele><time>2026-05-01T09:12:18.018Z</time></trkpt><trkpt lat="45.00256473668385" lon="6.815624618909149"><ele>1237.5</ele><time>2026-05-01T09:12:21Z</time></trkpt><trkpt lat="45.002430426787605" lon="6.815214348830957"><ele>1243.0</ele><time>2026-05-01T09:12:22Z</time></trkpt><trkpt lat="45.00232571910545" lon="6.814996184576852"><ele>1243.0</ele><time>2026-05-01T09:12:23Z</time></trkpt><trkpt lat="45.00222673421699" lon="6.814764506524206"><ele>1243.0</ele><time>2026-05-01T09:12:24Z</time></trkpt><trkpt lat="45.00216942617383" lon="6.8146766892493185"><ele>1243.0</ele><time>2026-05-01T09:12:25Z</time></trkpt><trkpt lat="45.002092863365135" lon="6.8144798117761685"><ele>1243.0</ele><time>2026-05-01T09:12:26Z</time></trkpt><trkpt lat="45.00203963463204" lon="6.8143167728966105"><ele>1239.3333333333333</ele><time>2026-05-01T09:12:27Z</time></trkpt><trkpt lat="45.0019582799207" lon="6.814113716711804"><ele>1235.6666666666667</ele><time>2026-05-01T09:12:28Z</time></trkpt><trkpt lat="45.001898898088385" lon="6.813889064097495"><ele>1232.0</ele><time>2026-05-01T09:12:29Z</time></trkpt><trkpt lat="45.001819327218854" lon="6.813687863540257"><ele>1232.0</ele><time>2026-05-01T09:12:30Z</time></trkpt><trkpt lat="45.00174316183321" lon="6.813496606751053"><ele>1232.0</ele><time>2026-05-01T09:12:31Z</time></trkpt><trkpt lat="45.001676489143804" lon="6.813326749778329"><ele>1232.0</ele><time>2026-05-01T09:12:32Z</time></trkpt><trkpt lat="45.001572177485464" lon="6.813245861728107"><ele>1232.0</ele><time>2026-05-01T09:12:33Z</time></trkpt><trkpt lat="45.00140611292382" lon="6.8130771436819755"><ele>1235.0</ele><time>2026-05-01T09:12:34Z</time></trkpt><trkpt lat="45.001261184571575" lon="6.812920450624247"><ele>1238.0</ele><time>2026-05-01T09:12:35Z</time></trkpt><trkpt lat="45.00114112565123" lon="6.8127870853144294"><ele>1241.0</ele><time>2026-05-01T09:12:36Z</time></trkpt><trkpt lat="45.0009285720824" lon="6.812756834296754"><ele>1237.6666666666667</ele><time>2026-05-01T09:12:37Z</time></trkpt><trkpt lat="45.000776642722464" lon="6.812634183273899"><ele>1234.3333333333333</ele><time>2026-05-01T09:12:38Z</time></trkpt><trkpt lat="45.000616336953016" lon="6.81254039901607"><ele>1231.0</ele><time>2026-05-01T09:12:39Z</time></trkpt><trkpt lat="45.000460989189605" lon="6.8124383082079865"><ele>1231.0</ele><time>2026-05-01T09:12:40Z</time></trkpt><trkpt lat="45.00031189727869" lon="6.812339500146667"><ele>1231.0</ele><time>2026-05-01T09:12:41Z</time></trkpt><trkpt lat="45.00014665728289" lon="6.812273989591899"><ele>1231.0</ele><time>2026-05-01T09:12:42Z</time></trkpt><trkpt lat="44.9999922686722" lon="6.812196275839564"><ele>1231.0</ele><time>2026-05-01T09:12:43Z</time></trkpt><trkpt lat="44.99984816554889" lon="6.812114932740743"><ele>1231.0</ele><time>2026-05-01T09:12:44Z</time></trkpt><trkpt lat="44.999678836191876" lon="6.812024323491213"><ele>1231.0</ele><time>2026-05-01T09:12:45Z</time></trkpt><trkpt lat="44.999498689663675" lon="6.811927315617801"><ele>1231.0</ele><time>2026-05-01T09:12:46Z</time></trkpt><trkpt lat="44.99930354271327" lon="6.811866686647498"><ele>1231.0</ele><time>2026-05-01T09:12:47Z</time></trkpt><trkpt lat="44.99911901542782" lon="6.8118086351710785"><ele>1231.0</ele><time>2026-05-01T09:12:48Z</time></trkpt><trkpt lat="44.99894402640608" lon="6.811744570706915"><ele>1225.6666666666665</ele><time>2026-05-01T09:12:49Z</time></trkpt><trkpt lat="44.998753698851694" lon="6.811712219313635"><ele>1220.3333333333333</ele><time>2026-05-01T09:12:50Z</time></trkpt><trkpt lat="44.9985863822124" lon="6.811636267071511"><ele>1215.0</ele><time>2026-05-01T09:12:51Z</time></trkpt><trkpt lat="44.99845762480189" lon="6.811528035709165"><ele>1223.0</ele><time>2026-05-01T09:12:52Z</time></trkpt><trkpt lat="44.9982983445013" lon="6.811395421935832"><ele>1231.0</ele><time>2026-05-01T09:12:53Z</time></trkpt><trkpt lat="44.99815453969169" lon="6.811286374492307"><ele>1239.0</ele><time>2026-05-01T09:12:54Z</time></trkpt><trkpt lat="44.998010733774684" lon="6.811160780872059"><ele>1239.0</ele><time>2026-05-01T09:12:55Z</time></trkpt><trkpt lat="44.99787989736611" lon="6.810991399376872"><ele>1239.0</ele><time>2026-05-01T09:12:56Z</time></trkpt><trkpt lat="44.99773291876972" lon="6.810833750350739"><ele>1239.0</ele><time>2026-05-01T09:12:57Z</time></trkpt><trkpt lat="44.99759674935576" lon="6.810673795864061"><ele>1243.0</ele><time>2026-05-01T09:12:58Z</time></trkpt><trkpt lat="44.99745427842673" lon="6.810523217336816"><ele>1247.0</ele><time>2026-05-01T09:12:59Z</time></trkpt><trkpt lat="44.997321236485774" lon="6.810363530672489"><ele>1251.0</ele><time>2026-05-01T09:13:00Z</time></trkpt><trkpt lat="44.997183947870866" lon="6.810203231233093"><ele>1242.0</ele><time>2026-05-01T09:13:01Z</time></trkpt><trkpt lat="44.99705094314039" lon="6.810037347923152"><ele>1233.0</ele><time>2026-05-01T09:13:02Z</time></trkpt><trkpt lat="44.99691617653697" lon="6.8098773989137085"><ele>1224.0</ele><time>2026-05-01T09:13:03Z</time></trkpt><trkpt lat="44.99677681087569" lon="6.8097444782620595"><ele>1228.0</ele><time>2026-05-01T09:13:04Z</time></trkpt><trkpt lat="44.99663309277488" lon="6.809599285607282"><ele>1232.0</ele><time>2026-05-01T09:13:05Z</time></trkpt><trkpt lat="44.99649412915367" lon="6.8094119595455505"><ele>1236.0</ele><time>2026-05-01T09:13:06Z</time></trkpt><trkpt lat="44.99636424594814" lon="6.809247605374212"><ele>1236.0</ele><time>2026-05-01T09:13:07Z</time></trkpt><trkpt lat="44.99621363917781" lon="6.809083677559097"><ele>1236.0</ele><time>2026-05-01T09:13:08Z</time></trkpt><trkpt lat="44.99606313299727" lon="6.808908068150895"><ele>1236.0</ele><time>2026-05-01T09:13:09Z</time></trkpt><trkpt lat="44.99590107913471" lon="6.808741088222806"><ele>1232.3333333333333</ele><time>2026-05-01T09:13:10Z</time></trkpt><trkpt lat="44.99566895418418" lon="6.8086523506099885"><ele>1228.6666666666665</ele><time>2026-05-01T09:13:11Z</time></trkpt><trkpt lat="44.99550202645057" lon="6.80852836545843"><ele>1225.0</ele><time>2026-05-01T09:13:12Z</time></trkpt><trkpt lat="44.99533174526094" lon="6.808421545634295"><ele>1225.0</ele><time>2026-05-01T09:13:13Z</time></trkpt><trkpt lat="44.99516524450098" lon="6.808316867978008"><ele>1225.0</ele><time>2026-05-01T09:13:14Z</time></trkpt><trkpt lat="44.995006029090945" lon="6.808195760260575"><ele>1225.0</ele><time>2026-05-01T09:13:15Z</time></trkpt><trkpt lat="44.994852062078536" lon="6.8080942950509105"><ele>1232.0</ele><time>2026-05-01T09:13:16Z</time></trkpt><trkpt lat="44.99468724156661" lon="6.808001848452482"><ele>1239.0</ele><time>2026-05-01T09:13:17Z</time></trkpt><trkpt lat="44.994503586361446" lon="6.807912138833667"><ele>1246.0</ele><time>2026-05-01T09:13:18Z</time></trkpt><trkpt lat="44.99434608162324" lon="6.807790448620961"><ele>1246.0</ele><time>2026-05-01T09:13:19Z</time></trkpt><trkpt lat="44.99418266027776" lon="6.80770083212802"><ele>1246.0</ele><time>2026-05-01T09:13:20Z</time></trkpt><trkpt lat="44.99402504002714" lon="6.807624059840871"><ele>1246.0</ele><time>2026-05-01T09:13:21Z</time></trkpt><trkpt lat="44.993877223054064" lon="6.807546478544164"><ele>1240.6666666666665</ele><time>2026-05-01T09:13:22Z</time></trkpt><trkpt lat="44.993700166907516" lon="6.8074903292189575"><ele>1235.3333333333333</ele><time>2026-05-01T09:13:23Z</time></trkpt><trkpt lat="44.99350802094066" lon="6.807448973678888"><ele>1230.0</ele><time>2026-05-01T09:13:24Z</time></trkpt><trkpt lat="44.993338757322974" lon="6.807483287194381"><ele>1230.0</ele><time>2026-05-01T09:13:24.999Z</time></trkpt><trkpt lat="44.993087400351406" lon="6.807533549306631"><ele>1230.0</ele><time>2026-05-01T09:13:25.999Z</time></trkpt><trkpt lat="44.992820415756036" lon="6.807612540972206"><ele>1230.0</ele><time>2026-05-01T09:13:26.999Z</time></trkpt><trkpt lat="44.99258831734267" lon="6.807629607919218"><ele>1230.0</ele><time>2026-05-01T09:13:27.999Z</time></trkpt><trkpt lat="44.99236127722011" lon="6.807637917767527"><ele>1229.5</ele><time>2026-05-01T09:13:28.999Z</time></trkpt><trkpt lat="44.99212574364342" lon="6.807650482351573"><ele>1229.0</ele><time>2026-05-01T09:13:29.999Z</time></trkpt><trkpt lat="44.991907139249705" lon="6.807656881179013"><ele>1238.6666666666667</ele><time>2026-05-01T09:13:30.999Z</time></trkpt><trkpt lat="44.991719145312295" lon="6.807695353265049"><ele>1248.3333333333333</ele><time>2026-05-01T09:13:31.999Z</time></trkpt><trkpt lat="44.991575176961646" lon="6.8077495753501465"><ele>1258.0</ele><time>2026-05-01T09:13:32.999Z</time></trkpt><trkpt lat="44.99141494783428" lon="6.807844553208629"><ele>1258.0</ele><time>2026-05-01T09:13:33.999Z</time></trkpt><trkpt lat="44.991277883987735" lon="6.807988422849277"><ele>1258.0</ele><time>2026-05-01T09:13:34.999Z</time></trkpt><trkpt lat="44.99111393095475" lon="6.808162314578003"><ele>1258.0</ele><time>2026-05-01T09:13:35.999Z</time></trkpt><trkpt lat="44.990973469277456" lon="6.808290346806316"><ele>1252.0</ele><time>2026-05-01T09:13:36.999Z</time></trkpt><trkpt lat="44.99083435464943" lon="6.808375545308209"><ele>1246.0</ele><time>2026-05-01T09:13:37.999Z</time></trkpt><trkpt lat="44.990668592925054" lon="6.80844794106218"><ele>1240.0</ele><time>2026-05-01T09:13:38.999Z</time></trkpt><trkpt lat="44.990514693148576" lon="6.808491422091414"><ele>1241.0</ele><time>2026-05-01T09:13:39.999Z</time></trkpt><trkpt lat="44.990365025711085" lon="6.808511270163885"><ele>1242.0</ele><time>2026-05-01T09:13:40.999Z</time></trkpt><trkpt lat="44.99018807895425" lon="6.808512352328171"><ele>1243.0</ele><time>2026-05-01T09:13:41.999Z</time></trkpt><trkpt lat="44.99000076378719" lon="6.808484369871784"><ele>1243.0</ele><time>2026-05-01T09:13:42.999Z</time></trkpt><trkpt lat="44.98980698350773" lon="6.808437692292611"><ele>1243.0</ele><time>2026-05-01T09:13:43.999Z</time></trkpt><trkpt lat="44.989569354871186" lon="6.8083782051632875"><ele>1243.0</ele><time>2026-05-01T09:13:44.999Z</time></trkpt><trkpt lat="44.98936049583689" lon="6.808323349873823"><ele>1248.0</ele><time>2026-05-01T09:13:45.999Z</time></trkpt><trkpt lat="44.98912234731362" lon="6.808260801958422"><ele>1253.0</ele><time>2026-05-01T09:13:46.999Z</time></trkpt><trkpt lat="44.98888396440925" lon="6.808198192447141"><ele>1253.0</ele><time>2026-05-01T09:13:47.999Z</time></trkpt><trkpt lat="44.98861268637802" lon="6.808126943295769"><ele>1253.0</ele><time>2026-05-01T09:13:48.999Z</time></trkpt><trkpt lat="44.98835362646317" lon="6.808062493726381"><ele>1256.6666666666667</ele><time>2026-05-01T09:13:49.999Z</time></trkpt><trkpt lat="44.988120877711246" lon="6.808004935830011"><ele>1260.3333333333333</ele><time>2026-05-01T09:13:50.999Z</time></trkpt><trkpt lat="44.98791583546989" lon="6.807953802345486"><ele>1264.0</ele><time>2026-05-01T09:13:51.999Z</time></trkpt><trkpt lat="44.98772586442066" lon="6.807906417394779"><ele>1265.5</ele><time>2026-05-01T09:13:52.999Z</time></trkpt><trkpt lat="44.98749308664401" lon="6.8078483550953"><ele>1267.0</ele><time>2026-05-01T09:13:53.999Z</time></trkpt><trkpt lat="44.987282811516344" lon="6.8077952782051065"><ele>1267.0</ele><time>2026-05-01T09:13:54.999Z</time></trkpt><trkpt lat="44.98709437217809" lon="6.807747353849603"><ele>1267.0</ele><time>2026-05-01T09:13:55.999Z</time></trkpt><trkpt lat="44.98690046360127" lon="6.807695787916326"><ele>1267.0</ele><time>2026-05-01T09:13:56.999Z</time></trkpt><trkpt lat="44.98671554960243" lon="6.807642226139269"><ele>1259.3333333333333</ele><time>2026-05-01T09:13:57.999Z</time></trkpt><trkpt lat="44.98652957927757" lon="6.807563156784489"><ele>1251.6666666666667</ele><time>2026-05-01T09:13:58.999Z</time></trkpt><trkpt lat="44.98634289539158" lon="6.807470599280929"><ele>1244.0</ele><time>2026-05-01T09:13:59.999Z</time></trkpt><trkpt lat="44.98615900337178" lon="6.807379425884196"><ele>1244.0</ele><time>2026-05-01T09:14:00.999Z</time></trkpt><trkpt lat="44.98597313875446" lon="6.807287274570997"><ele>1244.0</ele><time>2026-05-01T09:14:01.999Z</time></trkpt><trkpt lat="44.98579971865303" lon="6.807203892247897"><ele>1244.0</ele><time>2026-05-01T09:14:02.999Z</time></trkpt><trkpt lat="44.98562787255312" lon="6.807135844587869"><ele>1245.75</ele><time>2026-05-01T09:14:03.999Z</time></trkpt><trkpt lat="44.98545807525047" lon="6.807078849735896"><ele>1247.5</ele><time>2026-05-01T09:14:04.999Z</time></trkpt><trkpt lat="44.98534204535713" lon="6.807043426459688"><ele>1249.25</ele><time>2026-05-01T09:14:05.999Z</time></trkpt><trkpt lat="44.98520258213548" lon="6.807003725891536"><ele>1251.0</ele><time>2026-05-01T09:14:06.999Z</time></trkpt><trkpt lat="44.98505217671526" lon="6.8069642492030376"><ele>1253.25</ele><time>2026-05-01T09:14:07.999Z</time></trkpt><trkpt lat="44.98491231777345" lon="6.8069247387771465"><ele>1255.5</ele><time>2026-05-01T09:14:08.999Z</time></trkpt><trkpt lat="44.98477075255298" lon="6.806882089010304"><ele>1257.75</ele><time>2026-05-01T09:14:09.999Z</time></trkpt><trkpt lat="44.98463585799578" lon="6.80685115681345"><ele>1260.0</ele><time>2026-05-01T09:14:10.999Z</time></trkpt><trkpt lat="44.984507796675466" lon="6.8068242767925"><ele>1257.0</ele><time>2026-05-01T09:14:11.999Z</time></trkpt><trkpt lat="44.98436041661257" lon="6.8068186794435395"><ele>1254.0</ele><time>2026-05-01T09:14:12.999Z</time></trkpt><trkpt lat="44.98424544762462" lon="6.8068127687496505"><ele>1251.0</ele><time>2026-05-01T09:14:13.999Z</time></trkpt><trkpt lat="44.98412367546367" lon="6.806759438098705"><ele>1248.0</ele><time>2026-05-01T09:14:14.999Z</time></trkpt><trkpt lat="44.98400983070034" lon="6.80676096198767"><ele>1248.0</ele><time>2026-05-01T09:14:15.999Z</time></trkpt><trkpt lat="44.98388727585167" lon="6.806770252314598"><ele>1248.0</ele><time>2026-05-01T09:14:16.999Z</time></trkpt><trkpt lat="44.98376727243686" lon="6.80678173746643"><ele>1248.0</ele><time>2026-05-01T09:14:17.999Z</time></trkpt><trkpt lat="44.98364807463891" lon="6.806784804467943"><ele>1248.0</ele><time>2026-05-01T09:14:18.999Z</time></trkpt><trkpt lat="44.983578869277245" lon="6.806761381326673"><ele>1248.0</ele><time>2026-05-01T09:14:19.999Z</time></trkpt><trkpt lat="44.983491208242846" lon="6.8067704441711605"><ele>1248.0</ele><time>2026-05-01T09:14:20.999Z</time></trkpt><trkpt lat="44.983439909859314" lon="6.806717831490629"><ele>1248.0</ele><time>2026-05-01T09:14:22Z</time></trkpt><trkpt lat="44.98336559005271" lon="6.806697271698988"><ele>1248.0</ele><time>2026-05-01T09:14:23Z</time></trkpt><trkpt lat="44.983299013473854" lon="6.806688508780456"><ele>1248.0</ele><time>2026-05-01T09:14:24Z</time></trkpt><trkpt lat="44.983230008288096" lon="6.8066785572959105"><ele>1248.0</ele><time>2026-05-01T09:14:25Z</time></trkpt><trkpt lat="44.983136300713404" lon="6.806661212772487"><ele>1248.0</ele><time>2026-05-01T09:14:26Z</time></trkpt><trkpt lat="44.98301860449624" lon="6.806676130079606"><ele>1248.0</ele><time>2026-05-01T09:14:27Z</time></trkpt><trkpt lat="44.98287201829493" lon="6.806680434392453"><ele>1248.0</ele><time>2026-05-01T09:14:28Z</time></trkpt><trkpt lat="44.982764590935496" lon="6.806674822693978"><ele>1248.0</ele><time>2026-05-01T09:14:29Z</time></trkpt><trkpt lat="44.98268528703789" lon="6.806670268743919"><ele>1248.0</ele><time>2026-05-01T09:14:30Z</time></trkpt><trkpt lat="44.982575128382194" lon="6.806663805932241"><ele>1248.0</ele><time>2026-05-01T09:14:31Z</time></trkpt><trkpt lat="44.98245285259879" lon="6.806652811451937"><ele>1248.6666666666667</ele><time>2026-05-01T09:14:32Z</time></trkpt><trkpt lat="44.98230341026483" lon="6.806639797223449"><ele>1249.3333333333335</ele><time>2026-05-01T09:14:33Z</time></trkpt><trkpt lat="44.9821380126035" lon="6.806564554760043"><ele>1250.0</ele><time>2026-05-01T09:14:34Z</time></trkpt><trkpt lat="44.98201263252404" lon="6.806517766492682"><ele>1250.0</ele><time>2026-05-01T09:14:35Z</time></trkpt><trkpt lat="44.981892781195256" lon="6.8064726300937375"><ele>1250.0</ele><time>2026-05-01T09:14:36Z</time></trkpt><trkpt lat="44.981765699915606" lon="6.806408227521567"><ele>1250.0</ele><time>2026-05-01T09:14:37Z</time></trkpt><trkpt lat="44.981645471843365" lon="6.806327373069963"><ele>1250.0</ele><time>2026-05-01T09:14:38Z</time></trkpt><trkpt lat="44.98154211997657" lon="6.806226966356931"><ele>1248.5</ele><time>2026-05-01T09:14:39Z</time></trkpt><trkpt lat="44.981436546989066" lon="6.806102928550884"><ele>1247.0</ele><time>2026-05-01T09:14:40Z</time></trkpt><trkpt lat="44.9813159565001" lon="6.806000310786253"><ele>1245.5</ele><time>2026-05-01T09:14:41Z</time></trkpt><trkpt lat="44.98120926332563" lon="6.8059240295122105"><ele>1244.0</ele><time>2026-05-01T09:14:42Z</time></trkpt><trkpt lat="44.98109276537307" lon="6.805848839874922"><ele>1244.0</ele><time>2026-05-01T09:14:43Z</time></trkpt><trkpt lat="44.98095558738343" lon="6.805778657706679"><ele>1244.0</ele><time>2026-05-01T09:14:44Z</time></trkpt><trkpt lat="44.98082770893159" lon="6.805726702449509"><ele>1244.0</ele><time>2026-05-01T09:14:45Z</time></trkpt><trkpt lat="44.980669533275346" lon="6.805672331246124"><ele>1244.0</ele><time>2026-05-01T09:14:46Z</time></trkpt><trkpt lat="44.98046483622668" lon="6.805659408456693"><ele>1249.3333333333335</ele><time>2026-05-01T09:14:47Z</time></trkpt><trkpt lat="44.9802355295806" lon="6.805662970213985"><ele>1254.6666666666667</ele><time>2026-05-01T09:14:48Z</time></trkpt><trkpt lat="44.98003360980511" lon="6.805611320679185"><ele>1260.0</ele><time>2026-05-01T09:14:49Z</time></trkpt><trkpt lat="44.97984431496831" lon="6.805584054191047"><ele>1263.0</ele><time>2026-05-01T09:14:50Z</time></trkpt><trkpt lat="44.97967290006059" lon="6.8055785521516885"><ele>1266.0</ele><time>2026-05-01T09:14:51Z</time></trkpt><trkpt lat="44.979503077798306" lon="6.805524139358215"><ele>1269.0</ele><time>2026-05-01T09:14:52Z</time></trkpt><trkpt lat="44.979340987526506" lon="6.8054599394049715"><ele>1269.0</ele><time>2026-05-01T09:14:53Z</time></trkpt><trkpt lat="44.979202842147984" lon="6.8053041924252975"><ele>1269.0</ele><time>2026-05-01T09:14:54Z</time></trkpt><trkpt lat="44.97904558157659" lon="6.805176550262866"><ele>1269.0</ele><time>2026-05-01T09:14:55Z</time></trkpt><trkpt lat="44.97888591920909" lon="6.804990315545494"><ele>1265.3333333333333</ele><time>2026-05-01T09:14:56Z</time></trkpt><trkpt lat="44.97871520790165" lon="6.804821318442317"><ele>1261.6666666666665</ele><time>2026-05-01T09:14:57Z</time></trkpt><trkpt lat="44.97854496483288" lon="6.804626588021024"><ele>1258.0</ele><time>2026-05-01T09:14:58Z</time></trkpt><trkpt lat="44.97837481693182" lon="6.804408333658829"><ele>1264.0</ele><time>2026-05-01T09:14:59Z</time></trkpt><trkpt lat="44.97816057265249" lon="6.804158317961544"><ele>1270.0</ele><time>2026-05-01T09:15:00Z</time></trkpt><trkpt lat="44.977980432803285" lon="6.803921123701615"><ele>1270.0</ele><time>2026-05-01T09:15:01Z</time></trkpt><trkpt lat="44.97781338566994" lon="6.803699197208276"><ele>1270.0</ele><time>2026-05-01T09:15:02Z</time></trkpt><trkpt lat="44.97764768459837" lon="6.803496238792854"><ele>1270.0</ele><time>2026-05-01T09:15:03Z</time></trkpt><trkpt lat="44.97750343366518" lon="6.803295926640931"><ele>1274.0</ele><time>2026-05-01T09:15:04Z</time></trkpt><trkpt lat="44.97735429131534" lon="6.80310205961307"><ele>1278.0</ele><time>2026-05-01T09:15:05Z</time></trkpt><trkpt lat="44.9772058601474" lon="6.802911740547245"><ele>1282.0</ele><time>2026-05-01T09:15:06Z</time></trkpt><trkpt lat="44.977095372863296" lon="6.802668942689908"><ele>1277.0</ele><time>2026-05-01T09:15:07Z</time></trkpt><trkpt lat="44.977003938954574" lon="6.802441058760574"><ele>1272.0</ele><time>2026-05-01T09:15:08Z</time></trkpt><trkpt lat="44.976928656306676" lon="6.8021834610724"><ele>1267.0</ele><time>2026-05-01T09:15:09Z</time></trkpt><trkpt lat="44.97685260195129" lon="6.801907987785517"><ele>1265.0</ele><time>2026-05-01T09:15:10Z</time></trkpt><trkpt lat="44.97678017100526" lon="6.801639325050079"><ele>1263.0</ele><time>2026-05-01T09:15:11Z</time></trkpt><trkpt lat="44.97670717199482" lon="6.801362753694725"><ele>1261.0</ele><time>2026-05-01T09:15:12Z</time></trkpt><trkpt lat="44.97664253795161" lon="6.801117874887389"><ele>1267.3333333333333</ele><time>2026-05-01T09:15:13Z</time></trkpt><trkpt lat="44.97657451452804" lon="6.800872993848566"><ele>1273.6666666666667</ele><time>2026-05-01T09:15:14Z</time></trkpt><trkpt lat="44.97648780878023" lon="6.800616171183692"><ele>1280.0</ele><time>2026-05-01T09:15:15Z</time></trkpt><trkpt lat="44.976384670454074" lon="6.80040185538878"><ele>1280.0</ele><time>2026-05-01T09:15:16Z</time></trkpt><trkpt lat="44.976281478134446" lon="6.800214915514387"><ele>1280.0</ele><time>2026-05-01T09:15:17Z</time></trkpt><trkpt lat="44.97619605542182" lon="6.800028162605518"><ele>1280.0</ele><time>2026-05-01T09:15:18Z</time></trkpt><trkpt lat="44.976090301699124" lon="6.799848722366206"><ele>1282.0</ele><time>2026-05-01T09:15:19Z</time></trkpt><trkpt lat="44.97597478679379" lon="6.79977144164347"><ele>1284.0</ele><time>2026-05-01T09:15:20Z</time></trkpt><trkpt lat="44.975803387646145" lon="6.799672554893821"><ele>1286.0</ele><time>2026-05-01T09:15:21Z</time></trkpt><trkpt lat="44.97565386759174" lon="6.799613709387433"><ele>1286.0</ele><time>2026-05-01T09:15:22Z</time></trkpt><trkpt lat="44.975483872529864" lon="6.799560704516784"><ele>1286.0</ele><time>2026-05-01T09:15:23Z</time></trkpt><trkpt lat="44.97529917140233" lon="6.7995035351248365"><ele>1286.0</ele><time>2026-05-01T09:15:24Z</time></trkpt><trkpt lat="44.975078569694944" lon="6.799435268209199"><ele>1282.0</ele><time>2026-05-01T09:15:25Z</time></trkpt><trkpt lat="44.97489343765242" lon="6.799377986911312"><ele>1278.0</ele><time>2026-05-01T09:15:26Z</time></trkpt><trkpt lat="44.97471057157908" lon="6.79932140678902"><ele>1274.0</ele><time>2026-05-01T09:15:27Z</time></trkpt><trkpt lat="44.97455269543646" lon="6.799272558788472"><ele>1274.0</ele><time>2026-05-01T09:15:28Z</time></trkpt><trkpt lat="44.97437326777361" lon="6.799216309465258"><ele>1274.0</ele><time>2026-05-01T09:15:29Z</time></trkpt><trkpt lat="44.97416767452511" lon="6.799253585762955"><ele>1274.0</ele><time>2026-05-01T09:15:30Z</time></trkpt><trkpt lat="44.974024462161616" lon="6.7992039421593"><ele>1277.25</ele><time>2026-05-01T09:15:31Z</time></trkpt><trkpt lat="44.973889826398576" lon="6.799136537343048"><ele>1280.5</ele><time>2026-05-01T09:15:32Z</time></trkpt><trkpt lat="44.97374495700286" lon="6.799096795481708"><ele>1283.75</ele><time>2026-05-01T09:15:33Z</time></trkpt><trkpt lat="44.97365593500518" lon="6.799090305398406"><ele>1287.0</ele><time>2026-05-01T09:15:34Z</time></trkpt><trkpt lat="44.97355554710064" lon="6.7990569422276605"><ele>1287.0</ele><time>2026-05-01T09:15:35Z</time></trkpt><trkpt lat="44.973409380265984" lon="6.79901296426715"><ele>1287.0</ele><time>2026-05-01T09:15:37Z</time></trkpt><trkpt lat="44.97333341800358" lon="6.798977304514941"><ele>1287.0</ele><time>2026-05-01T09:15:38Z</time></trkpt><trkpt lat="44.97322763607856" lon="6.7989273666380665"><ele>1287.0</ele><time>2026-05-01T09:15:39Z</time></trkpt><trkpt lat="44.97312257124336" lon="6.798892468754995"><ele>1287.0</ele><time>2026-05-01T09:15:39.999Z</time></trkpt><trkpt lat="44.973027878352056" lon="6.798831604965394"><ele>1288.0</ele><time>2026-05-01T09:15:40.999Z</time></trkpt><trkpt lat="44.972897124968135" lon="6.798789567649117"><ele>1289.0</ele><time>2026-05-01T09:15:41.999Z</time></trkpt><trkpt lat="44.97277625588286" lon="6.798752819045507"><ele>1290.0</ele><time>2026-05-01T09:15:42.999Z</time></trkpt><trkpt lat="44.97267395007068" lon="6.798724678951641"><ele>1291.0</ele><time>2026-05-01T09:15:43.999Z</time></trkpt><trkpt lat="44.972587240177845" lon="6.79867417362438"><ele>1292.8</ele><time>2026-05-01T09:15:44.999Z</time></trkpt><trkpt lat="44.97248713722672" lon="6.798641825049142"><ele>1294.6</ele><time>2026-05-01T09:15:45.999Z</time></trkpt><trkpt lat="44.97237900966658" lon="6.798621653416663"><ele>1296.4</ele><time>2026-05-01T09:15:46.999Z</time></trkpt><trkpt lat="44.9722892853856" lon="6.798573823270148"><ele>1298.2</ele><time>2026-05-01T09:15:47.999Z</time></trkpt><trkpt lat="44.97218946292739" lon="6.79853174931817"><ele>1300.0</ele><time>2026-05-01T09:15:48.999Z</time></trkpt><trkpt lat="44.97208144225028" lon="6.798482404989102"><ele>1298.75</ele><time>2026-05-01T09:15:49.999Z</time></trkpt><trkpt lat="44.97196304159664" lon="6.798428149271193"><ele>1297.5</ele><time>2026-05-01T09:15:50.999Z</time></trkpt><trkpt lat="44.97184201916704" lon="6.798353312130009"><ele>1296.25</ele><time>2026-05-01T09:15:51.999Z</time></trkpt><trkpt lat="44.971710119140035" lon="6.798295640947562"><ele>1295.0</ele><time>2026-05-01T09:15:52.999Z</time></trkpt><trkpt lat="44.97156766972641" lon="6.798209633785906"><ele>1295.0</ele><time>2026-05-01T09:15:53.999Z</time></trkpt><trkpt lat="44.97141278091141" lon="6.798121969501566"><ele>1295.0</ele><time>2026-05-01T09:15:54.999Z</time></trkpt><trkpt lat="44.97127508090714" lon="6.798045523820564"><ele>1295.0</ele><time>2026-05-01T09:15:55.999Z</time></trkpt><trkpt lat="44.97114186538725" lon="6.797973596621532"><ele>1295.0</ele><time>2026-05-01T09:15:56.999Z</time></trkpt><trkpt lat="44.97101643690181" lon="6.797920171523489"><ele>1295.0</ele><time>2026-05-01T09:15:57.999Z</time></trkpt><trkpt lat="44.97086478767549" lon="6.797937272425778"><ele>1295.0</ele><time>2026-05-01T09:15:58.999Z</time></trkpt><trkpt lat="44.970723788619196" lon="6.7979556801550185"><ele>1295.0</ele><time>2026-05-01T09:15:59.999Z</time></trkpt><trkpt lat="44.97060028871683" lon="6.797988881279435"><ele>1298.3333333333335</ele><time>2026-05-01T09:16:00.999Z</time></trkpt><trkpt lat="44.97041410183379" lon="6.798135080691524"><ele>1301.6666666666667</ele><time>2026-05-01T09:16:01.999Z</time></trkpt><trkpt lat="44.97025592653789" lon="6.798299219193823"><ele>1305.0</ele><time>2026-05-01T09:16:02.999Z</time></trkpt><trkpt lat="44.97013852393345" lon="6.798443339178952"><ele>1311.0</ele><time>2026-05-01T09:16:03.999Z</time></trkpt><trkpt lat="44.96997522460004" lon="6.798543502272869"><ele>1317.0</ele><time>2026-05-01T09:16:04.999Z</time></trkpt><trkpt lat="44.969824335841565" lon="6.798550444235158"><ele>1323.0</ele><time>2026-05-01T09:16:05.999Z</time></trkpt><trkpt lat="44.96964168290611" lon="6.798553892113137"><ele>1323.0</ele><time>2026-05-01T09:16:06.999Z</time></trkpt><trkpt lat="44.96946528513025" lon="6.798553504239275"><ele>1323.0</ele><time>2026-05-01T09:16:07.999Z</time></trkpt><trkpt lat="44.96927865294865" lon="6.798553093859696"><ele>1323.0</ele><time>2026-05-01T09:16:08.999Z</time></trkpt><trkpt lat="44.96907415942608" lon="6.7985526446070095"><ele>1323.0</ele><time>2026-05-01T09:16:09.999Z</time></trkpt><trkpt lat="44.96887205628862" lon="6.7985522002119225"><ele>1323.0</ele><time>2026-05-01T09:16:10.999Z</time></trkpt><trkpt lat="44.96862802636847" lon="6.798551663629784"><ele>1323.0</ele><time>2026-05-01T09:16:11.999Z</time></trkpt><trkpt lat="44.96839854813731" lon="6.798550873768172"><ele>1322.3333333333333</ele><time>2026-05-01T09:16:12.999Z</time></trkpt><trkpt lat="44.968185995921615" lon="6.798574330736404"><ele>1321.6666666666665</ele><time>2026-05-01T09:16:13.999Z</time></trkpt><trkpt lat="44.96799362291868" lon="6.798563800203354"><ele>1321.0</ele><time>2026-05-01T09:16:14.999Z</time></trkpt><trkpt lat="44.96782561301923" lon="6.7984994380416905"><ele>1317.3333333333333</ele><time>2026-05-01T09:16:15.999Z</time></trkpt><trkpt lat="44.967677191570125" lon="6.7984376036435386"><ele>1313.6666666666667</ele><time>2026-05-01T09:16:16.999Z</time></trkpt><trkpt lat="44.96754303686326" lon="6.798361982583688"><ele>1310.0</ele><time>2026-05-01T09:16:17.999Z</time></trkpt><trkpt lat="44.967409956823126" lon="6.798203687307389"><ele>1310.0</ele><time>2026-05-01T09:16:18.999Z</time></trkpt><trkpt lat="44.96726273247753" lon="6.798056994153359"><ele>1310.0</ele><time>2026-05-01T09:16:19.999Z</time></trkpt><trkpt lat="44.96712676477021" lon="6.797897752630416"><ele>1310.0</ele><time>2026-05-01T09:16:20.999Z</time></trkpt><trkpt lat="44.96695844454856" lon="6.797751548451871"><ele>1310.3333333333335</ele><time>2026-05-01T09:16:21.999Z</time></trkpt><trkpt lat="44.96677118909118" lon="6.797605901286491"><ele>1310.6666666666667</ele><time>2026-05-01T09:16:22.999Z</time></trkpt><trkpt lat="44.96657524235181" lon="6.797480095313613"><ele>1311.0</ele><time>2026-05-01T09:16:23.999Z</time></trkpt><trkpt lat="44.966380856697675" lon="6.7973999593227115"><ele>1311.0</ele><time>2026-05-01T09:16:24.999Z</time></trkpt><trkpt lat="44.9662034151338" lon="6.79730214136371"><ele>1311.0</ele><time>2026-05-01T09:16:25.999Z</time></trkpt><trkpt lat="44.96605705907063" lon="6.797199993017742"><ele>1311.0</ele><time>2026-05-01T09:16:26.999Z</time></trkpt><trkpt lat="44.965890906944416" lon="6.797089867257489"><ele>1312.3333333333333</ele><time>2026-05-01T09:16:28Z</time></trkpt><trkpt lat="44.96570516938287" lon="6.796972525496129"><ele>1313.6666666666665</ele><time>2026-05-01T09:16:29Z</time></trkpt><trkpt lat="44.965505804450615" lon="6.796859155535903"><ele>1315.0</ele><time>2026-05-01T09:16:30Z</time></trkpt><trkpt lat="44.965270808012455" lon="6.796724327811652"><ele>1314.6666666666665</ele><time>2026-05-01T09:16:31Z</time></trkpt><trkpt lat="44.96509579492671" lon="6.796599756520843"><ele>1314.3333333333333</ele><time>2026-05-01T09:16:32Z</time></trkpt><trkpt lat="44.96491852854057" lon="6.796493617681375"><ele>1314.0</ele><time>2026-05-01T09:16:33Z</time></trkpt><trkpt lat="44.96476562471233" lon="6.79637741963687"><ele>1314.0</ele><time>2026-05-01T09:16:34Z</time></trkpt><trkpt lat="44.964605691522586" lon="6.796295400133805"><ele>1314.0</ele><time>2026-05-01T09:16:35Z</time></trkpt><trkpt lat="44.96446417313455" lon="6.796180711391325"><ele>1314.0</ele><time>2026-05-01T09:16:36Z</time></trkpt><trkpt lat="44.96432262999691" lon="6.796087980556202"><ele>1315.0</ele><time>2026-05-01T09:16:37Z</time></trkpt><trkpt lat="44.96418839928995" lon="6.795985339961727"><ele>1316.0</ele><time>2026-05-01T09:16:38Z</time></trkpt><trkpt lat="44.96402879300324" lon="6.795926042181499"><ele>1317.0</ele><time>2026-05-01T09:16:39Z</time></trkpt><trkpt lat="44.96387535307616" lon="6.795865625405906"><ele>1317.0</ele><time>2026-05-01T09:16:40Z</time></trkpt><trkpt lat="44.9636829351782" lon="6.7958576690385675"><ele>1317.0</ele><time>2026-05-01T09:16:41Z</time></trkpt><trkpt lat="44.96350146417242" lon="6.795870748196789"><ele>1317.0</ele><time>2026-05-01T09:16:42Z</time></trkpt><trkpt lat="44.96333204409446" lon="6.795897637621903"><ele>1319.3333333333333</ele><time>2026-05-01T09:16:43Z</time></trkpt><trkpt lat="44.96317163900656" lon="6.795924656915902"><ele>1321.6666666666665</ele><time>2026-05-01T09:16:44Z</time></trkpt><trkpt lat="44.9629943998224" lon="6.795956820245118"><ele>1324.0</ele><time>2026-05-01T09:16:45Z</time></trkpt><trkpt lat="44.962835945413275" lon="6.795988217910158"><ele>1329.6666666666665</ele><time>2026-05-01T09:16:46Z</time></trkpt><trkpt lat="44.962663223569784" lon="6.796010153440466"><ele>1335.3333333333333</ele><time>2026-05-01T09:16:47Z</time></trkpt><trkpt lat="44.96249927095591" lon="6.7960189954902015"><ele>1341.0</ele><time>2026-05-01T09:16:48Z</time></trkpt><trkpt lat="44.962329615660806" lon="6.796046026976577"><ele>1336.3333333333333</ele><time>2026-05-01T09:16:49Z</time></trkpt><trkpt lat="44.9621736021628" lon="6.795999554679289"><ele>1331.6666666666665</ele><time>2026-05-01T09:16:50Z</time></trkpt><trkpt lat="44.96201956568798" lon="6.795959754062466"><ele>1327.0</ele><time>2026-05-01T09:16:51Z</time></trkpt><trkpt lat="44.96187982082716" lon="6.795882496393323"><ele>1327.0</ele><time>2026-05-01T09:16:52Z</time></trkpt><trkpt lat="44.9617367101015" lon="6.7957835856348385"><ele>1327.0</ele><time>2026-05-01T09:16:53Z</time></trkpt><trkpt lat="44.96161810087027" lon="6.79565876798881"><ele>1327.0</ele><time>2026-05-01T09:16:54Z</time></trkpt><trkpt lat="44.961510614953426" lon="6.7955344403436735"><ele>1327.0</ele><time>2026-05-01T09:16:55Z</time></trkpt><trkpt lat="44.96138476775044" lon="6.795407748831156"><ele>1326.75</ele><time>2026-05-01T09:16:56Z</time></trkpt><trkpt lat="44.961263756804264" lon="6.795279014764363"><ele>1326.5</ele><time>2026-05-01T09:16:57Z</time></trkpt><trkpt lat="44.96113729918473" lon="6.795162566231295"><ele>1326.25</ele><time>2026-05-01T09:16:58Z</time></trkpt><trkpt lat="44.9610184268906" lon="6.795079889859876"><ele>1326.0</ele><time>2026-05-01T09:16:59Z</time></trkpt><trkpt lat="44.96089857592959" lon="6.795002604906553"><ele>1328.0</ele><time>2026-05-01T09:17:00Z</time></trkpt><trkpt lat="44.960757118585015" lon="6.795020789645112"><ele>1330.0</ele><time>2026-05-01T09:17:01Z</time></trkpt><trkpt lat="44.960605871404084" lon="6.795039813802103"><ele>1332.0</ele><time>2026-05-01T09:17:02Z</time></trkpt><trkpt lat="44.96045175701575" lon="6.795058117393565"><ele>1334.0</ele><time>2026-05-01T09:17:03Z</time></trkpt><trkpt lat="44.96026300154785" lon="6.7952140632004046"><ele>1341.5</ele><time>2026-05-01T09:17:04Z</time></trkpt><trkpt lat="44.960119420973605" lon="6.795237237067062"><ele>1349.0</ele><time>2026-05-01T09:17:05Z</time></trkpt><trkpt lat="44.959980004576295" lon="6.795279118938443"><ele>1356.5</ele><time>2026-05-01T09:17:06Z</time></trkpt><trkpt lat="44.95984053144956" lon="6.795333004844188"><ele>1364.0</ele><time>2026-05-01T09:17:07Z</time></trkpt><trkpt lat="44.95967640992612" lon="6.795332941179262"><ele>1364.0</ele><time>2026-05-01T09:17:08Z</time></trkpt><trkpt lat="44.9594971676618" lon="6.795305059700861"><ele>1364.0</ele><time>2026-05-01T09:17:09Z</time></trkpt><trkpt lat="44.95936084507795" lon="6.795283837733232"><ele>1364.0</ele><time>2026-05-01T09:17:10Z</time></trkpt><trkpt lat="44.959229372487975" lon="6.79526922760474"><ele>1364.0</ele><time>2026-05-01T09:17:11Z</time></trkpt><trkpt lat="44.959075760436185" lon="6.795260527635943"><ele>1363.0</ele><time>2026-05-01T09:17:12Z</time></trkpt><trkpt lat="44.95892390771418" lon="6.795205825077379"><ele>1362.0</ele><time>2026-05-01T09:17:13Z</time></trkpt><trkpt lat="44.95876838305564" lon="6.7951698991507"><ele>1361.0</ele><time>2026-05-01T09:17:14Z</time></trkpt><trkpt lat="44.95863284268127" lon="6.795106568119513"><ele>1355.75</ele><time>2026-05-01T09:17:15Z</time></trkpt><trkpt lat="44.95848430975564" lon="6.79501399977172"><ele>1350.5</ele><time>2026-05-01T09:17:16Z</time></trkpt><trkpt lat="44.95836187655658" lon="6.794925433914671"><ele>1345.25</ele><time>2026-05-01T09:17:17Z</time></trkpt><trkpt lat="44.958236606986574" lon="6.794840325556966"><ele>1340.0</ele><time>2026-05-01T09:17:18Z</time></trkpt><trkpt lat="44.95810495184883" lon="6.794755318964386"><ele>1340.0</ele><time>2026-05-01T09:17:19Z</time></trkpt><trkpt lat="44.95797889306934" lon="6.79466069195059"><ele>1340.0</ele><time>2026-05-01T09:17:20Z</time></trkpt><trkpt lat="44.957853587021596" lon="6.794572251373853"><ele>1340.0</ele><time>2026-05-01T09:17:21Z</time></trkpt><trkpt lat="44.957731703417664" lon="6.79446971707502"><ele>1340.0</ele><time>2026-05-01T09:17:22Z</time></trkpt><trkpt lat="44.95760016179551" lon="6.7943803392956355"><ele>1340.5</ele><time>2026-05-01T09:17:23Z</time></trkpt><trkpt lat="44.95747383355753" lon="6.79428174959961"><ele>1341.0</ele><time>2026-05-01T09:17:24Z</time></trkpt><trkpt lat="44.95734976925119" lon="6.794172921565921"><ele>1341.5</ele><time>2026-05-01T09:17:25Z</time></trkpt><trkpt lat="44.95723562479839" lon="6.794078355702529"><ele>1342.0</ele><time>2026-05-01T09:17:26Z</time></trkpt><trkpt lat="44.95711667163341" lon="6.793972786038778"><ele>1342.0</ele><time>2026-05-01T09:17:27Z</time></trkpt><trkpt lat="44.957008585062205" lon="6.79387025106775"><ele>1342.0</ele><time>2026-05-01T09:17:28Z</time></trkpt><trkpt lat="44.95692283791458" lon="6.793736251270118"><ele>1342.0</ele><time>2026-05-01T09:17:29Z</time></trkpt><trkpt lat="44.956836428355956" lon="6.793610534348959"><ele>1342.0</ele><time>2026-05-01T09:17:30Z</time></trkpt><trkpt lat="44.95673902289596" lon="6.793481457443295"><ele>1342.5</ele><time>2026-05-01T09:17:31Z</time></trkpt><trkpt lat="44.95663973944123" lon="6.793343218894072"><ele>1343.0</ele><time>2026-05-01T09:17:32Z</time></trkpt><trkpt lat="44.95654890991547" lon="6.793192480303615"><ele>1343.5</ele><time>2026-05-01T09:17:33Z</time></trkpt><trkpt lat="44.956453312371856" lon="6.79305198717293"><ele>1344.0</ele><time>2026-05-01T09:17:34Z</time></trkpt><trkpt lat="44.95636311528634" lon="6.792924739899501"><ele>1344.0</ele><time>2026-05-01T09:17:35Z</time></trkpt><trkpt lat="44.95625553337638" lon="6.792870018044173"><ele>1344.0</ele><time>2026-05-01T09:17:36Z</time></trkpt><trkpt lat="44.956145521781366" lon="6.792847397305629"><ele>1344.0</ele><time>2026-05-01T09:17:37Z</time></trkpt><trkpt lat="44.95598456906499" lon="6.792899676519136"><ele>1344.0</ele><time>2026-05-01T09:17:38Z</time></trkpt><trkpt lat="44.95585506830208" lon="6.7928950686590035"><ele>1345.4</ele><time>2026-05-01T09:17:39Z</time></trkpt><trkpt lat="44.95574639682772" lon="6.792863508437313"><ele>1346.8000000000002</ele><time>2026-05-01T09:17:40Z</time></trkpt><trkpt lat="44.95565757989454" lon="6.792862428680787"><ele>1348.1999999999998</ele><time>2026-05-01T09:17:41Z</time></trkpt><trkpt lat="44.95558465979794" lon="6.792842148714282"><ele>1349.6</ele><time>2026-05-01T09:17:42Z</time></trkpt><trkpt lat="44.955479333840834" lon="6.792808719036843"><ele>1351.0</ele><time>2026-05-01T09:17:44Z</time></trkpt><trkpt lat="44.95535919291532" lon="6.792773553622621"><ele>1351.0</ele><time>2026-05-01T09:17:46Z</time></trkpt><trkpt lat="44.955270726777975" lon="6.7927386386088795"><ele>1351.0</ele><time>2026-05-01T09:17:47Z</time></trkpt><trkpt lat="44.95519450589029" lon="6.792683729585563"><ele>1351.0</ele><time>2026-05-01T09:17:48Z</time></trkpt><trkpt lat="44.95510659958484" lon="6.792580195473895"><ele>1351.0</ele><time>2026-05-01T09:17:49Z</time></trkpt><trkpt lat="44.955026134705925" lon="6.792483145165513"><ele>1351.0</ele><time>2026-05-01T09:17:50Z</time></trkpt><trkpt lat="44.95494457816286" lon="6.792363109153918"><ele>1348.75</ele><time>2026-05-01T09:17:51Z</time></trkpt><trkpt lat="44.95484423513176" lon="6.792252644772093"><ele>1346.5</ele><time>2026-05-01T09:17:52Z</time></trkpt><trkpt lat="44.95474517946846" lon="6.792119733479565"><ele>1344.25</ele><time>2026-05-01T09:17:53Z</time></trkpt><trkpt lat="44.95463889810524" lon="6.791992597601606"><ele>1342.0</ele><time>2026-05-01T09:17:54Z</time></trkpt><trkpt lat="44.954561550143104" lon="6.791860413476316"><ele>1342.1999999999998</ele><time>2026-05-01T09:17:55Z</time></trkpt><trkpt lat="44.95446762149242" lon="6.7917426155716525"><ele>1342.4</ele><time>2026-05-01T09:17:56Z</time></trkpt><trkpt lat="44.95439700197267" lon="6.791628326944334"><ele>1342.6</ele><time>2026-05-01T09:17:57Z</time></trkpt><trkpt lat="44.95433297315912" lon="6.791497663268601"><ele>1342.8000000000002</ele><time>2026-05-01T09:17:58Z</time></trkpt><trkpt lat="44.954302185358344" lon="6.791376384899404"><ele>1343.0</ele><time>2026-05-01T09:17:59Z</time></trkpt><trkpt lat="44.95427638768832" lon="6.79121515395543"><ele>1343.0</ele><time>2026-05-01T09:18:00Z</time></trkpt><trkpt lat="44.95426081772765" lon="6.79107963966718"><ele>1343.0</ele><time>2026-05-01T09:18:01Z</time></trkpt><trkpt lat="44.954262532024195" lon="6.790930346451564"><ele>1343.0</ele><time>2026-05-01T09:18:02Z</time></trkpt><trkpt lat="44.95427375162348" lon="6.790803433477862"><ele>1343.0</ele><time>2026-05-01T09:18:02.999Z</time></trkpt><trkpt lat="44.95428802936774" lon="6.790674806672359"><ele>1343.0</ele><time>2026-05-01T09:18:03.999Z</time></trkpt><trkpt lat="44.95427335436179" lon="6.790539453331399"><ele>1343.0</ele><time>2026-05-01T09:18:04.999Z</time></trkpt><trkpt lat="44.95425080764677" lon="6.790404905332741"><ele>1343.0</ele><time>2026-05-01T09:18:05.999Z</time></trkpt><trkpt lat="44.95421557267" lon="6.790276827313371"><ele>1343.0</ele><time>2026-05-01T09:18:06.999Z</time></trkpt><trkpt lat="44.95418949607824" lon="6.790194545941397"><ele>1343.0</ele><time>2026-05-01T09:18:07.999Z</time></trkpt><trkpt lat="44.95415793028408" lon="6.790094096722446"><ele>1343.0</ele><time>2026-05-01T09:18:08.999Z</time></trkpt><trkpt lat="44.954103333447144" lon="6.790015135485923"><ele>1343.0</ele><time>2026-05-01T09:18:09.999Z</time></trkpt><trkpt lat="44.95403039568803" lon="6.789956996965551"><ele>1343.5</ele><time>2026-05-01T09:18:10.999Z</time></trkpt><trkpt lat="44.95392731596078" lon="6.789874836942077"><ele>1344.0</ele><time>2026-05-01T09:18:11.999Z</time></trkpt><trkpt lat="44.95382391259627" lon="6.789781262990162"><ele>1344.5</ele><time>2026-05-01T09:18:12.999Z</time></trkpt><trkpt lat="44.9536839767731" lon="6.789717197833166"><ele>1345.0</ele><time>2026-05-01T09:18:13.999Z</time></trkpt><trkpt lat="44.95354584523161" lon="6.78962440038935"><ele>1345.0</ele><time>2026-05-01T09:18:14.999Z</time></trkpt><trkpt lat="44.95341990852544" lon="6.789523883158213"><ele>1345.0</ele><time>2026-05-01T09:18:15.999Z</time></trkpt><trkpt lat="44.953288866754576" lon="6.789405663177184"><ele>1345.0</ele><time>2026-05-01T09:18:16.999Z</time></trkpt><trkpt lat="44.95317962708044" lon="6.789283224706446"><ele>1345.0</ele><time>2026-05-01T09:18:17.999Z</time></trkpt><trkpt lat="44.953070085069946" lon="6.7891695100916865"><ele>1346.0</ele><time>2026-05-01T09:18:18.999Z</time></trkpt><trkpt lat="44.95296144354452" lon="6.789037621018273"><ele>1347.0</ele><time>2026-05-01T09:18:19.999Z</time></trkpt><trkpt lat="44.952866205080014" lon="6.788891316650325"><ele>1348.0</ele><time>2026-05-01T09:18:20.999Z</time></trkpt><trkpt lat="44.95277738991017" lon="6.788733463452556"><ele>1349.0</ele><time>2026-05-01T09:18:21.999Z</time></trkpt><trkpt lat="44.952688125826405" lon="6.788564239872114"><ele>1350.3333333333335</ele><time>2026-05-01T09:18:22.999Z</time></trkpt><trkpt lat="44.9526002334357" lon="6.788391044520384"><ele>1351.6666666666667</ele><time>2026-05-01T09:18:23.999Z</time></trkpt><trkpt lat="44.95252390581446" lon="6.788211763779268"><ele>1353.0</ele><time>2026-05-01T09:18:24.999Z</time></trkpt><trkpt lat="44.95241928078286" lon="6.788024273322579"><ele>1353.25</ele><time>2026-05-01T09:18:25.999Z</time></trkpt><trkpt lat="44.952338998159675" lon="6.787829003437841"><ele>1353.5</ele><time>2026-05-01T09:18:26.999Z</time></trkpt><trkpt lat="44.95226761052187" lon="6.787672509743184"><ele>1353.75</ele><time>2026-05-01T09:18:27.999Z</time></trkpt><trkpt lat="44.95219282338171" lon="6.787513746808275"><ele>1354.0</ele><time>2026-05-01T09:18:28.999Z</time></trkpt><trkpt lat="44.95211235810486" lon="6.787340781252419"><ele>1355.0</ele><time>2026-05-01T09:18:29.999Z</time></trkpt><trkpt lat="44.952040499558294" lon="6.787166436574405"><ele>1356.0</ele><time>2026-05-01T09:18:30.999Z</time></trkpt><trkpt lat="44.95198793755486" lon="6.78700151782477"><ele>1357.0</ele><time>2026-05-01T09:18:31.999Z</time></trkpt><trkpt lat="44.951941301788835" lon="6.786822430627732"><ele>1358.0</ele><time>2026-05-01T09:18:32.999Z</time></trkpt><trkpt lat="44.951893471105535" lon="6.786641200719727"><ele>1362.5</ele><time>2026-05-01T09:18:34Z</time></trkpt><trkpt lat="44.9518484723058" lon="6.786473447774653"><ele>1367.0</ele><time>2026-05-01T09:18:35Z</time></trkpt><trkpt lat="44.951815911778695" lon="6.7863027722270886"><ele>1371.5</ele><time>2026-05-01T09:18:36Z</time></trkpt><trkpt lat="44.95176941782078" lon="6.786122590272872"><ele>1376.0</ele><time>2026-05-01T09:18:37Z</time></trkpt><trkpt lat="44.951725045640636" lon="6.78595952490888"><ele>1375.25</ele><time>2026-05-01T09:18:38Z</time></trkpt><trkpt lat="44.951674407403786" lon="6.785801251436012"><ele>1374.5</ele><time>2026-05-01T09:18:39Z</time></trkpt><trkpt lat="44.9516021813379" lon="6.785651003270506"><ele>1373.75</ele><time>2026-05-01T09:18:40Z</time></trkpt><trkpt lat="44.95151651844151" lon="6.785516534565704"><ele>1373.0</ele><time>2026-05-01T09:18:41Z</time></trkpt><trkpt lat="44.951424542100355" lon="6.785400632196224"><ele>1373.0</ele><time>2026-05-01T09:18:42Z</time></trkpt><trkpt lat="44.95132709983908" lon="6.785305054187437"><ele>1373.0</ele><time>2026-05-01T09:18:43Z</time></trkpt><trkpt lat="44.951200187337584" lon="6.785276341437345"><ele>1373.0</ele><time>2026-05-01T09:18:44Z</time></trkpt><trkpt lat="44.95107810970275" lon="6.78522402950059"><ele>1373.0</ele><time>2026-05-01T09:18:45Z</time></trkpt><trkpt lat="44.95095278857182" lon="6.785208776197561"><ele>1372.25</ele><time>2026-05-01T09:18:46Z</time></trkpt><trkpt lat="44.950828741158155" lon="6.785202203639128"><ele>1371.5</ele><time>2026-05-01T09:18:47Z</time></trkpt><trkpt lat="44.95072706130729" lon="6.7851966209223145"><ele>1370.75</ele><time>2026-05-01T09:18:48Z</time></trkpt><trkpt lat="44.95061497738732" lon="6.7852634364611575"><ele>1370.0</ele><time>2026-05-01T09:18:49Z</time></trkpt><trkpt lat="44.95050257034287" lon="6.785308100873827"><ele>1370.0</ele><time>2026-05-01T09:18:50Z</time></trkpt><trkpt lat="44.95038695290988" lon="6.785439854087359"><ele>1370.0</ele><time>2026-05-01T09:18:51Z</time></trkpt><trkpt lat="44.95029521279599" lon="6.785566379900094"><ele>1370.0</ele><time>2026-05-01T09:18:52Z</time></trkpt><trkpt lat="44.95021127047553" lon="6.785718128705374"><ele>1370.0</ele><time>2026-05-01T09:18:53Z</time></trkpt><trkpt lat="44.95017405758824" lon="6.785874571593447"><ele>1368.5</ele><time>2026-05-01T09:18:54Z</time></trkpt><trkpt lat="44.950162596053396" lon="6.786052481051055"><ele>1367.0</ele><time>2026-05-01T09:18:55Z</time></trkpt><trkpt lat="44.95013838579182" lon="6.786238784989167"><ele>1365.5</ele><time>2026-05-01T09:18:56Z</time></trkpt><trkpt lat="44.95012340773759" lon="6.786450434588212"><ele>1364.0</ele><time>2026-05-01T09:18:57Z</time></trkpt><trkpt lat="44.950150308548324" lon="6.786645397012653"><ele>1364.3333333333335</ele><time>2026-05-01T09:18:58Z</time></trkpt><trkpt lat="44.95020282021758" lon="6.786856635197767"><ele>1364.6666666666667</ele><time>2026-05-01T09:18:59Z</time></trkpt><trkpt lat="44.95025619950341" lon="6.787068771657585"><ele>1365.0</ele><time>2026-05-01T09:19:00Z</time></trkpt><trkpt lat="44.95029128207851" lon="6.7873167354493305"><ele>1365.0</ele><time>2026-05-01T09:19:01Z</time></trkpt><trkpt lat="44.95035525670976" lon="6.787505764897561"><ele>1365.0</ele><time>2026-05-01T09:19:02Z</time></trkpt><trkpt lat="44.95038289996023" lon="6.787685639904096"><ele>1365.0</ele><time>2026-05-01T09:19:03Z</time></trkpt><trkpt lat="44.950411665486605" lon="6.78786433470492"><ele>1365.0</ele><time>2026-05-01T09:19:04Z</time></trkpt><trkpt lat="44.950439235408346" lon="6.787991067861328"><ele>1365.5</ele><time>2026-05-01T09:19:05Z</time></trkpt><trkpt lat="44.95041566183534" lon="6.788151903830383"><ele>1366.0</ele><time>2026-05-01T09:19:06Z</time></trkpt><trkpt lat="44.95038773745859" lon="6.788305414044244"><ele>1366.5</ele><time>2026-05-01T09:19:07Z</time></trkpt><trkpt lat="44.95033868724509" lon="6.788437693966713"><ele>1367.0</ele><time>2026-05-01T09:19:08Z</time></trkpt><trkpt lat="44.9502653802431" lon="6.788576503125679"><ele>1368.25</ele><time>2026-05-01T09:19:09Z</time></trkpt><trkpt lat="44.950168460985616" lon="6.788684776853908"><ele>1369.5</ele><time>2026-05-01T09:19:10Z</time></trkpt><trkpt lat="44.95007526097824" lon="6.7887631552930925"><ele>1370.75</ele><time>2026-05-01T09:19:11Z</time></trkpt><trkpt lat="44.949942277055285" lon="6.788808424227515"><ele>1372.0</ele><time>2026-05-01T09:19:12Z</time></trkpt><trkpt lat="44.94983242785453" lon="6.788807934159179"><ele>1374.0</ele><time>2026-05-01T09:19:13Z</time></trkpt><trkpt lat="44.9497231363735" lon="6.788839639012787"><ele>1376.0</ele><time>2026-05-01T09:19:14Z</time></trkpt><trkpt lat="44.94965212165946" lon="6.7887186278015035"><ele>1378.0</ele><time>2026-05-01T09:19:15Z</time></trkpt><trkpt lat="44.94959405415787" lon="6.788618482096897"><ele>1380.0</ele><time>2026-05-01T09:19:16Z</time></trkpt><trkpt lat="44.94953742569225" lon="6.788515726193764"><ele>1382.0</ele><time>2026-05-01T09:19:17Z</time></trkpt><trkpt lat="44.94949605270952" lon="6.788399457015817"><ele>1382.0</ele><time>2026-05-01T09:19:18Z</time></trkpt><trkpt lat="44.94952694340097" lon="6.788268070687091"><ele>1382.0</ele><time>2026-05-01T09:19:19Z</time></trkpt><trkpt lat="44.94956714905912" lon="6.788161107002372"><ele>1382.0</ele><time>2026-05-01T09:19:20Z</time></trkpt><trkpt lat="44.94960170655087" lon="6.788051448962624"><ele>1382.0</ele><time>2026-05-01T09:19:21Z</time></trkpt><trkpt lat="44.949640251726734" lon="6.787927890033843"><ele>1382.0</ele><time>2026-05-01T09:19:22Z</time></trkpt><trkpt lat="44.949691722816915" lon="6.787736583876048"><ele>1384.0</ele><time>2026-05-01T09:19:23Z</time></trkpt><trkpt lat="44.949719595672185" lon="6.787566598999241"><ele>1386.0</ele><time>2026-05-01T09:19:24Z</time></trkpt><trkpt lat="44.949731801340576" lon="6.787409057896246"><ele>1388.0</ele><time>2026-05-01T09:19:25Z</time></trkpt><trkpt lat="44.94972432474158" lon="6.787231735661126"><ele>1390.0</ele><time>2026-05-01T09:19:26Z</time></trkpt><trkpt lat="44.94970166520448" lon="6.787049755382361"><ele>1389.0</ele><time>2026-05-01T09:19:27Z</time></trkpt><trkpt lat="44.94965243426301" lon="6.786841841186517"><ele>1388.0</ele><time>2026-05-01T09:19:28Z</time></trkpt><trkpt lat="44.94957855155349" lon="6.786701327499306"><ele>1387.0</ele><time>2026-05-01T09:19:29Z</time></trkpt><trkpt lat="44.949524030263376" lon="6.786556364322833"><ele>1386.0</ele><time>2026-05-01T09:19:30Z</time></trkpt><trkpt lat="44.94943308597773" lon="6.786413195351908"><ele>1386.0</ele><time>2026-05-01T09:19:31Z</time></trkpt><trkpt lat="44.949328151481645" lon="6.7862777960909515"><ele>1386.0</ele><time>2026-05-01T09:19:32Z</time></trkpt><trkpt lat="44.94921390012852" lon="6.786173051693631"><ele>1386.0</ele><time>2026-05-01T09:19:33Z</time></trkpt><trkpt lat="44.94908201968474" lon="6.786058845721761"><ele>1386.0</ele><time>2026-05-01T09:19:34Z</time></trkpt><trkpt lat="44.948891367515536" lon="6.785970427208795"><ele>1394.0</ele><time>2026-05-01T09:19:35Z</time></trkpt><trkpt lat="44.94874971828462" lon="6.785839793510259"><ele>1402.0</ele><time>2026-05-01T09:19:36Z</time></trkpt><trkpt lat="44.9485900709651" lon="6.785742950802939"><ele>1410.0</ele><time>2026-05-01T09:19:37Z</time></trkpt><trkpt lat="44.94846812207686" lon="6.785635006953749"><ele>1410.0</ele><time>2026-05-01T09:19:38Z</time></trkpt><trkpt lat="44.94837969030127" lon="6.7855253237450235"><ele>1410.0</ele><time>2026-05-01T09:19:39Z</time></trkpt><trkpt lat="44.94834825458045" lon="6.785390424897999"><ele>1410.0</ele><time>2026-05-01T09:19:40Z</time></trkpt><trkpt lat="44.94833207384687" lon="6.785230748412281"><ele>1410.0</ele><time>2026-05-01T09:19:41Z</time></trkpt><trkpt lat="44.94838649116205" lon="6.785035835852007"><ele>1412.75</ele><time>2026-05-01T09:19:42Z</time></trkpt><trkpt lat="44.94847315645599" lon="6.784919389269368"><ele>1415.5</ele><time>2026-05-01T09:19:43Z</time></trkpt><trkpt lat="44.9485749849388" lon="6.7848208029656805"><ele>1418.25</ele><time>2026-05-01T09:19:44Z</time></trkpt><trkpt lat="44.9486639533561" lon="6.784724719109801"><ele>1421.0</ele><time>2026-05-01T09:19:45Z</time></trkpt><trkpt lat="44.94876270017045" lon="6.784621234848394"><ele>1421.0</ele><time>2026-05-01T09:19:46Z</time></trkpt><trkpt lat="44.94888252950733" lon="6.784498311813166"><ele>1421.0</ele><time>2026-05-01T09:19:47Z</time></trkpt><trkpt lat="44.94901485983533" lon="6.784399006940682"><ele>1421.0</ele><time>2026-05-01T09:19:48Z</time></trkpt><trkpt lat="44.94920089067392" lon="6.784301855505118"><ele>1422.3333333333335</ele><time>2026-05-01T09:19:49Z</time></trkpt><trkpt lat="44.94937427690512" lon="6.78421198539296"><ele>1423.6666666666667</ele><time>2026-05-01T09:19:50Z</time></trkpt><trkpt lat="44.949529519841064" lon="6.784099293959536"><ele>1425.0</ele><time>2026-05-01T09:19:50.999Z</time></trkpt><trkpt lat="44.94967257332157" lon="6.783975541241255"><ele>1425.0</ele><time>2026-05-01T09:19:51.999Z</time></trkpt><trkpt lat="44.94979071703653" lon="6.783820610559226"><ele>1425.0</ele><time>2026-05-01T09:19:52.999Z</time></trkpt><trkpt lat="44.949862336538594" lon="6.783650334211511"><ele>1425.0</ele><time>2026-05-01T09:19:53.999Z</time></trkpt><trkpt lat="44.94989794201149" lon="6.7834888293586495"><ele>1425.0</ele><time>2026-05-01T09:19:54.999Z</time></trkpt><trkpt lat="44.949930106215604" lon="6.783263058688093"><ele>1427.0</ele><time>2026-05-01T09:19:55.999Z</time></trkpt><trkpt lat="44.949922799315374" lon="6.782918127144857"><ele>1429.0</ele><time>2026-05-01T09:19:56.999Z</time></trkpt><trkpt lat="44.949899084701485" lon="6.782671404670513"><ele>1431.0</ele><time>2026-05-01T09:19:57.999Z</time></trkpt><trkpt lat="44.94985035290276" lon="6.782458588522752"><ele>1431.0</ele><time>2026-05-01T09:19:58.999Z</time></trkpt><trkpt lat="44.94978170948169" lon="6.782230909804752"><ele>1431.0</ele><time>2026-05-01T09:19:59.999Z</time></trkpt><trkpt lat="44.949709344139386" lon="6.78203904875505"><ele>1431.0</ele><time>2026-05-01T09:20:00.999Z</time></trkpt><trkpt lat="44.94963581468932" lon="6.781878488984285"><ele>1431.5</ele><time>2026-05-01T09:20:01.999Z</time></trkpt><trkpt lat="44.94955314752794" lon="6.781702204590654"><ele>1432.0</ele><time>2026-05-01T09:20:02.999Z</time></trkpt><trkpt lat="44.949490762724835" lon="6.7815508004693195"><ele>1432.5</ele><time>2026-05-01T09:20:03.999Z</time></trkpt><trkpt lat="44.949438412517395" lon="6.7814150770154225"><ele>1433.0</ele><time>2026-05-01T09:20:04.999Z</time></trkpt><trkpt lat="44.94939470215491" lon="6.781297779694449"><ele>1433.0</ele><time>2026-05-01T09:20:05.999Z</time></trkpt><trkpt lat="44.949326955489916" lon="6.781196949748167"><ele>1433.0</ele><time>2026-05-01T09:20:07.999Z</time></trkpt><trkpt lat="44.94926094384626" lon="6.781065749445923"><ele>1433.0</ele><time>2026-05-01T09:20:31.999Z</time></trkpt><trkpt lat="44.949213801278304" lon="6.780927805808897"><ele>1433.0</ele><time>2026-05-01T09:20:32.999Z</time></trkpt><trkpt lat="44.9491881802895" lon="6.780809399001704"><ele>1433.0</ele><time>2026-05-01T09:20:33.999Z</time></trkpt><trkpt lat="44.949145761424056" lon="6.780642910894617"><ele>1439.25</ele><time>2026-05-01T09:20:34.999Z</time></trkpt><trkpt lat="44.94910949211512" lon="6.78046873834525"><ele>1445.5</ele><time>2026-05-01T09:20:35.999Z</time></trkpt><trkpt lat="44.949058768766854" lon="6.780281412029585"><ele>1451.75</ele><time>2026-05-01T09:20:36.999Z</time></trkpt><trkpt lat="44.94898751042929" lon="6.780053608742504"><ele>1458.0</ele><time>2026-05-01T09:20:37.999Z</time></trkpt><trkpt lat="44.94893217069943" lon="6.779842017617643"><ele>1459.3333333333333</ele><time>2026-05-01T09:20:38.999Z</time></trkpt><trkpt lat="44.94884214591455" lon="6.779643911259458"><ele>1460.6666666666665</ele><time>2026-05-01T09:20:40Z</time></trkpt><trkpt lat="44.948726133794324" lon="6.779408643234333"><ele>1462.0</ele><time>2026-05-01T09:20:41Z</time></trkpt><trkpt lat="44.94855943612926" lon="6.779109408043675"><ele>1466.0</ele><time>2026-05-01T09:20:42Z</time></trkpt><trkpt lat="44.94845166529829" lon="6.778884107546293"><ele>1470.0</ele><time>2026-05-01T09:20:43Z</time></trkpt><trkpt lat="44.94835566879748" lon="6.778684791001303"><ele>1474.0</ele><time>2026-05-01T09:20:44Z</time></trkpt><trkpt lat="44.94827241034082" lon="6.778518214327725"><ele>1476.6666666666665</ele><time>2026-05-01T09:20:45Z</time></trkpt><trkpt lat="44.94815630146678" lon="6.778332601619881"><ele>1479.3333333333333</ele><time>2026-05-01T09:20:46Z</time></trkpt><trkpt lat="44.94802648531293" lon="6.778176311821226"><ele>1482.0</ele><time>2026-05-01T09:20:47Z</time></trkpt><trkpt lat="44.94791866049569" lon="6.778041956786884"><ele>1482.0</ele><time>2026-05-01T09:20:48Z</time></trkpt><trkpt lat="44.947792731283656" lon="6.7778917808035795"><ele>1482.0</ele><time>2026-05-01T09:20:49Z</time></trkpt><trkpt lat="44.947659634857885" lon="6.7778582159206096"><ele>1482.0</ele><time>2026-05-01T09:20:50Z</time></trkpt><trkpt lat="44.94755968780418" lon="6.777759060207697"><ele>1482.0</ele><time>2026-05-01T09:20:51Z</time></trkpt><trkpt lat="44.94746957170325" lon="6.777657130202375"><ele>1484.1999999999998</ele><time>2026-05-01T09:20:52Z</time></trkpt><trkpt lat="44.94737657354262" lon="6.777587608377225"><ele>1486.4</ele><time>2026-05-01T09:20:53Z</time></trkpt><trkpt lat="44.94728394302592" lon="6.777504237553595"><ele>1488.6</ele><time>2026-05-01T09:20:54Z</time></trkpt><trkpt lat="44.94722713990821" lon="6.777416204435578"><ele>1490.8000000000002</ele><time>2026-05-01T09:20:55Z</time></trkpt><trkpt lat="44.94713863466024" lon="6.7772925411525184"><ele>1493.0</ele><time>2026-05-01T09:20:56Z</time></trkpt><trkpt lat="44.947067374879886" lon="6.7771607792223225"><ele>1493.0</ele><time>2026-05-01T09:20:57Z</time></trkpt><trkpt lat="44.94703882133378" lon="6.776995914911895"><ele>1493.0</ele><time>2026-05-01T09:20:58Z</time></trkpt><trkpt lat="44.94703771947872" lon="6.776826889651983"><ele>1493.0</ele><time>2026-05-01T09:20:59Z</time></trkpt><trkpt lat="44.94704831614438" lon="6.77665535710313"><ele>1493.0</ele><time>2026-05-01T09:21:00Z</time></trkpt><trkpt lat="44.947055183499444" lon="6.776479044467216"><ele>1496.3333333333335</ele><time>2026-05-01T09:21:01Z</time></trkpt><trkpt lat="44.94706367132621" lon="6.776273520726467"><ele>1499.6666666666667</ele><time>2026-05-01T09:21:02Z</time></trkpt><trkpt lat="44.947072983813285" lon="6.776032544673138"><ele>1503.0</ele><time>2026-05-01T09:21:03Z</time></trkpt><trkpt lat="44.947081854095416" lon="6.775803011492928"><ele>1503.3333333333333</ele><time>2026-05-01T09:21:04Z</time></trkpt><trkpt lat="44.94707755080791" lon="6.77556390173587"><ele>1503.6666666666665</ele><time>2026-05-01T09:21:05Z</time></trkpt><trkpt lat="44.94712583571228" lon="6.775352734242733"><ele>1504.0</ele><time>2026-05-01T09:21:06Z</time></trkpt><trkpt lat="44.94713198103026" lon="6.775128757757485"><ele>1504.0</ele><time>2026-05-01T09:21:07Z</time></trkpt><trkpt lat="44.94713390521899" lon="6.774922531601364"><ele>1504.0</ele><time>2026-05-01T09:21:08Z</time></trkpt><trkpt lat="44.94714057896569" lon="6.77470441002106"><ele>1504.0</ele><time>2026-05-01T09:21:09Z</time></trkpt><trkpt lat="44.94714846755896" lon="6.774496445785834"><ele>1504.0</ele><time>2026-05-01T09:21:10Z</time></trkpt><trkpt lat="44.9471567827589" lon="6.774291801524642"><ele>1503.25</ele><time>2026-05-01T09:21:11Z</time></trkpt><trkpt lat="44.947169422304334" lon="6.774091385037"><ele>1502.5</ele><time>2026-05-01T09:21:12Z</time></trkpt><trkpt lat="44.94718395807414" lon="6.773918853222336"><ele>1501.75</ele><time>2026-05-01T09:21:13Z</time></trkpt><trkpt lat="44.94717803848478" lon="6.773756530832101"><ele>1501.0</ele><time>2026-05-01T09:21:14Z</time></trkpt><trkpt lat="44.94717138451672" lon="6.773577183565738"><ele>1501.0</ele><time>2026-05-01T09:21:15Z</time></trkpt><trkpt lat="44.94717906933238" lon="6.773389667789034"><ele>1501.0</ele><time>2026-05-01T09:21:16Z</time></trkpt><trkpt lat="44.9471926356153" lon="6.773217696044166"><ele>1501.0</ele><time>2026-05-01T09:21:17Z</time></trkpt><trkpt lat="44.94720789338979" lon="6.773034413479431"><ele>1501.0</ele><time>2026-05-01T09:21:18Z</time></trkpt><trkpt lat="44.947204235663435" lon="6.772831004622409"><ele>1502.0</ele><time>2026-05-01T09:21:19Z</time></trkpt><trkpt lat="44.947214451294045" lon="6.772662086177481"><ele>1503.0</ele><time>2026-05-01T09:21:20Z</time></trkpt><trkpt lat="44.947221237623374" lon="6.772495724737341"><ele>1504.0</ele><time>2026-05-01T09:21:21Z</time></trkpt><trkpt lat="44.94722696916737" lon="6.772360094472802"><ele>1505.0</ele><time>2026-05-01T09:21:22Z</time></trkpt><trkpt lat="44.94722609881515" lon="6.772243298396288"><ele>1506.0</ele><time>2026-05-01T09:21:23Z</time></trkpt><trkpt lat="44.947249337973744" lon="6.772142882280633"><ele>1506.0</ele><time>2026-05-01T09:21:24Z</time></trkpt><trkpt lat="44.94728993067245" lon="6.77205567288573"><ele>1506.0</ele><time>2026-05-01T09:21:25Z</time></trkpt><trkpt lat="44.947349875796505" lon="6.771923381777746"><ele>1506.0</ele><time>2026-05-01T09:21:26Z</time></trkpt><trkpt lat="44.94743859711118" lon="6.771854184737938"><ele>1506.0</ele><time>2026-05-01T09:21:27Z</time></trkpt><trkpt lat="44.94755220699237" lon="6.771770322321489"><ele>1506.0</ele><time>2026-05-01T09:21:28Z</time></trkpt><trkpt lat="44.94766613051419" lon="6.771778474993677"><ele>1511.0</ele><time>2026-05-01T09:21:29Z</time></trkpt><trkpt lat="44.947764901497074" lon="6.771773190405671"><ele>1516.0</ele><time>2026-05-01T09:21:30Z</time></trkpt><trkpt lat="44.94785742539475" lon="6.771852103897742"><ele>1521.0</ele><time>2026-05-01T09:21:31Z</time></trkpt><trkpt lat="44.947966012010255" lon="6.771956004217181"><ele>1526.0</ele><time>2026-05-01T09:21:32Z</time></trkpt><trkpt lat="44.94804390416306" lon="6.772083429809701"><ele>1526.0</ele><time>2026-05-01T09:21:33Z</time></trkpt><trkpt lat="44.9481274849652" lon="6.772213220332745"><ele>1526.0</ele><time>2026-05-01T09:21:34Z</time></trkpt><trkpt lat="44.948207150839735" lon="6.772334410501699"><ele>1526.0</ele><time>2026-05-01T09:21:35Z</time></trkpt><trkpt lat="44.948290169687446" lon="6.772460283986532"><ele>1526.0</ele><time>2026-05-01T09:21:36.019Z</time></trkpt><trkpt lat="44.948365850064654" lon="6.772575030850789"><ele>1530.75</ele><time>2026-05-01T09:21:37.015Z</time></trkpt><trkpt lat="44.94843918012634" lon="6.772689754873537"><ele>1535.5</ele><time>2026-05-01T09:21:38.02Z</time></trkpt><trkpt lat="44.948496612395495" lon="6.7727831222260475"><ele>1540.25</ele><time>2026-05-01T09:21:39.013Z</time></trkpt><trkpt lat="44.948553379528825" lon="6.772915551145279"><ele>1545.0</ele><time>2026-05-01T09:21:40.021Z</time></trkpt><trkpt lat="44.9490931498445" lon="6.775082598731709"><ele>1544.5</ele><time>2026-05-01T09:21:43.7Z</time></trkpt><trkpt lat="44.94920794230385" lon="6.775693478745561"><ele>1544.0</ele><time>2026-05-01T09:21:44.697Z</time></trkpt><trkpt lat="44.949285595203946" lon="6.776372898055058"><ele>1549.5</ele><time>2026-05-01T09:21:58.999Z</time></trkpt><trkpt lat="44.94947095465135" lon="6.7764679151633"><ele>1555.0</ele><time>2026-05-01T09:21:59.999Z</time></trkpt><trkpt lat="44.949537931587834" lon="6.776586239299008"><ele>1560.5</ele><time>2026-05-01T09:22:00.999Z</time></trkpt><trkpt lat="44.949592933970514" lon="6.776702773770882"><ele>1566.0</ele><time>2026-05-01T09:22:01.999Z</time></trkpt><trkpt lat="44.949647557962294" lon="6.776815961211795"><ele>1566.4</ele><time>2026-05-01T09:22:02.999Z</time></trkpt><trkpt lat="44.949709426715486" lon="6.776925633259633"><ele>1566.8</ele><time>2026-05-01T09:22:03.999Z</time></trkpt><trkpt lat="44.949792516856895" lon="6.777024448609661"><ele>1567.2</ele><time>2026-05-01T09:22:04.999Z</time></trkpt><trkpt lat="44.94987995761281" lon="6.777143621358144"><ele>1567.6000000000001</ele><time>2026-05-01T09:22:05.999Z</time></trkpt><trkpt lat="44.949963691162246" lon="6.777261687009519"><ele>1568.0</ele><time>2026-05-01T09:22:06.999Z</time></trkpt><trkpt lat="44.950051358758806" lon="6.777372649699818"><ele>1568.0</ele><time>2026-05-01T09:22:07.999Z</time></trkpt><trkpt lat="44.9501443456837" lon="6.777488578324505"><ele>1568.0</ele><time>2026-05-01T09:22:08.999Z</time></trkpt><trkpt lat="44.95024990563106" lon="6.7775509083236285"><ele>1568.0</ele><time>2026-05-01T09:22:09.999Z</time></trkpt><trkpt lat="44.95042909084716" lon="6.777492364183179"><ele>1568.0</ele><time>2026-05-01T09:22:10.999Z</time></trkpt><trkpt lat="44.95055608224462" lon="6.777505364717427"><ele>1568.0</ele><time>2026-05-01T09:22:11.999Z</time></trkpt><trkpt lat="44.95068146870689" lon="6.777503809754044"><ele>1568.0</ele><time>2026-05-01T09:22:12.999Z</time></trkpt><trkpt lat="44.95081854576821" lon="6.777562078616864"><ele>1568.0</ele><time>2026-05-01T09:22:13.999Z</time></trkpt><trkpt lat="44.950955845219156" lon="6.777634698392136"><ele>1568.0</ele><time>2026-05-01T09:22:14.999Z</time></trkpt><trkpt lat="44.95104716939667" lon="6.777728774395815"><ele>1567.75</ele><time>2026-05-01T09:22:15.999Z</time></trkpt><trkpt lat="44.95113787049786" lon="6.777818946193244"><ele>1567.5</ele><time>2026-05-01T09:22:16.999Z</time></trkpt><trkpt lat="44.951226177201015" lon="6.777907630788083"><ele>1567.25</ele><time>2026-05-01T09:22:17.999Z</time></trkpt><trkpt lat="44.95132268511542" lon="6.778007967013472"><ele>1567.0</ele><time>2026-05-01T09:22:18.999Z</time></trkpt><trkpt lat="44.951417306718135" lon="6.778115079859408"><ele>1567.0</ele><time>2026-05-01T09:22:19.999Z</time></trkpt><trkpt lat="44.951498610264714" lon="6.778219258789692"><ele>1567.0</ele><time>2026-05-01T09:22:20.999Z</time></trkpt><trkpt lat="44.951576257887105" lon="6.7783522487573995"><ele>1567.0</ele><time>2026-05-01T09:22:21.999Z</time></trkpt><trkpt lat="44.951636563466444" lon="6.778492494874355"><ele>1567.0</ele><time>2026-05-01T09:22:22.999Z</time></trkpt><trkpt lat="44.95167863215363" lon="6.778620916462593"><ele>1567.0</ele><time>2026-05-01T09:22:23.999Z</time></trkpt><trkpt lat="44.951712961431944" lon="6.778749211290158"><ele>1571.5000000000002</ele><time>2026-05-01T09:22:24.999Z</time></trkpt><trkpt lat="44.951741030661225" lon="6.778859908624025"><ele>1576.0</ele><time>2026-05-01T09:22:25.999Z</time></trkpt><trkpt lat="44.95177373857806" lon="6.778974663119202"><ele>1580.5</ele><time>2026-05-01T09:22:26.999Z</time></trkpt><trkpt lat="44.95182161612875" lon="6.779064908738292"><ele>1585.0</ele><time>2026-05-01T09:22:27.999Z</time></trkpt><trkpt lat="44.95185330623229" lon="6.779158644184253"><ele>1589.5000000000002</ele><time>2026-05-01T09:22:28.999Z</time></trkpt><trkpt lat="44.951889196753925" lon="6.7792367299426814"><ele>1594.0</ele><time>2026-05-01T09:22:29.999Z</time></trkpt><trkpt lat="44.95199078017099" lon="6.779209952011739"><ele>1594.0</ele><time>2026-05-01T09:22:31.999Z</time></trkpt><trkpt lat="44.95204828609613" lon="6.779161294783258"><ele>1594.0</ele><time>2026-05-01T09:22:32.999Z</time></trkpt><trkpt lat="44.95212525891281" lon="6.779120696628992"><ele>1594.0</ele><time>2026-05-01T09:22:33.999Z</time></trkpt><trkpt lat="44.9521588439275" lon="6.778876330468199"><ele>1594.0</ele><time>2026-05-01T09:22:35.999Z</time></trkpt><trkpt lat="44.95207574782717" lon="6.7785484504232185"><ele>1596.75</ele><time>2026-05-01T09:22:36.999Z</time></trkpt><trkpt lat="44.952017446447144" lon="6.778332943468314"><ele>1599.5</ele><time>2026-05-01T09:22:37.999Z</time></trkpt><trkpt lat="44.95190418879792" lon="6.778134612380371"><ele>1602.25</ele><time>2026-05-01T09:22:38.999Z</time></trkpt><trkpt lat="44.95184343942761" lon="6.778021309859902"><ele>1605.0</ele><time>2026-05-01T09:22:39.999Z</time></trkpt><trkpt lat="44.95176087569355" lon="6.777908419444119"><ele>1603.6</ele><time>2026-05-01T09:22:40.999Z</time></trkpt><trkpt lat="44.95166637928666" lon="6.7778002303447575"><ele>1602.2</ele><time>2026-05-01T09:22:41.999Z</time></trkpt><trkpt lat="44.95157652123398" lon="6.77769406979579"><ele>1600.8000000000002</ele><time>2026-05-01T09:22:42.999Z</time></trkpt><trkpt lat="44.951490452778174" lon="6.777589459855892"><ele>1599.4</ele><time>2026-05-01T09:22:43.999Z</time></trkpt><trkpt lat="44.951425852808605" lon="6.777500328106726"><ele>1598.0</ele><time>2026-05-01T09:22:44.999Z</time></trkpt><trkpt lat="44.95136143426834" lon="6.777431330881484"><ele>1598.0</ele><time>2026-05-01T09:22:46Z</time></trkpt><trkpt lat="44.95128533019953" lon="6.777351472273395"><ele>1598.0</ele><time>2026-05-01T09:22:47Z</time></trkpt><trkpt lat="44.951212054482355" lon="6.777252297611658"><ele>1598.0</ele><time>2026-05-01T09:22:48Z</time></trkpt><trkpt lat="44.9511397183485" lon="6.777137850042088"><ele>1598.0</ele><time>2026-05-01T09:22:49Z</time></trkpt><trkpt lat="44.95106345535523" lon="6.777037987786798"><ele>1598.0</ele><time>2026-05-01T09:22:50Z</time></trkpt><trkpt lat="44.951007081961016" lon="6.776917978189167"><ele>1597.6000000000001</ele><time>2026-05-01T09:22:51Z</time></trkpt><trkpt lat="44.95095616419676" lon="6.776806920974009"><ele>1597.2</ele><time>2026-05-01T09:22:52Z</time></trkpt><trkpt lat="44.95089671787122" lon="6.776669499394152"><ele>1596.8</ele><time>2026-05-01T09:22:53Z</time></trkpt><trkpt lat="44.95084640599132" lon="6.776532185864795"><ele>1596.4</ele><time>2026-05-01T09:22:54Z</time></trkpt><trkpt lat="44.95080864329586" lon="6.776386405370275"><ele>1596.0</ele><time>2026-05-01T09:22:55Z</time></trkpt><trkpt lat="44.95078674174179" lon="6.77623244917228"><ele>1596.0</ele><time>2026-05-01T09:22:56Z</time></trkpt><trkpt lat="44.95076228017193" lon="6.776073496082817"><ele>1596.0</ele><time>2026-05-01T09:22:57Z</time></trkpt><trkpt lat="44.95074111800672" lon="6.775909711416788"><ele>1596.0</ele><time>2026-05-01T09:22:58Z</time></trkpt><trkpt lat="44.950737293720636" lon="6.775735478362671"><ele>1596.0</ele><time>2026-05-01T09:22:59Z</time></trkpt><trkpt lat="44.95074291206376" lon="6.7755778786928955"><ele>1597.8</ele><time>2026-05-01T09:23:00Z</time></trkpt><trkpt lat="44.950755140816305" lon="6.775422945335719"><ele>1599.6</ele><time>2026-05-01T09:23:01Z</time></trkpt><trkpt lat="44.95078597316797" lon="6.77527645619453"><ele>1601.4</ele><time>2026-05-01T09:23:02Z</time></trkpt><trkpt lat="44.950815427989326" lon="6.77512496441013"><ele>1603.2</ele><time>2026-05-01T09:23:03Z</time></trkpt><trkpt lat="44.95084697108304" lon="6.77496505848997"><ele>1605.0</ele><time>2026-05-01T09:23:04Z</time></trkpt><trkpt lat="44.950874260686" lon="6.7748022485133115"><ele>1620.0</ele><time>2026-05-01T09:23:05.014Z</time></trkpt><trkpt lat="44.950903688221686" lon="6.774635369122854"><ele>1635.0</ele><time>2026-05-01T09:23:06.021Z</time></trkpt><trkpt lat="44.95114965650735" lon="6.774551603885495"><ele>1650.0</ele><time>2026-05-01T09:23:08.017Z</time></trkpt><trkpt lat="44.95121422958607" lon="6.77446077703035"><ele>1742.0</ele><time>2026-05-01T09:23:09.014Z</time></trkpt><trkpt lat="44.952260649410235" lon="6.772660933506216"><ele>1742.0</ele><time>2026-05-01T09:23:12.696Z</time></trkpt><trkpt lat="44.95238781720706" lon="6.772054994902995"><ele>1742.0</ele><time>2026-05-01T09:23:13.695Z</time></trkpt><trkpt lat="44.95245351041029" lon="6.7714265665581745"><ele>1770.0</ele><time>2026-05-01T09:23:14.699Z</time></trkpt><trkpt lat="44.952462291655785" lon="6.770793512255104"><ele>1798.0</ele><time>2026-05-01T09:23:15.699Z</time></trkpt><trkpt lat="44.95241145587349" lon="6.770166741220428"><ele>1808.0</ele><time>2026-05-01T09:23:16.695Z</time></trkpt><trkpt lat="44.952305150609554" lon="6.76955181458593"><ele>1818.0</ele><time>2026-05-01T09:23:17.694Z</time></trkpt><trkpt lat="44.95214836577641" lon="6.768955338205642"><ele>1841.5</ele><time>2026-05-01T09:23:18.699Z</time></trkpt><trkpt lat="44.95194543916402" lon="6.768392329401384"><ele>1865.0</ele><time>2026-05-01T09:23:19.696Z</time></trkpt><trkpt lat="44.951713917068695" lon="6.767849614341465"><ele>1863.0</ele><time>2026-05-01T09:23:20.695Z</time></trkpt><trkpt lat="44.9515967" lon="6.7675781"><ele>1861.0</ele><time>2026-05-01T09:23:21.697Z</time></trkpt><trkpt lat="44.94338645910612" lon="6.75868486335163"><ele>1742.0</ele><time>2026-05-01T09:25:01.999Z</time></trkpt><trkpt lat="44.94298116608705" lon="6.759046413903006"><ele>1742.0</ele><time>2026-05-01T09:25:02.999Z</time></trkpt><trkpt lat="44.942896060894036" lon="6.758947448200468"><ele>1741.9999999999998</ele><time>2026-05-01T09:25:03.999Z</time></trkpt><trkpt lat="44.9428332245599" lon="6.758890505283576"><ele>1741.9999999999998</ele><time>2026-05-01T09:25:04.999Z</time></trkpt><trkpt lat="44.94277699626965" lon="6.758825904835484"><ele>1742.0</ele><time>2026-05-01T09:25:05.999Z</time></trkpt><trkpt lat="44.94270866427744" lon="6.758739582974498"><ele>1742.0</ele><time>2026-05-01T09:25:07Z</time></trkpt><trkpt lat="44.94261054857256" lon="6.758659308420383"><ele>1742.3333333333333</ele><time>2026-05-01T09:25:08Z</time></trkpt><trkpt lat="44.94252312674449" lon="6.758578437592209"><ele>1742.6666666666665</ele><time>2026-05-01T09:25:09Z</time></trkpt><trkpt lat="44.94245586976282" lon="6.7585167554194205"><ele>1743.0</ele><time>2026-05-01T09:25:10Z</time></trkpt><trkpt lat="44.94238930814799" lon="6.7584655471391875"><ele>1743.3333333333335</ele><time>2026-05-01T09:25:11Z</time></trkpt><trkpt lat="44.94232469113369" lon="6.758385327611131"><ele>1743.6666666666667</ele><time>2026-05-01T09:25:12Z</time></trkpt><trkpt lat="44.942259733656236" lon="6.758301411795719"><ele>1744.0</ele><time>2026-05-01T09:25:13Z</time></trkpt><trkpt lat="44.94220964990749" lon="6.758209495695109"><ele>1744.8333333333335</ele><time>2026-05-01T09:25:14Z</time></trkpt><trkpt lat="44.94215513972156" lon="6.758132437380266"><ele>1745.6666666666667</ele><time>2026-05-01T09:25:15Z</time></trkpt><trkpt lat="44.942123686133776" lon="6.758028901528014"><ele>1746.5</ele><time>2026-05-01T09:25:16Z</time></trkpt><trkpt lat="44.94211781414085" lon="6.75790293641561"><ele>1747.3333333333335</ele><time>2026-05-01T09:25:17Z</time></trkpt><trkpt lat="44.94211333158941" lon="6.757785313298523"><ele>1748.1666666666667</ele><time>2026-05-01T09:25:18Z</time></trkpt><trkpt lat="44.942113710838036" lon="6.757650593005249"><ele>1749.0</ele><time>2026-05-01T09:25:19Z</time></trkpt><trkpt lat="44.9421087732974" lon="6.7575255081418355"><ele>1752.4</ele><time>2026-05-01T09:25:20Z</time></trkpt><trkpt lat="44.94210217434869" lon="6.757407231631713"><ele>1755.8000000000002</ele><time>2026-05-01T09:25:21Z</time></trkpt><trkpt lat="44.94210561431754" lon="6.7572845014868514"><ele>1759.1999999999998</ele><time>2026-05-01T09:25:22Z</time></trkpt><trkpt lat="44.94211668452798" lon="6.757128751661306"><ele>1762.6</ele><time>2026-05-01T09:25:23Z</time></trkpt><trkpt lat="44.94212722036221" lon="6.756949244288342"><ele>1766.0</ele><time>2026-05-01T09:25:24Z</time></trkpt><trkpt lat="44.94212971406306" lon="6.756787704158864"><ele>1770.0</ele><time>2026-05-01T09:25:25Z</time></trkpt><trkpt lat="44.94227881782282" lon="6.756595089996871"><ele>1774.0</ele><time>2026-05-01T09:25:26Z</time></trkpt><trkpt lat="44.94229215922407" lon="6.756463400092601"><ele>1778.0</ele><time>2026-05-01T09:25:27Z</time></trkpt><trkpt lat="44.94231153606991" lon="6.756340888637522"><ele>1782.0</ele><time>2026-05-01T09:25:28Z</time></trkpt><trkpt lat="44.94232545003525" lon="6.756207029553404"><ele>1788.0</ele><time>2026-05-01T09:25:29Z</time></trkpt><trkpt lat="44.94231111312299" lon="6.755875799150489"><ele>1794.0</ele><time>2026-05-01T09:25:30Z</time></trkpt><trkpt lat="44.94232315563954" lon="6.755698802134914"><ele>1800.0</ele><time>2026-05-01T09:25:31Z</time></trkpt><trkpt lat="44.942333901438204" lon="6.7555399957147495"><ele>1793.0</ele><time>2026-05-01T09:25:32.021Z</time></trkpt><trkpt lat="44.9364987854333" lon="6.745264073840105"><ele>1799.0</ele><time>2026-05-01T09:26:43.999Z</time></trkpt><trkpt lat="44.93640697604452" lon="6.745151184716932"><ele>1805.0</ele><time>2026-05-01T09:26:44.999Z</time></trkpt><trkpt lat="44.93603557296644" lon="6.745134781716977"><ele>1805.0</ele><time>2026-05-01T09:26:45.999Z</time></trkpt><trkpt lat="44.93593799293738" lon="6.74501304544515"><ele>1805.0</ele><time>2026-05-01T09:26:46.999Z</time></trkpt><trkpt lat="44.93585837642582" lon="6.7447856087722915"><ele>1805.0</ele><time>2026-05-01T09:26:47.999Z</time></trkpt><trkpt lat="44.93577504045796" lon="6.7446096823726975"><ele>1803.2</ele><time>2026-05-01T09:26:48.999Z</time></trkpt><trkpt lat="44.9356914630101" lon="6.744478036229657"><ele>1801.4</ele><time>2026-05-01T09:26:49.999Z</time></trkpt><trkpt lat="44.93561955974119" lon="6.744350770768418"><ele>1799.6</ele><time>2026-05-01T09:26:50.999Z</time></trkpt><trkpt lat="44.935559966531955" lon="6.744225367002547"><ele>1797.8</ele><time>2026-05-01T09:26:51.999Z</time></trkpt><trkpt lat="44.93549199693966" lon="6.7441204411600095"><ele>1796.0</ele><time>2026-05-01T09:26:52.999Z</time></trkpt><trkpt lat="44.935472759671654" lon="6.743961309282178"><ele>1796.0</ele><time>2026-05-01T09:26:53.999Z</time></trkpt><trkpt lat="44.93543040791842" lon="6.743811174570127"><ele>1796.0</ele><time>2026-05-01T09:26:54.999Z</time></trkpt><trkpt lat="44.935406888580346" lon="6.743632563108578"><ele>1796.0</ele><time>2026-05-01T09:26:55.999Z</time></trkpt><trkpt lat="44.93540139346075" lon="6.743461568206215"><ele>1796.0</ele><time>2026-05-01T09:26:56.999Z</time></trkpt><trkpt lat="44.93542935950469" lon="6.7432916790502055"><ele>1797.5</ele><time>2026-05-01T09:26:57.999Z</time></trkpt><trkpt lat="44.93543569057805" lon="6.743095294716315"><ele>1799.0</ele><time>2026-05-01T09:26:58.999Z</time></trkpt><trkpt lat="44.93542368913113" lon="6.742911241040402"><ele>1800.5</ele><time>2026-05-01T09:26:59.999Z</time></trkpt><trkpt lat="44.93539555394761" lon="6.742748217562343"><ele>1802.0</ele><time>2026-05-01T09:27:00.999Z</time></trkpt><trkpt lat="44.935338151772875" lon="6.742606562946793"><ele>1801.75</ele><time>2026-05-01T09:27:01.999Z</time></trkpt><trkpt lat="44.9352300651287" lon="6.74250627751701"><ele>1801.5</ele><time>2026-05-01T09:27:02.999Z</time></trkpt><trkpt lat="44.9351380020239" lon="6.742389041197762"><ele>1801.25</ele><time>2026-05-01T09:27:03.999Z</time></trkpt><trkpt lat="44.93503595263175" lon="6.74234932513101"><ele>1801.0</ele><time>2026-05-01T09:27:04.999Z</time></trkpt><trkpt lat="44.93492051617759" lon="6.742296940144965"><ele>1801.0</ele><time>2026-05-01T09:27:05.999Z</time></trkpt><trkpt lat="44.934735223146646" lon="6.742221948207082"><ele>1801.0</ele><time>2026-05-01T09:27:06.999Z</time></trkpt><trkpt lat="44.934600520084885" lon="6.742168203306988"><ele>1801.0</ele><time>2026-05-01T09:27:07.999Z</time></trkpt><trkpt lat="44.93447283788957" lon="6.742122162277305"><ele>1801.0</ele><time>2026-05-01T09:27:08.999Z</time></trkpt><trkpt lat="44.934335438678" lon="6.742036516842221"><ele>1801.0</ele><time>2026-05-01T09:27:09.999Z</time></trkpt><trkpt lat="44.93423851457406" lon="6.7419431010806425"><ele>1801.0</ele><time>2026-05-01T09:27:10.999Z</time></trkpt><trkpt lat="44.93415386231111" lon="6.741780575425969"><ele>1801.0</ele><time>2026-05-01T09:27:11.999Z</time></trkpt><trkpt lat="44.93410541307463" lon="6.741607063302744"><ele>1803.0</ele><time>2026-05-01T09:27:13Z</time></trkpt><trkpt lat="44.93407253994284" lon="6.741392313198595"><ele>1805.0</ele><time>2026-05-01T09:27:14Z</time></trkpt><trkpt lat="44.93403826259389" lon="6.741199376193309"><ele>1807.0</ele><time>2026-05-01T09:27:15Z</time></trkpt><trkpt lat="44.93400354494446" lon="6.741025872462174"><ele>1809.0</ele><time>2026-05-01T09:27:16Z</time></trkpt><trkpt lat="44.93396569695859" lon="6.7408592690801505"><ele>1811.0</ele><time>2026-05-01T09:27:17Z</time></trkpt><trkpt lat="44.93392209123885" lon="6.740711645313642"><ele>1813.0</ele><time>2026-05-01T09:27:18Z</time></trkpt><trkpt lat="44.93387869377314" lon="6.740576631050422"><ele>1815.0</ele><time>2026-05-01T09:27:19Z</time></trkpt><trkpt lat="44.93383659658068" lon="6.740448406812954"><ele>1817.0</ele><time>2026-05-01T09:27:20Z</time></trkpt><trkpt lat="44.93379062460679" lon="6.740308330214549"><ele>1819.0</ele><time>2026-05-01T09:27:21Z</time></trkpt><trkpt lat="44.93374977323429" lon="6.7401817470529535"><ele>1820.8000000000002</ele><time>2026-05-01T09:27:22Z</time></trkpt><trkpt lat="44.93370722602041" lon="6.740044129022863"><ele>1822.6000000000001</ele><time>2026-05-01T09:27:23Z</time></trkpt><trkpt lat="44.933671924755544" lon="6.739911627547368"><ele>1824.4</ele><time>2026-05-01T09:27:24Z</time></trkpt><trkpt lat="44.93364269212584" lon="6.739768643992149"><ele>1826.2</ele><time>2026-05-01T09:27:25Z</time></trkpt><trkpt lat="44.933630188242674" lon="6.739601414809155"><ele>1828.0</ele><time>2026-05-01T09:27:26Z</time></trkpt><trkpt lat="44.93360153146929" lon="6.739444039491458"><ele>1829.75</ele><time>2026-05-01T09:27:27Z</time></trkpt><trkpt lat="44.93358118819017" lon="6.739271415943307"><ele>1831.5</ele><time>2026-05-01T09:27:28Z</time></trkpt><trkpt lat="44.93356664849154" lon="6.739102400546527"><ele>1833.25</ele><time>2026-05-01T09:27:29Z</time></trkpt><trkpt lat="44.933560795669564" lon="6.738931938951799"><ele>1835.0</ele><time>2026-05-01T09:27:30Z</time></trkpt><trkpt lat="44.93354874986598" lon="6.738750621184505"><ele>1835.0</ele><time>2026-05-01T09:27:31Z</time></trkpt><trkpt lat="44.933538168212245" lon="6.738604184758497"><ele>1835.0</ele><time>2026-05-01T09:27:32Z</time></trkpt><trkpt lat="44.93351580862779" lon="6.738446847858559"><ele>1835.0</ele><time>2026-05-01T09:27:33Z</time></trkpt><trkpt lat="44.93348396353534" lon="6.738284585402696"><ele>1835.0</ele><time>2026-05-01T09:27:34Z</time></trkpt><trkpt lat="44.93344163636208" lon="6.738109712278195"><ele>1832.5</ele><time>2026-05-01T09:27:35Z</time></trkpt><trkpt lat="44.933409210558274" lon="6.73791968973477"><ele>1830.0</ele><time>2026-05-01T09:27:36Z</time></trkpt><trkpt lat="44.933365524181745" lon="6.737756832663262"><ele>1827.5</ele><time>2026-05-01T09:27:37Z</time></trkpt><trkpt lat="44.93333674204032" lon="6.737592248369084"><ele>1825.0</ele><time>2026-05-01T09:27:38Z</time></trkpt><trkpt lat="44.93331099564609" lon="6.737452230449147"><ele>1825.0</ele><time>2026-05-01T09:27:39Z</time></trkpt><trkpt lat="44.9332916535321" lon="6.737328517800587"><ele>1825.0</ele><time>2026-05-01T09:27:40Z</time></trkpt><trkpt lat="44.93326217824832" lon="6.737214610364268"><ele>1825.0</ele><time>2026-05-01T09:27:41Z</time></trkpt><trkpt lat="44.93322562579018" lon="6.737111033971658"><ele>1825.0</ele><time>2026-05-01T09:27:42Z</time></trkpt><trkpt lat="44.9331969801222" lon="6.736983395940315"><ele>1825.0</ele><time>2026-05-01T09:27:43Z</time></trkpt><trkpt lat="44.9331600327271" lon="6.736847997578622"><ele>1827.5</ele><time>2026-05-01T09:27:44Z</time></trkpt><trkpt lat="44.93312880437351" lon="6.736696586766424"><ele>1830.0</ele><time>2026-05-01T09:27:45Z</time></trkpt><trkpt lat="44.93309889499047" lon="6.736547076276804"><ele>1832.5</ele><time>2026-05-01T09:27:46Z</time></trkpt><trkpt lat="44.93307937961343" lon="6.736391907259183"><ele>1835.0</ele><time>2026-05-01T09:27:47Z</time></trkpt><trkpt lat="44.9330529424011" lon="6.736206199924081"><ele>1836.6666666666665</ele><time>2026-05-01T09:27:48Z</time></trkpt><trkpt lat="44.93305650716722" lon="6.736021660472277"><ele>1838.3333333333335</ele><time>2026-05-01T09:27:49Z</time></trkpt><trkpt lat="44.933081514954935" lon="6.735808816712386"><ele>1840.0</ele><time>2026-05-01T09:27:50Z</time></trkpt><trkpt lat="44.93310910022747" lon="6.735571541900406"><ele>1840.0</ele><time>2026-05-01T09:27:51Z</time></trkpt><trkpt lat="44.93310903622701" lon="6.735378423513837"><ele>1840.0</ele><time>2026-05-01T09:27:52Z</time></trkpt><trkpt lat="44.933124450692915" lon="6.735204353123093"><ele>1840.0</ele><time>2026-05-01T09:27:53Z</time></trkpt><trkpt lat="44.933142892038184" lon="6.735034562055942"><ele>1840.0</ele><time>2026-05-01T09:27:54Z</time></trkpt><trkpt lat="44.933163670326024" lon="6.734895178329175"><ele>1840.1666666666667</ele><time>2026-05-01T09:27:55Z</time></trkpt><trkpt lat="44.93319472526112" lon="6.734789289734326"><ele>1840.3333333333335</ele><time>2026-05-01T09:27:56Z</time></trkpt><trkpt lat="44.93321739534105" lon="6.734677614271292"><ele>1840.5</ele><time>2026-05-01T09:27:57Z</time></trkpt><trkpt lat="44.93325807497961" lon="6.7345625240071945"><ele>1840.6666666666665</ele><time>2026-05-01T09:27:58Z</time></trkpt><trkpt lat="44.933322696735004" lon="6.7344732967923555"><ele>1840.8333333333333</ele><time>2026-05-01T09:27:59Z</time></trkpt><trkpt lat="44.93336472907401" lon="6.734396294945499"><ele>1841.0</ele><time>2026-05-01T09:28:00Z</time></trkpt><trkpt lat="44.93340681646999" lon="6.734324711675535"><ele>1842.4</ele><time>2026-05-01T09:28:01Z</time></trkpt><trkpt lat="44.93347751268324" lon="6.734205148011168"><ele>1843.8</ele><time>2026-05-01T09:28:03Z</time></trkpt><trkpt lat="44.93355068380067" lon="6.734102929752224"><ele>1845.2000000000003</ele><time>2026-05-01T09:28:05Z</time></trkpt><trkpt lat="44.93359537847196" lon="6.734015588685621"><ele>1846.6000000000001</ele><time>2026-05-01T09:28:07Z</time></trkpt><trkpt lat="44.93365058174562" lon="6.733931475935086"><ele>1848.0</ele><time>2026-05-01T09:28:09Z</time></trkpt><trkpt lat="44.93369949684577" lon="6.7338359210231635"><ele>1848.0</ele><time>2026-05-01T09:28:11Z</time></trkpt><trkpt lat="44.93377457357286" lon="6.733737053917998"><ele>1848.0</ele><time>2026-05-01T09:28:13Z</time></trkpt><trkpt lat="44.93383296624648" lon="6.733703693037744"><ele>1848.0</ele><time>2026-05-01T09:28:14Z</time></trkpt><trkpt lat="44.933860652118085" lon="6.73362243607289"><ele>1848.0</ele><time>2026-05-01T09:28:15Z</time></trkpt><trkpt lat="44.93390547388543" lon="6.7334556530863345"><ele>1848.0</ele><time>2026-05-01T09:28:17Z</time></trkpt><trkpt lat="44.93392701062295" lon="6.733347170811654"><ele>1848.0</ele><time>2026-05-01T09:28:18Z</time></trkpt><trkpt lat="44.93394967299413" lon="6.733186809238009"><ele>1848.0</ele><time>2026-05-01T09:28:19Z</time></trkpt><trkpt lat="44.93396416940601" lon="6.733073210551686"><ele>1848.0000000000002</ele><time>2026-05-01T09:28:20Z</time></trkpt><trkpt lat="44.9339727654739" lon="6.732947799089034"><ele>1848.0000000000002</ele><time>2026-05-01T09:28:21Z</time></trkpt><trkpt lat="44.9340089526963" lon="6.732832771846621"><ele>1848.0</ele><time>2026-05-01T09:28:22Z</time></trkpt><trkpt lat="44.93404837519362" lon="6.732690945379302"><ele>1848.0</ele><time>2026-05-01T09:28:23Z</time></trkpt><trkpt lat="44.934083943260156" lon="6.732567327610696"><ele>1847.6000000000001</ele><time>2026-05-01T09:28:24Z</time></trkpt><trkpt lat="44.93411920623705" lon="6.732432711347199"><ele>1847.2000000000003</ele><time>2026-05-01T09:28:25Z</time></trkpt><trkpt lat="44.93416074319997" lon="6.732286769002834"><ele>1846.8</ele><time>2026-05-01T09:28:26Z</time></trkpt><trkpt lat="44.93419107146307" lon="6.732136762421823"><ele>1846.4</ele><time>2026-05-01T09:28:27Z</time></trkpt><trkpt lat="44.93421772336182" lon="6.731998693924682"><ele>1846.0</ele><time>2026-05-01T09:28:28Z</time></trkpt><trkpt lat="44.93424455034304" lon="6.731855595774344"><ele>1846.0</ele><time>2026-05-01T09:28:28.999Z</time></trkpt><trkpt lat="44.93426379718425" lon="6.73169929917427"><ele>1846.0</ele><time>2026-05-01T09:28:29.999Z</time></trkpt><trkpt lat="44.934272110719725" lon="6.731584121872552"><ele>1846.0</ele><time>2026-05-01T09:28:30.999Z</time></trkpt><trkpt lat="44.93426323793459" lon="6.731467621929823"><ele>1846.0</ele><time>2026-05-01T09:28:31.999Z</time></trkpt><trkpt lat="44.93425568221996" lon="6.731341519929166"><ele>1846.0</ele><time>2026-05-01T09:28:32.999Z</time></trkpt><trkpt lat="44.93420883688052" lon="6.731214868605798"><ele>1846.6666666666667</ele><time>2026-05-01T09:28:33.999Z</time></trkpt><trkpt lat="44.934138579390925" lon="6.730995065291173"><ele>1847.3333333333335</ele><time>2026-05-01T09:28:34.999Z</time></trkpt><trkpt lat="44.93403045127246" lon="6.730820955911358"><ele>1848.0</ele><time>2026-05-01T09:28:35.999Z</time></trkpt><trkpt lat="44.933984702092324" lon="6.730663792284152"><ele>1848.0</ele><time>2026-05-01T09:28:36.999Z</time></trkpt><trkpt lat="44.933941642878494" lon="6.730527677001725"><ele>1848.0000000000002</ele><time>2026-05-01T09:28:37.999Z</time></trkpt><trkpt lat="44.93389803079471" lon="6.73040348153202"><ele>1848.0000000000002</ele><time>2026-05-01T09:28:38.999Z</time></trkpt><trkpt lat="44.93386285421065" lon="6.730294805566623"><ele>1848.0</ele><time>2026-05-01T09:28:39.999Z</time></trkpt><trkpt lat="44.93383536339228" lon="6.730179406763311"><ele>1848.0</ele><time>2026-05-01T09:28:40.999Z</time></trkpt><trkpt lat="44.933795125353384" lon="6.730069234016407"><ele>1849.2</ele><time>2026-05-01T09:28:41.999Z</time></trkpt><trkpt lat="44.93374500806697" lon="6.729933519309111"><ele>1850.4</ele><time>2026-05-01T09:28:42.999Z</time></trkpt><trkpt lat="44.93369563872925" lon="6.729802490845017"><ele>1851.6000000000001</ele><time>2026-05-01T09:28:43.999Z</time></trkpt><trkpt lat="44.93365333465826" lon="6.729661856628021"><ele>1852.8000000000002</ele><time>2026-05-01T09:28:44.999Z</time></trkpt><trkpt lat="44.93360322472269" lon="6.729527072614431"><ele>1854.0</ele><time>2026-05-01T09:28:45.999Z</time></trkpt><trkpt lat="44.93355230300599" lon="6.729402837972964"><ele>1854.6</ele><time>2026-05-01T09:28:46.999Z</time></trkpt><trkpt lat="44.93350494808071" lon="6.729271259205657"><ele>1855.2</ele><time>2026-05-01T09:28:47.999Z</time></trkpt><trkpt lat="44.9334562803209" lon="6.729128225439061"><ele>1855.7999999999997</ele><time>2026-05-01T09:28:48.999Z</time></trkpt><trkpt lat="44.93339637647115" lon="6.728981319691588"><ele>1856.3999999999999</ele><time>2026-05-01T09:28:49.999Z</time></trkpt><trkpt lat="44.933336568855424" lon="6.72885409122771"><ele>1857.0</ele><time>2026-05-01T09:28:50.999Z</time></trkpt><trkpt lat="44.9332814095033" lon="6.72873918099556"><ele>1856.1666666666667</ele><time>2026-05-01T09:28:51.999Z</time></trkpt><trkpt lat="44.933222342889344" lon="6.7286431543538745"><ele>1855.3333333333335</ele><time>2026-05-01T09:28:52.999Z</time></trkpt><trkpt lat="44.93316526116238" lon="6.728555759201931"><ele>1854.5</ele><time>2026-05-01T09:28:53.999Z</time></trkpt><trkpt lat="44.933118716122245" lon="6.728469353775574"><ele>1853.6666666666667</ele><time>2026-05-01T09:28:54.999Z</time></trkpt><trkpt lat="44.93307351590339" lon="6.728405358628615"><ele>1852.8333333333335</ele><time>2026-05-01T09:28:55.999Z</time></trkpt><trkpt lat="44.933027604802774" lon="6.728326488104089"><ele>1852.0</ele><time>2026-05-01T09:28:56.999Z</time></trkpt><trkpt lat="44.9329886704569" lon="6.728242635357214"><ele>1852.0000000000002</ele><time>2026-05-01T09:28:57.999Z</time></trkpt><trkpt lat="44.93295979671033" lon="6.7281595631703786"><ele>1852.0</ele><time>2026-05-01T09:28:58.999Z</time></trkpt><trkpt lat="44.93293884215203" lon="6.728059131765576"><ele>1852.0</ele><time>2026-05-01T09:28:59.999Z</time></trkpt><trkpt lat="44.93291143154293" lon="6.727948582862705"><ele>1852.0</ele><time>2026-05-01T09:29:00.999Z</time></trkpt><trkpt lat="44.93289262518955" lon="6.7278516415343015"><ele>1852.0000000000002</ele><time>2026-05-01T09:29:01.999Z</time></trkpt><trkpt lat="44.93283725139656" lon="6.727778164782276"><ele>1852.0</ele><time>2026-05-01T09:29:02.999Z</time></trkpt><trkpt lat="44.93288266735284" lon="6.727620367546544"><ele>1852.3333333333335</ele><time>2026-05-01T09:29:03.999Z</time></trkpt><trkpt lat="44.932846975575984" lon="6.727514299601399"><ele>1852.6666666666667</ele><time>2026-05-01T09:29:04.999Z</time></trkpt><trkpt lat="44.93283032472528" lon="6.7274097533558175"><ele>1853.0</ele><time>2026-05-01T09:29:05.999Z</time></trkpt><trkpt lat="44.932774358464314" lon="6.727319629778978"><ele>1853.3333333333335</ele><time>2026-05-01T09:29:06.999Z</time></trkpt><trkpt lat="44.93271725011344" lon="6.727226541563888"><ele>1853.6666666666667</ele><time>2026-05-01T09:29:07.999Z</time></trkpt><trkpt lat="44.93265313934251" lon="6.727156115661551"><ele>1854.0</ele><time>2026-05-01T09:29:08.999Z</time></trkpt><trkpt lat="44.93258808603183" lon="6.727058393134855"><ele>1854.0</ele><time>2026-05-01T09:29:09.999Z</time></trkpt><trkpt lat="44.932535271494224" lon="6.726954670657232"><ele>1854.0</ele><time>2026-05-01T09:29:10.999Z</time></trkpt><trkpt lat="44.932484886228224" lon="6.726857099770895"><ele>1854.0</ele><time>2026-05-01T09:29:11.999Z</time></trkpt><trkpt lat="44.93242524181737" lon="6.72676608526228"><ele>1854.0</ele><time>2026-05-01T09:29:12.999Z</time></trkpt><trkpt lat="44.93236609595777" lon="6.72666830536648"><ele>1854.0</ele><time>2026-05-01T09:29:13.999Z</time></trkpt><trkpt lat="44.932310342922406" lon="6.726575284242279"><ele>1854.0</ele><time>2026-05-01T09:29:14.999Z</time></trkpt><trkpt lat="44.93225764162106" lon="6.726492741077858"><ele>1854.0</ele><time>2026-05-01T09:29:15.999Z</time></trkpt><trkpt lat="44.93220069185335" lon="6.726400065388742"><ele>1854.0</ele><time>2026-05-01T09:29:16.999Z</time></trkpt><trkpt lat="44.93214740651723" lon="6.726307934051569"><ele>1854.0</ele><time>2026-05-01T09:29:17.999Z</time></trkpt><trkpt lat="44.9320967203063" lon="6.7262189492053075"><ele>1854.0</ele><time>2026-05-01T09:29:19Z</time></trkpt><trkpt lat="44.93205082134525" lon="6.726150876880808"><ele>1854.0</ele><time>2026-05-01T09:29:20Z</time></trkpt><trkpt lat="44.93196833260075" lon="6.726060628290648"><ele>1854.0</ele><time>2026-05-01T09:29:22Z</time></trkpt><trkpt lat="44.931913022548464" lon="6.725972455586288"><ele>1853.6666666666667</ele><time>2026-05-01T09:29:24Z</time></trkpt><trkpt lat="44.931851693149135" lon="6.725871232652641"><ele>1853.3333333333335</ele><time>2026-05-01T09:29:26Z</time></trkpt><trkpt lat="44.93179188407644" lon="6.725766593004387"><ele>1853.0</ele><time>2026-05-01T09:29:28Z</time></trkpt><trkpt lat="44.93172495456912" lon="6.7257068063877306"><ele>1852.6666666666667</ele><time>2026-05-01T09:29:31Z</time></trkpt><trkpt lat="44.931668315897916" lon="6.72561658913619"><ele>1852.3333333333335</ele><time>2026-05-01T09:29:34Z</time></trkpt><trkpt lat="44.931612622058545" lon="6.725527876046827"><ele>1852.0</ele><time>2026-05-01T09:29:37Z</time></trkpt><trkpt lat="44.93158836889352" lon="6.725437235368226"><ele>1852.0</ele><time>2026-05-01T09:45:46.999Z</time></trkpt><trkpt lat="44.93151421005288" lon="6.7252907844052645"><ele>1851.9999999999998</ele><time>2026-05-01T09:45:48.999Z</time></trkpt><trkpt lat="44.931468644022445" lon="6.725183983109662"><ele>1851.9999999999998</ele><time>2026-05-01T09:45:49.999Z</time></trkpt><trkpt lat="44.93141897095362" lon="6.725073110220694"><ele>1852.0</ele><time>2026-05-01T09:45:50.999Z</time></trkpt><trkpt lat="44.931371345906044" lon="6.724960796379154"><ele>1852.0</ele><time>2026-05-01T09:45:51.999Z</time></trkpt><trkpt lat="44.93134696664029" lon="6.724843006502312"><ele>1852.8</ele><time>2026-05-01T09:45:52.999Z</time></trkpt><trkpt lat="44.93128518402203" lon="6.724721152507255"><ele>1853.6</ele><time>2026-05-01T09:45:53.999Z</time></trkpt><trkpt lat="44.931243174557636" lon="6.724591539744235"><ele>1854.3999999999999</ele><time>2026-05-01T09:45:54.999Z</time></trkpt><trkpt lat="44.93120925682742" lon="6.724467450358102"><ele>1855.1999999999998</ele><time>2026-05-01T09:45:55.999Z</time></trkpt><trkpt lat="44.93117484384076" lon="6.724335300112569"><ele>1856.0</ele><time>2026-05-01T09:45:56.999Z</time></trkpt><trkpt lat="44.93113811804997" lon="6.72418452054248"><ele>1856.75</ele><time>2026-05-01T09:45:57.999Z</time></trkpt><trkpt lat="44.93110472785266" lon="6.724015384864382"><ele>1857.5</ele><time>2026-05-01T09:45:58.999Z</time></trkpt><trkpt lat="44.931056020093216" lon="6.723834452973935"><ele>1858.25</ele><time>2026-05-01T09:45:59.999Z</time></trkpt><trkpt lat="44.931020189636214" lon="6.723688616469623"><ele>1859.0</ele><time>2026-05-01T09:46:00.999Z</time></trkpt><trkpt lat="44.93098919344626" lon="6.723535277947364"><ele>1859.75</ele><time>2026-05-01T09:46:01.999Z</time></trkpt><trkpt lat="44.930962723092875" lon="6.723378030467872"><ele>1860.5</ele><time>2026-05-01T09:46:02.999Z</time></trkpt><trkpt lat="44.93091970385066" lon="6.72321942007837"><ele>1861.25</ele><time>2026-05-01T09:46:03.999Z</time></trkpt><trkpt lat="44.93088715926446" lon="6.723057602015134"><ele>1862.0</ele><time>2026-05-01T09:46:04.999Z</time></trkpt><trkpt lat="44.93084459166745" lon="6.722915563306339"><ele>1860.0</ele><time>2026-05-01T09:46:05.999Z</time></trkpt><trkpt lat="44.9308072079278" lon="6.722770065109762"><ele>1858.0</ele><time>2026-05-01T09:46:07Z</time></trkpt><trkpt lat="44.93074771922146" lon="6.722631807037039"><ele>1856.0</ele><time>2026-05-01T09:46:08Z</time></trkpt><trkpt lat="44.930705370940295" lon="6.722484856291729"><ele>1854.0</ele><time>2026-05-01T09:46:09Z</time></trkpt><trkpt lat="44.93066009335367" lon="6.72233434344327"><ele>1854.0</ele><time>2026-05-01T09:46:10Z</time></trkpt><trkpt lat="44.930616986565894" lon="6.722198113009672"><ele>1854.0</ele><time>2026-05-01T09:46:11Z</time></trkpt><trkpt lat="44.930570665834324" lon="6.722041892182317"><ele>1854.0</ele><time>2026-05-01T09:46:12Z</time></trkpt><trkpt lat="44.93052674563136" lon="6.721887718968971"><ele>1854.0</ele><time>2026-05-01T09:46:13Z</time></trkpt><trkpt lat="44.930482313858086" lon="6.721741731388593"><ele>1854.25</ele><time>2026-05-01T09:46:14Z</time></trkpt><trkpt lat="44.93043156273759" lon="6.721576680854475"><ele>1854.5</ele><time>2026-05-01T09:46:15Z</time></trkpt><trkpt lat="44.93039473389716" lon="6.721387698009375"><ele>1854.75</ele><time>2026-05-01T09:46:16Z</time></trkpt><trkpt lat="44.93033737933609" lon="6.721233097978487"><ele>1855.0</ele><time>2026-05-01T09:46:17Z</time></trkpt><trkpt lat="44.9302905676399" lon="6.721063537703296"><ele>1855.25</ele><time>2026-05-01T09:46:18Z</time></trkpt><trkpt lat="44.93025363577931" lon="6.720921699512329"><ele>1855.5</ele><time>2026-05-01T09:46:19Z</time></trkpt><trkpt lat="44.93020455413144" lon="6.720786834641514"><ele>1855.75</ele><time>2026-05-01T09:46:20Z</time></trkpt><trkpt lat="44.930166028891115" lon="6.720617919405302"><ele>1856.0</ele><time>2026-05-01T09:46:21Z</time></trkpt><trkpt lat="44.930094655949425" lon="6.720462149888245"><ele>1853.0</ele><time>2026-05-01T09:46:22Z</time></trkpt><trkpt lat="44.93003604481515" lon="6.7203066585841"><ele>1850.0</ele><time>2026-05-01T09:46:23Z</time></trkpt><trkpt lat="44.92999395510149" lon="6.720131730016754"><ele>1847.0</ele><time>2026-05-01T09:46:24Z</time></trkpt><trkpt lat="44.92994425487604" lon="6.719954530441899"><ele>1844.0</ele><time>2026-05-01T09:46:25Z</time></trkpt><trkpt lat="44.92991007264441" lon="6.719795414168784"><ele>1843.75</ele><time>2026-05-01T09:46:26Z</time></trkpt><trkpt lat="44.92985737093959" lon="6.71963295643678"><ele>1843.5</ele><time>2026-05-01T09:46:27Z</time></trkpt><trkpt lat="44.92979406306261" lon="6.719489400473077"><ele>1843.25</ele><time>2026-05-01T09:46:28Z</time></trkpt><trkpt lat="44.92977213654841" lon="6.719345490240361"><ele>1843.0</ele><time>2026-05-01T09:46:29Z</time></trkpt><trkpt lat="44.929728586059916" lon="6.719210361717825"><ele>1842.8333333333335</ele><time>2026-05-01T09:46:30Z</time></trkpt><trkpt lat="44.92968558211008" lon="6.7190756518883035"><ele>1842.6666666666667</ele><time>2026-05-01T09:46:31Z</time></trkpt><trkpt lat="44.929638475713205" lon="6.718953902660377"><ele>1842.5</ele><time>2026-05-01T09:46:32Z</time></trkpt><trkpt lat="44.92960522086819" lon="6.718860630114995"><ele>1842.3333333333335</ele><time>2026-05-01T09:46:33Z</time></trkpt><trkpt lat="44.92956918279472" lon="6.718768783574547"><ele>1842.1666666666667</ele><time>2026-05-01T09:46:34Z</time></trkpt><trkpt lat="44.929513933535056" lon="6.718707909807687"><ele>1842.0</ele><time>2026-05-01T09:46:36Z</time></trkpt><trkpt lat="44.92943102942671" lon="6.718677555185217"><ele>1842.0</ele><time>2026-05-01T09:46:37Z</time></trkpt><trkpt lat="44.92936023072523" lon="6.718636220417314"><ele>1841.9999999999998</ele><time>2026-05-01T09:46:39Z</time></trkpt><trkpt lat="44.92929382883444" lon="6.718795067840013"><ele>1841.9999999999998</ele><time>2026-05-01T09:46:40Z</time></trkpt><trkpt lat="44.92923090427438" lon="6.718703950337582"><ele>1842.0</ele><time>2026-05-01T09:46:41Z</time></trkpt><trkpt lat="44.92918282137362" lon="6.718546663476994"><ele>1842.0</ele><time>2026-05-01T09:46:43Z</time></trkpt><trkpt lat="44.92915606784572" lon="6.718407981149905"><ele>1839.0</ele><time>2026-05-01T09:46:44Z</time></trkpt><trkpt lat="44.929160323535946" lon="6.718297974851555"><ele>1836.0</ele><time>2026-05-01T09:46:45Z</time></trkpt><trkpt lat="44.92916397832633" lon="6.718117832550522"><ele>1833.0</ele><time>2026-05-01T09:46:46Z</time></trkpt><trkpt lat="44.92916129666295" lon="6.717926081393282"><ele>1830.0</ele><time>2026-05-01T09:46:47Z</time></trkpt><trkpt lat="44.929190091313025" lon="6.717756884650551"><ele>1832.0</ele><time>2026-05-01T09:46:48Z</time></trkpt><trkpt lat="44.929228623837766" lon="6.717564092848416"><ele>1834.0</ele><time>2026-05-01T09:46:49Z</time></trkpt><trkpt lat="44.92924360353291" lon="6.717387598552907"><ele>1836.0</ele><time>2026-05-01T09:46:50Z</time></trkpt><trkpt lat="44.92924365103559" lon="6.7172135753302005"><ele>1838.0</ele><time>2026-05-01T09:46:51Z</time></trkpt><trkpt lat="44.92922805730093" lon="6.717038831606306"><ele>1833.75</ele><time>2026-05-01T09:46:52Z</time></trkpt><trkpt lat="44.92920412303051" lon="6.716847458550501"><ele>1829.5</ele><time>2026-05-01T09:46:53Z</time></trkpt><trkpt lat="44.92917973382019" lon="6.71667065406274"><ele>1825.25</ele><time>2026-05-01T09:46:54Z</time></trkpt><trkpt lat="44.929139433811514" lon="6.716468878988851"><ele>1821.0</ele><time>2026-05-01T09:46:55Z</time></trkpt><trkpt lat="44.929115846490255" lon="6.716280837582456"><ele>1821.0</ele><time>2026-05-01T09:46:56Z</time></trkpt><trkpt lat="44.929089592682175" lon="6.716091168942456"><ele>1821.0</ele><time>2026-05-01T09:46:57Z</time></trkpt><trkpt lat="44.92903772012379" lon="6.715857813193639"><ele>1821.0</ele><time>2026-05-01T09:46:58Z</time></trkpt><trkpt lat="44.92900248790184" lon="6.715640398732546"><ele>1820.0</ele><time>2026-05-01T09:46:59Z</time></trkpt><trkpt lat="44.92896588901063" lon="6.71541290415431"><ele>1819.0</ele><time>2026-05-01T09:47:00Z</time></trkpt><trkpt lat="44.92893983033245" lon="6.7151889781140355"><ele>1818.0</ele><time>2026-05-01T09:47:01Z</time></trkpt><trkpt lat="44.92890936108086" lon="6.714969235317764"><ele>1816.0</ele><time>2026-05-01T09:47:02Z</time></trkpt><trkpt lat="44.92887854229799" lon="6.714750196941724"><ele>1814.0</ele><time>2026-05-01T09:47:03Z</time></trkpt><trkpt lat="44.92884157416369" lon="6.7145338936908106"><ele>1812.0</ele><time>2026-05-01T09:47:04Z</time></trkpt><trkpt lat="44.92881378354953" lon="6.714310328831037"><ele>1811.3333333333335</ele><time>2026-05-01T09:47:05Z</time></trkpt><trkpt lat="44.9287723024003" lon="6.7140726424166495"><ele>1810.6666666666667</ele><time>2026-05-01T09:47:06Z</time></trkpt><trkpt lat="44.92872092665039" lon="6.713836409373134"><ele>1810.0</ele><time>2026-05-01T09:47:07Z</time></trkpt><trkpt lat="44.928669178893216" lon="6.713601329522833"><ele>1809.6666666666667</ele><time>2026-05-01T09:47:08Z</time></trkpt><trkpt lat="44.928612083475635" lon="6.7133766276051885"><ele>1809.3333333333335</ele><time>2026-05-01T09:47:09Z</time></trkpt><trkpt lat="44.92855072410688" lon="6.713138961061927"><ele>1809.0</ele><time>2026-05-01T09:47:10Z</time></trkpt><trkpt lat="44.928492806730596" lon="6.712890148556257"><ele>1810.0</ele><time>2026-05-01T09:47:11Z</time></trkpt><trkpt lat="44.92843065175653" lon="6.71266364426589"><ele>1811.0</ele><time>2026-05-01T09:47:12Z</time></trkpt><trkpt lat="44.928365791361415" lon="6.712427314314675"><ele>1812.0</ele><time>2026-05-01T09:47:13Z</time></trkpt><trkpt lat="44.92827619603665" lon="6.7121781213246114"><ele>1807.0</ele><time>2026-05-01T09:47:14Z</time></trkpt><trkpt lat="44.92819915809261" lon="6.711952314054778"><ele>1802.0</ele><time>2026-05-01T09:47:15Z</time></trkpt><trkpt lat="44.92809312671455" lon="6.711708068173813"><ele>1797.0</ele><time>2026-05-01T09:47:15.999Z</time></trkpt><trkpt lat="44.92801343012749" lon="6.7114692061485215"><ele>1797.0</ele><time>2026-05-01T09:47:16.999Z</time></trkpt><trkpt lat="44.927927337140524" lon="6.71122189202273"><ele>1797.0</ele><time>2026-05-01T09:47:17.999Z</time></trkpt><trkpt lat="44.92785985758534" lon="6.71098145281327"><ele>1797.0</ele><time>2026-05-01T09:47:18.999Z</time></trkpt><trkpt lat="44.927781970810855" lon="6.710730140740228"><ele>1797.0</ele><time>2026-05-01T09:47:19.999Z</time></trkpt><trkpt lat="44.9277292244978" lon="6.710484783147549"><ele>1797.0</ele><time>2026-05-01T09:47:20.999Z</time></trkpt><trkpt lat="44.92767467256115" lon="6.710227037083956"><ele>1797.0</ele><time>2026-05-01T09:47:21.999Z</time></trkpt><trkpt lat="44.92760516287703" lon="6.709990906677595"><ele>1791.6666666666665</ele><time>2026-05-01T09:47:22.999Z</time></trkpt><trkpt lat="44.92752278254759" lon="6.709746284663794"><ele>1786.3333333333333</ele><time>2026-05-01T09:47:23.999Z</time></trkpt><trkpt lat="44.92743422193802" lon="6.709536898695853"><ele>1781.0</ele><time>2026-05-01T09:47:24.999Z</time></trkpt><trkpt lat="44.92733496854392" lon="6.709325755599522"><ele>1781.0</ele><time>2026-05-01T09:47:25.999Z</time></trkpt><trkpt lat="44.92725254056069" lon="6.709122170846785"><ele>1781.0</ele><time>2026-05-01T09:47:26.999Z</time></trkpt><trkpt lat="44.9271810594793" lon="6.708937034150808"><ele>1781.0</ele><time>2026-05-01T09:47:27.999Z</time></trkpt><trkpt lat="44.92712082636545" lon="6.7087746694865595"><ele>1781.0</ele><time>2026-05-01T09:47:28.999Z</time></trkpt><trkpt lat="44.92709984657338" lon="6.708574107561524"><ele>1781.5</ele><time>2026-05-01T09:47:29.999Z</time></trkpt><trkpt lat="44.92709028057297" lon="6.708367237412695"><ele>1782.0</ele><time>2026-05-01T09:47:30.999Z</time></trkpt><trkpt lat="44.92707944362587" lon="6.708167717357152"><ele>1782.5</ele><time>2026-05-01T09:47:31.999Z</time></trkpt><trkpt lat="44.927045855648146" lon="6.707968259933941"><ele>1783.0</ele><time>2026-05-01T09:47:32.999Z</time></trkpt><trkpt lat="44.92695880207033" lon="6.70773962227229"><ele>1783.0</ele><time>2026-05-01T09:47:33.999Z</time></trkpt><trkpt lat="44.92688280109425" lon="6.707540047843039"><ele>1783.0</ele><time>2026-05-01T09:47:34.999Z</time></trkpt><trkpt lat="44.926831811538584" lon="6.7073411554738485"><ele>1783.0</ele><time>2026-05-01T09:47:35.999Z</time></trkpt><trkpt lat="44.926789292243406" lon="6.707133956848968"><ele>1783.0</ele><time>2026-05-01T09:47:36.999Z</time></trkpt><trkpt lat="44.92676790090006" lon="6.706927657193861"><ele>1783.0</ele><time>2026-05-01T09:47:37.999Z</time></trkpt><trkpt lat="44.92679512014053" lon="6.70671221559564"><ele>1783.0</ele><time>2026-05-01T09:47:38.999Z</time></trkpt><trkpt lat="44.92680729408891" lon="6.706502123230168"><ele>1783.0</ele><time>2026-05-01T09:47:39.999Z</time></trkpt><trkpt lat="44.92684391898571" lon="6.706284328196707"><ele>1783.0</ele><time>2026-05-01T09:47:40.999Z</time></trkpt><trkpt lat="44.926895056534704" lon="6.706021640295868"><ele>1783.0</ele><time>2026-05-01T09:47:41.999Z</time></trkpt><trkpt lat="44.926950096712375" lon="6.705778482888455"><ele>1781.6666666666667</ele><time>2026-05-01T09:47:42.999Z</time></trkpt><trkpt lat="44.92701257742889" lon="6.705510922693928"><ele>1780.3333333333335</ele><time>2026-05-01T09:47:43.999Z</time></trkpt><trkpt lat="44.9270760129717" lon="6.7052644507070855"><ele>1779.0</ele><time>2026-05-01T09:47:44.999Z</time></trkpt><trkpt lat="44.92712272500535" lon="6.705041253584098"><ele>1774.3333333333335</ele><time>2026-05-01T09:47:45.999Z</time></trkpt><trkpt lat="44.92717405846465" lon="6.704804031864437"><ele>1769.6666666666667</ele><time>2026-05-01T09:47:46.999Z</time></trkpt><trkpt lat="44.927229824694784" lon="6.704584717078233"><ele>1765.0</ele><time>2026-05-01T09:47:47.999Z</time></trkpt><trkpt lat="44.92727845689523" lon="6.704393665754129"><ele>1762.4</ele><time>2026-05-01T09:47:48.999Z</time></trkpt><trkpt lat="44.92731503130705" lon="6.704240692207579"><ele>1759.8</ele><time>2026-05-01T09:47:49.999Z</time></trkpt><trkpt lat="44.92735631751215" lon="6.70409974978642"><ele>1757.1999999999998</ele><time>2026-05-01T09:47:50.999Z</time></trkpt><trkpt lat="44.92739982665882" lon="6.703964224339935"><ele>1754.6</ele><time>2026-05-01T09:47:51.999Z</time></trkpt><trkpt lat="44.92742267360632" lon="6.703825036767177"><ele>1752.0</ele><time>2026-05-01T09:47:52.999Z</time></trkpt><trkpt lat="44.92738408027132" lon="6.703664339701462"><ele>1754.0</ele><time>2026-05-01T09:47:53.999Z</time></trkpt><trkpt lat="44.92733159003009" lon="6.703525829824832"><ele>1756.0</ele><time>2026-05-01T09:47:54.999Z</time></trkpt><trkpt lat="44.92723202605866" lon="6.703366696821769"><ele>1758.0</ele><time>2026-05-01T09:47:55.999Z</time></trkpt><trkpt lat="44.92714794271358" lon="6.7032533274962995"><ele>1760.0</ele><time>2026-05-01T09:47:56.999Z</time></trkpt><trkpt lat="44.92704690489312" lon="6.703067895762081"><ele>1760.0</ele><time>2026-05-01T09:47:57.999Z</time></trkpt><trkpt lat="44.926980446344935" lon="6.702876506055468"><ele>1760.0</ele><time>2026-05-01T09:47:58.999Z</time></trkpt><trkpt lat="44.92692777192129" lon="6.702656932111241"><ele>1760.0</ele><time>2026-05-01T09:47:59.999Z</time></trkpt><trkpt lat="44.92688637482301" lon="6.702470367410874"><ele>1762.5</ele><time>2026-05-01T09:48:00.999Z</time></trkpt><trkpt lat="44.926863800694285" lon="6.702280167038275"><ele>1765.0</ele><time>2026-05-01T09:48:01.999Z</time></trkpt><trkpt lat="44.92682612432841" lon="6.70210407297553"><ele>1767.5</ele><time>2026-05-01T09:48:02.999Z</time></trkpt><trkpt lat="44.92675921767726" lon="6.701958945650757"><ele>1770.0</ele><time>2026-05-01T09:48:03.999Z</time></trkpt><trkpt lat="44.926687326489386" lon="6.701795385631123"><ele>1759.25</ele><time>2026-05-01T09:48:04.999Z</time></trkpt><trkpt lat="44.926641690049955" lon="6.70162074827556"><ele>1748.5</ele><time>2026-05-01T09:48:05.999Z</time></trkpt><trkpt lat="44.92665213239975" lon="6.701409736670603"><ele>1737.75</ele><time>2026-05-01T09:48:06.999Z</time></trkpt><trkpt lat="44.92665173958006" lon="6.701192499471743"><ele>1727.0</ele><time>2026-05-01T09:48:07.999Z</time></trkpt><trkpt lat="44.92666659586184" lon="6.70097153198637"><ele>1726.0</ele><time>2026-05-01T09:48:08.999Z</time></trkpt><trkpt lat="44.926651490742444" lon="6.700744901932218"><ele>1725.0</ele><time>2026-05-01T09:48:09.999Z</time></trkpt><trkpt lat="44.92662710934601" lon="6.700533546033998"><ele>1724.0</ele><time>2026-05-01T09:48:10.999Z</time></trkpt><trkpt lat="44.92661758847023" lon="6.700328769741675"><ele>1723.0</ele><time>2026-05-01T09:48:11.999Z</time></trkpt><trkpt lat="44.92660748961994" lon="6.700124060864911"><ele>1722.0</ele><time>2026-05-01T09:48:13Z</time></trkpt><trkpt lat="44.926649926351196" lon="6.699880036964449"><ele>1721.0</ele><time>2026-05-01T09:48:14Z</time></trkpt><trkpt lat="44.92667277082876" lon="6.699640410118223"><ele>1721.0</ele><time>2026-05-01T09:48:15Z</time></trkpt><trkpt lat="44.92670981181264" lon="6.699419667538665"><ele>1721.0</ele><time>2026-05-01T09:48:16Z</time></trkpt><trkpt lat="44.92671227251103" lon="6.699203605539472"><ele>1721.0</ele><time>2026-05-01T09:48:17Z</time></trkpt><trkpt lat="44.926689561050466" lon="6.699002692665965"><ele>1719.25</ele><time>2026-05-01T09:48:18Z</time></trkpt><trkpt lat="44.926691414178094" lon="6.698790273877363"><ele>1717.5</ele><time>2026-05-01T09:48:19Z</time></trkpt><trkpt lat="44.926679583874574" lon="6.69861549194958"><ele>1715.75</ele><time>2026-05-01T09:48:20Z</time></trkpt><trkpt lat="44.92665057915128" lon="6.698480800547616"><ele>1714.0</ele><time>2026-05-01T09:48:21Z</time></trkpt><trkpt lat="44.926661317185285" lon="6.698341137495543"><ele>1711.75</ele><time>2026-05-01T09:48:22Z</time></trkpt><trkpt lat="44.92672687926743" lon="6.698228796190516"><ele>1709.5</ele><time>2026-05-01T09:48:23Z</time></trkpt><trkpt lat="44.92684076713465" lon="6.6981370601417956"><ele>1707.25</ele><time>2026-05-01T09:48:24Z</time></trkpt><trkpt lat="44.92690592608609" lon="6.697994787808457"><ele>1705.0</ele><time>2026-05-01T09:48:25Z</time></trkpt><trkpt lat="44.9269895148799" lon="6.697845254597768"><ele>1711.2</ele><time>2026-05-01T09:48:26Z</time></trkpt><trkpt lat="44.92711427213177" lon="6.6977792781150765"><ele>1717.4</ele><time>2026-05-01T09:48:27Z</time></trkpt><trkpt lat="44.92712750542783" lon="6.697609768943497"><ele>1723.6</ele><time>2026-05-01T09:48:28Z</time></trkpt><trkpt lat="44.92714894077973" lon="6.697480156736736"><ele>1729.8</ele><time>2026-05-01T09:48:29Z</time></trkpt><trkpt lat="44.927120392774754" lon="6.697378308763011"><ele>1736.0</ele><time>2026-05-01T09:48:30Z</time></trkpt><trkpt lat="44.92706072911369" lon="6.697120383456382"><ele>1736.0</ele><time>2026-05-01T09:48:31Z</time></trkpt><trkpt lat="44.927011651573345" lon="6.696921958347549"><ele>1736.0</ele><time>2026-05-01T09:48:32Z</time></trkpt><trkpt lat="44.92697912148687" lon="6.6967953942500165"><ele>1736.0</ele><time>2026-05-01T09:48:33Z</time></trkpt><trkpt lat="44.92697323911869" lon="6.696610559181859"><ele>1736.0</ele><time>2026-05-01T09:48:34Z</time></trkpt><trkpt lat="44.92699707338518" lon="6.6964015685376275"><ele>1734.0</ele><time>2026-05-01T09:48:35Z</time></trkpt><trkpt lat="44.92704739922516" lon="6.696197440190879"><ele>1732.0</ele><time>2026-05-01T09:48:36Z</time></trkpt><trkpt lat="44.927097938312315" lon="6.695977505391738"><ele>1730.0</ele><time>2026-05-01T09:48:37Z</time></trkpt><trkpt lat="44.927149240952154" lon="6.695762392873445"><ele>1725.5</ele><time>2026-05-01T09:48:38Z</time></trkpt><trkpt lat="44.92716193100582" lon="6.6955752464769756"><ele>1721.0</ele><time>2026-05-01T09:48:39Z</time></trkpt><trkpt lat="44.927183742203276" lon="6.695399461018869"><ele>1716.5</ele><time>2026-05-01T09:48:40Z</time></trkpt><trkpt lat="44.927185133136966" lon="6.6952365842559205"><ele>1712.0</ele><time>2026-05-01T09:48:41Z</time></trkpt><trkpt lat="44.92726256146524" lon="6.6951360605032155"><ele>1707.25</ele><time>2026-05-01T09:48:42Z</time></trkpt><trkpt lat="44.92735484700347" lon="6.695090632883906"><ele>1702.5</ele><time>2026-05-01T09:48:43Z</time></trkpt><trkpt lat="44.927450103476026" lon="6.695178726431326"><ele>1697.75</ele><time>2026-05-01T09:48:44Z</time></trkpt><trkpt lat="44.92761796840599" lon="6.695067311995673"><ele>1693.0</ele><time>2026-05-01T09:48:45Z</time></trkpt><trkpt lat="44.9277087748009" lon="6.694962752760925"><ele>1693.0</ele><time>2026-05-01T09:48:46Z</time></trkpt><trkpt lat="44.9278204892931" lon="6.694871415811929"><ele>1693.0</ele><time>2026-05-01T09:48:47Z</time></trkpt><trkpt lat="44.92790932906661" lon="6.694841539803131"><ele>1693.0</ele><time>2026-05-01T09:48:48Z</time></trkpt><trkpt lat="44.92803788230845" lon="6.694858383372181"><ele>1693.0</ele><time>2026-05-01T09:48:49Z</time></trkpt><trkpt lat="44.92819313603605" lon="6.6949068553301645"><ele>1693.0</ele><time>2026-05-01T09:48:50Z</time></trkpt><trkpt lat="44.928327039263245" lon="6.694952627039583"><ele>1693.0</ele><time>2026-05-01T09:48:51Z</time></trkpt><trkpt lat="44.92846205564801" lon="6.694986284139358"><ele>1693.0</ele><time>2026-05-01T09:48:52Z</time></trkpt><trkpt lat="44.928592831819614" lon="6.694986148882716"><ele>1693.0</ele><time>2026-05-01T09:48:53Z</time></trkpt><trkpt lat="44.92872667067558" lon="6.694944260828162"><ele>1692.3333333333335</ele><time>2026-05-01T09:48:54Z</time></trkpt><trkpt lat="44.928905132904525" lon="6.694938404361204"><ele>1691.6666666666665</ele><time>2026-05-01T09:48:55Z</time></trkpt><trkpt lat="44.92909001335772" lon="6.694783329998822"><ele>1691.0</ele><time>2026-05-01T09:48:56Z</time></trkpt><trkpt lat="44.929230294686185" lon="6.694697672627636"><ele>1691.0</ele><time>2026-05-01T09:48:57Z</time></trkpt><trkpt lat="44.92940746453391" lon="6.694652313844787"><ele>1691.0</ele><time>2026-05-01T09:48:58Z</time></trkpt><trkpt lat="44.92954485638391" lon="6.694617150214402"><ele>1691.0</ele><time>2026-05-01T09:48:59Z</time></trkpt><trkpt lat="44.929712032199994" lon="6.6945963049330635"><ele>1691.0</ele><time>2026-05-01T09:49:00Z</time></trkpt><trkpt lat="44.929865786555744" lon="6.694571959514632"><ele>1691.0</ele><time>2026-05-01T09:49:01Z</time></trkpt><trkpt lat="44.93002279691763" lon="6.694583513071311"><ele>1691.0</ele><time>2026-05-01T09:49:02Z</time></trkpt><trkpt lat="44.93016293145541" lon="6.694586423960997"><ele>1690.6</ele><time>2026-05-01T09:49:03Z</time></trkpt><trkpt lat="44.93028741419909" lon="6.694594082549849"><ele>1690.1999999999998</ele><time>2026-05-01T09:49:04Z</time></trkpt><trkpt lat="44.93039570696167" lon="6.69458173241879"><ele>1689.8000000000002</ele><time>2026-05-01T09:49:05Z</time></trkpt><trkpt lat="44.93047816347708" lon="6.694586703170211"><ele>1689.4</ele><time>2026-05-01T09:49:06Z</time></trkpt><trkpt lat="44.93054578346385" lon="6.6945867261230925"><ele>1689.0</ele><time>2026-05-01T09:49:07Z</time></trkpt><trkpt lat="44.93061930148176" lon="6.694555393464933"><ele>1689.0</ele><time>2026-05-01T09:49:09Z</time></trkpt><trkpt lat="44.93061698481679" lon="6.694384770752451"><ele>1689.0</ele><time>2026-05-01T09:49:12Z</time></trkpt><trkpt lat="44.93055953235447" lon="6.694464341318232"><ele>1689.0</ele><time>2026-05-01T09:49:13Z</time></trkpt><trkpt lat="44.93033312973598" lon="6.694301300366613"><ele>1672.5</ele><time>2026-05-01T09:49:14Z</time></trkpt><trkpt lat="44.93012836965831" lon="6.6943370338163986"><ele>1656.0</ele><time>2026-05-01T09:49:15Z</time></trkpt><trkpt lat="44.929778544936006" lon="6.694212856624262"><ele>1656.0</ele><time>2026-05-01T09:49:16Z</time></trkpt><trkpt lat="44.929619775013066" lon="6.694187126701482"><ele>1656.0</ele><time>2026-05-01T09:49:17Z</time></trkpt><trkpt lat="44.929444709296746" lon="6.694178164615164"><ele>1656.0</ele><time>2026-05-01T09:49:18Z</time></trkpt><trkpt lat="44.929293358614146" lon="6.69417512688192"><ele>1656.25</ele><time>2026-05-01T09:49:19Z</time></trkpt><trkpt lat="44.929150050527035" lon="6.694178007601493"><ele>1656.5</ele><time>2026-05-01T09:49:20Z</time></trkpt><trkpt lat="44.929028947624936" lon="6.694231620783707"><ele>1656.75</ele><time>2026-05-01T09:49:21Z</time></trkpt><trkpt lat="44.92891064885478" lon="6.694273087509586"><ele>1657.0</ele><time>2026-05-01T09:49:22Z</time></trkpt><trkpt lat="44.92879829986377" lon="6.69431501029814"><ele>1657.0</ele><time>2026-05-01T09:49:23Z</time></trkpt><trkpt lat="44.928662074826114" lon="6.694361657263051"><ele>1657.0</ele><time>2026-05-01T09:49:24Z</time></trkpt><trkpt lat="44.92859849931402" lon="6.694203938057502"><ele>1657.0</ele><time>2026-05-01T09:49:25Z</time></trkpt><trkpt lat="44.92851927315451" lon="6.694128284879002"><ele>1657.0</ele><time>2026-05-01T09:49:26Z</time></trkpt><trkpt lat="44.92854759089755" lon="6.694007198949606"><ele>1657.0</ele><time>2026-05-01T09:49:27Z</time></trkpt><trkpt lat="44.92850237067817" lon="6.693863477111041"><ele>1657.0</ele><time>2026-05-01T09:49:28Z</time></trkpt><trkpt lat="44.92840923521692" lon="6.693682875144662"><ele>1657.0</ele><time>2026-05-01T09:49:29Z</time></trkpt><trkpt lat="44.92830532478346" lon="6.693606002182495"><ele>1657.0</ele><time>2026-05-01T09:49:29.999Z</time></trkpt><trkpt lat="44.92820829228276" lon="6.693514235662334"><ele>1651.0</ele><time>2026-05-01T09:49:30.999Z</time></trkpt><trkpt lat="44.928111324858065" lon="6.693409293530468"><ele>1645.0</ele><time>2026-05-01T09:49:31.999Z</time></trkpt><trkpt lat="44.927955361764454" lon="6.693311686798037"><ele>1639.0</ele><time>2026-05-01T09:49:32.999Z</time></trkpt><trkpt lat="44.92781333369442" lon="6.69314864108723"><ele>1639.0</ele><time>2026-05-01T09:49:33.999Z</time></trkpt><trkpt lat="44.927711104953595" lon="6.693027440292685"><ele>1639.0</ele><time>2026-05-01T09:49:34.999Z</time></trkpt><trkpt lat="44.92759322818876" lon="6.692912249203756"><ele>1639.0</ele><time>2026-05-01T09:49:35.999Z</time></trkpt><trkpt lat="44.927505646022794" lon="6.692766204875883"><ele>1639.0</ele><time>2026-05-01T09:49:36.999Z</time></trkpt><trkpt lat="44.92739480493028" lon="6.69263391746238"><ele>1636.0</ele><time>2026-05-01T09:49:37.999Z</time></trkpt><trkpt lat="44.92729806403662" lon="6.69253185565813"><ele>1633.0</ele><time>2026-05-01T09:49:38.999Z</time></trkpt><trkpt lat="44.92717217199233" lon="6.692455666737249"><ele>1630.0</ele><time>2026-05-01T09:49:39.999Z</time></trkpt><trkpt lat="44.927082514221595" lon="6.692431955636794"><ele>1627.0</ele><time>2026-05-01T09:49:40.999Z</time></trkpt><trkpt lat="44.926982605988286" lon="6.692535878554422"><ele>1627.0</ele><time>2026-05-01T09:49:41.999Z</time></trkpt><trkpt lat="44.92689872932974" lon="6.69257985125738"><ele>1627.0</ele><time>2026-05-01T09:49:42.999Z</time></trkpt><trkpt lat="44.926832379496105" lon="6.692654392567375"><ele>1627.0</ele><time>2026-05-01T09:49:43.999Z</time></trkpt><trkpt lat="44.926796539618074" lon="6.69274344388221"><ele>1627.0</ele><time>2026-05-01T09:49:44.999Z</time></trkpt><trkpt lat="44.926723730129126" lon="6.692941402335872"><ele>1627.0</ele><time>2026-05-01T09:49:45.999Z</time></trkpt><trkpt lat="44.926714672172054" lon="6.6931149894919635"><ele>1625.5</ele><time>2026-05-01T09:49:46.999Z</time></trkpt><trkpt lat="44.92672242416315" lon="6.693355102323087"><ele>1624.0</ele><time>2026-05-01T09:49:47.999Z</time></trkpt><trkpt lat="44.926750365296854" lon="6.693548572650004"><ele>1622.5</ele><time>2026-05-01T09:49:48.999Z</time></trkpt><trkpt lat="44.92678708972363" lon="6.693716548173218"><ele>1621.0</ele><time>2026-05-01T09:49:49.999Z</time></trkpt><trkpt lat="44.926765881831784" lon="6.693868595266717"><ele>1624.0</ele><time>2026-05-01T09:49:50.999Z</time></trkpt><trkpt lat="44.926773578464044" lon="6.693980762890019"><ele>1627.0</ele><time>2026-05-01T09:49:51.999Z</time></trkpt><trkpt lat="44.92671030756972" lon="6.69409231886176"><ele>1630.0</ele><time>2026-05-01T09:49:52.999Z</time></trkpt><trkpt lat="44.926615359202415" lon="6.69415583065196"><ele>1633.0</ele><time>2026-05-01T09:49:53.999Z</time></trkpt><trkpt lat="44.926495377927296" lon="6.6942753329572975"><ele>1636.0</ele><time>2026-05-01T09:49:54.999Z</time></trkpt><trkpt lat="44.92640282362173" lon="6.694353309715656"><ele>1631.75</ele><time>2026-05-01T09:49:55.999Z</time></trkpt><trkpt lat="44.92630745510598" lon="6.694430198252737"><ele>1627.5</ele><time>2026-05-01T09:49:56.999Z</time></trkpt><trkpt lat="44.92613528994085" lon="6.694541722036184"><ele>1623.25</ele><time>2026-05-01T09:49:57.999Z</time></trkpt><trkpt lat="44.92600609754522" lon="6.694615330117599"><ele>1619.0</ele><time>2026-05-01T09:49:58.999Z</time></trkpt><trkpt lat="44.92588089137092" lon="6.694695296698344"><ele>1619.0</ele><time>2026-05-01T09:49:59.999Z</time></trkpt><trkpt lat="44.92580761548519" lon="6.694822223838404"><ele>1619.0</ele><time>2026-05-01T09:50:00.999Z</time></trkpt><trkpt lat="44.925742649388916" lon="6.694922043238332"><ele>1619.0</ele><time>2026-05-01T09:50:01.999Z</time></trkpt><trkpt lat="44.925679730784516" lon="6.6950579091392655"><ele>1619.0</ele><time>2026-05-01T09:50:02.999Z</time></trkpt><trkpt lat="44.92567077301597" lon="6.6952264574925575"><ele>1619.0</ele><time>2026-05-01T09:50:03.999Z</time></trkpt><trkpt lat="44.925685980815096" lon="6.695470208400238"><ele>1621.25</ele><time>2026-05-01T09:50:04.999Z</time></trkpt><trkpt lat="44.92565376556324" lon="6.695651411885207"><ele>1623.5</ele><time>2026-05-01T09:50:05.999Z</time></trkpt><trkpt lat="44.92558646081466" lon="6.695823280145307"><ele>1625.75</ele><time>2026-05-01T09:50:06.999Z</time></trkpt><trkpt lat="44.9255530053526" lon="6.695987089749813"><ele>1628.0</ele><time>2026-05-01T09:50:07.999Z</time></trkpt><trkpt lat="44.9255322252309" lon="6.696153428357317"><ele>1629.75</ele><time>2026-05-01T09:50:08.999Z</time></trkpt><trkpt lat="44.925531121147735" lon="6.696308909906621"><ele>1631.5</ele><time>2026-05-01T09:50:09.999Z</time></trkpt><trkpt lat="44.925510069620394" lon="6.696447118554553"><ele>1633.25</ele><time>2026-05-01T09:50:10.999Z</time></trkpt><trkpt lat="44.92545085083607" lon="6.696579472249862"><ele>1635.0</ele><time>2026-05-01T09:50:12.999Z</time></trkpt><trkpt lat="44.9253184570278" lon="6.696501612409018"><ele>1635.0</ele><time>2026-05-01T09:50:14.999Z</time></trkpt><trkpt lat="44.925329927848395" lon="6.696373649484738"><ele>1635.0</ele><time>2026-05-01T09:50:15.999Z</time></trkpt><trkpt lat="44.925345659960016" lon="6.696240466066051"><ele>1635.0</ele><time>2026-05-01T09:50:16.999Z</time></trkpt><trkpt lat="44.925381220740974" lon="6.696124042018488"><ele>1635.0</ele><time>2026-05-01T09:50:17.999Z</time></trkpt><trkpt lat="44.92542181538326" lon="6.695972595444303"><ele>1635.0</ele><time>2026-05-01T09:50:19Z</time></trkpt><trkpt lat="44.9254722280071" lon="6.69575388226047"><ele>1632.6666666666665</ele><time>2026-05-01T09:50:20Z</time></trkpt><trkpt lat="44.925543692407466" lon="6.6955037447039"><ele>1630.3333333333333</ele><time>2026-05-01T09:50:21Z</time></trkpt><trkpt lat="44.92557932993663" lon="6.69531741559582"><ele>1628.0</ele><time>2026-05-01T09:50:22Z</time></trkpt><trkpt lat="44.92558922243149" lon="6.69513245288346"><ele>1625.75</ele><time>2026-05-01T09:50:23Z</time></trkpt><trkpt lat="44.92559764141074" lon="6.6949568838538145"><ele>1623.5</ele><time>2026-05-01T09:50:24Z</time></trkpt><trkpt lat="44.92557746334054" lon="6.694800236389923"><ele>1621.25</ele><time>2026-05-01T09:50:25Z</time></trkpt><trkpt lat="44.92555785051292" lon="6.694641257023398"><ele>1619.0</ele><time>2026-05-01T09:50:26Z</time></trkpt><trkpt lat="44.92551770728602" lon="6.694512774530449"><ele>1622.4</ele><time>2026-05-01T09:50:27Z</time></trkpt><trkpt lat="44.92553924114043" lon="6.69439915008689"><ele>1625.8000000000002</ele><time>2026-05-01T09:50:28Z</time></trkpt><trkpt lat="44.92558056284997" lon="6.694292309084209"><ele>1629.1999999999998</ele><time>2026-05-01T09:50:29Z</time></trkpt><trkpt lat="44.92569811557182" lon="6.694340714217172"><ele>1632.6</ele><time>2026-05-01T09:50:30Z</time></trkpt><trkpt lat="44.92583218987907" lon="6.694271746750707"><ele>1636.0</ele><time>2026-05-01T09:50:31Z</time></trkpt><trkpt lat="44.925938206210475" lon="6.694171887560212"><ele>1636.0</ele><time>2026-05-01T09:50:32Z</time></trkpt><trkpt lat="44.92605735180695" lon="6.694060799493388"><ele>1636.0</ele><time>2026-05-01T09:50:33Z</time></trkpt><trkpt lat="44.926185225297345" lon="6.6939518720086735"><ele>1636.0</ele><time>2026-05-01T09:50:34Z</time></trkpt><trkpt lat="44.92627588234193" lon="6.693846870437363"><ele>1636.0</ele><time>2026-05-01T09:50:35Z</time></trkpt><trkpt lat="44.926334999534596" lon="6.693724475696731"><ele>1636.0</ele><time>2026-05-01T09:50:36Z</time></trkpt><trkpt lat="44.926405352375085" lon="6.693609392264005"><ele>1636.0</ele><time>2026-05-01T09:50:37Z</time></trkpt><trkpt lat="44.92639118049977" lon="6.69345157002173"><ele>1636.0</ele><time>2026-05-01T09:50:38Z</time></trkpt><trkpt lat="44.92638253800015" lon="6.693317217377166"><ele>1636.0</ele><time>2026-05-01T09:50:39Z</time></trkpt><trkpt lat="44.9263717594631" lon="6.693026460580981"><ele>1632.25</ele><time>2026-05-01T09:50:40Z</time></trkpt><trkpt lat="44.9263727585073" lon="6.692837425655761"><ele>1628.5</ele><time>2026-05-01T09:50:41Z</time></trkpt><trkpt lat="44.92635760168335" lon="6.692653491306817"><ele>1624.75</ele><time>2026-05-01T09:50:42Z</time></trkpt><trkpt lat="44.92633026254643" lon="6.692486635195688"><ele>1621.0</ele><time>2026-05-01T09:50:43Z</time></trkpt><trkpt lat="44.92629423348075" lon="6.692355325373166"><ele>1618.0</ele><time>2026-05-01T09:50:44Z</time></trkpt><trkpt lat="44.926284268694815" lon="6.6921872197157635"><ele>1615.0</ele><time>2026-05-01T09:50:45Z</time></trkpt><trkpt lat="44.92640896387855" lon="6.691967326595899"><ele>1612.0</ele><time>2026-05-01T09:50:47Z</time></trkpt><trkpt lat="44.926472384258375" lon="6.691792390457262"><ele>1606.0</ele><time>2026-05-01T09:50:48Z</time></trkpt><trkpt lat="44.92653934300897" lon="6.6916237426980505"><ele>1600.0</ele><time>2026-05-01T09:50:49Z</time></trkpt><trkpt lat="44.92662639557066" lon="6.691487823676107"><ele>1594.0</ele><time>2026-05-01T09:50:50Z</time></trkpt><trkpt lat="44.92672802984932" lon="6.691418435153906"><ele>1588.0</ele><time>2026-05-01T09:50:51Z</time></trkpt><trkpt lat="44.92682613939879" lon="6.691375321090323"><ele>1584.5</ele><time>2026-05-01T09:50:52Z</time></trkpt><trkpt lat="44.9269325246749" lon="6.6914058692800005"><ele>1581.0</ele><time>2026-05-01T09:50:53Z</time></trkpt><trkpt lat="44.92699295282791" lon="6.691506621447388"><ele>1577.5</ele><time>2026-05-01T09:50:54Z</time></trkpt><trkpt lat="44.92709475406502" lon="6.691601525930449"><ele>1574.0</ele><time>2026-05-01T09:50:55Z</time></trkpt><trkpt lat="44.92720822310796" lon="6.691683647121888"><ele>1574.0</ele><time>2026-05-01T09:50:56Z</time></trkpt><trkpt lat="44.92732521520018" lon="6.691736562955704"><ele>1574.0</ele><time>2026-05-01T09:50:57Z</time></trkpt><trkpt lat="44.92747450054125" lon="6.691819714415571"><ele>1574.0</ele><time>2026-05-01T09:50:58Z</time></trkpt><trkpt lat="44.92763767958908" lon="6.6918913454011415"><ele>1583.6666666666665</ele><time>2026-05-01T09:50:59Z</time></trkpt><trkpt lat="44.92778048901528" lon="6.69195515434284"><ele>1593.3333333333335</ele><time>2026-05-01T09:51:00Z</time></trkpt><trkpt lat="44.92793894455593" lon="6.692039966043944"><ele>1603.0</ele><time>2026-05-01T09:51:01Z</time></trkpt><trkpt lat="44.92807637803355" lon="6.692105145554265"><ele>1603.0</ele><time>2026-05-01T09:51:02Z</time></trkpt><trkpt lat="44.92820951125161" lon="6.692175692945549"><ele>1603.0</ele><time>2026-05-01T09:51:03Z</time></trkpt><trkpt lat="44.92834050974116" lon="6.692218983698731"><ele>1603.0</ele><time>2026-05-01T09:51:04Z</time></trkpt><trkpt lat="44.92846553010848" lon="6.69225772690333"><ele>1603.0</ele><time>2026-05-01T09:51:05Z</time></trkpt><trkpt lat="44.92857423644429" lon="6.692247650739385"><ele>1600.25</ele><time>2026-05-01T09:51:06Z</time></trkpt><trkpt lat="44.92866657055119" lon="6.692157356414206"><ele>1597.5</ele><time>2026-05-01T09:51:07Z</time></trkpt><trkpt lat="44.928744014377074" lon="6.69202488818764"><ele>1594.75</ele><time>2026-05-01T09:51:08Z</time></trkpt><trkpt lat="44.92882224569702" lon="6.691879177991086"><ele>1592.0</ele><time>2026-05-01T09:51:09Z</time></trkpt><trkpt lat="44.92887532767527" lon="6.691705321446485"><ele>1592.0</ele><time>2026-05-01T09:51:10Z</time></trkpt><trkpt lat="44.92891110672701" lon="6.691480165720832"><ele>1592.0</ele><time>2026-05-01T09:51:11Z</time></trkpt><trkpt lat="44.9289301450945" lon="6.691315004537281"><ele>1592.0</ele><time>2026-05-01T09:51:12Z</time></trkpt><trkpt lat="44.928927471633266" lon="6.690964279714985"><ele>1586.25</ele><time>2026-05-01T09:51:13Z</time></trkpt><trkpt lat="44.92893363452628" lon="6.690750145770041"><ele>1580.5</ele><time>2026-05-01T09:51:14Z</time></trkpt><trkpt lat="44.928962035898195" lon="6.690593882913003"><ele>1574.75</ele><time>2026-05-01T09:51:15Z</time></trkpt><trkpt lat="44.92899240050516" lon="6.6904382589999525"><ele>1569.0</ele><time>2026-05-01T09:51:16Z</time></trkpt><trkpt lat="44.92910485494323" lon="6.690439297988477"><ele>1569.0</ele><time>2026-05-01T09:51:17Z</time></trkpt><trkpt lat="44.929190066075684" lon="6.690355912756587"><ele>1569.0</ele><time>2026-05-01T09:51:18Z</time></trkpt><trkpt lat="44.92923072120606" lon="6.690276483020271"><ele>1569.0</ele><time>2026-05-01T09:51:19Z</time></trkpt><trkpt lat="44.92924540617894" lon="6.690176314649629"><ele>1569.0</ele><time>2026-05-01T09:51:20Z</time></trkpt><trkpt lat="44.92923286870936" lon="6.690058099812361"><ele>1569.0</ele><time>2026-05-01T09:51:22Z</time></trkpt><trkpt lat="44.92918675175213" lon="6.689996018780973"><ele>1569.0</ele><time>2026-05-01T09:51:23Z</time></trkpt><trkpt lat="44.9290579394216" lon="6.6899702044199385"><ele>1569.0</ele><time>2026-05-01T09:51:24Z</time></trkpt><trkpt lat="44.92897819034834" lon="6.689971729715794"><ele>1569.0</ele><time>2026-05-01T09:51:25Z</time></trkpt><trkpt lat="44.92886499581083" lon="6.6899770560249445"><ele>1569.0</ele><time>2026-05-01T09:51:26Z</time></trkpt><trkpt lat="44.92875539072952" lon="6.690039080782105"><ele>1569.0</ele><time>2026-05-01T09:51:27Z</time></trkpt><trkpt lat="44.92868101224235" lon="6.690099404296564"><ele>1569.0</ele><time>2026-05-01T09:51:28Z</time></trkpt><trkpt lat="44.9286075352148" lon="6.690295299174662"><ele>1569.0</ele><time>2026-05-01T09:51:29Z</time></trkpt><trkpt lat="44.928558546217275" lon="6.69058880279444"><ele>1569.0</ele><time>2026-05-01T09:51:30Z</time></trkpt><trkpt lat="44.92857398162388" lon="6.690781317850793"><ele>1569.0</ele><time>2026-05-01T09:51:31Z</time></trkpt><trkpt lat="44.9285814730634" lon="6.691045691320715"><ele>1568.5</ele><time>2026-05-01T09:51:32Z</time></trkpt><trkpt lat="44.92856832954279" lon="6.691243720933073"><ele>1568.0</ele><time>2026-05-01T09:51:33Z</time></trkpt><trkpt lat="44.928499435452764" lon="6.691401019617691"><ele>1567.5</ele><time>2026-05-01T09:51:34Z</time></trkpt><trkpt lat="44.928424431952884" lon="6.691527344053565"><ele>1567.0</ele><time>2026-05-01T09:51:35Z</time></trkpt><trkpt lat="44.928354874503626" lon="6.691592786144989"><ele>1567.0</ele><time>2026-05-01T09:51:36Z</time></trkpt><trkpt lat="44.92826166329635" lon="6.691565650645204"><ele>1567.0</ele><time>2026-05-01T09:51:37Z</time></trkpt><trkpt lat="44.9281823873441" lon="6.691554031357478"><ele>1567.0</ele><time>2026-05-01T09:51:37.999Z</time></trkpt><trkpt lat="44.92807024355687" lon="6.691419306771808"><ele>1567.0</ele><time>2026-05-01T09:51:38.999Z</time></trkpt><trkpt lat="44.92788783468138" lon="6.6912732906272385"><ele>1567.0</ele><time>2026-05-01T09:51:39.999Z</time></trkpt><trkpt lat="44.92773724801674" lon="6.6911293818984685"><ele>1567.0</ele><time>2026-05-01T09:51:40.999Z</time></trkpt><trkpt lat="44.927582102125285" lon="6.690993305134314"><ele>1567.0</ele><time>2026-05-01T09:51:41.999Z</time></trkpt><trkpt lat="44.927444856142756" lon="6.690850901834535"><ele>1560.25</ele><time>2026-05-01T09:51:42.999Z</time></trkpt><trkpt lat="44.92730670918978" lon="6.690759691157013"><ele>1553.5</ele><time>2026-05-01T09:51:43.999Z</time></trkpt><trkpt lat="44.927164755319964" lon="6.690663398819085"><ele>1546.75</ele><time>2026-05-01T09:51:44.999Z</time></trkpt><trkpt lat="44.927033807349005" lon="6.690596814260808"><ele>1540.0</ele><time>2026-05-01T09:51:45.999Z</time></trkpt><trkpt lat="44.92696963635903" lon="6.690492167574885"><ele>1540.0</ele><time>2026-05-01T09:51:46.999Z</time></trkpt><trkpt lat="44.92687859359939" lon="6.690383217176575"><ele>1540.0</ele><time>2026-05-01T09:51:47.999Z</time></trkpt><trkpt lat="44.92677113585482" lon="6.69030796836249"><ele>1540.0</ele><time>2026-05-01T09:51:48.999Z</time></trkpt><trkpt lat="44.92666596565732" lon="6.690233165732448"><ele>1540.0</ele><time>2026-05-01T09:51:49.999Z</time></trkpt><trkpt lat="44.926550441698" lon="6.690217979021507"><ele>1535.25</ele><time>2026-05-01T09:51:50.999Z</time></trkpt><trkpt lat="44.926395888060995" lon="6.690192060267544"><ele>1530.5</ele><time>2026-05-01T09:51:51.999Z</time></trkpt><trkpt lat="44.92628275854231" lon="6.6901743374329286"><ele>1525.75</ele><time>2026-05-01T09:51:52.999Z</time></trkpt><trkpt lat="44.92617307509049" lon="6.690198793372419"><ele>1521.0</ele><time>2026-05-01T09:51:53.999Z</time></trkpt><trkpt lat="44.92604906620337" lon="6.69023387831174"><ele>1518.5</ele><time>2026-05-01T09:51:54.999Z</time></trkpt><trkpt lat="44.92591328416079" lon="6.690264000836027"><ele>1516.0</ele><time>2026-05-01T09:51:55.999Z</time></trkpt><trkpt lat="44.92575864108816" lon="6.6902622142194454"><ele>1513.5</ele><time>2026-05-01T09:51:56.999Z</time></trkpt><trkpt lat="44.925648290944096" lon="6.69017990270628"><ele>1511.0</ele><time>2026-05-01T09:51:57.999Z</time></trkpt><trkpt lat="44.92553403236455" lon="6.690103604692505"><ele>1511.0</ele><time>2026-05-01T09:51:58.999Z</time></trkpt><trkpt lat="44.925464821027944" lon="6.690111186632762"><ele>1511.0</ele><time>2026-05-01T09:51:59.999Z</time></trkpt><trkpt lat="44.92538126293829" lon="6.690096471005252"><ele>1511.0</ele><time>2026-05-01T09:52:00.999Z</time></trkpt><trkpt lat="44.92531917516157" lon="6.690171530244599"><ele>1511.0</ele><time>2026-05-01T09:52:01.999Z</time></trkpt><trkpt lat="44.92525976706137" lon="6.6902045643847154"><ele>1511.0</ele><time>2026-05-01T09:52:02.999Z</time></trkpt><trkpt lat="44.92520210230744" lon="6.690293435097664"><ele>1511.0</ele><time>2026-05-01T09:52:03.999Z</time></trkpt><trkpt lat="44.925167312986346" lon="6.690532959149144"><ele>1508.75</ele><time>2026-05-01T09:52:04.999Z</time></trkpt><trkpt lat="44.92514183838327" lon="6.6907300738864075"><ele>1506.5</ele><time>2026-05-01T09:52:05.999Z</time></trkpt><trkpt lat="44.92516146997688" lon="6.690857929841819"><ele>1504.25</ele><time>2026-05-01T09:52:06.999Z</time></trkpt><trkpt lat="44.92510713337961" lon="6.691017823573445"><ele>1502.0</ele><time>2026-05-01T09:52:08.999Z</time></trkpt><trkpt lat="44.92500086440787" lon="6.690923610670274"><ele>1502.0</ele><time>2026-05-01T09:52:10.999Z</time></trkpt><trkpt lat="44.92502694835821" lon="6.690797076841275"><ele>1502.0</ele><time>2026-05-01T09:52:11.999Z</time></trkpt><trkpt lat="44.9250631129951" lon="6.690714399324715"><ele>1502.0</ele><time>2026-05-01T09:52:12.999Z</time></trkpt><trkpt lat="44.9250994385481" lon="6.690580329749585"><ele>1502.0</ele><time>2026-05-01T09:52:13.999Z</time></trkpt><trkpt lat="44.92513993428693" lon="6.690387163171307"><ele>1502.0</ele><time>2026-05-01T09:52:14.999Z</time></trkpt><trkpt lat="44.92517217803282" lon="6.690230786925178"><ele>1503.8</ele><time>2026-05-01T09:52:15.999Z</time></trkpt><trkpt lat="44.925204977457646" lon="6.6900635834119875"><ele>1505.6</ele><time>2026-05-01T09:52:16.999Z</time></trkpt><trkpt lat="44.925253878544" lon="6.689918564286695"><ele>1507.3999999999999</ele><time>2026-05-01T09:52:17.999Z</time></trkpt><trkpt lat="44.92531236775065" lon="6.689826489935642"><ele>1509.1999999999998</ele><time>2026-05-01T09:52:18.999Z</time></trkpt><trkpt lat="44.92539816136403" lon="6.689744112066088"><ele>1511.0</ele><time>2026-05-01T09:52:19.999Z</time></trkpt><trkpt lat="44.925512830024786" lon="6.6897933976470805"><ele>1511.0</ele><time>2026-05-01T09:52:20.999Z</time></trkpt><trkpt lat="44.92561907058417" lon="6.689847898702228"><ele>1511.0</ele><time>2026-05-01T09:52:21.999Z</time></trkpt><trkpt lat="44.92575677080268" lon="6.6898850355171025"><ele>1511.0</ele><time>2026-05-01T09:52:22.999Z</time></trkpt><trkpt lat="44.92589051957655" lon="6.689910889842988"><ele>1511.0</ele><time>2026-05-01T09:52:23.999Z</time></trkpt><trkpt lat="44.926016011993916" lon="6.689898237702564"><ele>1513.5</ele><time>2026-05-01T09:52:25Z</time></trkpt><trkpt lat="44.92615045372371" lon="6.689831058965052"><ele>1516.0</ele><time>2026-05-01T09:52:26Z</time></trkpt><trkpt lat="44.926284146670646" lon="6.6897223957127645"><ele>1518.5</ele><time>2026-05-01T09:52:27Z</time></trkpt><trkpt lat="44.92639541627966" lon="6.689645039595715"><ele>1521.0</ele><time>2026-05-01T09:52:28Z</time></trkpt><trkpt lat="44.926493269091615" lon="6.689605725835692"><ele>1521.0</ele><time>2026-05-01T09:52:29Z</time></trkpt><trkpt lat="44.92658475653777" lon="6.689520642076518"><ele>1521.0</ele><time>2026-05-01T09:52:30Z</time></trkpt><trkpt lat="44.926693765982385" lon="6.689587922523462"><ele>1521.0</ele><time>2026-05-01T09:52:31Z</time></trkpt><trkpt lat="44.92680949725669" lon="6.6895755811078335"><ele>1521.0</ele><time>2026-05-01T09:52:32Z</time></trkpt><trkpt lat="44.926919714098645" lon="6.68953466164455"><ele>1518.5</ele><time>2026-05-01T09:52:33Z</time></trkpt><trkpt lat="44.92702847786757" lon="6.689525579122254"><ele>1516.0</ele><time>2026-05-01T09:52:34Z</time></trkpt><trkpt lat="44.92711351162514" lon="6.689610228966284"><ele>1513.5</ele><time>2026-05-01T09:52:35Z</time></trkpt><trkpt lat="44.927235671881796" lon="6.689689732648729"><ele>1511.0</ele><time>2026-05-01T09:52:36Z</time></trkpt><trkpt lat="44.92737106579933" lon="6.689783799157846"><ele>1511.0</ele><time>2026-05-01T09:52:37Z</time></trkpt><trkpt lat="44.92749887857853" lon="6.689870177081962"><ele>1511.0</ele><time>2026-05-01T09:52:38Z</time></trkpt><trkpt lat="44.92760200108729" lon="6.68993469011781"><ele>1511.0</ele><time>2026-05-01T09:52:39Z</time></trkpt><trkpt lat="44.927700066549754" lon="6.689994260738473"><ele>1511.0</ele><time>2026-05-01T09:52:40Z</time></trkpt><trkpt lat="44.92777468152499" lon="6.690051538857055"><ele>1511.0</ele><time>2026-05-01T09:52:41Z</time></trkpt><trkpt lat="44.927860841393716" lon="6.690064228825692"><ele>1514.0</ele><time>2026-05-01T09:52:42Z</time></trkpt><trkpt lat="44.92784823526938" lon="6.689938746731715"><ele>1517.0</ele><time>2026-05-01T09:52:44Z</time></trkpt><trkpt lat="44.92783954426721" lon="6.689783091506037"><ele>1520.0</ele><time>2026-05-01T09:52:46Z</time></trkpt><trkpt lat="44.92771599913459" lon="6.68960539963667"><ele>1523.0</ele><time>2026-05-01T09:52:47Z</time></trkpt><trkpt lat="44.927577890691666" lon="6.6895150283061335"><ele>1519.0</ele><time>2026-05-01T09:52:48Z</time></trkpt><trkpt lat="44.92735912265808" lon="6.689430377967427"><ele>1515.0</ele><time>2026-05-01T09:52:49Z</time></trkpt><trkpt lat="44.92721166357064" lon="6.68933279269797"><ele>1511.0</ele><time>2026-05-01T09:52:50Z</time></trkpt><trkpt lat="44.927092748001" lon="6.689202837635996"><ele>1504.0</ele><time>2026-05-01T09:52:51Z</time></trkpt><trkpt lat="44.92696847206759" lon="6.689177640820329"><ele>1497.0</ele><time>2026-05-01T09:52:52Z</time></trkpt><trkpt lat="44.926845516500684" lon="6.689139623229253"><ele>1490.0</ele><time>2026-05-01T09:52:53Z</time></trkpt><trkpt lat="44.92672037891177" lon="6.689109437825528"><ele>1483.0</ele><time>2026-05-01T09:52:54Z</time></trkpt><trkpt lat="44.92658534546552" lon="6.689077867167658"><ele>1483.0</ele><time>2026-05-01T09:52:55Z</time></trkpt><trkpt lat="44.92645727546721" lon="6.689036687786489"><ele>1483.0</ele><time>2026-05-01T09:52:56Z</time></trkpt><trkpt lat="44.92633951047726" lon="6.689002067888055"><ele>1483.0</ele><time>2026-05-01T09:52:57Z</time></trkpt><trkpt lat="44.926226439057466" lon="6.689001829164617"><ele>1483.0</ele><time>2026-05-01T09:52:58Z</time></trkpt><trkpt lat="44.926106759854854" lon="6.689040408640897"><ele>1483.0</ele><time>2026-05-01T09:52:59Z</time></trkpt><trkpt lat="44.92599353458872" lon="6.689160235564268"><ele>1483.0</ele><time>2026-05-01T09:53:00Z</time></trkpt><trkpt lat="44.92587421347879" lon="6.689238418739283"><ele>1483.0</ele><time>2026-05-01T09:53:01Z</time></trkpt><trkpt lat="44.92576450564111" lon="6.6892062696498185"><ele>1483.0</ele><time>2026-05-01T09:53:02Z</time></trkpt><trkpt lat="44.92566521143861" lon="6.6891329762113845"><ele>1480.6666666666665</ele><time>2026-05-01T09:53:03Z</time></trkpt><trkpt lat="44.92555779195271" lon="6.689010505042191"><ele>1478.3333333333333</ele><time>2026-05-01T09:53:04Z</time></trkpt><trkpt lat="44.92538913519695" lon="6.68882861947687"><ele>1476.0</ele><time>2026-05-01T09:53:05Z</time></trkpt><trkpt lat="44.92526517243672" lon="6.688704656698025"><ele>1476.0</ele><time>2026-05-01T09:53:06Z</time></trkpt><trkpt lat="44.92514391122766" lon="6.68864697843327"><ele>1476.0</ele><time>2026-05-01T09:53:07Z</time></trkpt><trkpt lat="44.925035665216534" lon="6.688560211902643"><ele>1476.0</ele><time>2026-05-01T09:53:08Z</time></trkpt><trkpt lat="44.92491368793974" lon="6.688530004618998"><ele>1476.0</ele><time>2026-05-01T09:53:09Z</time></trkpt><trkpt lat="44.92478450291286" lon="6.688521351870087"><ele>1475.6</ele><time>2026-05-01T09:53:10Z</time></trkpt><trkpt lat="44.92466990387654" lon="6.688543205349639"><ele>1475.1999999999998</ele><time>2026-05-01T09:53:11Z</time></trkpt><trkpt lat="44.924604615267" lon="6.6885842022066235"><ele>1474.8000000000002</ele><time>2026-05-01T09:53:12Z</time></trkpt><trkpt lat="44.92452391917654" lon="6.688700933296235"><ele>1474.4</ele><time>2026-05-01T09:53:13Z</time></trkpt><trkpt lat="44.924495209290775" lon="6.6889007313745115"><ele>1474.0</ele><time>2026-05-01T09:53:14Z</time></trkpt><trkpt lat="44.924468348211384" lon="6.68908257247823"><ele>1474.0</ele><time>2026-05-01T09:53:15Z</time></trkpt><trkpt lat="44.92447609991807" lon="6.689208348032761"><ele>1474.0</ele><time>2026-05-01T09:53:16Z</time></trkpt><trkpt lat="44.924477765824214" lon="6.689384818148804"><ele>1474.0</ele><time>2026-05-01T09:53:17Z</time></trkpt><trkpt lat="44.92442854009306" lon="6.689570650959614"><ele>1474.0</ele><time>2026-05-01T09:53:19Z</time></trkpt><trkpt lat="44.92442149724069" lon="6.6896642590871584"><ele>1474.0</ele><time>2026-05-01T09:53:21Z</time></trkpt><trkpt lat="44.92441601476755" lon="6.689760802121904"><ele>1477.0</ele><time>2026-05-01T09:53:25Z</time></trkpt><trkpt lat="44.924424782446174" lon="6.689917813989432"><ele>1480.0</ele><time>2026-05-01T09:55:03Z</time></trkpt><trkpt lat="44.924416363806316" lon="6.690025434874193"><ele>1483.0</ele><time>2026-05-01T09:55:04Z</time></trkpt><trkpt lat="44.92440570197571" lon="6.690147800524394"><ele>1486.0</ele><time>2026-05-01T09:55:05Z</time></trkpt><trkpt lat="44.924409610456465" lon="6.690274698447059"><ele>1489.0</ele><time>2026-05-01T09:55:06Z</time></trkpt><trkpt lat="44.924373803355316" lon="6.690403677241678"><ele>1491.1666666666665</ele><time>2026-05-01T09:55:07Z</time></trkpt><trkpt lat="44.924348229085545" lon="6.690536401973127"><ele>1493.3333333333333</ele><time>2026-05-01T09:55:08Z</time></trkpt><trkpt lat="44.92431882236605" lon="6.690650740615694"><ele>1495.5</ele><time>2026-05-01T09:55:09Z</time></trkpt><trkpt lat="44.924287713298824" lon="6.690745339524429"><ele>1497.6666666666667</ele><time>2026-05-01T09:55:10Z</time></trkpt><trkpt lat="44.92424394060769" lon="6.690832803739279"><ele>1499.8333333333335</ele><time>2026-05-01T09:55:11Z</time></trkpt><trkpt lat="44.924182991159455" lon="6.690882662038394"><ele>1502.0</ele><time>2026-05-01T09:55:12Z</time></trkpt><trkpt lat="44.92410414695711" lon="6.690864421470078"><ele>1493.75</ele><time>2026-05-01T09:55:13Z</time></trkpt><trkpt lat="44.923979851495055" lon="6.690767552444569"><ele>1485.5</ele><time>2026-05-01T09:55:15Z</time></trkpt><trkpt lat="44.923844731724266" lon="6.690650254437921"><ele>1477.25</ele><time>2026-05-01T09:55:16Z</time></trkpt><trkpt lat="44.923762673989046" lon="6.690523623429739"><ele>1469.0</ele><time>2026-05-01T09:55:17Z</time></trkpt><trkpt lat="44.92370684228461" lon="6.690372192053912"><ele>1464.3333333333335</ele><time>2026-05-01T09:55:18Z</time></trkpt><trkpt lat="44.923628871366034" lon="6.69018938504303"><ele>1459.6666666666667</ele><time>2026-05-01T09:55:19Z</time></trkpt><trkpt lat="44.92354357741424" lon="6.690010745013359"><ele>1455.0</ele><time>2026-05-01T09:55:20Z</time></trkpt><trkpt lat="44.92343451951319" lon="6.689835603709019"><ele>1457.6666666666667</ele><time>2026-05-01T09:55:21Z</time></trkpt><trkpt lat="44.923328985886705" lon="6.689609723598295"><ele>1460.3333333333335</ele><time>2026-05-01T09:55:22Z</time></trkpt><trkpt lat="44.92322563573247" lon="6.689441844095532"><ele>1463.0</ele><time>2026-05-01T09:55:23Z</time></trkpt><trkpt lat="44.92311649205016" lon="6.6892500971926365"><ele>1455.3333333333335</ele><time>2026-05-01T09:55:24Z</time></trkpt><trkpt lat="44.92301341566588" lon="6.689049140488726"><ele>1447.6666666666667</ele><time>2026-05-01T09:55:25Z</time></trkpt><trkpt lat="44.92292269339903" lon="6.688836146940968"><ele>1440.0</ele><time>2026-05-01T09:55:26Z</time></trkpt><trkpt lat="44.92283813020577" lon="6.688595329523214"><ele>1435.0</ele><time>2026-05-01T09:55:27Z</time></trkpt><trkpt lat="44.92277578067516" lon="6.688358703870363"><ele>1430.0</ele><time>2026-05-01T09:55:28Z</time></trkpt><trkpt lat="44.92271026963522" lon="6.688128621638385"><ele>1425.0</ele><time>2026-05-01T09:55:29Z</time></trkpt><trkpt lat="44.922650288871225" lon="6.687914106189515"><ele>1421.3333333333333</ele><time>2026-05-01T09:55:30Z</time></trkpt><trkpt lat="44.92258928223895" lon="6.6876831739551035"><ele>1417.6666666666665</ele><time>2026-05-01T09:55:31Z</time></trkpt><trkpt lat="44.92254218271737" lon="6.687470412075623"><ele>1414.0</ele><time>2026-05-01T09:55:32Z</time></trkpt><trkpt lat="44.92248782992584" lon="6.687281162397283"><ele>1415.25</ele><time>2026-05-01T09:55:33Z</time></trkpt><trkpt lat="44.922428022300195" lon="6.687118093075977"><ele>1416.5</ele><time>2026-05-01T09:55:34Z</time></trkpt><trkpt lat="44.92234815768249" lon="6.6869773723245425"><ele>1417.75</ele><time>2026-05-01T09:55:35Z</time></trkpt><trkpt lat="44.9222576482342" lon="6.686838804414896"><ele>1419.0</ele><time>2026-05-01T09:55:36Z</time></trkpt><trkpt lat="44.9221037270437" lon="6.6868198135716534"><ele>1419.0</ele><time>2026-05-01T09:55:37Z</time></trkpt><trkpt lat="44.9219840641487" lon="6.6868512315850275"><ele>1419.0</ele><time>2026-05-01T09:55:38Z</time></trkpt><trkpt lat="44.92182545202807" lon="6.686884834345972"><ele>1419.0</ele><time>2026-05-01T09:55:39Z</time></trkpt><trkpt lat="44.921725826058704" lon="6.68682218314167"><ele>1419.0</ele><time>2026-05-01T09:55:40Z</time></trkpt><trkpt lat="44.92163585432876" lon="6.686705475569332"><ele>1418.25</ele><time>2026-05-01T09:55:41Z</time></trkpt><trkpt lat="44.92160173956856" lon="6.686486537500906"><ele>1417.5</ele><time>2026-05-01T09:55:42Z</time></trkpt><trkpt lat="44.92153774940309" lon="6.68632089437189"><ele>1416.75</ele><time>2026-05-01T09:55:42.999Z</time></trkpt><trkpt lat="44.92147245291458" lon="6.686157673743685"><ele>1416.0</ele><time>2026-05-01T09:55:43.999Z</time></trkpt><trkpt lat="44.921381715991366" lon="6.6859946005542605"><ele>1416.0</ele><time>2026-05-01T09:55:44.999Z</time></trkpt><trkpt lat="44.92126913373279" lon="6.685833626875938"><ele>1416.0</ele><time>2026-05-01T09:55:45.999Z</time></trkpt><trkpt lat="44.9211325205409" lon="6.6856755894784134"><ele>1416.0</ele><time>2026-05-01T09:55:46.999Z</time></trkpt><trkpt lat="44.92105448101182" lon="6.685477249763972"><ele>1416.0</ele><time>2026-05-01T09:55:47.999Z</time></trkpt><trkpt lat="44.92100212010872" lon="6.685262346766163"><ele>1416.0</ele><time>2026-05-01T09:55:48.999Z</time></trkpt><trkpt lat="44.920994627005776" lon="6.685055639789003"><ele>1416.0</ele><time>2026-05-01T09:55:49.999Z</time></trkpt><trkpt lat="44.921033911865266" lon="6.684845783152297"><ele>1413.3333333333333</ele><time>2026-05-01T09:55:50.999Z</time></trkpt><trkpt lat="44.921092101628204" lon="6.684611684482647"><ele>1410.6666666666665</ele><time>2026-05-01T09:55:51.999Z</time></trkpt><trkpt lat="44.92114685641259" lon="6.684389701244961"><ele>1408.0</ele><time>2026-05-01T09:55:52.999Z</time></trkpt><trkpt lat="44.921209387440584" lon="6.6841197091614"><ele>1406.6666666666665</ele><time>2026-05-01T09:55:53.999Z</time></trkpt><trkpt lat="44.92124444860377" lon="6.6838875820059105"><ele>1405.3333333333333</ele><time>2026-05-01T09:55:54.999Z</time></trkpt><trkpt lat="44.92127759889464" lon="6.683687061757449"><ele>1404.0</ele><time>2026-05-01T09:55:55.999Z</time></trkpt><trkpt lat="44.921282933858244" lon="6.683468702860316"><ele>1402.6666666666667</ele><time>2026-05-01T09:55:56.999Z</time></trkpt><trkpt lat="44.92129482111407" lon="6.68323444193223"><ele>1401.3333333333335</ele><time>2026-05-01T09:55:57.999Z</time></trkpt><trkpt lat="44.92129473255095" lon="6.683008457941929"><ele>1400.0</ele><time>2026-05-01T09:55:58.999Z</time></trkpt><trkpt lat="44.92124704086362" lon="6.682754169656987"><ele>1397.5</ele><time>2026-05-01T09:55:59.999Z</time></trkpt><trkpt lat="44.92118123357577" lon="6.682454837772741"><ele>1395.0</ele><time>2026-05-01T09:56:00.999Z</time></trkpt><trkpt lat="44.92109675395622" lon="6.6821360582664795"><ele>1393.6666666666667</ele><time>2026-05-01T09:56:01.999Z</time></trkpt><trkpt lat="44.92103211358856" lon="6.681866412370419"><ele>1392.3333333333335</ele><time>2026-05-01T09:56:02.999Z</time></trkpt><trkpt lat="44.920959962095885" lon="6.681601009022227"><ele>1391.0</ele><time>2026-05-01T09:56:03.999Z</time></trkpt><trkpt lat="44.92089479975836" lon="6.681350314905198"><ele>1392.3333333333335</ele><time>2026-05-01T09:56:04.999Z</time></trkpt><trkpt lat="44.920826464222955" lon="6.681084265905184"><ele>1393.6666666666667</ele><time>2026-05-01T09:56:05.999Z</time></trkpt><trkpt lat="44.920766944190966" lon="6.680838373934002"><ele>1395.0</ele><time>2026-05-01T09:56:06.999Z</time></trkpt><trkpt lat="44.9207391716172" lon="6.680586568997171"><ele>1395.0</ele><time>2026-05-01T09:56:07.999Z</time></trkpt><trkpt lat="44.92067275720111" lon="6.680352083574865"><ele>1395.0</ele><time>2026-05-01T09:56:08.999Z</time></trkpt><trkpt lat="44.92059562110528" lon="6.680130865815935"><ele>1395.0</ele><time>2026-05-01T09:56:09.999Z</time></trkpt><trkpt lat="44.920511484294416" lon="6.679918361596987"><ele>1393.0</ele><time>2026-05-01T09:56:10.999Z</time></trkpt><trkpt lat="44.92042609257247" lon="6.67970268163966"><ele>1391.0</ele><time>2026-05-01T09:56:11.999Z</time></trkpt><trkpt lat="44.9203263249906" lon="6.679481436485325"><ele>1389.0</ele><time>2026-05-01T09:56:12.999Z</time></trkpt><trkpt lat="44.92020735900853" lon="6.679262639552863"><ele>1388.0</ele><time>2026-05-01T09:56:13.999Z</time></trkpt><trkpt lat="44.92008597301222" lon="6.679039849046643"><ele>1387.0</ele><time>2026-05-01T09:56:14.999Z</time></trkpt><trkpt lat="44.91995255272035" lon="6.678831246132324"><ele>1386.0</ele><time>2026-05-01T09:56:15.999Z</time></trkpt><trkpt lat="44.91981064926812" lon="6.678630116238536"><ele>1383.0</ele><time>2026-05-01T09:56:16.999Z</time></trkpt><trkpt lat="44.91966317137883" lon="6.678419786872802"><ele>1380.0</ele><time>2026-05-01T09:56:17.999Z</time></trkpt><trkpt lat="44.919517812951504" lon="6.678233620704605"><ele>1377.0</ele><time>2026-05-01T09:56:18.999Z</time></trkpt><trkpt lat="44.919372243742565" lon="6.6780617985227035"><ele>1376.0</ele><time>2026-05-01T09:56:19.999Z</time></trkpt><trkpt lat="44.91921182234499" lon="6.677906286077777"><ele>1375.0</ele><time>2026-05-01T09:56:20.999Z</time></trkpt><trkpt lat="44.919047318521976" lon="6.677756293171714"><ele>1374.0</ele><time>2026-05-01T09:56:21.999Z</time></trkpt><trkpt lat="44.91886476421822" lon="6.677608075534178"><ele>1374.0</ele><time>2026-05-01T09:56:22.999Z</time></trkpt><trkpt lat="44.918680297887356" lon="6.6774808635531375"><ele>1374.0</ele><time>2026-05-01T09:56:23.999Z</time></trkpt><trkpt lat="44.918470442123876" lon="6.677381138898278"><ele>1374.0</ele><time>2026-05-01T09:56:24.999Z</time></trkpt><trkpt lat="44.91827407624602" lon="6.677248368407111"><ele>1376.0</ele><time>2026-05-01T09:56:25.999Z</time></trkpt><trkpt lat="44.91804444352601" lon="6.677105907197925"><ele>1378.0</ele><time>2026-05-01T09:56:26.999Z</time></trkpt><trkpt lat="44.917796741975245" lon="6.676973831805909"><ele>1374.5</ele><time>2026-05-01T09:56:27.999Z</time></trkpt><trkpt lat="44.91753752708422" lon="6.676809653679039"><ele>1371.0</ele><time>2026-05-01T09:56:28.999Z</time></trkpt><trkpt lat="44.91730115273447" lon="6.676624295906151"><ele>1371.0</ele><time>2026-05-01T09:56:29.999Z</time></trkpt><trkpt lat="44.91705352473322" lon="6.676446835602825"><ele>1371.0</ele><time>2026-05-01T09:56:30.999Z</time></trkpt><trkpt lat="44.9168049059947" lon="6.676265215011545"><ele>1369.0</ele><time>2026-05-01T09:56:31.999Z</time></trkpt><trkpt lat="44.91656466891349" lon="6.6760847357586695"><ele>1367.0</ele><time>2026-05-01T09:56:32.999Z</time></trkpt><trkpt lat="44.916326773198385" lon="6.6759037178422815"><ele>1367.0</ele><time>2026-05-01T09:56:33.999Z</time></trkpt><trkpt lat="44.916077834884305" lon="6.6757381999472"><ele>1367.0</ele><time>2026-05-01T09:56:34.999Z</time></trkpt><trkpt lat="44.91583975713869" lon="6.675548089656551"><ele>1365.0</ele><time>2026-05-01T09:56:35.999Z</time></trkpt><trkpt lat="44.91560734368787" lon="6.675342855509421"><ele>1363.0</ele><time>2026-05-01T09:56:37Z</time></trkpt><trkpt lat="44.91537777110057" lon="6.67516183426917"><ele>1363.0</ele><time>2026-05-01T09:56:38Z</time></trkpt><trkpt lat="44.91514459006314" lon="6.674991461945293"><ele>1363.0</ele><time>2026-05-01T09:56:39Z</time></trkpt><trkpt lat="44.91491020423786" lon="6.674817927735265"><ele>1364.5</ele><time>2026-05-01T09:56:40Z</time></trkpt><trkpt lat="44.914692792047234" lon="6.674645082774523"><ele>1366.0</ele><time>2026-05-01T09:56:41Z</time></trkpt><trkpt lat="44.91448075087961" lon="6.674472275101644"><ele>1361.5</ele><time>2026-05-01T09:56:42Z</time></trkpt><trkpt lat="44.914264240955596" lon="6.674293193383658"><ele>1357.0</ele><time>2026-05-01T09:56:43Z</time></trkpt><trkpt lat="44.91407409918332" lon="6.674113851660164"><ele>1355.0</ele><time>2026-05-01T09:56:44Z</time></trkpt><trkpt lat="44.913890448719016" lon="6.673902204507971"><ele>1353.0</ele><time>2026-05-01T09:56:45Z</time></trkpt><trkpt lat="44.913724955202596" lon="6.6736748711388065"><ele>1355.5</ele><time>2026-05-01T09:56:46Z</time></trkpt><trkpt lat="44.9135621948162" lon="6.673435903693252"><ele>1358.0</ele><time>2026-05-01T09:56:47Z</time></trkpt><trkpt lat="44.91341607042734" lon="6.673158297406068"><ele>1357.5</ele><time>2026-05-01T09:56:48Z</time></trkpt><trkpt lat="44.91325016332481" lon="6.672923897594752"><ele>1357.0</ele><time>2026-05-01T09:56:49Z</time></trkpt><trkpt lat="44.91309877203918" lon="6.672666417126028"><ele>1359.0</ele><time>2026-05-01T09:56:50Z</time></trkpt><trkpt lat="44.91296279734891" lon="6.672402234946674"><ele>1361.0</ele><time>2026-05-01T09:56:51Z</time></trkpt><trkpt lat="44.91282023724966" lon="6.672134999584862"><ele>1362.0</ele><time>2026-05-01T09:56:52Z</time></trkpt><trkpt lat="44.91266612935156" lon="6.671859694483382"><ele>1363.0</ele><time>2026-05-01T09:56:53Z</time></trkpt><trkpt lat="44.912516657692876" lon="6.671584144469219"><ele>1363.0</ele><time>2026-05-01T09:56:54Z</time></trkpt><trkpt lat="44.91236317144486" lon="6.67132147852904"><ele>1363.0</ele><time>2026-05-01T09:56:55Z</time></trkpt><trkpt lat="44.912216804267544" lon="6.671070967519506"><ele>1365.6666666666665</ele><time>2026-05-01T09:56:56Z</time></trkpt><trkpt lat="44.91206652663734" lon="6.6708540061908925"><ele>1368.3333333333333</ele><time>2026-05-01T09:56:57Z</time></trkpt><trkpt lat="44.91193176360518" lon="6.670616431120805"><ele>1371.0</ele><time>2026-05-01T09:56:58Z</time></trkpt><trkpt lat="44.91179587505951" lon="6.670365448796836"><ele>1368.5</ele><time>2026-05-01T09:56:59Z</time></trkpt><trkpt lat="44.911676934612395" lon="6.6701093625218695"><ele>1366.0</ele><time>2026-05-01T09:57:00Z</time></trkpt><trkpt lat="44.91154758880891" lon="6.669823989967337"><ele>1366.0</ele><time>2026-05-01T09:57:01Z</time></trkpt><trkpt lat="44.91142884677514" lon="6.66953744048975"><ele>1366.0</ele><time>2026-05-01T09:57:02Z</time></trkpt><trkpt lat="44.911308101086185" lon="6.669256433974776"><ele>1367.5</ele><time>2026-05-01T09:57:03Z</time></trkpt><trkpt lat="44.91117617800515" lon="6.668980768776927"><ele>1369.0</ele><time>2026-05-01T09:57:04Z</time></trkpt><trkpt lat="44.91101296963573" lon="6.668727955678493"><ele>1363.5</ele><time>2026-05-01T09:57:05Z</time></trkpt><trkpt lat="44.91087857111082" lon="6.668456829148815"><ele>1358.0</ele><time>2026-05-01T09:57:06Z</time></trkpt><trkpt lat="44.9107546339844" lon="6.668179600021899"><ele>1358.0</ele><time>2026-05-01T09:57:07Z</time></trkpt><trkpt lat="44.91063160769406" lon="6.6679031332183"><ele>1358.0</ele><time>2026-05-01T09:57:08Z</time></trkpt><trkpt lat="44.91050266878949" lon="6.667629603499703"><ele>1360.5</ele><time>2026-05-01T09:57:09Z</time></trkpt><trkpt lat="44.91037566929878" lon="6.667362704435631"><ele>1363.0</ele><time>2026-05-01T09:57:10Z</time></trkpt><trkpt lat="44.91025356371714" lon="6.667090577163716"><ele>1363.3333333333333</ele><time>2026-05-01T09:57:11Z</time></trkpt><trkpt lat="44.910122875499844" lon="6.666831515628503"><ele>1363.6666666666667</ele><time>2026-05-01T09:57:12Z</time></trkpt><trkpt lat="44.91002598193083" lon="6.666575751912051"><ele>1364.0</ele><time>2026-05-01T09:57:13Z</time></trkpt><trkpt lat="44.909930923061125" lon="6.666343606149108"><ele>1359.6666666666667</ele><time>2026-05-01T09:57:14Z</time></trkpt><trkpt lat="44.9098611320123" lon="6.666089672919056"><ele>1355.3333333333333</ele><time>2026-05-01T09:57:15Z</time></trkpt><trkpt lat="44.90978885020895" lon="6.665815117057402"><ele>1351.0</ele><time>2026-05-01T09:57:16Z</time></trkpt><trkpt lat="44.90975020508456" lon="6.665557344056975"><ele>1351.0</ele><time>2026-05-01T09:57:17Z</time></trkpt><trkpt lat="44.90970640998942" lon="6.6652803737640145"><ele>1351.0</ele><time>2026-05-01T09:57:18Z</time></trkpt><trkpt lat="44.909712629583986" lon="6.66495349555689"><ele>1351.0</ele><time>2026-05-01T09:57:19Z</time></trkpt><trkpt lat="44.90973597461562" lon="6.664634868392486"><ele>1349.0</ele><time>2026-05-01T09:57:20Z</time></trkpt><trkpt lat="44.909757272161166" lon="6.664339195459768"><ele>1347.0</ele><time>2026-05-01T09:57:21Z</time></trkpt><trkpt lat="44.90975116930785" lon="6.664045518638255"><ele>1345.0</ele><time>2026-05-01T09:57:22Z</time></trkpt><trkpt lat="44.90973765890627" lon="6.663775303133845"><ele>1345.3333333333333</ele><time>2026-05-01T09:57:23Z</time></trkpt><trkpt lat="44.90971586107769" lon="6.663514617539519"><ele>1345.6666666666667</ele><time>2026-05-01T09:57:24Z</time></trkpt><trkpt lat="44.909693957633394" lon="6.663258845419632"><ele>1346.0</ele><time>2026-05-01T09:57:25Z</time></trkpt><trkpt lat="44.909664733978396" lon="6.663019530186124"><ele>1346.0</ele><time>2026-05-01T09:57:26Z</time></trkpt><trkpt lat="44.90960573237139" lon="6.662850588344842"><ele>1346.0</ele><time>2026-05-01T09:57:27Z</time></trkpt><trkpt lat="44.9095047480873" lon="6.66267627957997"><ele>1346.0</ele><time>2026-05-01T09:57:28Z</time></trkpt><trkpt lat="44.90939292080359" lon="6.662510147862561"><ele>1345.3333333333335</ele><time>2026-05-01T09:57:29Z</time></trkpt><trkpt lat="44.90926605731487" lon="6.662337614716114"><ele>1344.6666666666667</ele><time>2026-05-01T09:57:30Z</time></trkpt><trkpt lat="44.90910792141942" lon="6.662229947639116"><ele>1344.0</ele><time>2026-05-01T09:57:31Z</time></trkpt><trkpt lat="44.90894760674642" lon="6.662151957078144"><ele>1344.0</ele><time>2026-05-01T09:57:32Z</time></trkpt><trkpt lat="44.90878016169083" lon="6.662093550831752"><ele>1344.0</ele><time>2026-05-01T09:57:33Z</time></trkpt><trkpt lat="44.90859039054006" lon="6.662079356585553"><ele>1344.0</ele><time>2026-05-01T09:57:34Z</time></trkpt><trkpt lat="44.90841458747151" lon="6.662085292281416"><ele>1339.3333333333333</ele><time>2026-05-01T09:57:35Z</time></trkpt><trkpt lat="44.90824823958543" lon="6.662097198802383"><ele>1334.6666666666665</ele><time>2026-05-01T09:57:36Z</time></trkpt><trkpt lat="44.908080647034495" lon="6.662075923580151"><ele>1330.0</ele><time>2026-05-01T09:57:37Z</time></trkpt><trkpt lat="44.90791300185058" lon="6.662021506734923"><ele>1330.0</ele><time>2026-05-01T09:57:38Z</time></trkpt><trkpt lat="44.907752174040006" lon="6.661965309498288"><ele>1330.0</ele><time>2026-05-01T09:57:39Z</time></trkpt><trkpt lat="44.90762029759799" lon="6.66187633603668"><ele>1330.0</ele><time>2026-05-01T09:57:40Z</time></trkpt><trkpt lat="44.9075409984002" lon="6.661712900701689"><ele>1331.25</ele><time>2026-05-01T09:57:41Z</time></trkpt><trkpt lat="44.9074629175915" lon="6.66154182802391"><ele>1332.5</ele><time>2026-05-01T09:57:42Z</time></trkpt><trkpt lat="44.90742965000013" lon="6.6613384975442385"><ele>1333.75</ele><time>2026-05-01T09:57:43Z</time></trkpt><trkpt lat="44.907392250210364" lon="6.6611264448654"><ele>1335.0</ele><time>2026-05-01T09:57:44Z</time></trkpt><trkpt lat="44.90738673847089" lon="6.660957184176094"><ele>1338.6666666666667</ele><time>2026-05-01T09:57:45Z</time></trkpt><trkpt lat="44.90741773427859" lon="6.660745097944835"><ele>1342.3333333333335</ele><time>2026-05-01T09:57:46Z</time></trkpt><trkpt lat="44.90742563963145" lon="6.660507213357413"><ele>1346.0</ele><time>2026-05-01T09:57:47Z</time></trkpt><trkpt lat="44.907403052326224" lon="6.660292727140867"><ele>1351.0</ele><time>2026-05-01T09:57:48Z</time></trkpt><trkpt lat="44.90734152775717" lon="6.660083630089407"><ele>1356.0</ele><time>2026-05-01T09:57:49Z</time></trkpt><trkpt lat="44.907188711954824" lon="6.659873468482079"><ele>1361.0</ele><time>2026-05-01T09:57:50Z</time></trkpt><trkpt lat="44.90706522247078" lon="6.659700011717383"><ele>1361.0</ele><time>2026-05-01T09:57:51Z</time></trkpt><trkpt lat="44.9069448163703" lon="6.659552354627928"><ele>1361.0</ele><time>2026-05-01T09:57:51.999Z</time></trkpt><trkpt lat="44.906766412158596" lon="6.6594459339782235"><ele>1361.0</ele><time>2026-05-01T09:57:52.999Z</time></trkpt><trkpt lat="44.906551982013525" lon="6.659413018642352"><ele>1362.0</ele><time>2026-05-01T09:57:53.999Z</time></trkpt><trkpt lat="44.90635512538507" lon="6.659278901031631"><ele>1363.0</ele><time>2026-05-01T09:57:54.999Z</time></trkpt><trkpt lat="44.90617288055196" lon="6.659141378530029"><ele>1364.0</ele><time>2026-05-01T09:57:55.999Z</time></trkpt><trkpt lat="44.90600974397838" lon="6.659016173798382"><ele>1359.0</ele><time>2026-05-01T09:57:56.999Z</time></trkpt><trkpt lat="44.90586788721393" lon="6.658886039272491"><ele>1354.0</ele><time>2026-05-01T09:57:57.999Z</time></trkpt><trkpt lat="44.905723958049045" lon="6.658732461128904"><ele>1349.0</ele><time>2026-05-01T09:57:58.999Z</time></trkpt><trkpt lat="44.90560812334497" lon="6.65852107262089"><ele>1349.0</ele><time>2026-05-01T09:57:59.999Z</time></trkpt><trkpt lat="44.905477950210305" lon="6.65830839803681"><ele>1349.0</ele><time>2026-05-01T09:58:00.999Z</time></trkpt><trkpt lat="44.90535830166447" lon="6.658098289702978"><ele>1349.0</ele><time>2026-05-01T09:58:01.999Z</time></trkpt><trkpt lat="44.905249127133956" lon="6.657905059807695"><ele>1344.0</ele><time>2026-05-01T09:58:02.999Z</time></trkpt><trkpt lat="44.90514097452196" lon="6.657712041059071"><ele>1339.0</ele><time>2026-05-01T09:58:03.999Z</time></trkpt><trkpt lat="44.90502667050555" lon="6.65753274678505"><ele>1334.0</ele><time>2026-05-01T09:58:04.999Z</time></trkpt><trkpt lat="44.90494813281685" lon="6.657332278543653"><ele>1334.0</ele><time>2026-05-01T09:58:05.999Z</time></trkpt><trkpt lat="44.904895551525705" lon="6.657148342727469"><ele>1334.0</ele><time>2026-05-01T09:58:06.999Z</time></trkpt><trkpt lat="44.904873514605555" lon="6.656933069448124"><ele>1334.0</ele><time>2026-05-01T09:58:07.999Z</time></trkpt><trkpt lat="44.90486702939928" lon="6.6567208164408616"><ele>1334.0</ele><time>2026-05-01T09:58:08.999Z</time></trkpt><trkpt lat="44.90486888602565" lon="6.656493003676248"><ele>1335.3333333333335</ele><time>2026-05-01T09:58:09.999Z</time></trkpt><trkpt lat="44.90485843424728" lon="6.656132347817994"><ele>1336.6666666666667</ele><time>2026-05-01T09:58:10.999Z</time></trkpt><trkpt lat="44.90484753995724" lon="6.655868110747631"><ele>1338.0</ele><time>2026-05-01T09:58:11.999Z</time></trkpt><trkpt lat="44.90482155685974" lon="6.655590565639645"><ele>1341.3333333333333</ele><time>2026-05-01T09:58:12.999Z</time></trkpt><trkpt lat="44.90476321974761" lon="6.655294915949563"><ele>1344.6666666666665</ele><time>2026-05-01T09:58:13.999Z</time></trkpt><trkpt lat="44.904708553622896" lon="6.6550103038881545"><ele>1348.0</ele><time>2026-05-01T09:58:14.999Z</time></trkpt><trkpt lat="44.90463814280204" lon="6.654716979007882"><ele>1356.3333333333333</ele><time>2026-05-01T09:58:15.999Z</time></trkpt><trkpt lat="44.90453652369262" lon="6.654429243880562"><ele>1364.6666666666667</ele><time>2026-05-01T09:58:16.999Z</time></trkpt><trkpt lat="44.904457035715396" lon="6.654141347405188"><ele>1373.0</ele><time>2026-05-01T09:58:17.999Z</time></trkpt><trkpt lat="44.90435490284447" lon="6.653869517141065"><ele>1380.6666666666667</ele><time>2026-05-01T09:58:18.999Z</time></trkpt><trkpt lat="44.904252259953154" lon="6.653599258815441"><ele>1388.3333333333333</ele><time>2026-05-01T09:58:19.999Z</time></trkpt><trkpt lat="44.90413564829682" lon="6.65332817621111"><ele>1396.0</ele><time>2026-05-01T09:58:20.999Z</time></trkpt><trkpt lat="44.90402425746383" lon="6.653044322405882"><ele>1387.0</ele><time>2026-05-01T09:58:21.999Z</time></trkpt><trkpt lat="44.90389024482823" lon="6.652776566249488"><ele>1378.0</ele><time>2026-05-01T09:58:22.999Z</time></trkpt><trkpt lat="44.903760278199165" lon="6.652534782951838"><ele>1369.0</ele><time>2026-05-01T09:58:23.999Z</time></trkpt><trkpt lat="44.90363467541807" lon="6.652290547560853"><ele>1369.0</ele><time>2026-05-01T09:58:24.999Z</time></trkpt><trkpt lat="44.90349729852675" lon="6.652047718655568"><ele>1369.0</ele><time>2026-05-01T09:58:25.999Z</time></trkpt><trkpt lat="44.903371104321934" lon="6.651806925226653"><ele>1369.0</ele><time>2026-05-01T09:58:26.999Z</time></trkpt><trkpt lat="44.90325628761799" lon="6.651555755856458"><ele>1370.3333333333333</ele><time>2026-05-01T09:58:27.999Z</time></trkpt><trkpt lat="44.90313746045381" lon="6.651307639780071"><ele>1371.6666666666667</ele><time>2026-05-01T09:58:28.999Z</time></trkpt><trkpt lat="44.90302287782802" lon="6.651081037993066"><ele>1373.0</ele><time>2026-05-01T09:58:29.999Z</time></trkpt><trkpt lat="44.90292362172317" lon="6.650869059615679"><ele>1373.0</ele><time>2026-05-01T09:58:30.999Z</time></trkpt><trkpt lat="44.902831703976226" lon="6.650688709832558"><ele>1373.0</ele><time>2026-05-01T09:58:31.999Z</time></trkpt><trkpt lat="44.90279483923084" lon="6.650524319754441"><ele>1373.0</ele><time>2026-05-01T09:58:32.999Z</time></trkpt><trkpt lat="44.90277417988448" lon="6.650366536431326"><ele>1373.0</ele><time>2026-05-01T09:58:33.999Z</time></trkpt><trkpt lat="44.902792685044965" lon="6.650219773257736"><ele>1369.5</ele><time>2026-05-01T09:58:34.999Z</time></trkpt><trkpt lat="44.90284193907002" lon="6.65005604891006"><ele>1366.0</ele><time>2026-05-01T09:58:35.999Z</time></trkpt><trkpt lat="44.90293583127553" lon="6.649915975005757"><ele>1362.5</ele><time>2026-05-01T09:58:36.999Z</time></trkpt><trkpt lat="44.90301383789702" lon="6.649759141652013"><ele>1359.0</ele><time>2026-05-01T09:58:37.999Z</time></trkpt><trkpt lat="44.903073331882005" lon="6.649616791692396"><ele>1355.75</ele><time>2026-05-01T09:58:38.999Z</time></trkpt><trkpt lat="44.903124111605436" lon="6.649445537517859"><ele>1352.5</ele><time>2026-05-01T09:58:39.999Z</time></trkpt><trkpt lat="44.90314474787718" lon="6.649286035922202"><ele>1349.25</ele><time>2026-05-01T09:58:40.999Z</time></trkpt><trkpt lat="44.903164972887964" lon="6.649100045037153"><ele>1346.0</ele><time>2026-05-01T09:58:41.999Z</time></trkpt><trkpt lat="44.903178487138135" lon="6.648925257397873"><ele>1346.0</ele><time>2026-05-01T09:58:43Z</time></trkpt><trkpt lat="44.90315622680778" lon="6.648744081318276"><ele>1346.0</ele><time>2026-05-01T09:58:44Z</time></trkpt><trkpt lat="44.90315035596365" lon="6.648584916064911"><ele>1346.0</ele><time>2026-05-01T09:58:45Z</time></trkpt><trkpt lat="44.9031005100986" lon="6.648431915656968"><ele>1346.0</ele><time>2026-05-01T09:58:46Z</time></trkpt><trkpt lat="44.90308149140851" lon="6.648263795380758"><ele>1346.75</ele><time>2026-05-01T09:58:47Z</time></trkpt><trkpt lat="44.903055973913574" lon="6.648112630842634"><ele>1347.5</ele><time>2026-05-01T09:58:48Z</time></trkpt><trkpt lat="44.90301415045672" lon="6.647948434348008"><ele>1348.25</ele><time>2026-05-01T09:58:49Z</time></trkpt><trkpt lat="44.90297352168201" lon="6.6478090946978545"><ele>1349.0</ele><time>2026-05-01T09:58:50Z</time></trkpt><trkpt lat="44.902901726795754" lon="6.647692293590311"><ele>1349.2</ele><time>2026-05-01T09:58:51Z</time></trkpt><trkpt lat="44.90282501233521" lon="6.647579217742945"><ele>1349.4</ele><time>2026-05-01T09:58:52Z</time></trkpt><trkpt lat="44.90276647872346" lon="6.647474206149232"><ele>1349.6</ele><time>2026-05-01T09:58:53Z</time></trkpt><trkpt lat="44.902692812867826" lon="6.647386515674735"><ele>1349.8</ele><time>2026-05-01T09:58:54Z</time></trkpt><trkpt lat="44.902639161194664" lon="6.647305944445854"><ele>1350.0</ele><time>2026-05-01T09:58:55Z</time></trkpt><trkpt lat="44.90258462005146" lon="6.647231139327876"><ele>1348.3333333333333</ele><time>2026-05-01T09:58:56Z</time></trkpt><trkpt lat="44.90252279156235" lon="6.64716389465184"><ele>1346.6666666666667</ele><time>2026-05-01T09:58:57Z</time></trkpt><trkpt lat="44.902474588639386" lon="6.647085454408857"><ele>1345.0</ele><time>2026-05-01T09:58:58Z</time></trkpt><trkpt lat="44.902420960001336" lon="6.647002047512881"><ele>1343.3333333333335</ele><time>2026-05-01T09:58:59Z</time></trkpt><trkpt lat="44.902369794840524" lon="6.64693534475036"><ele>1341.6666666666667</ele><time>2026-05-01T09:59:00Z</time></trkpt><trkpt lat="44.902283418573376" lon="6.646813517044796"><ele>1340.0</ele><time>2026-05-01T09:59:02Z</time></trkpt><trkpt lat="44.90223772341277" lon="6.646745451994379"><ele>1339.9999999999998</ele><time>2026-05-01T09:59:03Z</time></trkpt><trkpt lat="44.90218891033957" lon="6.64668662887175"><ele>1340.0</ele><time>2026-05-01T09:59:04Z</time></trkpt><trkpt lat="44.90214708785178" lon="6.646599475642584"><ele>1340.0</ele><time>2026-05-01T09:59:06Z</time></trkpt><trkpt lat="44.9021235928877" lon="6.646496982070997"><ele>1340.0</ele><time>2026-05-01T09:59:09Z</time></trkpt><trkpt lat="44.902078959238786" lon="6.646414055835488"><ele>1340.0</ele><time>2026-05-01T09:59:13Z</time></trkpt><trkpt lat="44.90202010049388" lon="6.646354532820333"><ele>1339.9999999999998</ele><time>2026-05-01T09:59:22Z</time></trkpt><trkpt lat="44.90197094826995" lon="6.646280811055373"><ele>1340.0</ele><time>2026-05-01T09:59:24Z</time></trkpt><trkpt lat="44.90191042214843" lon="6.646181375673876"><ele>1339.0</ele><time>2026-05-01T09:59:26Z</time></trkpt><trkpt lat="44.901895094357975" lon="6.6460852833811135"><ele>1338.0</ele><time>2026-05-01T09:59:28Z</time></trkpt><trkpt lat="44.901877783531106" lon="6.645980442151523"><ele>1337.0</ele><time>2026-05-01T09:59:30Z</time></trkpt><trkpt lat="44.901805291698736" lon="6.6458567651906995"><ele>1336.0</ele><time>2026-05-01T09:59:32Z</time></trkpt><trkpt lat="44.9017640916661" lon="6.6457460788240486"><ele>1335.0</ele><time>2026-05-01T09:59:34Z</time></trkpt><trkpt lat="44.90169547293524" lon="6.645599992310048"><ele>1335.0</ele><time>2026-05-01T09:59:36Z</time></trkpt><trkpt lat="44.90166340933682" lon="6.645509433453483"><ele>1335.0</ele><time>2026-05-01T09:59:37Z</time></trkpt><trkpt lat="44.90163041817821" lon="6.645431451403117"><ele>1335.0</ele><time>2026-05-01T09:59:38Z</time></trkpt><trkpt lat="44.901580560143024" lon="6.645272675751289"><ele>1335.0</ele><time>2026-05-01T09:59:40Z</time></trkpt><trkpt lat="44.90156265964716" lon="6.6451830755257815"><ele>1335.0</ele><time>2026-05-01T09:59:41Z</time></trkpt><trkpt lat="44.901546451322545" lon="6.645084974312279"><ele>1335.0</ele><time>2026-05-01T09:59:42Z</time></trkpt><trkpt lat="44.901540302230394" lon="6.644986076925476"><ele>1335.0</ele><time>2026-05-01T09:59:43Z</time></trkpt><trkpt lat="44.90153149526186" lon="6.644890751054918"><ele>1335.0</ele><time>2026-05-01T09:59:44Z</time></trkpt><trkpt lat="44.901528013612655" lon="6.64479767767373"><ele>1335.0</ele><time>2026-05-01T09:59:45Z</time></trkpt><trkpt lat="44.901525745253686" lon="6.644636057255972"><ele>1335.0</ele><time>2026-05-01T09:59:47Z</time></trkpt><trkpt lat="44.90152784280262" lon="6.644463240414214"><ele>1335.0</ele><time>2026-05-01T09:59:49Z</time></trkpt><trkpt lat="44.901535951883744" lon="6.6443070976528125"><ele>1335.0</ele><time>2026-05-01T09:59:51Z</time></trkpt><trkpt lat="44.90154942083985" lon="6.644167537716004"><ele>1335.0</ele><time>2026-05-01T09:59:52.999Z</time></trkpt><trkpt lat="44.90155321751024" lon="6.644011524235852"><ele>1335.0</ele><time>2026-05-01T09:59:54.999Z</time></trkpt><trkpt lat="44.90158409232591" lon="6.64389465007405"><ele>1335.0</ele><time>2026-05-01T09:59:56.999Z</time></trkpt><trkpt lat="44.90164431593184" lon="6.643839492302451"><ele>1335.0</ele><time>2026-05-01T09:59:58.999Z</time></trkpt><trkpt lat="44.90160218749199" lon="6.643762585535809"><ele>1335.0</ele><time>2026-05-01T10:00:02.999Z</time></trkpt><trkpt lat="44.90150370054562" lon="6.643687870241037"><ele>1335.0</ele><time>2026-05-01T10:00:36.999Z</time></trkpt><trkpt lat="44.90141550120265" lon="6.643692412448132"><ele>1335.0</ele><time>2026-05-01T10:00:38.999Z</time></trkpt><trkpt lat="44.90137990758695" lon="6.643933704731716"><ele>1335.0</ele><time>2026-05-01T10:00:44.999Z</time></trkpt><trkpt lat="44.90146829567697" lon="6.644024918006006"><ele>1335.0</ele><time>2026-05-01T10:00:45.999Z</time></trkpt><trkpt lat="44.90151604379238" lon="6.644115713961041"><ele>1335.0</ele><time>2026-05-01T10:00:46.999Z</time></trkpt><trkpt lat="44.90150419402986" lon="6.644217710662304"><ele>1335.0</ele><time>2026-05-01T10:00:47.999Z</time></trkpt><trkpt lat="44.90151404427751" lon="6.644374607797883"><ele>1335.0</ele><time>2026-05-01T10:00:50Z</time></trkpt><trkpt lat="44.90156595596858" lon="6.644453956465711"><ele>1335.0</ele><time>2026-05-01T10:00:51Z</time></trkpt><trkpt lat="44.90149488926842" lon="6.64458483248619"><ele>1335.0</ele><time>2026-05-01T10:00:53Z</time></trkpt><trkpt lat="44.9014916451724" lon="6.644723710708307"><ele>1335.0</ele><time>2026-05-01T10:00:55Z</time></trkpt><trkpt lat="44.90149269529649" lon="6.644912371840688"><ele>1335.0</ele><time>2026-05-01T10:00:57Z</time></trkpt><trkpt lat="44.90151062435856" lon="6.645023675555989"><ele>1335.0</ele><time>2026-05-01T10:00:58Z</time></trkpt><trkpt lat="44.90150693463703" lon="6.645125066959506"><ele>1335.0</ele><time>2026-05-01T10:00:59Z</time></trkpt><trkpt lat="44.90152998567861" lon="6.645221354457084"><ele>1335.0</ele><time>2026-05-01T10:01:00Z</time></trkpt><trkpt lat="44.901552966911396" lon="6.645325238209762"><ele>1335.0</ele><time>2026-05-01T10:01:01Z</time></trkpt><trkpt lat="44.90157612368372" lon="6.64541045619958"><ele>1335.0</ele><time>2026-05-01T10:01:02Z</time></trkpt><trkpt lat="44.901605356505314" lon="6.6455610542876"><ele>1335.0</ele><time>2026-05-01T10:01:04Z</time></trkpt><trkpt lat="44.901660522509765" lon="6.64571491917733"><ele>1335.0</ele><time>2026-05-01T10:01:06Z</time></trkpt><trkpt lat="44.901697645731794" lon="6.645814542590898"><ele>1335.0</ele><time>2026-05-01T10:01:08Z</time></trkpt><trkpt lat="44.90176442382135" lon="6.645921665793227"><ele>1335.0</ele><time>2026-05-01T10:01:11Z</time></trkpt><trkpt lat="44.90178187064234" lon="6.646028226182287"><ele>1335.8333333333333</ele><time>2026-05-01T10:01:13Z</time></trkpt><trkpt lat="44.90184428913372" lon="6.646151315988929"><ele>1336.6666666666667</ele><time>2026-05-01T10:01:15Z</time></trkpt><trkpt lat="44.90188639728074" lon="6.646219950511946"><ele>1337.5</ele><time>2026-05-01T10:01:16Z</time></trkpt><trkpt lat="44.901957120404745" lon="6.646319075765388"><ele>1338.3333333333335</ele><time>2026-05-01T10:01:18Z</time></trkpt><trkpt lat="44.902003410149625" lon="6.646403325308102"><ele>1339.1666666666667</ele><time>2026-05-01T10:01:20Z</time></trkpt><trkpt lat="44.902058366777375" lon="6.6464926653875995"><ele>1340.0</ele><time>2026-05-01T10:01:23Z</time></trkpt><trkpt lat="44.90209108875831" lon="6.646570481905313"><ele>1340.0</ele><time>2026-05-01T10:01:32Z</time></trkpt></trkseg><trkseg><trkpt lat="44.9020622426796" lon="6.646428378890317"><ele>1339.9999999999998</ele><time>2026-05-01T10:44:28Z</time></trkpt><trkpt lat="44.90202732571383" lon="6.646330112441003"><ele>1340.0</ele><time>2026-05-01T10:44:31Z</time></trkpt><trkpt lat="44.90200692547638" lon="6.646228191334388"><ele>1340.0</ele><time>2026-05-01T10:45:23Z</time></trkpt><trkpt lat="44.901941384002775" lon="6.646248672701078"><ele>1340.0</ele><time>2026-05-01T10:45:41.999Z</time></trkpt><trkpt lat="44.90190542592991" lon="6.646165116781292"><ele>1340.0</ele><time>2026-05-01T10:47:08Z</time></trkpt><trkpt lat="44.901872146555995" lon="6.646089350564849"><ele>1339.9999999999998</ele><time>2026-05-01T10:47:10Z</time></trkpt><trkpt lat="44.90181978523819" lon="6.64599625729089"><ele>1340.0</ele><time>2026-05-01T10:47:12Z</time></trkpt><trkpt lat="44.9017694991904" lon="6.645919118684979"><ele>1339.0</ele><time>2026-05-01T10:47:14Z</time></trkpt><trkpt lat="44.9017324806254" lon="6.645814973558715"><ele>1338.0</ele><time>2026-05-01T10:47:16Z</time></trkpt><trkpt lat="44.90170781085825" lon="6.64571645406669"><ele>1337.0</ele><time>2026-05-01T10:47:18Z</time></trkpt><trkpt lat="44.90164954701344" lon="6.645581840519978"><ele>1336.0</ele><time>2026-05-01T10:47:20Z</time></trkpt><trkpt lat="44.90162220765852" lon="6.645492517500838"><ele>1335.0</ele><time>2026-05-01T10:47:21Z</time></trkpt><trkpt lat="44.90157563947155" lon="6.645338100261796"><ele>1335.1666666666667</ele><time>2026-05-01T10:47:23Z</time></trkpt><trkpt lat="44.90155779567876" lon="6.645249428356471"><ele>1335.3333333333333</ele><time>2026-05-01T10:47:24Z</time></trkpt><trkpt lat="44.901521700185455" lon="6.645095553179399"><ele>1335.5</ele><time>2026-05-01T10:47:26Z</time></trkpt><trkpt lat="44.901512765611706" lon="6.644995021310387"><ele>1335.6666666666665</ele><time>2026-05-01T10:47:27Z</time></trkpt><trkpt lat="44.90152683324155" lon="6.6448438975816195"><ele>1335.8333333333333</ele><time>2026-05-01T10:47:29Z</time></trkpt><trkpt lat="44.901519259696144" lon="6.644745312001831"><ele>1336.0</ele><time>2026-05-01T10:47:30Z</time></trkpt><trkpt lat="44.901540280345" lon="6.644577519885748"><ele>1335.75</ele><time>2026-05-01T10:47:32Z</time></trkpt><trkpt lat="44.901536224914686" lon="6.644416547082175"><ele>1335.5</ele><time>2026-05-01T10:47:34Z</time></trkpt><trkpt lat="44.90154379350405" lon="6.644255296651852"><ele>1335.25</ele><time>2026-05-01T10:47:36Z</time></trkpt><trkpt lat="44.901535430458054" lon="6.64407943844138"><ele>1335.0</ele><time>2026-05-01T10:47:38Z</time></trkpt><trkpt lat="44.90153881780253" lon="6.6439074974538785"><ele>1335.0</ele><time>2026-05-01T10:47:40Z</time></trkpt><trkpt lat="44.90152924256559" lon="6.643708336455262"><ele>1335.0</ele><time>2026-05-01T10:47:41.999Z</time></trkpt><trkpt lat="44.90150803352658" lon="6.6436190239013495"><ele>1335.0</ele><time>2026-05-01T10:47:42.999Z</time></trkpt><trkpt lat="44.90148267261403" lon="6.643529700230719"><ele>1335.0</ele><time>2026-05-01T10:47:43.999Z</time></trkpt><trkpt lat="44.90149477461062" lon="6.643432168470611"><ele>1335.0</ele><time>2026-05-01T10:47:44.999Z</time></trkpt><trkpt lat="44.901509132594235" lon="6.643326216676106"><ele>1335.0</ele><time>2026-05-01T10:47:45.999Z</time></trkpt><trkpt lat="44.90155575181247" lon="6.643209603708629"><ele>1334.0</ele><time>2026-05-01T10:47:46.999Z</time></trkpt><trkpt lat="44.90159301959056" lon="6.64310228754415"><ele>1333.0</ele><time>2026-05-01T10:47:47.999Z</time></trkpt><trkpt lat="44.90162149254747" lon="6.642979285280049"><ele>1332.0</ele><time>2026-05-01T10:47:48.999Z</time></trkpt><trkpt lat="44.90163605378552" lon="6.642839437865455"><ele>1331.0</ele><time>2026-05-01T10:47:49.999Z</time></trkpt><trkpt lat="44.901677690370505" lon="6.642714283382198"><ele>1330.0</ele><time>2026-05-01T10:47:50.999Z</time></trkpt><trkpt lat="44.90169882662955" lon="6.642556993205726"><ele>1330.6</ele><time>2026-05-01T10:47:51.999Z</time></trkpt><trkpt lat="44.90172941390929" lon="6.642417770696379"><ele>1331.2</ele><time>2026-05-01T10:47:52.999Z</time></trkpt><trkpt lat="44.901756035226036" lon="6.642264641597473"><ele>1331.8000000000002</ele><time>2026-05-01T10:47:53.999Z</time></trkpt><trkpt lat="44.901791373236925" lon="6.6421153487215205"><ele>1332.4</ele><time>2026-05-01T10:47:54.999Z</time></trkpt><trkpt lat="44.901855100214846" lon="6.6420035032375635"><ele>1333.0</ele><time>2026-05-01T10:47:55.999Z</time></trkpt><trkpt lat="44.90188416113029" lon="6.641861597733884"><ele>1333.0</ele><time>2026-05-01T10:47:56.999Z</time></trkpt><trkpt lat="44.9019146640757" lon="6.64171207119984"><ele>1333.0</ele><time>2026-05-01T10:47:57.999Z</time></trkpt><trkpt lat="44.90193701393102" lon="6.641569895548525"><ele>1333.0</ele><time>2026-05-01T10:47:58.999Z</time></trkpt><trkpt lat="44.901956297496945" lon="6.64141619652464"><ele>1333.0</ele><time>2026-05-01T10:47:59.999Z</time></trkpt><trkpt lat="44.901972483249736" lon="6.6412590939601195"><ele>1333.0</ele><time>2026-05-01T10:48:00.999Z</time></trkpt><trkpt lat="44.90199417797349" lon="6.641116212173363"><ele>1331.8000000000002</ele><time>2026-05-01T10:48:01.999Z</time></trkpt><trkpt lat="44.902025589231044" lon="6.640978017606615"><ele>1330.6</ele><time>2026-05-01T10:48:02.999Z</time></trkpt><trkpt lat="44.902048452841214" lon="6.6408356739885885"><ele>1329.4</ele><time>2026-05-01T10:48:03.999Z</time></trkpt><trkpt lat="44.90205733615735" lon="6.64071105988556"><ele>1328.1999999999998</ele><time>2026-05-01T10:48:04.999Z</time></trkpt><trkpt lat="44.90208965844348" lon="6.640548804901616"><ele>1327.0</ele><time>2026-05-01T10:48:05.999Z</time></trkpt><trkpt lat="44.90211280251044" lon="6.640432248080956"><ele>1326.5</ele><time>2026-05-01T10:48:06.999Z</time></trkpt><trkpt lat="44.902141563496606" lon="6.640283822065963"><ele>1326.0</ele><time>2026-05-01T10:48:07.999Z</time></trkpt><trkpt lat="44.902179557397076" lon="6.640085476971629"><ele>1325.5</ele><time>2026-05-01T10:48:08.999Z</time></trkpt><trkpt lat="44.90220882757646" lon="6.63991947023839"><ele>1325.0</ele><time>2026-05-01T10:48:09.999Z</time></trkpt><trkpt lat="44.90223474020683" lon="6.6397597854960235"><ele>1325.0</ele><time>2026-05-01T10:48:10.999Z</time></trkpt><trkpt lat="44.90226311506736" lon="6.63961095698449"><ele>1325.0</ele><time>2026-05-01T10:48:11.999Z</time></trkpt><trkpt lat="44.90229332013509" lon="6.639473455142535"><ele>1325.0</ele><time>2026-05-01T10:48:12.999Z</time></trkpt><trkpt lat="44.90232809460023" lon="6.639331212327962"><ele>1325.0</ele><time>2026-05-01T10:48:13.999Z</time></trkpt><trkpt lat="44.90235817728671" lon="6.639196916312336"><ele>1325.0</ele><time>2026-05-01T10:48:14.999Z</time></trkpt><trkpt lat="44.902387276570565" lon="6.639083649120711"><ele>1324.8</ele><time>2026-05-01T10:48:15.999Z</time></trkpt><trkpt lat="44.90242007226624" lon="6.638961867303672"><ele>1324.6</ele><time>2026-05-01T10:48:16.999Z</time></trkpt><trkpt lat="44.90245705328486" lon="6.6388144892709615"><ele>1324.4</ele><time>2026-05-01T10:48:17.999Z</time></trkpt><trkpt lat="44.90250853339254" lon="6.638666023256479"><ele>1324.2</ele><time>2026-05-01T10:48:18.999Z</time></trkpt><trkpt lat="44.9025608893505" lon="6.6385241127753"><ele>1324.0</ele><time>2026-05-01T10:48:19.999Z</time></trkpt><trkpt lat="44.902624882691235" lon="6.638380150620669"><ele>1324.0</ele><time>2026-05-01T10:48:20.999Z</time></trkpt><trkpt lat="44.90269088832306" lon="6.638226038530165"><ele>1324.0</ele><time>2026-05-01T10:48:21.999Z</time></trkpt><trkpt lat="44.90276972583473" lon="6.638074769018138"><ele>1324.0</ele><time>2026-05-01T10:48:22.999Z</time></trkpt><trkpt lat="44.90283496751406" lon="6.637922822779148"><ele>1324.0</ele><time>2026-05-01T10:48:24Z</time></trkpt><trkpt lat="44.902922328902896" lon="6.637780185828844"><ele>1321.4</ele><time>2026-05-01T10:48:25Z</time></trkpt><trkpt lat="44.903013011667525" lon="6.637676279173317"><ele>1318.8000000000002</ele><time>2026-05-01T10:48:26Z</time></trkpt><trkpt lat="44.90308535408854" lon="6.637587323341201"><ele>1316.1999999999998</ele><time>2026-05-01T10:48:27Z</time></trkpt><trkpt lat="44.90314966316953" lon="6.637459279380588"><ele>1313.6</ele><time>2026-05-01T10:48:28Z</time></trkpt><trkpt lat="44.903184256755836" lon="6.637311535584883"><ele>1311.0</ele><time>2026-05-01T10:48:29Z</time></trkpt><trkpt lat="44.90321594237174" lon="6.637149640550759"><ele>1311.0</ele><time>2026-05-01T10:48:30Z</time></trkpt><trkpt lat="44.903262578954084" lon="6.636976611863872"><ele>1311.0</ele><time>2026-05-01T10:48:31Z</time></trkpt><trkpt lat="44.90330628896699" lon="6.636784927666822"><ele>1311.0</ele><time>2026-05-01T10:48:32Z</time></trkpt><trkpt lat="44.90335394328767" lon="6.636606734443712"><ele>1311.0</ele><time>2026-05-01T10:48:33Z</time></trkpt><trkpt lat="44.90340554753127" lon="6.636467073551667"><ele>1310.0</ele><time>2026-05-01T10:48:34Z</time></trkpt><trkpt lat="44.90349309334956" lon="6.636343752005861"><ele>1309.0</ele><time>2026-05-01T10:48:35Z</time></trkpt><trkpt lat="44.90359664565713" lon="6.636216554852657"><ele>1308.0</ele><time>2026-05-01T10:48:36Z</time></trkpt><trkpt lat="44.903702352188304" lon="6.636069777490806"><ele>1307.0</ele><time>2026-05-01T10:48:37Z</time></trkpt><trkpt lat="44.903823549755316" lon="6.635934419550446"><ele>1307.0</ele><time>2026-05-01T10:48:38Z</time></trkpt><trkpt lat="44.90391965571631" lon="6.635807148275558"><ele>1307.0</ele><time>2026-05-01T10:48:39Z</time></trkpt><trkpt lat="44.90401564723319" lon="6.635675877943487"><ele>1307.0</ele><time>2026-05-01T10:48:40Z</time></trkpt><trkpt lat="44.90410941726224" lon="6.63556772347002"><ele>1307.0</ele><time>2026-05-01T10:48:41Z</time></trkpt><trkpt lat="44.90422710616104" lon="6.635476902878971"><ele>1306.25</ele><time>2026-05-01T10:48:42Z</time></trkpt><trkpt lat="44.9043490701126" lon="6.6354281283897025"><ele>1305.5</ele><time>2026-05-01T10:48:43Z</time></trkpt><trkpt lat="44.90447106467324" lon="6.6353501377080955"><ele>1304.75</ele><time>2026-05-01T10:48:44Z</time></trkpt><trkpt lat="44.904583795702166" lon="6.635281933377698"><ele>1304.0</ele><time>2026-05-01T10:48:45Z</time></trkpt><trkpt lat="44.90468418941958" lon="6.635209879076464"><ele>1304.0</ele><time>2026-05-01T10:48:46Z</time></trkpt><trkpt lat="44.90477660633896" lon="6.63510047803435"><ele>1304.0</ele><time>2026-05-01T10:48:47Z</time></trkpt><trkpt lat="44.90485584343704" lon="6.634972753070437"><ele>1304.0</ele><time>2026-05-01T10:48:48Z</time></trkpt><trkpt lat="44.90493348985416" lon="6.634824943161889"><ele>1304.0</ele><time>2026-05-01T10:48:49Z</time></trkpt><trkpt lat="44.904941746915696" lon="6.634664173587674"><ele>1304.0</ele><time>2026-05-01T10:48:50Z</time></trkpt><trkpt lat="44.904965848961524" lon="6.634509484841167"><ele>1304.0</ele><time>2026-05-01T10:48:51Z</time></trkpt><trkpt lat="44.90497684443432" lon="6.634335750366475"><ele>1304.0</ele><time>2026-05-01T10:48:52Z</time></trkpt><trkpt lat="44.90498411638096" lon="6.634193471396963"><ele>1304.0</ele><time>2026-05-01T10:48:53Z</time></trkpt><trkpt lat="44.90497480390883" lon="6.634025530344101"><ele>1300.6666666666667</ele><time>2026-05-01T10:48:54Z</time></trkpt><trkpt lat="44.90491626305313" lon="6.633804398379195"><ele>1297.3333333333333</ele><time>2026-05-01T10:48:55Z</time></trkpt><trkpt lat="44.90486846256278" lon="6.633616015816174"><ele>1294.0</ele><time>2026-05-01T10:48:56Z</time></trkpt><trkpt lat="44.90481384382846" lon="6.633415848192509"><ele>1292.75</ele><time>2026-05-01T10:48:57Z</time></trkpt><trkpt lat="44.904815083916354" lon="6.633268411830712"><ele>1291.5</ele><time>2026-05-01T10:48:58Z</time></trkpt><trkpt lat="44.90482026152787" lon="6.63310599118599"><ele>1290.25</ele><time>2026-05-01T10:48:59Z</time></trkpt><trkpt lat="44.90483825782326" lon="6.632937440084604"><ele>1289.0</ele><time>2026-05-01T10:49:00Z</time></trkpt><trkpt lat="44.90488571172816" lon="6.632756920948643"><ele>1286.75</ele><time>2026-05-01T10:49:01Z</time></trkpt><trkpt lat="44.90492876138116" lon="6.632586240944004"><ele>1284.5</ele><time>2026-05-01T10:49:02Z</time></trkpt><trkpt lat="44.90497912055771" lon="6.632422486486032"><ele>1282.25</ele><time>2026-05-01T10:49:03Z</time></trkpt><trkpt lat="44.90503280365689" lon="6.632268280121027"><ele>1280.0</ele><time>2026-05-01T10:49:04Z</time></trkpt><trkpt lat="44.905102158923185" lon="6.632116128898478"><ele>1281.75</ele><time>2026-05-01T10:49:05Z</time></trkpt><trkpt lat="44.90517008555529" lon="6.631942642600997"><ele>1283.5</ele><time>2026-05-01T10:49:06Z</time></trkpt><trkpt lat="44.90525185088446" lon="6.631788734777663"><ele>1285.25</ele><time>2026-05-01T10:49:07Z</time></trkpt><trkpt lat="44.90530067442143" lon="6.631603966242308"><ele>1287.0</ele><time>2026-05-01T10:49:08Z</time></trkpt><trkpt lat="44.905348117092466" lon="6.631425531525606"><ele>1287.0</ele><time>2026-05-01T10:49:09Z</time></trkpt><trkpt lat="44.905393476165095" lon="6.631234422948058"><ele>1287.0</ele><time>2026-05-01T10:49:10Z</time></trkpt><trkpt lat="44.90541549407635" lon="6.631039554852772"><ele>1287.0</ele><time>2026-05-01T10:49:11Z</time></trkpt><trkpt lat="44.90546285066395" lon="6.630862496197872"><ele>1287.0</ele><time>2026-05-01T10:49:12Z</time></trkpt><trkpt lat="44.90550089625864" lon="6.63066807253957"><ele>1285.5</ele><time>2026-05-01T10:49:13Z</time></trkpt><trkpt lat="44.90552599892427" lon="6.630487495795637"><ele>1284.0</ele><time>2026-05-01T10:49:14Z</time></trkpt><trkpt lat="44.905542629950695" lon="6.630312520591226"><ele>1282.5</ele><time>2026-05-01T10:49:15Z</time></trkpt><trkpt lat="44.905577517737996" lon="6.630145043244858"><ele>1281.0</ele><time>2026-05-01T10:49:16Z</time></trkpt><trkpt lat="44.90563714441289" lon="6.630000706787687"><ele>1279.25</ele><time>2026-05-01T10:49:17Z</time></trkpt><trkpt lat="44.905659656464145" lon="6.629829516220433"><ele>1277.5</ele><time>2026-05-01T10:49:18Z</time></trkpt><trkpt lat="44.90566553162093" lon="6.629665099465688"><ele>1275.75</ele><time>2026-05-01T10:49:19Z</time></trkpt><trkpt lat="44.90566251365158" lon="6.629484593239483"><ele>1274.0</ele><time>2026-05-01T10:49:20Z</time></trkpt><trkpt lat="44.90564990288829" lon="6.629318997798846"><ele>1272.8</ele><time>2026-05-01T10:49:21Z</time></trkpt><trkpt lat="44.90564103383001" lon="6.629166090113235"><ele>1271.6000000000001</ele><time>2026-05-01T10:49:22Z</time></trkpt><trkpt lat="44.9056216494455" lon="6.629030679309672"><ele>1270.4</ele><time>2026-05-01T10:49:23Z</time></trkpt><trkpt lat="44.9056092438166" lon="6.628893417081829"><ele>1269.2</ele><time>2026-05-01T10:49:24Z</time></trkpt><trkpt lat="44.90559664471505" lon="6.628778772169853"><ele>1268.0</ele><time>2026-05-01T10:49:25Z</time></trkpt><trkpt lat="44.90560257165042" lon="6.628665702811042"><ele>1267.2</ele><time>2026-05-01T10:49:26Z</time></trkpt><trkpt lat="44.905620514859415" lon="6.62855354066078"><ele>1266.4</ele><time>2026-05-01T10:49:27Z</time></trkpt><trkpt lat="44.905635714224644" lon="6.628437862437264"><ele>1265.6000000000001</ele><time>2026-05-01T10:49:28Z</time></trkpt><trkpt lat="44.90561842942427" lon="6.6282827696541196"><ele>1264.8</ele><time>2026-05-01T10:49:30Z</time></trkpt><trkpt lat="44.905464563022456" lon="6.628198090474957"><ele>1264.0</ele><time>2026-05-01T10:49:32Z</time></trkpt><trkpt lat="44.90537471007243" lon="6.628178363417659"><ele>1264.0</ele><time>2026-05-01T10:49:33Z</time></trkpt><trkpt lat="44.90528665880265" lon="6.628179798521397"><ele>1264.0</ele><time>2026-05-01T10:49:34Z</time></trkpt><trkpt lat="44.9051745746805" lon="6.628101813584245"><ele>1264.0</ele><time>2026-05-01T10:49:35Z</time></trkpt><trkpt lat="44.90502928013013" lon="6.628068619724535"><ele>1264.0</ele><time>2026-05-01T10:49:36Z</time></trkpt><trkpt lat="44.9049254144301" lon="6.628025785343854"><ele>1262.2</ele><time>2026-05-01T10:49:37Z</time></trkpt><trkpt lat="44.904817575945216" lon="6.627987991636938"><ele>1260.4</ele><time>2026-05-01T10:49:38Z</time></trkpt><trkpt lat="44.90471901442459" lon="6.627951832164701"><ele>1258.6</ele><time>2026-05-01T10:49:39Z</time></trkpt><trkpt lat="44.90461369722018" lon="6.627914085756431"><ele>1256.8</ele><time>2026-05-01T10:49:40Z</time></trkpt><trkpt lat="44.90450665012248" lon="6.627910765348359"><ele>1255.0</ele><time>2026-05-01T10:49:40.999Z</time></trkpt><trkpt lat="44.90440145263635" lon="6.62792527585674"><ele>1255.0</ele><time>2026-05-01T10:49:41.999Z</time></trkpt><trkpt lat="44.90428573041984" lon="6.627950650768836"><ele>1255.0</ele><time>2026-05-01T10:49:42.999Z</time></trkpt><trkpt lat="44.904183100880246" lon="6.627995702524876"><ele>1255.0</ele><time>2026-05-01T10:49:43.999Z</time></trkpt><trkpt lat="44.90408080230801" lon="6.62803173051828"><ele>1255.0</ele><time>2026-05-01T10:49:44.999Z</time></trkpt><trkpt lat="44.903993968712705" lon="6.628105880689778"><ele>1255.0</ele><time>2026-05-01T10:49:45.999Z</time></trkpt><trkpt lat="44.90390754179703" lon="6.628187136046453"><ele>1254.6</ele><time>2026-05-01T10:49:46.999Z</time></trkpt><trkpt lat="44.90382628480807" lon="6.628281537583284"><ele>1254.2</ele><time>2026-05-01T10:49:47.999Z</time></trkpt><trkpt lat="44.90374906409165" lon="6.628362883519267"><ele>1253.8</ele><time>2026-05-01T10:49:48.999Z</time></trkpt><trkpt lat="44.90366974101317" lon="6.628462091660166"><ele>1253.4</ele><time>2026-05-01T10:49:49.999Z</time></trkpt><trkpt lat="44.90360661639689" lon="6.6285844631582185"><ele>1253.0</ele><time>2026-05-01T10:49:50.999Z</time></trkpt><trkpt lat="44.90354820181478" lon="6.628719476403211"><ele>1253.0</ele><time>2026-05-01T10:49:51.999Z</time></trkpt><trkpt lat="44.903493372513566" lon="6.628859478500043"><ele>1253.0</ele><time>2026-05-01T10:49:52.999Z</time></trkpt><trkpt lat="44.90345166461849" lon="6.628997162030346"><ele>1253.0</ele><time>2026-05-01T10:49:53.999Z</time></trkpt><trkpt lat="44.90342225281318" lon="6.629133174713044"><ele>1253.0</ele><time>2026-05-01T10:49:54.999Z</time></trkpt><trkpt lat="44.903391376288525" lon="6.629290914879696"><ele>1253.0</ele><time>2026-05-01T10:49:55.999Z</time></trkpt><trkpt lat="44.90336985026817" lon="6.629430836508974"><ele>1252.6666666666667</ele><time>2026-05-01T10:49:56.999Z</time></trkpt><trkpt lat="44.90336507785044" lon="6.629560815897639"><ele>1252.3333333333335</ele><time>2026-05-01T10:49:57.999Z</time></trkpt><trkpt lat="44.903363827749345" lon="6.6296588034616395"><ele>1252.0</ele><time>2026-05-01T10:49:58.999Z</time></trkpt><trkpt lat="44.903359021212275" lon="6.629756117128686"><ele>1251.6666666666667</ele><time>2026-05-01T10:49:59.999Z</time></trkpt><trkpt lat="44.903368590363286" lon="6.62987807325024"><ele>1251.3333333333333</ele><time>2026-05-01T10:50:00.999Z</time></trkpt><trkpt lat="44.90337643261925" lon="6.629983897620883"><ele>1251.0</ele><time>2026-05-01T10:50:01.999Z</time></trkpt><trkpt lat="44.90337748852844" lon="6.63009796107511"><ele>1251.0</ele><time>2026-05-01T10:50:02.999Z</time></trkpt><trkpt lat="44.90335457245838" lon="6.630205344485598"><ele>1251.0</ele><time>2026-05-01T10:50:03.999Z</time></trkpt><trkpt lat="44.903334644499964" lon="6.630321705331348"><ele>1251.0</ele><time>2026-05-01T10:50:04.999Z</time></trkpt><trkpt lat="44.90327282657681" lon="6.630401095176832"><ele>1251.0</ele><time>2026-05-01T10:50:05.999Z</time></trkpt><trkpt lat="44.903204689613005" lon="6.630488287981886"><ele>1251.0</ele><time>2026-05-01T10:50:06.999Z</time></trkpt><trkpt lat="44.903140729246395" lon="6.630583277820575"><ele>1251.0</ele><time>2026-05-01T10:50:07.999Z</time></trkpt><trkpt lat="44.90307000513267" lon="6.6306776486935535"><ele>1250.6</ele><time>2026-05-01T10:50:08.999Z</time></trkpt><trkpt lat="44.90299659345506" lon="6.630769358596908"><ele>1250.1999999999998</ele><time>2026-05-01T10:50:09.999Z</time></trkpt><trkpt lat="44.902921792600864" lon="6.6308711959614115"><ele>1249.8000000000002</ele><time>2026-05-01T10:50:10.999Z</time></trkpt><trkpt lat="44.90284071982727" lon="6.630956552764753"><ele>1249.4</ele><time>2026-05-01T10:50:11.999Z</time></trkpt><trkpt lat="44.90276272467437" lon="6.631069180553068"><ele>1249.0</ele><time>2026-05-01T10:50:12.999Z</time></trkpt><trkpt lat="44.902681170106014" lon="6.631168390377638"><ele>1249.0</ele><time>2026-05-01T10:50:13.999Z</time></trkpt><trkpt lat="44.90258517296961" lon="6.631235559554435"><ele>1249.0</ele><time>2026-05-01T10:50:14.999Z</time></trkpt><trkpt lat="44.90252212477832" lon="6.631312781501538"><ele>1249.0</ele><time>2026-05-01T10:50:15.999Z</time></trkpt><trkpt lat="44.90243456514602" lon="6.631368410430631"><ele>1249.0</ele><time>2026-05-01T10:50:16.999Z</time></trkpt><trkpt lat="44.902340552336" lon="6.631419770303303"><ele>1249.0</ele><time>2026-05-01T10:50:17.999Z</time></trkpt><trkpt lat="44.90224063870404" lon="6.631429683875897"><ele>1247.4</ele><time>2026-05-01T10:50:18.999Z</time></trkpt><trkpt lat="44.90214234161358" lon="6.631442907557087"><ele>1245.8000000000002</ele><time>2026-05-01T10:50:19.999Z</time></trkpt><trkpt lat="44.90203962695096" lon="6.631427023962956"><ele>1244.1999999999998</ele><time>2026-05-01T10:50:20.999Z</time></trkpt><trkpt lat="44.90194515525674" lon="6.631386436793283"><ele>1242.6</ele><time>2026-05-01T10:50:21.999Z</time></trkpt><trkpt lat="44.9018506218023" lon="6.631383079886856"><ele>1241.0</ele><time>2026-05-01T10:50:22.999Z</time></trkpt><trkpt lat="44.90175682472237" lon="6.631349097764518"><ele>1239.6</ele><time>2026-05-01T10:50:23.999Z</time></trkpt><trkpt lat="44.90166241348387" lon="6.631277161582065"><ele>1238.1999999999998</ele><time>2026-05-01T10:50:24.999Z</time></trkpt><trkpt lat="44.901560222956455" lon="6.631240436685205"><ele>1236.8000000000002</ele><time>2026-05-01T10:50:25.999Z</time></trkpt><trkpt lat="44.90145126865856" lon="6.631221344803154"><ele>1235.4</ele><time>2026-05-01T10:50:26.999Z</time></trkpt><trkpt lat="44.901328018591926" lon="6.6312178539637054"><ele>1234.0</ele><time>2026-05-01T10:50:27.999Z</time></trkpt><trkpt lat="44.90119786048169" lon="6.631253309274235"><ele>1234.0</ele><time>2026-05-01T10:50:28.999Z</time></trkpt><trkpt lat="44.90111450836444" lon="6.631212720118582"><ele>1234.0</ele><time>2026-05-01T10:50:30Z</time></trkpt><trkpt lat="44.90101537291667" lon="6.631198559181262"><ele>1234.0</ele><time>2026-05-01T10:50:31Z</time></trkpt><trkpt lat="44.90091726318762" lon="6.631176650413916"><ele>1234.0</ele><time>2026-05-01T10:50:32Z</time></trkpt><trkpt lat="44.900800686938545" lon="6.631251329949197"><ele>1234.0</ele><time>2026-05-01T10:50:33Z</time></trkpt><trkpt lat="44.90070163098617" lon="6.631216950454358"><ele>1232.0</ele><time>2026-05-01T10:50:34Z</time></trkpt><trkpt lat="44.90058220122693" lon="6.631268067577545"><ele>1230.0</ele><time>2026-05-01T10:50:35Z</time></trkpt><trkpt lat="44.90046241069637" lon="6.631290787469675"><ele>1228.0</ele><time>2026-05-01T10:50:36Z</time></trkpt><trkpt lat="44.90034152480519" lon="6.631305953488667"><ele>1226.0</ele><time>2026-05-01T10:50:37Z</time></trkpt><trkpt lat="44.90023260179982" lon="6.631291430347204"><ele>1226.0</ele><time>2026-05-01T10:50:38Z</time></trkpt><trkpt lat="44.90011869350836" lon="6.63131528348761"><ele>1226.0</ele><time>2026-05-01T10:50:39Z</time></trkpt><trkpt lat="44.90001168043202" lon="6.631319488892353"><ele>1226.0</ele><time>2026-05-01T10:50:40Z</time></trkpt><trkpt lat="44.89990732152536" lon="6.631319638757718"><ele>1226.0</ele><time>2026-05-01T10:50:41Z</time></trkpt><trkpt lat="44.89979945174929" lon="6.631329849985285"><ele>1226.0</ele><time>2026-05-01T10:50:42Z</time></trkpt><trkpt lat="44.89969888727095" lon="6.6313213815432945"><ele>1226.0</ele><time>2026-05-01T10:50:43Z</time></trkpt><trkpt lat="44.899604268039724" lon="6.631330718282665"><ele>1226.0</ele><time>2026-05-01T10:50:44Z</time></trkpt><trkpt lat="44.89952382707153" lon="6.631300638338199"><ele>1226.0</ele><time>2026-05-01T10:50:45Z</time></trkpt><trkpt lat="44.89948597819194" lon="6.631197500316907"><ele>1226.0</ele><time>2026-05-01T10:50:46Z</time></trkpt><trkpt lat="44.89944879440883" lon="6.631083666640201"><ele>1226.0</ele><time>2026-05-01T10:50:47Z</time></trkpt><trkpt lat="44.89942095854825" lon="6.6309858358558875"><ele>1226.0</ele><time>2026-05-01T10:50:48Z</time></trkpt><trkpt lat="44.89942574583988" lon="6.630880055144101"><ele>1228.0</ele><time>2026-05-01T10:50:49Z</time></trkpt><trkpt lat="44.899497991077126" lon="6.630788909025168"><ele>1230.0</ele><time>2026-05-01T10:50:50Z</time></trkpt><trkpt lat="44.89952993454854" lon="6.6306402939280025"><ele>1232.0</ele><time>2026-05-01T10:50:51Z</time></trkpt><trkpt lat="44.89956245200766" lon="6.630490626175986"><ele>1234.0</ele><time>2026-05-01T10:50:52Z</time></trkpt><trkpt lat="44.89959142209512" lon="6.630320361066801"><ele>1236.0</ele><time>2026-05-01T10:50:53Z</time></trkpt><trkpt lat="44.89959984069996" lon="6.630174704591241"><ele>1238.0</ele><time>2026-05-01T10:50:54Z</time></trkpt><trkpt lat="44.899588045795376" lon="6.630029344707002"><ele>1240.0</ele><time>2026-05-01T10:50:55Z</time></trkpt><trkpt lat="44.89955629616111" lon="6.629894329661154"><ele>1242.0</ele><time>2026-05-01T10:50:56Z</time></trkpt><trkpt lat="44.89960284607839" lon="6.629747652405431"><ele>1244.0</ele><time>2026-05-01T10:50:57Z</time></trkpt><trkpt lat="44.899428842305596" lon="6.629647035770508"><ele>1244.0</ele><time>2026-05-01T10:50:58Z</time></trkpt><trkpt lat="44.899353289363994" lon="6.629572468898753"><ele>1244.0</ele><time>2026-05-01T10:50:59Z</time></trkpt><trkpt lat="44.89927413096375" lon="6.629491989783272"><ele>1244.0</ele><time>2026-05-01T10:51:00Z</time></trkpt><trkpt lat="44.899188824699905" lon="6.6294211168638615"><ele>1244.0</ele><time>2026-05-01T10:51:01Z</time></trkpt><trkpt lat="44.8991145033576" lon="6.6293446891327585"><ele>1244.0</ele><time>2026-05-01T10:51:02Z</time></trkpt><trkpt lat="44.89904626122188" lon="6.629241556459664"><ele>1238.6000000000001</ele><time>2026-05-01T10:51:03Z</time></trkpt><trkpt lat="44.898975951518025" lon="6.629158266563069"><ele>1233.2</ele><time>2026-05-01T10:51:04Z</time></trkpt><trkpt lat="44.898900771228696" lon="6.629085298080449"><ele>1227.8000000000002</ele><time>2026-05-01T10:51:05Z</time></trkpt><trkpt lat="44.898836013787346" lon="6.628987677045424"><ele>1222.4</ele><time>2026-05-01T10:51:06Z</time></trkpt><trkpt lat="44.898760212168916" lon="6.628909959479203"><ele>1217.0</ele><time>2026-05-01T10:51:07Z</time></trkpt><trkpt lat="44.898683605628925" lon="6.628847082862437"><ele>1217.0</ele><time>2026-05-01T10:51:08Z</time></trkpt><trkpt lat="44.89860359150157" lon="6.628784336681652"><ele>1217.0</ele><time>2026-05-01T10:51:09Z</time></trkpt><trkpt lat="44.89852204950011" lon="6.628719800078683"><ele>1217.0</ele><time>2026-05-01T10:51:10Z</time></trkpt><trkpt lat="44.8984565934146" lon="6.628636214041951"><ele>1217.0</ele><time>2026-05-01T10:51:11Z</time></trkpt><trkpt lat="44.898385476181325" lon="6.628552280990361"><ele>1217.0</ele><time>2026-05-01T10:51:12Z</time></trkpt><trkpt lat="44.89831560297432" lon="6.628495208734585"><ele>1217.0</ele><time>2026-05-01T10:51:13Z</time></trkpt><trkpt lat="44.89823853763977" lon="6.628514887987252"><ele>1216.6</ele><time>2026-05-01T10:51:14Z</time></trkpt><trkpt lat="44.89816488652644" lon="6.628563183205066"><ele>1216.2</ele><time>2026-05-01T10:51:15Z</time></trkpt><trkpt lat="44.89807300316006" lon="6.628649504487276"><ele>1215.8</ele><time>2026-05-01T10:51:16Z</time></trkpt><trkpt lat="44.898006621810644" lon="6.628700899805228"><ele>1215.4</ele><time>2026-05-01T10:51:17Z</time></trkpt><trkpt lat="44.897953540352866" lon="6.628790447663369"><ele>1215.0</ele><time>2026-05-01T10:51:18Z</time></trkpt><trkpt lat="44.897849919597284" lon="6.628901111537151"><ele>1215.0</ele><time>2026-05-01T10:51:19Z</time></trkpt><trkpt lat="44.89776602005054" lon="6.629038222467152"><ele>1215.0</ele><time>2026-05-01T10:51:20Z</time></trkpt><trkpt lat="44.89767894297246" lon="6.629134158317542"><ele>1215.0</ele><time>2026-05-01T10:51:21Z</time></trkpt><trkpt lat="44.89759733580116" lon="6.629218788836265"><ele>1215.0</ele><time>2026-05-01T10:51:22Z</time></trkpt><trkpt lat="44.89748009860694" lon="6.629238719015621"><ele>1216.5</ele><time>2026-05-01T10:51:23Z</time></trkpt><trkpt lat="44.89737028690092" lon="6.6292672651979965"><ele>1218.0</ele><time>2026-05-01T10:51:24Z</time></trkpt><trkpt lat="44.89726245656032" lon="6.629311025741593"><ele>1219.5</ele><time>2026-05-01T10:51:25Z</time></trkpt><trkpt lat="44.89714375285023" lon="6.62934774020557"><ele>1221.0</ele><time>2026-05-01T10:51:26Z</time></trkpt><trkpt lat="44.89702604037202" lon="6.6293734394078"><ele>1221.0</ele><time>2026-05-01T10:51:27Z</time></trkpt><trkpt lat="44.896932527762544" lon="6.629395602553267"><ele>1221.0</ele><time>2026-05-01T10:51:28Z</time></trkpt><trkpt lat="44.89679749196788" lon="6.629395271695562"><ele>1221.0</ele><time>2026-05-01T10:51:29Z</time></trkpt><trkpt lat="44.896682605778395" lon="6.6294054563145"><ele>1221.0</ele><time>2026-05-01T10:51:30Z</time></trkpt><trkpt lat="44.89656626986576" lon="6.6294184503082745"><ele>1221.3999999999999</ele><time>2026-05-01T10:51:31Z</time></trkpt><trkpt lat="44.896446167023456" lon="6.629431943934154"><ele>1221.8</ele><time>2026-05-01T10:51:32Z</time></trkpt><trkpt lat="44.896341410136635" lon="6.629463899574078"><ele>1222.1999999999998</ele><time>2026-05-01T10:51:33Z</time></trkpt><trkpt lat="44.896240179744716" lon="6.6294237561131855"><ele>1222.6</ele><time>2026-05-01T10:51:34Z</time></trkpt><trkpt lat="44.89612463222491" lon="6.629428735974838"><ele>1223.0</ele><time>2026-05-01T10:51:35Z</time></trkpt><trkpt lat="44.896018179516666" lon="6.629437889515109"><ele>1223.2</ele><time>2026-05-01T10:51:36Z</time></trkpt><trkpt lat="44.895914465096126" lon="6.629456305004862"><ele>1223.4</ele><time>2026-05-01T10:51:37Z</time></trkpt><trkpt lat="44.89580897680191" lon="6.629473311945155"><ele>1223.6000000000001</ele><time>2026-05-01T10:51:38Z</time></trkpt><trkpt lat="44.89570613898657" lon="6.629493366759501"><ele>1223.8</ele><time>2026-05-01T10:51:39Z</time></trkpt><trkpt lat="44.895613244593974" lon="6.629536542294828"><ele>1224.0</ele><time>2026-05-01T10:51:40Z</time></trkpt><trkpt lat="44.89553255748874" lon="6.629561635863339"><ele>1221.3333333333333</ele><time>2026-05-01T10:51:41Z</time></trkpt><trkpt lat="44.89545683486803" lon="6.629612244880812"><ele>1218.6666666666667</ele><time>2026-05-01T10:51:42Z</time></trkpt><trkpt lat="44.89538231743236" lon="6.629657911294958"><ele>1216.0</ele><time>2026-05-01T10:51:43Z</time></trkpt><trkpt lat="44.89532138092765" lon="6.629684303347465"><ele>1213.3333333333335</ele><time>2026-05-01T10:51:44Z</time></trkpt><trkpt lat="44.89524771802129" lon="6.629720046441159"><ele>1210.6666666666667</ele><time>2026-05-01T10:51:46Z</time></trkpt><trkpt lat="44.89517313987186" lon="6.62979271481398"><ele>1208.0</ele><time>2026-05-01T10:51:49Z</time></trkpt><trkpt lat="44.89510964519694" lon="6.629837476244272"><ele>1208.5</ele><time>2026-05-01T10:51:52Z</time></trkpt><trkpt lat="44.895042205463454" lon="6.629899865526557"><ele>1209.0</ele><time>2026-05-01T10:51:59Z</time></trkpt><trkpt lat="44.89493056510227" lon="6.62993366117256"><ele>1209.5</ele><time>2026-05-01T10:52:01Z</time></trkpt><trkpt lat="44.89486513610133" lon="6.629987704136669"><ele>1210.0</ele><time>2026-05-01T10:52:03Z</time></trkpt><trkpt lat="44.894789922104025" lon="6.630041094978027"><ele>1210.5</ele><time>2026-05-01T10:52:05Z</time></trkpt><trkpt lat="44.89471240952265" lon="6.630110918464272"><ele>1211.0</ele><time>2026-05-01T10:52:05.999Z</time></trkpt><trkpt lat="44.89454581778059" lon="6.630165767861772"><ele>1211.0</ele><time>2026-05-01T10:52:07.999Z</time></trkpt><trkpt lat="44.89443717323946" lon="6.630158726933925"><ele>1211.0</ele><time>2026-05-01T10:52:08.999Z</time></trkpt><trkpt lat="44.89424349412095" lon="6.630094530545064"><ele>1211.0</ele><time>2026-05-01T10:52:09.999Z</time></trkpt><trkpt lat="44.89411927530867" lon="6.630006816477195"><ele>1211.0</ele><time>2026-05-01T10:52:10.999Z</time></trkpt><trkpt lat="44.89398429671965" lon="6.629953504529474"><ele>1210.25</ele><time>2026-05-01T10:52:11.999Z</time></trkpt><trkpt lat="44.89381479791001" lon="6.629869582753975"><ele>1209.5</ele><time>2026-05-01T10:52:12.999Z</time></trkpt><trkpt lat="44.89368755393961" lon="6.6298122314310985"><ele>1208.75</ele><time>2026-05-01T10:52:13.999Z</time></trkpt><trkpt lat="44.89358366782719" lon="6.629750381057139"><ele>1208.0</ele><time>2026-05-01T10:52:14.999Z</time></trkpt><trkpt lat="44.893480613335825" lon="6.6296800808475025"><ele>1206.5</ele><time>2026-05-01T10:52:15.999Z</time></trkpt><trkpt lat="44.89334252089539" lon="6.62963771975108"><ele>1205.0</ele><time>2026-05-01T10:52:16.999Z</time></trkpt><trkpt lat="44.893194480780906" lon="6.629592891549885"><ele>1203.5</ele><time>2026-05-01T10:52:17.999Z</time></trkpt><trkpt lat="44.89304663916761" lon="6.62954960409573"><ele>1202.0</ele><time>2026-05-01T10:52:18.999Z</time></trkpt><trkpt lat="44.89290681436066" lon="6.629499107709628"><ele>1203.75</ele><time>2026-05-01T10:52:19.999Z</time></trkpt><trkpt lat="44.89277318083211" lon="6.629447427638281"><ele>1205.5</ele><time>2026-05-01T10:52:20.999Z</time></trkpt><trkpt lat="44.892648919136505" lon="6.629414658882964"><ele>1207.25</ele><time>2026-05-01T10:52:21.999Z</time></trkpt><trkpt lat="44.89251643578709" lon="6.629366176840372"><ele>1209.0</ele><time>2026-05-01T10:52:22.999Z</time></trkpt><trkpt lat="44.89237085237494" lon="6.629315279201023"><ele>1209.0</ele><time>2026-05-01T10:52:23.999Z</time></trkpt><trkpt lat="44.89222989025533" lon="6.629267770783325"><ele>1209.0</ele><time>2026-05-01T10:52:24.999Z</time></trkpt><trkpt lat="44.89210058561915" lon="6.629202411454094"><ele>1209.0</ele><time>2026-05-01T10:52:25.999Z</time></trkpt><trkpt lat="44.891943458290555" lon="6.629128661557907"><ele>1209.0</ele><time>2026-05-01T10:52:26.999Z</time></trkpt><trkpt lat="44.89178408675191" lon="6.629018734642074"><ele>1209.6666666666667</ele><time>2026-05-01T10:52:27.999Z</time></trkpt><trkpt lat="44.89161457979509" lon="6.628895619090309"><ele>1210.3333333333335</ele><time>2026-05-01T10:52:28.999Z</time></trkpt><trkpt lat="44.89144393557269" lon="6.628734350702363"><ele>1211.0</ele><time>2026-05-01T10:52:29.999Z</time></trkpt><trkpt lat="44.89128420044883" lon="6.6285966434284855"><ele>1211.0</ele><time>2026-05-01T10:52:30.999Z</time></trkpt><trkpt lat="44.891124071941334" lon="6.628445013750692"><ele>1211.0</ele><time>2026-05-01T10:52:31.999Z</time></trkpt><trkpt lat="44.890964873356054" lon="6.628282107629318"><ele>1211.0</ele><time>2026-05-01T10:52:32.999Z</time></trkpt><trkpt lat="44.89081752222312" lon="6.628131082513813"><ele>1211.3333333333335</ele><time>2026-05-01T10:52:33.999Z</time></trkpt><trkpt lat="44.890673081730476" lon="6.627985687846747"><ele>1211.6666666666667</ele><time>2026-05-01T10:52:34.999Z</time></trkpt><trkpt lat="44.89053197996094" lon="6.62784479032096"><ele>1212.0</ele><time>2026-05-01T10:52:36Z</time></trkpt><trkpt lat="44.89037997059498" lon="6.627694066384193"><ele>1212.0</ele><time>2026-05-01T10:52:37Z</time></trkpt><trkpt lat="44.89020884721639" lon="6.627526101644487"><ele>1212.0</ele><time>2026-05-01T10:52:38Z</time></trkpt><trkpt lat="44.890002589967374" lon="6.627339702972142"><ele>1212.6666666666667</ele><time>2026-05-01T10:52:39Z</time></trkpt><trkpt lat="44.88983217055448" lon="6.627180678568144"><ele>1213.3333333333335</ele><time>2026-05-01T10:52:40Z</time></trkpt><trkpt lat="44.88966432166339" lon="6.627010196947784"><ele>1214.0</ele><time>2026-05-01T10:52:41Z</time></trkpt><trkpt lat="44.88949063481221" lon="6.626844683598378"><ele>1214.0</ele><time>2026-05-01T10:52:42Z</time></trkpt><trkpt lat="44.889268145690885" lon="6.626731589748555"><ele>1214.0</ele><time>2026-05-01T10:52:43Z</time></trkpt><trkpt lat="44.889050798124096" lon="6.626623145416737"><ele>1210.0</ele><time>2026-05-01T10:52:44Z</time></trkpt><trkpt lat="44.88885073693164" lon="6.6264853273980515"><ele>1206.0</ele><time>2026-05-01T10:52:45Z</time></trkpt><trkpt lat="44.88864400042569" lon="6.626363171785163"><ele>1202.0</ele><time>2026-05-01T10:52:46Z</time></trkpt><trkpt lat="44.88844393192916" lon="6.626238359606728"><ele>1203.3333333333335</ele><time>2026-05-01T10:52:47Z</time></trkpt><trkpt lat="44.88823675859523" lon="6.626119439760658"><ele>1204.6666666666667</ele><time>2026-05-01T10:52:48Z</time></trkpt><trkpt lat="44.88802979669673" lon="6.626014242979587"><ele>1206.0</ele><time>2026-05-01T10:52:49Z</time></trkpt><trkpt lat="44.887824852760524" lon="6.625892377802036"><ele>1206.0</ele><time>2026-05-01T10:52:50Z</time></trkpt><trkpt lat="44.8876298774657" lon="6.625761050906433"><ele>1206.0</ele><time>2026-05-01T10:52:51Z</time></trkpt><trkpt lat="44.88743013872818" lon="6.625589064329969"><ele>1208.0</ele><time>2026-05-01T10:52:52Z</time></trkpt><trkpt lat="44.88722701920522" lon="6.625414559963467"><ele>1210.0</ele><time>2026-05-01T10:52:53Z</time></trkpt><trkpt lat="44.8870416471398" lon="6.625210120088397"><ele>1210.0</ele><time>2026-05-01T10:52:54Z</time></trkpt><trkpt lat="44.88684610413231" lon="6.62504277999037"><ele>1210.0</ele><time>2026-05-01T10:52:55Z</time></trkpt><trkpt lat="44.886664530862674" lon="6.624863439515301"><ele>1210.3333333333333</ele><time>2026-05-01T10:52:56Z</time></trkpt><trkpt lat="44.886475320968664" lon="6.624710809638949"><ele>1210.6666666666667</ele><time>2026-05-01T10:52:57Z</time></trkpt><trkpt lat="44.88629416420638" lon="6.624573199806743"><ele>1211.0</ele><time>2026-05-01T10:52:58Z</time></trkpt><trkpt lat="44.886119733364716" lon="6.624422412834047"><ele>1211.0</ele><time>2026-05-01T10:52:59Z</time></trkpt><trkpt lat="44.88594297870231" lon="6.624273437537841"><ele>1211.0</ele><time>2026-05-01T10:53:00Z</time></trkpt><trkpt lat="44.885766982590624" lon="6.624115172068032"><ele>1211.0</ele><time>2026-05-01T10:53:01Z</time></trkpt><trkpt lat="44.8855930169282" lon="6.623962317542591"><ele>1207.0</ele><time>2026-05-01T10:53:01.999Z</time></trkpt><trkpt lat="44.8854202071866" lon="6.623842876062052"><ele>1203.0</ele><time>2026-05-01T10:53:02.999Z</time></trkpt><trkpt lat="44.885259844736375" lon="6.62370311816368"><ele>1199.0</ele><time>2026-05-01T10:53:03.999Z</time></trkpt><trkpt lat="44.88508459904782" lon="6.623533760643517"><ele>1199.0</ele><time>2026-05-01T10:53:04.999Z</time></trkpt><trkpt lat="44.884921738387725" lon="6.623366785996697"><ele>1199.0</ele><time>2026-05-01T10:53:05.999Z</time></trkpt><trkpt lat="44.88473193037603" lon="6.623216583559038"><ele>1199.0</ele><time>2026-05-01T10:53:06.999Z</time></trkpt><trkpt lat="44.88452177006365" lon="6.623064479377414"><ele>1199.0</ele><time>2026-05-01T10:53:07.999Z</time></trkpt><trkpt lat="44.88430675303997" lon="6.622902266784068"><ele>1199.0</ele><time>2026-05-01T10:53:08.999Z</time></trkpt><trkpt lat="44.88406977419428" lon="6.622730428100979"><ele>1198.0</ele><time>2026-05-01T10:53:09.999Z</time></trkpt><trkpt lat="44.88381210771007" lon="6.622561866948092"><ele>1197.0</ele><time>2026-05-01T10:53:10.999Z</time></trkpt><trkpt lat="44.8835231838803" lon="6.622353894666475"><ele>1199.5</ele><time>2026-05-01T10:53:11.999Z</time></trkpt><trkpt lat="44.88323581379312" lon="6.62214903591354"><ele>1202.0</ele><time>2026-05-01T10:53:12.999Z</time></trkpt><trkpt lat="44.88296389554954" lon="6.621965148544285"><ele>1202.0</ele><time>2026-05-01T10:53:13.999Z</time></trkpt><trkpt lat="44.88269836355323" lon="6.621774558316742"><ele>1202.0</ele><time>2026-05-01T10:53:14.999Z</time></trkpt><trkpt lat="44.88245629749745" lon="6.621586623698203"><ele>1196.0</ele><time>2026-05-01T10:53:15.999Z</time></trkpt><trkpt lat="44.88223667696501" lon="6.6214136699365"><ele>1190.0</ele><time>2026-05-01T10:53:16.999Z</time></trkpt><trkpt lat="44.88204844748575" lon="6.621273647936121"><ele>1190.0</ele><time>2026-05-01T10:53:17.999Z</time></trkpt><trkpt lat="44.88186001787437" lon="6.621155030040193"><ele>1190.0</ele><time>2026-05-01T10:53:18.999Z</time></trkpt><trkpt lat="44.881704653769134" lon="6.621059506994281"><ele>1190.0</ele><time>2026-05-01T10:53:19.999Z</time></trkpt><trkpt lat="44.88158610499986" lon="6.62095279992055"><ele>1189.8</ele><time>2026-05-01T10:53:20.999Z</time></trkpt><trkpt lat="44.881469471249474" lon="6.620951031347127"><ele>1189.6</ele><time>2026-05-01T10:53:21.999Z</time></trkpt><trkpt lat="44.88136537530798" lon="6.620870884033146"><ele>1189.4</ele><time>2026-05-01T10:53:22.999Z</time></trkpt><trkpt lat="44.881307535845544" lon="6.620736049096697"><ele>1189.2</ele><time>2026-05-01T10:53:23.999Z</time></trkpt><trkpt lat="44.88123057268116" lon="6.62066137932969"><ele>1189.0</ele><time>2026-05-01T10:53:24.999Z</time></trkpt><trkpt lat="44.88114367381078" lon="6.620622447916938"><ele>1189.0</ele><time>2026-05-01T10:53:25.999Z</time></trkpt><trkpt lat="44.881038123400174" lon="6.62058614553082"><ele>1189.0</ele><time>2026-05-01T10:53:26.999Z</time></trkpt><trkpt lat="44.880923630999575" lon="6.620519880939644"><ele>1189.0</ele><time>2026-05-01T10:53:27.999Z</time></trkpt><trkpt lat="44.88077833656935" lon="6.620421888150578"><ele>1189.0</ele><time>2026-05-01T10:53:28.999Z</time></trkpt><trkpt lat="44.88064382125436" lon="6.6202987172724574"><ele>1187.3333333333333</ele><time>2026-05-01T10:53:29.999Z</time></trkpt><trkpt lat="44.88049492970047" lon="6.620147831997959"><ele>1185.6666666666667</ele><time>2026-05-01T10:53:30.999Z</time></trkpt><trkpt lat="44.88033569318647" lon="6.620022883097322"><ele>1184.0</ele><time>2026-05-01T10:53:31.999Z</time></trkpt><trkpt lat="44.880180025712434" lon="6.619868274115776"><ele>1183.0</ele><time>2026-05-01T10:53:32.999Z</time></trkpt><trkpt lat="44.88001312618616" lon="6.619713756067558"><ele>1182.0</ele><time>2026-05-01T10:53:33.999Z</time></trkpt><trkpt lat="44.87984924399601" lon="6.619537362468942"><ele>1181.0</ele><time>2026-05-01T10:53:34.999Z</time></trkpt><trkpt lat="44.8796775353398" lon="6.6193804522980955"><ele>1181.0</ele><time>2026-05-01T10:53:35.999Z</time></trkpt><trkpt lat="44.87950438170956" lon="6.619227591561651"><ele>1181.0</ele><time>2026-05-01T10:53:36.999Z</time></trkpt><trkpt lat="44.87934173000677" lon="6.619060516852165"><ele>1181.0</ele><time>2026-05-01T10:53:37.999Z</time></trkpt><trkpt lat="44.87917823242766" lon="6.618909155715721"><ele>1181.0</ele><time>2026-05-01T10:53:38.999Z</time></trkpt><trkpt lat="44.87900820263277" lon="6.618772101308409"><ele>1181.0</ele><time>2026-05-01T10:53:39.999Z</time></trkpt><trkpt lat="44.87883812547849" lon="6.618638525499726"><ele>1181.0</ele><time>2026-05-01T10:53:40.999Z</time></trkpt><trkpt lat="44.87864689319311" lon="6.618525465602944"><ele>1181.0</ele><time>2026-05-01T10:53:41.999Z</time></trkpt><trkpt lat="44.878449952334535" lon="6.618425223866441"><ele>1181.0</ele><time>2026-05-01T10:53:42.999Z</time></trkpt><trkpt lat="44.878262651108685" lon="6.618310278680828"><ele>1181.0</ele><time>2026-05-01T10:53:43.999Z</time></trkpt><trkpt lat="44.87806406080948" lon="6.618213379492979"><ele>1181.0</ele><time>2026-05-01T10:53:44.999Z</time></trkpt><trkpt lat="44.877861998037055" lon="6.618129492647868"><ele>1181.0</ele><time>2026-05-01T10:53:45.999Z</time></trkpt><trkpt lat="44.877654114903144" lon="6.618057173409594"><ele>1181.0</ele><time>2026-05-01T10:53:46.999Z</time></trkpt><trkpt lat="44.877456816989366" lon="6.617983925094002"><ele>1181.3333333333335</ele><time>2026-05-01T10:53:47.999Z</time></trkpt><trkpt lat="44.87725229835321" lon="6.617922467664446"><ele>1181.6666666666667</ele><time>2026-05-01T10:53:48.999Z</time></trkpt><trkpt lat="44.877035687767865" lon="6.617860964089037"><ele>1182.0</ele><time>2026-05-01T10:53:49.999Z</time></trkpt><trkpt lat="44.87683502940619" lon="6.617791785600083"><ele>1181.6666666666667</ele><time>2026-05-01T10:53:50.999Z</time></trkpt><trkpt lat="44.87662083349565" lon="6.617724707535438"><ele>1181.3333333333335</ele><time>2026-05-01T10:53:51.999Z</time></trkpt><trkpt lat="44.87640527606433" lon="6.617651747069273"><ele>1181.0</ele><time>2026-05-01T10:53:52.999Z</time></trkpt><trkpt lat="44.87617501552404" lon="6.617588565363039"><ele>1181.0</ele><time>2026-05-01T10:53:53.999Z</time></trkpt><trkpt lat="44.8759772266058" lon="6.617493144824886"><ele>1181.0</ele><time>2026-05-01T10:53:54.999Z</time></trkpt><trkpt lat="44.875756543462636" lon="6.617375139383875"><ele>1181.0</ele><time>2026-05-01T10:53:55.999Z</time></trkpt><trkpt lat="44.875561630415426" lon="6.6172293502963795"><ele>1181.0</ele><time>2026-05-01T10:53:56.999Z</time></trkpt><trkpt lat="44.87535945844026" lon="6.617080607996639"><ele>1181.0</ele><time>2026-05-01T10:53:57.999Z</time></trkpt><trkpt lat="44.8751611634438" lon="6.616920085031639"><ele>1178.5</ele><time>2026-05-01T10:53:58.999Z</time></trkpt><trkpt lat="44.87497266960895" lon="6.6167339316191205"><ele>1176.0</ele><time>2026-05-01T10:53:59.999Z</time></trkpt><trkpt lat="44.874783185030196" lon="6.6165458532768735"><ele>1176.0</ele><time>2026-05-01T10:54:00.999Z</time></trkpt><trkpt lat="44.87460423026142" lon="6.616330353802279"><ele>1176.0</ele><time>2026-05-01T10:54:01.999Z</time></trkpt><trkpt lat="44.87443453770943" lon="6.616098893673848"><ele>1175.5</ele><time>2026-05-01T10:54:02.999Z</time></trkpt><trkpt lat="44.87428426676813" lon="6.615849070351482"><ele>1175.0</ele><time>2026-05-01T10:54:03.999Z</time></trkpt><trkpt lat="44.87413743627088" lon="6.615590009688699"><ele>1175.5</ele><time>2026-05-01T10:54:04.999Z</time></trkpt><trkpt lat="44.874005126042974" lon="6.615316408344764"><ele>1176.0</ele><time>2026-05-01T10:54:05.999Z</time></trkpt><trkpt lat="44.87389111294774" lon="6.615032811900457"><ele>1176.0</ele><time>2026-05-01T10:54:06.999Z</time></trkpt><trkpt lat="44.87378813863248" lon="6.614739845958258"><ele>1176.0</ele><time>2026-05-01T10:54:07.999Z</time></trkpt><trkpt lat="44.87369209021282" lon="6.614452632230578"><ele>1175.6666666666667</ele><time>2026-05-01T10:54:08.999Z</time></trkpt><trkpt lat="44.87360302219453" lon="6.614163261216213"><ele>1175.3333333333335</ele><time>2026-05-01T10:54:09.999Z</time></trkpt><trkpt lat="44.873517146416795" lon="6.6138727497455"><ele>1175.0</ele><time>2026-05-01T10:54:10.999Z</time></trkpt><trkpt lat="44.87342021871273" lon="6.613569801545667"><ele>1174.5</ele><time>2026-05-01T10:54:11.999Z</time></trkpt><trkpt lat="44.873327788" lon="6.613269381789965"><ele>1174.0</ele><time>2026-05-01T10:54:12.999Z</time></trkpt><trkpt lat="44.87323353624104" lon="6.612972725980474"><ele>1174.0</ele><time>2026-05-01T10:54:13.999Z</time></trkpt><trkpt lat="44.873136271828116" lon="6.61265587871537"><ele>1174.0</ele><time>2026-05-01T10:54:14.999Z</time></trkpt><trkpt lat="44.87304323247446" lon="6.612342726216604"><ele>1174.0</ele><time>2026-05-01T10:54:15.999Z</time></trkpt><trkpt lat="44.87293912352237" lon="6.6120291780100615"><ele>1174.0</ele><time>2026-05-01T10:54:16.999Z</time></trkpt><trkpt lat="44.87284368435929" lon="6.61171845772352"><ele>1173.5</ele><time>2026-05-01T10:54:17.999Z</time></trkpt><trkpt lat="44.87275664014566" lon="6.611406844956038"><ele>1173.0</ele><time>2026-05-01T10:54:18.999Z</time></trkpt><trkpt lat="44.87267083789293" lon="6.611116366775263"><ele>1171.5</ele><time>2026-05-01T10:54:19.999Z</time></trkpt><trkpt lat="44.87257410922322" lon="6.610814788031731"><ele>1170.0</ele><time>2026-05-01T10:54:20.999Z</time></trkpt><trkpt lat="44.87248812442712" lon="6.6105134576280244"><ele>1171.0</ele><time>2026-05-01T10:54:21.999Z</time></trkpt><trkpt lat="44.87239496499406" lon="6.610201720687985"><ele>1172.0</ele><time>2026-05-01T10:54:22.999Z</time></trkpt><trkpt lat="44.87231621862185" lon="6.609903546080926"><ele>1172.0</ele><time>2026-05-01T10:54:23.999Z</time></trkpt><trkpt lat="44.87222379227947" lon="6.609605315478846"><ele>1172.0</ele><time>2026-05-01T10:54:24.999Z</time></trkpt><trkpt lat="44.8721339750865" lon="6.60930186167878"><ele>1172.5</ele><time>2026-05-01T10:54:25.999Z</time></trkpt><trkpt lat="44.87204574720674" lon="6.609001788357464"><ele>1173.0</ele><time>2026-05-01T10:54:26.999Z</time></trkpt><trkpt lat="44.87197005539253" lon="6.608702153702842"><ele>1172.5</ele><time>2026-05-01T10:54:27.999Z</time></trkpt><trkpt lat="44.87187230089535" lon="6.608391834880067"><ele>1172.0</ele><time>2026-05-01T10:54:28.999Z</time></trkpt><trkpt lat="44.87176271641425" lon="6.6081050884005395"><ele>1170.5</ele><time>2026-05-01T10:54:29.999Z</time></trkpt><trkpt lat="44.87166488881919" lon="6.607812004608533"><ele>1169.0</ele><time>2026-05-01T10:54:30.999Z</time></trkpt><trkpt lat="44.871536629683966" lon="6.607526178563615"><ele>1169.0</ele><time>2026-05-01T10:54:31.999Z</time></trkpt><trkpt lat="44.87140548284441" lon="6.607253629173438"><ele>1169.0</ele><time>2026-05-01T10:54:32.999Z</time></trkpt><trkpt lat="44.871278332548684" lon="6.606982629625576"><ele>1168.0</ele><time>2026-05-01T10:54:33.999Z</time></trkpt><trkpt lat="44.871139414216856" lon="6.606711857252616"><ele>1167.0</ele><time>2026-05-01T10:54:34.999Z</time></trkpt><trkpt lat="44.87099309243669" lon="6.606452327570734"><ele>1168.5</ele><time>2026-05-01T10:54:35.999Z</time></trkpt><trkpt lat="44.87085009865498" lon="6.606194683495185"><ele>1170.0</ele><time>2026-05-01T10:54:36.999Z</time></trkpt><trkpt lat="44.8707214607586" lon="6.605928426141469"><ele>1170.0</ele><time>2026-05-01T10:54:37.999Z</time></trkpt><trkpt lat="44.870577760635776" lon="6.605665470467434"><ele>1170.0</ele><time>2026-05-01T10:54:38.999Z</time></trkpt><trkpt lat="44.87044003131906" lon="6.60541344070193"><ele>1170.5</ele><time>2026-05-01T10:54:39.999Z</time></trkpt><trkpt lat="44.87028323913923" lon="6.605157165221217"><ele>1171.0</ele><time>2026-05-01T10:54:40.999Z</time></trkpt><trkpt lat="44.87015350515702" lon="6.604894996904923"><ele>1170.0</ele><time>2026-05-01T10:54:41.999Z</time></trkpt><trkpt lat="44.870010579155306" lon="6.604640067017567"><ele>1169.0</ele><time>2026-05-01T10:54:42.999Z</time></trkpt><trkpt lat="44.86988373128967" lon="6.604382260067715"><ele>1170.3333333333335</ele><time>2026-05-01T10:54:43.999Z</time></trkpt><trkpt lat="44.86976369795758" lon="6.604122102099168"><ele>1171.6666666666667</ele><time>2026-05-01T10:54:44.999Z</time></trkpt><trkpt lat="44.869640712953554" lon="6.603880201145507"><ele>1173.0</ele><time>2026-05-01T10:54:46Z</time></trkpt><trkpt lat="44.8695182721513" lon="6.60365816743859"><ele>1174.3333333333333</ele><time>2026-05-01T10:54:47Z</time></trkpt><trkpt lat="44.869401266690225" lon="6.603404145243719"><ele>1175.6666666666665</ele><time>2026-05-01T10:54:48Z</time></trkpt><trkpt lat="44.869267433990686" lon="6.603166345725563"><ele>1177.0</ele><time>2026-05-01T10:54:49Z</time></trkpt><trkpt lat="44.869126785717604" lon="6.6029445935298785"><ele>1176.3333333333333</ele><time>2026-05-01T10:54:50Z</time></trkpt><trkpt lat="44.868981499592685" lon="6.602720779754023"><ele>1175.6666666666667</ele><time>2026-05-01T10:54:51Z</time></trkpt><trkpt lat="44.86883594564353" lon="6.602511292570931"><ele>1175.0</ele><time>2026-05-01T10:54:52Z</time></trkpt><trkpt lat="44.868690667101035" lon="6.60231399946924"><ele>1175.0</ele><time>2026-05-01T10:54:53Z</time></trkpt><trkpt lat="44.868538162255355" lon="6.6021424025261215"><ele>1175.0</ele><time>2026-05-01T10:54:54Z</time></trkpt><trkpt lat="44.86838201753504" lon="6.601968160537077"><ele>1175.0</ele><time>2026-05-01T10:54:55Z</time></trkpt><trkpt lat="44.86820486329109" lon="6.601815870237521"><ele>1175.3333333333335</ele><time>2026-05-01T10:54:56Z</time></trkpt><trkpt lat="44.86805153918639" lon="6.601656163350581"><ele>1175.6666666666667</ele><time>2026-05-01T10:54:57Z</time></trkpt><trkpt lat="44.867899402925126" lon="6.601518768626933"><ele>1176.0</ele><time>2026-05-01T10:54:58Z</time></trkpt><trkpt lat="44.86774893552327" lon="6.601393065975197"><ele>1176.0</ele><time>2026-05-01T10:54:59Z</time></trkpt><trkpt lat="44.867611971085374" lon="6.601300886522061"><ele>1176.0</ele><time>2026-05-01T10:55:00Z</time></trkpt><trkpt lat="44.86744991890199" lon="6.601196711679384"><ele>1176.0</ele><time>2026-05-01T10:55:01Z</time></trkpt><trkpt lat="44.867269566081916" lon="6.601078309735511"><ele>1175.6666666666667</ele><time>2026-05-01T10:55:02Z</time></trkpt><trkpt lat="44.86711432290875" lon="6.600944346702238"><ele>1175.3333333333335</ele><time>2026-05-01T10:55:03Z</time></trkpt><trkpt lat="44.86695618042113" lon="6.600828175532844"><ele>1175.0</ele><time>2026-05-01T10:55:04Z</time></trkpt><trkpt lat="44.86679131945211" lon="6.600705396138342"><ele>1174.3333333333335</ele><time>2026-05-01T10:55:05Z</time></trkpt><trkpt lat="44.86663064216668" lon="6.60056636603381"><ele>1173.6666666666667</ele><time>2026-05-01T10:55:06Z</time></trkpt><trkpt lat="44.866455527044906" lon="6.6004535212128745"><ele>1173.0</ele><time>2026-05-01T10:55:07Z</time></trkpt><trkpt lat="44.8662778512885" lon="6.600321365968664"><ele>1174.3333333333333</ele><time>2026-05-01T10:55:08Z</time></trkpt><trkpt lat="44.8660934885037" lon="6.600184567779071"><ele>1175.6666666666665</ele><time>2026-05-01T10:55:09Z</time></trkpt><trkpt lat="44.86590733946898" lon="6.60005768344398"><ele>1177.0</ele><time>2026-05-01T10:55:10Z</time></trkpt><trkpt lat="44.865728470661395" lon="6.599915495154535"><ele>1177.0</ele><time>2026-05-01T10:55:11Z</time></trkpt><trkpt lat="44.86556002039344" lon="6.59977348996271"><ele>1177.0</ele><time>2026-05-01T10:55:12Z</time></trkpt><trkpt lat="44.86539366614647" lon="6.599627386625611"><ele>1177.0</ele><time>2026-05-01T10:55:13Z</time></trkpt><trkpt lat="44.86523085238709" lon="6.599462740475318"><ele>1176.6666666666665</ele><time>2026-05-01T10:55:14Z</time></trkpt><trkpt lat="44.86508456844314" lon="6.599284734287456"><ele>1176.3333333333333</ele><time>2026-05-01T10:55:15Z</time></trkpt><trkpt lat="44.86493813735894" lon="6.599102265906778"><ele>1176.0</ele><time>2026-05-01T10:55:16Z</time></trkpt><trkpt lat="44.86480141350607" lon="6.598913921381495"><ele>1176.0</ele><time>2026-05-01T10:55:17Z</time></trkpt><trkpt lat="44.86466598054054" lon="6.598721867145742"><ele>1176.0</ele><time>2026-05-01T10:55:18Z</time></trkpt><trkpt lat="44.86454494408764" lon="6.598531313545117"><ele>1176.0</ele><time>2026-05-01T10:55:19Z</time></trkpt><trkpt lat="44.864436320202394" lon="6.598320796815937"><ele>1176.0</ele><time>2026-05-01T10:55:20Z</time></trkpt><trkpt lat="44.864327515643915" lon="6.598118297721769"><ele>1176.0</ele><time>2026-05-01T10:55:21Z</time></trkpt><trkpt lat="44.86421564255153" lon="6.597915776431397"><ele>1176.0</ele><time>2026-05-01T10:55:22Z</time></trkpt><trkpt lat="44.864109759985844" lon="6.597714123601193"><ele>1176.0</ele><time>2026-05-01T10:55:23Z</time></trkpt><trkpt lat="44.86402391540302" lon="6.597510640119739"><ele>1176.0</ele><time>2026-05-01T10:55:24Z</time></trkpt><trkpt lat="44.8639400056126" lon="6.597304854304136"><ele>1176.0</ele><time>2026-05-01T10:55:25Z</time></trkpt><trkpt lat="44.863849956116454" lon="6.597107730439092"><ele>1176.6666666666667</ele><time>2026-05-01T10:55:26Z</time></trkpt><trkpt lat="44.86374299220833" lon="6.596912803146778"><ele>1177.3333333333335</ele><time>2026-05-01T10:55:27Z</time></trkpt><trkpt lat="44.86364295584042" lon="6.596687968353851"><ele>1178.0</ele><time>2026-05-01T10:55:28Z</time></trkpt><trkpt lat="44.86352602462319" lon="6.596496803205038"><ele>1175.6666666666667</ele><time>2026-05-01T10:55:29Z</time></trkpt><trkpt lat="44.86341789926952" lon="6.596300942242366"><ele>1173.3333333333333</ele><time>2026-05-01T10:55:30Z</time></trkpt><trkpt lat="44.86331309771703" lon="6.596094641420286"><ele>1171.0</ele><time>2026-05-01T10:55:31Z</time></trkpt><trkpt lat="44.86320837231789" lon="6.59589047580399"><ele>1171.0</ele><time>2026-05-01T10:55:32Z</time></trkpt><trkpt lat="44.863113268206" lon="6.595687537530113"><ele>1171.0</ele><time>2026-05-01T10:55:33Z</time></trkpt><trkpt lat="44.86300752955311" lon="6.595473362380167"><ele>1171.0</ele><time>2026-05-01T10:55:34Z</time></trkpt><trkpt lat="44.86290469993036" lon="6.595250342083985"><ele>1171.6666666666665</ele><time>2026-05-01T10:55:35Z</time></trkpt><trkpt lat="44.86277647932619" lon="6.59503599872961"><ele>1172.3333333333333</ele><time>2026-05-01T10:55:36Z</time></trkpt><trkpt lat="44.862650727829056" lon="6.5948166705936595"><ele>1173.0</ele><time>2026-05-01T10:55:37Z</time></trkpt><trkpt lat="44.86253589721328" lon="6.594595362316475"><ele>1170.0</ele><time>2026-05-01T10:55:38Z</time></trkpt><trkpt lat="44.86240362615951" lon="6.594360186566675"><ele>1167.0</ele><time>2026-05-01T10:55:39Z</time></trkpt><trkpt lat="44.862298375563874" lon="6.594142033972626"><ele>1164.0</ele><time>2026-05-01T10:55:40Z</time></trkpt><trkpt lat="44.86218888525886" lon="6.593918303486691"><ele>1164.0</ele><time>2026-05-01T10:55:41Z</time></trkpt><trkpt lat="44.86206821551203" lon="6.593689429357261"><ele>1164.0</ele><time>2026-05-01T10:55:42Z</time></trkpt><trkpt lat="44.86195551434504" lon="6.593460625713436"><ele>1164.0</ele><time>2026-05-01T10:55:43Z</time></trkpt><trkpt lat="44.86184218608155" lon="6.593230383882836"><ele>1162.3333333333333</ele><time>2026-05-01T10:55:44Z</time></trkpt><trkpt lat="44.86172293500166" lon="6.592999791703331"><ele>1160.6666666666665</ele><time>2026-05-01T10:55:45Z</time></trkpt><trkpt lat="44.86160287491661" lon="6.592768388408291"><ele>1159.0</ele><time>2026-05-01T10:55:46Z</time></trkpt><trkpt lat="44.86148231469088" lon="6.592544213580454"><ele>1159.0</ele><time>2026-05-01T10:55:47Z</time></trkpt><trkpt lat="44.861362897227245" lon="6.59230783882821"><ele>1159.0</ele><time>2026-05-01T10:55:48Z</time></trkpt><trkpt lat="44.861276100303655" lon="6.592067700509084"><ele>1159.0</ele><time>2026-05-01T10:55:49Z</time></trkpt><trkpt lat="44.86115916239223" lon="6.5918473287519745"><ele>1158.0</ele><time>2026-05-01T10:55:50Z</time></trkpt><trkpt lat="44.8610480969319" lon="6.591638406793567"><ele>1157.0</ele><time>2026-05-01T10:55:51Z</time></trkpt><trkpt lat="44.86092886559777" lon="6.59144213407288"><ele>1156.0</ele><time>2026-05-01T10:55:52Z</time></trkpt><trkpt lat="44.86082248552323" lon="6.591243914168937"><ele>1155.6666666666665</ele><time>2026-05-01T10:55:53Z</time></trkpt><trkpt lat="44.860724657176135" lon="6.591041246606871"><ele>1155.3333333333333</ele><time>2026-05-01T10:55:54Z</time></trkpt><trkpt lat="44.86063183440304" lon="6.590841557727412"><ele>1155.0</ele><time>2026-05-01T10:55:55Z</time></trkpt><trkpt lat="44.860523297708674" lon="6.590667868505289"><ele>1155.0</ele><time>2026-05-01T10:55:56Z</time></trkpt><trkpt lat="44.860421633076264" lon="6.590463727181352"><ele>1155.0</ele><time>2026-05-01T10:55:57Z</time></trkpt><trkpt lat="44.86027996434076" lon="6.590287653404448"><ele>1155.0</ele><time>2026-05-01T10:55:58Z</time></trkpt><trkpt lat="44.860138241486766" lon="6.590115975798223"><ele>1153.3333333333333</ele><time>2026-05-01T10:55:59Z</time></trkpt><trkpt lat="44.860000216026684" lon="6.58994722154603"><ele>1151.6666666666665</ele><time>2026-05-01T10:56:00Z</time></trkpt><trkpt lat="44.85984783064985" lon="6.5897858684030375"><ele>1150.0</ele><time>2026-05-01T10:56:01Z</time></trkpt><trkpt lat="44.859678383486504" lon="6.589632673735559"><ele>1149.6666666666665</ele><time>2026-05-01T10:56:02Z</time></trkpt><trkpt lat="44.859520991018854" lon="6.589480768339465"><ele>1149.3333333333333</ele><time>2026-05-01T10:56:03Z</time></trkpt><trkpt lat="44.859373484913775" lon="6.5893262689236565"><ele>1149.0</ele><time>2026-05-01T10:56:04Z</time></trkpt><trkpt lat="44.85922001974248" lon="6.589150920506143"><ele>1149.0</ele><time>2026-05-01T10:56:05Z</time></trkpt><trkpt lat="44.859077162408354" lon="6.588984871738919"><ele>1149.0</ele><time>2026-05-01T10:56:06Z</time></trkpt><trkpt lat="44.85892352102912" lon="6.588813535867347"><ele>1149.0</ele><time>2026-05-01T10:56:07Z</time></trkpt><trkpt lat="44.858780434382076" lon="6.588645920455917"><ele>1149.0</ele><time>2026-05-01T10:56:08Z</time></trkpt><trkpt lat="44.85861714254808" lon="6.5884790450495405"><ele>1149.0</ele><time>2026-05-01T10:56:09Z</time></trkpt><trkpt lat="44.8584573735315" lon="6.588317374735065"><ele>1149.0</ele><time>2026-05-01T10:56:10Z</time></trkpt><trkpt lat="44.85829303469371" lon="6.58814564755534"><ele>1150.0</ele><time>2026-05-01T10:56:11Z</time></trkpt><trkpt lat="44.8581259271013" lon="6.588002846598239"><ele>1151.0</ele><time>2026-05-01T10:56:12Z</time></trkpt><trkpt lat="44.85796671907605" lon="6.587823926866512"><ele>1152.0</ele><time>2026-05-01T10:56:13Z</time></trkpt><trkpt lat="44.85781350363703" lon="6.5876507355081495"><ele>1152.0</ele><time>2026-05-01T10:56:14Z</time></trkpt><trkpt lat="44.857657983595914" lon="6.587481035593868"><ele>1152.0</ele><time>2026-05-01T10:56:15Z</time></trkpt><trkpt lat="44.85749280194678" lon="6.587300461436853"><ele>1152.0</ele><time>2026-05-01T10:56:16Z</time></trkpt><trkpt lat="44.85733396553022" lon="6.587117772027071"><ele>1153.3333333333333</ele><time>2026-05-01T10:56:17Z</time></trkpt><trkpt lat="44.85718145326359" lon="6.586950889558942"><ele>1154.6666666666665</ele><time>2026-05-01T10:56:18Z</time></trkpt><trkpt lat="44.85702697403014" lon="6.586795435117199"><ele>1156.0</ele><time>2026-05-01T10:56:19Z</time></trkpt><trkpt lat="44.856865515306644" lon="6.586628779134114"><ele>1156.3333333333333</ele><time>2026-05-01T10:56:20Z</time></trkpt><trkpt lat="44.85671540925878" lon="6.586459558562338"><ele>1156.6666666666667</ele><time>2026-05-01T10:56:21Z</time></trkpt><trkpt lat="44.856560679035866" lon="6.5862988140537695"><ele>1157.0</ele><time>2026-05-01T10:56:22Z</time></trkpt><trkpt lat="44.85641340059991" lon="6.586143933761921"><ele>1159.6666666666667</ele><time>2026-05-01T10:56:23Z</time></trkpt><trkpt lat="44.85626428160217" lon="6.585982107698973"><ele>1162.3333333333333</ele><time>2026-05-01T10:56:24Z</time></trkpt><trkpt lat="44.85610565643373" lon="6.585814364799408"><ele>1165.0</ele><time>2026-05-01T10:56:25Z</time></trkpt><trkpt lat="44.85595606990243" lon="6.585643800953468"><ele>1165.6666666666665</ele><time>2026-05-01T10:56:26Z</time></trkpt><trkpt lat="44.85579377107362" lon="6.585485014462912"><ele>1166.3333333333333</ele><time>2026-05-01T10:56:27Z</time></trkpt><trkpt lat="44.85564837244944" lon="6.585299232574139"><ele>1167.0</ele><time>2026-05-01T10:56:28Z</time></trkpt><trkpt lat="44.855494197499254" lon="6.5851397047667986"><ele>1167.0</ele><time>2026-05-01T10:56:29Z</time></trkpt><trkpt lat="44.85535228484041" lon="6.584978213327134"><ele>1167.0</ele><time>2026-05-01T10:56:30Z</time></trkpt><trkpt lat="44.855220118006315" lon="6.584833413220429"><ele>1167.0</ele><time>2026-05-01T10:56:31Z</time></trkpt><trkpt lat="44.85509410375942" lon="6.584699070926185"><ele>1167.6666666666667</ele><time>2026-05-01T10:56:32Z</time></trkpt><trkpt lat="44.85496062354741" lon="6.5845937915214945"><ele>1168.3333333333335</ele><time>2026-05-01T10:56:33Z</time></trkpt><trkpt lat="44.85483765165776" lon="6.584458037632236"><ele>1169.0</ele><time>2026-05-01T10:56:34Z</time></trkpt><trkpt lat="44.85470177824202" lon="6.584332472991065"><ele>1169.0</ele><time>2026-05-01T10:56:35Z</time></trkpt><trkpt lat="44.854570701966544" lon="6.584217622924273"><ele>1169.0</ele><time>2026-05-01T10:56:36Z</time></trkpt><trkpt lat="44.854459337132084" lon="6.584081957590266"><ele>1169.0</ele><time>2026-05-01T10:56:37Z</time></trkpt><trkpt lat="44.85435414117655" lon="6.583950501659845"><ele>1169.0</ele><time>2026-05-01T10:56:38Z</time></trkpt><trkpt lat="44.854242973662004" lon="6.583809151651154"><ele>1168.25</ele><time>2026-05-01T10:56:39Z</time></trkpt><trkpt lat="44.85414716368655" lon="6.583680637457763"><ele>1167.5</ele><time>2026-05-01T10:56:40Z</time></trkpt><trkpt lat="44.85404118269782" lon="6.583572632625025"><ele>1166.75</ele><time>2026-05-01T10:56:41Z</time></trkpt><trkpt lat="44.853933736072484" lon="6.583465322165828"><ele>1166.0</ele><time>2026-05-01T10:56:42Z</time></trkpt><trkpt lat="44.85382841440691" lon="6.583360390144568"><ele>1166.5</ele><time>2026-05-01T10:56:43Z</time></trkpt><trkpt lat="44.85372635781734" lon="6.583255646809896"><ele>1167.0</ele><time>2026-05-01T10:56:44Z</time></trkpt><trkpt lat="44.85362147135438" lon="6.583146989963325"><ele>1167.5</ele><time>2026-05-01T10:56:45Z</time></trkpt><trkpt lat="44.853511699417815" lon="6.583023074739776"><ele>1168.0</ele><time>2026-05-01T10:56:46Z</time></trkpt><trkpt lat="44.853423429768206" lon="6.582873982099521"><ele>1168.5</ele><time>2026-05-01T10:56:47Z</time></trkpt><trkpt lat="44.85331073862791" lon="6.582759853166734"><ele>1169.0</ele><time>2026-05-01T10:56:48Z</time></trkpt><trkpt lat="44.85319778200988" lon="6.582652182661591"><ele>1169.5</ele><time>2026-05-01T10:56:49Z</time></trkpt><trkpt lat="44.853084617552405" lon="6.5825419021929745"><ele>1170.0</ele><time>2026-05-01T10:56:50Z</time></trkpt><trkpt lat="44.85297841491172" lon="6.582454022049566"><ele>1170.0</ele><time>2026-05-01T10:56:51Z</time></trkpt><trkpt lat="44.85289560923704" lon="6.58233185661086"><ele>1170.0</ele><time>2026-05-01T10:56:52Z</time></trkpt><trkpt lat="44.85278968574563" lon="6.5822548491118384"><ele>1170.0</ele><time>2026-05-01T10:56:53Z</time></trkpt><trkpt lat="44.85267886531977" lon="6.582198650288883"><ele>1170.0</ele><time>2026-05-01T10:56:54Z</time></trkpt><trkpt lat="44.852556254280024" lon="6.582136991765996"><ele>1169.75</ele><time>2026-05-01T10:56:55Z</time></trkpt><trkpt lat="44.85243767786023" lon="6.582080061240854"><ele>1169.5</ele><time>2026-05-01T10:56:56Z</time></trkpt><trkpt lat="44.852314161308776" lon="6.582022128396915"><ele>1169.25</ele><time>2026-05-01T10:56:57Z</time></trkpt><trkpt lat="44.85219873234038" lon="6.581974360185734"><ele>1169.0</ele><time>2026-05-01T10:56:58Z</time></trkpt><trkpt lat="44.852088347566635" lon="6.581932707759739"><ele>1169.0</ele><time>2026-05-01T10:56:59Z</time></trkpt><trkpt lat="44.85197712062475" lon="6.581886807732611"><ele>1169.0</ele><time>2026-05-01T10:57:00Z</time></trkpt><trkpt lat="44.85184601277446" lon="6.581864708631008"><ele>1169.0</ele><time>2026-05-01T10:57:01Z</time></trkpt><trkpt lat="44.85170659020878" lon="6.581885898953139"><ele>1169.0</ele><time>2026-05-01T10:57:02Z</time></trkpt><trkpt lat="44.85156819564893" lon="6.581919033345324"><ele>1165.3333333333335</ele><time>2026-05-01T10:57:03Z</time></trkpt><trkpt lat="44.85143075672446" lon="6.581943151931455"><ele>1161.6666666666667</ele><time>2026-05-01T10:57:04Z</time></trkpt><trkpt lat="44.85127044432682" lon="6.582016224130765"><ele>1158.0</ele><time>2026-05-01T10:57:05Z</time></trkpt><trkpt lat="44.85110957665683" lon="6.582073153294635"><ele>1154.0</ele><time>2026-05-01T10:57:06Z</time></trkpt><trkpt lat="44.8509438260623" lon="6.582147981792511"><ele>1150.0</ele><time>2026-05-01T10:57:07Z</time></trkpt><trkpt lat="44.85078080560944" lon="6.582249156547138"><ele>1146.0</ele><time>2026-05-01T10:57:08Z</time></trkpt><trkpt lat="44.85061216050275" lon="6.582322382900809"><ele>1146.0</ele><time>2026-05-01T10:57:09Z</time></trkpt><trkpt lat="44.8504433139694" lon="6.582406476357317"><ele>1146.0</ele><time>2026-05-01T10:57:10Z</time></trkpt><trkpt lat="44.850283343562324" lon="6.582479366675294"><ele>1146.0</ele><time>2026-05-01T10:57:11Z</time></trkpt><trkpt lat="44.85010097417778" lon="6.58254743457778"><ele>1149.0</ele><time>2026-05-01T10:57:12Z</time></trkpt><trkpt lat="44.84992958286122" lon="6.582597199500182"><ele>1152.0</ele><time>2026-05-01T10:57:13Z</time></trkpt><trkpt lat="44.84975158090061" lon="6.582619649080126"><ele>1155.0</ele><time>2026-05-01T10:57:14Z</time></trkpt><trkpt lat="44.849585364426176" lon="6.582673471902765"><ele>1155.0</ele><time>2026-05-01T10:57:15Z</time></trkpt><trkpt lat="44.84941096912867" lon="6.58270427003779"><ele>1155.0</ele><time>2026-05-01T10:57:16Z</time></trkpt><trkpt lat="44.849224570590884" lon="6.582721358793497"><ele>1155.0</ele><time>2026-05-01T10:57:17Z</time></trkpt><trkpt lat="44.84904995157061" lon="6.582754802780216"><ele>1154.0</ele><time>2026-05-01T10:57:18Z</time></trkpt><trkpt lat="44.84887231989616" lon="6.5828032143259225"><ele>1153.0</ele><time>2026-05-01T10:57:19Z</time></trkpt><trkpt lat="44.84869274469485" lon="6.582844173574984"><ele>1152.0</ele><time>2026-05-01T10:57:20Z</time></trkpt><trkpt lat="44.84850528222389" lon="6.582858844402579"><ele>1162.6666666666667</ele><time>2026-05-01T10:57:21Z</time></trkpt><trkpt lat="44.848306612249075" lon="6.58289406210781"><ele>1173.3333333333335</ele><time>2026-05-01T10:57:22Z</time></trkpt><trkpt lat="44.84812856992804" lon="6.582924715753186"><ele>1184.0</ele><time>2026-05-01T10:57:23Z</time></trkpt><trkpt lat="44.84794497542294" lon="6.5829587430788985"><ele>1184.0</ele><time>2026-05-01T10:57:24Z</time></trkpt><trkpt lat="44.84776115375668" lon="6.582994373329787"><ele>1184.0</ele><time>2026-05-01T10:57:25Z</time></trkpt><trkpt lat="44.84757806235711" lon="6.583029949032881"><ele>1184.0</ele><time>2026-05-01T10:57:26Z</time></trkpt><trkpt lat="44.847389261848676" lon="6.583065403601658"><ele>1179.0</ele><time>2026-05-01T10:57:27Z</time></trkpt><trkpt lat="44.847206078161925" lon="6.583099306582571"><ele>1174.0</ele><time>2026-05-01T10:57:28Z</time></trkpt><trkpt lat="44.84701153899156" lon="6.5831339738478905"><ele>1169.0</ele><time>2026-05-01T10:57:29Z</time></trkpt><trkpt lat="44.84682577159053" lon="6.583166900778035"><ele>1165.6666666666667</ele><time>2026-05-01T10:57:30Z</time></trkpt><trkpt lat="44.84663811513322" lon="6.5831997735670535"><ele>1162.3333333333333</ele><time>2026-05-01T10:57:31Z</time></trkpt><trkpt lat="44.846443878587124" lon="6.5832243149396374"><ele>1159.0</ele><time>2026-05-01T10:57:32Z</time></trkpt><trkpt lat="44.84623938690966" lon="6.583240128231833"><ele>1159.0</ele><time>2026-05-01T10:57:33Z</time></trkpt><trkpt lat="44.84604446332556" lon="6.583238659865653"><ele>1159.0</ele><time>2026-05-01T10:57:34Z</time></trkpt><trkpt lat="44.84584599726" lon="6.583211663977484"><ele>1159.0</ele><time>2026-05-01T10:57:35Z</time></trkpt><trkpt lat="44.84563665193691" lon="6.583156183008785"><ele>1156.6666666666665</ele><time>2026-05-01T10:57:36Z</time></trkpt><trkpt lat="44.845438973001606" lon="6.583073935965442"><ele>1154.3333333333333</ele><time>2026-05-01T10:57:37Z</time></trkpt><trkpt lat="44.845248882580236" lon="6.582986681595276"><ele>1152.0</ele><time>2026-05-01T10:57:38Z</time></trkpt><trkpt lat="44.845055296212315" lon="6.582887887286694"><ele>1150.6666666666667</ele><time>2026-05-01T10:57:39Z</time></trkpt><trkpt lat="44.84484889717684" lon="6.582780770658765"><ele>1149.3333333333335</ele><time>2026-05-01T10:57:40Z</time></trkpt><trkpt lat="44.84464255912939" lon="6.582680367021322"><ele>1148.0</ele><time>2026-05-01T10:57:41Z</time></trkpt><trkpt lat="44.84443438102727" lon="6.582597364749439"><ele>1149.6666666666667</ele><time>2026-05-01T10:57:42Z</time></trkpt><trkpt lat="44.844225554777495" lon="6.582592735771729"><ele>1151.3333333333333</ele><time>2026-05-01T10:57:43Z</time></trkpt><trkpt lat="44.84402550248036" lon="6.582540707805338"><ele>1153.0</ele><time>2026-05-01T10:57:44Z</time></trkpt><trkpt lat="44.84383198325979" lon="6.582512598000349"><ele>1153.0</ele><time>2026-05-01T10:57:45Z</time></trkpt><trkpt lat="44.84363184276635" lon="6.582512013154848"><ele>1153.0</ele><time>2026-05-01T10:57:46Z</time></trkpt><trkpt lat="44.84343031147977" lon="6.582518038764107"><ele>1153.0</ele><time>2026-05-01T10:57:47Z</time></trkpt><trkpt lat="44.843232799911114" lon="6.582573361912809"><ele>1153.0</ele><time>2026-05-01T10:57:48Z</time></trkpt><trkpt lat="44.84302496683125" lon="6.582684117618965"><ele>1153.0</ele><time>2026-05-01T10:57:49Z</time></trkpt><trkpt lat="44.84282157355852" lon="6.582766136745719"><ele>1153.0</ele><time>2026-05-01T10:57:50Z</time></trkpt><trkpt lat="44.842633514402294" lon="6.582909928706657"><ele>1153.0</ele><time>2026-05-01T10:57:51Z</time></trkpt><trkpt lat="44.842442061886246" lon="6.5830465322421245"><ele>1153.0</ele><time>2026-05-01T10:57:52Z</time></trkpt><trkpt lat="44.84226287265208" lon="6.583208919829963"><ele>1153.0</ele><time>2026-05-01T10:57:53Z</time></trkpt><trkpt lat="44.842080794813434" lon="6.5833507390611725"><ele>1153.0</ele><time>2026-05-01T10:57:54Z</time></trkpt><trkpt lat="44.841907224959414" lon="6.583497489205422"><ele>1153.0</ele><time>2026-05-01T10:57:55Z</time></trkpt><trkpt lat="44.84174404066503" lon="6.583620996224784"><ele>1153.0</ele><time>2026-05-01T10:57:56Z</time></trkpt><trkpt lat="44.84137228789658" lon="6.5838504664034145"><ele>1150.6666666666665</ele><time>2026-05-01T10:57:58Z</time></trkpt><trkpt lat="44.84118607013865" lon="6.583953244953119"><ele>1148.3333333333333</ele><time>2026-05-01T10:57:59Z</time></trkpt><trkpt lat="44.84100341171034" lon="6.584030396635277"><ele>1146.0</ele><time>2026-05-01T10:58:00Z</time></trkpt><trkpt lat="44.84080075549475" lon="6.584101875312551"><ele>1146.0</ele><time>2026-05-01T10:58:01Z</time></trkpt><trkpt lat="44.84060522499984" lon="6.5841682899501865"><ele>1146.0</ele><time>2026-05-01T10:58:02Z</time></trkpt><trkpt lat="44.84040013114935" lon="6.584220882446356"><ele>1146.0</ele><time>2026-05-01T10:58:03Z</time></trkpt><trkpt lat="44.84019971229111" lon="6.584255512203794"><ele>1144.6666666666667</ele><time>2026-05-01T10:58:04Z</time></trkpt><trkpt lat="44.83999306231932" lon="6.584283652964629"><ele>1143.3333333333335</ele><time>2026-05-01T10:58:05Z</time></trkpt><trkpt lat="44.83978291323593" lon="6.5842909198516235"><ele>1142.0</ele><time>2026-05-01T10:58:06Z</time></trkpt><trkpt lat="44.83956121511754" lon="6.584288436188227"><ele>1142.0</ele><time>2026-05-01T10:58:07Z</time></trkpt><trkpt lat="44.83933267137589" lon="6.584273562257587"><ele>1142.0</ele><time>2026-05-01T10:58:08Z</time></trkpt><trkpt lat="44.839095656045416" lon="6.5842544725354575"><ele>1141.6666666666667</ele><time>2026-05-01T10:58:09Z</time></trkpt><trkpt lat="44.8388714888117" lon="6.584236393614258"><ele>1141.3333333333333</ele><time>2026-05-01T10:58:10Z</time></trkpt><trkpt lat="44.83868597536168" lon="6.584223582255153"><ele>1141.0</ele><time>2026-05-01T10:58:11Z</time></trkpt><trkpt lat="44.8384797709386" lon="6.584220806129296"><ele>1142.0</ele><time>2026-05-01T10:58:12Z</time></trkpt><trkpt lat="44.838299386817205" lon="6.584220806120807"><ele>1143.0</ele><time>2026-05-01T10:58:13Z</time></trkpt><trkpt lat="44.83810743171988" lon="6.584227739636004"><ele>1144.0</ele><time>2026-05-01T10:58:14Z</time></trkpt><trkpt lat="44.83793387096227" lon="6.584239906482515"><ele>1144.0</ele><time>2026-05-01T10:58:15Z</time></trkpt><trkpt lat="44.83776248526201" lon="6.584251758174456"><ele>1144.0</ele><time>2026-05-01T10:58:16Z</time></trkpt><trkpt lat="44.83757611038297" lon="6.5842646464005465"><ele>1144.0</ele><time>2026-05-01T10:58:17Z</time></trkpt><trkpt lat="44.837381565927934" lon="6.584278099571843"><ele>1147.0</ele><time>2026-05-01T10:58:18Z</time></trkpt><trkpt lat="44.83716947011602" lon="6.584292766456791"><ele>1150.0</ele><time>2026-05-01T10:58:19Z</time></trkpt><trkpt lat="44.83694386276967" lon="6.584324379357698"><ele>1153.0</ele><time>2026-05-01T10:58:20Z</time></trkpt><trkpt lat="44.83672099450362" lon="6.584319867495646"><ele>1155.0</ele><time>2026-05-01T10:58:21Z</time></trkpt><trkpt lat="44.83649827883363" lon="6.584326479484883"><ele>1157.0</ele><time>2026-05-01T10:58:22Z</time></trkpt><trkpt lat="44.836277923967636" lon="6.584314387151166"><ele>1159.0</ele><time>2026-05-01T10:58:23Z</time></trkpt><trkpt lat="44.83607298013982" lon="6.584291851159786"><ele>1163.0</ele><time>2026-05-01T10:58:24Z</time></trkpt><trkpt lat="44.83587318488777" lon="6.584254137621573"><ele>1167.0</ele><time>2026-05-01T10:58:25Z</time></trkpt><trkpt lat="44.835664121150245" lon="6.584197116996041"><ele>1171.0</ele><time>2026-05-01T10:58:26Z</time></trkpt><trkpt lat="44.83548059747865" lon="6.584134947802959"><ele>1171.0</ele><time>2026-05-01T10:58:27Z</time></trkpt><trkpt lat="44.83529752717252" lon="6.584065285948911"><ele>1171.0</ele><time>2026-05-01T10:58:28Z</time></trkpt><trkpt lat="44.83510811600205" lon="6.583988169698481"><ele>1171.0</ele><time>2026-05-01T10:58:29Z</time></trkpt><trkpt lat="44.83493689190697" lon="6.583917622353217"><ele>1168.6666666666665</ele><time>2026-05-01T10:58:30Z</time></trkpt><trkpt lat="44.83474900913041" lon="6.583861892561235"><ele>1166.3333333333333</ele><time>2026-05-01T10:58:31Z</time></trkpt><trkpt lat="44.83455047491564" lon="6.583778738168068"><ele>1164.0</ele><time>2026-05-01T10:58:32Z</time></trkpt><trkpt lat="44.83434214721894" lon="6.583672577165373"><ele>1168.5</ele><time>2026-05-01T10:58:33Z</time></trkpt><trkpt lat="44.83411595123602" lon="6.583579380499306"><ele>1173.0</ele><time>2026-05-01T10:58:34Z</time></trkpt><trkpt lat="44.833888541966815" lon="6.583485387464325"><ele>1173.0</ele><time>2026-05-01T10:58:35Z</time></trkpt><trkpt lat="44.83366966211612" lon="6.58339424627679"><ele>1173.0</ele><time>2026-05-01T10:58:36Z</time></trkpt><trkpt lat="44.83345311544408" lon="6.583309086255932"><ele>1175.6666666666667</ele><time>2026-05-01T10:58:37Z</time></trkpt><trkpt lat="44.83323785533822" lon="6.5832421304094"><ele>1178.3333333333335</ele><time>2026-05-01T10:58:38Z</time></trkpt><trkpt lat="44.833026300481244" lon="6.583202144136502"><ele>1181.0</ele><time>2026-05-01T10:58:39Z</time></trkpt><trkpt lat="44.832820018909594" lon="6.583159487149998"><ele>1185.0</ele><time>2026-05-01T10:58:40Z</time></trkpt><trkpt lat="44.83261061966636" lon="6.583120943839774"><ele>1189.0</ele><time>2026-05-01T10:58:41Z</time></trkpt><trkpt lat="44.83239959957498" lon="6.583111872880486"><ele>1193.0</ele><time>2026-05-01T10:58:42Z</time></trkpt><trkpt lat="44.83219098156382" lon="6.583119234758005"><ele>1193.0</ele><time>2026-05-01T10:58:43Z</time></trkpt><trkpt lat="44.831969850431534" lon="6.583102010536581"><ele>1193.0</ele><time>2026-05-01T10:58:44Z</time></trkpt><trkpt lat="44.8317480499824" lon="6.583094970506611"><ele>1193.0</ele><time>2026-05-01T10:58:45Z</time></trkpt><trkpt lat="44.831538455996906" lon="6.583166505780592"><ele>1195.6666666666667</ele><time>2026-05-01T10:58:46Z</time></trkpt><trkpt lat="44.831321080066424" lon="6.583186163602822"><ele>1198.3333333333333</ele><time>2026-05-01T10:58:47Z</time></trkpt><trkpt lat="44.831121325877334" lon="6.583195314008105"><ele>1201.0</ele><time>2026-05-01T10:58:48Z</time></trkpt><trkpt lat="44.83093610923031" lon="6.583190608896515"><ele>1203.0</ele><time>2026-05-01T10:58:49Z</time></trkpt><trkpt lat="44.830794164172005" lon="6.583148043058502"><ele>1205.0</ele><time>2026-05-01T10:58:50Z</time></trkpt><trkpt lat="44.83063914923682" lon="6.583077862857007"><ele>1207.0</ele><time>2026-05-01T10:58:51Z</time></trkpt><trkpt lat="44.830523976656146" lon="6.582964957536536"><ele>1209.0</ele><time>2026-05-01T10:58:52Z</time></trkpt><trkpt lat="44.830401528380136" lon="6.582831157231505"><ele>1208.0</ele><time>2026-05-01T10:58:53Z</time></trkpt><trkpt lat="44.83027188226944" lon="6.582672179240342"><ele>1207.0</ele><time>2026-05-01T10:58:54Z</time></trkpt><trkpt lat="44.83017856056037" lon="6.582467029416781"><ele>1206.0</ele><time>2026-05-01T10:58:55Z</time></trkpt><trkpt lat="44.83009769970736" lon="6.582252071174596"><ele>1206.0</ele><time>2026-05-01T10:58:56Z</time></trkpt><trkpt lat="44.83003597795575" lon="6.58202506273497"><ele>1206.0</ele><time>2026-05-01T10:58:57Z</time></trkpt><trkpt lat="44.82997959010597" lon="6.581789019074896"><ele>1206.0</ele><time>2026-05-01T10:58:58Z</time></trkpt><trkpt lat="44.829919357784235" lon="6.5815585709465845"><ele>1207.0</ele><time>2026-05-01T10:58:59Z</time></trkpt><trkpt lat="44.82985174858889" lon="6.58133221394345"><ele>1208.0</ele><time>2026-05-01T10:59:00Z</time></trkpt><trkpt lat="44.829772023262706" lon="6.58112622748331"><ele>1209.0</ele><time>2026-05-01T10:59:01Z</time></trkpt><trkpt lat="44.82965766940623" lon="6.580948378023394"><ele>1210.6666666666667</ele><time>2026-05-01T10:59:02Z</time></trkpt><trkpt lat="44.829533285993755" lon="6.580794361708136"><ele>1212.3333333333335</ele><time>2026-05-01T10:59:03Z</time></trkpt><trkpt lat="44.82937905238563" lon="6.580649565874165"><ele>1214.0</ele><time>2026-05-01T10:59:04Z</time></trkpt><trkpt lat="44.82922251212921" lon="6.5805283085887725"><ele>1214.0</ele><time>2026-05-01T10:59:05Z</time></trkpt><trkpt lat="44.829053629404456" lon="6.580426267445793"><ele>1214.0</ele><time>2026-05-01T10:59:06Z</time></trkpt><trkpt lat="44.82885613737536" lon="6.580347705604026"><ele>1214.0</ele><time>2026-05-01T10:59:07Z</time></trkpt><trkpt lat="44.82866541956526" lon="6.580259658187588"><ele>1214.3333333333335</ele><time>2026-05-01T10:59:08Z</time></trkpt><trkpt lat="44.828465527363" lon="6.5801925807053"><ele>1214.6666666666667</ele><time>2026-05-01T10:59:09Z</time></trkpt><trkpt lat="44.82827320149462" lon="6.580124688679598"><ele>1215.0</ele><time>2026-05-01T10:59:10Z</time></trkpt><trkpt lat="44.82808674598178" lon="6.580043694968453"><ele>1215.0</ele><time>2026-05-01T10:59:11Z</time></trkpt><trkpt lat="44.82790276788611" lon="6.579951143823865"><ele>1215.0</ele><time>2026-05-01T10:59:12Z</time></trkpt><trkpt lat="44.82772582338026" lon="6.579854224112296"><ele>1215.0</ele><time>2026-05-01T10:59:13Z</time></trkpt><trkpt lat="44.827548141194654" lon="6.579772099154484"><ele>1217.3333333333333</ele><time>2026-05-01T10:59:14Z</time></trkpt><trkpt lat="44.827378146008066" lon="6.5796877390135915"><ele>1219.6666666666665</ele><time>2026-05-01T10:59:15Z</time></trkpt><trkpt lat="44.827219652554945" lon="6.579628759683897"><ele>1222.0</ele><time>2026-05-01T10:59:16Z</time></trkpt><trkpt lat="44.827053922638164" lon="6.579608104936806"><ele>1222.0</ele><time>2026-05-01T10:59:17Z</time></trkpt><trkpt lat="44.826904567658204" lon="6.579617142352525"><ele>1222.0</ele><time>2026-05-01T10:59:18Z</time></trkpt><trkpt lat="44.82675197441212" lon="6.579654087300758"><ele>1222.0</ele><time>2026-05-01T10:59:19Z</time></trkpt><trkpt lat="44.82660694683294" lon="6.57971182769259"><ele>1223.25</ele><time>2026-05-01T10:59:20Z</time></trkpt><trkpt lat="44.82645727110329" lon="6.579750420406925"><ele>1224.5</ele><time>2026-05-01T10:59:21Z</time></trkpt><trkpt lat="44.8263173311568" lon="6.579776799629575"><ele>1225.75</ele><time>2026-05-01T10:59:22Z</time></trkpt><trkpt lat="44.82618417423453" lon="6.5798216951065225"><ele>1227.0</ele><time>2026-05-01T10:59:23Z</time></trkpt><trkpt lat="44.82605226458913" lon="6.579853413081498"><ele>1226.75</ele><time>2026-05-01T10:59:24Z</time></trkpt><trkpt lat="44.82593062296666" lon="6.579886178871903"><ele>1226.5</ele><time>2026-05-01T10:59:25Z</time></trkpt><trkpt lat="44.82579679793318" lon="6.579919810660146"><ele>1226.25</ele><time>2026-05-01T10:59:26Z</time></trkpt><trkpt lat="44.82566863154565" lon="6.579947541592694"><ele>1226.0</ele><time>2026-05-01T10:59:27Z</time></trkpt><trkpt lat="44.82554959199346" lon="6.579974827166451"><ele>1226.0</ele><time>2026-05-01T10:59:28Z</time></trkpt><trkpt lat="44.82542314345424" lon="6.580014045142118"><ele>1226.0</ele><time>2026-05-01T10:59:29Z</time></trkpt><trkpt lat="44.82529723368546" lon="6.580042159583441"><ele>1226.0</ele><time>2026-05-01T10:59:30Z</time></trkpt><trkpt lat="44.825182427277014" lon="6.580071337721017"><ele>1226.0</ele><time>2026-05-01T10:59:31Z</time></trkpt><trkpt lat="44.82505938345657" lon="6.58008908083053"><ele>1226.25</ele><time>2026-05-01T10:59:32Z</time></trkpt><trkpt lat="44.824961559543404" lon="6.580059713333038"><ele>1226.5</ele><time>2026-05-01T10:59:33Z</time></trkpt><trkpt lat="44.824851716304785" lon="6.580044981074996"><ele>1226.75</ele><time>2026-05-01T10:59:34Z</time></trkpt><trkpt lat="44.824733005554016" lon="6.579981892309448"><ele>1227.0</ele><time>2026-05-01T10:59:35Z</time></trkpt><trkpt lat="44.82461972049062" lon="6.579940809959942"><ele>1227.0</ele><time>2026-05-01T10:59:36Z</time></trkpt><trkpt lat="44.8245143639173" lon="6.579878939418847"><ele>1227.0</ele><time>2026-05-01T10:59:37Z</time></trkpt><trkpt lat="44.82439915514634" lon="6.579834311654815"><ele>1227.0</ele><time>2026-05-01T10:59:38Z</time></trkpt><trkpt lat="44.82429816411894" lon="6.579759663243765"><ele>1227.0</ele><time>2026-05-01T10:59:39Z</time></trkpt><trkpt lat="44.824195496771786" lon="6.57969867842822"><ele>1226.0</ele><time>2026-05-01T10:59:40Z</time></trkpt><trkpt lat="44.82409721190776" lon="6.579645347229661"><ele>1225.0</ele><time>2026-05-01T10:59:41Z</time></trkpt><trkpt lat="44.823994911410345" lon="6.579580236881793"><ele>1224.0</ele><time>2026-05-01T10:59:42Z</time></trkpt><trkpt lat="44.82389251354047" lon="6.579522925476749"><ele>1223.0</ele><time>2026-05-01T10:59:43Z</time></trkpt><trkpt lat="44.82379105544908" lon="6.579466081918817"><ele>1222.0</ele><time>2026-05-01T10:59:44Z</time></trkpt><trkpt lat="44.82369171511852" lon="6.579410117475187"><ele>1222.5</ele><time>2026-05-01T10:59:45Z</time></trkpt><trkpt lat="44.82358465781378" lon="6.579363382724548"><ele>1223.0</ele><time>2026-05-01T10:59:46Z</time></trkpt><trkpt lat="44.823508778582344" lon="6.579269854272982"><ele>1223.5</ele><time>2026-05-01T10:59:47Z</time></trkpt><trkpt lat="44.82339199498208" lon="6.579187420414771"><ele>1224.0</ele><time>2026-05-01T10:59:48Z</time></trkpt><trkpt lat="44.823276433083045" lon="6.579134707676933"><ele>1224.0</ele><time>2026-05-01T10:59:49Z</time></trkpt><trkpt lat="44.823173677931194" lon="6.579067629817893"><ele>1224.0</ele><time>2026-05-01T10:59:50Z</time></trkpt><trkpt lat="44.823073796885026" lon="6.5790289676692995"><ele>1224.0</ele><time>2026-05-01T10:59:51Z</time></trkpt><trkpt lat="44.822958398656425" lon="6.578982524527821"><ele>1224.0</ele><time>2026-05-01T10:59:52Z</time></trkpt><trkpt lat="44.822853772489594" lon="6.57891028615398"><ele>1224.0</ele><time>2026-05-01T10:59:53Z</time></trkpt><trkpt lat="44.822739038148086" lon="6.578893174361357"><ele>1224.0</ele><time>2026-05-01T10:59:54Z</time></trkpt><trkpt lat="44.8226182969149" lon="6.578871526095542"><ele>1224.0</ele><time>2026-05-01T10:59:55Z</time></trkpt><trkpt lat="44.822494587145975" lon="6.57883992522305"><ele>1224.0</ele><time>2026-05-01T10:59:56Z</time></trkpt><trkpt lat="44.822365790671874" lon="6.578827378258038"><ele>1223.25</ele><time>2026-05-01T10:59:57Z</time></trkpt><trkpt lat="44.82223825151963" lon="6.578826186616579"><ele>1222.5</ele><time>2026-05-01T10:59:58Z</time></trkpt><trkpt lat="44.82210976511217" lon="6.578835697999761"><ele>1221.75</ele><time>2026-05-01T10:59:59Z</time></trkpt><trkpt lat="44.82198680025493" lon="6.578839135954207"><ele>1221.0</ele><time>2026-05-01T11:00:00Z</time></trkpt><trkpt lat="44.82185669956486" lon="6.578847157247373"><ele>1220.5</ele><time>2026-05-01T11:00:01Z</time></trkpt><trkpt lat="44.82172877818216" lon="6.578857485208865"><ele>1220.0</ele><time>2026-05-01T11:00:02Z</time></trkpt><trkpt lat="44.821586070570895" lon="6.57888212635058"><ele>1219.5</ele><time>2026-05-01T11:00:03Z</time></trkpt><trkpt lat="44.821437959721436" lon="6.578895669535712"><ele>1219.0</ele><time>2026-05-01T11:00:04Z</time></trkpt><trkpt lat="44.821294256558325" lon="6.578893675061509"><ele>1219.0</ele><time>2026-05-01T11:00:05Z</time></trkpt><trkpt lat="44.82115011100873" lon="6.578866258559115"><ele>1219.0</ele><time>2026-05-01T11:00:06Z</time></trkpt><trkpt lat="44.82099648177827" lon="6.578839411695144"><ele>1219.0</ele><time>2026-05-01T11:00:07Z</time></trkpt><trkpt lat="44.82085942821254" lon="6.578838790934004"><ele>1219.0</ele><time>2026-05-01T11:00:08Z</time></trkpt><trkpt lat="44.82072972771702" lon="6.578831264210867"><ele>1220.25</ele><time>2026-05-01T11:00:09Z</time></trkpt><trkpt lat="44.8205807538536" lon="6.578849158354592"><ele>1221.5</ele><time>2026-05-01T11:00:10Z</time></trkpt><trkpt lat="44.82043507006015" lon="6.578880841067471"><ele>1222.75</ele><time>2026-05-01T11:00:11Z</time></trkpt><trkpt lat="44.820307327132575" lon="6.578893311260433"><ele>1224.0</ele><time>2026-05-01T11:00:12Z</time></trkpt><trkpt lat="44.82019105373413" lon="6.5788376051539705"><ele>1226.25</ele><time>2026-05-01T11:00:13Z</time></trkpt><trkpt lat="44.82009216572492" lon="6.578751562187879"><ele>1228.5</ele><time>2026-05-01T11:00:14Z</time></trkpt><trkpt lat="44.81996179211988" lon="6.578637567781503"><ele>1230.75</ele><time>2026-05-01T11:00:15Z</time></trkpt><trkpt lat="44.81981854905927" lon="6.578531038999527"><ele>1233.0</ele><time>2026-05-01T11:00:16Z</time></trkpt><trkpt lat="44.81968401329042" lon="6.578458264618355"><ele>1228.25</ele><time>2026-05-01T11:00:17Z</time></trkpt><trkpt lat="44.81954057629675" lon="6.578420170945409"><ele>1223.5</ele><time>2026-05-01T11:00:18Z</time></trkpt><trkpt lat="44.81940924944937" lon="6.578404423508612"><ele>1218.75</ele><time>2026-05-01T11:00:19Z</time></trkpt><trkpt lat="44.81928070353639" lon="6.578414122977599"><ele>1214.0</ele><time>2026-05-01T11:00:20Z</time></trkpt><trkpt lat="44.81917125256243" lon="6.578371859338174"><ele>1214.0</ele><time>2026-05-01T11:00:21Z</time></trkpt><trkpt lat="44.81906174594435" lon="6.578316290700098"><ele>1214.0</ele><time>2026-05-01T11:00:22Z</time></trkpt><trkpt lat="44.81896465744685" lon="6.578246075978567"><ele>1214.0</ele><time>2026-05-01T11:00:23Z</time></trkpt><trkpt lat="44.81886812798283" lon="6.578163574441377"><ele>1214.0</ele><time>2026-05-01T11:00:24Z</time></trkpt><trkpt lat="44.81877334952809" lon="6.578074572016868"><ele>1214.0</ele><time>2026-05-01T11:00:25Z</time></trkpt><trkpt lat="44.8186688394012" lon="6.577974007194925"><ele>1214.0</ele><time>2026-05-01T11:00:26Z</time></trkpt><trkpt lat="44.818568574241354" lon="6.577884554046986"><ele>1214.0</ele><time>2026-05-01T11:00:27Z</time></trkpt><trkpt lat="44.818455974612306" lon="6.577827042760132"><ele>1214.0</ele><time>2026-05-01T11:00:28Z</time></trkpt><trkpt lat="44.81833102405266" lon="6.577737332265633"><ele>1205.6666666666667</ele><time>2026-05-01T11:00:29Z</time></trkpt><trkpt lat="44.81818662863267" lon="6.577672190007598"><ele>1197.3333333333333</ele><time>2026-05-01T11:00:30Z</time></trkpt><trkpt lat="44.81802038930202" lon="6.577633970073754"><ele>1189.0</ele><time>2026-05-01T11:00:31Z</time></trkpt><trkpt lat="44.81785149004712" lon="6.577596894647097"><ele>1189.0</ele><time>2026-05-01T11:00:32Z</time></trkpt><trkpt lat="44.817726858315105" lon="6.577560576436705"><ele>1189.0</ele><time>2026-05-01T11:00:33Z</time></trkpt><trkpt lat="44.81761056808375" lon="6.577508053128543"><ele>1189.0</ele><time>2026-05-01T11:00:34Z</time></trkpt><trkpt lat="44.81745121497767" lon="6.577436721956215"><ele>1189.0</ele><time>2026-05-01T11:00:35Z</time></trkpt><trkpt lat="44.817335172354824" lon="6.577390434725581"><ele>1193.25</ele><time>2026-05-01T11:00:36Z</time></trkpt><trkpt lat="44.81718875506495" lon="6.577336960109852"><ele>1197.5</ele><time>2026-05-01T11:00:37Z</time></trkpt><trkpt lat="44.81705454419453" lon="6.577295613789932"><ele>1201.75</ele><time>2026-05-01T11:00:38Z</time></trkpt><trkpt lat="44.81691323474284" lon="6.577265717128096"><ele>1206.0</ele><time>2026-05-01T11:00:39Z</time></trkpt><trkpt lat="44.816761658942106" lon="6.57725093286009"><ele>1210.25</ele><time>2026-05-01T11:00:40Z</time></trkpt><trkpt lat="44.81664196384026" lon="6.577235241036054"><ele>1214.5</ele><time>2026-05-01T11:00:41Z</time></trkpt><trkpt lat="44.816534114386265" lon="6.5772046535884074"><ele>1218.75</ele><time>2026-05-01T11:00:42Z</time></trkpt><trkpt lat="44.81640849133261" lon="6.577162889129186"><ele>1223.0</ele><time>2026-05-01T11:00:43Z</time></trkpt><trkpt lat="44.81627576822221" lon="6.577130201603541"><ele>1223.0</ele><time>2026-05-01T11:00:44Z</time></trkpt><trkpt lat="44.816141523746936" lon="6.577108862960852"><ele>1223.0</ele><time>2026-05-01T11:00:45Z</time></trkpt><trkpt lat="44.81600759158692" lon="6.577108505342757"><ele>1223.0</ele><time>2026-05-01T11:00:46Z</time></trkpt><trkpt lat="44.81588650207043" lon="6.577049994384847"><ele>1223.0</ele><time>2026-05-01T11:00:47Z</time></trkpt><trkpt lat="44.815734541698355" lon="6.577065407286112"><ele>1225.0</ele><time>2026-05-01T11:00:48Z</time></trkpt><trkpt lat="44.81559673386937" lon="6.57706794616818"><ele>1227.0</ele><time>2026-05-01T11:00:49Z</time></trkpt><trkpt lat="44.815456862156054" lon="6.577031191924723"><ele>1229.0</ele><time>2026-05-01T11:00:50Z</time></trkpt><trkpt lat="44.81532745238894" lon="6.576986101384215"><ele>1231.0</ele><time>2026-05-01T11:00:51Z</time></trkpt><trkpt lat="44.81519642047596" lon="6.576971169066856"><ele>1225.75</ele><time>2026-05-01T11:00:51.999Z</time></trkpt><trkpt lat="44.81507198636988" lon="6.576936097695019"><ele>1220.5</ele><time>2026-05-01T11:00:52.999Z</time></trkpt><trkpt lat="44.814955413870514" lon="6.5768505622985085"><ele>1215.25</ele><time>2026-05-01T11:00:53.999Z</time></trkpt><trkpt lat="44.81484951927822" lon="6.576777688770757"><ele>1210.0</ele><time>2026-05-01T11:00:54.999Z</time></trkpt><trkpt lat="44.814776038373076" lon="6.576656184933686"><ele>1210.0</ele><time>2026-05-01T11:00:55.999Z</time></trkpt><trkpt lat="44.81471817247176" lon="6.576514487645604"><ele>1210.0</ele><time>2026-05-01T11:00:56.999Z</time></trkpt><trkpt lat="44.81463828130814" lon="6.576368031649883"><ele>1210.0</ele><time>2026-05-01T11:00:57.999Z</time></trkpt><trkpt lat="44.81459570114506" lon="6.5762392068769735"><ele>1210.0</ele><time>2026-05-01T11:00:58.999Z</time></trkpt><trkpt lat="44.81451294146739" lon="6.576107097572022"><ele>1210.25</ele><time>2026-05-01T11:01:00Z</time></trkpt><trkpt lat="44.8144290432308" lon="6.575965516887672"><ele>1210.5</ele><time>2026-05-01T11:01:01Z</time></trkpt><trkpt lat="44.81434518204299" lon="6.575839826608053"><ele>1210.75</ele><time>2026-05-01T11:01:02Z</time></trkpt><trkpt lat="44.81426237887491" lon="6.575721513334725"><ele>1211.0</ele><time>2026-05-01T11:01:03Z</time></trkpt><trkpt lat="44.814179355917084" lon="6.57562122844503"><ele>1211.0</ele><time>2026-05-01T11:01:04Z</time></trkpt><trkpt lat="44.8140741413792" lon="6.575579270332197"><ele>1211.0</ele><time>2026-05-01T11:01:05Z</time></trkpt><trkpt lat="44.813941429079" lon="6.575528403249844"><ele>1211.0</ele><time>2026-05-01T11:01:06Z</time></trkpt><trkpt lat="44.813813989970356" lon="6.575506730122242"><ele>1211.0</ele><time>2026-05-01T11:01:07Z</time></trkpt><trkpt lat="44.813647175042206" lon="6.575530629338665"><ele>1211.0</ele><time>2026-05-01T11:01:08Z</time></trkpt><trkpt lat="44.813506710176775" lon="6.575481700832064"><ele>1211.0</ele><time>2026-05-01T11:01:09Z</time></trkpt><trkpt lat="44.81337166797656" lon="6.5754688128338525"><ele>1211.0</ele><time>2026-05-01T11:01:10Z</time></trkpt><trkpt lat="44.81322021732694" lon="6.575463141511417"><ele>1211.0</ele><time>2026-05-01T11:01:11Z</time></trkpt><trkpt lat="44.8130426630957" lon="6.575436734907448"><ele>1213.0</ele><time>2026-05-01T11:01:12Z</time></trkpt><trkpt lat="44.81288462848156" lon="6.575435156352813"><ele>1215.0</ele><time>2026-05-01T11:01:13Z</time></trkpt><trkpt lat="44.812741257670574" lon="6.575415065594045"><ele>1217.0</ele><time>2026-05-01T11:01:14Z</time></trkpt><trkpt lat="44.81256867245354" lon="6.575386472311375"><ele>1211.0</ele><time>2026-05-01T11:01:15Z</time></trkpt><trkpt lat="44.81242732637572" lon="6.5753211534552625"><ele>1205.0</ele><time>2026-05-01T11:01:16Z</time></trkpt><trkpt lat="44.812308085291484" lon="6.575227625035903"><ele>1199.0</ele><time>2026-05-01T11:01:17Z</time></trkpt><trkpt lat="44.81220304071149" lon="6.575137888306821"><ele>1193.0</ele><time>2026-05-01T11:01:18Z</time></trkpt><trkpt lat="44.81209184860886" lon="6.575028123040322"><ele>1193.0</ele><time>2026-05-01T11:01:19Z</time></trkpt><trkpt lat="44.81200318994558" lon="6.574918190699177"><ele>1193.0</ele><time>2026-05-01T11:01:20Z</time></trkpt><trkpt lat="44.8119206001943" lon="6.574811840327684"><ele>1193.0</ele><time>2026-05-01T11:01:21Z</time></trkpt><trkpt lat="44.81185127576684" lon="6.57470356741506"><ele>1193.0</ele><time>2026-05-01T11:01:22Z</time></trkpt><trkpt lat="44.81176734644641" lon="6.574589723972755"><ele>1190.5</ele><time>2026-05-01T11:01:23Z</time></trkpt><trkpt lat="44.81166127014277" lon="6.574517998415911"><ele>1188.0</ele><time>2026-05-01T11:01:24Z</time></trkpt><trkpt lat="44.81155869322183" lon="6.574442758193176"><ele>1185.5</ele><time>2026-05-01T11:01:25Z</time></trkpt><trkpt lat="44.81144474462266" lon="6.574400886179758"><ele>1183.0</ele><time>2026-05-01T11:01:26Z</time></trkpt><trkpt lat="44.811338554321516" lon="6.574322637658713"><ele>1183.0</ele><time>2026-05-01T11:01:27Z</time></trkpt><trkpt lat="44.81123296736181" lon="6.5742762451282735"><ele>1183.0</ele><time>2026-05-01T11:01:28Z</time></trkpt><trkpt lat="44.81112381333433" lon="6.574263131474321"><ele>1183.0</ele><time>2026-05-01T11:01:29Z</time></trkpt><trkpt lat="44.81100996862742" lon="6.574233699302604"><ele>1183.0</ele><time>2026-05-01T11:01:30Z</time></trkpt><trkpt lat="44.810893583234495" lon="6.57420848944129"><ele>1186.0</ele><time>2026-05-01T11:01:31Z</time></trkpt><trkpt lat="44.810781896273504" lon="6.574175446949613"><ele>1189.0</ele><time>2026-05-01T11:01:32Z</time></trkpt><trkpt lat="44.810663779841846" lon="6.574136563441507"><ele>1192.0</ele><time>2026-05-01T11:01:33Z</time></trkpt><trkpt lat="44.810534929326174" lon="6.574086048514303"><ele>1195.0</ele><time>2026-05-01T11:01:34Z</time></trkpt><trkpt lat="44.810404217263546" lon="6.574031596448036"><ele>1195.0</ele><time>2026-05-01T11:01:35Z</time></trkpt><trkpt lat="44.810271774110724" lon="6.573976598030079"><ele>1195.0</ele><time>2026-05-01T11:01:36Z</time></trkpt><trkpt lat="44.810127698394425" lon="6.573942951508559"><ele>1195.0</ele><time>2026-05-01T11:01:37Z</time></trkpt><trkpt lat="44.809990368426284" lon="6.573917251979245"><ele>1195.0</ele><time>2026-05-01T11:01:38Z</time></trkpt><trkpt lat="44.80983489450923" lon="6.5739515437070954"><ele>1195.5</ele><time>2026-05-01T11:01:39Z</time></trkpt><trkpt lat="44.80971139214395" lon="6.573987120796067"><ele>1196.0</ele><time>2026-05-01T11:01:40Z</time></trkpt><trkpt lat="44.809566450193685" lon="6.574042772155858"><ele>1196.5</ele><time>2026-05-01T11:01:41Z</time></trkpt><trkpt lat="44.809422860499055" lon="6.574087287568012"><ele>1197.0</ele><time>2026-05-01T11:01:42Z</time></trkpt><trkpt lat="44.80926837464282" lon="6.574123938134922"><ele>1197.0</ele><time>2026-05-01T11:01:43Z</time></trkpt><trkpt lat="44.80912916283744" lon="6.574153309729049"><ele>1197.0</ele><time>2026-05-01T11:01:44Z</time></trkpt><trkpt lat="44.80898794225872" lon="6.574188862855134"><ele>1197.0</ele><time>2026-05-01T11:01:45Z</time></trkpt><trkpt lat="44.808853768880326" lon="6.574168143746369"><ele>1197.0</ele><time>2026-05-01T11:01:46Z</time></trkpt><trkpt lat="44.80872482647845" lon="6.574114989837841"><ele>1197.0</ele><time>2026-05-01T11:01:47Z</time></trkpt><trkpt lat="44.80858133770543" lon="6.574062451197072"><ele>1197.0</ele><time>2026-05-01T11:01:48Z</time></trkpt><trkpt lat="44.80845983137002" lon="6.573927162785726"><ele>1197.0</ele><time>2026-05-01T11:01:49Z</time></trkpt><trkpt lat="44.80835284517793" lon="6.573783165425671"><ele>1192.6666666666667</ele><time>2026-05-01T11:01:50Z</time></trkpt><trkpt lat="44.80825139657167" lon="6.573624922013056"><ele>1188.3333333333335</ele><time>2026-05-01T11:01:51Z</time></trkpt><trkpt lat="44.80814404412523" lon="6.573424234022138"><ele>1184.0</ele><time>2026-05-01T11:01:52Z</time></trkpt><trkpt lat="44.808064406355825" lon="6.5732212087700335"><ele>1184.0</ele><time>2026-05-01T11:01:53Z</time></trkpt><trkpt lat="44.80798920299773" lon="6.573022516597285"><ele>1184.0</ele><time>2026-05-01T11:01:54Z</time></trkpt><trkpt lat="44.80790605775766" lon="6.572798454768067"><ele>1184.0</ele><time>2026-05-01T11:01:55Z</time></trkpt><trkpt lat="44.807825123852375" lon="6.572580351695643"><ele>1181.3333333333335</ele><time>2026-05-01T11:01:56Z</time></trkpt><trkpt lat="44.8077443427554" lon="6.572362801358858"><ele>1178.6666666666667</ele><time>2026-05-01T11:01:57Z</time></trkpt><trkpt lat="44.80766557005074" lon="6.57215121161989"><ele>1176.0</ele><time>2026-05-01T11:01:58Z</time></trkpt><trkpt lat="44.807580406517694" lon="6.571923071372381"><ele>1174.6666666666667</ele><time>2026-05-01T11:01:59Z</time></trkpt><trkpt lat="44.80749460966413" lon="6.571708367167255"><ele>1173.3333333333335</ele><time>2026-05-01T11:02:00Z</time></trkpt><trkpt lat="44.80741286291081" lon="6.571511530221995"><ele>1172.0</ele><time>2026-05-01T11:02:01Z</time></trkpt><trkpt lat="44.80732891443639" lon="6.571298771587638"><ele>1170.0</ele><time>2026-05-01T11:02:02Z</time></trkpt><trkpt lat="44.80724126293885" lon="6.571072151206938"><ele>1168.0</ele><time>2026-05-01T11:02:03Z</time></trkpt><trkpt lat="44.807151831626506" lon="6.570840106122213"><ele>1166.0</ele><time>2026-05-01T11:02:04Z</time></trkpt><trkpt lat="44.80704086658574" lon="6.570588499763634"><ele>1164.3333333333335</ele><time>2026-05-01T11:02:05Z</time></trkpt><trkpt lat="44.806943020479984" lon="6.570345135481006"><ele>1162.6666666666667</ele><time>2026-05-01T11:02:06Z</time></trkpt><trkpt lat="44.80685648855018" lon="6.570107484524597"><ele>1161.0</ele><time>2026-05-01T11:02:07Z</time></trkpt><trkpt lat="44.80677774790437" lon="6.569853931869451"><ele>1160.6666666666667</ele><time>2026-05-01T11:02:08Z</time></trkpt><trkpt lat="44.80667828209128" lon="6.5696122908309365"><ele>1160.3333333333335</ele><time>2026-05-01T11:02:09Z</time></trkpt><trkpt lat="44.806569464098516" lon="6.569384587104596"><ele>1160.0</ele><time>2026-05-01T11:02:10Z</time></trkpt><trkpt lat="44.80643751293517" lon="6.569176507854712"><ele>1159.6666666666667</ele><time>2026-05-01T11:02:11Z</time></trkpt><trkpt lat="44.80632276729126" lon="6.568953417080233"><ele>1159.3333333333333</ele><time>2026-05-01T11:02:12Z</time></trkpt><trkpt lat="44.80618700528622" lon="6.568739921736068"><ele>1159.0</ele><time>2026-05-01T11:02:13Z</time></trkpt><trkpt lat="44.806043845037905" lon="6.5685424536336345"><ele>1156.0</ele><time>2026-05-01T11:02:14Z</time></trkpt><trkpt lat="44.805912804401444" lon="6.568360047597679"><ele>1153.0</ele><time>2026-05-01T11:02:15Z</time></trkpt><trkpt lat="44.80578506988224" lon="6.568188084890903"><ele>1150.0</ele><time>2026-05-01T11:02:16Z</time></trkpt><trkpt lat="44.80565455160745" lon="6.568027904727164"><ele>1150.0</ele><time>2026-05-01T11:02:17Z</time></trkpt><trkpt lat="44.80553790277374" lon="6.567881446537582"><ele>1150.0</ele><time>2026-05-01T11:02:18Z</time></trkpt><trkpt lat="44.805422468794" lon="6.567784988312353"><ele>1150.0</ele><time>2026-05-01T11:02:19Z</time></trkpt><trkpt lat="44.805303373172585" lon="6.5677071272265835"><ele>1150.0</ele><time>2026-05-01T11:02:20Z</time></trkpt><trkpt lat="44.8051404760392" lon="6.567702963668573"><ele>1146.75</ele><time>2026-05-01T11:02:21Z</time></trkpt><trkpt lat="44.80500450176889" lon="6.567678183693486"><ele>1143.5</ele><time>2026-05-01T11:02:22Z</time></trkpt><trkpt lat="44.804869872072736" lon="6.567674275121076"><ele>1140.25</ele><time>2026-05-01T11:02:23Z</time></trkpt><trkpt lat="44.80473130944849" lon="6.567673503966272"><ele>1137.0</ele><time>2026-05-01T11:02:24Z</time></trkpt><trkpt lat="44.80460457206182" lon="6.567694962104997"><ele>1137.0</ele><time>2026-05-01T11:02:25Z</time></trkpt><trkpt lat="44.804474632492955" lon="6.56771231425819"><ele>1137.0</ele><time>2026-05-01T11:02:26Z</time></trkpt><trkpt lat="44.804343077596165" lon="6.567753221200486"><ele>1137.0</ele><time>2026-05-01T11:02:27Z</time></trkpt><trkpt lat="44.80420875184938" lon="6.56781695990146"><ele>1137.0</ele><time>2026-05-01T11:02:28Z</time></trkpt><trkpt lat="44.80408491618036" lon="6.567865658945246"><ele>1138.75</ele><time>2026-05-01T11:02:29Z</time></trkpt><trkpt lat="44.80396392646777" lon="6.567930678046853"><ele>1140.5</ele><time>2026-05-01T11:02:30Z</time></trkpt><trkpt lat="44.80385703290218" lon="6.567992948610816"><ele>1142.25</ele><time>2026-05-01T11:02:31Z</time></trkpt><trkpt lat="44.803763840508005" lon="6.568059555447632"><ele>1144.0</ele><time>2026-05-01T11:02:32Z</time></trkpt><trkpt lat="44.80367299891869" lon="6.568144381698931"><ele>1144.0</ele><time>2026-05-01T11:02:33Z</time></trkpt><trkpt lat="44.80359174003527" lon="6.568199523019875"><ele>1144.0</ele><time>2026-05-01T11:02:34Z</time></trkpt><trkpt lat="44.803513692764746" lon="6.568210043681901"><ele>1144.0</ele><time>2026-05-01T11:02:35Z</time></trkpt><trkpt lat="44.80344550537847" lon="6.568202602227565"><ele>1144.0</ele><time>2026-05-01T11:02:36Z</time></trkpt><trkpt lat="44.80339633004011" lon="6.56813507242765"><ele>1144.0</ele><time>2026-05-01T11:02:37Z</time></trkpt><trkpt lat="44.80337698136312" lon="6.5680466001226305"><ele>1144.0</ele><time>2026-05-01T11:02:38Z</time></trkpt><trkpt lat="44.803366746977794" lon="6.567934345743875"><ele>1140.6000000000001</ele><time>2026-05-01T11:02:39Z</time></trkpt><trkpt lat="44.80339052786051" lon="6.567825862588825"><ele>1137.2</ele><time>2026-05-01T11:02:40Z</time></trkpt><trkpt lat="44.8034634048214" lon="6.567759050939827"><ele>1133.8000000000002</ele><time>2026-05-01T11:02:41Z</time></trkpt><trkpt lat="44.80353560039658" lon="6.567715758802862"><ele>1130.4</ele><time>2026-05-01T11:02:42Z</time></trkpt><trkpt lat="44.80362876579432" lon="6.567706106687734"><ele>1127.0</ele><time>2026-05-01T11:02:43Z</time></trkpt><trkpt lat="44.80375348076712" lon="6.567679343247164"><ele>1127.0</ele><time>2026-05-01T11:02:44Z</time></trkpt><trkpt lat="44.803888920240446" lon="6.567652262418958"><ele>1127.0</ele><time>2026-05-01T11:02:45Z</time></trkpt><trkpt lat="44.80401112105101" lon="6.567627828605222"><ele>1127.0</ele><time>2026-05-01T11:02:46Z</time></trkpt><trkpt lat="44.804164148304864" lon="6.567596521057047"><ele>1127.0</ele><time>2026-05-01T11:02:47Z</time></trkpt><trkpt lat="44.80431281885456" lon="6.56756680458719"><ele>1129.5</ele><time>2026-05-01T11:02:48Z</time></trkpt><trkpt lat="44.80439918891894" lon="6.567549859301194"><ele>1132.0</ele><time>2026-05-01T11:02:49Z</time></trkpt><trkpt lat="44.804532048224" lon="6.567521601145903"><ele>1134.5</ele><time>2026-05-01T11:02:50Z</time></trkpt><trkpt lat="44.804651405495775" lon="6.567472517736347"><ele>1137.0</ele><time>2026-05-01T11:02:51Z</time></trkpt><trkpt lat="44.80476895304137" lon="6.567446894070568"><ele>1137.0</ele><time>2026-05-01T11:02:52Z</time></trkpt><trkpt lat="44.80488464835165" lon="6.56745818354158"><ele>1137.0</ele><time>2026-05-01T11:02:53Z</time></trkpt><trkpt lat="44.80499195872755" lon="6.567394517187809"><ele>1137.0</ele><time>2026-05-01T11:02:54Z</time></trkpt><trkpt lat="44.80510908120364" lon="6.567329816665525"><ele>1137.0</ele><time>2026-05-01T11:02:55Z</time></trkpt><trkpt lat="44.805213950435565" lon="6.5672358566151665"><ele>1138.0</ele><time>2026-05-01T11:02:56Z</time></trkpt><trkpt lat="44.80530195916104" lon="6.567073350096742"><ele>1139.0</ele><time>2026-05-01T11:02:56.999Z</time></trkpt><trkpt lat="44.805375877907956" lon="6.5669053178015675"><ele>1140.0</ele><time>2026-05-01T11:02:57.999Z</time></trkpt><trkpt lat="44.805461671484025" lon="6.566762812652914"><ele>1141.0</ele><time>2026-05-01T11:02:58.999Z</time></trkpt><trkpt lat="44.80553845910687" lon="6.5666216889216305"><ele>1136.0</ele><time>2026-05-01T11:02:59.999Z</time></trkpt><trkpt lat="44.80564903606756" lon="6.566527359269473"><ele>1131.0</ele><time>2026-05-01T11:03:00.999Z</time></trkpt><trkpt lat="44.80574136619393" lon="6.566411127792688"><ele>1126.0</ele><time>2026-05-01T11:03:01.999Z</time></trkpt><trkpt lat="44.8058428215668" lon="6.566334641811603"><ele>1121.0</ele><time>2026-05-01T11:03:02.999Z</time></trkpt><trkpt lat="44.80595065496091" lon="6.5662851129382975"><ele>1123.75</ele><time>2026-05-01T11:03:03.999Z</time></trkpt><trkpt lat="44.80605565765635" lon="6.566237602801334"><ele>1126.5</ele><time>2026-05-01T11:03:04.999Z</time></trkpt><trkpt lat="44.806182137018205" lon="6.5662317749716745"><ele>1129.25</ele><time>2026-05-01T11:03:06Z</time></trkpt><trkpt lat="44.806311049633884" lon="6.566257529901152"><ele>1132.0</ele><time>2026-05-01T11:03:07Z</time></trkpt><trkpt lat="44.80642032878354" lon="6.5662382711322"><ele>1132.0</ele><time>2026-05-01T11:03:08Z</time></trkpt><trkpt lat="44.80652616088495" lon="6.566209589948372"><ele>1132.0</ele><time>2026-05-01T11:03:09Z</time></trkpt><trkpt lat="44.8066254474476" lon="6.566196752134816"><ele>1132.0</ele><time>2026-05-01T11:03:10Z</time></trkpt><trkpt lat="44.80671914779327" lon="6.566171584363701"><ele>1132.0</ele><time>2026-05-01T11:03:11Z</time></trkpt><trkpt lat="44.806789118504454" lon="6.5661071103986295"><ele>1132.0</ele><time>2026-05-01T11:03:12Z</time></trkpt><trkpt lat="44.80682652170928" lon="6.5660050630168945"><ele>1127.8</ele><time>2026-05-01T11:03:13Z</time></trkpt><trkpt lat="44.806822237756194" lon="6.565910061682635"><ele>1123.6</ele><time>2026-05-01T11:03:14Z</time></trkpt><trkpt lat="44.80680214798964" lon="6.565804860269705"><ele>1119.3999999999999</ele><time>2026-05-01T11:03:15Z</time></trkpt><trkpt lat="44.80665519801178" lon="6.5656294823159405"><ele>1115.2</ele><time>2026-05-01T11:03:16Z</time></trkpt><trkpt lat="44.80658303606348" lon="6.565571858837577"><ele>1111.0</ele><time>2026-05-01T11:03:17Z</time></trkpt><trkpt lat="44.80648012057764" lon="6.565571389977283"><ele>1111.0</ele><time>2026-05-01T11:03:18Z</time></trkpt><trkpt lat="44.806383682240295" lon="6.565608781906237"><ele>1111.0</ele><time>2026-05-01T11:03:19Z</time></trkpt><trkpt lat="44.80628425814901" lon="6.5656277613455085"><ele>1111.0</ele><time>2026-05-01T11:03:20Z</time></trkpt><trkpt lat="44.80616457884893" lon="6.565675174027026"><ele>1111.0</ele><time>2026-05-01T11:03:21Z</time></trkpt><trkpt lat="44.80602629039884" lon="6.565715844035484"><ele>1108.5</ele><time>2026-05-01T11:03:22Z</time></trkpt><trkpt lat="44.80589515490658" lon="6.565732817012007"><ele>1106.0</ele><time>2026-05-01T11:03:23Z</time></trkpt><trkpt lat="44.805755944469766" lon="6.565719722969357"><ele>1103.5</ele><time>2026-05-01T11:03:24Z</time></trkpt><trkpt lat="44.805621483596816" lon="6.565683927470553"><ele>1101.0</ele><time>2026-05-01T11:03:25Z</time></trkpt><trkpt lat="44.805463976392204" lon="6.565621610356441"><ele>1101.0</ele><time>2026-05-01T11:03:26Z</time></trkpt><trkpt lat="44.80532691914607" lon="6.565551734199399"><ele>1101.0</ele><time>2026-05-01T11:03:27Z</time></trkpt><trkpt lat="44.80518580834227" lon="6.565478739824041"><ele>1101.0</ele><time>2026-05-01T11:03:28Z</time></trkpt><trkpt lat="44.805048471228396" lon="6.565412975345504"><ele>1101.0</ele><time>2026-05-01T11:03:29Z</time></trkpt><trkpt lat="44.804897051324524" lon="6.5653770478501565"><ele>1093.3333333333333</ele><time>2026-05-01T11:03:30Z</time></trkpt><trkpt lat="44.80473986972962" lon="6.565360623202481"><ele>1085.6666666666665</ele><time>2026-05-01T11:03:31Z</time></trkpt><trkpt lat="44.80457149457773" lon="6.565341150385097"><ele>1078.0</ele><time>2026-05-01T11:03:32Z</time></trkpt><trkpt lat="44.80441696716612" lon="6.565313841547805"><ele>1077.3333333333333</ele><time>2026-05-01T11:03:33Z</time></trkpt><trkpt lat="44.80426314388632" lon="6.565288455940291"><ele>1076.6666666666667</ele><time>2026-05-01T11:03:34Z</time></trkpt><trkpt lat="44.80410527780082" lon="6.5653024888463385"><ele>1076.0</ele><time>2026-05-01T11:03:35Z</time></trkpt><trkpt lat="44.80395193613322" lon="6.565335552213014"><ele>1078.6666666666667</ele><time>2026-05-01T11:03:36Z</time></trkpt><trkpt lat="44.80378974414064" lon="6.565416417350767"><ele>1081.3333333333333</ele><time>2026-05-01T11:03:37Z</time></trkpt><trkpt lat="44.80362181023007" lon="6.5655332106911075"><ele>1084.0</ele><time>2026-05-01T11:03:38Z</time></trkpt><trkpt lat="44.80345758298395" lon="6.565644329452691"><ele>1084.0</ele><time>2026-05-01T11:03:39Z</time></trkpt><trkpt lat="44.80329602342953" lon="6.565724532542339"><ele>1084.0</ele><time>2026-05-01T11:03:40Z</time></trkpt><trkpt lat="44.803138841590076" lon="6.565817411968608"><ele>1084.0</ele><time>2026-05-01T11:03:41Z</time></trkpt><trkpt lat="44.80299306404175" lon="6.56589817701703"><ele>1084.0</ele><time>2026-05-01T11:03:42Z</time></trkpt><trkpt lat="44.802823178402605" lon="6.565967674604817"><ele>1084.0</ele><time>2026-05-01T11:03:43Z</time></trkpt><trkpt lat="44.8026433027297" lon="6.566014918922495"><ele>1084.0</ele><time>2026-05-01T11:03:44Z</time></trkpt><trkpt lat="44.80247258688429" lon="6.566045653205405"><ele>1079.3333333333333</ele><time>2026-05-01T11:03:45Z</time></trkpt><trkpt lat="44.80230573414964" lon="6.566063026985296"><ele>1074.6666666666667</ele><time>2026-05-01T11:03:46Z</time></trkpt><trkpt lat="44.802130921886906" lon="6.566062550727462"><ele>1070.0</ele><time>2026-05-01T11:03:47Z</time></trkpt><trkpt lat="44.8019618838736" lon="6.566057728829878"><ele>1067.6666666666667</ele><time>2026-05-01T11:03:48Z</time></trkpt><trkpt lat="44.8017967420981" lon="6.5660564335989555"><ele>1065.3333333333333</ele><time>2026-05-01T11:03:49Z</time></trkpt><trkpt lat="44.80162928795874" lon="6.566057076126102"><ele>1063.0</ele><time>2026-05-01T11:03:50Z</time></trkpt><trkpt lat="44.80144535878507" lon="6.566060037314618"><ele>1063.0</ele><time>2026-05-01T11:03:51Z</time></trkpt><trkpt lat="44.80127653185015" lon="6.566063354935621"><ele>1063.0</ele><time>2026-05-01T11:03:52Z</time></trkpt><trkpt lat="44.80110830396199" lon="6.566067928217905"><ele>1063.0</ele><time>2026-05-01T11:03:53Z</time></trkpt><trkpt lat="44.80095025100736" lon="6.566072823944478"><ele>1061.75</ele><time>2026-05-01T11:03:54Z</time></trkpt><trkpt lat="44.80080193395244" lon="6.566061231863994"><ele>1060.5</ele><time>2026-05-01T11:03:55Z</time></trkpt><trkpt lat="44.80065880894078" lon="6.5660657002285925"><ele>1059.25</ele><time>2026-05-01T11:03:56Z</time></trkpt><trkpt lat="44.800532772292954" lon="6.566022071498968"><ele>1058.0</ele><time>2026-05-01T11:03:57Z</time></trkpt><trkpt lat="44.80040162802728" lon="6.566020348442334"><ele>1058.0</ele><time>2026-05-01T11:03:58Z</time></trkpt><trkpt lat="44.80028690147457" lon="6.566014712554385"><ele>1058.0</ele><time>2026-05-01T11:03:59Z</time></trkpt><trkpt lat="44.80016457338047" lon="6.566006526290967"><ele>1058.0</ele><time>2026-05-01T11:04:00Z</time></trkpt><trkpt lat="44.80003929834454" lon="6.565995989967662"><ele>1058.0</ele><time>2026-05-01T11:04:01Z</time></trkpt><trkpt lat="44.79991793021611" lon="6.565968323981893"><ele>1056.5</ele><time>2026-05-01T11:04:02Z</time></trkpt><trkpt lat="44.79981248081219" lon="6.565904904123779"><ele>1055.0</ele><time>2026-05-01T11:04:03Z</time></trkpt><trkpt lat="44.79968892070148" lon="6.56588417873503"><ele>1053.5</ele><time>2026-05-01T11:04:04Z</time></trkpt><trkpt lat="44.799559664969955" lon="6.565852929760134"><ele>1052.0</ele><time>2026-05-01T11:04:05Z</time></trkpt><trkpt lat="44.79942729520339" lon="6.565786918311614"><ele>1052.0</ele><time>2026-05-01T11:04:06Z</time></trkpt><trkpt lat="44.79928995836215" lon="6.565712919949555"><ele>1052.0</ele><time>2026-05-01T11:04:07Z</time></trkpt><trkpt lat="44.799176499969406" lon="6.56563586191027"><ele>1052.0</ele><time>2026-05-01T11:04:08Z</time></trkpt><trkpt lat="44.79906217439651" lon="6.565542070090804"><ele>1052.0</ele><time>2026-05-01T11:04:09Z</time></trkpt><trkpt lat="44.79894851492825" lon="6.565428657278076"><ele>1050.75</ele><time>2026-05-01T11:04:10Z</time></trkpt><trkpt lat="44.79884785477967" lon="6.565338024064577"><ele>1049.5</ele><time>2026-05-01T11:04:11Z</time></trkpt><trkpt lat="44.79876112875789" lon="6.565211777742741"><ele>1048.25</ele><time>2026-05-01T11:04:12Z</time></trkpt><trkpt lat="44.79867571126483" lon="6.565090680361951"><ele>1047.0</ele><time>2026-05-01T11:04:13Z</time></trkpt><trkpt lat="44.798593738166765" lon="6.564967229019769"><ele>1047.25</ele><time>2026-05-01T11:04:14Z</time></trkpt><trkpt lat="44.798486023177226" lon="6.5648860286207675"><ele>1047.5</ele><time>2026-05-01T11:04:15Z</time></trkpt><trkpt lat="44.79840304268881" lon="6.564738091811732"><ele>1047.75</ele><time>2026-05-01T11:04:16Z</time></trkpt><trkpt lat="44.7983164521873" lon="6.564595575427145"><ele>1048.0</ele><time>2026-05-01T11:04:17Z</time></trkpt><trkpt lat="44.79823272285886" lon="6.564465612002777"><ele>1045.0</ele><time>2026-05-01T11:04:18Z</time></trkpt><trkpt lat="44.798156689411364" lon="6.564310344655291"><ele>1042.0</ele><time>2026-05-01T11:04:19Z</time></trkpt><trkpt lat="44.798062337581" lon="6.564175886263987"><ele>1039.0</ele><time>2026-05-01T11:04:20Z</time></trkpt><trkpt lat="44.79797383448408" lon="6.5640514352285155"><ele>1036.0</ele><time>2026-05-01T11:04:21Z</time></trkpt><trkpt lat="44.797884958970194" lon="6.563936688773262"><ele>1036.0</ele><time>2026-05-01T11:04:22Z</time></trkpt><trkpt lat="44.797795315313095" lon="6.563832409285309"><ele>1036.0</ele><time>2026-05-01T11:04:23Z</time></trkpt><trkpt lat="44.79769235498702" lon="6.5637563709248985"><ele>1036.0</ele><time>2026-05-01T11:04:24Z</time></trkpt><trkpt lat="44.79760392990222" lon="6.5636690700423435"><ele>1036.0</ele><time>2026-05-01T11:04:25Z</time></trkpt><trkpt lat="44.797511376097106" lon="6.563588067246261"><ele>1036.0</ele><time>2026-05-01T11:04:26Z</time></trkpt><trkpt lat="44.797421545762425" lon="6.563527878360285"><ele>1033.75</ele><time>2026-05-01T11:04:27Z</time></trkpt><trkpt lat="44.79732270382439" lon="6.563450102527444"><ele>1031.5</ele><time>2026-05-01T11:04:28Z</time></trkpt><trkpt lat="44.797201547117155" lon="6.56336276474533"><ele>1029.25</ele><time>2026-05-01T11:04:29Z</time></trkpt><trkpt lat="44.79709676599693" lon="6.563268569439364"><ele>1027.0</ele><time>2026-05-01T11:04:30Z</time></trkpt><trkpt lat="44.79699602917747" lon="6.5631940628866525"><ele>1027.0</ele><time>2026-05-01T11:04:31Z</time></trkpt><trkpt lat="44.79688198280355" lon="6.563114224719441"><ele>1027.0</ele><time>2026-05-01T11:04:32Z</time></trkpt><trkpt lat="44.7967694922739" lon="6.563063681451536"><ele>1027.0</ele><time>2026-05-01T11:04:33Z</time></trkpt><trkpt lat="44.79668950017441" lon="6.562972635373455"><ele>1027.0</ele><time>2026-05-01T11:04:34Z</time></trkpt><trkpt lat="44.796591350577664" lon="6.562925387765496"><ele>1027.2</ele><time>2026-05-01T11:04:35Z</time></trkpt><trkpt lat="44.79649029565391" lon="6.562877254495024"><ele>1027.4</ele><time>2026-05-01T11:04:36Z</time></trkpt><trkpt lat="44.79638753137005" lon="6.562825743079911"><ele>1027.6</ele><time>2026-05-01T11:04:37Z</time></trkpt><trkpt lat="44.79629075781635" lon="6.562774173068828"><ele>1027.8</ele><time>2026-05-01T11:04:38Z</time></trkpt><trkpt lat="44.79618208020831" lon="6.562739246176572"><ele>1028.0</ele><time>2026-05-01T11:04:39Z</time></trkpt><trkpt lat="44.7960908405955" lon="6.5627229571279075"><ele>1025.2</ele><time>2026-05-01T11:04:40Z</time></trkpt><trkpt lat="44.79597799894485" lon="6.562695925542353"><ele>1022.4</ele><time>2026-05-01T11:04:41Z</time></trkpt><trkpt lat="44.795870520721095" lon="6.562663578963488"><ele>1019.6000000000001</ele><time>2026-05-01T11:04:42Z</time></trkpt><trkpt lat="44.79577116259438" lon="6.562639891167771"><ele>1016.8000000000001</ele><time>2026-05-01T11:04:43Z</time></trkpt><trkpt lat="44.79566986523781" lon="6.562643560133845"><ele>1014.0</ele><time>2026-05-01T11:04:44Z</time></trkpt><trkpt lat="44.79556430216441" lon="6.56264151428126"><ele>1014.0</ele><time>2026-05-01T11:04:45Z</time></trkpt><trkpt lat="44.79547298030218" lon="6.562594284374348"><ele>1014.0000000000001</ele><time>2026-05-01T11:04:46Z</time></trkpt><trkpt lat="44.79537462911807" lon="6.562593526015595"><ele>1014.0000000000001</ele><time>2026-05-01T11:04:47Z</time></trkpt><trkpt lat="44.79527831711918" lon="6.562579054212496"><ele>1014.0</ele><time>2026-05-01T11:04:48Z</time></trkpt><trkpt lat="44.79518027775567" lon="6.5625759300476245"><ele>1014.0</ele><time>2026-05-01T11:04:49Z</time></trkpt><trkpt lat="44.79508169329124" lon="6.562571246040578"><ele>1012.6</ele><time>2026-05-01T11:04:50Z</time></trkpt><trkpt lat="44.794979672778496" lon="6.5625679010887845"><ele>1011.2</ele><time>2026-05-01T11:04:51Z</time></trkpt><trkpt lat="44.794863481258176" lon="6.562541802732161"><ele>1009.8000000000001</ele><time>2026-05-01T11:04:52Z</time></trkpt><trkpt lat="44.79475523652739" lon="6.562539164189548"><ele>1008.4000000000001</ele><time>2026-05-01T11:04:53Z</time></trkpt><trkpt lat="44.79463501585353" lon="6.562561330171459"><ele>1007.0</ele><time>2026-05-01T11:04:54Z</time></trkpt><trkpt lat="44.79453728958077" lon="6.5625198725488545"><ele>1007.0</ele><time>2026-05-01T11:04:54.999Z</time></trkpt><trkpt lat="44.79442852112211" lon="6.562513018521768"><ele>1007.0</ele><time>2026-05-01T11:04:55.999Z</time></trkpt><trkpt lat="44.7943343226186" lon="6.562514265660789"><ele>1007.0</ele><time>2026-05-01T11:04:56.999Z</time></trkpt><trkpt lat="44.794240505980426" lon="6.5625051303164845"><ele>1007.0</ele><time>2026-05-01T11:04:57.999Z</time></trkpt><trkpt lat="44.79411631643418" lon="6.562506168842515"><ele>1007.0</ele><time>2026-05-01T11:04:58.999Z</time></trkpt><trkpt lat="44.793991208002936" lon="6.562495194596127"><ele>1005.5</ele><time>2026-05-01T11:04:59.999Z</time></trkpt><trkpt lat="44.793883785844415" lon="6.562468056864408"><ele>1004.0</ele><time>2026-05-01T11:05:00.999Z</time></trkpt><trkpt lat="44.793751628228556" lon="6.562440834109594"><ele>1002.5</ele><time>2026-05-01T11:05:01.999Z</time></trkpt><trkpt lat="44.793625535114536" lon="6.562415702811618"><ele>1001.0</ele><time>2026-05-01T11:05:02.999Z</time></trkpt><trkpt lat="44.79349711871419" lon="6.5623794914283895"><ele>1001.0</ele><time>2026-05-01T11:05:03.999Z</time></trkpt><trkpt lat="44.79336882878402" lon="6.562354401044339"><ele>1001.0</ele><time>2026-05-01T11:05:04.999Z</time></trkpt><trkpt lat="44.793229299200576" lon="6.56232711614067"><ele>1001.0</ele><time>2026-05-01T11:05:05.999Z</time></trkpt><trkpt lat="44.7930838462143" lon="6.562298819536291"><ele>1001.0</ele><time>2026-05-01T11:05:06.999Z</time></trkpt><trkpt lat="44.79295655649302" lon="6.5622750047002"><ele>1001.0</ele><time>2026-05-01T11:05:07.999Z</time></trkpt><trkpt lat="44.79282814104826" lon="6.56227455359138"><ele>1001.0</ele><time>2026-05-01T11:05:08.999Z</time></trkpt><trkpt lat="44.79268872058161" lon="6.562224894794229"><ele>1001.0</ele><time>2026-05-01T11:05:09.999Z</time></trkpt><trkpt lat="44.79256195769107" lon="6.5622011784908345"><ele>1001.0</ele><time>2026-05-01T11:05:10.999Z</time></trkpt><trkpt lat="44.79243847630787" lon="6.562178076137724"><ele>1000.75</ele><time>2026-05-01T11:05:11.999Z</time></trkpt><trkpt lat="44.792327780073514" lon="6.562180221850634"><ele>1000.5</ele><time>2026-05-01T11:05:12.999Z</time></trkpt><trkpt lat="44.79222599343848" lon="6.562135363074021"><ele>1000.25</ele><time>2026-05-01T11:05:13.999Z</time></trkpt><trkpt lat="44.79210521987743" lon="6.562116668508963"><ele>1000.0</ele><time>2026-05-01T11:05:14.999Z</time></trkpt><trkpt lat="44.79198054359816" lon="6.5621048748698865"><ele>1000.0</ele><time>2026-05-01T11:05:15.999Z</time></trkpt><trkpt lat="44.791852320718256" lon="6.562087199950836"><ele>1000.0</ele><time>2026-05-01T11:05:16.999Z</time></trkpt><trkpt lat="44.79173122763599" lon="6.5620431896452684"><ele>1000.0</ele><time>2026-05-01T11:05:17.999Z</time></trkpt><trkpt lat="44.791606469561565" lon="6.562019188405493"><ele>1000.0</ele><time>2026-05-01T11:05:18.999Z</time></trkpt><trkpt lat="44.79149891611251" lon="6.56195536785727"><ele>996.25</ele><time>2026-05-01T11:05:19.999Z</time></trkpt><trkpt lat="44.79137295473469" lon="6.56192524986951"><ele>992.5</ele><time>2026-05-01T11:05:20.999Z</time></trkpt><trkpt lat="44.791242274449765" lon="6.561898803051056"><ele>988.75</ele><time>2026-05-01T11:05:21.999Z</time></trkpt><trkpt lat="44.79110654856012" lon="6.561882175825167"><ele>985.0</ele><time>2026-05-01T11:05:22.999Z</time></trkpt><trkpt lat="44.79096998018219" lon="6.561865558922799"><ele>983.75</ele><time>2026-05-01T11:05:24Z</time></trkpt><trkpt lat="44.790833244774845" lon="6.5618519821569015"><ele>982.5</ele><time>2026-05-01T11:05:25Z</time></trkpt><trkpt lat="44.79069125906988" lon="6.561813690921626"><ele>981.25</ele><time>2026-05-01T11:05:26Z</time></trkpt><trkpt lat="44.790545234288814" lon="6.561803034652994"><ele>980.0</ele><time>2026-05-01T11:05:27Z</time></trkpt><trkpt lat="44.790414639290816" lon="6.561773018022353"><ele>980.0</ele><time>2026-05-01T11:05:28Z</time></trkpt><trkpt lat="44.79029810183655" lon="6.56168731403641"><ele>980.0</ele><time>2026-05-01T11:05:29Z</time></trkpt><trkpt lat="44.790171133921184" lon="6.56164799768054"><ele>980.0</ele><time>2026-05-01T11:05:30Z</time></trkpt><trkpt lat="44.79003175262298" lon="6.561618742882052"><ele>980.0</ele><time>2026-05-01T11:05:31Z</time></trkpt><trkpt lat="44.78989662798173" lon="6.561597337937962"><ele>979.25</ele><time>2026-05-01T11:05:32Z</time></trkpt><trkpt lat="44.78977225103084" lon="6.561571683678875"><ele>978.5</ele><time>2026-05-01T11:05:33Z</time></trkpt><trkpt lat="44.789651972585595" lon="6.5615455036005805"><ele>977.75</ele><time>2026-05-01T11:05:34Z</time></trkpt><trkpt lat="44.78952269128986" lon="6.561516810929579"><ele>977.0</ele><time>2026-05-01T11:05:35Z</time></trkpt><trkpt lat="44.789396582618565" lon="6.56150504530535"><ele>977.25</ele><time>2026-05-01T11:05:36Z</time></trkpt><trkpt lat="44.789256236999414" lon="6.561491137858205"><ele>977.5</ele><time>2026-05-01T11:05:37Z</time></trkpt><trkpt lat="44.78912159917308" lon="6.561461166471771"><ele>977.75</ele><time>2026-05-01T11:05:38Z</time></trkpt><trkpt lat="44.78899172501989" lon="6.561425570553616"><ele>978.0</ele><time>2026-05-01T11:05:39Z</time></trkpt><trkpt lat="44.788847722261224" lon="6.56139962616982"><ele>978.0</ele><time>2026-05-01T11:05:40Z</time></trkpt><trkpt lat="44.78869843913536" lon="6.561371847550615"><ele>978.0</ele><time>2026-05-01T11:05:41Z</time></trkpt><trkpt lat="44.788540547408395" lon="6.561337209938918"><ele>978.0</ele><time>2026-05-01T11:05:42Z</time></trkpt><trkpt lat="44.78834237246123" lon="6.561305433616793"><ele>978.6666666666667</ele><time>2026-05-01T11:05:43Z</time></trkpt><trkpt lat="44.788121667682326" lon="6.561304760226991"><ele>979.3333333333334</ele><time>2026-05-01T11:05:44Z</time></trkpt><trkpt lat="44.78792165896821" lon="6.561272222746477"><ele>980.0</ele><time>2026-05-01T11:05:45Z</time></trkpt><trkpt lat="44.787729579015185" lon="6.5612312241077"><ele>979.0</ele><time>2026-05-01T11:05:46Z</time></trkpt><trkpt lat="44.78753140459862" lon="6.561195555770755"><ele>978.0</ele><time>2026-05-01T11:05:47Z</time></trkpt><trkpt lat="44.78733098550755" lon="6.561185207764972"><ele>977.0</ele><time>2026-05-01T11:05:48Z</time></trkpt><trkpt lat="44.78713350782126" lon="6.561161083833566"><ele>977.0</ele><time>2026-05-01T11:05:49Z</time></trkpt><trkpt lat="44.7869355265804" lon="6.561128378615848"><ele>977.0</ele><time>2026-05-01T11:05:50Z</time></trkpt><trkpt lat="44.7867394390662" lon="6.561088583049255"><ele>977.0</ele><time>2026-05-01T11:05:51Z</time></trkpt><trkpt lat="44.78654779798571" lon="6.561028940900003"><ele>978.0</ele><time>2026-05-01T11:05:52Z</time></trkpt><trkpt lat="44.78635497087314" lon="6.560990449114743"><ele>979.0</ele><time>2026-05-01T11:05:53Z</time></trkpt><trkpt lat="44.78617751599763" lon="6.560955307645946"><ele>980.0</ele><time>2026-05-01T11:05:54Z</time></trkpt><trkpt lat="44.78600128122625" lon="6.5609204077301095"><ele>983.3333333333334</ele><time>2026-05-01T11:05:55Z</time></trkpt><trkpt lat="44.785842415879024" lon="6.560890670130211"><ele>986.6666666666667</ele><time>2026-05-01T11:05:56Z</time></trkpt><trkpt lat="44.78568453071029" lon="6.560861424505148"><ele>990.0</ele><time>2026-05-01T11:05:57Z</time></trkpt><trkpt lat="44.78553444938187" lon="6.56083375894151"><ele>990.0</ele><time>2026-05-01T11:05:58Z</time></trkpt><trkpt lat="44.78537620407111" lon="6.560804588437417"><ele>990.0</ele><time>2026-05-01T11:05:59Z</time></trkpt><trkpt lat="44.78521917974824" lon="6.560773965921066"><ele>990.0</ele><time>2026-05-01T11:06:00Z</time></trkpt><trkpt lat="44.7850591564954" lon="6.560741832988597"><ele>991.3333333333333</ele><time>2026-05-01T11:06:01Z</time></trkpt><trkpt lat="44.78488397770431" lon="6.560706656814019"><ele>992.6666666666666</ele><time>2026-05-01T11:06:02Z</time></trkpt><trkpt lat="44.78471393849984" lon="6.560674066425081"><ele>994.0</ele><time>2026-05-01T11:06:03Z</time></trkpt><trkpt lat="44.78453403023217" lon="6.560639428757651"><ele>994.0</ele><time>2026-05-01T11:06:04Z</time></trkpt><trkpt lat="44.78435936610759" lon="6.560605515532586"><ele>994.0</ele><time>2026-05-01T11:06:05Z</time></trkpt><trkpt lat="44.784177254987796" lon="6.560578159783039"><ele>994.0</ele><time>2026-05-01T11:06:06Z</time></trkpt><trkpt lat="44.78398290708976" lon="6.560554685471883"><ele>994.0</ele><time>2026-05-01T11:06:07Z</time></trkpt><trkpt lat="44.783785839945885" lon="6.560537707620609"><ele>994.0</ele><time>2026-05-01T11:06:08Z</time></trkpt><trkpt lat="44.78359074558293" lon="6.560529702249303"><ele>994.0</ele><time>2026-05-01T11:06:09Z</time></trkpt><trkpt lat="44.7833994382975" lon="6.560532231344294"><ele>994.0</ele><time>2026-05-01T11:06:10Z</time></trkpt><trkpt lat="44.78320426313834" lon="6.560548701975808"><ele>994.0</ele><time>2026-05-01T11:06:11Z</time></trkpt><trkpt lat="44.78301982729434" lon="6.560569564362299"><ele>994.0</ele><time>2026-05-01T11:06:12Z</time></trkpt><trkpt lat="44.78283899848119" lon="6.560600664739277"><ele>992.0</ele><time>2026-05-01T11:06:13Z</time></trkpt><trkpt lat="44.782671395135885" lon="6.560657667282034"><ele>990.0</ele><time>2026-05-01T11:06:14Z</time></trkpt><trkpt lat="44.78249600425599" lon="6.560675853766173"><ele>988.0</ele><time>2026-05-01T11:06:15Z</time></trkpt><trkpt lat="44.78230268544234" lon="6.560735533440266"><ele>988.0</ele><time>2026-05-01T11:06:16Z</time></trkpt><trkpt lat="44.782110240804414" lon="6.560795132099036"><ele>988.0</ele><time>2026-05-01T11:06:17Z</time></trkpt><trkpt lat="44.781921377359694" lon="6.560879797183405"><ele>988.0</ele><time>2026-05-01T11:06:18Z</time></trkpt><trkpt lat="44.78173939039429" lon="6.560949923034429"><ele>984.6666666666666</ele><time>2026-05-01T11:06:19Z</time></trkpt><trkpt lat="44.78154841214952" lon="6.560998928229604"><ele>981.3333333333333</ele><time>2026-05-01T11:06:20Z</time></trkpt><trkpt lat="44.78137639129587" lon="6.5610590543185126"><ele>978.0</ele><time>2026-05-01T11:06:21Z</time></trkpt><trkpt lat="44.781187326669965" lon="6.561109136082587"><ele>975.6666666666667</ele><time>2026-05-01T11:06:22Z</time></trkpt><trkpt lat="44.7809821704104" lon="6.561121211157708"><ele>973.3333333333334</ele><time>2026-05-01T11:06:23Z</time></trkpt><trkpt lat="44.780765869354546" lon="6.561110910190579"><ele>971.0</ele><time>2026-05-01T11:06:24Z</time></trkpt><trkpt lat="44.78056522099939" lon="6.561096525604085"><ele>971.0</ele><time>2026-05-01T11:06:25Z</time></trkpt><trkpt lat="44.78036545600338" lon="6.561062657724618"><ele>971.0</ele><time>2026-05-01T11:06:26Z</time></trkpt><trkpt lat="44.78018961971114" lon="6.561010054545199"><ele>971.0</ele><time>2026-05-01T11:06:27Z</time></trkpt><trkpt lat="44.780002289889495" lon="6.560952184399009"><ele>972.3333333333334</ele><time>2026-05-01T11:06:28Z</time></trkpt><trkpt lat="44.77981417100289" lon="6.560896818852048"><ele>973.6666666666667</ele><time>2026-05-01T11:06:29Z</time></trkpt><trkpt lat="44.77962266017756" lon="6.560831293675147"><ele>975.0</ele><time>2026-05-01T11:06:30Z</time></trkpt><trkpt lat="44.77942903902996" lon="6.560766793148959"><ele>976.6666666666667</ele><time>2026-05-01T11:06:31Z</time></trkpt><trkpt lat="44.77924043635985" lon="6.560669864329252"><ele>978.3333333333334</ele><time>2026-05-01T11:06:32Z</time></trkpt><trkpt lat="44.77904353435537" lon="6.56058865500814"><ele>980.0</ele><time>2026-05-01T11:06:33Z</time></trkpt><trkpt lat="44.77885033734874" lon="6.560506014471363"><ele>980.0</ele><time>2026-05-01T11:06:34Z</time></trkpt><trkpt lat="44.77864830831455" lon="6.560418538846533"><ele>980.0</ele><time>2026-05-01T11:06:35Z</time></trkpt><trkpt lat="44.77844057609902" lon="6.5603510188103025"><ele>980.0</ele><time>2026-05-01T11:06:36Z</time></trkpt><trkpt lat="44.7782383322394" lon="6.560269561571623"><ele>974.6666666666667</ele><time>2026-05-01T11:06:37Z</time></trkpt><trkpt lat="44.778047629256946" lon="6.560172566946364"><ele>969.3333333333333</ele><time>2026-05-01T11:06:38Z</time></trkpt><trkpt lat="44.77784624727775" lon="6.560103080067335"><ele>964.0</ele><time>2026-05-01T11:06:39Z</time></trkpt><trkpt lat="44.777647943622654" lon="6.560055456851495"><ele>964.0</ele><time>2026-05-01T11:06:40Z</time></trkpt><trkpt lat="44.77746326503611" lon="6.560029821773958"><ele>964.0</ele><time>2026-05-01T11:06:41Z</time></trkpt><trkpt lat="44.777276562138546" lon="6.560001503954008"><ele>964.0</ele><time>2026-05-01T11:06:42Z</time></trkpt><trkpt lat="44.777101596052496" lon="6.5599834452985"><ele>964.0</ele><time>2026-05-01T11:06:43Z</time></trkpt><trkpt lat="44.776921094342164" lon="6.5599385058688"><ele>964.0</ele><time>2026-05-01T11:06:44Z</time></trkpt><trkpt lat="44.77674758671008" lon="6.559927815003337"><ele>964.0</ele><time>2026-05-01T11:06:45Z</time></trkpt><trkpt lat="44.77655846769282" lon="6.559899919669663"><ele>963.0</ele><time>2026-05-01T11:06:46Z</time></trkpt><trkpt lat="44.77636092979251" lon="6.559871976505896"><ele>962.0</ele><time>2026-05-01T11:06:47Z</time></trkpt><trkpt lat="44.77616008678428" lon="6.559823370211855"><ele>961.0</ele><time>2026-05-01T11:06:48Z</time></trkpt><trkpt lat="44.77595311243173" lon="6.559797231942297"><ele>964.6666666666666</ele><time>2026-05-01T11:06:49Z</time></trkpt><trkpt lat="44.77574053381981" lon="6.559779499761235"><ele>968.3333333333333</ele><time>2026-05-01T11:06:50Z</time></trkpt><trkpt lat="44.77551950116812" lon="6.55978223792292"><ele>972.0</ele><time>2026-05-01T11:06:51Z</time></trkpt><trkpt lat="44.77529316835035" lon="6.559770478021143"><ele>974.0</ele><time>2026-05-01T11:06:52Z</time></trkpt><trkpt lat="44.775072941034296" lon="6.559779716162762"><ele>976.0</ele><time>2026-05-01T11:06:53Z</time></trkpt><trkpt lat="44.77483912070554" lon="6.5597957557022095"><ele>976.0</ele><time>2026-05-01T11:06:54Z</time></trkpt><trkpt lat="44.77459260617224" lon="6.559836233786633"><ele>976.0</ele><time>2026-05-01T11:06:55Z</time></trkpt><trkpt lat="44.77433519021927" lon="6.559925785691399"><ele>972.5</ele><time>2026-05-01T11:06:56Z</time></trkpt><trkpt lat="44.774103591752386" lon="6.559948084214685"><ele>969.0</ele><time>2026-05-01T11:06:57Z</time></trkpt><trkpt lat="44.77387228119079" lon="6.559989980320856"><ele>969.0</ele><time>2026-05-01T11:06:58Z</time></trkpt><trkpt lat="44.7736564474196" lon="6.56002907317801"><ele>969.0</ele><time>2026-05-01T11:06:59Z</time></trkpt><trkpt lat="44.77345591723036" lon="6.560065394192235"><ele>969.0</ele><time>2026-05-01T11:07:00Z</time></trkpt><trkpt lat="44.77325164867614" lon="6.560102392313415"><ele>966.0</ele><time>2026-05-01T11:07:01Z</time></trkpt><trkpt lat="44.77304271236877" lon="6.56014058992616"><ele>963.0</ele><time>2026-05-01T11:07:02Z</time></trkpt><trkpt lat="44.77287715410555" lon="6.560186770609992"><ele>960.0</ele><time>2026-05-01T11:07:03Z</time></trkpt><trkpt lat="44.77268493310295" lon="6.560251865932198"><ele>959.0</ele><time>2026-05-01T11:07:04Z</time></trkpt><trkpt lat="44.772514582618264" lon="6.560303360057089"><ele>958.0</ele><time>2026-05-01T11:07:05Z</time></trkpt><trkpt lat="44.77234914757857" lon="6.560367801335522"><ele>957.0</ele><time>2026-05-01T11:07:06Z</time></trkpt><trkpt lat="44.772197702426155" lon="6.560456837302074"><ele>957.0</ele><time>2026-05-01T11:07:07Z</time></trkpt><trkpt lat="44.77202955025213" lon="6.560576391893527"><ele>957.0</ele><time>2026-05-01T11:07:08Z</time></trkpt><trkpt lat="44.771866360203106" lon="6.5607062640730245"><ele>957.0</ele><time>2026-05-01T11:07:09Z</time></trkpt><trkpt lat="44.77168525679503" lon="6.560869176327439"><ele>957.0</ele><time>2026-05-01T11:07:10Z</time></trkpt><trkpt lat="44.771523863025074" lon="6.561022087397166"><ele>957.0</ele><time>2026-05-01T11:07:11Z</time></trkpt><trkpt lat="44.77135979450326" lon="6.561170369500443"><ele>957.0</ele><time>2026-05-01T11:07:12Z</time></trkpt><trkpt lat="44.77119435423877" lon="6.561297691197127"><ele>960.0</ele><time>2026-05-01T11:07:13Z</time></trkpt><trkpt lat="44.77102389480766" lon="6.561420672893164"><ele>963.0</ele><time>2026-05-01T11:07:14Z</time></trkpt><trkpt lat="44.77085278073645" lon="6.56154196392833"><ele>966.0</ele><time>2026-05-01T11:07:15Z</time></trkpt><trkpt lat="44.77068634572372" lon="6.561657787237241"><ele>966.0</ele><time>2026-05-01T11:07:16Z</time></trkpt><trkpt lat="44.77050217787668" lon="6.561785950798964"><ele>966.0</ele><time>2026-05-01T11:07:17Z</time></trkpt><trkpt lat="44.77031606122509" lon="6.561915470607752"><ele>966.0</ele><time>2026-05-01T11:07:18Z</time></trkpt><trkpt lat="44.77012998923106" lon="6.562044959313486"><ele>966.6666666666667</ele><time>2026-05-01T11:07:19Z</time></trkpt><trkpt lat="44.769955868077524" lon="6.562166128329455"><ele>967.3333333333334</ele><time>2026-05-01T11:07:20Z</time></trkpt><trkpt lat="44.76977475437581" lon="6.5622921633861075"><ele>968.0</ele><time>2026-05-01T11:07:21Z</time></trkpt><trkpt lat="44.76960240786562" lon="6.562458927681277"><ele>968.0</ele><time>2026-05-01T11:07:22Z</time></trkpt><trkpt lat="44.76941806479667" lon="6.562576525606005"><ele>968.0</ele><time>2026-05-01T11:07:23Z</time></trkpt><trkpt lat="44.769246890904" lon="6.5627108335313595"><ele>968.0</ele><time>2026-05-01T11:07:24Z</time></trkpt><trkpt lat="44.7690688544029" lon="6.56285869821664"><ele>969.3333333333334</ele><time>2026-05-01T11:07:25Z</time></trkpt><trkpt lat="44.76889925591686" lon="6.562981333532657"><ele>970.6666666666667</ele><time>2026-05-01T11:07:26Z</time></trkpt><trkpt lat="44.768728764754655" lon="6.5630946269988515"><ele>972.0</ele><time>2026-05-01T11:07:27Z</time></trkpt><trkpt lat="44.76855810140569" lon="6.563199840421986"><ele>967.6666666666667</ele><time>2026-05-01T11:07:28Z</time></trkpt><trkpt lat="44.76839923731005" lon="6.563330660325737"><ele>963.3333333333334</ele><time>2026-05-01T11:07:29Z</time></trkpt><trkpt lat="44.768211165045095" lon="6.563462923340079"><ele>959.0</ele><time>2026-05-01T11:07:30Z</time></trkpt><trkpt lat="44.76803752394698" lon="6.563622493189558"><ele>957.3333333333334</ele><time>2026-05-01T11:07:31Z</time></trkpt><trkpt lat="44.767854323562844" lon="6.563798976042089"><ele>955.6666666666667</ele><time>2026-05-01T11:07:32Z</time></trkpt><trkpt lat="44.76767775521453" lon="6.563968784797717"><ele>954.0</ele><time>2026-05-01T11:07:33Z</time></trkpt><trkpt lat="44.76749602662323" lon="6.564146362249505"><ele>954.0</ele><time>2026-05-01T11:07:34Z</time></trkpt><trkpt lat="44.767319893078714" lon="6.564336558764432"><ele>954.0</ele><time>2026-05-01T11:07:35Z</time></trkpt><trkpt lat="44.767147738442844" lon="6.564517290463043"><ele>954.0</ele><time>2026-05-01T11:07:36Z</time></trkpt><trkpt lat="44.76696625398332" lon="6.564710706749969"><ele>954.0</ele><time>2026-05-01T11:07:37Z</time></trkpt><trkpt lat="44.76678180226141" lon="6.564918351305984"><ele>954.0</ele><time>2026-05-01T11:07:38Z</time></trkpt><trkpt lat="44.766603338837335" lon="6.565104827046998"><ele>954.0</ele><time>2026-05-01T11:07:39Z</time></trkpt><trkpt lat="44.76639852797378" lon="6.565261756597375"><ele>954.0</ele><time>2026-05-01T11:07:40Z</time></trkpt><trkpt lat="44.76621689310425" lon="6.565450277965588"><ele>953.6666666666667</ele><time>2026-05-01T11:07:41Z</time></trkpt><trkpt lat="44.766055207813515" lon="6.565633090509546"><ele>953.3333333333334</ele><time>2026-05-01T11:07:42Z</time></trkpt><trkpt lat="44.76589108362588" lon="6.565805048758912"><ele>953.0</ele><time>2026-05-01T11:07:43Z</time></trkpt><trkpt lat="44.76572817088565" lon="6.565994413469378"><ele>953.0</ele><time>2026-05-01T11:07:44Z</time></trkpt><trkpt lat="44.765562660894446" lon="6.566181917799221"><ele>953.0</ele><time>2026-05-01T11:07:45Z</time></trkpt><trkpt lat="44.76539189815944" lon="6.566380025237999"><ele>953.0</ele><time>2026-05-01T11:07:46Z</time></trkpt><trkpt lat="44.76521992339345" lon="6.566577949316003"><ele>952.6666666666667</ele><time>2026-05-01T11:07:47Z</time></trkpt><trkpt lat="44.76506031518582" lon="6.566757797943295"><ele>952.3333333333333</ele><time>2026-05-01T11:07:48Z</time></trkpt><trkpt lat="44.76488960262855" lon="6.566937579774071"><ele>952.0</ele><time>2026-05-01T11:07:49Z</time></trkpt><trkpt lat="44.76472399660851" lon="6.567110535406118"><ele>951.0</ele><time>2026-05-01T11:07:50Z</time></trkpt><trkpt lat="44.76456383514001" lon="6.567266313954484"><ele>950.0</ele><time>2026-05-01T11:07:51Z</time></trkpt><trkpt lat="44.76439961250722" lon="6.567422560533786"><ele>949.0</ele><time>2026-05-01T11:07:52Z</time></trkpt><trkpt lat="44.76422897099342" lon="6.567582241997291"><ele>949.0</ele><time>2026-05-01T11:07:53Z</time></trkpt><trkpt lat="44.76406717967868" lon="6.5677452035057255"><ele>949.0</ele><time>2026-05-01T11:07:54Z</time></trkpt><trkpt lat="44.76390148208702" lon="6.567921307985661"><ele>949.0</ele><time>2026-05-01T11:07:55Z</time></trkpt><trkpt lat="44.76372947262776" lon="6.568096175124611"><ele>949.0</ele><time>2026-05-01T11:07:56Z</time></trkpt><trkpt lat="44.76356534085679" lon="6.568274602306627"><ele>949.0</ele><time>2026-05-01T11:07:57Z</time></trkpt><trkpt lat="44.76339249351742" lon="6.56845796456072"><ele>949.0</ele><time>2026-05-01T11:07:58Z</time></trkpt><trkpt lat="44.763230074994816" lon="6.568640667178648"><ele>948.0</ele><time>2026-05-01T11:07:59Z</time></trkpt><trkpt lat="44.76305223906211" lon="6.568835482371376"><ele>947.0</ele><time>2026-05-01T11:08:00Z</time></trkpt><trkpt lat="44.762865055721235" lon="6.569014277013334"><ele>947.0</ele><time>2026-05-01T11:08:01Z</time></trkpt><trkpt lat="44.76268605275194" lon="6.569191302650787"><ele>947.0</ele><time>2026-05-01T11:08:02Z</time></trkpt><trkpt lat="44.762495040114935" lon="6.569377069431207"><ele>946.3333333333334</ele><time>2026-05-01T11:08:03Z</time></trkpt><trkpt lat="44.762318909470366" lon="6.569562530014845"><ele>945.6666666666667</ele><time>2026-05-01T11:08:04Z</time></trkpt><trkpt lat="44.76214996665122" lon="6.569745894317374"><ele>945.0</ele><time>2026-05-01T11:08:05Z</time></trkpt><trkpt lat="44.76197829676366" lon="6.569923644096681"><ele>945.0</ele><time>2026-05-01T11:08:06Z</time></trkpt><trkpt lat="44.76180791338252" lon="6.570100629577899"><ele>945.0</ele><time>2026-05-01T11:08:07Z</time></trkpt><trkpt lat="44.761636642949604" lon="6.570265700814193"><ele>945.0</ele><time>2026-05-01T11:08:08Z</time></trkpt><trkpt lat="44.76145226786332" lon="6.570439462006752"><ele>945.0</ele><time>2026-05-01T11:08:09Z</time></trkpt><trkpt lat="44.761283766148956" lon="6.570608734773485"><ele>945.0</ele><time>2026-05-01T11:08:10Z</time></trkpt><trkpt lat="44.761123862277145" lon="6.570774036648788"><ele>945.0</ele><time>2026-05-01T11:08:11Z</time></trkpt><trkpt lat="44.76096063335161" lon="6.570943178181414"><ele>945.3333333333333</ele><time>2026-05-01T11:08:12Z</time></trkpt><trkpt lat="44.76080530825913" lon="6.571117077402375"><ele>945.6666666666666</ele><time>2026-05-01T11:08:13Z</time></trkpt><trkpt lat="44.760658352092996" lon="6.571274808457102"><ele>946.0</ele><time>2026-05-01T11:08:14Z</time></trkpt><trkpt lat="44.7604946102176" lon="6.571444847528191"><ele>946.3333333333333</ele><time>2026-05-01T11:08:15Z</time></trkpt><trkpt lat="44.76032790822003" lon="6.571594201521333"><ele>946.6666666666667</ele><time>2026-05-01T11:08:16Z</time></trkpt><trkpt lat="44.76016526408908" lon="6.57175573095472"><ele>947.0</ele><time>2026-05-01T11:08:17Z</time></trkpt><trkpt lat="44.76000863551741" lon="6.571936063147402"><ele>948.0</ele><time>2026-05-01T11:08:18Z</time></trkpt><trkpt lat="44.75983362821092" lon="6.57209823873752"><ele>949.0</ele><time>2026-05-01T11:08:19Z</time></trkpt><trkpt lat="44.75965560464058" lon="6.57226152079897"><ele>950.0</ele><time>2026-05-01T11:08:20Z</time></trkpt><trkpt lat="44.7594754363205" lon="6.572410926922706"><ele>949.3333333333334</ele><time>2026-05-01T11:08:21Z</time></trkpt><trkpt lat="44.75928440183083" lon="6.572560308696729"><ele>948.6666666666667</ele><time>2026-05-01T11:08:22Z</time></trkpt><trkpt lat="44.75907592141054" lon="6.572681627620455"><ele>948.0</ele><time>2026-05-01T11:08:23Z</time></trkpt><trkpt lat="44.75887698980664" lon="6.572817230264211"><ele>948.3333333333333</ele><time>2026-05-01T11:08:24Z</time></trkpt><trkpt lat="44.7586852084188" lon="6.572935745961804"><ele>948.6666666666666</ele><time>2026-05-01T11:08:25Z</time></trkpt><trkpt lat="44.75849563769313" lon="6.573033773597792"><ele>949.0</ele><time>2026-05-01T11:08:26Z</time></trkpt><trkpt lat="44.75830812752513" lon="6.5731413515203005"><ele>947.3333333333333</ele><time>2026-05-01T11:08:27Z</time></trkpt><trkpt lat="44.75813133616259" lon="6.573250492135053"><ele>945.6666666666667</ele><time>2026-05-01T11:08:28Z</time></trkpt><trkpt lat="44.75794781640808" lon="6.57337111566175"><ele>944.0</ele><time>2026-05-01T11:08:29Z</time></trkpt><trkpt lat="44.757763702811985" lon="6.5734751114886985"><ele>944.3333333333334</ele><time>2026-05-01T11:08:30Z</time></trkpt><trkpt lat="44.757569774964544" lon="6.573600429507405"><ele>944.6666666666667</ele><time>2026-05-01T11:08:31Z</time></trkpt><trkpt lat="44.75737770732604" lon="6.573724105422377"><ele>945.0</ele><time>2026-05-01T11:08:32Z</time></trkpt><trkpt lat="44.75719277979293" lon="6.573842175320772"><ele>945.0</ele><time>2026-05-01T11:08:33Z</time></trkpt><trkpt lat="44.75700263940908" lon="6.573954925003419"><ele>945.0</ele><time>2026-05-01T11:08:34Z</time></trkpt><trkpt lat="44.75681359561455" lon="6.574069922478603"><ele>945.0</ele><time>2026-05-01T11:08:35Z</time></trkpt><trkpt lat="44.75662286809687" lon="6.574181750312956"><ele>944.6666666666667</ele><time>2026-05-01T11:08:36Z</time></trkpt><trkpt lat="44.75643527835251" lon="6.574313547930519"><ele>944.3333333333334</ele><time>2026-05-01T11:08:37Z</time></trkpt><trkpt lat="44.756254397209915" lon="6.574440999699937"><ele>944.0</ele><time>2026-05-01T11:08:38Z</time></trkpt><trkpt lat="44.75606016407869" lon="6.5745595800983185"><ele>943.0</ele><time>2026-05-01T11:08:39Z</time></trkpt><trkpt lat="44.75587129902768" lon="6.574677222775674"><ele>942.0</ele><time>2026-05-01T11:08:40Z</time></trkpt><trkpt lat="44.755692386677055" lon="6.5748057616581566"><ele>941.0</ele><time>2026-05-01T11:08:41Z</time></trkpt><trkpt lat="44.75549937560344" lon="6.574920442074936"><ele>941.0</ele><time>2026-05-01T11:08:42Z</time></trkpt><trkpt lat="44.75530487431657" lon="6.575047654299598"><ele>941.0</ele><time>2026-05-01T11:08:43Z</time></trkpt><trkpt lat="44.755096409519275" lon="6.575165368753743"><ele>941.0</ele><time>2026-05-01T11:08:44Z</time></trkpt><trkpt lat="44.754894836944025" lon="6.575293547217638"><ele>940.3333333333334</ele><time>2026-05-01T11:08:45Z</time></trkpt><trkpt lat="44.75469768506465" lon="6.575412152943452"><ele>939.6666666666667</ele><time>2026-05-01T11:08:46Z</time></trkpt><trkpt lat="44.754506110011825" lon="6.575545770803343"><ele>939.0</ele><time>2026-05-01T11:08:47Z</time></trkpt><trkpt lat="44.75433185258494" lon="6.575684708334255"><ele>939.0</ele><time>2026-05-01T11:08:48Z</time></trkpt><trkpt lat="44.754169680062994" lon="6.575805039947734"><ele>939.0</ele><time>2026-05-01T11:08:49Z</time></trkpt><trkpt lat="44.75400638957246" lon="6.575913683780471"><ele>939.0</ele><time>2026-05-01T11:08:50Z</time></trkpt><trkpt lat="44.75384382637017" lon="6.5760214070998595"><ele>939.0</ele><time>2026-05-01T11:08:51Z</time></trkpt><trkpt lat="44.753678152720454" lon="6.576132241295598"><ele>939.0</ele><time>2026-05-01T11:08:52Z</time></trkpt><trkpt lat="44.75352354527954" lon="6.576214404061269"><ele>939.0</ele><time>2026-05-01T11:08:53Z</time></trkpt><trkpt lat="44.75336426669316" lon="6.576320349356533"><ele>938.6666666666667</ele><time>2026-05-01T11:08:54Z</time></trkpt><trkpt lat="44.753203553885974" lon="6.576430543549492"><ele>938.3333333333334</ele><time>2026-05-01T11:08:55Z</time></trkpt><trkpt lat="44.7530576424135" lon="6.576553592714818"><ele>938.0</ele><time>2026-05-01T11:08:56Z</time></trkpt><trkpt lat="44.75290175941581" lon="6.576649930381652"><ele>938.0</ele><time>2026-05-01T11:08:57Z</time></trkpt><trkpt lat="44.75275875319506" lon="6.5767388531647075"><ele>938.0</ele><time>2026-05-01T11:08:58Z</time></trkpt><trkpt lat="44.75260977816343" lon="6.576839528938511"><ele>938.0</ele><time>2026-05-01T11:08:59Z</time></trkpt><trkpt lat="44.7524596270158" lon="6.5769404415015895"><ele>937.6666666666667</ele><time>2026-05-01T11:09:00Z</time></trkpt><trkpt lat="44.752300192763116" lon="6.577014804575762"><ele>937.3333333333333</ele><time>2026-05-01T11:09:01Z</time></trkpt><trkpt lat="44.752144315625884" lon="6.577120143915582"><ele>937.0</ele><time>2026-05-01T11:09:02Z</time></trkpt><trkpt lat="44.75199933805757" lon="6.577223319033979"><ele>937.3333333333333</ele><time>2026-05-01T11:09:03Z</time></trkpt><trkpt lat="44.75186038981157" lon="6.577321790502565"><ele>937.6666666666667</ele><time>2026-05-01T11:09:04Z</time></trkpt><trkpt lat="44.751711251230624" lon="6.5774168124488535"><ele>938.0</ele><time>2026-05-01T11:09:05Z</time></trkpt><trkpt lat="44.75156662417555" lon="6.577532880584504"><ele>938.0</ele><time>2026-05-01T11:09:06Z</time></trkpt><trkpt lat="44.75141765506046" lon="6.577613035921701"><ele>938.0</ele><time>2026-05-01T11:09:07Z</time></trkpt><trkpt lat="44.751280738189585" lon="6.57773015196741"><ele>938.0</ele><time>2026-05-01T11:09:08Z</time></trkpt><trkpt lat="44.75113436744537" lon="6.577803358721723"><ele>940.0</ele><time>2026-05-01T11:09:09Z</time></trkpt><trkpt lat="44.7510043232876" lon="6.5778898769838134"><ele>942.0</ele><time>2026-05-01T11:09:10Z</time></trkpt><trkpt lat="44.7508740320534" lon="6.577976559138639"><ele>944.0</ele><time>2026-05-01T11:09:11Z</time></trkpt><trkpt lat="44.75075711852376" lon="6.578052192969239"><ele>946.0</ele><time>2026-05-01T11:09:12Z</time></trkpt><trkpt lat="44.750656001774075" lon="6.578118279629081"><ele>946.0</ele><time>2026-05-01T11:09:13Z</time></trkpt><trkpt lat="44.75055086574218" lon="6.578203626929408"><ele>946.0</ele><time>2026-05-01T11:09:14Z</time></trkpt><trkpt lat="44.75042707945325" lon="6.5782851465093986"><ele>946.0</ele><time>2026-05-01T11:09:15Z</time></trkpt><trkpt lat="44.75029556125315" lon="6.578319188737978"><ele>946.0</ele><time>2026-05-01T11:09:16Z</time></trkpt><trkpt lat="44.750180911685156" lon="6.578414074384904"><ele>946.25</ele><time>2026-05-01T11:09:17Z</time></trkpt><trkpt lat="44.75005515675658" lon="6.578486008975878"><ele>946.5</ele><time>2026-05-01T11:09:18Z</time></trkpt><trkpt lat="44.749928177718246" lon="6.578555675709368"><ele>946.75</ele><time>2026-05-01T11:09:19Z</time></trkpt><trkpt lat="44.74979633722232" lon="6.578646349880332"><ele>947.0</ele><time>2026-05-01T11:09:20Z</time></trkpt><trkpt lat="44.74967745824024" lon="6.578725167231635"><ele>947.0</ele><time>2026-05-01T11:09:21Z</time></trkpt><trkpt lat="44.749562244260176" lon="6.57878624737401"><ele>947.0</ele><time>2026-05-01T11:09:22Z</time></trkpt><trkpt lat="44.749449417444914" lon="6.578860168255631"><ele>947.0</ele><time>2026-05-01T11:09:23Z</time></trkpt><trkpt lat="44.749333139578546" lon="6.57893630013639"><ele>947.0</ele><time>2026-05-01T11:09:24Z</time></trkpt><trkpt lat="44.749227016701276" lon="6.579017884770008"><ele>946.5</ele><time>2026-05-01T11:09:25Z</time></trkpt><trkpt lat="44.74913823149317" lon="6.579073697130003"><ele>946.0</ele><time>2026-05-01T11:09:26Z</time></trkpt><trkpt lat="44.74903756658732" lon="6.57915575957309"><ele>945.5</ele><time>2026-05-01T11:09:27Z</time></trkpt><trkpt lat="44.748924819737105" lon="6.579232954634596"><ele>945.0</ele><time>2026-05-01T11:09:28Z</time></trkpt><trkpt lat="44.74882660864343" lon="6.579307767404193"><ele>945.0</ele><time>2026-05-01T11:09:29Z</time></trkpt><trkpt lat="44.74872492705189" lon="6.579309049558223"><ele>945.0</ele><time>2026-05-01T11:09:30Z</time></trkpt><trkpt lat="44.74863387346293" lon="6.579359911585043"><ele>945.0</ele><time>2026-05-01T11:09:31Z</time></trkpt><trkpt lat="44.748567899579584" lon="6.57941193028846"><ele>945.0</ele><time>2026-05-01T11:09:32Z</time></trkpt><trkpt lat="44.74851392490347" lon="6.579457770502757"><ele>945.0</ele><time>2026-05-01T11:09:33Z</time></trkpt><trkpt lat="44.74840520219857" lon="6.579543540277266"><ele>945.5</ele><time>2026-05-01T11:09:35Z</time></trkpt><trkpt lat="44.74829029959823" lon="6.5795682181429775"><ele>946.0</ele><time>2026-05-01T11:09:37Z</time></trkpt><trkpt lat="44.74822500396687" lon="6.579578945046963"><ele>946.5</ele><time>2026-05-01T11:09:38Z</time></trkpt><trkpt lat="44.748146185977006" lon="6.579592022070064"><ele>947.0</ele><time>2026-05-01T11:09:39Z</time></trkpt><trkpt lat="44.74807935356556" lon="6.57960311051871"><ele>947.5</ele><time>2026-05-01T11:09:40Z</time></trkpt><trkpt lat="44.748008382546864" lon="6.579641958256914"><ele>948.0</ele><time>2026-05-01T11:09:41Z</time></trkpt><trkpt lat="44.747934970820715" lon="6.579697414436917"><ele>948.0</ele><time>2026-05-01T11:09:42Z</time></trkpt><trkpt lat="44.747823130145576" lon="6.579811223610134"><ele>948.0</ele><time>2026-05-01T11:09:44Z</time></trkpt><trkpt lat="44.747727769347435" lon="6.57987422640822"><ele>948.0</ele><time>2026-05-01T11:09:45Z</time></trkpt><trkpt lat="44.74764637614771" lon="6.579958460791338"><ele>948.0</ele><time>2026-05-01T11:09:46Z</time></trkpt><trkpt lat="44.747549922044165" lon="6.579975452025642"><ele>948.0</ele><time>2026-05-01T11:09:47Z</time></trkpt><trkpt lat="44.74744880267546" lon="6.580056315844458"><ele>947.0</ele><time>2026-05-01T11:09:48Z</time></trkpt><trkpt lat="44.74735552254097" lon="6.580163549783345"><ele>946.0</ele><time>2026-05-01T11:09:49Z</time></trkpt><trkpt lat="44.7472566347932" lon="6.580232186728034"><ele>945.0</ele><time>2026-05-01T11:09:50Z</time></trkpt><trkpt lat="44.747148984506644" lon="6.580277403877348"><ele>944.0</ele><time>2026-05-01T11:09:51Z</time></trkpt><trkpt lat="44.747036305429845" lon="6.580324582534251"><ele>944.2</ele><time>2026-05-01T11:09:52Z</time></trkpt><trkpt lat="44.74693819891657" lon="6.580363760647465"><ele>944.4000000000001</ele><time>2026-05-01T11:09:53Z</time></trkpt><trkpt lat="44.74682936102749" lon="6.5804256035539765"><ele>944.6</ele><time>2026-05-01T11:09:54Z</time></trkpt><trkpt lat="44.746725463460095" lon="6.580490470713223"><ele>944.8</ele><time>2026-05-01T11:09:55Z</time></trkpt><trkpt lat="44.74662843403727" lon="6.5805170977145515"><ele>945.0</ele><time>2026-05-01T11:09:56Z</time></trkpt><trkpt lat="44.74653398236965" lon="6.580570795790191"><ele>945.0</ele><time>2026-05-01T11:09:57Z</time></trkpt><trkpt lat="44.746417888489965" lon="6.580621800939463"><ele>945.0</ele><time>2026-05-01T11:09:58Z</time></trkpt><trkpt lat="44.746293802088694" lon="6.580673909871232"><ele>945.0</ele><time>2026-05-01T11:09:59Z</time></trkpt><trkpt lat="44.74615711507837" lon="6.580756781801676"><ele>945.0</ele><time>2026-05-01T11:10:00Z</time></trkpt><trkpt lat="44.74605557291772" lon="6.580843401237924"><ele>945.5</ele><time>2026-05-01T11:10:01Z</time></trkpt><trkpt lat="44.74595035498517" lon="6.5809526942620185"><ele>946.0</ele><time>2026-05-01T11:10:02Z</time></trkpt><trkpt lat="44.74584579968944" lon="6.581052498329039"><ele>946.5</ele><time>2026-05-01T11:10:03Z</time></trkpt><trkpt lat="44.74575294500817" lon="6.58115270880082"><ele>947.0</ele><time>2026-05-01T11:10:04Z</time></trkpt><trkpt lat="44.74564811896137" lon="6.5812423214362505"><ele>947.0</ele><time>2026-05-01T11:10:05Z</time></trkpt><trkpt lat="44.74553557937051" lon="6.5813331363621455"><ele>947.0</ele><time>2026-05-01T11:10:06Z</time></trkpt><trkpt lat="44.74541633821117" lon="6.581405104384721"><ele>947.0</ele><time>2026-05-01T11:10:07Z</time></trkpt><trkpt lat="44.74531419738599" lon="6.581475965051318"><ele>947.0</ele><time>2026-05-01T11:10:08Z</time></trkpt><trkpt lat="44.7452031997263" lon="6.581540188793409"><ele>947.75</ele><time>2026-05-01T11:10:09Z</time></trkpt><trkpt lat="44.745094311237324" lon="6.5815469967395295"><ele>948.5</ele><time>2026-05-01T11:10:10Z</time></trkpt><trkpt lat="44.744995838639156" lon="6.5816133599019295"><ele>949.25</ele><time>2026-05-01T11:10:11Z</time></trkpt><trkpt lat="44.74489459243229" lon="6.581690684595157"><ele>950.0</ele><time>2026-05-01T11:10:12Z</time></trkpt><trkpt lat="44.74477750083334" lon="6.581778545226575"><ele>950.0</ele><time>2026-05-01T11:10:13Z</time></trkpt><trkpt lat="44.74465534782837" lon="6.58188795334462"><ele>950.0</ele><time>2026-05-01T11:10:14Z</time></trkpt><trkpt lat="44.7445328127495" lon="6.581980936255622"><ele>950.0</ele><time>2026-05-01T11:10:15Z</time></trkpt><trkpt lat="44.744418785298876" lon="6.582083030858777"><ele>950.0</ele><time>2026-05-01T11:10:16Z</time></trkpt><trkpt lat="44.744298856034234" lon="6.582170693033999"><ele>951.5</ele><time>2026-05-01T11:10:17Z</time></trkpt><trkpt lat="44.74417794971934" lon="6.5822518035186555"><ele>953.0</ele><time>2026-05-01T11:10:18Z</time></trkpt><trkpt lat="44.74403559341554" lon="6.582297527671044"><ele>954.5</ele><time>2026-05-01T11:10:19Z</time></trkpt><trkpt lat="44.74390526596039" lon="6.582325437434538"><ele>956.0</ele><time>2026-05-01T11:10:20Z</time></trkpt><trkpt lat="44.74377318830804" lon="6.582350478535045"><ele>956.0</ele><time>2026-05-01T11:10:21Z</time></trkpt><trkpt lat="44.743650874096105" lon="6.5823719383845765"><ele>956.0</ele><time>2026-05-01T11:10:22Z</time></trkpt><trkpt lat="44.7435167915297" lon="6.582374226656421"><ele>956.0</ele><time>2026-05-01T11:10:23Z</time></trkpt><trkpt lat="44.743403550090726" lon="6.582357771699921"><ele>956.0</ele><time>2026-05-01T11:10:24Z</time></trkpt><trkpt lat="44.743266900804834" lon="6.58239157419236"><ele>955.5</ele><time>2026-05-01T11:10:25Z</time></trkpt><trkpt lat="44.743129161718755" lon="6.582407591245914"><ele>955.0</ele><time>2026-05-01T11:10:26Z</time></trkpt><trkpt lat="44.742980412493175" lon="6.582422237585468"><ele>954.5</ele><time>2026-05-01T11:10:27Z</time></trkpt><trkpt lat="44.74284696965303" lon="6.582429282486699"><ele>954.0</ele><time>2026-05-01T11:10:28Z</time></trkpt><trkpt lat="44.742687210798934" lon="6.58247728372936"><ele>951.6666666666667</ele><time>2026-05-01T11:10:29Z</time></trkpt><trkpt lat="44.74253654021155" lon="6.582508911730294"><ele>949.3333333333334</ele><time>2026-05-01T11:10:30Z</time></trkpt><trkpt lat="44.742378755714086" lon="6.582545069902229"><ele>947.0</ele><time>2026-05-01T11:10:31Z</time></trkpt><trkpt lat="44.74223178197186" lon="6.582581843522174"><ele>947.0</ele><time>2026-05-01T11:10:32Z</time></trkpt><trkpt lat="44.74207575955938" lon="6.582630196404555"><ele>947.0</ele><time>2026-05-01T11:10:33Z</time></trkpt><trkpt lat="44.74191846868684" lon="6.582688624642569"><ele>947.0</ele><time>2026-05-01T11:10:34Z</time></trkpt><trkpt lat="44.74172536237036" lon="6.582761274695001"><ele>943.0</ele><time>2026-05-01T11:10:35Z</time></trkpt><trkpt lat="44.74154715014943" lon="6.582792055197116"><ele>939.0</ele><time>2026-05-01T11:10:36Z</time></trkpt><trkpt lat="44.74137491238845" lon="6.5828276438293924"><ele>935.0</ele><time>2026-05-01T11:10:37Z</time></trkpt><trkpt lat="44.7412038910326" lon="6.582919724340018"><ele>940.6666666666667</ele><time>2026-05-01T11:10:38Z</time></trkpt><trkpt lat="44.74102495455133" lon="6.582989928031875"><ele>946.3333333333333</ele><time>2026-05-01T11:10:39Z</time></trkpt><trkpt lat="44.7408224823475" lon="6.583075085421135"><ele>952.0</ele><time>2026-05-01T11:10:40Z</time></trkpt><trkpt lat="44.740622135032424" lon="6.583120623835866"><ele>952.0</ele><time>2026-05-01T11:10:41Z</time></trkpt><trkpt lat="44.74043468381909" lon="6.583206704052202"><ele>952.0</ele><time>2026-05-01T11:10:42Z</time></trkpt><trkpt lat="44.74022544757712" lon="6.58326235618216"><ele>952.0</ele><time>2026-05-01T11:10:43Z</time></trkpt><trkpt lat="44.74001847518949" lon="6.5833318831208505"><ele>947.6666666666666</ele><time>2026-05-01T11:10:44Z</time></trkpt><trkpt lat="44.73980547045949" lon="6.583392351580596"><ele>943.3333333333333</ele><time>2026-05-01T11:10:45Z</time></trkpt><trkpt lat="44.739598844117076" lon="6.583449118409234"><ele>939.0</ele><time>2026-05-01T11:10:46Z</time></trkpt><trkpt lat="44.739394869266874" lon="6.58348154812362"><ele>935.6666666666667</ele><time>2026-05-01T11:10:47Z</time></trkpt><trkpt lat="44.73918485576281" lon="6.583510025491652"><ele>932.3333333333334</ele><time>2026-05-01T11:10:48Z</time></trkpt><trkpt lat="44.73898692057115" lon="6.583533871688689"><ele>929.0</ele><time>2026-05-01T11:10:49Z</time></trkpt><trkpt lat="44.73878131600216" lon="6.583557690946734"><ele>929.0</ele><time>2026-05-01T11:10:50Z</time></trkpt><trkpt lat="44.7385696763613" lon="6.583601465115887"><ele>929.0</ele><time>2026-05-01T11:10:51Z</time></trkpt><trkpt lat="44.738362454232806" lon="6.583619767238383"><ele>929.0</ele><time>2026-05-01T11:10:52Z</time></trkpt><trkpt lat="44.738148205977325" lon="6.583626448063539"><ele>929.0</ele><time>2026-05-01T11:10:53Z</time></trkpt><trkpt lat="44.73794084426781" lon="6.583649382658569"><ele>929.0</ele><time>2026-05-01T11:10:54Z</time></trkpt><trkpt lat="44.73774116096791" lon="6.583671468012526"><ele>929.0</ele><time>2026-05-01T11:10:55Z</time></trkpt><trkpt lat="44.73753515093499" lon="6.583718185183338"><ele>930.6666666666667</ele><time>2026-05-01T11:10:56Z</time></trkpt><trkpt lat="44.73732419694504" lon="6.583719610558831"><ele>932.3333333333333</ele><time>2026-05-01T11:10:57Z</time></trkpt><trkpt lat="44.73712351979305" lon="6.58374297166774"><ele>934.0</ele><time>2026-05-01T11:10:58Z</time></trkpt><trkpt lat="44.73692639371147" lon="6.583765919382276"><ele>932.3333333333333</ele><time>2026-05-01T11:10:59Z</time></trkpt><trkpt lat="44.73672145851492" lon="6.5837897761671265"><ele>930.6666666666667</ele><time>2026-05-01T11:11:00Z</time></trkpt><trkpt lat="44.736522329118074" lon="6.583812957098518"><ele>929.0</ele><time>2026-05-01T11:11:01Z</time></trkpt><trkpt lat="44.736333293457925" lon="6.583834962994268"><ele>929.0</ele><time>2026-05-01T11:11:02Z</time></trkpt><trkpt lat="44.736138288014" lon="6.5838583424913635"><ele>929.0</ele><time>2026-05-01T11:11:03Z</time></trkpt><trkpt lat="44.73594512884209" lon="6.5838826577979175"><ele>929.0</ele><time>2026-05-01T11:11:04Z</time></trkpt><trkpt lat="44.73575028762781" lon="6.583908144844698"><ele>928.3333333333334</ele><time>2026-05-01T11:11:05Z</time></trkpt><trkpt lat="44.73555441106756" lon="6.583933168805014"><ele>927.6666666666667</ele><time>2026-05-01T11:11:06Z</time></trkpt><trkpt lat="44.735341075407376" lon="6.58398142105827"><ele>927.0</ele><time>2026-05-01T11:11:07Z</time></trkpt><trkpt lat="44.73511723835462" lon="6.583985112894462"><ele>926.0</ele><time>2026-05-01T11:11:08Z</time></trkpt><trkpt lat="44.73489905282753" lon="6.584011037310175"><ele>925.0</ele><time>2026-05-01T11:11:09Z</time></trkpt><trkpt lat="44.73466417247879" lon="6.584039452607473"><ele>925.0</ele><time>2026-05-01T11:11:10Z</time></trkpt><trkpt lat="44.734433988244284" lon="6.584068642821047"><ele>925.0</ele><time>2026-05-01T11:11:11Z</time></trkpt><trkpt lat="44.73419915424329" lon="6.584098422649742"><ele>926.5</ele><time>2026-05-01T11:11:12Z</time></trkpt><trkpt lat="44.73395690623482" lon="6.584129142701711"><ele>928.0</ele><time>2026-05-01T11:11:13Z</time></trkpt><trkpt lat="44.73371378872871" lon="6.584160537408774"><ele>927.0</ele><time>2026-05-01T11:11:14Z</time></trkpt><trkpt lat="44.73347569808381" lon="6.584215509256305"><ele>926.0</ele><time>2026-05-01T11:11:15Z</time></trkpt><trkpt lat="44.73324197709365" lon="6.584232891937023"><ele>926.0</ele><time>2026-05-01T11:11:16Z</time></trkpt><trkpt lat="44.733023622459825" lon="6.584298788452096"><ele>926.0</ele><time>2026-05-01T11:11:17Z</time></trkpt><trkpt lat="44.732803646028565" lon="6.584356492295005"><ele>926.0</ele><time>2026-05-01T11:11:18Z</time></trkpt><trkpt lat="44.73259127285568" lon="6.5844308687341835"><ele>933.3333333333334</ele><time>2026-05-01T11:11:19Z</time></trkpt><trkpt lat="44.732376494584756" lon="6.584514731640811"><ele>940.6666666666667</ele><time>2026-05-01T11:11:20Z</time></trkpt><trkpt lat="44.732168597473425" lon="6.584578758424798"><ele>948.0</ele><time>2026-05-01T11:11:21Z</time></trkpt><trkpt lat="44.731948966001866" lon="6.584626186786754"><ele>943.6666666666667</ele><time>2026-05-01T11:11:22Z</time></trkpt><trkpt lat="44.73172931924867" lon="6.58471420187209"><ele>939.3333333333334</ele><time>2026-05-01T11:11:23Z</time></trkpt><trkpt lat="44.73151506532216" lon="6.584763002795375"><ele>935.0</ele><time>2026-05-01T11:11:24Z</time></trkpt><trkpt lat="44.731300676130154" lon="6.584815040903029"><ele>935.0</ele><time>2026-05-01T11:11:25Z</time></trkpt><trkpt lat="44.731093327421426" lon="6.584882631742508"><ele>935.0</ele><time>2026-05-01T11:11:26Z</time></trkpt><trkpt lat="44.73087253945448" lon="6.584956784532114"><ele>935.0</ele><time>2026-05-01T11:11:27Z</time></trkpt><trkpt lat="44.73065870059754" lon="6.585031808894542"><ele>932.3333333333334</ele><time>2026-05-01T11:11:28Z</time></trkpt><trkpt lat="44.73045141078961" lon="6.585110530555303"><ele>929.6666666666667</ele><time>2026-05-01T11:11:29Z</time></trkpt><trkpt lat="44.73024295831826" lon="6.585177179211859"><ele>927.0</ele><time>2026-05-01T11:11:30Z</time></trkpt><trkpt lat="44.73003173142715" lon="6.585269006692947"><ele>926.6666666666667</ele><time>2026-05-01T11:11:31Z</time></trkpt><trkpt lat="44.72981237117938" lon="6.585337441286152"><ele>926.3333333333334</ele><time>2026-05-01T11:11:32Z</time></trkpt><trkpt lat="44.72960236394066" lon="6.585400348061665"><ele>926.0</ele><time>2026-05-01T11:11:33Z</time></trkpt><trkpt lat="44.72941117546761" lon="6.585465517416429"><ele>931.0</ele><time>2026-05-01T11:11:34Z</time></trkpt><trkpt lat="44.72918581592005" lon="6.585540032991315"><ele>936.0</ele><time>2026-05-01T11:11:35Z</time></trkpt><trkpt lat="44.72897026284347" lon="6.585588359972772"><ele>936.0</ele><time>2026-05-01T11:11:36Z</time></trkpt><trkpt lat="44.728759912381115" lon="6.585649101348574"><ele>936.0</ele><time>2026-05-01T11:11:37Z</time></trkpt><trkpt lat="44.728534289638574" lon="6.585724650726775"><ele>936.0</ele><time>2026-05-01T11:11:38Z</time></trkpt><trkpt lat="44.72831566690224" lon="6.585797410015334"><ele>930.5</ele><time>2026-05-01T11:11:39Z</time></trkpt><trkpt lat="44.72808643128194" lon="6.585884889221487"><ele>925.0</ele><time>2026-05-01T11:11:40Z</time></trkpt><trkpt lat="44.72787726431083" lon="6.5859723441314095"><ele>924.3333333333333</ele><time>2026-05-01T11:11:41Z</time></trkpt><trkpt lat="44.727654666198106" lon="6.586080175118412"><ele>923.6666666666667</ele><time>2026-05-01T11:11:42Z</time></trkpt><trkpt lat="44.72746177825026" lon="6.586192680192952"><ele>923.0</ele><time>2026-05-01T11:11:43Z</time></trkpt><trkpt lat="44.72726293538407" lon="6.586318005472771"><ele>923.0</ele><time>2026-05-01T11:11:44Z</time></trkpt><trkpt lat="44.72706977891787" lon="6.586438011767135"><ele>923.0</ele><time>2026-05-01T11:11:45Z</time></trkpt><trkpt lat="44.726885792511496" lon="6.586569505043853"><ele>923.0</ele><time>2026-05-01T11:11:46Z</time></trkpt><trkpt lat="44.72670826521275" lon="6.586722657357695"><ele>923.5</ele><time>2026-05-01T11:11:47Z</time></trkpt><trkpt lat="44.72652370368293" lon="6.5868930478897765"><ele>924.0</ele><time>2026-05-01T11:11:48Z</time></trkpt><trkpt lat="44.726328050611" lon="6.587085406839345"><ele>924.0</ele><time>2026-05-01T11:11:49Z</time></trkpt><trkpt lat="44.72617147632077" lon="6.587254673346935"><ele>924.0</ele><time>2026-05-01T11:11:50Z</time></trkpt><trkpt lat="44.725988659249396" lon="6.587441582399193"><ele>924.0</ele><time>2026-05-01T11:11:51Z</time></trkpt><trkpt lat="44.72579967330632" lon="6.587635137658007"><ele>922.5</ele><time>2026-05-01T11:11:52Z</time></trkpt><trkpt lat="44.72561179866153" lon="6.587834927856013"><ele>921.0</ele><time>2026-05-01T11:11:53Z</time></trkpt><trkpt lat="44.725434558742236" lon="6.588019182903541"><ele>920.6666666666667</ele><time>2026-05-01T11:11:54Z</time></trkpt><trkpt lat="44.725246831828194" lon="6.588197908229351"><ele>920.3333333333334</ele><time>2026-05-01T11:11:55Z</time></trkpt><trkpt lat="44.72507029779361" lon="6.588373803950962"><ele>920.0</ele><time>2026-05-01T11:11:56Z</time></trkpt><trkpt lat="44.72489010529515" lon="6.5885446402487045"><ele>919.3333333333334</ele><time>2026-05-01T11:11:57Z</time></trkpt><trkpt lat="44.72472306544043" lon="6.588728341624347"><ele>918.6666666666667</ele><time>2026-05-01T11:11:58Z</time></trkpt><trkpt lat="44.72456173172569" lon="6.588914869656443"><ele>918.0</ele><time>2026-05-01T11:11:59Z</time></trkpt><trkpt lat="44.72439353390422" lon="6.589092404080402"><ele>918.0</ele><time>2026-05-01T11:12:00Z</time></trkpt><trkpt lat="44.72421942050848" lon="6.589267655543527"><ele>918.0</ele><time>2026-05-01T11:12:01Z</time></trkpt><trkpt lat="44.72402705729932" lon="6.589445626325643"><ele>918.0</ele><time>2026-05-01T11:12:02Z</time></trkpt><trkpt lat="44.72383890691164" lon="6.589647500339617"><ele>917.5</ele><time>2026-05-01T11:12:03Z</time></trkpt><trkpt lat="44.72365326633416" lon="6.58983646607288"><ele>917.0</ele><time>2026-05-01T11:12:04Z</time></trkpt><trkpt lat="44.72346980884732" lon="6.590014060688626"><ele>917.0</ele><time>2026-05-01T11:12:05Z</time></trkpt><trkpt lat="44.72328770109264" lon="6.590188398247864"><ele>917.0</ele><time>2026-05-01T11:12:06Z</time></trkpt><trkpt lat="44.723105942538375" lon="6.590368285548696"><ele>917.0</ele><time>2026-05-01T11:12:07Z</time></trkpt><trkpt lat="44.722940291948" lon="6.590541061032803"><ele>917.6666666666667</ele><time>2026-05-01T11:12:08Z</time></trkpt><trkpt lat="44.7227714025275" lon="6.590712371239949"><ele>918.3333333333333</ele><time>2026-05-01T11:12:09Z</time></trkpt><trkpt lat="44.72260138463982" lon="6.590902823074648"><ele>919.0</ele><time>2026-05-01T11:12:10Z</time></trkpt><trkpt lat="44.722428519027154" lon="6.591112800347626"><ele>919.0</ele><time>2026-05-01T11:12:11Z</time></trkpt><trkpt lat="44.72227237106539" lon="6.591272119962222"><ele>919.0</ele><time>2026-05-01T11:12:12Z</time></trkpt><trkpt lat="44.72211198263404" lon="6.5914379463240085"><ele>919.0</ele><time>2026-05-01T11:12:13Z</time></trkpt><trkpt lat="44.72194233337005" lon="6.591585032687311"><ele>918.3333333333333</ele><time>2026-05-01T11:12:14Z</time></trkpt><trkpt lat="44.721782196534114" lon="6.591754984175309"><ele>917.6666666666667</ele><time>2026-05-01T11:12:15Z</time></trkpt><trkpt lat="44.7216110255869" lon="6.591910272869041"><ele>917.0</ele><time>2026-05-01T11:12:16Z</time></trkpt><trkpt lat="44.7214464780199" lon="6.592078788561457"><ele>917.0</ele><time>2026-05-01T11:12:17Z</time></trkpt><trkpt lat="44.72127708540731" lon="6.592247242156851"><ele>917.0</ele><time>2026-05-01T11:12:18Z</time></trkpt><trkpt lat="44.7211142014552" lon="6.59240745093896"><ele>917.0</ele><time>2026-05-01T11:12:19Z</time></trkpt><trkpt lat="44.720948380952734" lon="6.592552354773559"><ele>917.6666666666667</ele><time>2026-05-01T11:12:20Z</time></trkpt><trkpt lat="44.720773906373424" lon="6.59273036183451"><ele>918.3333333333333</ele><time>2026-05-01T11:12:21Z</time></trkpt><trkpt lat="44.72060121932849" lon="6.59289787111321"><ele>919.0</ele><time>2026-05-01T11:12:22Z</time></trkpt><trkpt lat="44.72042649066276" lon="6.593074760145596"><ele>919.3333333333333</ele><time>2026-05-01T11:12:23Z</time></trkpt><trkpt lat="44.72024956266604" lon="6.593249299859585"><ele>919.6666666666667</ele><time>2026-05-01T11:12:24Z</time></trkpt><trkpt lat="44.72008084525781" lon="6.59341350211493"><ele>920.0</ele><time>2026-05-01T11:12:25Z</time></trkpt><trkpt lat="44.71992604957064" lon="6.593584629735775"><ele>921.3333333333334</ele><time>2026-05-01T11:12:26Z</time></trkpt><trkpt lat="44.719767325457184" lon="6.593746877057511"><ele>922.6666666666667</ele><time>2026-05-01T11:12:27Z</time></trkpt><trkpt lat="44.71961779040161" lon="6.593907252969128"><ele>924.0</ele><time>2026-05-01T11:12:28Z</time></trkpt><trkpt lat="44.71945884682778" lon="6.594053640209492"><ele>924.3333333333333</ele><time>2026-05-01T11:12:29Z</time></trkpt><trkpt lat="44.71930553594321" lon="6.594205791797476"><ele>924.6666666666666</ele><time>2026-05-01T11:12:30Z</time></trkpt><trkpt lat="44.719154023768354" lon="6.59436609324568"><ele>925.0</ele><time>2026-05-01T11:12:31Z</time></trkpt><trkpt lat="44.71900770966418" lon="6.594516362161678"><ele>925.0</ele><time>2026-05-01T11:12:32Z</time></trkpt><trkpt lat="44.718854342223494" lon="6.594673616154097"><ele>925.0</ele><time>2026-05-01T11:12:33Z</time></trkpt><trkpt lat="44.71870352762062" lon="6.594834009693577"><ele>925.0</ele><time>2026-05-01T11:12:34Z</time></trkpt><trkpt lat="44.71854459802499" lon="6.5950058603509465"><ele>924.0</ele><time>2026-05-01T11:12:35Z</time></trkpt><trkpt lat="44.71838427527742" lon="6.595166009845532"><ele>923.0</ele><time>2026-05-01T11:12:36Z</time></trkpt><trkpt lat="44.71821989475501" lon="6.595327277542105"><ele>922.0</ele><time>2026-05-01T11:12:37Z</time></trkpt><trkpt lat="44.71805470316674" lon="6.595493889849524"><ele>922.0</ele><time>2026-05-01T11:12:38Z</time></trkpt><trkpt lat="44.71789210379254" lon="6.595663385350791"><ele>922.0</ele><time>2026-05-01T11:12:39Z</time></trkpt><trkpt lat="44.71772575731729" lon="6.595845032054151"><ele>922.0</ele><time>2026-05-01T11:12:40Z</time></trkpt><trkpt lat="44.71754353705939" lon="6.596007764606912"><ele>920.3333333333333</ele><time>2026-05-01T11:12:41Z</time></trkpt><trkpt lat="44.717372307129175" lon="6.596164000667017"><ele>918.6666666666667</ele><time>2026-05-01T11:12:42Z</time></trkpt><trkpt lat="44.71720496217826" lon="6.596328705632788"><ele>917.0</ele><time>2026-05-01T11:12:43Z</time></trkpt><trkpt lat="44.7170386180591" lon="6.596511837749576"><ele>916.0</ele><time>2026-05-01T11:12:44Z</time></trkpt><trkpt lat="44.716877068937634" lon="6.596687040229603"><ele>915.0</ele><time>2026-05-01T11:12:45Z</time></trkpt><trkpt lat="44.716706185239005" lon="6.596857216916338"><ele>914.0</ele><time>2026-05-01T11:12:46Z</time></trkpt><trkpt lat="44.71653409366598" lon="6.5970378150995925"><ele>914.0</ele><time>2026-05-01T11:12:47Z</time></trkpt><trkpt lat="44.71635913558446" lon="6.597226732566131"><ele>914.0</ele><time>2026-05-01T11:12:48Z</time></trkpt><trkpt lat="44.71617171163603" lon="6.597387773459888"><ele>914.0</ele><time>2026-05-01T11:12:49Z</time></trkpt><trkpt lat="44.715994318464205" lon="6.597563090631477"><ele>913.3333333333334</ele><time>2026-05-01T11:12:50Z</time></trkpt><trkpt lat="44.71582546914499" lon="6.597758964218117"><ele>912.6666666666667</ele><time>2026-05-01T11:12:51Z</time></trkpt><trkpt lat="44.71564858308956" lon="6.597941172326786"><ele>912.0</ele><time>2026-05-01T11:12:52Z</time></trkpt><trkpt lat="44.715480700401784" lon="6.598120835917209"><ele>912.0</ele><time>2026-05-01T11:12:53Z</time></trkpt><trkpt lat="44.71530877075512" lon="6.598283090363557"><ele>912.0</ele><time>2026-05-01T11:12:54Z</time></trkpt><trkpt lat="44.715137052683595" lon="6.598457135481488"><ele>912.0</ele><time>2026-05-01T11:12:55Z</time></trkpt><trkpt lat="44.71497613164555" lon="6.59862515295249"><ele>911.0</ele><time>2026-05-01T11:12:56Z</time></trkpt><trkpt lat="44.71481600698534" lon="6.598795364140808"><ele>910.0</ele><time>2026-05-01T11:12:57Z</time></trkpt><trkpt lat="44.71464401908832" lon="6.598953803206168"><ele>909.0</ele><time>2026-05-01T11:12:58Z</time></trkpt><trkpt lat="44.714477902409755" lon="6.599134771502846"><ele>908.0</ele><time>2026-05-01T11:12:59Z</time></trkpt><trkpt lat="44.714320326501905" lon="6.599311308891095"><ele>907.0</ele><time>2026-05-01T11:13:00Z</time></trkpt><trkpt lat="44.71414782761071" lon="6.599468899762406"><ele>906.0</ele><time>2026-05-01T11:13:01Z</time></trkpt><trkpt lat="44.71398120354722" lon="6.599644542564461"><ele>905.6666666666667</ele><time>2026-05-01T11:13:02Z</time></trkpt><trkpt lat="44.713812278415126" lon="6.599808338675163"><ele>905.3333333333334</ele><time>2026-05-01T11:13:03Z</time></trkpt><trkpt lat="44.71365395226729" lon="6.599981827960503"><ele>905.0</ele><time>2026-05-01T11:13:04Z</time></trkpt><trkpt lat="44.713495015750105" lon="6.600145520287293"><ele>904.6666666666667</ele><time>2026-05-01T11:13:05Z</time></trkpt><trkpt lat="44.71333182714671" lon="6.6003173635904835"><ele>904.3333333333333</ele><time>2026-05-01T11:13:06Z</time></trkpt><trkpt lat="44.713157272050374" lon="6.600476952881633"><ele>904.0</ele><time>2026-05-01T11:13:07Z</time></trkpt><trkpt lat="44.713002412627425" lon="6.600634111843282"><ele>905.0</ele><time>2026-05-01T11:13:08Z</time></trkpt><trkpt lat="44.71283142848681" lon="6.600797738110858"><ele>906.0</ele><time>2026-05-01T11:13:09Z</time></trkpt><trkpt lat="44.712667168423614" lon="6.60095807783388"><ele>907.0</ele><time>2026-05-01T11:13:10Z</time></trkpt><trkpt lat="44.712509275410866" lon="6.601119865250349"><ele>911.6666666666666</ele><time>2026-05-01T11:13:11Z</time></trkpt><trkpt lat="44.71235104355595" lon="6.601275782857378"><ele>916.3333333333333</ele><time>2026-05-01T11:13:12Z</time></trkpt><trkpt lat="44.7121983751752" lon="6.601452018598358"><ele>921.0</ele><time>2026-05-01T11:13:13Z</time></trkpt><trkpt lat="44.71203982958636" lon="6.601612700032896"><ele>920.6666666666667</ele><time>2026-05-01T11:13:14Z</time></trkpt><trkpt lat="44.71187628793793" lon="6.601771445554911"><ele>920.3333333333334</ele><time>2026-05-01T11:13:15Z</time></trkpt><trkpt lat="44.71171428311497" lon="6.601944302955687"><ele>920.0</ele><time>2026-05-01T11:13:16Z</time></trkpt><trkpt lat="44.711543869771354" lon="6.602093924333924"><ele>920.0</ele><time>2026-05-01T11:13:17Z</time></trkpt><trkpt lat="44.71134800815274" lon="6.602210972667282"><ele>920.0</ele><time>2026-05-01T11:13:18Z</time></trkpt><trkpt lat="44.71115941987004" lon="6.602352113647005"><ele>920.0</ele><time>2026-05-01T11:13:19Z</time></trkpt><trkpt lat="44.710958195144855" lon="6.602429766205722"><ele>916.6666666666667</ele><time>2026-05-01T11:13:20Z</time></trkpt><trkpt lat="44.71075061562779" lon="6.60251646510052"><ele>913.3333333333333</ele><time>2026-05-01T11:13:21Z</time></trkpt><trkpt lat="44.71055628088952" lon="6.602614629615739"><ele>910.0</ele><time>2026-05-01T11:13:22Z</time></trkpt><trkpt lat="44.710355121423234" lon="6.60268357460921"><ele>911.0</ele><time>2026-05-01T11:13:23Z</time></trkpt><trkpt lat="44.71015656218568" lon="6.602751732591367"><ele>912.0</ele><time>2026-05-01T11:13:24Z</time></trkpt><trkpt lat="44.709963226538285" lon="6.60281279898618"><ele>913.0</ele><time>2026-05-01T11:13:25Z</time></trkpt><trkpt lat="44.70976183732053" lon="6.602893099317703"><ele>913.0</ele><time>2026-05-01T11:13:26Z</time></trkpt><trkpt lat="44.70956603030398" lon="6.602971290714368"><ele>913.0</ele><time>2026-05-01T11:13:27Z</time></trkpt><trkpt lat="44.70937113965085" lon="6.6030519369337"><ele>913.0</ele><time>2026-05-01T11:13:28Z</time></trkpt><trkpt lat="44.709167915654646" lon="6.603123361210779"><ele>910.6666666666666</ele><time>2026-05-01T11:13:29Z</time></trkpt><trkpt lat="44.70897537222216" lon="6.603184602091516"><ele>908.3333333333333</ele><time>2026-05-01T11:13:30Z</time></trkpt><trkpt lat="44.708780008768386" lon="6.603283159625496"><ele>906.0</ele><time>2026-05-01T11:13:31Z</time></trkpt><trkpt lat="44.70857504284648" lon="6.60335776230755"><ele>905.0</ele><time>2026-05-01T11:13:32Z</time></trkpt><trkpt lat="44.70837503559669" lon="6.60343771595021"><ele>904.0</ele><time>2026-05-01T11:13:33Z</time></trkpt><trkpt lat="44.70820361332587" lon="6.603520093795877"><ele>903.0</ele><time>2026-05-01T11:13:34Z</time></trkpt><trkpt lat="44.70803001247297" lon="6.60361571415343"><ele>903.0</ele><time>2026-05-01T11:13:35Z</time></trkpt><trkpt lat="44.707874032171404" lon="6.603701717342916"><ele>903.0</ele><time>2026-05-01T11:13:36Z</time></trkpt><trkpt lat="44.707721586488" lon="6.603783451546397"><ele>903.0</ele><time>2026-05-01T11:13:37Z</time></trkpt><trkpt lat="44.70757988523036" lon="6.603873341570049"><ele>903.0</ele><time>2026-05-01T11:13:38Z</time></trkpt><trkpt lat="44.70744026881544" lon="6.6039463995255785"><ele>903.0</ele><time>2026-05-01T11:13:39Z</time></trkpt><trkpt lat="44.70733378065718" lon="6.604023581846664"><ele>903.0</ele><time>2026-05-01T11:13:40Z</time></trkpt><trkpt lat="44.70723878867559" lon="6.604082574508521"><ele>903.0</ele><time>2026-05-01T11:13:41Z</time></trkpt><trkpt lat="44.70717560671565" lon="6.604058448821893"><ele>903.0</ele><time>2026-05-01T11:13:42Z</time></trkpt><trkpt lat="44.70708268985813" lon="6.604118919822161"><ele>903.0</ele><time>2026-05-01T11:13:43Z</time></trkpt><trkpt lat="44.707029096901486" lon="6.604180325679301"><ele>903.0</ele><time>2026-05-01T11:13:44Z</time></trkpt><trkpt lat="44.7069399246287" lon="6.604262422734807"><ele>903.0</ele><time>2026-05-01T11:13:46Z</time></trkpt><trkpt lat="44.7068754239019" lon="6.604292999563602"><ele>903.0</ele><time>2026-05-01T11:13:47Z</time></trkpt><trkpt lat="44.7068051593791" lon="6.60427742853159"><ele>903.0</ele><time>2026-05-01T11:13:48Z</time></trkpt><trkpt lat="44.70669086776134" lon="6.604302613854431"><ele>903.0</ele><time>2026-05-01T11:13:50Z</time></trkpt><trkpt lat="44.70662753575725" lon="6.604347704615452"><ele>903.0</ele><time>2026-05-01T11:13:51Z</time></trkpt><trkpt lat="44.70659759494779" lon="6.6044379535285165"><ele>903.0</ele><time>2026-05-01T11:13:52Z</time></trkpt><trkpt lat="44.706538429293275" lon="6.604512429330373"><ele>903.0</ele><time>2026-05-01T11:13:53Z</time></trkpt><trkpt lat="44.70647112980947" lon="6.604585861999903"><ele>903.0</ele><time>2026-05-01T11:13:54Z</time></trkpt><trkpt lat="44.706387657841965" lon="6.604641199452348"><ele>903.0</ele><time>2026-05-01T11:13:55Z</time></trkpt><trkpt lat="44.706286449395584" lon="6.604691431884719"><ele>903.0</ele><time>2026-05-01T11:13:56Z</time></trkpt><trkpt lat="44.70615608462629" lon="6.604727735680132"><ele>902.3333333333333</ele><time>2026-05-01T11:13:57Z</time></trkpt><trkpt lat="44.7060185835924" lon="6.604779769918596"><ele>901.6666666666666</ele><time>2026-05-01T11:13:58Z</time></trkpt><trkpt lat="44.705840216515675" lon="6.604861568619775"><ele>901.0</ele><time>2026-05-01T11:13:59Z</time></trkpt><trkpt lat="44.70567564520551" lon="6.604978770893692"><ele>901.0</ele><time>2026-05-01T11:14:00Z</time></trkpt><trkpt lat="44.70552827690322" lon="6.6050731952437"><ele>901.0</ele><time>2026-05-01T11:14:01Z</time></trkpt><trkpt lat="44.705367914115" lon="6.605174432072277"><ele>901.0</ele><time>2026-05-01T11:14:02Z</time></trkpt><trkpt lat="44.705215904033935" lon="6.605306923452946"><ele>902.3333333333333</ele><time>2026-05-01T11:14:03Z</time></trkpt><trkpt lat="44.705063446038196" lon="6.605441173609029"><ele>903.6666666666667</ele><time>2026-05-01T11:14:04Z</time></trkpt><trkpt lat="44.70490011468468" lon="6.605592165605393"><ele>905.0</ele><time>2026-05-01T11:14:05Z</time></trkpt><trkpt lat="44.70474560641127" lon="6.605713684658568"><ele>905.0</ele><time>2026-05-01T11:14:06Z</time></trkpt><trkpt lat="44.70458817127882" lon="6.6058406662067295"><ele>905.0</ele><time>2026-05-01T11:14:07Z</time></trkpt><trkpt lat="44.70443459764932" lon="6.605985417322953"><ele>905.0</ele><time>2026-05-01T11:14:08Z</time></trkpt><trkpt lat="44.70428936013518" lon="6.606107254501918"><ele>905.6666666666667</ele><time>2026-05-01T11:14:09Z</time></trkpt><trkpt lat="44.704144315113254" lon="6.606230664986976"><ele>906.3333333333333</ele><time>2026-05-01T11:14:10Z</time></trkpt><trkpt lat="44.7040003972501" lon="6.606364284243045"><ele>907.0</ele><time>2026-05-01T11:14:11Z</time></trkpt><trkpt lat="44.70386395610483" lon="6.60647734507417"><ele>907.0</ele><time>2026-05-01T11:14:12Z</time></trkpt><trkpt lat="44.70371452163814" lon="6.606599179144362"><ele>907.0</ele><time>2026-05-01T11:14:13Z</time></trkpt><trkpt lat="44.70356263284488" lon="6.606736991210944"><ele>907.0</ele><time>2026-05-01T11:14:14Z</time></trkpt><trkpt lat="44.70340854801258" lon="6.606879368378038"><ele>906.6666666666666</ele><time>2026-05-01T11:14:15Z</time></trkpt><trkpt lat="44.70325642560483" lon="6.607010638214862"><ele>906.3333333333333</ele><time>2026-05-01T11:14:16Z</time></trkpt><trkpt lat="44.703103369742905" lon="6.6071288020457235"><ele>906.0</ele><time>2026-05-01T11:14:17Z</time></trkpt><trkpt lat="44.702946316818675" lon="6.607242728813466"><ele>906.0</ele><time>2026-05-01T11:14:18Z</time></trkpt><trkpt lat="44.70278124482004" lon="6.6073688225699145"><ele>906.0</ele><time>2026-05-01T11:14:19Z</time></trkpt><trkpt lat="44.70261674439686" lon="6.607512476082805"><ele>906.0</ele><time>2026-05-01T11:14:20Z</time></trkpt><trkpt lat="44.70245397163293" lon="6.607658617333296"><ele>906.0</ele><time>2026-05-01T11:14:21Z</time></trkpt><trkpt lat="44.702299974028236" lon="6.607799345214056"><ele>906.0</ele><time>2026-05-01T11:14:22Z</time></trkpt><trkpt lat="44.70212880199984" lon="6.607950822680466"><ele>906.0</ele><time>2026-05-01T11:14:23Z</time></trkpt><trkpt lat="44.70195080213399" lon="6.608103467253781"><ele>905.0</ele><time>2026-05-01T11:14:24Z</time></trkpt><trkpt lat="44.70175584765868" lon="6.608250822964681"><ele>904.0</ele><time>2026-05-01T11:14:25Z</time></trkpt><trkpt lat="44.701561050728756" lon="6.6084233124828655"><ele>904.0</ele><time>2026-05-01T11:14:26Z</time></trkpt><trkpt lat="44.70138267984998" lon="6.608566662125089"><ele>904.0</ele><time>2026-05-01T11:14:27Z</time></trkpt><trkpt lat="44.70120739711799" lon="6.608724824322481"><ele>904.0</ele><time>2026-05-01T11:14:28Z</time></trkpt><trkpt lat="44.70103800411386" lon="6.608864648728425"><ele>903.3333333333333</ele><time>2026-05-01T11:14:29Z</time></trkpt><trkpt lat="44.70086070332007" lon="6.6090145300709295"><ele>902.6666666666667</ele><time>2026-05-01T11:14:30Z</time></trkpt><trkpt lat="44.70068140652635" lon="6.60916937038039"><ele>902.0</ele><time>2026-05-01T11:14:31Z</time></trkpt><trkpt lat="44.7004785881707" lon="6.609325689262942"><ele>902.0</ele><time>2026-05-01T11:14:32Z</time></trkpt><trkpt lat="44.70028882035032" lon="6.609476095999575"><ele>902.0</ele><time>2026-05-01T11:14:33Z</time></trkpt><trkpt lat="44.700100955428404" lon="6.609607720048056"><ele>902.0</ele><time>2026-05-01T11:14:34Z</time></trkpt><trkpt lat="44.69989374163448" lon="6.6097128681157304"><ele>902.0</ele><time>2026-05-01T11:14:35Z</time></trkpt><trkpt lat="44.69968328190532" lon="6.609839636596989"><ele>902.0</ele><time>2026-05-01T11:14:36Z</time></trkpt><trkpt lat="44.699473217353614" lon="6.609941664520783"><ele>901.6666666666667</ele><time>2026-05-01T11:14:37Z</time></trkpt><trkpt lat="44.69926598454559" lon="6.610038362055735"><ele>901.3333333333333</ele><time>2026-05-01T11:14:38Z</time></trkpt><trkpt lat="44.6990471069915" lon="6.610136511114239"><ele>901.0</ele><time>2026-05-01T11:14:39Z</time></trkpt><trkpt lat="44.69881337408818" lon="6.61021883738242"><ele>901.0</ele><time>2026-05-01T11:14:40Z</time></trkpt><trkpt lat="44.69859330309364" lon="6.6102978653341875"><ele>901.0</ele><time>2026-05-01T11:14:41Z</time></trkpt><trkpt lat="44.698394468696186" lon="6.610319107381474"><ele>901.0</ele><time>2026-05-01T11:14:42Z</time></trkpt><trkpt lat="44.698183396802776" lon="6.610398557732948"><ele>903.0</ele><time>2026-05-01T11:14:43Z</time></trkpt><trkpt lat="44.69796196249699" lon="6.61044264285258"><ele>905.0</ele><time>2026-05-01T11:14:44Z</time></trkpt><trkpt lat="44.69773298873635" lon="6.61053018639216"><ele>905.0</ele><time>2026-05-01T11:14:45Z</time></trkpt><trkpt lat="44.69751981367647" lon="6.610587946078215"><ele>905.0</ele><time>2026-05-01T11:14:46Z</time></trkpt><trkpt lat="44.69727274868074" lon="6.610657322261054"><ele>905.0</ele><time>2026-05-01T11:14:47Z</time></trkpt><trkpt lat="44.69705170894702" lon="6.61071798202227"><ele>905.0</ele><time>2026-05-01T11:14:48Z</time></trkpt><trkpt lat="44.69684888897207" lon="6.610773244585899"><ele>905.0</ele><time>2026-05-01T11:14:49Z</time></trkpt><trkpt lat="44.696626207782245" lon="6.610839978335658"><ele>905.3333333333334</ele><time>2026-05-01T11:14:50Z</time></trkpt><trkpt lat="44.69641177168145" lon="6.610893439246588"><ele>905.6666666666667</ele><time>2026-05-01T11:14:51Z</time></trkpt><trkpt lat="44.696213485614315" lon="6.610934589012455"><ele>906.0</ele><time>2026-05-01T11:14:52Z</time></trkpt><trkpt lat="44.69600182000486" lon="6.611000109857725"><ele>906.6666666666667</ele><time>2026-05-01T11:14:53Z</time></trkpt><trkpt lat="44.69580488145196" lon="6.6110469401509215"><ele>907.3333333333334</ele><time>2026-05-01T11:14:54Z</time></trkpt><trkpt lat="44.69559284419068" lon="6.611117191300883"><ele>908.0</ele><time>2026-05-01T11:14:55Z</time></trkpt><trkpt lat="44.6953866009551" lon="6.611178002161757"><ele>911.3333333333334</ele><time>2026-05-01T11:14:56Z</time></trkpt><trkpt lat="44.69519349487335" lon="6.611228978403625"><ele>914.6666666666667</ele><time>2026-05-01T11:14:57Z</time></trkpt><trkpt lat="44.69499554584395" lon="6.611285585420335"><ele>918.0</ele><time>2026-05-01T11:14:58Z</time></trkpt><trkpt lat="44.694799115196766" lon="6.611344427091053"><ele>918.0</ele><time>2026-05-01T11:14:59Z</time></trkpt><trkpt lat="44.69461170044529" lon="6.611403583913552"><ele>918.0</ele><time>2026-05-01T11:15:00Z</time></trkpt><trkpt lat="44.69441418946644" lon="6.611459557997621"><ele>918.0</ele><time>2026-05-01T11:15:01Z</time></trkpt><trkpt lat="44.69423053194142" lon="6.611518980068269"><ele>918.3333333333333</ele><time>2026-05-01T11:15:02Z</time></trkpt><trkpt lat="44.69404552510274" lon="6.611572378169813"><ele>918.6666666666666</ele><time>2026-05-01T11:15:03Z</time></trkpt><trkpt lat="44.69386520850484" lon="6.611633766671057"><ele>919.0</ele><time>2026-05-01T11:15:04Z</time></trkpt><trkpt lat="44.69369391685263" lon="6.6116852678944715"><ele>919.6666666666666</ele><time>2026-05-01T11:15:05Z</time></trkpt><trkpt lat="44.69351785894948" lon="6.611730024150019"><ele>920.3333333333333</ele><time>2026-05-01T11:15:06Z</time></trkpt><trkpt lat="44.69333513915644" lon="6.61178503785193"><ele>921.0</ele><time>2026-05-01T11:15:07Z</time></trkpt><trkpt lat="44.69314786987747" lon="6.611838546410213"><ele>921.0</ele><time>2026-05-01T11:15:08Z</time></trkpt><trkpt lat="44.69296285450189" lon="6.611870572708019"><ele>921.0</ele><time>2026-05-01T11:15:09Z</time></trkpt><trkpt lat="44.692769303092575" lon="6.611924925791021"><ele>921.0</ele><time>2026-05-01T11:15:10Z</time></trkpt><trkpt lat="44.69257795471712" lon="6.611979182776631"><ele>923.3333333333333</ele><time>2026-05-01T11:15:11Z</time></trkpt><trkpt lat="44.6924037095761" lon="6.612029768098338"><ele>925.6666666666666</ele><time>2026-05-01T11:15:12Z</time></trkpt><trkpt lat="44.6922450687395" lon="6.612076502527748"><ele>928.0</ele><time>2026-05-01T11:15:13Z</time></trkpt><trkpt lat="44.69207050134767" lon="6.612127848146277"><ele>927.6666666666666</ele><time>2026-05-01T11:15:14Z</time></trkpt><trkpt lat="44.69188667855298" lon="6.612181200886232"><ele>927.3333333333333</ele><time>2026-05-01T11:15:15Z</time></trkpt><trkpt lat="44.69169869909725" lon="6.61223576005918"><ele>927.0</ele><time>2026-05-01T11:15:16Z</time></trkpt><trkpt lat="44.69149900951062" lon="6.612293974215086"><ele>927.0</ele><time>2026-05-01T11:15:17Z</time></trkpt><trkpt lat="44.69131344766885" lon="6.612348446034237"><ele>927.0</ele><time>2026-05-01T11:15:18Z</time></trkpt><trkpt lat="44.69110925052373" lon="6.612405905826098"><ele>927.0</ele><time>2026-05-01T11:15:19Z</time></trkpt><trkpt lat="44.69090153437155" lon="6.612464836109136"><ele>927.0</ele><time>2026-05-01T11:15:20Z</time></trkpt><trkpt lat="44.6906918703149" lon="6.6125275526363"><ele>927.0</ele><time>2026-05-01T11:15:21Z</time></trkpt><trkpt lat="44.69047224545371" lon="6.612613992232525"><ele>927.0</ele><time>2026-05-01T11:15:22Z</time></trkpt><trkpt lat="44.69025597441544" lon="6.612658543327393"><ele>927.0</ele><time>2026-05-01T11:15:23Z</time></trkpt><trkpt lat="44.69005524930376" lon="6.61271763540937"><ele>927.0</ele><time>2026-05-01T11:15:24Z</time></trkpt><trkpt lat="44.68986851626599" lon="6.612771944955915"><ele>927.0</ele><time>2026-05-01T11:15:25Z</time></trkpt><trkpt lat="44.689667152273394" lon="6.612851595895771"><ele>926.5</ele><time>2026-05-01T11:15:26Z</time></trkpt><trkpt lat="44.68944755033676" lon="6.612913516544225"><ele>926.0</ele><time>2026-05-01T11:15:27Z</time></trkpt><trkpt lat="44.68920737292253" lon="6.6129620626828975"><ele>926.0</ele><time>2026-05-01T11:15:28Z</time></trkpt><trkpt lat="44.68897844029709" lon="6.613027893632664"><ele>926.0</ele><time>2026-05-01T11:15:29Z</time></trkpt><trkpt lat="44.68870293125383" lon="6.61310711791996"><ele>921.5</ele><time>2026-05-01T11:15:30Z</time></trkpt><trkpt lat="44.6884321752757" lon="6.6131849754394505"><ele>917.0</ele><time>2026-05-01T11:15:31Z</time></trkpt><trkpt lat="44.68817122881311" lon="6.613275874770166"><ele>917.0</ele><time>2026-05-01T11:15:32Z</time></trkpt><trkpt lat="44.68792276871995" lon="6.613344058641067"><ele>917.0</ele><time>2026-05-01T11:15:33Z</time></trkpt><trkpt lat="44.68766854090223" lon="6.613404814148609"><ele>917.0</ele><time>2026-05-01T11:15:34Z</time></trkpt><trkpt lat="44.68744433629829" lon="6.613486015789703"><ele>917.0</ele><time>2026-05-01T11:15:35Z</time></trkpt><trkpt lat="44.68722413728908" lon="6.613544393972361"><ele>917.0</ele><time>2026-05-01T11:15:36Z</time></trkpt><trkpt lat="44.687008562108666" lon="6.613614159805891"><ele>917.0</ele><time>2026-05-01T11:15:37Z</time></trkpt><trkpt lat="44.686794850025954" lon="6.6136582671480975"><ele>917.0</ele><time>2026-05-01T11:15:38Z</time></trkpt><trkpt lat="44.68659299073629" lon="6.613716834379527"><ele>916.0</ele><time>2026-05-01T11:15:39Z</time></trkpt><trkpt lat="44.68638709231273" lon="6.613776092585272"><ele>915.0</ele><time>2026-05-01T11:15:40Z</time></trkpt><trkpt lat="44.686194298078156" lon="6.613838955901605"><ele>914.0</ele><time>2026-05-01T11:15:41Z</time></trkpt><trkpt lat="44.68599229662638" lon="6.6138778713884445"><ele>911.6666666666667</ele><time>2026-05-01T11:15:42Z</time></trkpt><trkpt lat="44.68579330441366" lon="6.613914613683872"><ele>909.3333333333333</ele><time>2026-05-01T11:15:43Z</time></trkpt><trkpt lat="44.685607102965086" lon="6.613969703415916"><ele>907.0</ele><time>2026-05-01T11:15:44Z</time></trkpt><trkpt lat="44.68542474565705" lon="6.614011286303166"><ele>906.0</ele><time>2026-05-01T11:15:45Z</time></trkpt><trkpt lat="44.68523533464338" lon="6.6140767645513705"><ele>905.0</ele><time>2026-05-01T11:15:46Z</time></trkpt><trkpt lat="44.68503918640664" lon="6.614138006558666"><ele>904.0</ele><time>2026-05-01T11:15:47Z</time></trkpt><trkpt lat="44.68484465835432" lon="6.614206752954838"><ele>904.0</ele><time>2026-05-01T11:15:48Z</time></trkpt><trkpt lat="44.684645443789584" lon="6.6142614204808545"><ele>904.0</ele><time>2026-05-01T11:15:49Z</time></trkpt><trkpt lat="44.68444312691611" lon="6.614308102709729"><ele>904.0</ele><time>2026-05-01T11:15:50Z</time></trkpt><trkpt lat="44.684242619786765" lon="6.614371471968478"><ele>903.6666666666666</ele><time>2026-05-01T11:15:51Z</time></trkpt><trkpt lat="44.684037079775514" lon="6.614443565870825"><ele>903.3333333333333</ele><time>2026-05-01T11:15:52Z</time></trkpt><trkpt lat="44.68382068207754" lon="6.614506494857456"><ele>903.0</ele><time>2026-05-01T11:15:53Z</time></trkpt><trkpt lat="44.6835959654316" lon="6.614586459608073"><ele>902.0</ele><time>2026-05-01T11:15:54Z</time></trkpt><trkpt lat="44.68339097691161" lon="6.6146484855695435"><ele>901.0</ele><time>2026-05-01T11:15:55Z</time></trkpt><trkpt lat="44.68318243968022" lon="6.61471026075144"><ele>900.0</ele><time>2026-05-01T11:15:56Z</time></trkpt><trkpt lat="44.68297596488628" lon="6.614769201003209"><ele>900.0</ele><time>2026-05-01T11:15:57Z</time></trkpt><trkpt lat="44.682777116475386" lon="6.6148311486466405"><ele>900.0</ele><time>2026-05-01T11:15:58Z</time></trkpt><trkpt lat="44.68259272224409" lon="6.614903684350108"><ele>900.0</ele><time>2026-05-01T11:15:59Z</time></trkpt><trkpt lat="44.6824060626956" lon="6.614947030592986"><ele>899.3333333333333</ele><time>2026-05-01T11:16:00Z</time></trkpt><trkpt lat="44.68220954851393" lon="6.615005754575812"><ele>898.6666666666666</ele><time>2026-05-01T11:16:01Z</time></trkpt><trkpt lat="44.682012804382026" lon="6.615053496776203"><ele>898.0</ele><time>2026-05-01T11:16:02Z</time></trkpt><trkpt lat="44.681827757026355" lon="6.615086184529018"><ele>895.0</ele><time>2026-05-01T11:16:03Z</time></trkpt><trkpt lat="44.68163076924768" lon="6.615138498066466"><ele>892.0</ele><time>2026-05-01T11:16:04Z</time></trkpt><trkpt lat="44.68143114712583" lon="6.6152006058065265"><ele>889.0</ele><time>2026-05-01T11:16:05Z</time></trkpt><trkpt lat="44.6812291820406" lon="6.615268434815326"><ele>888.6666666666666</ele><time>2026-05-01T11:16:06Z</time></trkpt><trkpt lat="44.68102590646581" lon="6.615336152302484"><ele>888.3333333333333</ele><time>2026-05-01T11:16:07Z</time></trkpt><trkpt lat="44.68082473850084" lon="6.615402492564106"><ele>888.0</ele><time>2026-05-01T11:16:08Z</time></trkpt><trkpt lat="44.680628830344716" lon="6.61546133527847"><ele>888.0</ele><time>2026-05-01T11:16:09Z</time></trkpt><trkpt lat="44.680443013775566" lon="6.615512303770369"><ele>888.0</ele><time>2026-05-01T11:16:10Z</time></trkpt><trkpt lat="44.68025767761436" lon="6.6155605439558265"><ele>888.0</ele><time>2026-05-01T11:16:11Z</time></trkpt><trkpt lat="44.68008722958668" lon="6.615624145487588"><ele>888.0</ele><time>2026-05-01T11:16:12Z</time></trkpt><trkpt lat="44.67992049100596" lon="6.615654160101698"><ele>888.0</ele><time>2026-05-01T11:16:13Z</time></trkpt><trkpt lat="44.67975315735704" lon="6.615688327600303"><ele>888.0</ele><time>2026-05-01T11:16:14Z</time></trkpt><trkpt lat="44.67957683368632" lon="6.615731670450008"><ele>888.3333333333333</ele><time>2026-05-01T11:16:15Z</time></trkpt><trkpt lat="44.67942198740087" lon="6.615775184684275"><ele>888.6666666666666</ele><time>2026-05-01T11:16:16Z</time></trkpt><trkpt lat="44.67926111041324" lon="6.615830067983204"><ele>889.0</ele><time>2026-05-01T11:16:17Z</time></trkpt><trkpt lat="44.67911295568376" lon="6.615864044922998"><ele>889.0</ele><time>2026-05-01T11:16:18Z</time></trkpt><trkpt lat="44.67896611320285" lon="6.615905326487055"><ele>889.0</ele><time>2026-05-01T11:16:19Z</time></trkpt><trkpt lat="44.67883465946318" lon="6.615943167545841"><ele>889.0</ele><time>2026-05-01T11:16:20Z</time></trkpt><trkpt lat="44.67870588584371" lon="6.615981665011089"><ele>889.0</ele><time>2026-05-01T11:16:21Z</time></trkpt><trkpt lat="44.67859098227097" lon="6.616016520619533"><ele>888.75</ele><time>2026-05-01T11:16:22Z</time></trkpt><trkpt lat="44.678469174718444" lon="6.616057785723147"><ele>888.5</ele><time>2026-05-01T11:16:23Z</time></trkpt><trkpt lat="44.678339555079795" lon="6.616136745383572"><ele>888.25</ele><time>2026-05-01T11:16:24Z</time></trkpt><trkpt lat="44.67820915596864" lon="6.61617244016996"><ele>888.0</ele><time>2026-05-01T11:16:25Z</time></trkpt><trkpt lat="44.678074197001855" lon="6.616204844170723"><ele>888.25</ele><time>2026-05-01T11:16:26Z</time></trkpt><trkpt lat="44.67794762576227" lon="6.616261917169086"><ele>888.5</ele><time>2026-05-01T11:16:27Z</time></trkpt><trkpt lat="44.67781997144687" lon="6.616301313878223"><ele>888.75</ele><time>2026-05-01T11:16:28Z</time></trkpt><trkpt lat="44.67769805048578" lon="6.616352542522416"><ele>889.0</ele><time>2026-05-01T11:16:29Z</time></trkpt><trkpt lat="44.67758788704667" lon="6.616373838649423"><ele>889.0</ele><time>2026-05-01T11:16:30Z</time></trkpt><trkpt lat="44.67746335480026" lon="6.616418770497726"><ele>889.0</ele><time>2026-05-01T11:16:31Z</time></trkpt><trkpt lat="44.67735152676867" lon="6.616451886312763"><ele>889.0</ele><time>2026-05-01T11:16:32Z</time></trkpt><trkpt lat="44.67724132968336" lon="6.616469329155038"><ele>889.0</ele><time>2026-05-01T11:16:33Z</time></trkpt><trkpt lat="44.67713060532187" lon="6.616498112050813"><ele>889.0</ele><time>2026-05-01T11:16:34Z</time></trkpt><trkpt lat="44.677016141631086" lon="6.61653441297023"><ele>889.0</ele><time>2026-05-01T11:16:35Z</time></trkpt><trkpt lat="44.676893104414624" lon="6.61656294360464"><ele>889.0</ele><time>2026-05-01T11:16:36Z</time></trkpt><trkpt lat="44.676784854024376" lon="6.616590212264158"><ele>889.0</ele><time>2026-05-01T11:16:37Z</time></trkpt><trkpt lat="44.67667176114758" lon="6.616623984623121"><ele>888.75</ele><time>2026-05-01T11:16:38Z</time></trkpt><trkpt lat="44.67656191668074" lon="6.616649742292603"><ele>888.5</ele><time>2026-05-01T11:16:39Z</time></trkpt><trkpt lat="44.67644950036601" lon="6.616660337168461"><ele>888.25</ele><time>2026-05-01T11:16:40Z</time></trkpt><trkpt lat="44.676334269201575" lon="6.61663948559549"><ele>888.0</ele><time>2026-05-01T11:16:41Z</time></trkpt><trkpt lat="44.67621486583074" lon="6.6166704866434785"><ele>888.0</ele><time>2026-05-01T11:16:42Z</time></trkpt><trkpt lat="44.6761128382065" lon="6.616694749348939"><ele>888.0</ele><time>2026-05-01T11:16:43Z</time></trkpt><trkpt lat="44.67602768226119" lon="6.6167069514156385"><ele>888.0</ele><time>2026-05-01T11:16:44Z</time></trkpt><trkpt lat="44.67592821186704" lon="6.6167216514496685"><ele>888.0</ele><time>2026-05-01T11:16:45Z</time></trkpt><trkpt lat="44.67582416932895" lon="6.616747811180588"><ele>888.0</ele><time>2026-05-01T11:16:46Z</time></trkpt><trkpt lat="44.675725755138245" lon="6.616809956999585"><ele>887.75</ele><time>2026-05-01T11:16:47Z</time></trkpt><trkpt lat="44.675607281440605" lon="6.61689276173796"><ele>887.5</ele><time>2026-05-01T11:16:48Z</time></trkpt><trkpt lat="44.67549508139363" lon="6.616947781219407"><ele>887.25</ele><time>2026-05-01T11:16:49Z</time></trkpt><trkpt lat="44.67539653269634" lon="6.616996735698038"><ele>887.0</ele><time>2026-05-01T11:16:50Z</time></trkpt><trkpt lat="44.67528959052965" lon="6.617031167823752"><ele>887.2</ele><time>2026-05-01T11:16:51Z</time></trkpt><trkpt lat="44.67519057606208" lon="6.617045088754409"><ele>887.4000000000001</ele><time>2026-05-01T11:16:52Z</time></trkpt><trkpt lat="44.675097923046536" lon="6.617064724077364"><ele>887.5999999999999</ele><time>2026-05-01T11:16:53Z</time></trkpt><trkpt lat="44.674994662652544" lon="6.617082780973509"><ele>887.8</ele><time>2026-05-01T11:16:54Z</time></trkpt><trkpt lat="44.674888331105215" lon="6.6171065705085725"><ele>888.0</ele><time>2026-05-01T11:16:55Z</time></trkpt><trkpt lat="44.67477009540036" lon="6.617151259887113"><ele>888.0</ele><time>2026-05-01T11:16:56Z</time></trkpt><trkpt lat="44.6746444462699" lon="6.61717977710979"><ele>888.0</ele><time>2026-05-01T11:16:57Z</time></trkpt><trkpt lat="44.67453370023554" lon="6.617230149537092"><ele>888.0</ele><time>2026-05-01T11:16:58Z</time></trkpt><trkpt lat="44.67442281900509" lon="6.617263170666077"><ele>888.0</ele><time>2026-05-01T11:16:59Z</time></trkpt><trkpt lat="44.674310308093766" lon="6.617299615604891"><ele>888.0</ele><time>2026-05-01T11:17:00Z</time></trkpt><trkpt lat="44.67420351634682" lon="6.6173205987767485"><ele>888.0</ele><time>2026-05-01T11:17:01Z</time></trkpt><trkpt lat="44.674071332318654" lon="6.617353623694689"><ele>888.0</ele><time>2026-05-01T11:17:02Z</time></trkpt><trkpt lat="44.67395416909081" lon="6.617363418681406"><ele>888.0</ele><time>2026-05-01T11:17:03Z</time></trkpt><trkpt lat="44.67384632880788" lon="6.617393204262756"><ele>888.0</ele><time>2026-05-01T11:17:04Z</time></trkpt><trkpt lat="44.67372731605556" lon="6.617428002434448"><ele>888.0</ele><time>2026-05-01T11:17:05Z</time></trkpt><trkpt lat="44.6736223971932" lon="6.6174586796883865"><ele>888.0</ele><time>2026-05-01T11:17:06Z</time></trkpt><trkpt lat="44.67351153200588" lon="6.617491185712031"><ele>888.0</ele><time>2026-05-01T11:17:07Z</time></trkpt><trkpt lat="44.6733992083181" lon="6.617547622272921"><ele>888.0</ele><time>2026-05-01T11:17:08Z</time></trkpt><trkpt lat="44.673289418111224" lon="6.617532084525185"><ele>888.0</ele><time>2026-05-01T11:17:09Z</time></trkpt><trkpt lat="44.673175751443054" lon="6.617553373746471"><ele>888.0</ele><time>2026-05-01T11:17:10Z</time></trkpt><trkpt lat="44.673062738077604" lon="6.617605882800115"><ele>888.0</ele><time>2026-05-01T11:17:11Z</time></trkpt><trkpt lat="44.67295640970079" lon="6.617652154613452"><ele>888.0</ele><time>2026-05-01T11:17:12Z</time></trkpt><trkpt lat="44.672858328689074" lon="6.617677316201685"><ele>888.0</ele><time>2026-05-01T11:17:13Z</time></trkpt><trkpt lat="44.672749403203646" lon="6.617714189952138"><ele>888.0</ele><time>2026-05-01T11:17:14Z</time></trkpt><trkpt lat="44.67265718927686" lon="6.617740479909816"><ele>888.0</ele><time>2026-05-01T11:17:15Z</time></trkpt><trkpt lat="44.67254603001721" lon="6.617780994509444"><ele>888.0</ele><time>2026-05-01T11:17:16Z</time></trkpt><trkpt lat="44.672430874633456" lon="6.617800961880273"><ele>888.0</ele><time>2026-05-01T11:17:17Z</time></trkpt><trkpt lat="44.67232288400667" lon="6.61783594764239"><ele>888.0</ele><time>2026-05-01T11:17:18Z</time></trkpt><trkpt lat="44.67222541738266" lon="6.617863649134037"><ele>888.0</ele><time>2026-05-01T11:17:19Z</time></trkpt><trkpt lat="44.67212413392336" lon="6.617882741840844"><ele>888.0</ele><time>2026-05-01T11:17:20Z</time></trkpt><trkpt lat="44.67202616907169" lon="6.617927934391822"><ele>888.0</ele><time>2026-05-01T11:17:21Z</time></trkpt><trkpt lat="44.671916743078164" lon="6.617955442329274"><ele>888.75</ele><time>2026-05-01T11:17:22Z</time></trkpt><trkpt lat="44.671807205195115" lon="6.617995204932722"><ele>889.5</ele><time>2026-05-01T11:17:23Z</time></trkpt><trkpt lat="44.67169016870023" lon="6.618059793143022"><ele>890.25</ele><time>2026-05-01T11:17:24Z</time></trkpt><trkpt lat="44.67159380927152" lon="6.618100869717414"><ele>891.0</ele><time>2026-05-01T11:17:25Z</time></trkpt><trkpt lat="44.67148577010255" lon="6.618157766592598"><ele>891.0</ele><time>2026-05-01T11:17:26Z</time></trkpt><trkpt lat="44.67137714492493" lon="6.618187050282031"><ele>891.0</ele><time>2026-05-01T11:17:27Z</time></trkpt><trkpt lat="44.67125405086314" lon="6.618223086373679"><ele>891.0</ele><time>2026-05-01T11:17:28Z</time></trkpt><trkpt lat="44.671119935993175" lon="6.618234637702188"><ele>891.0</ele><time>2026-05-01T11:17:29Z</time></trkpt><trkpt lat="44.67099690219767" lon="6.618246003799062"><ele>890.75</ele><time>2026-05-01T11:17:30Z</time></trkpt><trkpt lat="44.67086325075296" lon="6.6182625706085725"><ele>890.5</ele><time>2026-05-01T11:17:31Z</time></trkpt><trkpt lat="44.670721573551724" lon="6.618294641129934"><ele>890.25</ele><time>2026-05-01T11:17:32Z</time></trkpt><trkpt lat="44.670576352083934" lon="6.618334367282112"><ele>890.0</ele><time>2026-05-01T11:17:33Z</time></trkpt><trkpt lat="44.67043927164131" lon="6.618362942670773"><ele>890.0</ele><time>2026-05-01T11:17:34Z</time></trkpt><trkpt lat="44.67029390169045" lon="6.618405905860504"><ele>890.0</ele><time>2026-05-01T11:17:35Z</time></trkpt><trkpt lat="44.67015084265811" lon="6.618455952324225"><ele>890.0</ele><time>2026-05-01T11:17:36Z</time></trkpt><trkpt lat="44.66999827870016" lon="6.618453838765776"><ele>890.0</ele><time>2026-05-01T11:17:37Z</time></trkpt><trkpt lat="44.66985007647643" lon="6.618465630827728"><ele>889.5</ele><time>2026-05-01T11:17:38Z</time></trkpt><trkpt lat="44.66970605783503" lon="6.618469529514539"><ele>889.0</ele><time>2026-05-01T11:17:39Z</time></trkpt><trkpt lat="44.669557131074946" lon="6.6184640289690115"><ele>888.5</ele><time>2026-05-01T11:17:40Z</time></trkpt><trkpt lat="44.66941508074244" lon="6.618452472864799"><ele>888.0</ele><time>2026-05-01T11:17:41Z</time></trkpt><trkpt lat="44.6692820947233" lon="6.618416943734163"><ele>888.0</ele><time>2026-05-01T11:17:42Z</time></trkpt><trkpt lat="44.669131776145356" lon="6.618407566153511"><ele>888.0</ele><time>2026-05-01T11:17:43Z</time></trkpt><trkpt lat="44.668988688193615" lon="6.6183616073236"><ele>888.0</ele><time>2026-05-01T11:17:44Z</time></trkpt><trkpt lat="44.668849524682535" lon="6.618320295010229"><ele>888.0</ele><time>2026-05-01T11:17:45Z</time></trkpt><trkpt lat="44.66869009583009" lon="6.618276550108283"><ele>888.0</ele><time>2026-05-01T11:17:46Z</time></trkpt><trkpt lat="44.66854182871735" lon="6.618229762796606"><ele>888.0</ele><time>2026-05-01T11:17:47Z</time></trkpt><trkpt lat="44.66839104491534" lon="6.618170710386978"><ele>888.0</ele><time>2026-05-01T11:17:48Z</time></trkpt><trkpt lat="44.66824304602505" lon="6.618078782758398"><ele>888.0</ele><time>2026-05-01T11:17:49Z</time></trkpt><trkpt lat="44.6680928117231" lon="6.617992942715175"><ele>888.0</ele><time>2026-05-01T11:17:50Z</time></trkpt><trkpt lat="44.66794930871982" lon="6.617901119139406"><ele>888.0</ele><time>2026-05-01T11:17:51Z</time></trkpt><trkpt lat="44.66781001457665" lon="6.617780792398163"><ele>888.6666666666667</ele><time>2026-05-01T11:17:52Z</time></trkpt><trkpt lat="44.66765678261541" lon="6.617685244350152"><ele>889.3333333333334</ele><time>2026-05-01T11:17:53Z</time></trkpt><trkpt lat="44.667513486583026" lon="6.617551398144594"><ele>890.0</ele><time>2026-05-01T11:17:54Z</time></trkpt><trkpt lat="44.66735930733514" lon="6.617402782701965"><ele>890.0</ele><time>2026-05-01T11:17:55Z</time></trkpt><trkpt lat="44.6671873718888" lon="6.617248684490519"><ele>890.0</ele><time>2026-05-01T11:17:56Z</time></trkpt><trkpt lat="44.667039483806015" lon="6.6170701122666316"><ele>890.0</ele><time>2026-05-01T11:17:57Z</time></trkpt><trkpt lat="44.66691083253012" lon="6.616885867862641"><ele>890.3333333333334</ele><time>2026-05-01T11:17:58Z</time></trkpt><trkpt lat="44.66677772793745" lon="6.616692215933667"><ele>890.6666666666667</ele><time>2026-05-01T11:17:59Z</time></trkpt><trkpt lat="44.66666174936227" lon="6.616489893496943"><ele>891.0</ele><time>2026-05-01T11:18:00Z</time></trkpt><trkpt lat="44.66654394896839" lon="6.616294438253222"><ele>891.0</ele><time>2026-05-01T11:18:01Z</time></trkpt><trkpt lat="44.666435340654694" lon="6.616121539226401"><ele>891.0</ele><time>2026-05-01T11:18:02Z</time></trkpt><trkpt lat="44.66635427586805" lon="6.615926460673058"><ele>891.0</ele><time>2026-05-01T11:18:03Z</time></trkpt><trkpt lat="44.6662665231284" lon="6.615754246816983"><ele>891.0</ele><time>2026-05-01T11:18:04Z</time></trkpt><trkpt lat="44.666170612175826" lon="6.615603275298798"><ele>891.0</ele><time>2026-05-01T11:18:05Z</time></trkpt><trkpt lat="44.66611433574484" lon="6.615450369279617"><ele>891.0</ele><time>2026-05-01T11:18:06Z</time></trkpt><trkpt lat="44.666052605001525" lon="6.615291618877105"><ele>891.0</ele><time>2026-05-01T11:18:07Z</time></trkpt><trkpt lat="44.66598459588374" lon="6.6151582932932245"><ele>891.0</ele><time>2026-05-01T11:18:08Z</time></trkpt><trkpt lat="44.665930536481" lon="6.615033978337597"><ele>890.9999999999999</ele><time>2026-05-01T11:18:09Z</time></trkpt><trkpt lat="44.66590337780745" lon="6.614902657656839"><ele>890.9999999999999</ele><time>2026-05-01T11:18:10Z</time></trkpt><trkpt lat="44.66587123654673" lon="6.614801979082256"><ele>891.0</ele><time>2026-05-01T11:18:11Z</time></trkpt><trkpt lat="44.66585664042738" lon="6.614669936620931"><ele>891.0</ele><time>2026-05-01T11:18:12Z</time></trkpt><trkpt lat="44.665839285129195" lon="6.614547366442283"><ele>891.0</ele><time>2026-05-01T11:18:13Z</time></trkpt><trkpt lat="44.66580239406138" lon="6.614441952589494"><ele>891.0</ele><time>2026-05-01T11:18:14Z</time></trkpt><trkpt lat="44.66574687177686" lon="6.614373180379224"><ele>891.0</ele><time>2026-05-01T11:18:15Z</time></trkpt><trkpt lat="44.66565698077541" lon="6.614345228726924"><ele>891.0</ele><time>2026-05-01T11:18:16Z</time></trkpt><trkpt lat="44.66557750416624" lon="6.614340863290271"><ele>891.0</ele><time>2026-05-01T11:18:17Z</time></trkpt><trkpt lat="44.66550529263536" lon="6.6144244939790635"><ele>891.0</ele><time>2026-05-01T11:18:18Z</time></trkpt><trkpt lat="44.66545713222908" lon="6.614506128862231"><ele>891.0</ele><time>2026-05-01T11:18:19Z</time></trkpt><trkpt lat="44.66542177259895" lon="6.61465687712036"><ele>891.0</ele><time>2026-05-01T11:18:20Z</time></trkpt><trkpt lat="44.66537381958704" lon="6.614795585803841"><ele>891.0</ele><time>2026-05-01T11:18:21Z</time></trkpt><trkpt lat="44.66530131287418" lon="6.614935407508417"><ele>891.0</ele><time>2026-05-01T11:18:22Z</time></trkpt><trkpt lat="44.665197481859735" lon="6.615076741516272"><ele>891.0</ele><time>2026-05-01T11:18:23Z</time></trkpt><trkpt lat="44.665051961556834" lon="6.615213735202958"><ele>891.0</ele><time>2026-05-01T11:18:24Z</time></trkpt><trkpt lat="44.664888906619964" lon="6.615355620211335"><ele>891.0</ele><time>2026-05-01T11:18:25Z</time></trkpt><trkpt lat="44.664711953987506" lon="6.615530929333907"><ele>891.0</ele><time>2026-05-01T11:18:26Z</time></trkpt><trkpt lat="44.664488410146454" lon="6.615753477908715"><ele>891.0</ele><time>2026-05-01T11:18:27Z</time></trkpt><trkpt lat="44.664269641390106" lon="6.6159721457338625"><ele>892.6666666666667</ele><time>2026-05-01T11:18:28Z</time></trkpt><trkpt lat="44.66408417532489" lon="6.6161585219064065"><ele>894.3333333333334</ele><time>2026-05-01T11:18:29Z</time></trkpt><trkpt lat="44.66390814062802" lon="6.616336327860475"><ele>896.0</ele><time>2026-05-01T11:18:30Z</time></trkpt><trkpt lat="44.66373985825046" lon="6.616503406431597"><ele>896.6666666666667</ele><time>2026-05-01T11:18:31Z</time></trkpt><trkpt lat="44.66358506060077" lon="6.616656335044884"><ele>897.3333333333333</ele><time>2026-05-01T11:18:32Z</time></trkpt><trkpt lat="44.663427674143946" lon="6.616811821319755"><ele>898.0</ele><time>2026-05-01T11:18:33Z</time></trkpt><trkpt lat="44.6632831222724" lon="6.616954955680203"><ele>898.5</ele><time>2026-05-01T11:18:34Z</time></trkpt><trkpt lat="44.66316182345889" lon="6.617074287696913"><ele>899.0</ele><time>2026-05-01T11:18:35Z</time></trkpt><trkpt lat="44.66306858187211" lon="6.617186535880479"><ele>899.5</ele><time>2026-05-01T11:18:36Z</time></trkpt><trkpt lat="44.66296509929884" lon="6.617290587676862"><ele>900.0</ele><time>2026-05-01T11:18:37Z</time></trkpt><trkpt lat="44.66285384344326" lon="6.6173966790304375"><ele>900.25</ele><time>2026-05-01T11:18:38Z</time></trkpt><trkpt lat="44.662744186925" lon="6.617496958928043"><ele>900.5</ele><time>2026-05-01T11:18:39Z</time></trkpt><trkpt lat="44.66264119553389" lon="6.617593443235376"><ele>900.75</ele><time>2026-05-01T11:18:40Z</time></trkpt><trkpt lat="44.66254456144575" lon="6.6176937840713475"><ele>901.0</ele><time>2026-05-01T11:18:41Z</time></trkpt><trkpt lat="44.66246540139347" lon="6.6177718043518805"><ele>901.0</ele><time>2026-05-01T11:18:42Z</time></trkpt><trkpt lat="44.66237744969476" lon="6.617846748164896"><ele>900.9999999999999</ele><time>2026-05-01T11:18:43Z</time></trkpt><trkpt lat="44.66229942349514" lon="6.617934456896901"><ele>900.9999999999999</ele><time>2026-05-01T11:18:44Z</time></trkpt><trkpt lat="44.66222389531064" lon="6.617997705263673"><ele>901.0</ele><time>2026-05-01T11:18:45Z</time></trkpt><trkpt lat="44.6621645956788" lon="6.618075559112657"><ele>901.0</ele><time>2026-05-01T11:18:46Z</time></trkpt><trkpt lat="44.662096711563954" lon="6.618140687380608"><ele>900.9999999999999</ele><time>2026-05-01T11:18:47Z</time></trkpt><trkpt lat="44.66203055340554" lon="6.618179934059374"><ele>901.0</ele><time>2026-05-01T11:18:48Z</time></trkpt><trkpt lat="44.6619665313379" lon="6.618232157527753"><ele>901.0</ele><time>2026-05-01T11:18:49Z</time></trkpt><trkpt lat="44.66186109792566" lon="6.618211000621271"><ele>901.0</ele><time>2026-05-01T11:18:51Z</time></trkpt><trkpt lat="44.661803240973406" lon="6.618257451647497"><ele>900.9999999999999</ele><time>2026-05-01T11:18:52Z</time></trkpt><trkpt lat="44.66175707583664" lon="6.618379543343715"><ele>901.0</ele><time>2026-05-01T11:18:54Z</time></trkpt><trkpt lat="44.66172138960009" lon="6.618458418655197"><ele>901.5999999999999</ele><time>2026-05-01T11:18:55Z</time></trkpt><trkpt lat="44.66166383961965" lon="6.618544547444211"><ele>902.1999999999999</ele><time>2026-05-01T11:18:56Z</time></trkpt><trkpt lat="44.66158879115837" lon="6.618652223328342"><ele>902.8000000000001</ele><time>2026-05-01T11:18:57Z</time></trkpt><trkpt lat="44.66149749651781" lon="6.618756814250474"><ele>903.4000000000001</ele><time>2026-05-01T11:18:58Z</time></trkpt><trkpt lat="44.66138118044725" lon="6.618864657399147"><ele>904.0</ele><time>2026-05-01T11:18:59Z</time></trkpt><trkpt lat="44.66125763320125" lon="6.618987631395264"><ele>904.6666666666666</ele><time>2026-05-01T11:19:00Z</time></trkpt><trkpt lat="44.661065764693966" lon="6.619190763055717"><ele>905.3333333333333</ele><time>2026-05-01T11:19:01Z</time></trkpt><trkpt lat="44.6608962320553" lon="6.619347518993027"><ele>906.0</ele><time>2026-05-01T11:19:02Z</time></trkpt><trkpt lat="44.66068849516893" lon="6.619522884267584"><ele>906.0</ele><time>2026-05-01T11:19:03Z</time></trkpt><trkpt lat="44.66050706974068" lon="6.619707223579264"><ele>906.0</ele><time>2026-05-01T11:19:04Z</time></trkpt><trkpt lat="44.660347999358166" lon="6.619894784697027"><ele>906.0</ele><time>2026-05-01T11:19:05Z</time></trkpt><trkpt lat="44.660211102440385" lon="6.620085927931911"><ele>906.6666666666667</ele><time>2026-05-01T11:19:06Z</time></trkpt><trkpt lat="44.66007195947282" lon="6.620310446147177"><ele>907.3333333333334</ele><time>2026-05-01T11:19:07Z</time></trkpt><trkpt lat="44.65995317406836" lon="6.6205470259441155"><ele>908.0</ele><time>2026-05-01T11:19:08Z</time></trkpt><trkpt lat="44.65983063289452" lon="6.620786633110402"><ele>908.0</ele><time>2026-05-01T11:19:09Z</time></trkpt><trkpt lat="44.65971807488269" lon="6.6210422688656285"><ele>908.0</ele><time>2026-05-01T11:19:10Z</time></trkpt><trkpt lat="44.659636936607825" lon="6.621296540422379"><ele>908.0</ele><time>2026-05-01T11:19:11Z</time></trkpt><trkpt lat="44.65956008136733" lon="6.621576236317369"><ele>908.0</ele><time>2026-05-01T11:19:12Z</time></trkpt><trkpt lat="44.65951225512844" lon="6.62184950457896"><ele>908.0</ele><time>2026-05-01T11:19:13Z</time></trkpt><trkpt lat="44.659456282184735" lon="6.6221343104027754"><ele>908.0</ele><time>2026-05-01T11:19:14Z</time></trkpt><trkpt lat="44.65942606161395" lon="6.622406474445766"><ele>909.6666666666667</ele><time>2026-05-01T11:19:15Z</time></trkpt><trkpt lat="44.659410663076116" lon="6.622690270288325"><ele>911.3333333333333</ele><time>2026-05-01T11:19:16Z</time></trkpt><trkpt lat="44.65940930944388" lon="6.622979249942039"><ele>913.0</ele><time>2026-05-01T11:19:17Z</time></trkpt><trkpt lat="44.65942000287484" lon="6.623265037256554"><ele>913.0</ele><time>2026-05-01T11:19:18Z</time></trkpt><trkpt lat="44.65944199300931" lon="6.623562748212669"><ele>913.0</ele><time>2026-05-01T11:19:19Z</time></trkpt><trkpt lat="44.65946893933146" lon="6.623850073270869"><ele>913.0</ele><time>2026-05-01T11:19:20Z</time></trkpt><trkpt lat="44.65947631296146" lon="6.624122867085501"><ele>911.6666666666666</ele><time>2026-05-01T11:19:21Z</time></trkpt><trkpt lat="44.65948446433762" lon="6.624408057735037"><ele>910.3333333333333</ele><time>2026-05-01T11:19:22Z</time></trkpt><trkpt lat="44.65949787377704" lon="6.624694435862493"><ele>909.0</ele><time>2026-05-01T11:19:23Z</time></trkpt><trkpt lat="44.65951531152959" lon="6.624989156078214"><ele>908.3333333333333</ele><time>2026-05-01T11:19:24Z</time></trkpt><trkpt lat="44.65954745811507" lon="6.6252765787056305"><ele>907.6666666666666</ele><time>2026-05-01T11:19:25Z</time></trkpt><trkpt lat="44.65956962569063" lon="6.625586573280819"><ele>907.0</ele><time>2026-05-01T11:19:26Z</time></trkpt><trkpt lat="44.659578956369174" lon="6.6258773569504195"><ele>909.3333333333333</ele><time>2026-05-01T11:19:27Z</time></trkpt><trkpt lat="44.65960595105824" lon="6.62616927326125"><ele>911.6666666666667</ele><time>2026-05-01T11:19:28Z</time></trkpt><trkpt lat="44.65961955632732" lon="6.626454520636199"><ele>914.0</ele><time>2026-05-01T11:19:29Z</time></trkpt><trkpt lat="44.65963572649741" lon="6.626734229897628"><ele>916.0</ele><time>2026-05-01T11:19:30Z</time></trkpt><trkpt lat="44.6596562414647" lon="6.627027852999853"><ele>918.0</ele><time>2026-05-01T11:19:31Z</time></trkpt><trkpt lat="44.65967051586762" lon="6.627321452923151"><ele>920.0</ele><time>2026-05-01T11:19:32Z</time></trkpt><trkpt lat="44.65969139219965" lon="6.627602872097583"><ele>921.3333333333334</ele><time>2026-05-01T11:19:33Z</time></trkpt><trkpt lat="44.6596995498911" lon="6.627896707805817"><ele>922.6666666666667</ele><time>2026-05-01T11:19:34Z</time></trkpt><trkpt lat="44.659729453203994" lon="6.628176222337098"><ele>924.0</ele><time>2026-05-01T11:19:35Z</time></trkpt><trkpt lat="44.659736434165474" lon="6.628475487872321"><ele>924.6666666666667</ele><time>2026-05-01T11:19:36Z</time></trkpt><trkpt lat="44.65975642101089" lon="6.6287568983881355"><ele>925.3333333333334</ele><time>2026-05-01T11:19:37Z</time></trkpt><trkpt lat="44.65976712989023" lon="6.629055666976068"><ele>926.0</ele><time>2026-05-01T11:19:38Z</time></trkpt><trkpt lat="44.65978332733268" lon="6.629354196473895"><ele>928.0</ele><time>2026-05-01T11:19:39Z</time></trkpt><trkpt lat="44.65978347981655" lon="6.629634034869945"><ele>930.0</ele><time>2026-05-01T11:19:40Z</time></trkpt><trkpt lat="44.65977308911566" lon="6.629892792076998"><ele>932.0</ele><time>2026-05-01T11:19:41Z</time></trkpt><trkpt lat="44.65974760660509" lon="6.630152184670905"><ele>934.0</ele><time>2026-05-01T11:19:42Z</time></trkpt><trkpt lat="44.659701014806004" lon="6.630407815038851"><ele>936.0</ele><time>2026-05-01T11:19:43Z</time></trkpt><trkpt lat="44.65966275064772" lon="6.630658470098665"><ele>938.0</ele><time>2026-05-01T11:19:44Z</time></trkpt><trkpt lat="44.65959014375241" lon="6.630904179582073"><ele>936.6666666666667</ele><time>2026-05-01T11:19:45Z</time></trkpt><trkpt lat="44.65951635630965" lon="6.631142333911647"><ele>935.3333333333333</ele><time>2026-05-01T11:19:46Z</time></trkpt><trkpt lat="44.65943508550489" lon="6.631372997837553"><ele>934.0</ele><time>2026-05-01T11:19:47Z</time></trkpt><trkpt lat="44.6593440030788" lon="6.63159519028659"><ele>934.0</ele><time>2026-05-01T11:19:48Z</time></trkpt><trkpt lat="44.659227026927596" lon="6.631792741995475"><ele>934.0</ele><time>2026-05-01T11:19:49Z</time></trkpt><trkpt lat="44.659111960711854" lon="6.631986258441331"><ele>934.0</ele><time>2026-05-01T11:19:50Z</time></trkpt><trkpt lat="44.65897504286164" lon="6.632188520788979"><ele>934.6666666666666</ele><time>2026-05-01T11:19:51Z</time></trkpt><trkpt lat="44.65882957183808" lon="6.632415531362823"><ele>935.3333333333333</ele><time>2026-05-01T11:19:52Z</time></trkpt><trkpt lat="44.658691496069736" lon="6.632593286683037"><ele>936.0</ele><time>2026-05-01T11:19:53Z</time></trkpt><trkpt lat="44.65857444859872" lon="6.6327751546166125"><ele>938.6666666666667</ele><time>2026-05-01T11:19:54Z</time></trkpt><trkpt lat="44.658479784082914" lon="6.63292360643936"><ele>941.3333333333334</ele><time>2026-05-01T11:19:55Z</time></trkpt><trkpt lat="44.65838352877584" lon="6.63310122755286"><ele>944.0</ele><time>2026-05-01T11:19:56Z</time></trkpt><trkpt lat="44.6583231591406" lon="6.633300224452519"><ele>944.0</ele><time>2026-05-01T11:19:57Z</time></trkpt><trkpt lat="44.658336095576345" lon="6.633487254910256"><ele>944.0</ele><time>2026-05-01T11:19:58Z</time></trkpt><trkpt lat="44.65836077453758" lon="6.6337239019766585"><ele>944.0</ele><time>2026-05-01T11:19:59Z</time></trkpt><trkpt lat="44.658419313967066" lon="6.633977323161516"><ele>943.6666666666667</ele><time>2026-05-01T11:20:00Z</time></trkpt><trkpt lat="44.658503772965915" lon="6.634161816561383"><ele>943.3333333333333</ele><time>2026-05-01T11:20:01Z</time></trkpt><trkpt lat="44.65858555555595" lon="6.634352182116616"><ele>943.0</ele><time>2026-05-01T11:20:02Z</time></trkpt><trkpt lat="44.65866337448698" lon="6.6345322372192745"><ele>946.0</ele><time>2026-05-01T11:20:03Z</time></trkpt><trkpt lat="44.658745786169774" lon="6.63472292052988"><ele>949.0</ele><time>2026-05-01T11:20:04Z</time></trkpt><trkpt lat="44.658811360434456" lon="6.634874645656944"><ele>952.0</ele><time>2026-05-01T11:20:05Z</time></trkpt><trkpt lat="44.658879522193025" lon="6.635032357666212"><ele>955.0</ele><time>2026-05-01T11:20:06Z</time></trkpt><trkpt lat="44.65892844116006" lon="6.6352007804692335"><ele>955.0</ele><time>2026-05-01T11:20:07Z</time></trkpt><trkpt lat="44.65896704017915" lon="6.635279651082634"><ele>955.0</ele><time>2026-05-01T11:20:08Z</time></trkpt><trkpt lat="44.65904395156938" lon="6.635394461737355"><ele>955.0</ele><time>2026-05-01T11:20:09Z</time></trkpt><trkpt lat="44.65910743531402" lon="6.635536570021981"><ele>955.0</ele><time>2026-05-01T11:20:10Z</time></trkpt><trkpt lat="44.659160783417384" lon="6.6356653192918635"><ele>955.0</ele><time>2026-05-01T11:20:11Z</time></trkpt><trkpt lat="44.659227708194756" lon="6.635824140566499"><ele>954.0</ele><time>2026-05-01T11:20:12Z</time></trkpt><trkpt lat="44.65929551202171" lon="6.635977597922116"><ele>953.0</ele><time>2026-05-01T11:20:13Z</time></trkpt><trkpt lat="44.659358783536064" lon="6.6361288894447386"><ele>952.0</ele><time>2026-05-01T11:20:14Z</time></trkpt><trkpt lat="44.65943718017295" lon="6.636291226691871"><ele>951.0</ele><time>2026-05-01T11:20:15Z</time></trkpt><trkpt lat="44.65951297017957" lon="6.6364507589697235"><ele>954.25</ele><time>2026-05-01T11:20:16Z</time></trkpt><trkpt lat="44.65957505951245" lon="6.636610102300398"><ele>957.5</ele><time>2026-05-01T11:20:17Z</time></trkpt><trkpt lat="44.65966015687131" lon="6.636771070603634"><ele>960.75</ele><time>2026-05-01T11:20:18Z</time></trkpt><trkpt lat="44.6597262923209" lon="6.636947069554671"><ele>964.0</ele><time>2026-05-01T11:20:19Z</time></trkpt><trkpt lat="44.6598076643351" lon="6.637109581568603"><ele>964.0</ele><time>2026-05-01T11:20:20Z</time></trkpt><trkpt lat="44.659844982332" lon="6.637282971926622"><ele>964.0</ele><time>2026-05-01T11:20:21Z</time></trkpt><trkpt lat="44.65987319071901" lon="6.637451012835069"><ele>964.0</ele><time>2026-05-01T11:20:22Z</time></trkpt><trkpt lat="44.65989234914784" lon="6.637641892748034"><ele>964.0</ele><time>2026-05-01T11:20:23Z</time></trkpt><trkpt lat="44.65985288504664" lon="6.637863909054796"><ele>965.25</ele><time>2026-05-01T11:20:24Z</time></trkpt><trkpt lat="44.65983518168584" lon="6.63805526668265"><ele>966.5</ele><time>2026-05-01T11:20:25Z</time></trkpt><trkpt lat="44.65982866810849" lon="6.638246163214089"><ele>967.75</ele><time>2026-05-01T11:20:26Z</time></trkpt><trkpt lat="44.65979462304739" lon="6.638417778805462"><ele>969.0</ele><time>2026-05-01T11:20:27Z</time></trkpt><trkpt lat="44.659753440293485" lon="6.638584798349306"><ele>969.0</ele><time>2026-05-01T11:20:28Z</time></trkpt><trkpt lat="44.659724716784005" lon="6.638771628202252"><ele>969.0</ele><time>2026-05-01T11:20:29Z</time></trkpt><trkpt lat="44.65971950670061" lon="6.638968706673095"><ele>969.0</ele><time>2026-05-01T11:20:30Z</time></trkpt><trkpt lat="44.65974280987385" lon="6.6391284920716185"><ele>969.0</ele><time>2026-05-01T11:20:31Z</time></trkpt><trkpt lat="44.65979266555162" lon="6.639306299472767"><ele>969.5</ele><time>2026-05-01T11:20:32Z</time></trkpt><trkpt lat="44.659811448365616" lon="6.639483103368111"><ele>970.0</ele><time>2026-05-01T11:20:33Z</time></trkpt><trkpt lat="44.65982879069227" lon="6.63964941249134"><ele>970.5</ele><time>2026-05-01T11:20:34Z</time></trkpt><trkpt lat="44.65987331486979" lon="6.639845047687873"><ele>971.0</ele><time>2026-05-01T11:20:35Z</time></trkpt><trkpt lat="44.65989836002057" lon="6.640050222607893"><ele>971.0</ele><time>2026-05-01T11:20:36Z</time></trkpt><trkpt lat="44.65992157269411" lon="6.64024737852924"><ele>971.0</ele><time>2026-05-01T11:20:37Z</time></trkpt><trkpt lat="44.65993469991912" lon="6.64043656569002"><ele>971.0</ele><time>2026-05-01T11:20:38Z</time></trkpt><trkpt lat="44.659940894982995" lon="6.640610286197101"><ele>971.0</ele><time>2026-05-01T11:20:39Z</time></trkpt><trkpt lat="44.65991230834622" lon="6.640793524057111"><ele>972.25</ele><time>2026-05-01T11:20:40Z</time></trkpt><trkpt lat="44.659848877424054" lon="6.640963965897281"><ele>973.5</ele><time>2026-05-01T11:20:41Z</time></trkpt><trkpt lat="44.65979724247226" lon="6.641108296621637"><ele>974.75</ele><time>2026-05-01T11:20:42Z</time></trkpt><trkpt lat="44.659738114932296" lon="6.641217938358232"><ele>976.0</ele><time>2026-05-01T11:20:43Z</time></trkpt><trkpt lat="44.659674084770415" lon="6.641329221361698"><ele>974.5</ele><time>2026-05-01T11:20:44Z</time></trkpt><trkpt lat="44.659556276633005" lon="6.641428182596114"><ele>973.0</ele><time>2026-05-01T11:20:45Z</time></trkpt><trkpt lat="44.65948637650022" lon="6.6415977172464835"><ele>971.5</ele><time>2026-05-01T11:20:47Z</time></trkpt><trkpt lat="44.65942496362691" lon="6.641709090761606"><ele>970.0</ele><time>2026-05-01T11:20:49Z</time></trkpt><trkpt lat="44.65935635566413" lon="6.641782143758605"><ele>970.0</ele><time>2026-05-01T11:20:50Z</time></trkpt><trkpt lat="44.65927937987858" lon="6.641864700238"><ele>970.0</ele><time>2026-05-01T11:20:51Z</time></trkpt><trkpt lat="44.65922626379574" lon="6.641954411320279"><ele>970.0</ele><time>2026-05-01T11:20:52Z</time></trkpt><trkpt lat="44.659160953847575" lon="6.642052117251212"><ele>970.0</ele><time>2026-05-01T11:20:53Z</time></trkpt><trkpt lat="44.65909220511987" lon="6.642142905395225"><ele>970.0</ele><time>2026-05-01T11:20:54Z</time></trkpt><trkpt lat="44.65900597389833" lon="6.642237218849886"><ele>971.0</ele><time>2026-05-01T11:20:55Z</time></trkpt><trkpt lat="44.658924303080234" lon="6.642341486722787"><ele>972.0</ele><time>2026-05-01T11:20:56Z</time></trkpt><trkpt lat="44.658818669276236" lon="6.642475442312219"><ele>973.0</ele><time>2026-05-01T11:20:57Z</time></trkpt><trkpt lat="44.658723777068886" lon="6.642593669192038"><ele>974.0</ele><time>2026-05-01T11:20:58Z</time></trkpt><trkpt lat="44.65862769041477" lon="6.642728478791483"><ele>972.0</ele><time>2026-05-01T11:20:59Z</time></trkpt><trkpt lat="44.6585520964859" lon="6.642882506804163"><ele>970.0</ele><time>2026-05-01T11:21:00Z</time></trkpt><trkpt lat="44.65846904837007" lon="6.643030394971158"><ele>968.0</ele><time>2026-05-01T11:21:01Z</time></trkpt><trkpt lat="44.658391631358604" lon="6.643190370150007"><ele>966.0</ele><time>2026-05-01T11:21:02Z</time></trkpt><trkpt lat="44.65832171422894" lon="6.643352595944707"><ele>966.0</ele><time>2026-05-01T11:21:03Z</time></trkpt><trkpt lat="44.65827475836371" lon="6.643550500196306"><ele>966.0</ele><time>2026-05-01T11:21:04Z</time></trkpt><trkpt lat="44.65822654243296" lon="6.6437380271424535"><ele>966.0</ele><time>2026-05-01T11:21:05Z</time></trkpt><trkpt lat="44.65819294197739" lon="6.6439342682303195"><ele>966.0</ele><time>2026-05-01T11:21:06Z</time></trkpt><trkpt lat="44.65814186783997" lon="6.6441565021795075"><ele>966.5</ele><time>2026-05-01T11:21:07Z</time></trkpt><trkpt lat="44.658089919557185" lon="6.644341825798736"><ele>967.0</ele><time>2026-05-01T11:21:08Z</time></trkpt><trkpt lat="44.65808075405411" lon="6.644496907867115"><ele>967.5</ele><time>2026-05-01T11:21:09Z</time></trkpt><trkpt lat="44.65805477802024" lon="6.644643322081686"><ele>968.0</ele><time>2026-05-01T11:21:10Z</time></trkpt><trkpt lat="44.65800937108951" lon="6.644757043751946"><ele>968.8</ele><time>2026-05-01T11:21:11Z</time></trkpt><trkpt lat="44.657985892491055" lon="6.644874299744123"><ele>969.5999999999999</ele><time>2026-05-01T11:21:12Z</time></trkpt><trkpt lat="44.65794336303761" lon="6.644996131033401"><ele>970.4000000000001</ele><time>2026-05-01T11:21:13Z</time></trkpt><trkpt lat="44.65786932293328" lon="6.645094459584075"><ele>971.2</ele><time>2026-05-01T11:21:14Z</time></trkpt><trkpt lat="44.65786758475598" lon="6.645281038995044"><ele>972.0</ele><time>2026-05-01T11:21:16Z</time></trkpt><trkpt lat="44.65788231943464" lon="6.645440880120921"><ele>973.5</ele><time>2026-05-01T11:21:17Z</time></trkpt><trkpt lat="44.65787246330151" lon="6.645611143969523"><ele>975.0</ele><time>2026-05-01T11:21:18Z</time></trkpt><trkpt lat="44.657861662217535" lon="6.645793980426374"><ele>976.5</ele><time>2026-05-01T11:21:19Z</time></trkpt><trkpt lat="44.657873951753544" lon="6.646017509802642"><ele>978.0</ele><time>2026-05-01T11:21:20Z</time></trkpt><trkpt lat="44.65789357142546" lon="6.646230762852093"><ele>980.3333333333333</ele><time>2026-05-01T11:21:21Z</time></trkpt><trkpt lat="44.65791836410973" lon="6.646446212268134"><ele>982.6666666666666</ele><time>2026-05-01T11:21:22Z</time></trkpt><trkpt lat="44.65794661361372" lon="6.646665855566662"><ele>985.0</ele><time>2026-05-01T11:21:23Z</time></trkpt><trkpt lat="44.65796791142208" lon="6.646891916120717"><ele>986.6666666666666</ele><time>2026-05-01T11:21:24Z</time></trkpt><trkpt lat="44.658008023688794" lon="6.647135386514018"><ele>988.3333333333333</ele><time>2026-05-01T11:21:25Z</time></trkpt><trkpt lat="44.65805178840411" lon="6.647386893339267"><ele>990.0</ele><time>2026-05-01T11:21:26Z</time></trkpt><trkpt lat="44.658098484979135" lon="6.647610173748193"><ele>991.6666666666667</ele><time>2026-05-01T11:21:27Z</time></trkpt><trkpt lat="44.65813045389127" lon="6.647841951019425"><ele>993.3333333333334</ele><time>2026-05-01T11:21:28Z</time></trkpt><trkpt lat="44.65816024867392" lon="6.648060730589978"><ele>995.0</ele><time>2026-05-01T11:21:29Z</time></trkpt><trkpt lat="44.65818659372358" lon="6.64825556221878"><ele>995.0</ele><time>2026-05-01T11:21:30Z</time></trkpt><trkpt lat="44.65819344490882" lon="6.648476675564659"><ele>995.0</ele><time>2026-05-01T11:21:31Z</time></trkpt><trkpt lat="44.65821431721902" lon="6.6486820290315185"><ele>995.0</ele><time>2026-05-01T11:21:32Z</time></trkpt><trkpt lat="44.65827008344371" lon="6.6488885906795785"><ele>997.6666666666667</ele><time>2026-05-01T11:21:33Z</time></trkpt><trkpt lat="44.65829240723177" lon="6.649133496976226"><ele>1000.3333333333333</ele><time>2026-05-01T11:21:34Z</time></trkpt><trkpt lat="44.65833566171014" lon="6.649330887500106"><ele>1003.0</ele><time>2026-05-01T11:21:35Z</time></trkpt><trkpt lat="44.6583733934308" lon="6.649535302229529"><ele>1003.75</ele><time>2026-05-01T11:21:36Z</time></trkpt><trkpt lat="44.65839525204364" lon="6.64973409627582"><ele>1004.5</ele><time>2026-05-01T11:21:37Z</time></trkpt><trkpt lat="44.658398401330615" lon="6.649909187852992"><ele>1005.25</ele><time>2026-05-01T11:21:38Z</time></trkpt><trkpt lat="44.658362344573334" lon="6.6500781616322024"><ele>1006.0</ele><time>2026-05-01T11:21:39Z</time></trkpt><trkpt lat="44.65831316802608" lon="6.65021759671538"><ele>1007.0</ele><time>2026-05-01T11:21:40Z</time></trkpt><trkpt lat="44.65821423858682" lon="6.650316253715573"><ele>1008.0</ele><time>2026-05-01T11:21:41Z</time></trkpt><trkpt lat="44.65812167943974" lon="6.650405798752676"><ele>1009.0</ele><time>2026-05-01T11:21:42Z</time></trkpt><trkpt lat="44.657992736755304" lon="6.650502987678446"><ele>1010.0</ele><time>2026-05-01T11:21:43Z</time></trkpt><trkpt lat="44.657859511370326" lon="6.650607195146577"><ele>1010.6666666666667</ele><time>2026-05-01T11:21:44Z</time></trkpt><trkpt lat="44.6577382394529" lon="6.6507030324996235"><ele>1011.3333333333333</ele><time>2026-05-01T11:21:45Z</time></trkpt><trkpt lat="44.65756510327103" lon="6.650848601550704"><ele>1012.0</ele><time>2026-05-01T11:21:46Z</time></trkpt><trkpt lat="44.6574243207739" lon="6.650971796751562"><ele>1012.0</ele><time>2026-05-01T11:21:47Z</time></trkpt><trkpt lat="44.65731506149518" lon="6.651078742868709"><ele>1012.0</ele><time>2026-05-01T11:21:48Z</time></trkpt><trkpt lat="44.65723654473123" lon="6.651189027245841"><ele>1012.0</ele><time>2026-05-01T11:21:49Z</time></trkpt><trkpt lat="44.6571076970518" lon="6.651269526356477"><ele>1012.0</ele><time>2026-05-01T11:21:50Z</time></trkpt><trkpt lat="44.6569933622172" lon="6.651311777248599"><ele>1013.2</ele><time>2026-05-01T11:21:51Z</time></trkpt><trkpt lat="44.65689244050327" lon="6.651397757941293"><ele>1014.4000000000001</ele><time>2026-05-01T11:21:52Z</time></trkpt><trkpt lat="44.65681118496613" lon="6.6515095803423065"><ele>1015.5999999999999</ele><time>2026-05-01T11:21:53Z</time></trkpt><trkpt lat="44.65673905361732" lon="6.651573791735053"><ele>1016.8</ele><time>2026-05-01T11:21:54Z</time></trkpt><trkpt lat="44.656649025113445" lon="6.651647434632217"><ele>1018.0</ele><time>2026-05-01T11:21:55Z</time></trkpt><trkpt lat="44.65661937830099" lon="6.651836869149488"><ele>1019.8</ele><time>2026-05-01T11:21:57Z</time></trkpt><trkpt lat="44.65657836326905" lon="6.651968197097199"><ele>1021.5999999999999</ele><time>2026-05-01T11:21:58Z</time></trkpt><trkpt lat="44.65652804598826" lon="6.652086090896555"><ele>1023.4000000000001</ele><time>2026-05-01T11:21:59Z</time></trkpt><trkpt lat="44.65642830567496" lon="6.652148046111482"><ele>1025.2</ele><time>2026-05-01T11:22:00Z</time></trkpt><trkpt lat="44.65633697037012" lon="6.652211487235392"><ele>1027.0</ele><time>2026-05-01T11:22:01Z</time></trkpt><trkpt lat="44.65620792401723" lon="6.652294645540243"><ele>1027.3333333333333</ele><time>2026-05-01T11:22:02Z</time></trkpt><trkpt lat="44.65604879759397" lon="6.6523922634635255"><ele>1027.6666666666667</ele><time>2026-05-01T11:22:03Z</time></trkpt><trkpt lat="44.65588635323585" lon="6.652490885376371"><ele>1028.0</ele><time>2026-05-01T11:22:04Z</time></trkpt><trkpt lat="44.655750983018635" lon="6.65256041612797"><ele>1028.0</ele><time>2026-05-01T11:22:05Z</time></trkpt><trkpt lat="44.65563159837592" lon="6.65259377180715"><ele>1028.0</ele><time>2026-05-01T11:22:06Z</time></trkpt><trkpt lat="44.65553586504511" lon="6.652597033093835"><ele>1028.0</ele><time>2026-05-01T11:22:07Z</time></trkpt><trkpt lat="44.65541407645323" lon="6.652564553636354"><ele>1028.0</ele><time>2026-05-01T11:22:08Z</time></trkpt><trkpt lat="44.65531575576954" lon="6.65250096160812"><ele>1029.3333333333335</ele><time>2026-05-01T11:22:09Z</time></trkpt><trkpt lat="44.655247245003665" lon="6.652414699191909"><ele>1030.6666666666667</ele><time>2026-05-01T11:22:10Z</time></trkpt><trkpt lat="44.655189846709106" lon="6.652314822322794"><ele>1032.0</ele><time>2026-05-01T11:22:11Z</time></trkpt><trkpt lat="44.65513495646058" lon="6.652225178951736"><ele>1033.3333333333333</ele><time>2026-05-01T11:22:12Z</time></trkpt><trkpt lat="44.65506855021355" lon="6.652109318608965"><ele>1034.6666666666665</ele><time>2026-05-01T11:22:14Z</time></trkpt><trkpt lat="44.65503767156698" lon="6.652027346853579"><ele>1036.0</ele><time>2026-05-01T11:22:20Z</time></trkpt><trkpt lat="44.65503074560468" lon="6.651876501901041"><ele>1037.0</ele><time>2026-05-01T11:22:23Z</time></trkpt><trkpt lat="44.65503738816788" lon="6.651732424244406"><ele>1038.0</ele><time>2026-05-01T11:22:24Z</time></trkpt><trkpt lat="44.65504624333009" lon="6.651643232928683"><ele>1039.0</ele><time>2026-05-01T11:22:25Z</time></trkpt><trkpt lat="44.65514096020609" lon="6.651547815672577"><ele>1040.0</ele><time>2026-05-01T11:22:27Z</time></trkpt><trkpt lat="44.655225323560025" lon="6.651475784038174"><ele>1041.0</ele><time>2026-05-01T11:22:28Z</time></trkpt><trkpt lat="44.655325190635715" lon="6.6513901844224685"><ele>1039.5</ele><time>2026-05-01T11:22:29Z</time></trkpt><trkpt lat="44.65541527184992" lon="6.651355057658301"><ele>1038.0</ele><time>2026-05-01T11:22:30Z</time></trkpt><trkpt lat="44.655482834214986" lon="6.651280186846889"><ele>1036.5</ele><time>2026-05-01T11:22:31Z</time></trkpt><trkpt lat="44.65555140494443" lon="6.651221838209476"><ele>1035.0</ele><time>2026-05-01T11:22:32Z</time></trkpt><trkpt lat="44.655589134996816" lon="6.651101831605392"><ele>1033.5</ele><time>2026-05-01T11:22:33Z</time></trkpt><trkpt lat="44.65563105825382" lon="6.65098939746809"><ele>1032.0</ele><time>2026-05-01T11:22:34Z</time></trkpt><trkpt lat="44.65562885041015" lon="6.650872226709501"><ele>1032.0</ele><time>2026-05-01T11:22:35Z</time></trkpt><trkpt lat="44.655632917552325" lon="6.65073591960957"><ele>1032.0</ele><time>2026-05-01T11:22:36Z</time></trkpt><trkpt lat="44.65559571532342" lon="6.650599714590421"><ele>1032.0</ele><time>2026-05-01T11:22:37Z</time></trkpt><trkpt lat="44.65550182481295" lon="6.650513557756221"><ele>1032.0</ele><time>2026-05-01T11:22:38Z</time></trkpt><trkpt lat="44.65537802129867" lon="6.650428649339756"><ele>1036.6666666666667</ele><time>2026-05-01T11:22:39Z</time></trkpt><trkpt lat="44.655281554055705" lon="6.650227637786402"><ele>1041.3333333333335</ele><time>2026-05-01T11:22:40Z</time></trkpt><trkpt lat="44.65519938634401" lon="6.649964679497284"><ele>1046.0</ele><time>2026-05-01T11:22:41Z</time></trkpt><trkpt lat="44.65512874433227" lon="6.649832491114166"><ele>1046.0</ele><time>2026-05-01T11:22:42Z</time></trkpt><trkpt lat="44.65505308865757" lon="6.64970120257363"><ele>1046.0</ele><time>2026-05-01T11:22:43Z</time></trkpt><trkpt lat="44.65492874123961" lon="6.649609189700347"><ele>1046.0</ele><time>2026-05-01T11:22:44Z</time></trkpt><trkpt lat="44.65477446430159" lon="6.649549276725153"><ele>1046.0</ele><time>2026-05-01T11:22:45Z</time></trkpt><trkpt lat="44.65462875434845" lon="6.649523060271305"><ele>1046.0</ele><time>2026-05-01T11:22:46Z</time></trkpt><trkpt lat="44.65451499325859" lon="6.649520582480895"><ele>1046.0</ele><time>2026-05-01T11:22:47Z</time></trkpt><trkpt lat="44.65432393242135" lon="6.649491305576205"><ele>1046.0</ele><time>2026-05-01T11:22:48Z</time></trkpt><trkpt lat="44.65411518302857" lon="6.649499565579818"><ele>1044.5</ele><time>2026-05-01T11:22:49Z</time></trkpt><trkpt lat="44.6539857027514" lon="6.6494487614121525"><ele>1043.0</ele><time>2026-05-01T11:22:50Z</time></trkpt><trkpt lat="44.65387642394462" lon="6.649428457345004"><ele>1041.5</ele><time>2026-05-01T11:22:51Z</time></trkpt><trkpt lat="44.65376504821443" lon="6.649550390492022"><ele>1040.0</ele><time>2026-05-01T11:22:52Z</time></trkpt><trkpt lat="44.65369380089881" lon="6.649713127420239"><ele>1043.6</ele><time>2026-05-01T11:22:53Z</time></trkpt><trkpt lat="44.65366258002339" lon="6.649796425662351"><ele>1047.2</ele><time>2026-05-01T11:22:54Z</time></trkpt><trkpt lat="44.653674047113306" lon="6.649915184434204"><ele>1050.8</ele><time>2026-05-01T11:22:55Z</time></trkpt><trkpt lat="44.65368731452268" lon="6.6500413250243655"><ele>1054.4</ele><time>2026-05-01T11:22:56Z</time></trkpt><trkpt lat="44.653771544194974" lon="6.650157241646924"><ele>1058.0</ele><time>2026-05-01T11:22:57Z</time></trkpt><trkpt lat="44.653951886167505" lon="6.650305968926744"><ele>1061.6666666666667</ele><time>2026-05-01T11:22:58Z</time></trkpt><trkpt lat="44.654123671873485" lon="6.650445801468778"><ele>1065.3333333333333</ele><time>2026-05-01T11:22:59Z</time></trkpt><trkpt lat="44.654205217722065" lon="6.650615322776905"><ele>1069.0</ele><time>2026-05-01T11:23:00Z</time></trkpt><trkpt lat="44.65422888468108" lon="6.650808448106343"><ele>1069.0</ele><time>2026-05-01T11:23:01Z</time></trkpt><trkpt lat="44.65428473749505" lon="6.650977225030482"><ele>1069.0</ele><time>2026-05-01T11:23:02Z</time></trkpt><trkpt lat="44.6542651135304" lon="6.651172276918794"><ele>1069.0</ele><time>2026-05-01T11:23:03Z</time></trkpt><trkpt lat="44.65425779980771" lon="6.65137400763371"><ele>1069.0</ele><time>2026-05-01T11:23:04Z</time></trkpt><trkpt lat="44.65423965327237" lon="6.651596441623772"><ele>1068.3333333333333</ele><time>2026-05-01T11:23:05Z</time></trkpt><trkpt lat="44.65412341794089" lon="6.651785900266842"><ele>1067.6666666666667</ele><time>2026-05-01T11:23:06Z</time></trkpt><trkpt lat="44.654018793653925" lon="6.65194095836631"><ele>1067.0</ele><time>2026-05-01T11:23:07Z</time></trkpt><trkpt lat="44.65387686110905" lon="6.652067867370213"><ele>1064.75</ele><time>2026-05-01T11:23:08Z</time></trkpt><trkpt lat="44.65377634590636" lon="6.652140073976636"><ele>1062.5</ele><time>2026-05-01T11:23:09Z</time></trkpt><trkpt lat="44.6536615594838" lon="6.652173801161862"><ele>1060.25</ele><time>2026-05-01T11:23:10Z</time></trkpt><trkpt lat="44.653552193085424" lon="6.65215169892086"><ele>1058.0</ele><time>2026-05-01T11:23:11Z</time></trkpt><trkpt lat="44.65345677602621" lon="6.652064755320935"><ele>1064.5</ele><time>2026-05-01T11:23:12Z</time></trkpt><trkpt lat="44.65338473577659" lon="6.651854179285085"><ele>1071.0</ele><time>2026-05-01T11:23:13Z</time></trkpt><trkpt lat="44.653355758875435" lon="6.651700917689351"><ele>1077.5</ele><time>2026-05-01T11:23:14Z</time></trkpt><trkpt lat="44.65332972476109" lon="6.651524166961103"><ele>1084.0</ele><time>2026-05-01T11:23:15Z</time></trkpt><trkpt lat="44.65329903068329" lon="6.651321837900937"><ele>1084.3333333333333</ele><time>2026-05-01T11:23:16Z</time></trkpt><trkpt lat="44.653267536279365" lon="6.651116724085013"><ele>1084.6666666666667</ele><time>2026-05-01T11:23:17Z</time></trkpt><trkpt lat="44.65323153794335" lon="6.650885414546471"><ele>1085.0</ele><time>2026-05-01T11:23:18Z</time></trkpt><trkpt lat="44.65318304770971" lon="6.650594435400567"><ele>1085.0</ele><time>2026-05-01T11:23:19Z</time></trkpt><trkpt lat="44.653139633628044" lon="6.650320085923813"><ele>1085.0</ele><time>2026-05-01T11:23:20Z</time></trkpt><trkpt lat="44.65309630163735" lon="6.650110085413555"><ele>1085.0</ele><time>2026-05-01T11:23:21Z</time></trkpt><trkpt lat="44.65302920099525" lon="6.649946645867805"><ele>1083.0</ele><time>2026-05-01T11:23:22Z</time></trkpt><trkpt lat="44.652862382210586" lon="6.649806138289249"><ele>1081.0</ele><time>2026-05-01T11:23:24Z</time></trkpt><trkpt lat="44.65268982392521" lon="6.64986442357678"><ele>1079.0</ele><time>2026-05-01T11:23:25Z</time></trkpt><trkpt lat="44.65254322820068" lon="6.6500058010533225"><ele>1083.0</ele><time>2026-05-01T11:23:26Z</time></trkpt><trkpt lat="44.652408797764735" lon="6.650095167207353"><ele>1087.0</ele><time>2026-05-01T11:23:27Z</time></trkpt><trkpt lat="44.65227268061642" lon="6.650175341693536"><ele>1091.0</ele><time>2026-05-01T11:23:28Z</time></trkpt><trkpt lat="44.65211885756392" lon="6.650272407908104"><ele>1097.3333333333335</ele><time>2026-05-01T11:23:29Z</time></trkpt><trkpt lat="44.65194020385714" lon="6.6503281207772815"><ele>1103.6666666666667</ele><time>2026-05-01T11:23:30Z</time></trkpt><trkpt lat="44.65172917110083" lon="6.6504142454859885"><ele>1110.0</ele><time>2026-05-01T11:23:31Z</time></trkpt><trkpt lat="44.65154755566036" lon="6.650481528004796"><ele>1110.0</ele><time>2026-05-01T11:23:32Z</time></trkpt><trkpt lat="44.651386889091775" lon="6.650541135200501"><ele>1110.0</ele><time>2026-05-01T11:23:33Z</time></trkpt><trkpt lat="44.65126359794732" lon="6.6505841802685515"><ele>1110.0</ele><time>2026-05-01T11:23:34Z</time></trkpt><trkpt lat="44.65110521803651" lon="6.650523598512775"><ele>1109.5</ele><time>2026-05-01T11:23:35Z</time></trkpt><trkpt lat="44.65092179214165" lon="6.650489039596145"><ele>1109.0</ele><time>2026-05-01T11:23:36Z</time></trkpt><trkpt lat="44.65080866024877" lon="6.650462766444555"><ele>1108.5</ele><time>2026-05-01T11:23:37Z</time></trkpt><trkpt lat="44.65069677202951" lon="6.650466385543076"><ele>1108.0</ele><time>2026-05-01T11:23:38Z</time></trkpt><trkpt lat="44.65059528383074" lon="6.65054901101142"><ele>1108.0</ele><time>2026-05-01T11:23:39Z</time></trkpt><trkpt lat="44.65049543521089" lon="6.650679661807792"><ele>1108.0</ele><time>2026-05-01T11:23:40Z</time></trkpt><trkpt lat="44.65041951531948" lon="6.650893921107267"><ele>1108.0</ele><time>2026-05-01T11:23:41Z</time></trkpt><trkpt lat="44.65038517462333" lon="6.651073840196049"><ele>1108.0</ele><time>2026-05-01T11:23:42Z</time></trkpt><trkpt lat="44.65039657485928" lon="6.651262275514778"><ele>1112.3333333333333</ele><time>2026-05-01T11:23:43Z</time></trkpt><trkpt lat="44.650436460451985" lon="6.6514509872967755"><ele>1116.6666666666667</ele><time>2026-05-01T11:23:44Z</time></trkpt><trkpt lat="44.65050072133717" lon="6.651706908146844"><ele>1121.0</ele><time>2026-05-01T11:23:45Z</time></trkpt><trkpt lat="44.65053702874711" lon="6.651921951310996"><ele>1123.25</ele><time>2026-05-01T11:23:46Z</time></trkpt><trkpt lat="44.65055453541232" lon="6.65211560334888"><ele>1125.5</ele><time>2026-05-01T11:23:47Z</time></trkpt><trkpt lat="44.650541059491374" lon="6.65231963197705"><ele>1127.75</ele><time>2026-05-01T11:23:48Z</time></trkpt><trkpt lat="44.650456730374074" lon="6.652507322673651"><ele>1130.0</ele><time>2026-05-01T11:23:49Z</time></trkpt><trkpt lat="44.65035791640402" lon="6.652665829344303"><ele>1129.6666666666667</ele><time>2026-05-01T11:23:50Z</time></trkpt><trkpt lat="44.65022038956689" lon="6.652825415479856"><ele>1129.3333333333333</ele><time>2026-05-01T11:23:51Z</time></trkpt><trkpt lat="44.65011857154056" lon="6.652977754169269"><ele>1129.0</ele><time>2026-05-01T11:23:52Z</time></trkpt><trkpt lat="44.65002960665886" lon="6.653154288065663"><ele>1129.0</ele><time>2026-05-01T11:23:53Z</time></trkpt><trkpt lat="44.64999100582649" lon="6.65329171440348"><ele>1129.0</ele><time>2026-05-01T11:23:54Z</time></trkpt><trkpt lat="44.64998914282616" lon="6.653512504974607"><ele>1129.0</ele><time>2026-05-01T11:23:55Z</time></trkpt><trkpt lat="44.65000713562802" lon="6.653749622472321"><ele>1129.0</ele><time>2026-05-01T11:23:56Z</time></trkpt><trkpt lat="44.650025630821006" lon="6.65400272424561"><ele>1130.5</ele><time>2026-05-01T11:23:57Z</time></trkpt><trkpt lat="44.64999719739414" lon="6.654191361164463"><ele>1132.0</ele><time>2026-05-01T11:23:58Z</time></trkpt><trkpt lat="44.649985163193904" lon="6.654359345906487"><ele>1133.5</ele><time>2026-05-01T11:23:59Z</time></trkpt><trkpt lat="44.64988893979724" lon="6.654489562654567"><ele>1135.0</ele><time>2026-05-01T11:24:00Z</time></trkpt><trkpt lat="44.649747074829435" lon="6.654593584173543"><ele>1135.0</ele><time>2026-05-01T11:24:01Z</time></trkpt><trkpt lat="44.64959177717866" lon="6.654677603728997"><ele>1135.0</ele><time>2026-05-01T11:24:02Z</time></trkpt><trkpt lat="44.64944552148077" lon="6.654680965977628"><ele>1135.0</ele><time>2026-05-01T11:24:03Z</time></trkpt><trkpt lat="44.64921564388996" lon="6.654768021119243"><ele>1138.6666666666665</ele><time>2026-05-01T11:24:04Z</time></trkpt><trkpt lat="44.64905927437813" lon="6.654916812665854"><ele>1142.3333333333333</ele><time>2026-05-01T11:24:05Z</time></trkpt><trkpt lat="44.64889539493507" lon="6.655027544389725"><ele>1146.0</ele><time>2026-05-01T11:24:06Z</time></trkpt><trkpt lat="44.64871470482161" lon="6.655162956169358"><ele>1147.0</ele><time>2026-05-01T11:24:07Z</time></trkpt><trkpt lat="44.64855128263368" lon="6.655259817978358"><ele>1148.0</ele><time>2026-05-01T11:24:08Z</time></trkpt><trkpt lat="44.648359163112566" lon="6.65531187060234"><ele>1149.0</ele><time>2026-05-01T11:24:09Z</time></trkpt><trkpt lat="44.64814867423684" lon="6.655330058699239"><ele>1152.0</ele><time>2026-05-01T11:24:10Z</time></trkpt><trkpt lat="44.64793598878837" lon="6.655358148457273"><ele>1155.0</ele><time>2026-05-01T11:24:11Z</time></trkpt><trkpt lat="44.647731764344535" lon="6.655426788416767"><ele>1158.0</ele><time>2026-05-01T11:24:12Z</time></trkpt><trkpt lat="44.64751433109517" lon="6.655511727484772"><ele>1163.3333333333333</ele><time>2026-05-01T11:24:13Z</time></trkpt><trkpt lat="44.64730013698632" lon="6.655560861199355"><ele>1168.6666666666665</ele><time>2026-05-01T11:24:14Z</time></trkpt><trkpt lat="44.64709846472318" lon="6.655575817850266"><ele>1174.0</ele><time>2026-05-01T11:24:15Z</time></trkpt><trkpt lat="44.64696207587084" lon="6.655581813581735"><ele>1177.0</ele><time>2026-05-01T11:24:16Z</time></trkpt><trkpt lat="44.646791933157935" lon="6.655586324843265"><ele>1180.0</ele><time>2026-05-01T11:24:17Z</time></trkpt><trkpt lat="44.646589923338766" lon="6.655571500468461"><ele>1183.0</ele><time>2026-05-01T11:24:18Z</time></trkpt><trkpt lat="44.64636276241969" lon="6.655530463483353"><ele>1183.0</ele><time>2026-05-01T11:24:19Z</time></trkpt><trkpt lat="44.64614728762016" lon="6.65549254813896"><ele>1183.0</ele><time>2026-05-01T11:24:20Z</time></trkpt><trkpt lat="44.64595038493652" lon="6.65546127566004"><ele>1183.0</ele><time>2026-05-01T11:24:21Z</time></trkpt><trkpt lat="44.64575228105061" lon="6.6554370098800515"><ele>1185.75</ele><time>2026-05-01T11:24:22Z</time></trkpt><trkpt lat="44.64557056477465" lon="6.655457331422923"><ele>1188.5</ele><time>2026-05-01T11:24:23Z</time></trkpt><trkpt lat="44.64550254183926" lon="6.655441693713788"><ele>1191.25</ele><time>2026-05-01T11:24:24Z</time></trkpt><trkpt lat="44.64543450361308" lon="6.655532804447543"><ele>1194.0</ele><time>2026-05-01T11:24:25Z</time></trkpt><trkpt lat="44.645334763188814" lon="6.655674224134682"><ele>1191.75</ele><time>2026-05-01T11:24:26Z</time></trkpt><trkpt lat="44.645215803826304" lon="6.655764372822376"><ele>1189.5</ele><time>2026-05-01T11:24:27Z</time></trkpt><trkpt lat="44.64508154983133" lon="6.655845051007388"><ele>1187.25</ele><time>2026-05-01T11:24:28Z</time></trkpt><trkpt lat="44.64494745280375" lon="6.655965048577668"><ele>1185.0</ele><time>2026-05-01T11:24:29Z</time></trkpt><trkpt lat="44.644804771430614" lon="6.656117843666258"><ele>1193.0</ele><time>2026-05-01T11:24:30Z</time></trkpt><trkpt lat="44.6445638487453" lon="6.656302788930375"><ele>1201.0</ele><time>2026-05-01T11:24:31Z</time></trkpt><trkpt lat="44.644347414634375" lon="6.656555531927867"><ele>1201.0</ele><time>2026-05-01T11:24:32Z</time></trkpt><trkpt lat="44.644175514276064" lon="6.656658221700768"><ele>1201.0</ele><time>2026-05-01T11:24:33Z</time></trkpt><trkpt lat="44.64399839880501" lon="6.656728205912261"><ele>1201.0</ele><time>2026-05-01T11:24:34Z</time></trkpt><trkpt lat="44.64384231748989" lon="6.656801480372382"><ele>1201.0</ele><time>2026-05-01T11:24:35Z</time></trkpt><trkpt lat="44.643744528730046" lon="6.656885163903673"><ele>1201.0</ele><time>2026-05-01T11:24:36Z</time></trkpt><trkpt lat="44.64366200695403" lon="6.657000960696392"><ele>1201.0</ele><time>2026-05-01T11:24:37Z</time></trkpt><trkpt lat="44.64362139374777" lon="6.657080819487876"><ele>1201.0</ele><time>2026-05-01T11:24:38Z</time></trkpt><trkpt lat="44.64362988152402" lon="6.657248164786323"><ele>1201.0</ele><time>2026-05-01T11:24:40Z</time></trkpt><trkpt lat="44.643630168295225" lon="6.657341348283169"><ele>1205.25</ele><time>2026-05-01T11:24:41Z</time></trkpt><trkpt lat="44.64366145187514" lon="6.657484054091597"><ele>1209.5</ele><time>2026-05-01T11:24:43Z</time></trkpt><trkpt lat="44.64373095460064" lon="6.657449352327963"><ele>1213.75</ele><time>2026-05-01T11:24:45Z</time></trkpt><trkpt lat="44.643869118457935" lon="6.657365639419712"><ele>1218.0</ele><time>2026-05-01T11:24:46Z</time></trkpt><trkpt lat="44.644089155245524" lon="6.6572338423944"><ele>1218.0</ele><time>2026-05-01T11:24:47Z</time></trkpt><trkpt lat="44.64434468681137" lon="6.657059548970206"><ele>1218.0</ele><time>2026-05-01T11:24:48Z</time></trkpt><trkpt lat="44.644614788797796" lon="6.656886453929104"><ele>1213.5</ele><time>2026-05-01T11:24:49Z</time></trkpt><trkpt lat="44.64489481317427" lon="6.656768300568159"><ele>1209.0</ele><time>2026-05-01T11:24:50Z</time></trkpt><trkpt lat="44.64512297899198" lon="6.656692685462425"><ele>1209.6666666666667</ele><time>2026-05-01T11:24:51Z</time></trkpt><trkpt lat="44.645304970880595" lon="6.656615094006093"><ele>1210.3333333333335</ele><time>2026-05-01T11:24:52Z</time></trkpt><trkpt lat="44.64548216194774" lon="6.656564247757045"><ele>1211.0</ele><time>2026-05-01T11:24:53Z</time></trkpt><trkpt lat="44.64561923441027" lon="6.6565140384147465"><ele>1211.0</ele><time>2026-05-01T11:24:54Z</time></trkpt><trkpt lat="44.64572896899214" lon="6.656499283062831"><ele>1211.0</ele><time>2026-05-01T11:24:55Z</time></trkpt><trkpt lat="44.6458194190957" lon="6.65653655515782"><ele>1211.0</ele><time>2026-05-01T11:24:56Z</time></trkpt><trkpt lat="44.64592832435314" lon="6.656627067029034"><ele>1211.0</ele><time>2026-05-01T11:24:57Z</time></trkpt><trkpt lat="44.64593348231764" lon="6.656773184885611"><ele>1211.0</ele><time>2026-05-01T11:24:58Z</time></trkpt><trkpt lat="44.64592551819913" lon="6.656942667196662"><ele>1211.75</ele><time>2026-05-01T11:24:59Z</time></trkpt><trkpt lat="44.645829443571806" lon="6.6570378568676745"><ele>1212.5</ele><time>2026-05-01T11:25:00Z</time></trkpt><trkpt lat="44.64575749039221" lon="6.657164357667714"><ele>1213.25</ele><time>2026-05-01T11:25:01Z</time></trkpt><trkpt lat="44.645677486403756" lon="6.657266090902765"><ele>1214.0</ele><time>2026-05-01T11:25:02Z</time></trkpt><trkpt lat="44.64559013903966" lon="6.657369562084766"><ele>1214.0</ele><time>2026-05-01T11:25:03Z</time></trkpt><trkpt lat="44.6455060946648" lon="6.657524861863935"><ele>1214.0</ele><time>2026-05-01T11:25:04Z</time></trkpt><trkpt lat="44.645449169591984" lon="6.65768145971209"><ele>1214.0</ele><time>2026-05-01T11:25:05Z</time></trkpt><trkpt lat="44.64536115715123" lon="6.657785633124133"><ele>1214.0</ele><time>2026-05-01T11:25:06Z</time></trkpt><trkpt lat="44.645303392199715" lon="6.6579123844270205"><ele>1217.25</ele><time>2026-05-01T11:25:07Z</time></trkpt><trkpt lat="44.64523956754367" lon="6.6580622166827625"><ele>1220.5</ele><time>2026-05-01T11:25:08Z</time></trkpt><trkpt lat="44.64519076716695" lon="6.658208894383274"><ele>1223.75</ele><time>2026-05-01T11:25:09Z</time></trkpt><trkpt lat="44.645123313824776" lon="6.658371471613766"><ele>1227.0</ele><time>2026-05-01T11:25:10Z</time></trkpt><trkpt lat="44.64501976588898" lon="6.658536770031281"><ele>1225.6666666666667</ele><time>2026-05-01T11:25:11Z</time></trkpt><trkpt lat="44.64490638652468" lon="6.658670130409983"><ele>1224.3333333333335</ele><time>2026-05-01T11:25:12Z</time></trkpt><trkpt lat="44.644763532615386" lon="6.658783853518596"><ele>1223.0</ele><time>2026-05-01T11:25:13Z</time></trkpt><trkpt lat="44.64461971038192" lon="6.658875817232467"><ele>1228.3333333333335</ele><time>2026-05-01T11:25:14Z</time></trkpt><trkpt lat="44.644453549619215" lon="6.659008525315892"><ele>1233.6666666666667</ele><time>2026-05-01T11:25:15Z</time></trkpt><trkpt lat="44.64429444869744" lon="6.659138496069002"><ele>1239.0</ele><time>2026-05-01T11:25:16Z</time></trkpt><trkpt lat="44.64412797856851" lon="6.659254877569241"><ele>1239.0</ele><time>2026-05-01T11:25:17Z</time></trkpt><trkpt lat="44.64399357446868" lon="6.6594117220995575"><ele>1239.0</ele><time>2026-05-01T11:25:18Z</time></trkpt><trkpt lat="44.64387553012982" lon="6.65955022112064"><ele>1239.0</ele><time>2026-05-01T11:25:19Z</time></trkpt><trkpt lat="44.64381240248855" lon="6.659719585914816"><ele>1240.0</ele><time>2026-05-01T11:25:20Z</time></trkpt><trkpt lat="44.64370971765814" lon="6.6599638857862296"><ele>1241.0</ele><time>2026-05-01T11:25:21Z</time></trkpt><trkpt lat="44.64361908284739" lon="6.6601206144855"><ele>1242.0</ele><time>2026-05-01T11:25:22Z</time></trkpt><trkpt lat="44.64353170903241" lon="6.660286917241074"><ele>1249.0</ele><time>2026-05-01T11:25:23Z</time></trkpt><trkpt lat="44.64343418671519" lon="6.660456671060761"><ele>1256.0</ele><time>2026-05-01T11:25:24Z</time></trkpt><trkpt lat="44.643295890094755" lon="6.66059030842862"><ele>1263.0</ele><time>2026-05-01T11:25:25Z</time></trkpt><trkpt lat="44.64319490159767" lon="6.660731404071685"><ele>1263.0</ele><time>2026-05-01T11:25:26Z</time></trkpt><trkpt lat="44.64314495052605" lon="6.6608913939517915"><ele>1263.0</ele><time>2026-05-01T11:25:27Z</time></trkpt><trkpt lat="44.643071859580594" lon="6.661007529544436"><ele>1263.0</ele><time>2026-05-01T11:25:28Z</time></trkpt><trkpt lat="44.64306566663564" lon="6.661151229047057"><ele>1263.0</ele><time>2026-05-01T11:25:29Z</time></trkpt><trkpt lat="44.643080152153054" lon="6.661389841432791"><ele>1266.5</ele><time>2026-05-01T11:25:30Z</time></trkpt><trkpt lat="44.643041519349765" lon="6.66155833765052"><ele>1270.0</ele><time>2026-05-01T11:25:31Z</time></trkpt><trkpt lat="44.643016908193076" lon="6.661731257209007"><ele>1273.5</ele><time>2026-05-01T11:25:32Z</time></trkpt><trkpt lat="44.64292192143898" lon="6.661796799649102"><ele>1277.0</ele><time>2026-05-01T11:25:33Z</time></trkpt><trkpt lat="44.642799907830934" lon="6.661849437448134"><ele>1274.5</ele><time>2026-05-01T11:25:34Z</time></trkpt><trkpt lat="44.64270726346819" lon="6.6619181353887935"><ele>1272.0</ele><time>2026-05-01T11:25:35Z</time></trkpt><trkpt lat="44.642591636252895" lon="6.661993412414004"><ele>1269.5</ele><time>2026-05-01T11:25:36Z</time></trkpt><trkpt lat="44.64247187621547" lon="6.662059178627561"><ele>1267.0</ele><time>2026-05-01T11:25:37Z</time></trkpt><trkpt lat="44.642280959092005" lon="6.6621065591514075"><ele>1276.0</ele><time>2026-05-01T11:25:38Z</time></trkpt><trkpt lat="44.64209577363145" lon="6.662092901895622"><ele>1285.0</ele><time>2026-05-01T11:25:39Z</time></trkpt><trkpt lat="44.641942375212075" lon="6.6620778759975225"><ele>1294.0</ele><time>2026-05-01T11:25:40Z</time></trkpt><trkpt lat="44.641781580465164" lon="6.662057213035141"><ele>1294.0</ele><time>2026-05-01T11:25:41Z</time></trkpt><trkpt lat="44.64160423574406" lon="6.662034312196346"><ele>1294.0</ele><time>2026-05-01T11:25:42Z</time></trkpt><trkpt lat="44.641449391670925" lon="6.662014316881296"><ele>1294.0</ele><time>2026-05-01T11:25:43Z</time></trkpt><trkpt lat="44.64134300863081" lon="6.662003598907734"><ele>1294.0</ele><time>2026-05-01T11:25:44Z</time></trkpt><trkpt lat="44.641217378649834" lon="6.661992492017618"><ele>1294.0</ele><time>2026-05-01T11:25:45Z</time></trkpt><trkpt lat="44.64115487577394" lon="6.662046527228255"><ele>1294.0</ele><time>2026-05-01T11:25:46Z</time></trkpt><trkpt lat="44.641039495314715" lon="6.662248909632579"><ele>1294.0</ele><time>2026-05-01T11:25:48Z</time></trkpt><trkpt lat="44.64102898889197" lon="6.662448415892072"><ele>1294.0</ele><time>2026-05-01T11:25:49Z</time></trkpt><trkpt lat="44.64105715515484" lon="6.662572209278365"><ele>1294.0</ele><time>2026-05-01T11:25:50Z</time></trkpt><trkpt lat="44.6410546411337" lon="6.662671235200438"><ele>1294.0</ele><time>2026-05-01T11:25:51Z</time></trkpt><trkpt lat="44.64112388570737" lon="6.662764839930135"><ele>1294.0</ele><time>2026-05-01T11:25:52Z</time></trkpt><trkpt lat="44.64120152772473" lon="6.662785978054207"><ele>1294.0</ele><time>2026-05-01T11:25:53Z</time></trkpt><trkpt lat="44.64130707881164" lon="6.662790126267002"><ele>1294.0</ele><time>2026-05-01T11:25:54Z</time></trkpt><trkpt lat="44.64155992477607" lon="6.662775662445671"><ele>1303.3333333333333</ele><time>2026-05-01T11:25:55Z</time></trkpt><trkpt lat="44.641736797813245" lon="6.66281880924622"><ele>1312.6666666666667</ele><time>2026-05-01T11:25:56Z</time></trkpt><trkpt lat="44.64191362146145" lon="6.662835443263246"><ele>1322.0</ele><time>2026-05-01T11:25:57Z</time></trkpt><trkpt lat="44.64205911971205" lon="6.662796266445433"><ele>1317.25</ele><time>2026-05-01T11:25:58Z</time></trkpt><trkpt lat="44.642169714416546" lon="6.662723025120118"><ele>1312.5</ele><time>2026-05-01T11:25:59Z</time></trkpt><trkpt lat="44.642301282659815" lon="6.662578775531435"><ele>1307.75</ele><time>2026-05-01T11:26:00Z</time></trkpt><trkpt lat="44.64243059107927" lon="6.662532517600373"><ele>1303.0</ele><time>2026-05-01T11:26:01Z</time></trkpt><trkpt lat="44.6425600889731" lon="6.662554905258127"><ele>1303.0</ele><time>2026-05-01T11:26:02Z</time></trkpt><trkpt lat="44.64270117151039" lon="6.6625396523825975"><ele>1303.0</ele><time>2026-05-01T11:26:03Z</time></trkpt><trkpt lat="44.642812962149144" lon="6.6625331730223225"><ele>1303.0</ele><time>2026-05-01T11:26:04Z</time></trkpt><trkpt lat="44.64292788537498" lon="6.6624530504994075"><ele>1303.0</ele><time>2026-05-01T11:26:05Z</time></trkpt><trkpt lat="44.64303255207929" lon="6.662394668184248"><ele>1302.4</ele><time>2026-05-01T11:26:06Z</time></trkpt><trkpt lat="44.64312704974838" lon="6.662373413128425"><ele>1301.8000000000002</ele><time>2026-05-01T11:26:07Z</time></trkpt><trkpt lat="44.6432126247856" lon="6.662383600425931"><ele>1301.2</ele><time>2026-05-01T11:26:08Z</time></trkpt><trkpt lat="44.64329000313758" lon="6.662485092014107"><ele>1300.6</ele><time>2026-05-01T11:26:09Z</time></trkpt><trkpt lat="44.643298428738646" lon="6.662608181366637"><ele>1300.0</ele><time>2026-05-01T11:26:10Z</time></trkpt><trkpt lat="44.643300897349306" lon="6.662748233482605"><ele>1299.0</ele><time>2026-05-01T11:26:11Z</time></trkpt><trkpt lat="44.64324658972473" lon="6.662882182106319"><ele>1298.0</ele><time>2026-05-01T11:26:12Z</time></trkpt><trkpt lat="44.6431478352873" lon="6.662957813954283"><ele>1297.0</ele><time>2026-05-01T11:26:13Z</time></trkpt><trkpt lat="44.64303070863544" lon="6.663025840177317"><ele>1296.0</ele><time>2026-05-01T11:26:14Z</time></trkpt><trkpt lat="44.64291416327686" lon="6.663113827881851"><ele>1302.5</ele><time>2026-05-01T11:26:15Z</time></trkpt><trkpt lat="44.642797666084654" lon="6.663188926860276"><ele>1309.0</ele><time>2026-05-01T11:26:16Z</time></trkpt><trkpt lat="44.642660882640094" lon="6.663241664793358"><ele>1315.5</ele><time>2026-05-01T11:26:17Z</time></trkpt><trkpt lat="44.64251345601733" lon="6.663292773846416"><ele>1322.0</ele><time>2026-05-01T11:26:18Z</time></trkpt><trkpt lat="44.642358385758754" lon="6.663352522874664"><ele>1322.0</ele><time>2026-05-01T11:26:19Z</time></trkpt><trkpt lat="44.64218157413391" lon="6.6633419997891385"><ele>1322.0</ele><time>2026-05-01T11:26:20Z</time></trkpt><trkpt lat="44.64204564381361" lon="6.663335473078577"><ele>1322.0</ele><time>2026-05-01T11:26:21Z</time></trkpt><trkpt lat="44.64191133093552" lon="6.6633239639092485"><ele>1322.0</ele><time>2026-05-01T11:26:22Z</time></trkpt><trkpt lat="44.64179411565132" lon="6.663348925385744"><ele>1322.25</ele><time>2026-05-01T11:26:23Z</time></trkpt><trkpt lat="44.64171626619282" lon="6.663414946706324"><ele>1322.5</ele><time>2026-05-01T11:26:24Z</time></trkpt><trkpt lat="44.64161505229582" lon="6.663559827113854"><ele>1322.75</ele><time>2026-05-01T11:26:25Z</time></trkpt><trkpt lat="44.64156040329269" lon="6.663708252601605"><ele>1323.0</ele><time>2026-05-01T11:26:26Z</time></trkpt><trkpt lat="44.64154210869387" lon="6.663855341557672"><ele>1328.6666666666667</ele><time>2026-05-01T11:26:27Z</time></trkpt><trkpt lat="44.64150026394204" lon="6.66405530048612"><ele>1334.3333333333335</ele><time>2026-05-01T11:26:28Z</time></trkpt><trkpt lat="44.64142635177621" lon="6.664272210736014"><ele>1340.0</ele><time>2026-05-01T11:26:29Z</time></trkpt><trkpt lat="44.64135062272245" lon="6.6644770915902205"><ele>1340.6666666666667</ele><time>2026-05-01T11:26:30Z</time></trkpt><trkpt lat="44.64127824998483" lon="6.6646728917678155"><ele>1341.3333333333333</ele><time>2026-05-01T11:26:31Z</time></trkpt><trkpt lat="44.64119449427136" lon="6.664900304356978"><ele>1342.0</ele><time>2026-05-01T11:26:32Z</time></trkpt><trkpt lat="44.64113052313935" lon="6.6650690612668155"><ele>1342.0</ele><time>2026-05-01T11:26:33Z</time></trkpt><trkpt lat="44.64108141326986" lon="6.6651855282217305"><ele>1342.0</ele><time>2026-05-01T11:26:34Z</time></trkpt><trkpt lat="44.640987051403854" lon="6.665335749022059"><ele>1342.0</ele><time>2026-05-01T11:26:35Z</time></trkpt><trkpt lat="44.640825450051025" lon="6.665385914660107"><ele>1342.0</ele><time>2026-05-01T11:26:36Z</time></trkpt><trkpt lat="44.64069349894839" lon="6.6654661417360614"><ele>1351.6666666666665</ele><time>2026-05-01T11:26:37Z</time></trkpt><trkpt lat="44.640559900511846" lon="6.665557422093523"><ele>1361.3333333333333</ele><time>2026-05-01T11:26:38Z</time></trkpt><trkpt lat="44.64041733515724" lon="6.665660720212869"><ele>1371.0</ele><time>2026-05-01T11:26:39Z</time></trkpt><trkpt lat="44.64028595800507" lon="6.665757661424426"><ele>1372.25</ele><time>2026-05-01T11:26:40Z</time></trkpt><trkpt lat="44.64014474411882" lon="6.665774691748963"><ele>1373.5</ele><time>2026-05-01T11:26:41Z</time></trkpt><trkpt lat="44.640040483050456" lon="6.665714724858031"><ele>1374.75</ele><time>2026-05-01T11:26:42Z</time></trkpt><trkpt lat="44.63993612883505" lon="6.665651470589324"><ele>1376.0</ele><time>2026-05-01T11:26:43Z</time></trkpt><trkpt lat="44.639818436622406" lon="6.665588621940434"><ele>1376.0</ele><time>2026-05-01T11:26:44Z</time></trkpt><trkpt lat="44.63964223534376" lon="6.6655129866591265"><ele>1376.0</ele><time>2026-05-01T11:26:45Z</time></trkpt><trkpt lat="44.63942339979166" lon="6.665492617027762"><ele>1376.0</ele><time>2026-05-01T11:26:46Z</time></trkpt><trkpt lat="44.63926994427554" lon="6.6655251052461075"><ele>1380.0</ele><time>2026-05-01T11:26:47Z</time></trkpt><trkpt lat="44.63911533104685" lon="6.665562604243123"><ele>1384.0</ele><time>2026-05-01T11:26:48Z</time></trkpt><trkpt lat="44.63887041152248" lon="6.665620887789168"><ele>1388.0</ele><time>2026-05-01T11:26:49Z</time></trkpt><trkpt lat="44.638642067684685" lon="6.665675226814326"><ele>1386.6666666666667</ele><time>2026-05-01T11:26:50Z</time></trkpt><trkpt lat="44.63842335107292" lon="6.6657241311104904"><ele>1385.3333333333333</ele><time>2026-05-01T11:26:51Z</time></trkpt><trkpt lat="44.638257749214354" lon="6.665762364692983"><ele>1384.0</ele><time>2026-05-01T11:26:52Z</time></trkpt><trkpt lat="44.63806941476526" lon="6.665710002374253"><ele>1384.0</ele><time>2026-05-01T11:26:53Z</time></trkpt><trkpt lat="44.63791955764816" lon="6.665686468751979"><ele>1384.0</ele><time>2026-05-01T11:26:54Z</time></trkpt><trkpt lat="44.63774189167194" lon="6.665676470892311"><ele>1384.0</ele><time>2026-05-01T11:26:55Z</time></trkpt><trkpt lat="44.63760902964532" lon="6.6657002703345665"><ele>1382.25</ele><time>2026-05-01T11:26:56Z</time></trkpt><trkpt lat="44.637470953418244" lon="6.665725816810621"><ele>1380.5</ele><time>2026-05-01T11:26:57Z</time></trkpt><trkpt lat="44.637347168530404" lon="6.665784933940947"><ele>1378.75</ele><time>2026-05-01T11:26:58Z</time></trkpt><trkpt lat="44.63725993970096" lon="6.66584657835157"><ele>1377.0</ele><time>2026-05-01T11:26:59Z</time></trkpt><trkpt lat="44.63722161125493" lon="6.666039203807101"><ele>1382.5</ele><time>2026-05-01T11:27:01Z</time></trkpt><trkpt lat="44.63722574878373" lon="6.666129935330993"><ele>1388.0</ele><time>2026-05-01T11:27:02Z</time></trkpt><trkpt lat="44.6373195903098" lon="6.666256478874403"><ele>1393.5</ele><time>2026-05-01T11:27:04Z</time></trkpt><trkpt lat="44.637446181751855" lon="6.666318758724294"><ele>1399.0</ele><time>2026-05-01T11:27:06Z</time></trkpt><trkpt lat="44.63765326313486" lon="6.666258131445526"><ele>1403.3333333333333</ele><time>2026-05-01T11:27:07Z</time></trkpt><trkpt lat="44.63790700377773" lon="6.666208596210639"><ele>1407.6666666666667</ele><time>2026-05-01T11:27:08Z</time></trkpt><trkpt lat="44.638077650225654" lon="6.666213503871412"><ele>1412.0</ele><time>2026-05-01T11:27:09Z</time></trkpt><trkpt lat="44.63825673695153" lon="6.666254230771716"><ele>1412.0</ele><time>2026-05-01T11:27:10Z</time></trkpt><trkpt lat="44.638451663847434" lon="6.666356765078271"><ele>1412.0</ele><time>2026-05-01T11:27:11Z</time></trkpt><trkpt lat="44.63867573219332" lon="6.666465929039998"><ele>1412.0</ele><time>2026-05-01T11:27:12Z</time></trkpt><trkpt lat="44.63890876560923" lon="6.666552917119505"><ele>1411.6666666666667</ele><time>2026-05-01T11:27:13Z</time></trkpt><trkpt lat="44.639118459948534" lon="6.666641609486098"><ele>1411.3333333333333</ele><time>2026-05-01T11:27:14Z</time></trkpt><trkpt lat="44.639331468772376" lon="6.666736625650445"><ele>1411.0</ele><time>2026-05-01T11:27:15Z</time></trkpt><trkpt lat="44.639520199272184" lon="6.6668223578871055"><ele>1410.6666666666665</ele><time>2026-05-01T11:27:16Z</time></trkpt><trkpt lat="44.6396570664927" lon="6.666917486035015"><ele>1410.3333333333333</ele><time>2026-05-01T11:27:17Z</time></trkpt><trkpt lat="44.639808948682116" lon="6.667011386800988"><ele>1410.0</ele><time>2026-05-01T11:27:18Z</time></trkpt><trkpt lat="44.63993236473454" lon="6.667087329709358"><ele>1413.2</ele><time>2026-05-01T11:27:19Z</time></trkpt><trkpt lat="44.63999531696567" lon="6.667143383912622"><ele>1416.4</ele><time>2026-05-01T11:27:20Z</time></trkpt><trkpt lat="44.64006844626706" lon="6.667279936202736"><ele>1419.6</ele><time>2026-05-01T11:27:21Z</time></trkpt><trkpt lat="44.63997895559352" lon="6.667360362752492"><ele>1422.8</ele><time>2026-05-01T11:27:22Z</time></trkpt><trkpt lat="44.63990705092515" lon="6.667535843285431"><ele>1426.0</ele><time>2026-05-01T11:27:23Z</time></trkpt><trkpt lat="44.63980082335531" lon="6.667506860702912"><ele>1426.0</ele><time>2026-05-01T11:27:24Z</time></trkpt><trkpt lat="44.63971293206443" lon="6.6674421454406465"><ele>1426.0</ele><time>2026-05-01T11:27:25Z</time></trkpt><trkpt lat="44.63959248774469" lon="6.6673691098790195"><ele>1426.0</ele><time>2026-05-01T11:27:26Z</time></trkpt><trkpt lat="44.63945564149973" lon="6.667353691580972"><ele>1426.0</ele><time>2026-05-01T11:27:27Z</time></trkpt><trkpt lat="44.639291955194075" lon="6.667286115154432"><ele>1427.3333333333333</ele><time>2026-05-01T11:27:28Z</time></trkpt><trkpt lat="44.63906434832349" lon="6.667288603159136"><ele>1428.6666666666667</ele><time>2026-05-01T11:27:29Z</time></trkpt><trkpt lat="44.63891446549042" lon="6.667291101289979"><ele>1430.0</ele><time>2026-05-01T11:27:30Z</time></trkpt><trkpt lat="44.63880277914296" lon="6.667337732998866"><ele>1430.0</ele><time>2026-05-01T11:27:31Z</time></trkpt><trkpt lat="44.638701287432035" lon="6.667380239249426"><ele>1430.0</ele><time>2026-05-01T11:27:32Z</time></trkpt><trkpt lat="44.638638284813624" lon="6.667465909336956"><ele>1430.0</ele><time>2026-05-01T11:27:33Z</time></trkpt><trkpt lat="44.6385308668472" lon="6.667568285466993"><ele>1430.0</ele><time>2026-05-01T11:27:34Z</time></trkpt><trkpt lat="44.63839938036989" lon="6.667685247607647"><ele>1434.0</ele><time>2026-05-01T11:27:35Z</time></trkpt><trkpt lat="44.63826576078591" lon="6.667874094715514"><ele>1438.0</ele><time>2026-05-01T11:27:36Z</time></trkpt><trkpt lat="44.6380595762848" lon="6.6679920491420015"><ele>1442.0</ele><time>2026-05-01T11:27:37Z</time></trkpt><trkpt lat="44.637877008044605" lon="6.6680785265712545"><ele>1442.3333333333335</ele><time>2026-05-01T11:27:38Z</time></trkpt><trkpt lat="44.63767285670819" lon="6.668204518551731"><ele>1442.6666666666667</ele><time>2026-05-01T11:27:39Z</time></trkpt><trkpt lat="44.637478036964886" lon="6.668331764068332"><ele>1443.0</ele><time>2026-05-01T11:27:40Z</time></trkpt><trkpt lat="44.637296652767056" lon="6.668433269435072"><ele>1443.0</ele><time>2026-05-01T11:27:41Z</time></trkpt><trkpt lat="44.63711409087876" lon="6.668516448958684"><ele>1443.0</ele><time>2026-05-01T11:27:42Z</time></trkpt><trkpt lat="44.6369505467831" lon="6.668514745245456"><ele>1443.0</ele><time>2026-05-01T11:27:43Z</time></trkpt><trkpt lat="44.63678018622213" lon="6.668473240669275"><ele>1444.0</ele><time>2026-05-01T11:27:44Z</time></trkpt><trkpt lat="44.636622137248395" lon="6.668411529196144"><ele>1445.0</ele><time>2026-05-01T11:27:45Z</time></trkpt><trkpt lat="44.636462448914706" lon="6.668380734155454"><ele>1446.0</ele><time>2026-05-01T11:27:46Z</time></trkpt><trkpt lat="44.63632491081804" lon="6.668362687368124"><ele>1446.0</ele><time>2026-05-01T11:27:47Z</time></trkpt><trkpt lat="44.63624586496322" lon="6.66835545212693"><ele>1446.0</ele><time>2026-05-01T11:27:48Z</time></trkpt><trkpt lat="44.63614436599314" lon="6.668378860670063"><ele>1446.0</ele><time>2026-05-01T11:27:49Z</time></trkpt><trkpt lat="44.63607265725615" lon="6.668435960188938"><ele>1446.0</ele><time>2026-05-01T11:27:50Z</time></trkpt><trkpt lat="44.63605145748709" lon="6.668523582904718"><ele>1446.0</ele><time>2026-05-01T11:27:51Z</time></trkpt><trkpt lat="44.636047880239566" lon="6.668672541309534"><ele>1446.0</ele><time>2026-05-01T11:27:52Z</time></trkpt><trkpt lat="44.63605466456315" lon="6.668775505051606"><ele>1448.5</ele><time>2026-05-01T11:27:53Z</time></trkpt><trkpt lat="44.63616549280741" lon="6.668970668418773"><ele>1451.0</ele><time>2026-05-01T11:27:54Z</time></trkpt><trkpt lat="44.636275166731004" lon="6.669042119012416"><ele>1453.5</ele><time>2026-05-01T11:27:55Z</time></trkpt><trkpt lat="44.6363950838906" lon="6.66912252146196"><ele>1456.0</ele><time>2026-05-01T11:27:56Z</time></trkpt><trkpt lat="44.63659588029016" lon="6.669260414486656"><ele>1456.0</ele><time>2026-05-01T11:27:57Z</time></trkpt><trkpt lat="44.63676800808987" lon="6.669378588632832"><ele>1456.0</ele><time>2026-05-01T11:27:58Z</time></trkpt><trkpt lat="44.636917450415154" lon="6.669449672127266"><ele>1456.0</ele><time>2026-05-01T11:27:59Z</time></trkpt><trkpt lat="44.63708596062768" lon="6.669485434242008"><ele>1458.3333333333333</ele><time>2026-05-01T11:28:00Z</time></trkpt><trkpt lat="44.63724805439151" lon="6.669459310511029"><ele>1460.6666666666667</ele><time>2026-05-01T11:28:01Z</time></trkpt><trkpt lat="44.63740508882105" lon="6.6694468035305645"><ele>1463.0</ele><time>2026-05-01T11:28:02Z</time></trkpt><trkpt lat="44.63753515478527" lon="6.669442361528312"><ele>1463.0</ele><time>2026-05-01T11:28:03Z</time></trkpt><trkpt lat="44.63761895215728" lon="6.669458781084573"><ele>1463.0</ele><time>2026-05-01T11:28:04Z</time></trkpt><trkpt lat="44.63766389134394" lon="6.6695574168235385"><ele>1463.0</ele><time>2026-05-01T11:28:05Z</time></trkpt><trkpt lat="44.637701686853624" lon="6.66967832463134"><ele>1463.0</ele><time>2026-05-01T11:28:06Z</time></trkpt><trkpt lat="44.63760848224013" lon="6.669836298779945"><ele>1463.0</ele><time>2026-05-01T11:28:07Z</time></trkpt><trkpt lat="44.63756132065909" lon="6.66991726002864"><ele>1463.0</ele><time>2026-05-01T11:28:08Z</time></trkpt><trkpt lat="44.63745944628724" lon="6.669847795141763"><ele>1463.0</ele><time>2026-05-01T11:28:09Z</time></trkpt><trkpt lat="44.63736245073001" lon="6.669860342698383"><ele>1463.0</ele><time>2026-05-01T11:28:10Z</time></trkpt><trkpt lat="44.63721710945622" lon="6.66987729699793"><ele>1463.0</ele><time>2026-05-01T11:28:11Z</time></trkpt><trkpt lat="44.637081910029245" lon="6.6698957235045295"><ele>1467.0</ele><time>2026-05-01T11:28:12Z</time></trkpt><trkpt lat="44.63693910362765" lon="6.669939849291335"><ele>1471.0</ele><time>2026-05-01T11:28:13Z</time></trkpt><trkpt lat="44.63676939083943" lon="6.669928535383242"><ele>1475.0</ele><time>2026-05-01T11:28:14Z</time></trkpt><trkpt lat="44.63658860415315" lon="6.66996331995559"><ele>1475.0</ele><time>2026-05-01T11:28:15Z</time></trkpt><trkpt lat="44.636411053130004" lon="6.669972856510025"><ele>1475.0</ele><time>2026-05-01T11:28:16Z</time></trkpt><trkpt lat="44.636196577551864" lon="6.669955846884081"><ele>1475.0</ele><time>2026-05-01T11:28:17Z</time></trkpt><trkpt lat="44.63601396006373" lon="6.669913266938281"><ele>1478.0</ele><time>2026-05-01T11:28:18Z</time></trkpt><trkpt lat="44.63585215061719" lon="6.669867928192826"><ele>1481.0</ele><time>2026-05-01T11:28:19Z</time></trkpt><trkpt lat="44.63571921397288" lon="6.669841074403669"><ele>1484.0</ele><time>2026-05-01T11:28:20Z</time></trkpt><trkpt lat="44.63559456969713" lon="6.669796221211936"><ele>1487.0</ele><time>2026-05-01T11:28:21Z</time></trkpt><trkpt lat="44.63547395268995" lon="6.6697537324629845"><ele>1487.0</ele><time>2026-05-01T11:28:22Z</time></trkpt><trkpt lat="44.63535012373804" lon="6.669718362990057"><ele>1487.0</ele><time>2026-05-01T11:28:23Z</time></trkpt><trkpt lat="44.63524122132646" lon="6.669654499047016"><ele>1487.0</ele><time>2026-05-01T11:28:24Z</time></trkpt><trkpt lat="44.63512244951206" lon="6.6696358485999765"><ele>1487.0</ele><time>2026-05-01T11:28:25Z</time></trkpt><trkpt lat="44.6350125764893" lon="6.669616306553699"><ele>1488.75</ele><time>2026-05-01T11:28:26Z</time></trkpt><trkpt lat="44.63490695137782" lon="6.669623104767902"><ele>1490.5</ele><time>2026-05-01T11:28:27Z</time></trkpt><trkpt lat="44.634801041381294" lon="6.669654771365813"><ele>1492.25</ele><time>2026-05-01T11:28:28Z</time></trkpt><trkpt lat="44.63470990488805" lon="6.6697296728091375"><ele>1494.0</ele><time>2026-05-01T11:28:29Z</time></trkpt><trkpt lat="44.63458332199903" lon="6.669849816238382"><ele>1490.3333333333333</ele><time>2026-05-01T11:28:30Z</time></trkpt><trkpt lat="44.634451652055695" lon="6.669974787388822"><ele>1486.6666666666665</ele><time>2026-05-01T11:28:31Z</time></trkpt><trkpt lat="44.634305564733495" lon="6.670102151872003"><ele>1483.0</ele><time>2026-05-01T11:28:32Z</time></trkpt><trkpt lat="44.63412602523298" lon="6.670231093916896"><ele>1492.3333333333333</ele><time>2026-05-01T11:28:33Z</time></trkpt><trkpt lat="44.63395746334631" lon="6.670340384217484"><ele>1501.6666666666667</ele><time>2026-05-01T11:28:34Z</time></trkpt><trkpt lat="44.63382521793569" lon="6.670503281293798"><ele>1511.0</ele><time>2026-05-01T11:28:35Z</time></trkpt><trkpt lat="44.63368312477261" lon="6.670622131910249"><ele>1508.0</ele><time>2026-05-01T11:28:36Z</time></trkpt><trkpt lat="44.63355000378421" lon="6.670733440371735"><ele>1505.0</ele><time>2026-05-01T11:28:37Z</time></trkpt><trkpt lat="44.63342147050841" lon="6.670822972004557"><ele>1502.0</ele><time>2026-05-01T11:28:38Z</time></trkpt><trkpt lat="44.63330620323265" lon="6.670927615160601"><ele>1499.0</ele><time>2026-05-01T11:28:39Z</time></trkpt><trkpt lat="44.63319555584931" lon="6.670992280324054"><ele>1500.2</ele><time>2026-05-01T11:28:40Z</time></trkpt><trkpt lat="44.63311047860279" lon="6.6711223557850845"><ele>1501.4</ele><time>2026-05-01T11:28:42Z</time></trkpt><trkpt lat="44.63306261775706" lon="6.671262115893473"><ele>1502.6</ele><time>2026-05-01T11:28:43Z</time></trkpt><trkpt lat="44.63300303783009" lon="6.671397289112417"><ele>1503.8</ele><time>2026-05-01T11:28:44Z</time></trkpt><trkpt lat="44.63296241409519" lon="6.671523882577186"><ele>1505.0</ele><time>2026-05-01T11:28:45Z</time></trkpt><trkpt lat="44.632972104401794" lon="6.671715287511726"><ele>1505.0</ele><time>2026-05-01T11:28:46Z</time></trkpt><trkpt lat="44.63302392555732" lon="6.671839121169379"><ele>1505.0</ele><time>2026-05-01T11:28:47Z</time></trkpt><trkpt lat="44.633128727793284" lon="6.672005176991543"><ele>1505.0</ele><time>2026-05-01T11:28:48Z</time></trkpt><trkpt lat="44.63320128253568" lon="6.672060264081822"><ele>1505.0</ele><time>2026-05-01T11:28:49Z</time></trkpt><trkpt lat="44.6333139991428" lon="6.672055352518614"><ele>1507.0</ele><time>2026-05-01T11:28:50Z</time></trkpt><trkpt lat="44.633453589651445" lon="6.672070036219827"><ele>1509.0</ele><time>2026-05-01T11:28:51Z</time></trkpt><trkpt lat="44.63370401653481" lon="6.672144014007661"><ele>1511.0</ele><time>2026-05-01T11:28:52Z</time></trkpt><trkpt lat="44.633857285554484" lon="6.672304643479881"><ele>1511.0</ele><time>2026-05-01T11:28:53Z</time></trkpt><trkpt lat="44.633988474543216" lon="6.672484965310819"><ele>1511.0</ele><time>2026-05-01T11:28:54Z</time></trkpt><trkpt lat="44.63414247253045" lon="6.672681465294359"><ele>1511.0</ele><time>2026-05-01T11:28:55Z</time></trkpt><trkpt lat="44.63428852849514" lon="6.672824859410256"><ele>1508.0</ele><time>2026-05-01T11:28:56Z</time></trkpt><trkpt lat="44.63441405588415" lon="6.673005037598973"><ele>1505.0</ele><time>2026-05-01T11:28:57Z</time></trkpt><trkpt lat="44.634481427703896" lon="6.673172414164168"><ele>1502.0</ele><time>2026-05-01T11:28:58Z</time></trkpt><trkpt lat="44.63453692434931" lon="6.673369884938519"><ele>1508.6666666666667</ele><time>2026-05-01T11:28:59Z</time></trkpt><trkpt lat="44.634596009048344" lon="6.673608966467596"><ele>1515.3333333333333</ele><time>2026-05-01T11:29:00Z</time></trkpt><trkpt lat="44.63466160897989" lon="6.6738641807499155"><ele>1522.0</ele><time>2026-05-01T11:29:01Z</time></trkpt><trkpt lat="44.63468924947058" lon="6.674112125769534"><ele>1522.0</ele><time>2026-05-01T11:29:02Z</time></trkpt><trkpt lat="44.63469768361074" lon="6.67438179391168"><ele>1522.0</ele><time>2026-05-01T11:29:03Z</time></trkpt><trkpt lat="44.63462668815349" lon="6.674571652990121"><ele>1522.0</ele><time>2026-05-01T11:29:04Z</time></trkpt><trkpt lat="44.63460093622994" lon="6.674772941800788"><ele>1521.3333333333333</ele><time>2026-05-01T11:29:05Z</time></trkpt><trkpt lat="44.63454502620764" lon="6.674960050216873"><ele>1520.6666666666667</ele><time>2026-05-01T11:29:06Z</time></trkpt><trkpt lat="44.634464361405925" lon="6.675144441610584"><ele>1520.0</ele><time>2026-05-01T11:29:07Z</time></trkpt><trkpt lat="44.63435938721828" lon="6.675306505021739"><ele>1525.0</ele><time>2026-05-01T11:29:08Z</time></trkpt><trkpt lat="44.63422374132798" lon="6.675502420226551"><ele>1530.0</ele><time>2026-05-01T11:29:09Z</time></trkpt><trkpt lat="44.63410254233368" lon="6.675684377661699"><ele>1535.0</ele><time>2026-05-01T11:29:10Z</time></trkpt><trkpt lat="44.63396110054406" lon="6.675881555021526"><ele>1535.0</ele><time>2026-05-01T11:29:11Z</time></trkpt><trkpt lat="44.63383698176634" lon="6.676058694311233"><ele>1535.0</ele><time>2026-05-01T11:29:12Z</time></trkpt><trkpt lat="44.63370292750017" lon="6.676231911421702"><ele>1535.0</ele><time>2026-05-01T11:29:13Z</time></trkpt><trkpt lat="44.633581033175616" lon="6.676429364613446"><ele>1540.0</ele><time>2026-05-01T11:29:14Z</time></trkpt><trkpt lat="44.63344027931352" lon="6.6765669029289185"><ele>1545.0</ele><time>2026-05-01T11:29:15Z</time></trkpt><trkpt lat="44.633306909420185" lon="6.676667834372126"><ele>1550.0</ele><time>2026-05-01T11:29:16Z</time></trkpt><trkpt lat="44.63315276557621" lon="6.676733788435056"><ele>1550.0</ele><time>2026-05-01T11:29:17Z</time></trkpt><trkpt lat="44.633005467086356" lon="6.676763919196869"><ele>1550.0</ele><time>2026-05-01T11:29:18Z</time></trkpt><trkpt lat="44.63286459753944" lon="6.676767788906957"><ele>1550.0</ele><time>2026-05-01T11:29:19Z</time></trkpt><trkpt lat="44.632716243009625" lon="6.6767466449192785"><ele>1550.0</ele><time>2026-05-01T11:29:20Z</time></trkpt><trkpt lat="44.63255982189934" lon="6.676651713635424"><ele>1553.0</ele><time>2026-05-01T11:29:21Z</time></trkpt><trkpt lat="44.63237539779037" lon="6.676585118817955"><ele>1556.0</ele><time>2026-05-01T11:29:22Z</time></trkpt><trkpt lat="44.63220002500928" lon="6.676564972469117"><ele>1559.0</ele><time>2026-05-01T11:29:23Z</time></trkpt><trkpt lat="44.63206548756191" lon="6.676572560937264"><ele>1558.5</ele><time>2026-05-01T11:29:24Z</time></trkpt><trkpt lat="44.63193934275852" lon="6.676606059675953"><ele>1558.0</ele><time>2026-05-01T11:29:25Z</time></trkpt><trkpt lat="44.6318138239199" lon="6.6766805920815235"><ele>1557.5</ele><time>2026-05-01T11:29:26Z</time></trkpt><trkpt lat="44.63167330198254" lon="6.6767600054993475"><ele>1557.0</ele><time>2026-05-01T11:29:27Z</time></trkpt><trkpt lat="44.63154209451791" lon="6.676950694677682"><ele>1562.25</ele><time>2026-05-01T11:29:28Z</time></trkpt><trkpt lat="44.63144243761976" lon="6.677159240321997"><ele>1567.5</ele><time>2026-05-01T11:29:29Z</time></trkpt><trkpt lat="44.6313595902548" lon="6.677280499407169"><ele>1572.75</ele><time>2026-05-01T11:29:30Z</time></trkpt><trkpt lat="44.63125712072385" lon="6.6773663961422045"><ele>1578.0</ele><time>2026-05-01T11:29:31Z</time></trkpt><trkpt lat="44.6311568620163" lon="6.677391249416772"><ele>1576.25</ele><time>2026-05-01T11:29:32Z</time></trkpt><trkpt lat="44.63104842927033" lon="6.677379197934964"><ele>1574.5</ele><time>2026-05-01T11:29:33Z</time></trkpt><trkpt lat="44.630898652649236" lon="6.677393569808669"><ele>1572.75</ele><time>2026-05-01T11:29:34Z</time></trkpt><trkpt lat="44.6307559596286" lon="6.677456640552814"><ele>1571.0</ele><time>2026-05-01T11:29:35Z</time></trkpt><trkpt lat="44.63062504143672" lon="6.677578007491504"><ele>1571.0</ele><time>2026-05-01T11:29:36Z</time></trkpt><trkpt lat="44.63050097814361" lon="6.677709123205962"><ele>1571.0</ele><time>2026-05-01T11:29:37Z</time></trkpt><trkpt lat="44.63036473261259" lon="6.677852759518405"><ele>1571.0</ele><time>2026-05-01T11:29:38Z</time></trkpt><trkpt lat="44.63018868200895" lon="6.677962448436487"><ele>1578.0</ele><time>2026-05-01T11:29:39Z</time></trkpt><trkpt lat="44.6299868292133" lon="6.6782047302708865"><ele>1585.0</ele><time>2026-05-01T11:29:40Z</time></trkpt><trkpt lat="44.62982382556991" lon="6.6784233714879155"><ele>1585.0</ele><time>2026-05-01T11:29:41Z</time></trkpt><trkpt lat="44.62968310779349" lon="6.678572603265317"><ele>1585.0</ele><time>2026-05-01T11:29:42Z</time></trkpt><trkpt lat="44.629531746914644" lon="6.678718279173252"><ele>1585.0</ele><time>2026-05-01T11:29:43Z</time></trkpt><trkpt lat="44.629410026081295" lon="6.678845370498064"><ele>1584.25</ele><time>2026-05-01T11:29:44Z</time></trkpt><trkpt lat="44.62930833101265" lon="6.67897683355217"><ele>1583.5</ele><time>2026-05-01T11:29:45Z</time></trkpt><trkpt lat="44.62925522315293" lon="6.679054235379167"><ele>1582.75</ele><time>2026-05-01T11:29:46Z</time></trkpt><trkpt lat="44.629206096817214" lon="6.679316624863123"><ele>1582.0</ele><time>2026-05-01T11:29:48Z</time></trkpt><trkpt lat="44.62913655386084" lon="6.679513565394639"><ele>1590.25</ele><time>2026-05-01T11:29:49Z</time></trkpt><trkpt lat="44.629074252305635" lon="6.67967809225913"><ele>1598.5</ele><time>2026-05-01T11:29:50Z</time></trkpt><trkpt lat="44.62896970825035" lon="6.679849629494702"><ele>1606.75</ele><time>2026-05-01T11:29:51Z</time></trkpt><trkpt lat="44.62886980300281" lon="6.680017193484252"><ele>1615.0</ele><time>2026-05-01T11:29:52Z</time></trkpt><trkpt lat="44.628770713121504" lon="6.680208325627518"><ele>1614.0</ele><time>2026-05-01T11:29:53Z</time></trkpt><trkpt lat="44.62866169039256" lon="6.680360581603884"><ele>1613.0</ele><time>2026-05-01T11:29:54Z</time></trkpt><trkpt lat="44.62855146438632" lon="6.680520453082864"><ele>1612.0</ele><time>2026-05-01T11:29:55Z</time></trkpt><trkpt lat="44.62843800236033" lon="6.680657382707761"><ele>1612.0</ele><time>2026-05-01T11:29:56Z</time></trkpt><trkpt lat="44.62833394541478" lon="6.6807663518651355"><ele>1612.0</ele><time>2026-05-01T11:29:57Z</time></trkpt><trkpt lat="44.62822292646068" lon="6.680868101198598"><ele>1612.0</ele><time>2026-05-01T11:29:58Z</time></trkpt><trkpt lat="44.628101881936274" lon="6.68096800792704"><ele>1612.0</ele><time>2026-05-01T11:29:59Z</time></trkpt><trkpt lat="44.627989204193035" lon="6.681055787137573"><ele>1615.0</ele><time>2026-05-01T11:30:00Z</time></trkpt><trkpt lat="44.62787365642323" lon="6.681121979428413"><ele>1618.0</ele><time>2026-05-01T11:30:01Z</time></trkpt><trkpt lat="44.62780213331158" lon="6.68110991494799"><ele>1621.0</ele><time>2026-05-01T11:30:02Z</time></trkpt><trkpt lat="44.62770127105705" lon="6.68102582072297"><ele>1624.0</ele><time>2026-05-01T11:30:04Z</time></trkpt><trkpt lat="44.627639352006824" lon="6.68093412921208"><ele>1627.0</ele><time>2026-05-01T11:30:05Z</time></trkpt><trkpt lat="44.627598198679095" lon="6.680836407147256"><ele>1627.0</ele><time>2026-05-01T11:30:06Z</time></trkpt><trkpt lat="44.6274915452223" lon="6.680646161013396"><ele>1627.0</ele><time>2026-05-01T11:30:07Z</time></trkpt><trkpt lat="44.627424509872846" lon="6.6804579526488626"><ele>1627.0</ele><time>2026-05-01T11:30:08Z</time></trkpt><trkpt lat="44.627359021524576" lon="6.680323920426976"><ele>1627.0</ele><time>2026-05-01T11:30:09Z</time></trkpt><trkpt lat="44.62729225346516" lon="6.680200510025403"><ele>1624.5</ele><time>2026-05-01T11:30:10Z</time></trkpt><trkpt lat="44.62722786679836" lon="6.680083377405126"><ele>1622.0</ele><time>2026-05-01T11:30:11Z</time></trkpt><trkpt lat="44.627126229201394" lon="6.680004507768371"><ele>1619.5</ele><time>2026-05-01T11:30:12Z</time></trkpt><trkpt lat="44.627026761200554" lon="6.6799876075667575"><ele>1617.0</ele><time>2026-05-01T11:30:13Z</time></trkpt><trkpt lat="44.62687487857243" lon="6.679963114535646"><ele>1617.0</ele><time>2026-05-01T11:30:14Z</time></trkpt><trkpt lat="44.6267438238333" lon="6.679939698768968"><ele>1617.0</ele><time>2026-05-01T11:30:15Z</time></trkpt><trkpt lat="44.62659280115078" lon="6.679909353537055"><ele>1617.0</ele><time>2026-05-01T11:30:16Z</time></trkpt><trkpt lat="44.62637516893786" lon="6.6799914984490885"><ele>1617.0</ele><time>2026-05-01T11:30:17Z</time></trkpt><trkpt lat="44.626213269436924" lon="6.680055847480953"><ele>1617.0</ele><time>2026-05-01T11:30:18Z</time></trkpt><trkpt lat="44.62606212084195" lon="6.6802445369330385"><ele>1617.0</ele><time>2026-05-01T11:30:19Z</time></trkpt><trkpt lat="44.62590631006799" lon="6.680334523992731"><ele>1617.75</ele><time>2026-05-01T11:30:20Z</time></trkpt><trkpt lat="44.62578216412262" lon="6.68042201143763"><ele>1618.5</ele><time>2026-05-01T11:30:21Z</time></trkpt><trkpt lat="44.62568161714007" lon="6.68055660514178"><ele>1619.25</ele><time>2026-05-01T11:30:22Z</time></trkpt><trkpt lat="44.625627131000236" lon="6.6806253773863205"><ele>1620.0</ele><time>2026-05-01T11:30:23Z</time></trkpt><trkpt lat="44.625566262453056" lon="6.680781566435303"><ele>1620.0</ele><time>2026-05-01T11:30:24Z</time></trkpt><trkpt lat="44.62555035940118" lon="6.680949124608758"><ele>1620.0</ele><time>2026-05-01T11:30:25Z</time></trkpt><trkpt lat="44.625569984404166" lon="6.681130351211659"><ele>1620.0</ele><time>2026-05-01T11:30:26Z</time></trkpt><trkpt lat="44.625598445053534" lon="6.681307729813546"><ele>1620.0</ele><time>2026-05-01T11:30:27Z</time></trkpt><trkpt lat="44.62561388603282" lon="6.681451887895395"><ele>1623.2</ele><time>2026-05-01T11:30:28Z</time></trkpt><trkpt lat="44.62563661620602" lon="6.6815989398506135"><ele>1626.4</ele><time>2026-05-01T11:30:29Z</time></trkpt><trkpt lat="44.62562079018165" lon="6.681744824621899"><ele>1629.6</ele><time>2026-05-01T11:30:30Z</time></trkpt><trkpt lat="44.62555400805855" lon="6.6818712052438665"><ele>1632.8</ele><time>2026-05-01T11:30:31Z</time></trkpt><trkpt lat="44.62547110116022" lon="6.681973794427473"><ele>1636.0</ele><time>2026-05-01T11:30:32Z</time></trkpt><trkpt lat="44.625380867601024" lon="6.682137380469033"><ele>1628.3333333333335</ele><time>2026-05-01T11:30:33Z</time></trkpt><trkpt lat="44.62528571426547" lon="6.682318449006994"><ele>1620.6666666666665</ele><time>2026-05-01T11:30:34Z</time></trkpt><trkpt lat="44.625192520073504" lon="6.682495308805793"><ele>1613.0</ele><time>2026-05-01T11:30:35Z</time></trkpt><trkpt lat="44.62508655485217" lon="6.68269093479421"><ele>1620.0</ele><time>2026-05-01T11:30:36Z</time></trkpt><trkpt lat="44.62496637568496" lon="6.682888923303801"><ele>1627.0</ele><time>2026-05-01T11:30:37Z</time></trkpt><trkpt lat="44.624871227773255" lon="6.683052676782509"><ele>1634.0</ele><time>2026-05-01T11:30:38Z</time></trkpt><trkpt lat="44.62476668390746" lon="6.683203349250232"><ele>1634.0</ele><time>2026-05-01T11:30:39Z</time></trkpt><trkpt lat="44.624644772258144" lon="6.683287918820624"><ele>1634.0</ele><time>2026-05-01T11:30:40Z</time></trkpt><trkpt lat="44.624515814729406" lon="6.683373699813549"><ele>1634.0</ele><time>2026-05-01T11:30:41Z</time></trkpt><trkpt lat="44.62440507606533" lon="6.683415986889608"><ele>1634.0</ele><time>2026-05-01T11:30:42Z</time></trkpt><trkpt lat="44.62430877068592" lon="6.683431692330206"><ele>1632.4</ele><time>2026-05-01T11:30:43Z</time></trkpt><trkpt lat="44.624222075012504" lon="6.6834076446732675"><ele>1630.8000000000002</ele><time>2026-05-01T11:30:44Z</time></trkpt><trkpt lat="44.624152314620545" lon="6.683366387004137"><ele>1629.1999999999998</ele><time>2026-05-01T11:30:45Z</time></trkpt><trkpt lat="44.62401934266062" lon="6.683279434761229"><ele>1627.6</ele><time>2026-05-01T11:30:47Z</time></trkpt><trkpt lat="44.62391585197003" lon="6.683232129094697"><ele>1626.0</ele><time>2026-05-01T11:30:48Z</time></trkpt><trkpt lat="44.6238011373068" lon="6.683203890057978"><ele>1626.0</ele><time>2026-05-01T11:30:49Z</time></trkpt><trkpt lat="44.62370777745505" lon="6.683194874152469"><ele>1626.0</ele><time>2026-05-01T11:30:50Z</time></trkpt><trkpt lat="44.623586473482014" lon="6.683165123156958"><ele>1626.0</ele><time>2026-05-01T11:30:51Z</time></trkpt><trkpt lat="44.62344494243985" lon="6.683147237971939"><ele>1626.0</ele><time>2026-05-01T11:30:52Z</time></trkpt><trkpt lat="44.62327494614312" lon="6.68312170751557"><ele>1628.0</ele><time>2026-05-01T11:30:53Z</time></trkpt><trkpt lat="44.62307604310179" lon="6.683105117581417"><ele>1630.0</ele><time>2026-05-01T11:30:54Z</time></trkpt><trkpt lat="44.62288229741408" lon="6.683072474416475"><ele>1632.0</ele><time>2026-05-01T11:30:55Z</time></trkpt><trkpt lat="44.62267353188492" lon="6.6830635892070065"><ele>1632.3333333333335</ele><time>2026-05-01T11:30:56Z</time></trkpt><trkpt lat="44.62247811052751" lon="6.683040525911579"><ele>1632.6666666666667</ele><time>2026-05-01T11:30:57Z</time></trkpt><trkpt lat="44.62230119724629" lon="6.6830223695968245"><ele>1633.0</ele><time>2026-05-01T11:30:58Z</time></trkpt><trkpt lat="44.622130939243135" lon="6.6829910664568475"><ele>1633.0</ele><time>2026-05-01T11:30:59Z</time></trkpt><trkpt lat="44.62198694075355" lon="6.6829419019476575"><ele>1633.0</ele><time>2026-05-01T11:31:00Z</time></trkpt><trkpt lat="44.621888967035616" lon="6.68289371024158"><ele>1633.0</ele><time>2026-05-01T11:31:01Z</time></trkpt><trkpt lat="44.62179730193759" lon="6.6829045969384255"><ele>1633.0</ele><time>2026-05-01T11:31:02Z</time></trkpt><trkpt lat="44.62170508072008" lon="6.683047528808088"><ele>1633.6666666666667</ele><time>2026-05-01T11:31:03Z</time></trkpt><trkpt lat="44.62157317614336" lon="6.683145232375889"><ele>1634.3333333333335</ele><time>2026-05-01T11:31:04Z</time></trkpt><trkpt lat="44.62145535745276" lon="6.6832537231912665"><ele>1635.0</ele><time>2026-05-01T11:31:05Z</time></trkpt><trkpt lat="44.62137393710305" lon="6.6834723628808606"><ele>1638.25</ele><time>2026-05-01T11:31:06Z</time></trkpt><trkpt lat="44.62130901429051" lon="6.683704291159105"><ele>1641.5</ele><time>2026-05-01T11:31:07Z</time></trkpt><trkpt lat="44.621232289665905" lon="6.683857329611182"><ele>1644.75</ele><time>2026-05-01T11:31:08Z</time></trkpt><trkpt lat="44.621131675375636" lon="6.683966719374494"><ele>1648.0</ele><time>2026-05-01T11:31:09Z</time></trkpt><trkpt lat="44.621036025759075" lon="6.684034962041198"><ele>1648.0</ele><time>2026-05-01T11:31:10Z</time></trkpt><trkpt lat="44.62092634423473" lon="6.684087398755783"><ele>1648.0</ele><time>2026-05-01T11:31:11Z</time></trkpt><trkpt lat="44.620772533504834" lon="6.684087598532031"><ele>1648.0</ele><time>2026-05-01T11:31:12Z</time></trkpt><trkpt lat="44.620627750667985" lon="6.684047680027567"><ele>1648.0</ele><time>2026-05-01T11:31:13Z</time></trkpt><trkpt lat="44.62046714473361" lon="6.683978620423118"><ele>1652.3333333333335</ele><time>2026-05-01T11:31:14Z</time></trkpt><trkpt lat="44.620296148961835" lon="6.683891794406544"><ele>1656.6666666666665</ele><time>2026-05-01T11:31:15Z</time></trkpt><trkpt lat="44.62014008082986" lon="6.683804151772804"><ele>1661.0</ele><time>2026-05-01T11:31:16Z</time></trkpt><trkpt lat="44.61999018472608" lon="6.6837195928429844"><ele>1661.0</ele><time>2026-05-01T11:31:17Z</time></trkpt><trkpt lat="44.61986867947161" lon="6.683655316834079"><ele>1661.0</ele><time>2026-05-01T11:31:18Z</time></trkpt><trkpt lat="44.61975634895821" lon="6.683608238298409"><ele>1661.0</ele><time>2026-05-01T11:31:19Z</time></trkpt><trkpt lat="44.61965052246571" lon="6.683608701143064"><ele>1661.0</ele><time>2026-05-01T11:31:20Z</time></trkpt><trkpt lat="44.61953868459664" lon="6.6836008462153265"><ele>1662.5</ele><time>2026-05-01T11:31:21Z</time></trkpt><trkpt lat="44.619414120669404" lon="6.683711113106946"><ele>1664.0</ele><time>2026-05-01T11:31:22Z</time></trkpt><trkpt lat="44.6192849210208" lon="6.683796310091175"><ele>1665.5</ele><time>2026-05-01T11:31:23Z</time></trkpt><trkpt lat="44.619164067626194" lon="6.683837854952278"><ele>1667.0</ele><time>2026-05-01T11:31:24Z</time></trkpt><trkpt lat="44.61897375827477" lon="6.683907778614381"><ele>1667.0</ele><time>2026-05-01T11:31:25Z</time></trkpt><trkpt lat="44.61882306163235" lon="6.683910380341039"><ele>1667.0</ele><time>2026-05-01T11:31:26Z</time></trkpt><trkpt lat="44.618667777747824" lon="6.683922867354998"><ele>1667.0</ele><time>2026-05-01T11:31:27Z</time></trkpt><trkpt lat="44.61849352648449" lon="6.683937870822088"><ele>1664.3333333333333</ele><time>2026-05-01T11:31:28Z</time></trkpt><trkpt lat="44.61833700318572" lon="6.683983286987679"><ele>1661.6666666666665</ele><time>2026-05-01T11:31:29Z</time></trkpt><trkpt lat="44.61817465293607" lon="6.6840719158125195"><ele>1659.0</ele><time>2026-05-01T11:31:30Z</time></trkpt><trkpt lat="44.61799292874901" lon="6.684213273290215"><ele>1659.0</ele><time>2026-05-01T11:31:31Z</time></trkpt><trkpt lat="44.617840383108756" lon="6.684343633851509"><ele>1659.0</ele><time>2026-05-01T11:31:32Z</time></trkpt><trkpt lat="44.61767050852116" lon="6.684471010474832"><ele>1659.0</ele><time>2026-05-01T11:31:33Z</time></trkpt><trkpt lat="44.617512997183645" lon="6.684648062572092"><ele>1660.0</ele><time>2026-05-01T11:31:34Z</time></trkpt><trkpt lat="44.61735233046671" lon="6.684846314270515"><ele>1661.0</ele><time>2026-05-01T11:31:35Z</time></trkpt><trkpt lat="44.61719058929998" lon="6.684999769107328"><ele>1662.0</ele><time>2026-05-01T11:31:36Z</time></trkpt><trkpt lat="44.6169988253793" lon="6.685158982529056"><ele>1667.3333333333335</ele><time>2026-05-01T11:31:37Z</time></trkpt><trkpt lat="44.616831738467155" lon="6.685255564497464"><ele>1672.6666666666667</ele><time>2026-05-01T11:31:38Z</time></trkpt><trkpt lat="44.61667048828058" lon="6.685304433441209"><ele>1678.0</ele><time>2026-05-01T11:31:39Z</time></trkpt><trkpt lat="44.6164980266689" lon="6.685324804679255"><ele>1678.0</ele><time>2026-05-01T11:31:40Z</time></trkpt><trkpt lat="44.61631804623658" lon="6.68537159462567"><ele>1678.0</ele><time>2026-05-01T11:31:41Z</time></trkpt><trkpt lat="44.616189075123714" lon="6.6854836888581"><ele>1678.0</ele><time>2026-05-01T11:31:42Z</time></trkpt><trkpt lat="44.61611776738722" lon="6.685582625701629"><ele>1678.0</ele><time>2026-05-01T11:31:43Z</time></trkpt><trkpt lat="44.61602109866949" lon="6.685652456874561"><ele>1672.25</ele><time>2026-05-01T11:31:44Z</time></trkpt><trkpt lat="44.615959005674895" lon="6.685683121304048"><ele>1666.5</ele><time>2026-05-01T11:31:45Z</time></trkpt><trkpt lat="44.615828408049964" lon="6.685720348646446"><ele>1660.75</ele><time>2026-05-01T11:31:46Z</time></trkpt><trkpt lat="44.615680952173456" lon="6.685755447453793"><ele>1655.0</ele><time>2026-05-01T11:31:47Z</time></trkpt><trkpt lat="44.61551821814419" lon="6.685779265945112"><ele>1655.0</ele><time>2026-05-01T11:31:48Z</time></trkpt><trkpt lat="44.61536201276739" lon="6.68576255425277"><ele>1655.0</ele><time>2026-05-01T11:31:49Z</time></trkpt><trkpt lat="44.61520247555719" lon="6.685722754315983"><ele>1655.0</ele><time>2026-05-01T11:31:50Z</time></trkpt><trkpt lat="44.6150134617585" lon="6.6856743954199604"><ele>1654.3333333333333</ele><time>2026-05-01T11:31:51Z</time></trkpt><trkpt lat="44.61484047723022" lon="6.685656997854178"><ele>1653.6666666666665</ele><time>2026-05-01T11:31:52Z</time></trkpt><trkpt lat="44.61466294881719" lon="6.685682844691331"><ele>1653.0</ele><time>2026-05-01T11:31:53Z</time></trkpt><trkpt lat="44.61449818553686" lon="6.6857495534506"><ele>1649.0</ele><time>2026-05-01T11:31:54Z</time></trkpt><trkpt lat="44.614320889793404" lon="6.685808251609137"><ele>1645.0</ele><time>2026-05-01T11:31:55Z</time></trkpt><trkpt lat="44.614170356603445" lon="6.685858675201052"><ele>1641.0</ele><time>2026-05-01T11:31:56Z</time></trkpt><trkpt lat="44.614014059620665" lon="6.685948134280337"><ele>1641.0</ele><time>2026-05-01T11:31:57Z</time></trkpt><trkpt lat="44.613872663632584" lon="6.68604651064347"><ele>1641.0</ele><time>2026-05-01T11:31:58Z</time></trkpt><trkpt lat="44.61373226308432" lon="6.68614213057425"><ele>1641.0</ele><time>2026-05-01T11:31:59Z</time></trkpt><trkpt lat="44.61361140164594" lon="6.68625553299602"><ele>1638.3333333333335</ele><time>2026-05-01T11:32:00Z</time></trkpt><trkpt lat="44.613522223629715" lon="6.686546214985176"><ele>1635.6666666666667</ele><time>2026-05-01T11:32:01Z</time></trkpt><trkpt lat="44.61340387398468" lon="6.6867309660094705"><ele>1633.0</ele><time>2026-05-01T11:32:02Z</time></trkpt><trkpt lat="44.61326908633414" lon="6.686851620002927"><ele>1636.5</ele><time>2026-05-01T11:32:03Z</time></trkpt><trkpt lat="44.61314424087202" lon="6.686932291048475"><ele>1640.0</ele><time>2026-05-01T11:32:04Z</time></trkpt><trkpt lat="44.613017597213236" lon="6.686961054874593"><ele>1643.5</ele><time>2026-05-01T11:32:05Z</time></trkpt><trkpt lat="44.612867280953594" lon="6.68698230495259"><ele>1647.0</ele><time>2026-05-01T11:32:06Z</time></trkpt><trkpt lat="44.61268712816664" lon="6.6870052620339155"><ele>1647.0</ele><time>2026-05-01T11:32:07Z</time></trkpt><trkpt lat="44.61251707665651" lon="6.687029397939528"><ele>1647.0</ele><time>2026-05-01T11:32:08Z</time></trkpt><trkpt lat="44.612361795944665" lon="6.687064992062889"><ele>1647.0</ele><time>2026-05-01T11:32:09Z</time></trkpt><trkpt lat="44.612230919019225" lon="6.687110960631751"><ele>1647.0</ele><time>2026-05-01T11:32:10Z</time></trkpt><trkpt lat="44.61208751258468" lon="6.687181141834202"><ele>1647.0</ele><time>2026-05-01T11:32:11Z</time></trkpt><trkpt lat="44.61195425632992" lon="6.687235847484755"><ele>1647.0</ele><time>2026-05-01T11:32:12Z</time></trkpt><trkpt lat="44.61183892827855" lon="6.68729653138988"><ele>1647.0</ele><time>2026-05-01T11:32:13Z</time></trkpt><trkpt lat="44.61172546241604" lon="6.687350826827651"><ele>1646.1999999999998</ele><time>2026-05-01T11:32:14Z</time></trkpt><trkpt lat="44.61162417802503" lon="6.687415880639643"><ele>1645.4</ele><time>2026-05-01T11:32:15Z</time></trkpt><trkpt lat="44.61152714812221" lon="6.687443853404774"><ele>1644.6</ele><time>2026-05-01T11:32:16Z</time></trkpt><trkpt lat="44.611425404284965" lon="6.687480093393496"><ele>1643.8000000000002</ele><time>2026-05-01T11:32:17Z</time></trkpt><trkpt lat="44.61133439415703" lon="6.687519479250938"><ele>1643.0</ele><time>2026-05-01T11:32:18Z</time></trkpt><trkpt lat="44.61124286582422" lon="6.687559088933786"><ele>1643.8000000000002</ele><time>2026-05-01T11:32:19Z</time></trkpt><trkpt lat="44.611127559842544" lon="6.687611543627889"><ele>1644.6</ele><time>2026-05-01T11:32:20Z</time></trkpt><trkpt lat="44.611011958774924" lon="6.687690836495219"><ele>1645.4</ele><time>2026-05-01T11:32:21Z</time></trkpt><trkpt lat="44.61092712787684" lon="6.687730217018542"><ele>1646.1999999999998</ele><time>2026-05-01T11:32:22Z</time></trkpt><trkpt lat="44.610817937210236" lon="6.687746953508431"><ele>1647.0</ele><time>2026-05-01T11:32:23Z</time></trkpt><trkpt lat="44.610740217857774" lon="6.6877876622171275"><ele>1647.0</ele><time>2026-05-01T11:32:24Z</time></trkpt><trkpt lat="44.61065290949615" lon="6.687835875436455"><ele>1647.0</ele><time>2026-05-01T11:32:25Z</time></trkpt><trkpt lat="44.610529989119186" lon="6.6879241926109865"><ele>1647.0</ele><time>2026-05-01T11:32:27Z</time></trkpt><trkpt lat="44.610452669619356" lon="6.687976800898073"><ele>1647.0</ele><time>2026-05-01T11:32:28Z</time></trkpt><trkpt lat="44.61037635574557" lon="6.6880174058901005"><ele>1647.0</ele><time>2026-05-01T11:32:29Z</time></trkpt><trkpt lat="44.61029241985353" lon="6.687988096197041"><ele>1646.3333333333333</ele><time>2026-05-01T11:32:30Z</time></trkpt><trkpt lat="44.610227077830174" lon="6.687994357504762"><ele>1645.6666666666665</ele><time>2026-05-01T11:32:31Z</time></trkpt><trkpt lat="44.610101212776584" lon="6.688024831556102"><ele>1645.0</ele><time>2026-05-01T11:32:33Z</time></trkpt><trkpt lat="44.61002157712626" lon="6.68804691169127"><ele>1644.3333333333333</ele><time>2026-05-01T11:32:34Z</time></trkpt><trkpt lat="44.60997436876118" lon="6.688122470528995"><ele>1643.6666666666665</ele><time>2026-05-01T11:32:35Z</time></trkpt><trkpt lat="44.60990354236146" lon="6.688198580442668"><ele>1643.0</ele><time>2026-05-01T11:32:36Z</time></trkpt><trkpt lat="44.609876380542765" lon="6.688346450829739"><ele>1642.9999999999998</ele><time>2026-05-01T11:32:37Z</time></trkpt><trkpt lat="44.60979172417059" lon="6.68846886206538"><ele>1643.0</ele><time>2026-05-01T11:32:39Z</time></trkpt><trkpt lat="44.609723285345176" lon="6.6884817129651095"><ele>1643.0</ele><time>2026-05-01T11:32:40Z</time></trkpt><trkpt lat="44.60965110857978" lon="6.688464939828594"><ele>1643.0</ele><time>2026-05-01T11:32:41Z</time></trkpt><trkpt lat="44.609572326426544" lon="6.688453701517965"><ele>1642.9999999999998</ele><time>2026-05-01T11:32:42Z</time></trkpt><trkpt lat="44.609473361826375" lon="6.688443139895324"><ele>1643.0</ele><time>2026-05-01T11:32:43Z</time></trkpt><trkpt lat="44.60935442432943" lon="6.6884593864534905"><ele>1641.75</ele><time>2026-05-01T11:32:44Z</time></trkpt><trkpt lat="44.60921401977874" lon="6.688475028633638"><ele>1640.5</ele><time>2026-05-01T11:32:45Z</time></trkpt><trkpt lat="44.60911071271048" lon="6.6884793511187635"><ele>1639.25</ele><time>2026-05-01T11:32:46Z</time></trkpt><trkpt lat="44.60899600118694" lon="6.688479503704674"><ele>1638.0</ele><time>2026-05-01T11:32:47Z</time></trkpt><trkpt lat="44.608891310344774" lon="6.688476713840434"><ele>1638.0</ele><time>2026-05-01T11:32:48Z</time></trkpt><trkpt lat="44.608783097693525" lon="6.688469574512753"><ele>1638.0</ele><time>2026-05-01T11:32:49Z</time></trkpt><trkpt lat="44.60868464192307" lon="6.688434917302299"><ele>1638.0</ele><time>2026-05-01T11:32:50Z</time></trkpt><trkpt lat="44.608592301631795" lon="6.688409274505468"><ele>1638.0</ele><time>2026-05-01T11:32:51Z</time></trkpt><trkpt lat="44.6084907057167" lon="6.688350218105194"><ele>1638.0</ele><time>2026-05-01T11:32:52Z</time></trkpt><trkpt lat="44.608394534793604" lon="6.688338970486082"><ele>1637.6000000000001</ele><time>2026-05-01T11:32:53Z</time></trkpt><trkpt lat="44.60828465385041" lon="6.6883552643303466"><ele>1637.2</ele><time>2026-05-01T11:32:54Z</time></trkpt><trkpt lat="44.608186934032446" lon="6.688377846507976"><ele>1636.8</ele><time>2026-05-01T11:32:55Z</time></trkpt><trkpt lat="44.60810492864485" lon="6.6884084618464525"><ele>1636.4</ele><time>2026-05-01T11:32:56Z</time></trkpt><trkpt lat="44.608013004140616" lon="6.688437239639247"><ele>1636.0</ele><time>2026-05-01T11:32:57Z</time></trkpt><trkpt lat="44.60792539687677" lon="6.688405139635708"><ele>1634.75</ele><time>2026-05-01T11:32:58Z</time></trkpt><trkpt lat="44.6078200961921" lon="6.688377685290303"><ele>1633.5</ele><time>2026-05-01T11:32:59Z</time></trkpt><trkpt lat="44.607700975579895" lon="6.688391582672496"><ele>1632.25</ele><time>2026-05-01T11:33:00Z</time></trkpt><trkpt lat="44.60758587597657" lon="6.688388977691455"><ele>1631.0</ele><time>2026-05-01T11:33:01Z</time></trkpt><trkpt lat="44.60744383284757" lon="6.688395870293077"><ele>1631.0</ele><time>2026-05-01T11:33:02Z</time></trkpt><trkpt lat="44.60730535554233" lon="6.6884319173098445"><ele>1631.0</ele><time>2026-05-01T11:33:03Z</time></trkpt><trkpt lat="44.60716258476799" lon="6.688479088688256"><ele>1631.0</ele><time>2026-05-01T11:33:04Z</time></trkpt><trkpt lat="44.607023656173524" lon="6.688533103719752"><ele>1631.0</ele><time>2026-05-01T11:33:05Z</time></trkpt><trkpt lat="44.60686653430989" lon="6.6886226794687165"><ele>1634.6666666666665</ele><time>2026-05-01T11:33:06Z</time></trkpt><trkpt lat="44.60669571806118" lon="6.688670709260536"><ele>1638.3333333333335</ele><time>2026-05-01T11:33:07Z</time></trkpt><trkpt lat="44.606545282259624" lon="6.688731485400284"><ele>1642.0</ele><time>2026-05-01T11:33:08Z</time></trkpt><trkpt lat="44.6063714495786" lon="6.688826802415137"><ele>1642.0</ele><time>2026-05-01T11:33:09Z</time></trkpt><trkpt lat="44.60619960802663" lon="6.68889713193153"><ele>1642.0</ele><time>2026-05-01T11:33:10Z</time></trkpt><trkpt lat="44.60602550428692" lon="6.6889675349987545"><ele>1642.0</ele><time>2026-05-01T11:33:11Z</time></trkpt><trkpt lat="44.60586500833348" lon="6.689048174392314"><ele>1638.3333333333335</ele><time>2026-05-01T11:33:12Z</time></trkpt><trkpt lat="44.605710076727775" lon="6.68913197138443"><ele>1634.6666666666665</ele><time>2026-05-01T11:33:13Z</time></trkpt><trkpt lat="44.605562529119176" lon="6.6892103085228465"><ele>1631.0</ele><time>2026-05-01T11:33:14Z</time></trkpt><trkpt lat="44.60539365730982" lon="6.689265416291297"><ele>1630.75</ele><time>2026-05-01T11:33:15Z</time></trkpt><trkpt lat="44.60525819789683" lon="6.689328520864108"><ele>1630.5</ele><time>2026-05-01T11:33:16Z</time></trkpt><trkpt lat="44.605118400419094" lon="6.689366044521636"><ele>1630.25</ele><time>2026-05-01T11:33:17Z</time></trkpt><trkpt lat="44.60502726040576" lon="6.689350877851775"><ele>1630.0</ele><time>2026-05-01T11:33:18Z</time></trkpt><trkpt lat="44.60491185728004" lon="6.6892934714752"><ele>1630.0</ele><time>2026-05-01T11:33:19Z</time></trkpt><trkpt lat="44.604810730969575" lon="6.689141473149942"><ele>1630.0</ele><time>2026-05-01T11:33:20Z</time></trkpt><trkpt lat="44.60470742780214" lon="6.689019002277947"><ele>1630.0</ele><time>2026-05-01T11:33:21Z</time></trkpt><trkpt lat="44.60459790293695" lon="6.688908359055463"><ele>1630.0</ele><time>2026-05-01T11:33:22Z</time></trkpt><trkpt lat="44.60448824625977" lon="6.688799279950653"><ele>1633.0</ele><time>2026-05-01T11:33:23Z</time></trkpt><trkpt lat="44.604368250203024" lon="6.688702758917687"><ele>1636.0</ele><time>2026-05-01T11:33:24Z</time></trkpt><trkpt lat="44.60424195264561" lon="6.688641071421178"><ele>1639.0</ele><time>2026-05-01T11:33:25Z</time></trkpt><trkpt lat="44.604076566549885" lon="6.688634639669606"><ele>1642.0</ele><time>2026-05-01T11:33:26Z</time></trkpt><trkpt lat="44.6039279500482" lon="6.688594096317253"><ele>1637.0</ele><time>2026-05-01T11:33:27Z</time></trkpt><trkpt lat="44.60378657426266" lon="6.688554842228012"><ele>1632.0</ele><time>2026-05-01T11:33:28Z</time></trkpt><trkpt lat="44.60360269180386" lon="6.688568273792183"><ele>1627.0</ele><time>2026-05-01T11:33:29Z</time></trkpt><trkpt lat="44.60345239257924" lon="6.688575579731786"><ele>1632.75</ele><time>2026-05-01T11:33:30Z</time></trkpt><trkpt lat="44.603308500552274" lon="6.688608115290396"><ele>1638.5</ele><time>2026-05-01T11:33:31Z</time></trkpt><trkpt lat="44.603176328998615" lon="6.688671778247148"><ele>1644.25</ele><time>2026-05-01T11:33:32Z</time></trkpt><trkpt lat="44.60303428337856" lon="6.688786799958764"><ele>1650.0</ele><time>2026-05-01T11:33:33Z</time></trkpt><trkpt lat="44.6029031523718" lon="6.68892576367302"><ele>1650.0</ele><time>2026-05-01T11:33:34Z</time></trkpt><trkpt lat="44.602775221009665" lon="6.6890011639894515"><ele>1650.0</ele><time>2026-05-01T11:33:35Z</time></trkpt><trkpt lat="44.60264955675355" lon="6.689028246546304"><ele>1650.0</ele><time>2026-05-01T11:33:36Z</time></trkpt><trkpt lat="44.602496100447574" lon="6.689021808623546"><ele>1650.0</ele><time>2026-05-01T11:33:37Z</time></trkpt><trkpt lat="44.60234019212702" lon="6.688993839725105"><ele>1650.0</ele><time>2026-05-01T11:33:38Z</time></trkpt><trkpt lat="44.60216791992254" lon="6.688968929553705"><ele>1650.0</ele><time>2026-05-01T11:33:39Z</time></trkpt><trkpt lat="44.60201014412988" lon="6.688966469475461"><ele>1650.0</ele><time>2026-05-01T11:33:40Z</time></trkpt><trkpt lat="44.60185549588074" lon="6.688993272393816"><ele>1650.3333333333335</ele><time>2026-05-01T11:33:41Z</time></trkpt><trkpt lat="44.601689677117044" lon="6.68905090011153"><ele>1650.6666666666667</ele><time>2026-05-01T11:33:42Z</time></trkpt><trkpt lat="44.60151989379358" lon="6.6891185034302465"><ele>1651.0</ele><time>2026-05-01T11:33:43Z</time></trkpt><trkpt lat="44.60134611594524" lon="6.689206923629257"><ele>1651.0</ele><time>2026-05-01T11:33:44Z</time></trkpt><trkpt lat="44.60116800195968" lon="6.689271078614823"><ele>1651.0</ele><time>2026-05-01T11:33:45Z</time></trkpt><trkpt lat="44.600968023859785" lon="6.689351565071089"><ele>1651.0</ele><time>2026-05-01T11:33:46Z</time></trkpt><trkpt lat="44.600726172004364" lon="6.689486915467613"><ele>1656.5</ele><time>2026-05-01T11:33:47Z</time></trkpt><trkpt lat="44.600495121288404" lon="6.68959539369742"><ele>1662.0</ele><time>2026-05-01T11:33:48Z</time></trkpt><trkpt lat="44.6002735134071" lon="6.689678222853117"><ele>1662.0</ele><time>2026-05-01T11:33:49Z</time></trkpt><trkpt lat="44.6000797242042" lon="6.689757822745598"><ele>1662.0</ele><time>2026-05-01T11:33:50Z</time></trkpt><trkpt lat="44.599893410802636" lon="6.689826738006779"><ele>1662.0</ele><time>2026-05-01T11:33:51Z</time></trkpt><trkpt lat="44.599724069464095" lon="6.689862069045196"><ele>1662.0</ele><time>2026-05-01T11:33:52Z</time></trkpt><trkpt lat="44.59955122041473" lon="6.689854928061748"><ele>1662.0</ele><time>2026-05-01T11:33:53Z</time></trkpt><trkpt lat="44.599342053597255" lon="6.6898227337764276"><ele>1662.0</ele><time>2026-05-01T11:33:54Z</time></trkpt><trkpt lat="44.59912840091437" lon="6.6897847153945715"><ele>1662.6666666666665</ele><time>2026-05-01T11:33:55Z</time></trkpt><trkpt lat="44.59891800450123" lon="6.689750764552619"><ele>1663.3333333333333</ele><time>2026-05-01T11:33:56Z</time></trkpt><trkpt lat="44.598713714766276" lon="6.689721238486423"><ele>1664.0</ele><time>2026-05-01T11:33:57Z</time></trkpt><trkpt lat="44.59853155335086" lon="6.6897140330029075"><ele>1664.6666666666665</ele><time>2026-05-01T11:33:58Z</time></trkpt><trkpt lat="44.5983484487183" lon="6.68972431599255"><ele>1665.3333333333335</ele><time>2026-05-01T11:33:59Z</time></trkpt><trkpt lat="44.598136206691095" lon="6.689742932376869"><ele>1666.0</ele><time>2026-05-01T11:34:00Z</time></trkpt><trkpt lat="44.59792692857415" lon="6.68975998836714"><ele>1666.0</ele><time>2026-05-01T11:34:01Z</time></trkpt><trkpt lat="44.5977355135546" lon="6.689772382928698"><ele>1666.0</ele><time>2026-05-01T11:34:02Z</time></trkpt><trkpt lat="44.5975607137347" lon="6.689783422917645"><ele>1666.0</ele><time>2026-05-01T11:34:03Z</time></trkpt><trkpt lat="44.597371120630775" lon="6.689809467754574"><ele>1666.0</ele><time>2026-05-01T11:34:04Z</time></trkpt><trkpt lat="44.5971880723404" lon="6.68985472586298"><ele>1666.0</ele><time>2026-05-01T11:34:05Z</time></trkpt><trkpt lat="44.59702138668974" lon="6.68990087531908"><ele>1666.0</ele><time>2026-05-01T11:34:06Z</time></trkpt><trkpt lat="44.59686206627532" lon="6.689940302666254"><ele>1665.0</ele><time>2026-05-01T11:34:07Z</time></trkpt><trkpt lat="44.59669293663074" lon="6.689971841027364"><ele>1664.0</ele><time>2026-05-01T11:34:08Z</time></trkpt><trkpt lat="44.59655509877001" lon="6.689981204307718"><ele>1663.0</ele><time>2026-05-01T11:34:09Z</time></trkpt><trkpt lat="44.59641958473505" lon="6.689966033441787"><ele>1662.0</ele><time>2026-05-01T11:34:10Z</time></trkpt><trkpt lat="44.5962757461633" lon="6.6899378106408625"><ele>1662.6666666666665</ele><time>2026-05-01T11:34:11Z</time></trkpt><trkpt lat="44.596117794442904" lon="6.689900030140025"><ele>1663.3333333333333</ele><time>2026-05-01T11:34:12Z</time></trkpt><trkpt lat="44.595969672694295" lon="6.689881826542359"><ele>1664.0</ele><time>2026-05-01T11:34:13Z</time></trkpt><trkpt lat="44.595824666234115" lon="6.689875791417676"><ele>1664.0</ele><time>2026-05-01T11:34:14Z</time></trkpt><trkpt lat="44.59568931308646" lon="6.689898648708073"><ele>1664.0</ele><time>2026-05-01T11:34:15Z</time></trkpt><trkpt lat="44.59553919785706" lon="6.689903632011591"><ele>1664.0</ele><time>2026-05-01T11:34:16Z</time></trkpt><trkpt lat="44.595409326181844" lon="6.689869737322008"><ele>1664.0</ele><time>2026-05-01T11:34:17Z</time></trkpt><trkpt lat="44.59528592299382" lon="6.689867060756726"><ele>1662.8000000000002</ele><time>2026-05-01T11:34:18Z</time></trkpt><trkpt lat="44.595183453609025" lon="6.689881809762744"><ele>1661.6000000000001</ele><time>2026-05-01T11:34:19Z</time></trkpt><trkpt lat="44.595090881292066" lon="6.689893407133291"><ele>1660.4</ele><time>2026-05-01T11:34:20Z</time></trkpt><trkpt lat="44.594995556355215" lon="6.689896071012535"><ele>1659.2</ele><time>2026-05-01T11:34:21Z</time></trkpt><trkpt lat="44.59489424425751" lon="6.689906194252077"><ele>1658.0</ele><time>2026-05-01T11:34:22Z</time></trkpt><trkpt lat="44.59479262170977" lon="6.689909784211215"><ele>1658.0</ele><time>2026-05-01T11:34:23Z</time></trkpt><trkpt lat="44.594693851260764" lon="6.6898866860445105"><ele>1658.0</ele><time>2026-05-01T11:34:24Z</time></trkpt><trkpt lat="44.59459902416096" lon="6.689861528997593"><ele>1658.0</ele><time>2026-05-01T11:34:25Z</time></trkpt><trkpt lat="44.59449718416025" lon="6.689835829975114"><ele>1658.0</ele><time>2026-05-01T11:34:26Z</time></trkpt><trkpt lat="44.59439465942943" lon="6.68972538859069"><ele>1658.0</ele><time>2026-05-01T11:34:27Z</time></trkpt><trkpt lat="44.59427672426631" lon="6.689629973822869"><ele>1658.25</ele><time>2026-05-01T11:34:28Z</time></trkpt><trkpt lat="44.59416868009408" lon="6.689549473321443"><ele>1658.5</ele><time>2026-05-01T11:34:29Z</time></trkpt><trkpt lat="44.594061317011" lon="6.689483301124961"><ele>1658.75</ele><time>2026-05-01T11:34:30Z</time></trkpt><trkpt lat="44.59395075728155" lon="6.689454965729688"><ele>1659.0</ele><time>2026-05-01T11:34:31Z</time></trkpt><trkpt lat="44.593830060532" lon="6.689414634046206"><ele>1659.75</ele><time>2026-05-01T11:34:32Z</time></trkpt><trkpt lat="44.5936807637501" lon="6.689393715572539"><ele>1660.5</ele><time>2026-05-01T11:34:33Z</time></trkpt><trkpt lat="44.59355920676119" lon="6.6893644037726"><ele>1661.25</ele><time>2026-05-01T11:34:34Z</time></trkpt><trkpt lat="44.59342346061307" lon="6.689354839753434"><ele>1662.0</ele><time>2026-05-01T11:34:35Z</time></trkpt><trkpt lat="44.59330890245517" lon="6.68932121613672"><ele>1662.0</ele><time>2026-05-01T11:34:36Z</time></trkpt><trkpt lat="44.59320282890719" lon="6.689325726535392"><ele>1662.0</ele><time>2026-05-01T11:34:37Z</time></trkpt><trkpt lat="44.5931072348554" lon="6.689355915337971"><ele>1662.0</ele><time>2026-05-01T11:34:38Z</time></trkpt><trkpt lat="44.592964202439845" lon="6.689388666027668"><ele>1662.0</ele><time>2026-05-01T11:34:39Z</time></trkpt><trkpt lat="44.59285266603936" lon="6.6893968547377"><ele>1663.25</ele><time>2026-05-01T11:34:40Z</time></trkpt><trkpt lat="44.59274658784189" lon="6.689355470197265"><ele>1664.5</ele><time>2026-05-01T11:34:41Z</time></trkpt><trkpt lat="44.5926572392894" lon="6.6893021969015125"><ele>1665.75</ele><time>2026-05-01T11:34:42Z</time></trkpt><trkpt lat="44.59255622760606" lon="6.689200399187219"><ele>1667.0</ele><time>2026-05-01T11:34:43Z</time></trkpt><trkpt lat="44.59243975037096" lon="6.6890883842402475"><ele>1667.0</ele><time>2026-05-01T11:34:44Z</time></trkpt><trkpt lat="44.592304015724324" lon="6.68898829772081"><ele>1667.0</ele><time>2026-05-01T11:34:45Z</time></trkpt><trkpt lat="44.5921725626087" lon="6.688915208389651"><ele>1667.0</ele><time>2026-05-01T11:34:46Z</time></trkpt><trkpt lat="44.59203545463946" lon="6.688864695908536"><ele>1667.0</ele><time>2026-05-01T11:34:47Z</time></trkpt><trkpt lat="44.59189919042428" lon="6.688826310065639"><ele>1668.0</ele><time>2026-05-01T11:34:48Z</time></trkpt><trkpt lat="44.59176087800756" lon="6.688799870788988"><ele>1669.0</ele><time>2026-05-01T11:34:49Z</time></trkpt><trkpt lat="44.5916323861727" lon="6.688782328171025"><ele>1670.0</ele><time>2026-05-01T11:34:50Z</time></trkpt><trkpt lat="44.591518438414255" lon="6.688818840016308"><ele>1671.0</ele><time>2026-05-01T11:34:51Z</time></trkpt><trkpt lat="44.59140390643769" lon="6.68881708795923"><ele>1671.0</ele><time>2026-05-01T11:34:52Z</time></trkpt><trkpt lat="44.59130365181921" lon="6.688762134688475"><ele>1671.0</ele><time>2026-05-01T11:34:53Z</time></trkpt><trkpt lat="44.59125301771612" lon="6.688689152892301"><ele>1671.0</ele><time>2026-05-01T11:34:54Z</time></trkpt><trkpt lat="44.5911915166898" lon="6.688578764715128"><ele>1671.0</ele><time>2026-05-01T11:34:55Z</time></trkpt><trkpt lat="44.59114636959803" lon="6.688442038108755"><ele>1671.0</ele><time>2026-05-01T11:34:56Z</time></trkpt><trkpt lat="44.59112802527247" lon="6.6882794383026"><ele>1672.5</ele><time>2026-05-01T11:34:57Z</time></trkpt><trkpt lat="44.591083869588374" lon="6.688102440489272"><ele>1674.0</ele><time>2026-05-01T11:34:58Z</time></trkpt><trkpt lat="44.591014568293545" lon="6.687959165563378"><ele>1675.5</ele><time>2026-05-01T11:34:59Z</time></trkpt><trkpt lat="44.590922702882715" lon="6.687845837296725"><ele>1677.0</ele><time>2026-05-01T11:35:00Z</time></trkpt><trkpt lat="44.59081836619572" lon="6.687765785358792"><ele>1681.3333333333335</ele><time>2026-05-01T11:35:01Z</time></trkpt><trkpt lat="44.59069703209265" lon="6.687691218347348"><ele>1685.6666666666667</ele><time>2026-05-01T11:35:02Z</time></trkpt><trkpt lat="44.590506546582965" lon="6.687664289876131"><ele>1690.0</ele><time>2026-05-01T11:35:03Z</time></trkpt><trkpt lat="44.59032700600406" lon="6.687681960357731"><ele>1691.6666666666667</ele><time>2026-05-01T11:35:04Z</time></trkpt><trkpt lat="44.590157322308656" lon="6.687732232150777"><ele>1693.3333333333335</ele><time>2026-05-01T11:35:05Z</time></trkpt><trkpt lat="44.58998673135519" lon="6.687776743013079"><ele>1695.0</ele><time>2026-05-01T11:35:06Z</time></trkpt><trkpt lat="44.5898080121028" lon="6.687805408060253"><ele>1692.0</ele><time>2026-05-01T11:35:07Z</time></trkpt><trkpt lat="44.589619384782516" lon="6.687809098384658"><ele>1689.0</ele><time>2026-05-01T11:35:08Z</time></trkpt><trkpt lat="44.589418246678186" lon="6.687791118910639"><ele>1686.0</ele><time>2026-05-01T11:35:09Z</time></trkpt><trkpt lat="44.5892126363677" lon="6.687767742645478"><ele>1691.3333333333335</ele><time>2026-05-01T11:35:10Z</time></trkpt><trkpt lat="44.58901268527177" lon="6.687742579782092"><ele>1696.6666666666667</ele><time>2026-05-01T11:35:11Z</time></trkpt><trkpt lat="44.58883186754999" lon="6.687718689728968"><ele>1702.0</ele><time>2026-05-01T11:35:12Z</time></trkpt><trkpt lat="44.588676735385675" lon="6.687688518907173"><ele>1704.0</ele><time>2026-05-01T11:35:13Z</time></trkpt><trkpt lat="44.58853281558626" lon="6.687632803491134"><ele>1706.0</ele><time>2026-05-01T11:35:14Z</time></trkpt><trkpt lat="44.588362636838525" lon="6.687552038565159"><ele>1708.0</ele><time>2026-05-01T11:35:15Z</time></trkpt><trkpt lat="44.58817963362229" lon="6.68745580531268"><ele>1708.0</ele><time>2026-05-01T11:35:16Z</time></trkpt><trkpt lat="44.58798391163862" lon="6.687351420357325"><ele>1708.0</ele><time>2026-05-01T11:35:17Z</time></trkpt><trkpt lat="44.587779571937524" lon="6.687241062576461"><ele>1708.0</ele><time>2026-05-01T11:35:18Z</time></trkpt><trkpt lat="44.58756862195982" lon="6.687126567865611"><ele>1706.3333333333335</ele><time>2026-05-01T11:35:19Z</time></trkpt><trkpt lat="44.58735442971635" lon="6.687033360227377"><ele>1704.6666666666665</ele><time>2026-05-01T11:35:20Z</time></trkpt><trkpt lat="44.587175825852086" lon="6.686930609950864"><ele>1703.0</ele><time>2026-05-01T11:35:21Z</time></trkpt><trkpt lat="44.58700103312802" lon="6.686836232029459"><ele>1708.3333333333333</ele><time>2026-05-01T11:35:22Z</time></trkpt><trkpt lat="44.586843444935575" lon="6.6867453193856345"><ele>1713.6666666666665</ele><time>2026-05-01T11:35:23Z</time></trkpt><trkpt lat="44.58669085341639" lon="6.686681481269"><ele>1719.0</ele><time>2026-05-01T11:35:24Z</time></trkpt><trkpt lat="44.58656008094343" lon="6.686603692901407"><ele>1719.0</ele><time>2026-05-01T11:35:25Z</time></trkpt><trkpt lat="44.58645009959344" lon="6.686474474950473"><ele>1719.0</ele><time>2026-05-01T11:35:26Z</time></trkpt><trkpt lat="44.58634433167207" lon="6.686322185739418"><ele>1719.0</ele><time>2026-05-01T11:35:27Z</time></trkpt><trkpt lat="44.586277318787296" lon="6.686065806146252"><ele>1720.6666666666665</ele><time>2026-05-01T11:35:28Z</time></trkpt><trkpt lat="44.58616852348025" lon="6.685836634009581"><ele>1722.3333333333333</ele><time>2026-05-01T11:35:29Z</time></trkpt><trkpt lat="44.586039079050174" lon="6.685599958295651"><ele>1724.0</ele><time>2026-05-01T11:35:30Z</time></trkpt><trkpt lat="44.58589047505859" lon="6.685398692294797"><ele>1734.0</ele><time>2026-05-01T11:35:31Z</time></trkpt><trkpt lat="44.585742729500986" lon="6.685170814147946"><ele>1744.0</ele><time>2026-05-01T11:35:32Z</time></trkpt><trkpt lat="44.58557243460228" lon="6.684917620519343"><ele>1744.0</ele><time>2026-05-01T11:35:33Z</time></trkpt><trkpt lat="44.58539377010771" lon="6.684676753313989"><ele>1744.0</ele><time>2026-05-01T11:35:34Z</time></trkpt><trkpt lat="44.585184592159884" lon="6.684472196551827"><ele>1746.6666666666667</ele><time>2026-05-01T11:35:35Z</time></trkpt><trkpt lat="44.58501165502985" lon="6.6842750214352655"><ele>1749.3333333333335</ele><time>2026-05-01T11:35:36Z</time></trkpt><trkpt lat="44.58486961632045" lon="6.68409588991673"><ele>1752.0</ele><time>2026-05-01T11:35:37Z</time></trkpt><trkpt lat="44.58476888158107" lon="6.6838840570891636"><ele>1752.0</ele><time>2026-05-01T11:35:38Z</time></trkpt><trkpt lat="44.584634366293805" lon="6.683698354218638"><ele>1752.0</ele><time>2026-05-01T11:35:39Z</time></trkpt><trkpt lat="44.5844995690275" lon="6.6835314726848125"><ele>1752.0</ele><time>2026-05-01T11:35:40Z</time></trkpt><trkpt lat="44.58433390444743" lon="6.683419239019259"><ele>1753.0</ele><time>2026-05-01T11:35:41Z</time></trkpt><trkpt lat="44.584154094838276" lon="6.6832830152889775"><ele>1754.0</ele><time>2026-05-01T11:35:42Z</time></trkpt><trkpt lat="44.58396950057017" lon="6.683133355650912"><ele>1755.0</ele><time>2026-05-01T11:35:43Z</time></trkpt><trkpt lat="44.583797914736216" lon="6.682984217234292"><ele>1756.0</ele><time>2026-05-01T11:35:44Z</time></trkpt><trkpt lat="44.58364744677534" lon="6.682871365649728"><ele>1757.0</ele><time>2026-05-01T11:35:45Z</time></trkpt><trkpt lat="44.583490912999444" lon="6.682783836829994"><ele>1758.0</ele><time>2026-05-01T11:35:46Z</time></trkpt><trkpt lat="44.58335947909969" lon="6.682710279731577"><ele>1758.0</ele><time>2026-05-01T11:35:47Z</time></trkpt><trkpt lat="44.583203097927985" lon="6.682744494655305"><ele>1758.0</ele><time>2026-05-01T11:35:48Z</time></trkpt><trkpt lat="44.58304903279142" lon="6.682752842558358"><ele>1758.0</ele><time>2026-05-01T11:35:49Z</time></trkpt><trkpt lat="44.582870814469985" lon="6.682873696050839"><ele>1760.6666666666665</ele><time>2026-05-01T11:35:50Z</time></trkpt><trkpt lat="44.58270069274874" lon="6.683058090793516"><ele>1763.3333333333333</ele><time>2026-05-01T11:35:51Z</time></trkpt><trkpt lat="44.58250736091996" lon="6.683234260080436"><ele>1766.0</ele><time>2026-05-01T11:35:52Z</time></trkpt><trkpt lat="44.58234165560991" lon="6.6833576625554825"><ele>1766.0</ele><time>2026-05-01T11:35:53Z</time></trkpt><trkpt lat="44.58212976313724" lon="6.683473767239135"><ele>1766.0</ele><time>2026-05-01T11:35:54Z</time></trkpt><trkpt lat="44.58192884631833" lon="6.6835587179208265"><ele>1766.0</ele><time>2026-05-01T11:35:55Z</time></trkpt><trkpt lat="44.58172986374109" lon="6.683639524261133"><ele>1766.0</ele><time>2026-05-01T11:35:56Z</time></trkpt><trkpt lat="44.58153294957305" lon="6.683729001026343"><ele>1766.0</ele><time>2026-05-01T11:35:57Z</time></trkpt><trkpt lat="44.581355067915865" lon="6.68383032264809"><ele>1766.0</ele><time>2026-05-01T11:35:58Z</time></trkpt><trkpt lat="44.58119179930715" lon="6.683951393159582"><ele>1770.0</ele><time>2026-05-01T11:35:59Z</time></trkpt><trkpt lat="44.581050005671024" lon="6.6840653850344935"><ele>1774.0</ele><time>2026-05-01T11:36:00Z</time></trkpt><trkpt lat="44.58090522595516" lon="6.684187712740315"><ele>1778.0</ele><time>2026-05-01T11:36:01Z</time></trkpt><trkpt lat="44.58075726347983" lon="6.6843117072586535"><ele>1778.0</ele><time>2026-05-01T11:36:02Z</time></trkpt><trkpt lat="44.58061748871798" lon="6.684394989351474"><ele>1778.0</ele><time>2026-05-01T11:36:03Z</time></trkpt><trkpt lat="44.580489615994836" lon="6.684456927425783"><ele>1778.0</ele><time>2026-05-01T11:36:04Z</time></trkpt><trkpt lat="44.5803538960875" lon="6.684495719089272"><ele>1778.0</ele><time>2026-05-01T11:36:05Z</time></trkpt><trkpt lat="44.580245088171864" lon="6.684467464009059"><ele>1779.0</ele><time>2026-05-01T11:36:06Z</time></trkpt><trkpt lat="44.5801093421298" lon="6.6844384355902315"><ele>1780.0</ele><time>2026-05-01T11:36:07Z</time></trkpt><trkpt lat="44.57994415343943" lon="6.68440311111473"><ele>1781.0</ele><time>2026-05-01T11:36:08Z</time></trkpt><trkpt lat="44.57978641067889" lon="6.684369378873475"><ele>1782.6666666666665</ele><time>2026-05-01T11:36:09Z</time></trkpt><trkpt lat="44.579631340874535" lon="6.68433621823866"><ele>1784.3333333333335</ele><time>2026-05-01T11:36:10Z</time></trkpt><trkpt lat="44.57947907914242" lon="6.684301870092523"><ele>1786.0</ele><time>2026-05-01T11:36:11Z</time></trkpt><trkpt lat="44.57934255326905" lon="6.68425317219731"><ele>1786.0</ele><time>2026-05-01T11:36:12Z</time></trkpt><trkpt lat="44.5792193116169" lon="6.684182931997418"><ele>1786.0</ele><time>2026-05-01T11:36:13Z</time></trkpt><trkpt lat="44.57911482817281" lon="6.684091441644752"><ele>1786.0</ele><time>2026-05-01T11:36:14Z</time></trkpt><trkpt lat="44.57901334911806" lon="6.683965103883259"><ele>1786.0</ele><time>2026-05-01T11:36:15Z</time></trkpt><trkpt lat="44.578922969989826" lon="6.683812373062995"><ele>1786.0</ele><time>2026-05-01T11:36:16Z</time></trkpt><trkpt lat="44.578845902173356" lon="6.683653819598362"><ele>1786.0</ele><time>2026-05-01T11:36:17Z</time></trkpt><trkpt lat="44.57876690736576" lon="6.683487995988423"><ele>1786.0</ele><time>2026-05-01T11:36:18Z</time></trkpt><trkpt lat="44.57866792417202" lon="6.683319188398122"><ele>1786.0</ele><time>2026-05-01T11:36:19Z</time></trkpt><trkpt lat="44.57858038265386" lon="6.683162147905839"><ele>1788.0</ele><time>2026-05-01T11:36:20Z</time></trkpt><trkpt lat="44.57848783235882" lon="6.683022340041315"><ele>1790.0</ele><time>2026-05-01T11:36:21Z</time></trkpt><trkpt lat="44.57839539625646" lon="6.682906155110145"><ele>1792.0</ele><time>2026-05-01T11:36:22Z</time></trkpt><trkpt lat="44.578293355957605" lon="6.682851737297851"><ele>1794.0</ele><time>2026-05-01T11:36:23Z</time></trkpt><trkpt lat="44.578182977984895" lon="6.68284188196871"><ele>1794.0</ele><time>2026-05-01T11:36:24Z</time></trkpt><trkpt lat="44.57807175750497" lon="6.6828541282453715"><ele>1794.0</ele><time>2026-05-01T11:36:25Z</time></trkpt><trkpt lat="44.577966420419905" lon="6.682871877367644"><ele>1794.0</ele><time>2026-05-01T11:36:26Z</time></trkpt><trkpt lat="44.57785371187166" lon="6.68289907618339"><ele>1794.0</ele><time>2026-05-01T11:36:27Z</time></trkpt><trkpt lat="44.577714694573885" lon="6.682953990066086"><ele>1795.0</ele><time>2026-05-01T11:36:28Z</time></trkpt><trkpt lat="44.57759922365706" lon="6.682967818688609"><ele>1796.0</ele><time>2026-05-01T11:36:29Z</time></trkpt><trkpt lat="44.577483843809475" lon="6.682909819721644"><ele>1797.0</ele><time>2026-05-01T11:36:30Z</time></trkpt><trkpt lat="44.57736588765956" lon="6.6828404439078675"><ele>1798.0</ele><time>2026-05-01T11:36:31Z</time></trkpt><trkpt lat="44.577237990213035" lon="6.682742509370366"><ele>1802.6666666666667</ele><time>2026-05-01T11:36:32Z</time></trkpt><trkpt lat="44.57709933305174" lon="6.6826490379087495"><ele>1807.3333333333335</ele><time>2026-05-01T11:36:33Z</time></trkpt><trkpt lat="44.576956985793885" lon="6.6825101043284425"><ele>1812.0</ele><time>2026-05-01T11:36:33.999Z</time></trkpt><trkpt lat="44.5768375372091" lon="6.682312180286525"><ele>1812.0</ele><time>2026-05-01T11:36:34.999Z</time></trkpt><trkpt lat="44.57669842991348" lon="6.682201280094774"><ele>1812.0</ele><time>2026-05-01T11:36:35.999Z</time></trkpt><trkpt lat="44.576568814855534" lon="6.682100613870292"><ele>1812.0</ele><time>2026-05-01T11:36:36.999Z</time></trkpt><trkpt lat="44.57644144523694" lon="6.682034034765744"><ele>1812.0</ele><time>2026-05-01T11:36:37.999Z</time></trkpt><trkpt lat="44.576325595456034" lon="6.682014864106119"><ele>1812.0</ele><time>2026-05-01T11:36:38.999Z</time></trkpt><trkpt lat="44.576188993296284" lon="6.682024921533644"><ele>1812.0</ele><time>2026-05-01T11:36:39.999Z</time></trkpt><trkpt lat="44.576028631194504" lon="6.682079088640331"><ele>1812.0</ele><time>2026-05-01T11:36:40.999Z</time></trkpt><trkpt lat="44.57586673176854" lon="6.682099294835085"><ele>1813.3333333333335</ele><time>2026-05-01T11:36:42Z</time></trkpt><trkpt lat="44.575681538145744" lon="6.682095818675882"><ele>1814.6666666666667</ele><time>2026-05-01T11:36:43Z</time></trkpt><trkpt lat="44.57554421834898" lon="6.682061803712945"><ele>1816.0</ele><time>2026-05-01T11:36:44Z</time></trkpt><trkpt lat="44.57540266924304" lon="6.682001908510109"><ele>1816.75</ele><time>2026-05-01T11:36:45Z</time></trkpt><trkpt lat="44.575253147646414" lon="6.681932797764824"><ele>1817.5</ele><time>2026-05-01T11:36:46Z</time></trkpt><trkpt lat="44.57512690092043" lon="6.681869961600566"><ele>1818.25</ele><time>2026-05-01T11:36:47Z</time></trkpt><trkpt lat="44.57498350392312" lon="6.681803823928846"><ele>1819.0</ele><time>2026-05-01T11:36:48Z</time></trkpt><trkpt lat="44.57484820093355" lon="6.681782195402349"><ele>1822.5</ele><time>2026-05-01T11:36:49Z</time></trkpt><trkpt lat="44.5747634536123" lon="6.6817874146068945"><ele>1826.0</ele><time>2026-05-01T11:36:50Z</time></trkpt><trkpt lat="44.57463369119356" lon="6.681810231624088"><ele>1829.5</ele><time>2026-05-01T11:36:51Z</time></trkpt><trkpt lat="44.57450413178942" lon="6.681847911995337"><ele>1833.0</ele><time>2026-05-01T11:36:52Z</time></trkpt><trkpt lat="44.574344981662385" lon="6.6818909846434416"><ele>1832.25</ele><time>2026-05-01T11:36:53Z</time></trkpt><trkpt lat="44.57420547098632" lon="6.681916572090241"><ele>1831.5</ele><time>2026-05-01T11:36:54Z</time></trkpt><trkpt lat="44.5740703904387" lon="6.681932652527427"><ele>1830.75</ele><time>2026-05-01T11:36:55Z</time></trkpt><trkpt lat="44.57394621329469" lon="6.681954224422939"><ele>1830.0</ele><time>2026-05-01T11:36:56Z</time></trkpt><trkpt lat="44.57382758413037" lon="6.6819681563280415"><ele>1830.0</ele><time>2026-05-01T11:36:57Z</time></trkpt><trkpt lat="44.57372984234663" lon="6.681959046219655"><ele>1830.0</ele><time>2026-05-01T11:36:58Z</time></trkpt><trkpt lat="44.57365566082699" lon="6.6819437595209195"><ele>1830.0</ele><time>2026-05-01T11:36:59Z</time></trkpt><trkpt lat="44.57357958932739" lon="6.681906907452804"><ele>1830.0</ele><time>2026-05-01T11:37:00Z</time></trkpt><trkpt lat="44.573491489918055" lon="6.681851830123657"><ele>1830.0</ele><time>2026-05-01T11:37:01Z</time></trkpt><trkpt lat="44.57343825318601" lon="6.6817658459497595"><ele>1830.0</ele><time>2026-05-01T11:37:02Z</time></trkpt><trkpt lat="44.573372832236075" lon="6.681666265969473"><ele>1833.0</ele><time>2026-05-01T11:37:03Z</time></trkpt><trkpt lat="44.57333769024688" lon="6.681543109553242"><ele>1836.0</ele><time>2026-05-01T11:37:04Z</time></trkpt><trkpt lat="44.573297243413" lon="6.681423958071168"><ele>1839.0</ele><time>2026-05-01T11:37:05Z</time></trkpt><trkpt lat="44.57325636914522" lon="6.681289445150332"><ele>1842.0</ele><time>2026-05-01T11:37:06Z</time></trkpt><trkpt lat="44.5732124875037" lon="6.681133612126611"><ele>1845.0</ele><time>2026-05-01T11:37:07Z</time></trkpt><trkpt lat="44.57316179317026" lon="6.680955619627753"><ele>1846.25</ele><time>2026-05-01T11:37:08Z</time></trkpt><trkpt lat="44.57311570424821" lon="6.6807974584194625"><ele>1847.5</ele><time>2026-05-01T11:37:09Z</time></trkpt><trkpt lat="44.57306793792417" lon="6.680632813240058"><ele>1848.75</ele><time>2026-05-01T11:37:10Z</time></trkpt><trkpt lat="44.573024343157115" lon="6.680474262657514"><ele>1850.0</ele><time>2026-05-01T11:37:11Z</time></trkpt><trkpt lat="44.572951587681644" lon="6.68032493884381"><ele>1850.5</ele><time>2026-05-01T11:37:12Z</time></trkpt><trkpt lat="44.572889070987316" lon="6.680173900003116"><ele>1851.0</ele><time>2026-05-01T11:37:13Z</time></trkpt><trkpt lat="44.57280824017066" lon="6.680076190476772"><ele>1851.5</ele><time>2026-05-01T11:37:14Z</time></trkpt><trkpt lat="44.57270477392933" lon="6.680010664734094"><ele>1852.0</ele><time>2026-05-01T11:37:15Z</time></trkpt><trkpt lat="44.572587299737094" lon="6.680006430206215"><ele>1853.25</ele><time>2026-05-01T11:37:16Z</time></trkpt><trkpt lat="44.572477010800206" lon="6.679978355747271"><ele>1854.5</ele><time>2026-05-01T11:37:17Z</time></trkpt><trkpt lat="44.572345184712596" lon="6.68000684805513"><ele>1855.75</ele><time>2026-05-01T11:37:18Z</time></trkpt><trkpt lat="44.57221263215447" lon="6.680014718975769"><ele>1857.0</ele><time>2026-05-01T11:37:19Z</time></trkpt><trkpt lat="44.57209452079589" lon="6.680021886726498"><ele>1859.0</ele><time>2026-05-01T11:37:20Z</time></trkpt><trkpt lat="44.57198117434964" lon="6.68003984292475"><ele>1861.0</ele><time>2026-05-01T11:37:21Z</time></trkpt><trkpt lat="44.57188362584524" lon="6.68011814749923"><ele>1863.0</ele><time>2026-05-01T11:37:22Z</time></trkpt><trkpt lat="44.57178502613731" lon="6.680217300541651"><ele>1865.0</ele><time>2026-05-01T11:37:23Z</time></trkpt><trkpt lat="44.571712138324195" lon="6.680336201694769"><ele>1866.0</ele><time>2026-05-01T11:37:24Z</time></trkpt><trkpt lat="44.57165890562888" lon="6.680460774114055"><ele>1867.0</ele><time>2026-05-01T11:37:25Z</time></trkpt><trkpt lat="44.571632595111204" lon="6.680619047785711"><ele>1868.0</ele><time>2026-05-01T11:37:26Z</time></trkpt><trkpt lat="44.57160812767954" lon="6.680776211007059"><ele>1869.0</ele><time>2026-05-01T11:37:27Z</time></trkpt><trkpt lat="44.57162487821539" lon="6.680970981114679"><ele>1870.0</ele><time>2026-05-01T11:37:28Z</time></trkpt><trkpt lat="44.5716380760726" lon="6.681165625212675"><ele>1871.0</ele><time>2026-05-01T11:37:29Z</time></trkpt><trkpt lat="44.57164988235176" lon="6.681434531007389"><ele>1872.0</ele><time>2026-05-01T11:37:30Z</time></trkpt><trkpt lat="44.57163541466899" lon="6.681655334705421"><ele>1872.0</ele><time>2026-05-01T11:37:31Z</time></trkpt><trkpt lat="44.57158592031425" lon="6.6818116189171235"><ele>1872.0</ele><time>2026-05-01T11:37:32Z</time></trkpt><trkpt lat="44.571515125439085" lon="6.6819462089659725"><ele>1872.0</ele><time>2026-05-01T11:37:33Z</time></trkpt><trkpt lat="44.57142844175803" lon="6.682115270134054"><ele>1872.0</ele><time>2026-05-01T11:37:34Z</time></trkpt><trkpt lat="44.57135569579827" lon="6.682278062073663"><ele>1871.75</ele><time>2026-05-01T11:37:35Z</time></trkpt><trkpt lat="44.57124916383709" lon="6.682409433860796"><ele>1871.5</ele><time>2026-05-01T11:37:36Z</time></trkpt><trkpt lat="44.57113096409782" lon="6.682537321979284"><ele>1871.25</ele><time>2026-05-01T11:37:37Z</time></trkpt><trkpt lat="44.57103144767895" lon="6.682675428805068"><ele>1871.0</ele><time>2026-05-01T11:37:38Z</time></trkpt><trkpt lat="44.57091181412055" lon="6.682713746951682"><ele>1873.75</ele><time>2026-05-01T11:37:39Z</time></trkpt><trkpt lat="44.57081252405366" lon="6.682755758159474"><ele>1876.5</ele><time>2026-05-01T11:37:40Z</time></trkpt><trkpt lat="44.570686356882035" lon="6.682778450936218"><ele>1879.25</ele><time>2026-05-01T11:37:41Z</time></trkpt><trkpt lat="44.5705649803932" lon="6.68281001866114"><ele>1882.0</ele><time>2026-05-01T11:37:42Z</time></trkpt><trkpt lat="44.57045105461916" lon="6.682717720915578"><ele>1884.25</ele><time>2026-05-01T11:37:43Z</time></trkpt><trkpt lat="44.57031956135836" lon="6.682674487020214"><ele>1886.5</ele><time>2026-05-01T11:37:44Z</time></trkpt><trkpt lat="44.570170621535596" lon="6.682622687758226"><ele>1888.75</ele><time>2026-05-01T11:37:45Z</time></trkpt><trkpt lat="44.570023543057935" lon="6.6825739364008125"><ele>1891.0</ele><time>2026-05-01T11:37:46Z</time></trkpt><trkpt lat="44.56988066072312" lon="6.682552106967189"><ele>1891.0</ele><time>2026-05-01T11:37:47Z</time></trkpt><trkpt lat="44.56976184337394" lon="6.682568321450038"><ele>1891.0</ele><time>2026-05-01T11:37:48Z</time></trkpt><trkpt lat="44.56964717732487" lon="6.6826134511594315"><ele>1891.0</ele><time>2026-05-01T11:37:49Z</time></trkpt><trkpt lat="44.56952676608963" lon="6.682743514810549"><ele>1891.0</ele><time>2026-05-01T11:37:50Z</time></trkpt><trkpt lat="44.569426197124564" lon="6.682855302809793"><ele>1893.5</ele><time>2026-05-01T11:37:51Z</time></trkpt><trkpt lat="44.569310013272506" lon="6.682963459758173"><ele>1896.0</ele><time>2026-05-01T11:37:52Z</time></trkpt><trkpt lat="44.56923126812458" lon="6.683070258831355"><ele>1898.5</ele><time>2026-05-01T11:37:53Z</time></trkpt><trkpt lat="44.569160407031774" lon="6.683180279432428"><ele>1901.0</ele><time>2026-05-01T11:37:54Z</time></trkpt><trkpt lat="44.56911002564921" lon="6.683307627441696"><ele>1901.0</ele><time>2026-05-01T11:37:55Z</time></trkpt><trkpt lat="44.56908363099878" lon="6.683471613823137"><ele>1901.0</ele><time>2026-05-01T11:37:56Z</time></trkpt><trkpt lat="44.56910729051972" lon="6.683623596514369"><ele>1901.0</ele><time>2026-05-01T11:37:57Z</time></trkpt><trkpt lat="44.5691800390892" lon="6.68372923652996"><ele>1901.0</ele><time>2026-05-01T11:37:58Z</time></trkpt><trkpt lat="44.56925233106719" lon="6.683834595868607"><ele>1901.0</ele><time>2026-05-01T11:37:59Z</time></trkpt><trkpt lat="44.569348594384046" lon="6.683993699908791"><ele>1902.1999999999998</ele><time>2026-05-01T11:38:00Z</time></trkpt><trkpt lat="44.56939559360466" lon="6.684133469500743"><ele>1903.3999999999999</ele><time>2026-05-01T11:38:01Z</time></trkpt><trkpt lat="44.569392705283356" lon="6.684273017640107"><ele>1904.6</ele><time>2026-05-01T11:38:02Z</time></trkpt><trkpt lat="44.569366216972554" lon="6.684393463755397"><ele>1905.8</ele><time>2026-05-01T11:38:03Z</time></trkpt><trkpt lat="44.56926199231431" lon="6.684512711671601"><ele>1907.0</ele><time>2026-05-01T11:38:04Z</time></trkpt><trkpt lat="44.569183895473444" lon="6.6845961193961"><ele>1907.0</ele><time>2026-05-01T11:38:05Z</time></trkpt><trkpt lat="44.5690914230461" lon="6.684659418695469"><ele>1907.0</ele><time>2026-05-01T11:38:06Z</time></trkpt><trkpt lat="44.5689854635755" lon="6.684747182393937"><ele>1907.0</ele><time>2026-05-01T11:38:07Z</time></trkpt><trkpt lat="44.56884247925746" lon="6.684731917879555"><ele>1907.0</ele><time>2026-05-01T11:38:08Z</time></trkpt><trkpt lat="44.56868728453807" lon="6.684806692885954"><ele>1911.6666666666665</ele><time>2026-05-01T11:38:09Z</time></trkpt><trkpt lat="44.56847222330172" lon="6.684890596699766"><ele>1916.3333333333335</ele><time>2026-05-01T11:38:10Z</time></trkpt><trkpt lat="44.56827245189554" lon="6.684964030718921"><ele>1921.0</ele><time>2026-05-01T11:38:11Z</time></trkpt><trkpt lat="44.5681087987678" lon="6.6850135979380605"><ele>1921.0</ele><time>2026-05-01T11:38:12Z</time></trkpt><trkpt lat="44.56795568125356" lon="6.685034364548304"><ele>1921.0</ele><time>2026-05-01T11:38:13Z</time></trkpt><trkpt lat="44.56781089372603" lon="6.685027175899592"><ele>1921.0</ele><time>2026-05-01T11:38:14Z</time></trkpt><trkpt lat="44.56765639695639" lon="6.685001481916107"><ele>1922.5</ele><time>2026-05-01T11:38:15Z</time></trkpt><trkpt lat="44.56749472624864" lon="6.6849735501293726"><ele>1924.0</ele><time>2026-05-01T11:38:16Z</time></trkpt><trkpt lat="44.567347773856554" lon="6.6849503843975455"><ele>1925.5</ele><time>2026-05-01T11:38:17Z</time></trkpt><trkpt lat="44.56721323923032" lon="6.684955320397948"><ele>1927.0</ele><time>2026-05-01T11:38:18Z</time></trkpt><trkpt lat="44.567096700053725" lon="6.684995848197684"><ele>1928.25</ele><time>2026-05-01T11:38:19Z</time></trkpt><trkpt lat="44.566969694383566" lon="6.68507249798674"><ele>1929.5</ele><time>2026-05-01T11:38:20Z</time></trkpt><trkpt lat="44.566878772469664" lon="6.685220566574932"><ele>1930.75</ele><time>2026-05-01T11:38:21Z</time></trkpt><trkpt lat="44.56680110205623" lon="6.685368273254445"><ele>1932.0</ele><time>2026-05-01T11:38:22Z</time></trkpt><trkpt lat="44.56670425991343" lon="6.685521554021302"><ele>1932.0</ele><time>2026-05-01T11:38:23Z</time></trkpt><trkpt lat="44.56660850564972" lon="6.685678981632594"><ele>1932.0</ele><time>2026-05-01T11:38:24Z</time></trkpt><trkpt lat="44.566488957109286" lon="6.685826361819509"><ele>1932.0</ele><time>2026-05-01T11:38:25Z</time></trkpt><trkpt lat="44.56635632137403" lon="6.685991344211597"><ele>1932.0</ele><time>2026-05-01T11:38:26Z</time></trkpt><trkpt lat="44.566188179040175" lon="6.686173330554377"><ele>1932.0</ele><time>2026-05-01T11:38:27Z</time></trkpt><trkpt lat="44.56600222833409" lon="6.6863459951145465"><ele>1932.0</ele><time>2026-05-01T11:38:28Z</time></trkpt><trkpt lat="44.565826123500926" lon="6.686508128333522"><ele>1932.0</ele><time>2026-05-01T11:38:29Z</time></trkpt><trkpt lat="44.56566835006204" lon="6.686684685444696"><ele>1932.0</ele><time>2026-05-01T11:38:30Z</time></trkpt><trkpt lat="44.565508669543846" lon="6.686880390261127"><ele>1932.0</ele><time>2026-05-01T11:38:31Z</time></trkpt><trkpt lat="44.56536668658627" lon="6.687094643312096"><ele>1934.0</ele><time>2026-05-01T11:38:32Z</time></trkpt><trkpt lat="44.565213434753765" lon="6.687261621464867"><ele>1936.0</ele><time>2026-05-01T11:38:33Z</time></trkpt><trkpt lat="44.565079977903935" lon="6.687401215790157"><ele>1938.0</ele><time>2026-05-01T11:38:34Z</time></trkpt><trkpt lat="44.564925345742736" lon="6.687477963604174"><ele>1938.0</ele><time>2026-05-01T11:38:35Z</time></trkpt><trkpt lat="44.56477768230991" lon="6.687519660514752"><ele>1938.0</ele><time>2026-05-01T11:38:36Z</time></trkpt><trkpt lat="44.56461576812584" lon="6.687557762528623"><ele>1938.0</ele><time>2026-05-01T11:38:37Z</time></trkpt><trkpt lat="44.56443119745918" lon="6.687602932972095"><ele>1940.0</ele><time>2026-05-01T11:38:38Z</time></trkpt><trkpt lat="44.56425809133581" lon="6.687662364493535"><ele>1942.0</ele><time>2026-05-01T11:38:39Z</time></trkpt><trkpt lat="44.56413329847374" lon="6.6877459363516945"><ele>1944.0</ele><time>2026-05-01T11:38:40Z</time></trkpt><trkpt lat="44.564015320780946" lon="6.687862326372661"><ele>1946.3333333333335</ele><time>2026-05-01T11:38:41Z</time></trkpt><trkpt lat="44.563875755663254" lon="6.687993870480422"><ele>1948.6666666666667</ele><time>2026-05-01T11:38:42Z</time></trkpt><trkpt lat="44.563753474567285" lon="6.688173304069436"><ele>1951.0</ele><time>2026-05-01T11:38:42.999Z</time></trkpt><trkpt lat="44.5636155288854" lon="6.68837465932221"><ele>1951.0</ele><time>2026-05-01T11:38:43.999Z</time></trkpt><trkpt lat="44.56347629116176" lon="6.68855517635706"><ele>1951.0</ele><time>2026-05-01T11:38:44.999Z</time></trkpt><trkpt lat="44.56336186844232" lon="6.688729466784066"><ele>1951.0</ele><time>2026-05-01T11:38:45.999Z</time></trkpt><trkpt lat="44.56322833298428" lon="6.688935706339208"><ele>1951.0</ele><time>2026-05-01T11:38:46.999Z</time></trkpt><trkpt lat="44.56310647421651" lon="6.689112812785655"><ele>1951.0</ele><time>2026-05-01T11:38:48Z</time></trkpt><trkpt lat="44.562985666685364" lon="6.689256656575333"><ele>1951.0</ele><time>2026-05-01T11:38:49Z</time></trkpt><trkpt lat="44.56283095225408" lon="6.689365107721958"><ele>1951.3333333333335</ele><time>2026-05-01T11:38:50Z</time></trkpt><trkpt lat="44.56266999145978" lon="6.689387848646057"><ele>1951.6666666666665</ele><time>2026-05-01T11:38:51Z</time></trkpt><trkpt lat="44.56250554261526" lon="6.6894470039709555"><ele>1952.0</ele><time>2026-05-01T11:38:52Z</time></trkpt><trkpt lat="44.562317010539" lon="6.689502804526387"><ele>1951.0</ele><time>2026-05-01T11:38:53Z</time></trkpt><trkpt lat="44.562117829122116" lon="6.689560706134615"><ele>1950.0</ele><time>2026-05-01T11:38:54Z</time></trkpt><trkpt lat="44.561896665012426" lon="6.6896446068814335"><ele>1949.0</ele><time>2026-05-01T11:38:55Z</time></trkpt><trkpt lat="44.561669497169014" lon="6.689781015379917"><ele>1949.0</ele><time>2026-05-01T11:38:56Z</time></trkpt><trkpt lat="44.561450839431316" lon="6.689947213405069"><ele>1949.0</ele><time>2026-05-01T11:38:57Z</time></trkpt><trkpt lat="44.561236481014554" lon="6.69011640829986"><ele>1950.5</ele><time>2026-05-01T11:38:58Z</time></trkpt><trkpt lat="44.56100735215052" lon="6.69028779274832"><ele>1952.0</ele><time>2026-05-01T11:38:59Z</time></trkpt><trkpt lat="44.560792814379546" lon="6.690503171856995"><ele>1952.0</ele><time>2026-05-01T11:39:00Z</time></trkpt><trkpt lat="44.56062444783176" lon="6.690671676077009"><ele>1952.0</ele><time>2026-05-01T11:39:01Z</time></trkpt><trkpt lat="44.56046850190299" lon="6.690842080256031"><ele>1952.0</ele><time>2026-05-01T11:39:02Z</time></trkpt><trkpt lat="44.56037217824612" lon="6.691014988051289"><ele>1956.6666666666665</ele><time>2026-05-01T11:39:03Z</time></trkpt><trkpt lat="44.56028913233673" lon="6.691259301557701"><ele>1961.3333333333335</ele><time>2026-05-01T11:39:04Z</time></trkpt><trkpt lat="44.56023189047601" lon="6.691483224810734"><ele>1966.0</ele><time>2026-05-01T11:39:05Z</time></trkpt><trkpt lat="44.560164183951066" lon="6.69169709168968"><ele>1966.0</ele><time>2026-05-01T11:39:06Z</time></trkpt><trkpt lat="44.56010691941608" lon="6.691854256973667"><ele>1966.0</ele><time>2026-05-01T11:39:07Z</time></trkpt><trkpt lat="44.55997940784261" lon="6.691981431716286"><ele>1966.0</ele><time>2026-05-01T11:39:08Z</time></trkpt><trkpt lat="44.55984110717625" lon="6.692125710639217"><ele>1972.3333333333335</ele><time>2026-05-01T11:39:09Z</time></trkpt><trkpt lat="44.5596818959061" lon="6.692294966209893"><ele>1978.6666666666665</ele><time>2026-05-01T11:39:10Z</time></trkpt><trkpt lat="44.55950590842344" lon="6.6924893074470875"><ele>1985.0</ele><time>2026-05-01T11:39:11Z</time></trkpt><trkpt lat="44.559319455535075" lon="6.692686794182087"><ele>1991.0</ele><time>2026-05-01T11:39:12Z</time></trkpt><trkpt lat="44.559088210202006" lon="6.692891444009755"><ele>1997.0</ele><time>2026-05-01T11:39:13Z</time></trkpt><trkpt lat="44.558874719786274" lon="6.693078572787515"><ele>1994.6666666666665</ele><time>2026-05-01T11:39:14Z</time></trkpt><trkpt lat="44.55867548687288" lon="6.693223891710473"><ele>1992.3333333333335</ele><time>2026-05-01T11:39:15Z</time></trkpt><trkpt lat="44.55848743872257" lon="6.693374324022804"><ele>1990.0</ele><time>2026-05-01T11:39:16Z</time></trkpt><trkpt lat="44.55831466903683" lon="6.693504939406116"><ele>1992.5</ele><time>2026-05-01T11:39:17Z</time></trkpt><trkpt lat="44.558124364688105" lon="6.693685546076571"><ele>1995.0</ele><time>2026-05-01T11:39:18Z</time></trkpt><trkpt lat="44.55792691619651" lon="6.6938606599217385"><ele>1993.0</ele><time>2026-05-01T11:39:19Z</time></trkpt><trkpt lat="44.557754055082164" lon="6.694012285493133"><ele>1991.0</ele><time>2026-05-01T11:39:20Z</time></trkpt><trkpt lat="44.557596109619716" lon="6.6941504205923135"><ele>1989.0</ele><time>2026-05-01T11:39:21Z</time></trkpt><trkpt lat="44.557457335351444" lon="6.694312191157818"><ele>1990.6666666666665</ele><time>2026-05-01T11:39:22Z</time></trkpt><trkpt lat="44.55733927054683" lon="6.694507692506149"><ele>1992.3333333333333</ele><time>2026-05-01T11:39:23Z</time></trkpt><trkpt lat="44.55722015039518" lon="6.694720845282369"><ele>1994.0</ele><time>2026-05-01T11:39:24Z</time></trkpt><trkpt lat="44.557123647110835" lon="6.694908699804323"><ele>1994.0</ele><time>2026-05-01T11:39:25Z</time></trkpt><trkpt lat="44.55703774715878" lon="6.695091091088994"><ele>1994.0</ele><time>2026-05-01T11:39:26Z</time></trkpt><trkpt lat="44.55696800272533" lon="6.695306849201849"><ele>1994.0</ele><time>2026-05-01T11:39:27Z</time></trkpt><trkpt lat="44.5568971026002" lon="6.695539254336925"><ele>1993.0</ele><time>2026-05-01T11:39:28Z</time></trkpt><trkpt lat="44.55682662531016" lon="6.69578212733088"><ele>1992.0</ele><time>2026-05-01T11:39:29Z</time></trkpt><trkpt lat="44.5567532420834" lon="6.696027352745815"><ele>1991.0</ele><time>2026-05-01T11:39:30Z</time></trkpt><trkpt lat="44.55667812009145" lon="6.696303193754035"><ele>1991.0</ele><time>2026-05-01T11:39:31Z</time></trkpt><trkpt lat="44.55659915390575" lon="6.6965672209169185"><ele>1991.0</ele><time>2026-05-01T11:39:32Z</time></trkpt><trkpt lat="44.55651941062772" lon="6.696833959637233"><ele>1991.0</ele><time>2026-05-01T11:39:33Z</time></trkpt><trkpt lat="44.556445802598404" lon="6.697064788568484"><ele>1991.0</ele><time>2026-05-01T11:39:34Z</time></trkpt><trkpt lat="44.556348242935066" lon="6.69728827376953"><ele>1991.0</ele><time>2026-05-01T11:39:35Z</time></trkpt><trkpt lat="44.556234116248135" lon="6.697493748394477"><ele>1991.0</ele><time>2026-05-01T11:39:36Z</time></trkpt><trkpt lat="44.55609464361467" lon="6.697693652139157"><ele>1995.0</ele><time>2026-05-01T11:39:37Z</time></trkpt><trkpt lat="44.55594179636405" lon="6.697913729850085"><ele>1999.0</ele><time>2026-05-01T11:39:38Z</time></trkpt><trkpt lat="44.55577634497082" lon="6.698149198532068"><ele>1999.0</ele><time>2026-05-01T11:39:39Z</time></trkpt><trkpt lat="44.555601654287386" lon="6.69834384558745"><ele>1999.0</ele><time>2026-05-01T11:39:40Z</time></trkpt><trkpt lat="44.55540585690175" lon="6.698511083816745"><ele>2003.0</ele><time>2026-05-01T11:39:41Z</time></trkpt><trkpt lat="44.55519472798074" lon="6.698645689558952"><ele>2007.0</ele><time>2026-05-01T11:39:42Z</time></trkpt><trkpt lat="44.554973337617014" lon="6.698741428607187"><ele>2007.0</ele><time>2026-05-01T11:39:43Z</time></trkpt><trkpt lat="44.554730158669706" lon="6.6988052557079"><ele>2007.0</ele><time>2026-05-01T11:39:44Z</time></trkpt><trkpt lat="44.55446915032069" lon="6.698858655184432"><ele>2005.0</ele><time>2026-05-01T11:39:45Z</time></trkpt><trkpt lat="44.55421195801724" lon="6.698911273997844"><ele>2003.0</ele><time>2026-05-01T11:39:46Z</time></trkpt><trkpt lat="44.55396221428496" lon="6.698961863476055"><ele>2001.0</ele><time>2026-05-01T11:39:47Z</time></trkpt><trkpt lat="44.55370228522487" lon="6.699022159120066"><ele>1999.0</ele><time>2026-05-01T11:39:48Z</time></trkpt><trkpt lat="44.55347646965118" lon="6.6991061288997065"><ele>1999.0</ele><time>2026-05-01T11:39:49Z</time></trkpt><trkpt lat="44.55328715302307" lon="6.699208867021887"><ele>1999.0</ele><time>2026-05-01T11:39:50Z</time></trkpt><trkpt lat="44.55310546191907" lon="6.699324361594902"><ele>1999.0</ele><time>2026-05-01T11:39:51Z</time></trkpt><trkpt lat="44.55295371820427" lon="6.699470067286645"><ele>2002.0</ele><time>2026-05-01T11:39:52Z</time></trkpt><trkpt lat="44.55280298179495" lon="6.699552805795887"><ele>2005.0</ele><time>2026-05-01T11:39:53Z</time></trkpt><trkpt lat="44.55274446026742" lon="6.6997694711988105"><ele>2008.0</ele><time>2026-05-01T11:39:54Z</time></trkpt><trkpt lat="44.55267925212572" lon="6.699927303945512"><ele>2008.0</ele><time>2026-05-01T11:39:55Z</time></trkpt><trkpt lat="44.552597185807635" lon="6.700153014421854"><ele>2008.0</ele><time>2026-05-01T11:39:56Z</time></trkpt><trkpt lat="44.55252443622154" lon="6.7003088076304085"><ele>2008.0</ele><time>2026-05-01T11:39:57Z</time></trkpt><trkpt lat="44.55244836156086" lon="6.700403809887674"><ele>2008.0</ele><time>2026-05-01T11:39:58Z</time></trkpt><trkpt lat="44.55237073211362" lon="6.700462629862134"><ele>2011.75</ele><time>2026-05-01T11:39:59Z</time></trkpt><trkpt lat="44.55227960095304" lon="6.700490942081519"><ele>2015.5</ele><time>2026-05-01T11:40:00Z</time></trkpt><trkpt lat="44.552165224796596" lon="6.700535498686003"><ele>2019.25</ele><time>2026-05-01T11:40:01Z</time></trkpt><trkpt lat="44.55204903669908" lon="6.700582495485944"><ele>2023.0</ele><time>2026-05-01T11:40:02Z</time></trkpt><trkpt lat="44.55192209290203" lon="6.700536924192908"><ele>2023.25</ele><time>2026-05-01T11:40:03Z</time></trkpt><trkpt lat="44.551785291590505" lon="6.70050330057844"><ele>2023.5</ele><time>2026-05-01T11:40:04Z</time></trkpt><trkpt lat="44.551623456143226" lon="6.700457842184007"><ele>2023.75</ele><time>2026-05-01T11:40:05Z</time></trkpt><trkpt lat="44.55148169035227" lon="6.7004297528056735"><ele>2024.0</ele><time>2026-05-01T11:40:06Z</time></trkpt><trkpt lat="44.55134293936133" lon="6.700457828545556"><ele>2024.0</ele><time>2026-05-01T11:40:07Z</time></trkpt><trkpt lat="44.55122212006379" lon="6.700480099750892"><ele>2024.0</ele><time>2026-05-01T11:40:08Z</time></trkpt><trkpt lat="44.55106414656417" lon="6.7006251134677015"><ele>2024.0</ele><time>2026-05-01T11:40:09Z</time></trkpt><trkpt lat="44.55092620200026" lon="6.700769439825343"><ele>2026.0</ele><time>2026-05-01T11:40:10Z</time></trkpt><trkpt lat="44.55078135168253" lon="6.70087361955387"><ele>2028.0</ele><time>2026-05-01T11:40:11Z</time></trkpt><trkpt lat="44.55061324304614" lon="6.700984570075193"><ele>2030.0</ele><time>2026-05-01T11:40:12Z</time></trkpt><trkpt lat="44.55042055162267" lon="6.701098368761943"><ele>2035.6666666666665</ele><time>2026-05-01T11:40:13Z</time></trkpt><trkpt lat="44.55021997566874" lon="6.7012089743880585"><ele>2041.3333333333335</ele><time>2026-05-01T11:40:14Z</time></trkpt><trkpt lat="44.55002803768044" lon="6.701326967571411"><ele>2047.0</ele><time>2026-05-01T11:40:15Z</time></trkpt><trkpt lat="44.54984701853664" lon="6.7014093392055845"><ele>2047.0</ele><time>2026-05-01T11:40:16Z</time></trkpt><trkpt lat="44.5496696328137" lon="6.701554321024041"><ele>2047.0</ele><time>2026-05-01T11:40:17Z</time></trkpt><trkpt lat="44.549499125783655" lon="6.701742744804727"><ele>2047.0</ele><time>2026-05-01T11:40:18Z</time></trkpt><trkpt lat="44.549330935101175" lon="6.701892873661476"><ele>2050.666666666667</ele><time>2026-05-01T11:40:19Z</time></trkpt><trkpt lat="44.54914759334609" lon="6.702015322613959"><ele>2054.3333333333335</ele><time>2026-05-01T11:40:20Z</time></trkpt><trkpt lat="44.54897487015125" lon="6.702128605864676"><ele>2058.0</ele><time>2026-05-01T11:40:21Z</time></trkpt><trkpt lat="44.548801571590424" lon="6.702237106687883"><ele>2056.3333333333335</ele><time>2026-05-01T11:40:22Z</time></trkpt><trkpt lat="44.54862333201131" lon="6.702386027874836"><ele>2054.666666666667</ele><time>2026-05-01T11:40:23Z</time></trkpt><trkpt lat="44.548478591358496" lon="6.702537303272374"><ele>2053.0</ele><time>2026-05-01T11:40:24Z</time></trkpt><trkpt lat="44.54836180913529" lon="6.70266104779833"><ele>2055.75</ele><time>2026-05-01T11:40:25Z</time></trkpt><trkpt lat="44.54823548693906" lon="6.702755206951586"><ele>2058.5</ele><time>2026-05-01T11:40:26Z</time></trkpt><trkpt lat="44.54811057344247" lon="6.702860382247928"><ele>2061.25</ele><time>2026-05-01T11:40:27Z</time></trkpt><trkpt lat="44.547965970547835" lon="6.702904123777058"><ele>2064.0</ele><time>2026-05-01T11:40:28Z</time></trkpt><trkpt lat="44.54782584220419" lon="6.702839550175949"><ele>2064.0</ele><time>2026-05-01T11:40:29Z</time></trkpt><trkpt lat="44.54768072430766" lon="6.702756105266797"><ele>2064.0</ele><time>2026-05-01T11:40:30Z</time></trkpt><trkpt lat="44.547537784700395" lon="6.702656370957067"><ele>2064.0</ele><time>2026-05-01T11:40:31Z</time></trkpt><trkpt lat="44.547375056819256" lon="6.702574284246202"><ele>2064.6666666666665</ele><time>2026-05-01T11:40:31.999Z</time></trkpt><trkpt lat="44.547216530347214" lon="6.702495120005534"><ele>2065.333333333333</ele><time>2026-05-01T11:40:32.999Z</time></trkpt><trkpt lat="44.547054083207556" lon="6.702420029022381"><ele>2066.0</ele><time>2026-05-01T11:40:33.999Z</time></trkpt><trkpt lat="44.54689423212256" lon="6.702344725098452"><ele>2066.0</ele><time>2026-05-01T11:40:34.999Z</time></trkpt><trkpt lat="44.54671253738349" lon="6.702284637493217"><ele>2066.0</ele><time>2026-05-01T11:40:35.999Z</time></trkpt><trkpt lat="44.54644426137411" lon="6.70226925741594"><ele>2071.0</ele><time>2026-05-01T11:40:36.999Z</time></trkpt><trkpt lat="44.546194058443625" lon="6.702296990237226"><ele>2076.0</ele><time>2026-05-01T11:40:37.999Z</time></trkpt><trkpt lat="44.54599041738363" lon="6.7022643271531805"><ele>2076.0</ele><time>2026-05-01T11:40:38.999Z</time></trkpt><trkpt lat="44.545787690306476" lon="6.702257630888067"><ele>2076.0</ele><time>2026-05-01T11:40:39.999Z</time></trkpt><trkpt lat="44.54559679405887" lon="6.702252826542504"><ele>2076.0</ele><time>2026-05-01T11:40:40.999Z</time></trkpt><trkpt lat="44.54542880303428" lon="6.702220304440259"><ele>2077.0</ele><time>2026-05-01T11:40:41.999Z</time></trkpt><trkpt lat="44.54525233283511" lon="6.702236979719893"><ele>2078.0</ele><time>2026-05-01T11:40:42.999Z</time></trkpt><trkpt lat="44.54507340573604" lon="6.70228710946205"><ele>2079.0</ele><time>2026-05-01T11:40:43.999Z</time></trkpt><trkpt lat="44.544873749694055" lon="6.7023571828317365"><ele>2079.0</ele><time>2026-05-01T11:40:44.999Z</time></trkpt><trkpt lat="44.54467642368366" lon="6.7024227281145246"><ele>2079.0</ele><time>2026-05-01T11:40:45.999Z</time></trkpt><trkpt lat="44.544493206315565" lon="6.702493509322238"><ele>2079.0</ele><time>2026-05-01T11:40:46.999Z</time></trkpt><trkpt lat="44.54430845212397" lon="6.70253627330529"><ele>2080.3333333333335</ele><time>2026-05-01T11:40:47.999Z</time></trkpt><trkpt lat="44.544159601239464" lon="6.702508600410131"><ele>2081.666666666667</ele><time>2026-05-01T11:40:48.999Z</time></trkpt><trkpt lat="44.54400774419597" lon="6.7024734509795545"><ele>2083.0</ele><time>2026-05-01T11:40:49.999Z</time></trkpt><trkpt lat="44.54383811381604" lon="6.702547634724555"><ele>2084.0</ele><time>2026-05-01T11:40:50.999Z</time></trkpt><trkpt lat="44.543694220005634" lon="6.702612168931198"><ele>2085.0</ele><time>2026-05-01T11:40:51.999Z</time></trkpt><trkpt lat="44.543530963282635" lon="6.702707350612896"><ele>2086.0</ele><time>2026-05-01T11:40:52.999Z</time></trkpt><trkpt lat="44.54336991249602" lon="6.70274875308596"><ele>2091.666666666667</ele><time>2026-05-01T11:40:54Z</time></trkpt><trkpt lat="44.54320114125381" lon="6.702760874560947"><ele>2097.3333333333335</ele><time>2026-05-01T11:40:55Z</time></trkpt><trkpt lat="44.54304282738614" lon="6.70275882815637"><ele>2103.0</ele><time>2026-05-01T11:40:56Z</time></trkpt><trkpt lat="44.54289060909871" lon="6.702789485315787"><ele>2102.0</ele><time>2026-05-01T11:40:57Z</time></trkpt><trkpt lat="44.542752994704045" lon="6.702830157411117"><ele>2101.0</ele><time>2026-05-01T11:40:58Z</time></trkpt><trkpt lat="44.54259266152362" lon="6.702923414398097"><ele>2100.0</ele><time>2026-05-01T11:40:59Z</time></trkpt><trkpt lat="44.54243970228897" lon="6.70298251045979"><ele>2100.0</ele><time>2026-05-01T11:41:00Z</time></trkpt><trkpt lat="44.54229207001208" lon="6.703002877735076"><ele>2100.0</ele><time>2026-05-01T11:41:01Z</time></trkpt><trkpt lat="44.54213720356522" lon="6.70295088385693"><ele>2100.0</ele><time>2026-05-01T11:41:02Z</time></trkpt><trkpt lat="44.542009793768436" lon="6.702834135609811"><ele>2097.0</ele><time>2026-05-01T11:41:03Z</time></trkpt><trkpt lat="44.541868496680614" lon="6.702638254333595"><ele>2094.0</ele><time>2026-05-01T11:41:04Z</time></trkpt><trkpt lat="44.54170023639475" lon="6.702564900170975"><ele>2091.0</ele><time>2026-05-01T11:41:05Z</time></trkpt><trkpt lat="44.54151523164495" lon="6.70252511022327"><ele>2091.0</ele><time>2026-05-01T11:41:06Z</time></trkpt><trkpt lat="44.54131875526241" lon="6.702524614400074"><ele>2091.0</ele><time>2026-05-01T11:41:07Z</time></trkpt><trkpt lat="44.54109526308344" lon="6.7025373201979725"><ele>2091.0</ele><time>2026-05-01T11:41:08Z</time></trkpt><trkpt lat="44.54088448143991" lon="6.702540523892451"><ele>2092.3333333333335</ele><time>2026-05-01T11:41:09Z</time></trkpt><trkpt lat="44.54068996465608" lon="6.702497607244"><ele>2093.666666666667</ele><time>2026-05-01T11:41:10Z</time></trkpt><trkpt lat="44.54052261123247" lon="6.7024615781768775"><ele>2095.0</ele><time>2026-05-01T11:41:11Z</time></trkpt><trkpt lat="44.5403861058533" lon="6.702397162647777"><ele>2097.75</ele><time>2026-05-01T11:41:12Z</time></trkpt><trkpt lat="44.54025897912425" lon="6.702298198729577"><ele>2100.5</ele><time>2026-05-01T11:41:13Z</time></trkpt><trkpt lat="44.54011912939136" lon="6.702213384083884"><ele>2103.25</ele><time>2026-05-01T11:41:14Z</time></trkpt><trkpt lat="44.54000927649592" lon="6.702190034248475"><ele>2106.0</ele><time>2026-05-01T11:41:15Z</time></trkpt><trkpt lat="44.53994098650089" lon="6.702213839148851"><ele>2106.0</ele><time>2026-05-01T11:41:16Z</time></trkpt><trkpt lat="44.539830145030415" lon="6.702228668667212"><ele>2106.0</ele><time>2026-05-01T11:41:17Z</time></trkpt><trkpt lat="44.5397140986222" lon="6.702272375966857"><ele>2106.0</ele><time>2026-05-01T11:41:18Z</time></trkpt><trkpt lat="44.539607293351104" lon="6.70228495672192"><ele>2106.0</ele><time>2026-05-01T11:41:19Z</time></trkpt><trkpt lat="44.53949522202964" lon="6.702334792164705"><ele>2106.5</ele><time>2026-05-01T11:41:20Z</time></trkpt><trkpt lat="44.539412990330696" lon="6.702351968761451"><ele>2107.0</ele><time>2026-05-01T11:41:21Z</time></trkpt><trkpt lat="44.5393246750833" lon="6.702370820913968"><ele>2107.5</ele><time>2026-05-01T11:41:22Z</time></trkpt><trkpt lat="44.53925366610352" lon="6.702401246349949"><ele>2108.0</ele><time>2026-05-01T11:41:23Z</time></trkpt><trkpt lat="44.53916120748653" lon="6.702464575535114"><ele>2108.5</ele><time>2026-05-01T11:41:25Z</time></trkpt><trkpt lat="44.53909100598156" lon="6.702511840780723"><ele>2109.0</ele><time>2026-05-01T11:41:30Z</time></trkpt><trkpt lat="44.53907526818445" lon="6.702611020098742"><ele>2109.0</ele><time>2026-05-01T11:48:57.999Z</time></trkpt><trkpt lat="44.538979094734046" lon="6.7026843150759285"><ele>2109.0</ele><time>2026-05-01T11:48:59.999Z</time></trkpt><trkpt lat="44.53892648031976" lon="6.702739892254738"><ele>2109.0</ele><time>2026-05-01T11:49:00.999Z</time></trkpt><trkpt lat="44.53884246254385" lon="6.702827576284285"><ele>2109.0</ele><time>2026-05-01T11:49:02.999Z</time></trkpt><trkpt lat="44.53878703472205" lon="6.7028925275515"><ele>2109.0</ele><time>2026-05-01T11:49:03.999Z</time></trkpt><trkpt lat="44.53870902103447" lon="6.702871507623974"><ele>2109.0</ele><time>2026-05-01T11:49:04.999Z</time></trkpt><trkpt lat="44.53862628341082" lon="6.702920072601258"><ele>2111.0</ele><time>2026-05-01T11:49:05.999Z</time></trkpt><trkpt lat="44.538532235721185" lon="6.702923711128875"><ele>2113.0</ele><time>2026-05-01T11:49:06.999Z</time></trkpt><trkpt lat="44.538378460542965" lon="6.70295081100007"><ele>2115.0</ele><time>2026-05-01T11:49:07.999Z</time></trkpt><trkpt lat="44.53827494670666" lon="6.702966879182331"><ele>2117.0</ele><time>2026-05-01T11:49:08.999Z</time></trkpt><trkpt lat="44.538157989404496" lon="6.702977997185184"><ele>2117.0</ele><time>2026-05-01T11:49:09.999Z</time></trkpt><trkpt lat="44.53803938330713" lon="6.702984077881837"><ele>2117.0</ele><time>2026-05-01T11:49:10.999Z</time></trkpt><trkpt lat="44.53792175501215" lon="6.703008371907192"><ele>2117.0</ele><time>2026-05-01T11:49:11.999Z</time></trkpt><trkpt lat="44.53779392896977" lon="6.703005360971984"><ele>2117.0</ele><time>2026-05-01T11:49:12.999Z</time></trkpt><trkpt lat="44.53767398401892" lon="6.702996311298088"><ele>2114.0</ele><time>2026-05-01T11:49:13.999Z</time></trkpt><trkpt lat="44.53754957099623" lon="6.703003688548151"><ele>2111.0</ele><time>2026-05-01T11:49:14.999Z</time></trkpt><trkpt lat="44.537405194379474" lon="6.702999919958545"><ele>2108.0</ele><time>2026-05-01T11:49:15.999Z</time></trkpt><trkpt lat="44.5372811718714" lon="6.703052034540328"><ele>2105.0</ele><time>2026-05-01T11:49:16.999Z</time></trkpt><trkpt lat="44.53717534530118" lon="6.703131040526855"><ele>2105.0</ele><time>2026-05-01T11:49:18Z</time></trkpt><trkpt lat="44.537053862549" lon="6.703197626449114"><ele>2105.0</ele><time>2026-05-01T11:49:19Z</time></trkpt><trkpt lat="44.53693755254348" lon="6.703250377180833"><ele>2105.0</ele><time>2026-05-01T11:49:20Z</time></trkpt><trkpt lat="44.53681638568341" lon="6.703299014488479"><ele>2105.0</ele><time>2026-05-01T11:49:21Z</time></trkpt><trkpt lat="44.53668533324471" lon="6.703328414077385"><ele>2101.75</ele><time>2026-05-01T11:49:22Z</time></trkpt><trkpt lat="44.53655671357093" lon="6.7033441976958175"><ele>2098.5</ele><time>2026-05-01T11:49:23Z</time></trkpt><trkpt lat="44.536433531767514" lon="6.703355495893444"><ele>2095.25</ele><time>2026-05-01T11:49:24Z</time></trkpt><trkpt lat="44.53630220163314" lon="6.703364278714951"><ele>2092.0</ele><time>2026-05-01T11:49:25Z</time></trkpt><trkpt lat="44.536182034596536" lon="6.703402064419633"><ele>2090.75</ele><time>2026-05-01T11:49:26Z</time></trkpt><trkpt lat="44.53607211455474" lon="6.703464588899637"><ele>2089.5</ele><time>2026-05-01T11:49:27Z</time></trkpt><trkpt lat="44.53596405889509" lon="6.703543851480669"><ele>2088.25</ele><time>2026-05-01T11:49:28Z</time></trkpt><trkpt lat="44.53586752067782" lon="6.703632128127108"><ele>2087.0</ele><time>2026-05-01T11:49:29Z</time></trkpt><trkpt lat="44.53578137888306" lon="6.70378634008032"><ele>2085.0</ele><time>2026-05-01T11:49:30Z</time></trkpt><trkpt lat="44.5356842849504" lon="6.703965114968428"><ele>2083.0</ele><time>2026-05-01T11:49:31Z</time></trkpt><trkpt lat="44.53558420356643" lon="6.704168309451565"><ele>2081.0</ele><time>2026-05-01T11:49:32Z</time></trkpt><trkpt lat="44.535492368504414" lon="6.704358117436154"><ele>2082.25</ele><time>2026-05-01T11:49:33Z</time></trkpt><trkpt lat="44.53541007999603" lon="6.7045091195737285"><ele>2083.5</ele><time>2026-05-01T11:49:34Z</time></trkpt><trkpt lat="44.5353241862846" lon="6.704645413749643"><ele>2084.75</ele><time>2026-05-01T11:49:35Z</time></trkpt><trkpt lat="44.53522096017685" lon="6.704741009532476"><ele>2086.0</ele><time>2026-05-01T11:49:36Z</time></trkpt><trkpt lat="44.535093184776706" lon="6.7048146835170765"><ele>2081.0</ele><time>2026-05-01T11:49:37Z</time></trkpt><trkpt lat="44.53497545281603" lon="6.704854505616772"><ele>2076.0</ele><time>2026-05-01T11:49:38Z</time></trkpt><trkpt lat="44.534819977087274" lon="6.7048669052550585"><ele>2071.0</ele><time>2026-05-01T11:49:39Z</time></trkpt><trkpt lat="44.534704204651966" lon="6.7048470188111775"><ele>2066.0</ele><time>2026-05-01T11:49:40Z</time></trkpt><trkpt lat="44.534606263347236" lon="6.704782923593032"><ele>2062.25</ele><time>2026-05-01T11:49:41Z</time></trkpt><trkpt lat="44.53447511253464" lon="6.704695469979844"><ele>2058.5</ele><time>2026-05-01T11:49:42Z</time></trkpt><trkpt lat="44.53433803762536" lon="6.704598870164521"><ele>2054.75</ele><time>2026-05-01T11:49:43Z</time></trkpt><trkpt lat="44.534200142837605" lon="6.7045457735120735"><ele>2051.0</ele><time>2026-05-01T11:49:44Z</time></trkpt><trkpt lat="44.5340713154801" lon="6.704489901147797"><ele>2051.0</ele><time>2026-05-01T11:49:45Z</time></trkpt><trkpt lat="44.533933147692174" lon="6.704490303888803"><ele>2051.0</ele><time>2026-05-01T11:49:46Z</time></trkpt><trkpt lat="44.5337886111184" lon="6.704488121509434"><ele>2051.0</ele><time>2026-05-01T11:49:47Z</time></trkpt><trkpt lat="44.533641436869374" lon="6.704516475589804"><ele>2051.0</ele><time>2026-05-01T11:49:48Z</time></trkpt><trkpt lat="44.53350925603559" lon="6.704602348426316"><ele>2048.75</ele><time>2026-05-01T11:49:49Z</time></trkpt><trkpt lat="44.533387095640535" lon="6.704697423100823"><ele>2046.5</ele><time>2026-05-01T11:49:50Z</time></trkpt><trkpt lat="44.53328087593721" lon="6.704725106256426"><ele>2044.25</ele><time>2026-05-01T11:49:51Z</time></trkpt><trkpt lat="44.533185877186675" lon="6.704690768417041"><ele>2042.0</ele><time>2026-05-01T11:49:52Z</time></trkpt><trkpt lat="44.5331005479899" lon="6.704607704841132"><ele>2042.0</ele><time>2026-05-01T11:49:53Z</time></trkpt><trkpt lat="44.533035017674294" lon="6.704471041871103"><ele>2042.0</ele><time>2026-05-01T11:49:54Z</time></trkpt><trkpt lat="44.53298645497242" lon="6.704302503617847"><ele>2042.0</ele><time>2026-05-01T11:49:55Z</time></trkpt><trkpt lat="44.532961404079025" lon="6.704124759491348"><ele>2042.0</ele><time>2026-05-01T11:49:56Z</time></trkpt><trkpt lat="44.532912456029116" lon="6.703952657170415"><ele>2038.0</ele><time>2026-05-01T11:49:57Z</time></trkpt><trkpt lat="44.53287954847728" lon="6.703742391318046"><ele>2034.0</ele><time>2026-05-01T11:49:58Z</time></trkpt><trkpt lat="44.53281983161938" lon="6.703544532860339"><ele>2030.0</ele><time>2026-05-01T11:49:59Z</time></trkpt><trkpt lat="44.532714592140834" lon="6.703358073882454"><ele>2030.0</ele><time>2026-05-01T11:50:00Z</time></trkpt><trkpt lat="44.532611030107766" lon="6.7031843094968755"><ele>2030.0</ele><time>2026-05-01T11:50:01Z</time></trkpt><trkpt lat="44.53252015646053" lon="6.703013327750784"><ele>2030.0</ele><time>2026-05-01T11:50:02Z</time></trkpt><trkpt lat="44.53245870683134" lon="6.7028305601836085"><ele>2033.3333333333333</ele><time>2026-05-01T11:50:03Z</time></trkpt><trkpt lat="44.532403818657365" lon="6.702642492767035"><ele>2036.6666666666665</ele><time>2026-05-01T11:50:04Z</time></trkpt><trkpt lat="44.53234796580556" lon="6.702448593547267"><ele>2040.0</ele><time>2026-05-01T11:50:05Z</time></trkpt><trkpt lat="44.53228958159183" lon="6.7022459064363655"><ele>2040.0</ele><time>2026-05-01T11:50:06Z</time></trkpt><trkpt lat="44.532228986739476" lon="6.702036290127925"><ele>2040.0</ele><time>2026-05-01T11:50:07Z</time></trkpt><trkpt lat="44.53217278689633" lon="6.701843817255712"><ele>2040.0</ele><time>2026-05-01T11:50:08Z</time></trkpt><trkpt lat="44.532118831922844" lon="6.701663824762716"><ele>2040.0</ele><time>2026-05-01T11:50:09Z</time></trkpt><trkpt lat="44.532067055296665" lon="6.701514497597991"><ele>2036.0</ele><time>2026-05-01T11:50:10Z</time></trkpt><trkpt lat="44.53200321595313" lon="6.701399433836616"><ele>2032.0</ele><time>2026-05-01T11:50:11Z</time></trkpt><trkpt lat="44.53193085249485" lon="6.701334089292532"><ele>2028.0</ele><time>2026-05-01T11:50:12Z</time></trkpt><trkpt lat="44.53182827470765" lon="6.701318630794436"><ele>2024.0</ele><time>2026-05-01T11:50:14Z</time></trkpt><trkpt lat="44.53173430019133" lon="6.701479471756686"><ele>2020.0</ele><time>2026-05-01T11:50:16Z</time></trkpt><trkpt lat="44.531723773678834" lon="6.7016437439547465"><ele>2020.0</ele><time>2026-05-01T11:50:18Z</time></trkpt><trkpt lat="44.531757777571876" lon="6.70180175398538"><ele>2020.0</ele><time>2026-05-01T11:50:19Z</time></trkpt><trkpt lat="44.53179154731906" lon="6.70194808319948"><ele>2020.0</ele><time>2026-05-01T11:50:20Z</time></trkpt><trkpt lat="44.531872674581344" lon="6.702142148635666"><ele>2020.0</ele><time>2026-05-01T11:50:21Z</time></trkpt><trkpt lat="44.53196059172765" lon="6.702321580675315"><ele>2023.3333333333335</ele><time>2026-05-01T11:50:22Z</time></trkpt><trkpt lat="44.53204480728502" lon="6.702517761197525"><ele>2026.6666666666665</ele><time>2026-05-01T11:50:23Z</time></trkpt><trkpt lat="44.532116150648264" lon="6.702716535947906"><ele>2030.0</ele><time>2026-05-01T11:50:24Z</time></trkpt><trkpt lat="44.532160477523576" lon="6.702962377204341"><ele>2030.0</ele><time>2026-05-01T11:50:25Z</time></trkpt><trkpt lat="44.53216277261594" lon="6.703219102593621"><ele>2030.0</ele><time>2026-05-01T11:50:26Z</time></trkpt><trkpt lat="44.532170447483885" lon="6.703454818469693"><ele>2030.0</ele><time>2026-05-01T11:50:27Z</time></trkpt><trkpt lat="44.53213207248078" lon="6.703706281792035"><ele>2027.6666666666665</ele><time>2026-05-01T11:50:28Z</time></trkpt><trkpt lat="44.532100831034086" lon="6.703936285494691"><ele>2025.3333333333335</ele><time>2026-05-01T11:50:29Z</time></trkpt><trkpt lat="44.532085442583465" lon="6.704146794328479"><ele>2023.0</ele><time>2026-05-01T11:50:30Z</time></trkpt><trkpt lat="44.532070372430994" lon="6.704342104263299"><ele>2021.0</ele><time>2026-05-01T11:50:31Z</time></trkpt><trkpt lat="44.532053874284856" lon="6.704538138201192"><ele>2019.0</ele><time>2026-05-01T11:50:32Z</time></trkpt><trkpt lat="44.53208215310221" lon="6.704682370327398"><ele>2017.0</ele><time>2026-05-01T11:50:33Z</time></trkpt><trkpt lat="44.53211702499634" lon="6.704849742971255"><ele>2015.0</ele><time>2026-05-01T11:50:33.999Z</time></trkpt><trkpt lat="44.532176393195094" lon="6.705043463567427"><ele>2015.0</ele><time>2026-05-01T11:50:34.999Z</time></trkpt><trkpt lat="44.5322612893696" lon="6.705244252162693"><ele>2015.0</ele><time>2026-05-01T11:50:35.999Z</time></trkpt><trkpt lat="44.532293913843034" lon="6.705449347247861"><ele>2015.0</ele><time>2026-05-01T11:50:36.999Z</time></trkpt><trkpt lat="44.532309323885904" lon="6.705675978835285"><ele>2011.0</ele><time>2026-05-01T11:50:37.999Z</time></trkpt><trkpt lat="44.532302396615414" lon="6.705893257378371"><ele>2007.0</ele><time>2026-05-01T11:50:38.999Z</time></trkpt><trkpt lat="44.53230411333131" lon="6.706130375798848"><ele>2003.0</ele><time>2026-05-01T11:50:39.999Z</time></trkpt><trkpt lat="44.53230582252016" lon="6.7063664543241055"><ele>2001.0</ele><time>2026-05-01T11:50:40.999Z</time></trkpt><trkpt lat="44.53230727089557" lon="6.706605060123385"><ele>1999.0</ele><time>2026-05-01T11:50:41.999Z</time></trkpt><trkpt lat="44.53230834405603" lon="6.706833869185869"><ele>1997.0</ele><time>2026-05-01T11:50:42.999Z</time></trkpt><trkpt lat="44.53231191425802" lon="6.707041664162159"><ele>1995.0</ele><time>2026-05-01T11:50:43.999Z</time></trkpt><trkpt lat="44.532332476753034" lon="6.707230832521193"><ele>1992.9999999999998</ele><time>2026-05-01T11:50:44.999Z</time></trkpt><trkpt lat="44.53233769504211" lon="6.707393742933296"><ele>1990.9999999999998</ele><time>2026-05-01T11:50:45.999Z</time></trkpt><trkpt lat="44.53236519315057" lon="6.7075263668993275"><ele>1989.0</ele><time>2026-05-01T11:50:46.999Z</time></trkpt><trkpt lat="44.53244543225178" lon="6.707567687344058"><ele>1987.0</ele><time>2026-05-01T11:50:47.999Z</time></trkpt><trkpt lat="44.53252985034762" lon="6.707672215461743"><ele>1989.1999999999998</ele><time>2026-05-01T11:50:48.999Z</time></trkpt><trkpt lat="44.53261409179225" lon="6.707760184196429"><ele>1991.3999999999999</ele><time>2026-05-01T11:50:49.999Z</time></trkpt><trkpt lat="44.53268752633925" lon="6.707829419398411"><ele>1993.6000000000001</ele><time>2026-05-01T11:50:50.999Z</time></trkpt><trkpt lat="44.5327779316459" lon="6.70789725687208"><ele>1995.8000000000002</ele><time>2026-05-01T11:50:51.999Z</time></trkpt><trkpt lat="44.532870833004544" lon="6.708002897530122"><ele>1998.0</ele><time>2026-05-01T11:50:52.999Z</time></trkpt><trkpt lat="44.53291084504862" lon="6.70814698051346"><ele>1998.0</ele><time>2026-05-01T11:50:53.999Z</time></trkpt><trkpt lat="44.53290617058897" lon="6.708316529550805"><ele>1998.0</ele><time>2026-05-01T11:50:54.999Z</time></trkpt><trkpt lat="44.532875596806626" lon="6.708497666253581"><ele>1998.0</ele><time>2026-05-01T11:50:55.999Z</time></trkpt><trkpt lat="44.53280945622331" lon="6.708643390112475"><ele>1998.0</ele><time>2026-05-01T11:50:56.999Z</time></trkpt><trkpt lat="44.53272566990733" lon="6.7087297567637165"><ele>1991.25</ele><time>2026-05-01T11:50:57.999Z</time></trkpt><trkpt lat="44.532648080279195" lon="6.7088483286856"><ele>1984.5</ele><time>2026-05-01T11:50:58.999Z</time></trkpt><trkpt lat="44.53256639418979" lon="6.709000457874878"><ele>1977.75</ele><time>2026-05-01T11:50:59.999Z</time></trkpt><trkpt lat="44.53248514064005" lon="6.709173319657072"><ele>1971.0</ele><time>2026-05-01T11:51:00.999Z</time></trkpt><trkpt lat="44.53240222896829" lon="6.7093479006044605"><ele>1973.0</ele><time>2026-05-01T11:51:01.999Z</time></trkpt><trkpt lat="44.53231366739473" lon="6.709501914399607"><ele>1975.0</ele><time>2026-05-01T11:51:02.999Z</time></trkpt><trkpt lat="44.53221424997268" lon="6.709625149248141"><ele>1977.0</ele><time>2026-05-01T11:51:03.999Z</time></trkpt><trkpt lat="44.5320841483133" lon="6.709742884128577"><ele>1979.0</ele><time>2026-05-01T11:51:04.999Z</time></trkpt><trkpt lat="44.53196423111154" lon="6.70984980683192"><ele>1973.25</ele><time>2026-05-01T11:51:05.999Z</time></trkpt><trkpt lat="44.53184105740039" lon="6.709957479416562"><ele>1967.5</ele><time>2026-05-01T11:51:06.999Z</time></trkpt><trkpt lat="44.53171469637555" lon="6.710067655478617"><ele>1961.75</ele><time>2026-05-01T11:51:07.999Z</time></trkpt><trkpt lat="44.531596086304724" lon="6.710176039265254"><ele>1956.0</ele><time>2026-05-01T11:51:08.999Z</time></trkpt><trkpt lat="44.53148636715295" lon="6.71028178480415"><ele>1956.0</ele><time>2026-05-01T11:51:09.999Z</time></trkpt><trkpt lat="44.53137741493732" lon="6.710410255848635"><ele>1956.0</ele><time>2026-05-01T11:51:10.999Z</time></trkpt><trkpt lat="44.53128023331024" lon="6.710575557924995"><ele>1956.0</ele><time>2026-05-01T11:51:11.999Z</time></trkpt><trkpt lat="44.5312136708439" lon="6.710709370806969"><ele>1956.0</ele><time>2026-05-01T11:51:12.999Z</time></trkpt><trkpt lat="44.53115208537882" lon="6.710930726913188"><ele>1950.0</ele><time>2026-05-01T11:51:13.999Z</time></trkpt><trkpt lat="44.53112491067595" lon="6.71107727019505"><ele>1944.0</ele><time>2026-05-01T11:51:14.999Z</time></trkpt><trkpt lat="44.531088490450095" lon="6.71128026227842"><ele>1938.0</ele><time>2026-05-01T11:51:15.999Z</time></trkpt><trkpt lat="44.53106841926713" lon="6.711503992922273"><ele>1932.0</ele><time>2026-05-01T11:51:16.999Z</time></trkpt><trkpt lat="44.53106577111225" lon="6.711712175459699"><ele>1929.6666666666665</ele><time>2026-05-01T11:51:17.999Z</time></trkpt><trkpt lat="44.53107901123708" lon="6.7119159683577845"><ele>1927.3333333333333</ele><time>2026-05-01T11:51:18.999Z</time></trkpt><trkpt lat="44.53116071784301" lon="6.712164880340524"><ele>1925.0</ele><time>2026-05-01T11:51:19.999Z</time></trkpt><trkpt lat="44.531228559653826" lon="6.712375916287864"><ele>1930.5</ele><time>2026-05-01T11:51:20.999Z</time></trkpt><trkpt lat="44.53129528148943" lon="6.712566571218648"><ele>1936.0</ele><time>2026-05-01T11:51:21.999Z</time></trkpt><trkpt lat="44.53135626577525" lon="6.712726673865833"><ele>1941.5</ele><time>2026-05-01T11:51:22.999Z</time></trkpt><trkpt lat="44.53137625461733" lon="6.712863521881061"><ele>1947.0</ele><time>2026-05-01T11:51:24Z</time></trkpt><trkpt lat="44.53137164932053" lon="6.712962137533079"><ele>1947.6</ele><time>2026-05-01T11:51:25Z</time></trkpt><trkpt lat="44.53127501321738" lon="6.713049470265453"><ele>1948.1999999999998</ele><time>2026-05-01T11:51:26Z</time></trkpt><trkpt lat="44.531188953108995" lon="6.7131307533550375"><ele>1948.8</ele><time>2026-05-01T11:51:27Z</time></trkpt><trkpt lat="44.5310913861728" lon="6.713131582369616"><ele>1949.4</ele><time>2026-05-01T11:51:28Z</time></trkpt><trkpt lat="44.5310137327373" lon="6.713052676643989"><ele>1950.0</ele><time>2026-05-01T11:51:29Z</time></trkpt><trkpt lat="44.53091342396954" lon="6.7129697833487825"><ele>1943.75</ele><time>2026-05-01T11:51:30Z</time></trkpt><trkpt lat="44.53083293054455" lon="6.712785650518219"><ele>1937.5</ele><time>2026-05-01T11:51:31Z</time></trkpt><trkpt lat="44.53075864742107" lon="6.712624737395765"><ele>1931.25</ele><time>2026-05-01T11:51:32Z</time></trkpt><trkpt lat="44.53070204467656" lon="6.712438418169756"><ele>1925.0</ele><time>2026-05-01T11:51:33Z</time></trkpt><trkpt lat="44.530626788552176" lon="6.7122361833327115"><ele>1925.0</ele><time>2026-05-01T11:51:34Z</time></trkpt><trkpt lat="44.530551617102425" lon="6.712053534341419"><ele>1925.0</ele><time>2026-05-01T11:51:35Z</time></trkpt><trkpt lat="44.53048360864459" lon="6.711868448461902"><ele>1925.0</ele><time>2026-05-01T11:51:36Z</time></trkpt><trkpt lat="44.53042785257753" lon="6.711678494666146"><ele>1925.0</ele><time>2026-05-01T11:51:37Z</time></trkpt><trkpt lat="44.53040429782891" lon="6.7114738977625015"><ele>1925.75</ele><time>2026-05-01T11:51:38Z</time></trkpt><trkpt lat="44.5303999733726" lon="6.711274163286355"><ele>1926.5</ele><time>2026-05-01T11:51:39Z</time></trkpt><trkpt lat="44.53043317199759" lon="6.711091511086748"><ele>1927.25</ele><time>2026-05-01T11:51:40Z</time></trkpt><trkpt lat="44.53048244089421" lon="6.710912600585055"><ele>1928.0</ele><time>2026-05-01T11:51:41Z</time></trkpt><trkpt lat="44.53053407460183" lon="6.710735790524911"><ele>1928.0</ele><time>2026-05-01T11:51:42Z</time></trkpt><trkpt lat="44.53060904043433" lon="6.710571590689903"><ele>1928.0</ele><time>2026-05-01T11:51:43Z</time></trkpt><trkpt lat="44.530689044753935" lon="6.710449505457553"><ele>1928.0</ele><time>2026-05-01T11:51:44Z</time></trkpt><trkpt lat="44.53076523702077" lon="6.710325003797522"><ele>1928.0</ele><time>2026-05-01T11:51:45Z</time></trkpt><trkpt lat="44.530816477592325" lon="6.7101801512141055"><ele>1926.2</ele><time>2026-05-01T11:51:46Z</time></trkpt><trkpt lat="44.53086782940884" lon="6.7100666393454445"><ele>1924.4</ele><time>2026-05-01T11:51:47Z</time></trkpt><trkpt lat="44.53086329616769" lon="6.709914455306996"><ele>1922.6000000000001</ele><time>2026-05-01T11:51:49Z</time></trkpt><trkpt lat="44.53082583871576" lon="6.709837530746539"><ele>1920.8000000000002</ele><time>2026-05-01T11:51:50Z</time></trkpt><trkpt lat="44.530757019020754" lon="6.709788033333389"><ele>1919.0</ele><time>2026-05-01T11:51:51Z</time></trkpt><trkpt lat="44.53063510532415" lon="6.709818867011789"><ele>1919.0</ele><time>2026-05-01T11:51:53Z</time></trkpt><trkpt lat="44.530584733265265" lon="6.709886945161706"><ele>1919.0</ele><time>2026-05-01T11:51:54Z</time></trkpt><trkpt lat="44.53047111124659" lon="6.710025559006288"><ele>1919.0</ele><time>2026-05-01T11:51:55Z</time></trkpt><trkpt lat="44.53045538694066" lon="6.710156958295964"><ele>1919.0</ele><time>2026-05-01T11:51:56Z</time></trkpt><trkpt lat="44.530369218885426" lon="6.710296165349631"><ele>1919.0</ele><time>2026-05-01T11:51:57Z</time></trkpt><trkpt lat="44.53025978838507" lon="6.71050033200912"><ele>1908.3333333333333</ele><time>2026-05-01T11:51:58Z</time></trkpt><trkpt lat="44.530139437286074" lon="6.710690797671856"><ele>1897.6666666666665</ele><time>2026-05-01T11:51:59Z</time></trkpt><trkpt lat="44.53004497177991" lon="6.710872569588933"><ele>1887.0</ele><time>2026-05-01T11:52:00Z</time></trkpt><trkpt lat="44.52994596062998" lon="6.711017765610201"><ele>1891.0</ele><time>2026-05-01T11:52:01Z</time></trkpt><trkpt lat="44.529846263748105" lon="6.711218293358505"><ele>1895.0</ele><time>2026-05-01T11:52:02Z</time></trkpt><trkpt lat="44.529724010092345" lon="6.711428864036323"><ele>1899.0</ele><time>2026-05-01T11:52:03Z</time></trkpt><trkpt lat="44.52963683474169" lon="6.7116245493489535"><ele>1887.0</ele><time>2026-05-01T11:52:04Z</time></trkpt><trkpt lat="44.529557455906776" lon="6.711831957004564"><ele>1875.0</ele><time>2026-05-01T11:52:05Z</time></trkpt><trkpt lat="44.52954137449579" lon="6.7120246018752105"><ele>1863.0</ele><time>2026-05-01T11:52:06Z</time></trkpt><trkpt lat="44.529519410814075" lon="6.712253575903856"><ele>1863.0</ele><time>2026-05-01T11:52:07Z</time></trkpt><trkpt lat="44.529494780938855" lon="6.71247865183603"><ele>1863.0</ele><time>2026-05-01T11:52:08Z</time></trkpt><trkpt lat="44.529488746618554" lon="6.712657419451123"><ele>1863.0</ele><time>2026-05-01T11:52:09Z</time></trkpt><trkpt lat="44.52949174934963" lon="6.71286074159889"><ele>1863.0</ele><time>2026-05-01T11:52:10Z</time></trkpt><trkpt lat="44.52951184206423" lon="6.713069902373959"><ele>1870.75</ele><time>2026-05-01T11:52:11Z</time></trkpt><trkpt lat="44.52958002758674" lon="6.713264010816582"><ele>1878.5</ele><time>2026-05-01T11:52:12Z</time></trkpt><trkpt lat="44.52961460536955" lon="6.713453760740328"><ele>1886.25</ele><time>2026-05-01T11:52:13Z</time></trkpt><trkpt lat="44.52961659335708" lon="6.713648243121944"><ele>1894.0</ele><time>2026-05-01T11:52:14Z</time></trkpt><trkpt lat="44.52956725442441" lon="6.713844070175418"><ele>1884.25</ele><time>2026-05-01T11:52:15Z</time></trkpt><trkpt lat="44.5295038713862" lon="6.714033462764714"><ele>1874.5</ele><time>2026-05-01T11:52:16Z</time></trkpt><trkpt lat="44.52947960593322" lon="6.714237832095423"><ele>1864.75</ele><time>2026-05-01T11:52:17Z</time></trkpt><trkpt lat="44.52946624217984" lon="6.714435813120198"><ele>1855.0</ele><time>2026-05-01T11:52:18Z</time></trkpt><trkpt lat="44.529449263261235" lon="6.71466629757343"><ele>1855.0</ele><time>2026-05-01T11:52:19Z</time></trkpt><trkpt lat="44.52942960788784" lon="6.714919620791497"><ele>1855.0</ele><time>2026-05-01T11:52:20Z</time></trkpt><trkpt lat="44.52940482717048" lon="6.715176869487736"><ele>1855.0</ele><time>2026-05-01T11:52:21Z</time></trkpt><trkpt lat="44.529375504466515" lon="6.715450780982955"><ele>1854.0</ele><time>2026-05-01T11:52:22Z</time></trkpt><trkpt lat="44.52934408130783" lon="6.715693179640595"><ele>1853.0</ele><time>2026-05-01T11:52:23Z</time></trkpt><trkpt lat="44.52931893763449" lon="6.7159221922315275"><ele>1852.0</ele><time>2026-05-01T11:52:24Z</time></trkpt><trkpt lat="44.52929134156679" lon="6.716124643254585"><ele>1850.0</ele><time>2026-05-01T11:52:25Z</time></trkpt><trkpt lat="44.52929906744018" lon="6.716349382047908"><ele>1848.0</ele><time>2026-05-01T11:52:26Z</time></trkpt><trkpt lat="44.529312270543926" lon="6.716558090556175"><ele>1846.0</ele><time>2026-05-01T11:52:27Z</time></trkpt><trkpt lat="44.5293453564532" lon="6.716772991471947"><ele>1843.0</ele><time>2026-05-01T11:52:28Z</time></trkpt><trkpt lat="44.5293767883248" lon="6.717008551785834"><ele>1840.0</ele><time>2026-05-01T11:52:29Z</time></trkpt><trkpt lat="44.529381768116934" lon="6.717236053966176"><ele>1837.0</ele><time>2026-05-01T11:52:30Z</time></trkpt><trkpt lat="44.529343905598964" lon="6.717443800486649"><ele>1837.0</ele><time>2026-05-01T11:52:31Z</time></trkpt><trkpt lat="44.529304818905445" lon="6.717664737805201"><ele>1837.0</ele><time>2026-05-01T11:52:32Z</time></trkpt><trkpt lat="44.52927723201941" lon="6.717892472505774"><ele>1837.0</ele><time>2026-05-01T11:52:33Z</time></trkpt><trkpt lat="44.52925567908618" lon="6.718133841850592"><ele>1837.3333333333335</ele><time>2026-05-01T11:52:34Z</time></trkpt><trkpt lat="44.52923205081311" lon="6.718408736582265"><ele>1837.6666666666665</ele><time>2026-05-01T11:52:35Z</time></trkpt><trkpt lat="44.52920649465446" lon="6.718703395840281"><ele>1838.0</ele><time>2026-05-01T11:52:36Z</time></trkpt><trkpt lat="44.52917546710601" lon="6.718990782432177"><ele>1838.0</ele><time>2026-05-01T11:52:37Z</time></trkpt><trkpt lat="44.52912878948448" lon="6.719226131857832"><ele>1838.0</ele><time>2026-05-01T11:52:38Z</time></trkpt><trkpt lat="44.529103220901455" lon="6.719500919067049"><ele>1838.0</ele><time>2026-05-01T11:52:39Z</time></trkpt><trkpt lat="44.52905738963243" lon="6.719749803336912"><ele>1837.6666666666665</ele><time>2026-05-01T11:52:39.999Z</time></trkpt><trkpt lat="44.52902636245985" lon="6.720013029126767"><ele>1837.3333333333335</ele><time>2026-05-01T11:52:40.999Z</time></trkpt><trkpt lat="44.52899951703564" lon="6.720273320090374"><ele>1837.0</ele><time>2026-05-01T11:52:41.999Z</time></trkpt><trkpt lat="44.52897331018386" lon="6.720529238652429"><ele>1836.6666666666667</ele><time>2026-05-01T11:52:42.999Z</time></trkpt><trkpt lat="44.528943366196536" lon="6.720765685075234"><ele>1836.3333333333335</ele><time>2026-05-01T11:52:43.999Z</time></trkpt><trkpt lat="44.52890727521775" lon="6.720997869982268"><ele>1836.0</ele><time>2026-05-01T11:52:44.999Z</time></trkpt><trkpt lat="44.5288683097082" lon="6.721215294916562"><ele>1835.5</ele><time>2026-05-01T11:52:45.999Z</time></trkpt><trkpt lat="44.52883937767891" lon="6.721413344673056"><ele>1835.0</ele><time>2026-05-01T11:52:46.999Z</time></trkpt><trkpt lat="44.528832164449526" lon="6.721622365581057"><ele>1834.5</ele><time>2026-05-01T11:52:47.999Z</time></trkpt><trkpt lat="44.528825957399725" lon="6.721813172734242"><ele>1834.0</ele><time>2026-05-01T11:52:48.999Z</time></trkpt><trkpt lat="44.52884120310819" lon="6.721993705594405"><ele>1831.0000000000002</ele><time>2026-05-01T11:52:49.999Z</time></trkpt><trkpt lat="44.52884550058873" lon="6.722112910140492"><ele>1828.0</ele><time>2026-05-01T11:52:50.999Z</time></trkpt><trkpt lat="44.528804739072456" lon="6.722211913143199"><ele>1825.0</ele><time>2026-05-01T11:52:52.999Z</time></trkpt><trkpt lat="44.528756603824654" lon="6.722275512032442"><ele>1822.0</ele><time>2026-05-01T11:52:53.999Z</time></trkpt><trkpt lat="44.5286780069387" lon="6.722258367987939"><ele>1819.0000000000002</ele><time>2026-05-01T11:52:54.999Z</time></trkpt><trkpt lat="44.52865278385719" lon="6.722105781535336"><ele>1816.0</ele><time>2026-05-01T11:52:55.999Z</time></trkpt><trkpt lat="44.52863374101651" lon="6.722021130692548"><ele>1811.4</ele><time>2026-05-01T11:52:56.999Z</time></trkpt><trkpt lat="44.528644531771114" lon="6.721922206417483"><ele>1806.8</ele><time>2026-05-01T11:52:57.999Z</time></trkpt><trkpt lat="44.528659318080365" lon="6.7217875006819625"><ele>1802.2000000000003</ele><time>2026-05-01T11:52:58.999Z</time></trkpt><trkpt lat="44.528664169426115" lon="6.721611744186426"><ele>1797.6000000000001</ele><time>2026-05-01T11:52:59.999Z</time></trkpt><trkpt lat="44.5286520934896" lon="6.72143305171212"><ele>1793.0</ele><time>2026-05-01T11:53:00.999Z</time></trkpt><trkpt lat="44.52863588170886" lon="6.721201330098692"><ele>1793.0</ele><time>2026-05-01T11:53:01.999Z</time></trkpt><trkpt lat="44.528610375269984" lon="6.72095017855279"><ele>1793.0</ele><time>2026-05-01T11:53:02.999Z</time></trkpt><trkpt lat="44.528558672942346" lon="6.720671820385321"><ele>1793.0</ele><time>2026-05-01T11:53:03.999Z</time></trkpt><trkpt lat="44.52853142301056" lon="6.7204328881656155"><ele>1792.3333333333333</ele><time>2026-05-01T11:53:04.999Z</time></trkpt><trkpt lat="44.52849613362775" lon="6.720166289033619"><ele>1791.6666666666665</ele><time>2026-05-01T11:53:05.999Z</time></trkpt><trkpt lat="44.52843056925344" lon="6.719896831886654"><ele>1791.0</ele><time>2026-05-01T11:53:06.999Z</time></trkpt><trkpt lat="44.52838525378509" lon="6.7196363664671495"><ele>1790.3333333333335</ele><time>2026-05-01T11:53:07.999Z</time></trkpt><trkpt lat="44.52833192265342" lon="6.719368577086181"><ele>1789.6666666666667</ele><time>2026-05-01T11:53:08.999Z</time></trkpt><trkpt lat="44.52828289307071" lon="6.719114245422489"><ele>1789.0</ele><time>2026-05-01T11:53:09.999Z</time></trkpt><trkpt lat="44.5282279226996" lon="6.718868760755073"><ele>1789.0</ele><time>2026-05-01T11:53:10.999Z</time></trkpt><trkpt lat="44.52815861799409" lon="6.718623321123401"><ele>1789.0</ele><time>2026-05-01T11:53:11.999Z</time></trkpt><trkpt lat="44.52809995407438" lon="6.718403687907268"><ele>1789.0</ele><time>2026-05-01T11:53:12.999Z</time></trkpt><trkpt lat="44.52805000553383" lon="6.718190223026267"><ele>1789.25</ele><time>2026-05-01T11:53:13.999Z</time></trkpt><trkpt lat="44.5280585812132" lon="6.717996320212883"><ele>1789.5</ele><time>2026-05-01T11:53:14.999Z</time></trkpt><trkpt lat="44.528079989782555" lon="6.7178202672038525"><ele>1789.75</ele><time>2026-05-01T11:53:15.999Z</time></trkpt><trkpt lat="44.52806695897011" lon="6.717647279518768"><ele>1790.0</ele><time>2026-05-01T11:53:16.999Z</time></trkpt><trkpt lat="44.52805387803638" lon="6.717488222614669"><ele>1790.0</ele><time>2026-05-01T11:53:17.999Z</time></trkpt><trkpt lat="44.528047917670946" lon="6.717355816600874"><ele>1790.0</ele><time>2026-05-01T11:53:18.999Z</time></trkpt><trkpt lat="44.52799761113515" lon="6.717195495627139"><ele>1790.0</ele><time>2026-05-01T11:53:19.999Z</time></trkpt><trkpt lat="44.52795274020751" lon="6.717059209253975"><ele>1790.0</ele><time>2026-05-01T11:53:20.999Z</time></trkpt><trkpt lat="44.52782753946122" lon="6.716942149203707"><ele>1780.0</ele><time>2026-05-01T11:53:21.999Z</time></trkpt><trkpt lat="44.52778674751256" lon="6.716758382563712"><ele>1770.0</ele><time>2026-05-01T11:53:22.999Z</time></trkpt><trkpt lat="44.527660221608656" lon="6.716604827139996"><ele>1760.0</ele><time>2026-05-01T11:53:23.999Z</time></trkpt><trkpt lat="44.52758750612978" lon="6.716413489964369"><ele>1760.0</ele><time>2026-05-01T11:53:24.999Z</time></trkpt><trkpt lat="44.5275296558524" lon="6.716232061969377"><ele>1760.0</ele><time>2026-05-01T11:53:25.999Z</time></trkpt><trkpt lat="44.52745441516386" lon="6.716060884128275"><ele>1760.0</ele><time>2026-05-01T11:53:26.999Z</time></trkpt><trkpt lat="44.52736744249616" lon="6.715883535792821"><ele>1760.0</ele><time>2026-05-01T11:53:27.999Z</time></trkpt><trkpt lat="44.52729089779138" lon="6.715721918912937"><ele>1761.75</ele><time>2026-05-01T11:53:28.999Z</time></trkpt><trkpt lat="44.52722891627018" lon="6.715577701608793"><ele>1763.5</ele><time>2026-05-01T11:53:30Z</time></trkpt><trkpt lat="44.52720792063965" lon="6.715414979189871"><ele>1765.25</ele><time>2026-05-01T11:53:31Z</time></trkpt><trkpt lat="44.52719848384017" lon="6.715261852539784"><ele>1767.0</ele><time>2026-05-01T11:53:32Z</time></trkpt><trkpt lat="44.52716766852781" lon="6.715115157709229"><ele>1768.6</ele><time>2026-05-01T11:53:33Z</time></trkpt><trkpt lat="44.52711438782472" lon="6.714985833865842"><ele>1770.1999999999998</ele><time>2026-05-01T11:53:34Z</time></trkpt><trkpt lat="44.527109092683396" lon="6.7148965335631265"><ele>1771.8</ele><time>2026-05-01T11:53:35Z</time></trkpt><trkpt lat="44.52700274000986" lon="6.714823748307419"><ele>1773.4</ele><time>2026-05-01T11:53:37Z</time></trkpt><trkpt lat="44.526928269645815" lon="6.714850495893616"><ele>1775.0</ele><time>2026-05-01T11:53:38Z</time></trkpt><trkpt lat="44.52689809088951" lon="6.714992213226426"><ele>1765.0</ele><time>2026-05-01T11:53:40Z</time></trkpt><trkpt lat="44.52685808514289" lon="6.71511678798406"><ele>1755.0</ele><time>2026-05-01T11:53:41Z</time></trkpt><trkpt lat="44.52688091167633" lon="6.715248110182548"><ele>1745.0</ele><time>2026-05-01T11:53:42Z</time></trkpt><trkpt lat="44.526889774368705" lon="6.715382356729314"><ele>1735.0</ele><time>2026-05-01T11:53:43Z</time></trkpt><trkpt lat="44.526891525007066" lon="6.715700994086719"><ele>1731.0</ele><time>2026-05-01T11:53:44Z</time></trkpt><trkpt lat="44.52690269645684" lon="6.716046764139276"><ele>1727.0</ele><time>2026-05-01T11:53:45Z</time></trkpt><trkpt lat="44.52689327361909" lon="6.716360290092899"><ele>1726.0</ele><time>2026-05-01T11:53:46Z</time></trkpt><trkpt lat="44.526880581479176" lon="6.716588573904354"><ele>1725.0</ele><time>2026-05-01T11:53:47Z</time></trkpt><trkpt lat="44.526863072083756" lon="6.716802758632686"><ele>1724.0</ele><time>2026-05-01T11:53:48Z</time></trkpt><trkpt lat="44.526853944822236" lon="6.716988416780413"><ele>1721.5</ele><time>2026-05-01T11:53:49Z</time></trkpt><trkpt lat="44.52684111348517" lon="6.7171621646711515"><ele>1719.0</ele><time>2026-05-01T11:53:50Z</time></trkpt><trkpt lat="44.526815422307614" lon="6.717332050367364"><ele>1716.5</ele><time>2026-05-01T11:53:51Z</time></trkpt><trkpt lat="44.52683683302815" lon="6.717481381035385"><ele>1714.0</ele><time>2026-05-01T11:53:52Z</time></trkpt><trkpt lat="44.52688465189625" lon="6.7176213539121035"><ele>1714.0</ele><time>2026-05-01T11:53:53Z</time></trkpt><trkpt lat="44.527007561924556" lon="6.7176518927868125"><ele>1714.0</ele><time>2026-05-01T11:53:54Z</time></trkpt><trkpt lat="44.52708350278099" lon="6.717765461989543"><ele>1714.0</ele><time>2026-05-01T11:53:55Z</time></trkpt><trkpt lat="44.52713366149294" lon="6.7178874147457135"><ele>1714.0</ele><time>2026-05-01T11:53:56Z</time></trkpt><trkpt lat="44.52716327684642" lon="6.718009043528287"><ele>1714.0</ele><time>2026-05-01T11:53:57Z</time></trkpt><trkpt lat="44.52709521283138" lon="6.718132272244302"><ele>1712.5</ele><time>2026-05-01T11:53:58Z</time></trkpt><trkpt lat="44.52702420909042" lon="6.71814879576415"><ele>1711.0</ele><time>2026-05-01T11:53:59Z</time></trkpt><trkpt lat="44.52689854829758" lon="6.718197304629791"><ele>1709.5</ele><time>2026-05-01T11:54:01Z</time></trkpt><trkpt lat="44.52678992468561" lon="6.718286937166131"><ele>1708.0</ele><time>2026-05-01T11:54:02Z</time></trkpt><trkpt lat="44.52667990103639" lon="6.718459073679402"><ele>1707.75</ele><time>2026-05-01T11:54:03Z</time></trkpt><trkpt lat="44.52664785859068" lon="6.7186085800513204"><ele>1707.5</ele><time>2026-05-01T11:54:04Z</time></trkpt><trkpt lat="44.52661843692896" lon="6.718754558567825"><ele>1707.25</ele><time>2026-05-01T11:54:05Z</time></trkpt><trkpt lat="44.52658129020126" lon="6.718946195426891"><ele>1707.0</ele><time>2026-05-01T11:54:06Z</time></trkpt><trkpt lat="44.52653998887447" lon="6.719225709576146"><ele>1709.5</ele><time>2026-05-01T11:54:07Z</time></trkpt><trkpt lat="44.52650135743616" lon="6.719440122012238"><ele>1712.0</ele><time>2026-05-01T11:54:08Z</time></trkpt><trkpt lat="44.526438761676765" lon="6.719606519899995"><ele>1714.5</ele><time>2026-05-01T11:54:09Z</time></trkpt><trkpt lat="44.526356695185676" lon="6.719762861910532"><ele>1717.0</ele><time>2026-05-01T11:54:10Z</time></trkpt><trkpt lat="44.526245858709544" lon="6.719987700353088"><ele>1706.6666666666667</ele><time>2026-05-01T11:54:11Z</time></trkpt><trkpt lat="44.52616522025129" lon="6.720191515129191"><ele>1696.3333333333335</ele><time>2026-05-01T11:54:12Z</time></trkpt><trkpt lat="44.526095498880586" lon="6.720408931645996"><ele>1686.0</ele><time>2026-05-01T11:54:13Z</time></trkpt><trkpt lat="44.52603454364227" lon="6.720654387360617"><ele>1686.0</ele><time>2026-05-01T11:54:14Z</time></trkpt><trkpt lat="44.52596228743473" lon="6.720898724884886"><ele>1686.0</ele><time>2026-05-01T11:54:15Z</time></trkpt><trkpt lat="44.52586576887409" lon="6.7211387808436855"><ele>1686.0</ele><time>2026-05-01T11:54:16Z</time></trkpt><trkpt lat="44.525790083924655" lon="6.7214039317942715"><ele>1687.6666666666665</ele><time>2026-05-01T11:54:17Z</time></trkpt><trkpt lat="44.52575106448608" lon="6.72166038981076"><ele>1689.3333333333333</ele><time>2026-05-01T11:54:18Z</time></trkpt><trkpt lat="44.525698092153746" lon="6.721887446913964"><ele>1691.0</ele><time>2026-05-01T11:54:19Z</time></trkpt><trkpt lat="44.52565378695524" lon="6.722093463027453"><ele>1691.5</ele><time>2026-05-01T11:54:20Z</time></trkpt><trkpt lat="44.52558463646246" lon="6.722294941280597"><ele>1692.0</ele><time>2026-05-01T11:54:21Z</time></trkpt><trkpt lat="44.525528640138084" lon="6.722465281385575"><ele>1692.5</ele><time>2026-05-01T11:54:22Z</time></trkpt><trkpt lat="44.525508802856336" lon="6.722669869507529"><ele>1693.0</ele><time>2026-05-01T11:54:23Z</time></trkpt><trkpt lat="44.525493518891146" lon="6.722828606863463"><ele>1689.6666666666667</ele><time>2026-05-01T11:54:24Z</time></trkpt><trkpt lat="44.52545738807645" lon="6.72304129496278"><ele>1686.3333333333335</ele><time>2026-05-01T11:54:25Z</time></trkpt><trkpt lat="44.525401535011156" lon="6.7232776457953625"><ele>1683.0</ele><time>2026-05-01T11:54:26Z</time></trkpt><trkpt lat="44.52537361965768" lon="6.723469678497784"><ele>1671.3333333333335</ele><time>2026-05-01T11:54:27Z</time></trkpt><trkpt lat="44.52535793780719" lon="6.723693444286088"><ele>1659.6666666666667</ele><time>2026-05-01T11:54:28Z</time></trkpt><trkpt lat="44.52537292887912" lon="6.723898320826391"><ele>1648.0</ele><time>2026-05-01T11:54:29Z</time></trkpt><trkpt lat="44.525372192968426" lon="6.724126585697828"><ele>1659.6666666666667</ele><time>2026-05-01T11:54:30Z</time></trkpt><trkpt lat="44.52542150074388" lon="6.724396402377621"><ele>1671.3333333333335</ele><time>2026-05-01T11:54:31Z</time></trkpt><trkpt lat="44.5254575805895" lon="6.724614560259578"><ele>1683.0</ele><time>2026-05-01T11:54:32Z</time></trkpt><trkpt lat="44.52543411150629" lon="6.724799823728126"><ele>1683.0</ele><time>2026-05-01T11:54:33Z</time></trkpt><trkpt lat="44.52540782557075" lon="6.7250017233458514"><ele>1683.0</ele><time>2026-05-01T11:54:34Z</time></trkpt><trkpt lat="44.52542274890667" lon="6.725183083923178"><ele>1683.0</ele><time>2026-05-01T11:54:35Z</time></trkpt><trkpt lat="44.525464971439284" lon="6.725337903889223"><ele>1683.0</ele><time>2026-05-01T11:54:36Z</time></trkpt><trkpt lat="44.525484738680355" lon="6.7255147971313844"><ele>1680.0</ele><time>2026-05-01T11:54:37Z</time></trkpt><trkpt lat="44.52552902371531" lon="6.725691115280855"><ele>1677.0</ele><time>2026-05-01T11:54:38Z</time></trkpt><trkpt lat="44.525593690046215" lon="6.725840165813868"><ele>1674.0</ele><time>2026-05-01T11:54:39Z</time></trkpt><trkpt lat="44.52565098359132" lon="6.7259636078560625"><ele>1671.0</ele><time>2026-05-01T11:54:40Z</time></trkpt><trkpt lat="44.52573291554984" lon="6.726079377404816"><ele>1668.5</ele><time>2026-05-01T11:54:41Z</time></trkpt><trkpt lat="44.52583778104674" lon="6.726155607489694"><ele>1666.0</ele><time>2026-05-01T11:54:42Z</time></trkpt><trkpt lat="44.525948428994035" lon="6.726191499822304"><ele>1663.5</ele><time>2026-05-01T11:54:43Z</time></trkpt><trkpt lat="44.526073066781215" lon="6.726154680052858"><ele>1661.0</ele><time>2026-05-01T11:54:44Z</time></trkpt><trkpt lat="44.52622520268856" lon="6.726150045732481"><ele>1668.4</ele><time>2026-05-01T11:54:45Z</time></trkpt><trkpt lat="44.526299730795586" lon="6.72621160960452"><ele>1675.8</ele><time>2026-05-01T11:54:45.999Z</time></trkpt><trkpt lat="44.52636789228263" lon="6.726201882359095"><ele>1683.2</ele><time>2026-05-01T11:54:46.999Z</time></trkpt><trkpt lat="44.52642060114175" lon="6.726280255615736"><ele>1690.6000000000001</ele><time>2026-05-01T11:54:47.999Z</time></trkpt><trkpt lat="44.526350951887835" lon="6.726447654935367"><ele>1698.0</ele><time>2026-05-01T11:54:48.999Z</time></trkpt><trkpt lat="44.5262542947631" lon="6.72648066691849"><ele>1690.6000000000001</ele><time>2026-05-01T11:54:49.999Z</time></trkpt><trkpt lat="44.52621922881274" lon="6.726570408336895"><ele>1683.2</ele><time>2026-05-01T11:54:50.999Z</time></trkpt><trkpt lat="44.526136536861856" lon="6.726637917897161"><ele>1675.8</ele><time>2026-05-01T11:54:51.999Z</time></trkpt><trkpt lat="44.526051924790714" lon="6.726749526648769"><ele>1668.4</ele><time>2026-05-01T11:54:52.999Z</time></trkpt><trkpt lat="44.52593198893392" lon="6.726787850917786"><ele>1661.0</ele><time>2026-05-01T11:54:53.999Z</time></trkpt><trkpt lat="44.525825982689646" lon="6.726810271338921"><ele>1661.0</ele><time>2026-05-01T11:54:54.999Z</time></trkpt><trkpt lat="44.52568753683367" lon="6.726831856993749"><ele>1661.0</ele><time>2026-05-01T11:54:55.999Z</time></trkpt><trkpt lat="44.52556198723887" lon="6.726878726979036"><ele>1661.0</ele><time>2026-05-01T11:54:56.999Z</time></trkpt><trkpt lat="44.525453301833515" lon="6.726956025815332"><ele>1661.0</ele><time>2026-05-01T11:54:57.999Z</time></trkpt><trkpt lat="44.525390252891846" lon="6.727052387656062"><ele>1658.5</ele><time>2026-05-01T11:54:58.999Z</time></trkpt><trkpt lat="44.52535766988285" lon="6.727222930203779"><ele>1656.0</ele><time>2026-05-01T11:54:59.999Z</time></trkpt><trkpt lat="44.52529466857251" lon="6.727343933324198"><ele>1653.5</ele><time>2026-05-01T11:55:00.999Z</time></trkpt><trkpt lat="44.525268255204516" lon="6.7274838530944105"><ele>1651.0</ele><time>2026-05-01T11:55:01.999Z</time></trkpt><trkpt lat="44.525249551086915" lon="6.727723966748434"><ele>1652.0</ele><time>2026-05-01T11:55:02.999Z</time></trkpt><trkpt lat="44.5252124527584" lon="6.7279290972062675"><ele>1653.0</ele><time>2026-05-01T11:55:03.999Z</time></trkpt><trkpt lat="44.52520042863284" lon="6.728151175029586"><ele>1654.0</ele><time>2026-05-01T11:55:04.999Z</time></trkpt><trkpt lat="44.52513440896745" lon="6.728339996721755"><ele>1654.0</ele><time>2026-05-01T11:55:05.999Z</time></trkpt><trkpt lat="44.52508118121488" lon="6.7284913489705716"><ele>1654.0</ele><time>2026-05-01T11:55:06.999Z</time></trkpt><trkpt lat="44.52504090172728" lon="6.728631261885071"><ele>1654.0</ele><time>2026-05-01T11:55:07.999Z</time></trkpt><trkpt lat="44.525030913543866" lon="6.728836725821404"><ele>1654.0</ele><time>2026-05-01T11:55:08.999Z</time></trkpt><trkpt lat="44.52503926606142" lon="6.729038000795226"><ele>1656.3333333333335</ele><time>2026-05-01T11:55:09.999Z</time></trkpt><trkpt lat="44.52505733616325" lon="6.729241688548668"><ele>1658.6666666666665</ele><time>2026-05-01T11:55:10.999Z</time></trkpt><trkpt lat="44.52503971103316" lon="6.729469477428411"><ele>1661.0</ele><time>2026-05-01T11:55:11.999Z</time></trkpt><trkpt lat="44.525044088223254" lon="6.7296717724835045"><ele>1661.0</ele><time>2026-05-01T11:55:12.999Z</time></trkpt><trkpt lat="44.5250503525314" lon="6.729901525328721"><ele>1661.0</ele><time>2026-05-01T11:55:13.999Z</time></trkpt><trkpt lat="44.52505523985544" lon="6.730134236267487"><ele>1661.0</ele><time>2026-05-01T11:55:14.999Z</time></trkpt><trkpt lat="44.52506233780623" lon="6.730362637594377"><ele>1659.3333333333333</ele><time>2026-05-01T11:55:15.999Z</time></trkpt><trkpt lat="44.52503791706202" lon="6.730598726673041"><ele>1657.6666666666665</ele><time>2026-05-01T11:55:16.999Z</time></trkpt><trkpt lat="44.524993379988366" lon="6.730833134847813"><ele>1656.0</ele><time>2026-05-01T11:55:17.999Z</time></trkpt><trkpt lat="44.52495583884228" lon="6.731073511733257"><ele>1654.6666666666665</ele><time>2026-05-01T11:55:18.999Z</time></trkpt><trkpt lat="44.524927776981066" lon="6.731302873289773"><ele>1653.3333333333333</ele><time>2026-05-01T11:55:19.999Z</time></trkpt><trkpt lat="44.52490913617217" lon="6.731510474512128"><ele>1652.0</ele><time>2026-05-01T11:55:20.999Z</time></trkpt><trkpt lat="44.524889004634446" lon="6.731704600260499"><ele>1652.0</ele><time>2026-05-01T11:55:21.999Z</time></trkpt><trkpt lat="44.52488679861871" lon="6.731887346663784"><ele>1652.0</ele><time>2026-05-01T11:55:22.999Z</time></trkpt><trkpt lat="44.52487623732677" lon="6.732072887929352"><ele>1652.0</ele><time>2026-05-01T11:55:23.999Z</time></trkpt><trkpt lat="44.52483757775131" lon="6.732209763129683"><ele>1652.0</ele><time>2026-05-01T11:55:24.999Z</time></trkpt><trkpt lat="44.52478979365883" lon="6.732315320761594"><ele>1651.0</ele><time>2026-05-01T11:55:25.999Z</time></trkpt><trkpt lat="44.5247007440428" lon="6.732387445107873"><ele>1650.0</ele><time>2026-05-01T11:55:26.999Z</time></trkpt><trkpt lat="44.52460419620412" lon="6.732403905796929"><ele>1649.0</ele><time>2026-05-01T11:55:27.999Z</time></trkpt><trkpt lat="44.52447660209089" lon="6.732438358121191"><ele>1648.0</ele><time>2026-05-01T11:55:28.999Z</time></trkpt><trkpt lat="44.52436714372153" lon="6.732471202698889"><ele>1647.0</ele><time>2026-05-01T11:55:29.999Z</time></trkpt><trkpt lat="44.52422051666006" lon="6.732508946565243"><ele>1647.0</ele><time>2026-05-01T11:55:30.999Z</time></trkpt><trkpt lat="44.5240686694915" lon="6.732603098044935"><ele>1647.0</ele><time>2026-05-01T11:55:31.999Z</time></trkpt><trkpt lat="44.52393939165001" lon="6.7327017508284275"><ele>1647.0</ele><time>2026-05-01T11:55:32.999Z</time></trkpt><trkpt lat="44.52379738934171" lon="6.732839908999159"><ele>1643.6666666666665</ele><time>2026-05-01T11:55:33.999Z</time></trkpt><trkpt lat="44.52369266839097" lon="6.732983813209767"><ele>1640.3333333333333</ele><time>2026-05-01T11:55:34.999Z</time></trkpt><trkpt lat="44.52358477624099" lon="6.7331572907044"><ele>1637.0</ele><time>2026-05-01T11:55:36Z</time></trkpt><trkpt lat="44.52349829720878" lon="6.733312451814118"><ele>1637.0</ele><time>2026-05-01T11:55:37Z</time></trkpt><trkpt lat="44.52343003878367" lon="6.733453497074006"><ele>1637.0</ele><time>2026-05-01T11:55:38Z</time></trkpt><trkpt lat="44.52337089755779" lon="6.733593121161298"><ele>1637.0</ele><time>2026-05-01T11:55:39Z</time></trkpt><trkpt lat="44.52333210889896" lon="6.733743161407047"><ele>1637.0</ele><time>2026-05-01T11:55:40Z</time></trkpt><trkpt lat="44.52329469996094" lon="6.7339044653296565"><ele>1637.75</ele><time>2026-05-01T11:55:41Z</time></trkpt><trkpt lat="44.523267022840834" lon="6.734075639866414"><ele>1638.5</ele><time>2026-05-01T11:55:42Z</time></trkpt><trkpt lat="44.52324334187717" lon="6.734258272883468"><ele>1639.25</ele><time>2026-05-01T11:55:43Z</time></trkpt><trkpt lat="44.52323656188974" lon="6.734428839809979"><ele>1640.0</ele><time>2026-05-01T11:55:44Z</time></trkpt><trkpt lat="44.52323773463324" lon="6.734594749748638"><ele>1639.9999999999998</ele><time>2026-05-01T11:55:45Z</time></trkpt><trkpt lat="44.523242884287995" lon="6.7347562412755355"><ele>1640.0</ele><time>2026-05-01T11:55:46Z</time></trkpt><trkpt lat="44.52328760410549" lon="6.7348454865516905"><ele>1640.0</ele><time>2026-05-01T11:55:47Z</time></trkpt><trkpt lat="44.523298709598826" lon="6.734943871262355"><ele>1640.0</ele><time>2026-05-01T11:55:48Z</time></trkpt><trkpt lat="44.523330190228315" lon="6.735045472365507"><ele>1639.9999999999998</ele><time>2026-05-01T11:55:49Z</time></trkpt><trkpt lat="44.52335874103382" lon="6.735126714453699"><ele>1640.0</ele><time>2026-05-01T11:55:50Z</time></trkpt><trkpt lat="44.52338177248737" lon="6.735246699600211"><ele>1639.8</ele><time>2026-05-01T11:55:51Z</time></trkpt><trkpt lat="44.52338625234708" lon="6.735379165117522"><ele>1639.6</ele><time>2026-05-01T11:55:52Z</time></trkpt><trkpt lat="44.523389077521536" lon="6.73552644605057"><ele>1639.4</ele><time>2026-05-01T11:55:53Z</time></trkpt><trkpt lat="44.52335537226148" lon="6.735678111698675"><ele>1639.2</ele><time>2026-05-01T11:55:54Z</time></trkpt><trkpt lat="44.52329901296042" lon="6.7358330846997525"><ele>1639.0</ele><time>2026-05-01T11:55:55Z</time></trkpt><trkpt lat="44.523199220870346" lon="6.736053210318028"><ele>1639.6666666666667</ele><time>2026-05-01T11:55:56Z</time></trkpt><trkpt lat="44.52309652649321" lon="6.736369249707394"><ele>1640.3333333333335</ele><time>2026-05-01T11:55:57Z</time></trkpt><trkpt lat="44.52306518673428" lon="6.73656724965256"><ele>1641.0</ele><time>2026-05-01T11:55:58Z</time></trkpt><trkpt lat="44.52301910472287" lon="6.736730853823911"><ele>1641.3333333333335</ele><time>2026-05-01T11:55:59Z</time></trkpt><trkpt lat="44.522964376201564" lon="6.736959411437605"><ele>1641.6666666666667</ele><time>2026-05-01T11:56:00Z</time></trkpt><trkpt lat="44.52291909273958" lon="6.7371735163269575"><ele>1642.0</ele><time>2026-05-01T11:56:01Z</time></trkpt><trkpt lat="44.522906427849264" lon="6.737365158044591"><ele>1642.0</ele><time>2026-05-01T11:56:02Z</time></trkpt><trkpt lat="44.522927489248026" lon="6.737555592132595"><ele>1642.0</ele><time>2026-05-01T11:56:03Z</time></trkpt><trkpt lat="44.522974607524404" lon="6.7377653219692455"><ele>1642.0</ele><time>2026-05-01T11:56:04Z</time></trkpt><trkpt lat="44.52302817061936" lon="6.737957190055113"><ele>1642.0</ele><time>2026-05-01T11:56:05Z</time></trkpt><trkpt lat="44.52307647904333" lon="6.73813452045039"><ele>1640.0</ele><time>2026-05-01T11:56:06Z</time></trkpt><trkpt lat="44.5231241829373" lon="6.738314358230694"><ele>1638.0</ele><time>2026-05-01T11:56:07Z</time></trkpt><trkpt lat="44.52313649110234" lon="6.7384787938054975"><ele>1636.0</ele><time>2026-05-01T11:56:08Z</time></trkpt><trkpt lat="44.52312870112965" lon="6.738659820020709"><ele>1634.0</ele><time>2026-05-01T11:56:09Z</time></trkpt><trkpt lat="44.52309756709373" lon="6.738829220854131"><ele>1634.0</ele><time>2026-05-01T11:56:10Z</time></trkpt><trkpt lat="44.52301850420945" lon="6.738983645959645"><ele>1634.0</ele><time>2026-05-01T11:56:11Z</time></trkpt><trkpt lat="44.52294164523031" lon="6.739145494589801"><ele>1634.0</ele><time>2026-05-01T11:56:12Z</time></trkpt><trkpt lat="44.522853394157025" lon="6.7392778329800915"><ele>1634.0</ele><time>2026-05-01T11:56:13Z</time></trkpt><trkpt lat="44.5227543008666" lon="6.739345903154081"><ele>1628.5</ele><time>2026-05-01T11:56:14Z</time></trkpt><trkpt lat="44.52265798453071" lon="6.739368852742522"><ele>1623.0</ele><time>2026-05-01T11:56:15Z</time></trkpt><trkpt lat="44.522549126901104" lon="6.739392266832907"><ele>1617.5</ele><time>2026-05-01T11:56:16Z</time></trkpt><trkpt lat="44.52240488204607" lon="6.739422044731831"><ele>1612.0</ele><time>2026-05-01T11:56:17Z</time></trkpt><trkpt lat="44.52226483522951" lon="6.739445748898512"><ele>1612.0</ele><time>2026-05-01T11:56:18Z</time></trkpt><trkpt lat="44.522144332415586" lon="6.739485702487504"><ele>1612.0</ele><time>2026-05-01T11:56:19Z</time></trkpt><trkpt lat="44.52204288621932" lon="6.73953546112267"><ele>1612.0</ele><time>2026-05-01T11:56:20Z</time></trkpt><trkpt lat="44.521939997204385" lon="6.7396166186204605"><ele>1612.0</ele><time>2026-05-01T11:56:21Z</time></trkpt><trkpt lat="44.52184466497624" lon="6.739780646095274"><ele>1608.75</ele><time>2026-05-01T11:56:22Z</time></trkpt><trkpt lat="44.521757969937376" lon="6.7399628851238385"><ele>1605.5</ele><time>2026-05-01T11:56:23Z</time></trkpt><trkpt lat="44.52169012190213" lon="6.740110132927293"><ele>1602.25</ele><time>2026-05-01T11:56:24Z</time></trkpt><trkpt lat="44.52161027345467" lon="6.740273890705399"><ele>1599.0</ele><time>2026-05-01T11:56:25Z</time></trkpt><trkpt lat="44.52153398221372" lon="6.740406501681618"><ele>1599.0</ele><time>2026-05-01T11:56:26Z</time></trkpt><trkpt lat="44.52142055668695" lon="6.740526393523458"><ele>1599.0</ele><time>2026-05-01T11:56:27Z</time></trkpt><trkpt lat="44.521291281799066" lon="6.740601283055646"><ele>1599.0</ele><time>2026-05-01T11:56:28Z</time></trkpt><trkpt lat="44.521155126878" lon="6.740632382365564"><ele>1599.0</ele><time>2026-05-01T11:56:29Z</time></trkpt><trkpt lat="44.52101926479411" lon="6.740567561496352"><ele>1598.25</ele><time>2026-05-01T11:56:30Z</time></trkpt><trkpt lat="44.5208440761989" lon="6.740533155860252"><ele>1597.5</ele><time>2026-05-01T11:56:31Z</time></trkpt><trkpt lat="44.52069756701967" lon="6.740499101688894"><ele>1596.75</ele><time>2026-05-01T11:56:32Z</time></trkpt><trkpt lat="44.52057845444538" lon="6.740475423190372"><ele>1596.0</ele><time>2026-05-01T11:56:33Z</time></trkpt><trkpt lat="44.52046477568776" lon="6.740478772459151"><ele>1593.1999999999998</ele><time>2026-05-01T11:56:34Z</time></trkpt><trkpt lat="44.52035261746607" lon="6.7404900151286595"><ele>1590.3999999999999</ele><time>2026-05-01T11:56:35Z</time></trkpt><trkpt lat="44.52026413461997" lon="6.740520921674065"><ele>1587.6</ele><time>2026-05-01T11:56:36Z</time></trkpt><trkpt lat="44.520174415252114" lon="6.74058037491116"><ele>1584.8</ele><time>2026-05-01T11:56:37Z</time></trkpt><trkpt lat="44.52011161242505" lon="6.740680669133639"><ele>1582.0</ele><time>2026-05-01T11:56:38Z</time></trkpt><trkpt lat="44.52005236956659" lon="6.74081867027605"><ele>1582.0</ele><time>2026-05-01T11:56:39Z</time></trkpt><trkpt lat="44.52001489024663" lon="6.740959478366683"><ele>1582.0</ele><time>2026-05-01T11:56:40Z</time></trkpt><trkpt lat="44.520012020348716" lon="6.741137928480618"><ele>1582.0</ele><time>2026-05-01T11:56:41Z</time></trkpt><trkpt lat="44.52001138546098" lon="6.741305032210934"><ele>1582.0</ele><time>2026-05-01T11:56:42Z</time></trkpt><trkpt lat="44.52004829191811" lon="6.741448666417962"><ele>1581.25</ele><time>2026-05-01T11:56:43Z</time></trkpt><trkpt lat="44.52009524101454" lon="6.741635676298722"><ele>1580.5</ele><time>2026-05-01T11:56:44Z</time></trkpt><trkpt lat="44.52013084125124" lon="6.741824781717204"><ele>1579.75</ele><time>2026-05-01T11:56:44.999Z</time></trkpt><trkpt lat="44.52018846997119" lon="6.742008949177725"><ele>1579.0</ele><time>2026-05-01T11:56:45.999Z</time></trkpt><trkpt lat="44.52023354196826" lon="6.7422052661173355"><ele>1577.75</ele><time>2026-05-01T11:56:46.999Z</time></trkpt><trkpt lat="44.5202648933653" lon="6.742411796718529"><ele>1576.5</ele><time>2026-05-01T11:56:47.999Z</time></trkpt><trkpt lat="44.520310308712986" lon="6.742625109489848"><ele>1575.25</ele><time>2026-05-01T11:56:48.999Z</time></trkpt><trkpt lat="44.52033066545808" lon="6.742817593557453"><ele>1574.0</ele><time>2026-05-01T11:56:49.999Z</time></trkpt><trkpt lat="44.520335948287745" lon="6.743007090927188"><ele>1574.0</ele><time>2026-05-01T11:56:50.999Z</time></trkpt><trkpt lat="44.52032696180735" lon="6.743198605199391"><ele>1574.0</ele><time>2026-05-01T11:56:51.999Z</time></trkpt><trkpt lat="44.520284377670606" lon="6.743378624486888"><ele>1574.0</ele><time>2026-05-01T11:56:52.999Z</time></trkpt><trkpt lat="44.52021677225516" lon="6.7435591033855"><ele>1574.0</ele><time>2026-05-01T11:56:53.999Z</time></trkpt><trkpt lat="44.52013403381745" lon="6.743714595832162"><ele>1576.0</ele><time>2026-05-01T11:56:54.999Z</time></trkpt><trkpt lat="44.52003598400279" lon="6.743844320234661"><ele>1578.0</ele><time>2026-05-01T11:56:55.999Z</time></trkpt><trkpt lat="44.519936502620595" lon="6.743971918670947"><ele>1580.0</ele><time>2026-05-01T11:56:56.999Z</time></trkpt><trkpt lat="44.51983042599" lon="6.744103967767172"><ele>1582.0</ele><time>2026-05-01T11:56:57.999Z</time></trkpt><trkpt lat="44.519692234328915" lon="6.74425207566324"><ele>1578.0</ele><time>2026-05-01T11:56:58.999Z</time></trkpt><trkpt lat="44.51953691453603" lon="6.744383533796894"><ele>1574.0</ele><time>2026-05-01T11:56:59.999Z</time></trkpt><trkpt lat="44.5193898404561" lon="6.744511093405278"><ele>1570.0</ele><time>2026-05-01T11:57:00.999Z</time></trkpt><trkpt lat="44.51923302095277" lon="6.74465097589133"><ele>1570.0</ele><time>2026-05-01T11:57:01.999Z</time></trkpt><trkpt lat="44.519084794947865" lon="6.7447831931564775"><ele>1570.0</ele><time>2026-05-01T11:57:02.999Z</time></trkpt><trkpt lat="44.518929712143596" lon="6.744919362851286"><ele>1570.0</ele><time>2026-05-01T11:57:03.999Z</time></trkpt><trkpt lat="44.518779495780876" lon="6.745049179407423"><ele>1565.6666666666667</ele><time>2026-05-01T11:57:04.999Z</time></trkpt><trkpt lat="44.518628080610796" lon="6.745184716817532"><ele>1561.3333333333335</ele><time>2026-05-01T11:57:05.999Z</time></trkpt><trkpt lat="44.51848558876596" lon="6.7453199629120615"><ele>1557.0</ele><time>2026-05-01T11:57:06.999Z</time></trkpt><trkpt lat="44.51837295768653" lon="6.745455535004089"><ele>1557.0</ele><time>2026-05-01T11:57:07.999Z</time></trkpt><trkpt lat="44.51824550615378" lon="6.745581888886368"><ele>1557.0</ele><time>2026-05-01T11:57:08.999Z</time></trkpt><trkpt lat="44.51813777308399" lon="6.745694841659998"><ele>1557.0</ele><time>2026-05-01T11:57:09.999Z</time></trkpt><trkpt lat="44.518064422666725" lon="6.745845959548518"><ele>1557.0</ele><time>2026-05-01T11:57:10.999Z</time></trkpt><trkpt lat="44.51795029290364" lon="6.7460146005678086"><ele>1550.6666666666665</ele><time>2026-05-01T11:57:11.999Z</time></trkpt><trkpt lat="44.517861542455734" lon="6.746200178190463"><ele>1544.3333333333333</ele><time>2026-05-01T11:57:12.999Z</time></trkpt><trkpt lat="44.51777527055447" lon="6.746387633961937"><ele>1538.0</ele><time>2026-05-01T11:57:13.999Z</time></trkpt><trkpt lat="44.51767851321898" lon="6.746587677827773"><ele>1538.0</ele><time>2026-05-01T11:57:14.999Z</time></trkpt><trkpt lat="44.51756859397976" lon="6.74679045511259"><ele>1538.0</ele><time>2026-05-01T11:57:15.999Z</time></trkpt><trkpt lat="44.51744831549501" lon="6.746996285823138"><ele>1538.0</ele><time>2026-05-01T11:57:16.999Z</time></trkpt><trkpt lat="44.51736867198581" lon="6.747207931531365"><ele>1538.0</ele><time>2026-05-01T11:57:17.999Z</time></trkpt><trkpt lat="44.51728445956385" lon="6.7474163248048615"><ele>1538.0</ele><time>2026-05-01T11:57:18.999Z</time></trkpt><trkpt lat="44.51721287950963" lon="6.747614659173004"><ele>1538.0</ele><time>2026-05-01T11:57:19.999Z</time></trkpt><trkpt lat="44.517157914809445" lon="6.747829680308081"><ele>1538.0</ele><time>2026-05-01T11:57:20.999Z</time></trkpt><trkpt lat="44.51711965318997" lon="6.748034093032116"><ele>1538.0</ele><time>2026-05-01T11:57:21.999Z</time></trkpt><trkpt lat="44.51708909744609" lon="6.748265567837702"><ele>1538.0</ele><time>2026-05-01T11:57:22.999Z</time></trkpt><trkpt lat="44.517064034996054" lon="6.748482646969734"><ele>1536.0</ele><time>2026-05-01T11:57:23.999Z</time></trkpt><trkpt lat="44.51708206007891" lon="6.7487096493368455"><ele>1534.0</ele><time>2026-05-01T11:57:24.999Z</time></trkpt><trkpt lat="44.51709819025436" lon="6.748932761185024"><ele>1532.0</ele><time>2026-05-01T11:57:25.999Z</time></trkpt><trkpt lat="44.51712325560043" lon="6.749163030666807"><ele>1529.0</ele><time>2026-05-01T11:57:26.999Z</time></trkpt><trkpt lat="44.5171456632136" lon="6.749403962005869"><ele>1526.0</ele><time>2026-05-01T11:57:27.999Z</time></trkpt><trkpt lat="44.51721368893026" lon="6.749626834770288"><ele>1523.0</ele><time>2026-05-01T11:57:28.999Z</time></trkpt><trkpt lat="44.51729134582807" lon="6.74986644993025"><ele>1523.0</ele><time>2026-05-01T11:57:29.999Z</time></trkpt><trkpt lat="44.51738543860826" lon="6.750097826620317"><ele>1523.0</ele><time>2026-05-01T11:57:30.999Z</time></trkpt><trkpt lat="44.51747609478348" lon="6.750350343629372"><ele>1523.0</ele><time>2026-05-01T11:57:31.999Z</time></trkpt><trkpt lat="44.517565486755636" lon="6.750581500046568"><ele>1518.6666666666667</ele><time>2026-05-01T11:57:32.999Z</time></trkpt><trkpt lat="44.51765802627301" lon="6.7508009864141805"><ele>1514.3333333333333</ele><time>2026-05-01T11:57:33.999Z</time></trkpt><trkpt lat="44.51774266881139" lon="6.751014370122369"><ele>1510.0</ele><time>2026-05-01T11:57:34.999Z</time></trkpt><trkpt lat="44.51783114912509" lon="6.751219596355866"><ele>1514.0</ele><time>2026-05-01T11:57:35.999Z</time></trkpt><trkpt lat="44.51791125176733" lon="6.751418357857432"><ele>1518.0</ele><time>2026-05-01T11:57:36.999Z</time></trkpt><trkpt lat="44.517991928182894" lon="6.751613709391352"><ele>1522.0</ele><time>2026-05-01T11:57:37.999Z</time></trkpt><trkpt lat="44.51801474644285" lon="6.751796420949155"><ele>1520.5</ele><time>2026-05-01T11:57:38.999Z</time></trkpt><trkpt lat="44.51801701507333" lon="6.751961488127498"><ele>1519.0</ele><time>2026-05-01T11:57:39.999Z</time></trkpt><trkpt lat="44.51803802997639" lon="6.752132775360083"><ele>1517.5</ele><time>2026-05-01T11:57:40.999Z</time></trkpt><trkpt lat="44.51801669834839" lon="6.752295017832685"><ele>1516.0</ele><time>2026-05-01T11:57:42Z</time></trkpt><trkpt lat="44.51799939304595" lon="6.752441529255603"><ele>1516.0</ele><time>2026-05-01T11:57:43Z</time></trkpt><trkpt lat="44.5179695133862" lon="6.752593168641192"><ele>1516.0</ele><time>2026-05-01T11:57:44Z</time></trkpt><trkpt lat="44.51792908563236" lon="6.752717180844216"><ele>1516.0</ele><time>2026-05-01T11:57:45Z</time></trkpt><trkpt lat="44.51782407553327" lon="6.752826343627309"><ele>1516.0</ele><time>2026-05-01T11:57:47Z</time></trkpt><trkpt lat="44.517733018088904" lon="6.752802509647845"><ele>1516.0</ele><time>2026-05-01T11:57:48Z</time></trkpt><trkpt lat="44.51763161980401" lon="6.752564287513429"><ele>1512.6</ele><time>2026-05-01T11:57:50Z</time></trkpt><trkpt lat="44.51762197055142" lon="6.752442716865223"><ele>1509.1999999999998</ele><time>2026-05-01T11:57:51Z</time></trkpt><trkpt lat="44.51762580739228" lon="6.752312819578683"><ele>1505.8000000000002</ele><time>2026-05-01T11:57:52Z</time></trkpt><trkpt lat="44.51763228892219" lon="6.752147325583349"><ele>1502.4</ele><time>2026-05-01T11:57:53Z</time></trkpt><trkpt lat="44.51760915798243" lon="6.751970785313232"><ele>1499.0</ele><time>2026-05-01T11:57:54Z</time></trkpt><trkpt lat="44.517589451702364" lon="6.7518087629205"><ele>1499.0</ele><time>2026-05-01T11:57:55Z</time></trkpt><trkpt lat="44.51755623114503" lon="6.7516333617570945"><ele>1499.0</ele><time>2026-05-01T11:57:56Z</time></trkpt><trkpt lat="44.51749391446308" lon="6.751486351559063"><ele>1499.0</ele><time>2026-05-01T11:57:57Z</time></trkpt><trkpt lat="44.51741850818593" lon="6.751358526953549"><ele>1499.0</ele><time>2026-05-01T11:57:58Z</time></trkpt><trkpt lat="44.5173117642775" lon="6.751221530104058"><ele>1499.0</ele><time>2026-05-01T11:57:59Z</time></trkpt><trkpt lat="44.51719319759893" lon="6.751149292017379"><ele>1499.0</ele><time>2026-05-01T11:58:00Z</time></trkpt><trkpt lat="44.51706326409021" lon="6.751078728470192"><ele>1499.0</ele><time>2026-05-01T11:58:01Z</time></trkpt><trkpt lat="44.51690978643707" lon="6.751033297901424"><ele>1499.0</ele><time>2026-05-01T11:58:02Z</time></trkpt><trkpt lat="44.51676871746875" lon="6.750987574166473"><ele>1496.75</ele><time>2026-05-01T11:58:03Z</time></trkpt><trkpt lat="44.516635487576565" lon="6.750960615260601"><ele>1494.5</ele><time>2026-05-01T11:58:04Z</time></trkpt><trkpt lat="44.51650688360621" lon="6.7509412092905565"><ele>1492.25</ele><time>2026-05-01T11:58:05Z</time></trkpt><trkpt lat="44.516376061572714" lon="6.750899959987194"><ele>1490.0</ele><time>2026-05-01T11:58:06Z</time></trkpt><trkpt lat="44.516236517187856" lon="6.750865080456477"><ele>1488.0</ele><time>2026-05-01T11:58:07Z</time></trkpt><trkpt lat="44.51610364789165" lon="6.7508270606622975"><ele>1486.0</ele><time>2026-05-01T11:58:08Z</time></trkpt><trkpt lat="44.515968711719765" lon="6.750797778160998"><ele>1484.0</ele><time>2026-05-01T11:58:09Z</time></trkpt><trkpt lat="44.515840405856316" lon="6.750732680929414"><ele>1482.0</ele><time>2026-05-01T11:58:10Z</time></trkpt><trkpt lat="44.51571457281016" lon="6.750637425488457"><ele>1482.0</ele><time>2026-05-01T11:58:11Z</time></trkpt><trkpt lat="44.51559485650451" lon="6.750537925100578"><ele>1482.0</ele><time>2026-05-01T11:58:12Z</time></trkpt><trkpt lat="44.51547719651761" lon="6.750424342979782"><ele>1482.0</ele><time>2026-05-01T11:58:13Z</time></trkpt><trkpt lat="44.51537669995425" lon="6.75031198142809"><ele>1482.0</ele><time>2026-05-01T11:58:14Z</time></trkpt><trkpt lat="44.51528543200498" lon="6.750215022332345"><ele>1480.75</ele><time>2026-05-01T11:58:15Z</time></trkpt><trkpt lat="44.515215063234464" lon="6.750074222395235"><ele>1479.5</ele><time>2026-05-01T11:58:16Z</time></trkpt><trkpt lat="44.51514107673163" lon="6.7499370222703705"><ele>1478.25</ele><time>2026-05-01T11:58:17Z</time></trkpt><trkpt lat="44.51508422301396" lon="6.749816722277482"><ele>1477.0</ele><time>2026-05-01T11:58:18Z</time></trkpt><trkpt lat="44.51502014571452" lon="6.749676983060672"><ele>1477.0</ele><time>2026-05-01T11:58:19Z</time></trkpt><trkpt lat="44.514953167066146" lon="6.749526868652031"><ele>1477.0</ele><time>2026-05-01T11:58:20Z</time></trkpt><trkpt lat="44.514888694036834" lon="6.749382833241475"><ele>1477.0</ele><time>2026-05-01T11:58:21Z</time></trkpt><trkpt lat="44.51481799555316" lon="6.749263863725127"><ele>1477.0</ele><time>2026-05-01T11:58:22Z</time></trkpt><trkpt lat="44.51479203146928" lon="6.749114382433766"><ele>1476.3999999999999</ele><time>2026-05-01T11:58:23Z</time></trkpt><trkpt lat="44.51474907115134" lon="6.749009699167691"><ele>1475.8</ele><time>2026-05-01T11:58:24Z</time></trkpt><trkpt lat="44.514706102259986" lon="6.748911745753418"><ele>1475.2</ele><time>2026-05-01T11:58:25Z</time></trkpt><trkpt lat="44.51466312106203" lon="6.748822408967345"><ele>1474.6</ele><time>2026-05-01T11:58:26Z</time></trkpt><trkpt lat="44.51461716661465" lon="6.748682959226897"><ele>1474.0</ele><time>2026-05-01T11:58:28Z</time></trkpt><trkpt lat="44.51455111858238" lon="6.748909037776596"><ele>1474.0</ele><time>2026-05-01T11:58:34Z</time></trkpt><trkpt lat="44.51457292660493" lon="6.749038830687319"><ele>1474.0</ele><time>2026-05-01T11:58:35Z</time></trkpt><trkpt lat="44.51462588374972" lon="6.749178619590625"><ele>1474.0</ele><time>2026-05-01T11:58:36Z</time></trkpt><trkpt lat="44.514672030836905" lon="6.74930845788013"><ele>1474.0</ele><time>2026-05-01T11:58:37Z</time></trkpt><trkpt lat="44.51470460845851" lon="6.749423479964471"><ele>1474.0</ele><time>2026-05-01T11:58:38Z</time></trkpt><trkpt lat="44.51472983754317" lon="6.7495432592290845"><ele>1474.5</ele><time>2026-05-01T11:58:39Z</time></trkpt><trkpt lat="44.51476335811495" lon="6.749646045221482"><ele>1475.0</ele><time>2026-05-01T11:58:40Z</time></trkpt><trkpt lat="44.5147789590158" lon="6.749738945308147"><ele>1475.5</ele><time>2026-05-01T11:58:41Z</time></trkpt><trkpt lat="44.51478920427988" lon="6.749832040181735"><ele>1476.0</ele><time>2026-05-01T11:58:42Z</time></trkpt><trkpt lat="44.51472878921162" lon="6.750006087020377"><ele>1476.5</ele><time>2026-05-01T11:58:44Z</time></trkpt><trkpt lat="44.51464466984231" lon="6.7500648890806065"><ele>1477.0</ele><time>2026-05-01T11:58:45Z</time></trkpt><trkpt lat="44.51459729287026" lon="6.750142219984218"><ele>1476.6666666666665</ele><time>2026-05-01T11:58:46Z</time></trkpt><trkpt lat="44.51455594349011" lon="6.750221973698059"><ele>1476.3333333333333</ele><time>2026-05-01T11:58:47Z</time></trkpt><trkpt lat="44.514525065232704" lon="6.750313922200564"><ele>1476.0</ele><time>2026-05-01T11:58:48Z</time></trkpt><trkpt lat="44.514535773073774" lon="6.750414198282589"><ele>1475.6666666666667</ele><time>2026-05-01T11:58:49Z</time></trkpt><trkpt lat="44.514571427032706" lon="6.750524649208936"><ele>1475.3333333333335</ele><time>2026-05-01T11:58:51Z</time></trkpt><trkpt lat="44.51460140140518" lon="6.750660049593032"><ele>1475.0</ele><time>2026-05-01T11:58:52Z</time></trkpt><trkpt lat="44.51463786118063" lon="6.750769874972221"><ele>1475.0</ele><time>2026-05-01T11:58:53Z</time></trkpt><trkpt lat="44.51467301467282" lon="6.750886034371008"><ele>1475.0</ele><time>2026-05-01T11:58:54Z</time></trkpt><trkpt lat="44.51468640384504" lon="6.7509834298609785"><ele>1475.0</ele><time>2026-05-01T11:58:55Z</time></trkpt><trkpt lat="44.51472358571624" lon="6.7511263388922504"><ele>1475.0</ele><time>2026-05-01T11:58:57Z</time></trkpt><trkpt lat="44.51474041481816" lon="6.751212307538707"><ele>1475.0</ele><time>2026-05-01T11:58:58Z</time></trkpt><trkpt lat="44.51476146634726" lon="6.751322315617207"><ele>1475.0</ele><time>2026-05-01T11:58:59Z</time></trkpt><trkpt lat="44.51478821612852" lon="6.751417376256281"><ele>1473.6</ele><time>2026-05-01T11:58:59.999Z</time></trkpt><trkpt lat="44.514829749315155" lon="6.751537558736044"><ele>1472.2</ele><time>2026-05-01T11:59:00.999Z</time></trkpt><trkpt lat="44.51488340264663" lon="6.751638891002736"><ele>1470.8000000000002</ele><time>2026-05-01T11:59:01.999Z</time></trkpt><trkpt lat="44.51493268630383" lon="6.751742196599364"><ele>1469.4</ele><time>2026-05-01T11:59:02.999Z</time></trkpt><trkpt lat="44.51499955921846" lon="6.751873808145626"><ele>1468.0</ele><time>2026-05-01T11:59:03.999Z</time></trkpt><trkpt lat="44.51506512047241" lon="6.751971019538689"><ele>1466.3333333333333</ele><time>2026-05-01T11:59:04.999Z</time></trkpt><trkpt lat="44.515142369072215" lon="6.752051126267434"><ele>1464.6666666666665</ele><time>2026-05-01T11:59:05.999Z</time></trkpt><trkpt lat="44.51516383253682" lon="6.752149140070704"><ele>1463.0</ele><time>2026-05-01T11:59:06.999Z</time></trkpt><trkpt lat="44.51519656878347" lon="6.752228180965094"><ele>1461.3333333333333</ele><time>2026-05-01T11:59:07.999Z</time></trkpt><trkpt lat="44.51521784569185" lon="6.752335596995302"><ele>1459.6666666666667</ele><time>2026-05-01T11:59:08.999Z</time></trkpt><trkpt lat="44.51526028017735" lon="6.752481088896839"><ele>1458.0</ele><time>2026-05-01T11:59:09.999Z</time></trkpt><trkpt lat="44.51528699173322" lon="6.752572661980883"><ele>1458.0</ele><time>2026-05-01T11:59:10.999Z</time></trkpt><trkpt lat="44.51531167114641" lon="6.7526572682860255"><ele>1458.0</ele><time>2026-05-01T11:59:11.999Z</time></trkpt><trkpt lat="44.51534387601016" lon="6.752767673690942"><ele>1458.0</ele><time>2026-05-01T11:59:12.999Z</time></trkpt><trkpt lat="44.515421138069925" lon="6.75302615145316"><ele>1458.0</ele><time>2026-05-01T11:59:14.999Z</time></trkpt><trkpt lat="44.51547953222967" lon="6.753141292470677"><ele>1458.3333333333333</ele><time>2026-05-01T11:59:15.999Z</time></trkpt><trkpt lat="44.51552009391809" lon="6.7532516572520205"><ele>1458.6666666666667</ele><time>2026-05-01T11:59:16.999Z</time></trkpt><trkpt lat="44.51555935486262" lon="6.753355801591266"><ele>1459.0</ele><time>2026-05-01T11:59:17.999Z</time></trkpt><trkpt lat="44.515580565666106" lon="6.753467456668503"><ele>1459.3333333333335</ele><time>2026-05-01T11:59:18.999Z</time></trkpt><trkpt lat="44.515605564880815" lon="6.753572196165499"><ele>1459.6666666666667</ele><time>2026-05-01T11:59:19.999Z</time></trkpt><trkpt lat="44.515635598675736" lon="6.7537124045661985"><ele>1460.0</ele><time>2026-05-01T11:59:20.999Z</time></trkpt><trkpt lat="44.5156566738781" lon="6.753814285023111"><ele>1460.0</ele><time>2026-05-01T11:59:21.999Z</time></trkpt><trkpt lat="44.515688147926966" lon="6.753936526584978"><ele>1460.0</ele><time>2026-05-01T11:59:22.999Z</time></trkpt><trkpt lat="44.515729796267095" lon="6.754049862127856"><ele>1460.0</ele><time>2026-05-01T11:59:23.999Z</time></trkpt><trkpt lat="44.515790562247844" lon="6.754146171257893"><ele>1460.0</ele><time>2026-05-01T11:59:24.999Z</time></trkpt><trkpt lat="44.51584584248463" lon="6.754190280684353"><ele>1460.0</ele><time>2026-05-01T11:59:25.999Z</time></trkpt><trkpt lat="44.51596077816459" lon="6.754278027509387"><ele>1460.0</ele><time>2026-05-01T11:59:27.999Z</time></trkpt><trkpt lat="44.51602036816829" lon="6.754347408058928"><ele>1460.0</ele><time>2026-05-01T11:59:28.999Z</time></trkpt><trkpt lat="44.51610188813578" lon="6.754416398918456"><ele>1460.0</ele><time>2026-05-01T11:59:29.999Z</time></trkpt><trkpt lat="44.51618992296802" lon="6.754473112165087"><ele>1460.0</ele><time>2026-05-01T11:59:30.999Z</time></trkpt><trkpt lat="44.516294043069045" lon="6.754538736062864"><ele>1460.0</ele><time>2026-05-01T11:59:31.999Z</time></trkpt><trkpt lat="44.5164004222413" lon="6.7546077621894005"><ele>1459.6</ele><time>2026-05-01T11:59:32.999Z</time></trkpt><trkpt lat="44.51648930656065" lon="6.754663359602772"><ele>1459.2</ele><time>2026-05-01T11:59:33.999Z</time></trkpt><trkpt lat="44.51657280926812" lon="6.754734901410557"><ele>1458.8000000000002</ele><time>2026-05-01T11:59:34.999Z</time></trkpt><trkpt lat="44.516650218617514" lon="6.7547949420136675"><ele>1458.4</ele><time>2026-05-01T11:59:35.999Z</time></trkpt><trkpt lat="44.51672899327647" lon="6.754882611251953"><ele>1458.0</ele><time>2026-05-01T11:59:36.999Z</time></trkpt><trkpt lat="44.51677503233134" lon="6.75500879349578"><ele>1458.0</ele><time>2026-05-01T11:59:37.999Z</time></trkpt><trkpt lat="44.51679048971472" lon="6.755132376768385"><ele>1458.0</ele><time>2026-05-01T11:59:38.999Z</time></trkpt><trkpt lat="44.51672259016134" lon="6.755283015223481"><ele>1458.0</ele><time>2026-05-01T11:59:39.999Z</time></trkpt><trkpt lat="44.51670221401658" lon="6.755433656123502"><ele>1458.0</ele><time>2026-05-01T11:59:40.999Z</time></trkpt><trkpt lat="44.51669009234609" lon="6.7555880579683425"><ele>1458.0</ele><time>2026-05-01T11:59:41.999Z</time></trkpt><trkpt lat="44.51668782309334" lon="6.7557345767848345"><ele>1457.8000000000002</ele><time>2026-05-01T11:59:42.999Z</time></trkpt><trkpt lat="44.51670510991695" lon="6.7558848206086255"><ele>1457.6</ele><time>2026-05-01T11:59:43.999Z</time></trkpt><trkpt lat="44.516749236796535" lon="6.756022390525843"><ele>1457.4</ele><time>2026-05-01T11:59:44.999Z</time></trkpt><trkpt lat="44.51679426564927" lon="6.7561584508637695"><ele>1457.1999999999998</ele><time>2026-05-01T11:59:45.999Z</time></trkpt><trkpt lat="44.51685871738592" lon="6.7562893152795755"><ele>1457.0</ele><time>2026-05-01T11:59:46.999Z</time></trkpt><trkpt lat="44.516967966713665" lon="6.7564200824136735"><ele>1457.75</ele><time>2026-05-01T11:59:48Z</time></trkpt><trkpt lat="44.51701994350643" lon="6.756558505190385"><ele>1458.5</ele><time>2026-05-01T11:59:49Z</time></trkpt><trkpt lat="44.51709152536582" lon="6.7566986699686336"><ele>1459.25</ele><time>2026-05-01T11:59:50Z</time></trkpt><trkpt lat="44.51716797189178" lon="6.756849329919429"><ele>1460.0</ele><time>2026-05-01T11:59:51Z</time></trkpt><trkpt lat="44.5172114813735" lon="6.7570073601883625"><ele>1460.0</ele><time>2026-05-01T11:59:52Z</time></trkpt><trkpt lat="44.517272265606586" lon="6.75713106085422"><ele>1460.0</ele><time>2026-05-01T11:59:53Z</time></trkpt><trkpt lat="44.517339197678155" lon="6.757252659840129"><ele>1460.0</ele><time>2026-05-01T11:59:54Z</time></trkpt><trkpt lat="44.51741916932106" lon="6.757351841405941"><ele>1460.0</ele><time>2026-05-01T11:59:55Z</time></trkpt><trkpt lat="44.51749224091339" lon="6.757445692640075"><ele>1460.0</ele><time>2026-05-01T11:59:56Z</time></trkpt><trkpt lat="44.51757247104246" lon="6.7575518378246935"><ele>1460.0</ele><time>2026-05-01T11:59:57Z</time></trkpt><trkpt lat="44.517659318741686" lon="6.757658416220657"><ele>1460.0</ele><time>2026-05-01T11:59:58Z</time></trkpt><trkpt lat="44.517754612162655" lon="6.757755683944943"><ele>1460.0</ele><time>2026-05-01T11:59:59Z</time></trkpt><trkpt lat="44.51784933857828" lon="6.757856912326608"><ele>1460.0</ele><time>2026-05-01T12:00:00Z</time></trkpt><trkpt lat="44.51794850475205" lon="6.757948242629253"><ele>1461.5</ele><time>2026-05-01T12:00:01Z</time></trkpt><trkpt lat="44.51805367944031" lon="6.758029437394465"><ele>1463.0</ele><time>2026-05-01T12:00:02Z</time></trkpt><trkpt lat="44.51814337105858" lon="6.758115425098909"><ele>1464.5</ele><time>2026-05-01T12:00:03Z</time></trkpt><trkpt lat="44.518242345667076" lon="6.758201266769327"><ele>1466.0</ele><time>2026-05-01T12:00:04Z</time></trkpt><trkpt lat="44.518340021092136" lon="6.758278112361665"><ele>1466.0</ele><time>2026-05-01T12:00:05Z</time></trkpt><trkpt lat="44.51845197355739" lon="6.758323121904607"><ele>1466.0</ele><time>2026-05-01T12:00:06Z</time></trkpt><trkpt lat="44.51856279493335" lon="6.758360631445279"><ele>1466.0</ele><time>2026-05-01T12:00:07Z</time></trkpt><trkpt lat="44.51867731638159" lon="6.75839948584226"><ele>1466.0</ele><time>2026-05-01T12:00:08Z</time></trkpt><trkpt lat="44.51880690489197" lon="6.7584460600550065"><ele>1466.5</ele><time>2026-05-01T12:00:09Z</time></trkpt><trkpt lat="44.518955934106934" lon="6.758511740356897"><ele>1467.0</ele><time>2026-05-01T12:00:10Z</time></trkpt><trkpt lat="44.51908562965608" lon="6.758590791722683"><ele>1467.5</ele><time>2026-05-01T12:00:11Z</time></trkpt><trkpt lat="44.519186978810495" lon="6.758668226258484"><ele>1468.0</ele><time>2026-05-01T12:00:12Z</time></trkpt><trkpt lat="44.51926790301048" lon="6.758760527908271"><ele>1468.0</ele><time>2026-05-01T12:00:13Z</time></trkpt><trkpt lat="44.51935579805045" lon="6.758904194308278"><ele>1468.0</ele><time>2026-05-01T12:00:14Z</time></trkpt><trkpt lat="44.519429430803896" lon="6.758994950590984"><ele>1468.0</ele><time>2026-05-01T12:00:15Z</time></trkpt><trkpt lat="44.51951234577328" lon="6.759101699624504"><ele>1468.0</ele><time>2026-05-01T12:00:16Z</time></trkpt><trkpt lat="44.51961259965497" lon="6.759207793066145"><ele>1468.6666666666665</ele><time>2026-05-01T12:00:17Z</time></trkpt><trkpt lat="44.51970758965886" lon="6.7593413843120755"><ele>1469.3333333333333</ele><time>2026-05-01T12:00:18Z</time></trkpt><trkpt lat="44.519810945647826" lon="6.759493322744737"><ele>1470.0</ele><time>2026-05-01T12:00:19Z</time></trkpt><trkpt lat="44.5199286850521" lon="6.759656353201884"><ele>1470.0</ele><time>2026-05-01T12:00:20Z</time></trkpt><trkpt lat="44.52004205572715" lon="6.759823532504142"><ele>1470.0</ele><time>2026-05-01T12:00:21Z</time></trkpt><trkpt lat="44.52014967454108" lon="6.7599659825051015"><ele>1470.0</ele><time>2026-05-01T12:00:22Z</time></trkpt><trkpt lat="44.52022715178746" lon="6.760126533223779"><ele>1467.25</ele><time>2026-05-01T12:00:23Z</time></trkpt><trkpt lat="44.52032829372725" lon="6.7602767455824"><ele>1464.5</ele><time>2026-05-01T12:00:24Z</time></trkpt><trkpt lat="44.520427091477785" lon="6.760423790638328"><ele>1461.75</ele><time>2026-05-01T12:00:25Z</time></trkpt><trkpt lat="44.52051824719611" lon="6.760578758985697"><ele>1459.0</ele><time>2026-05-01T12:00:26Z</time></trkpt><trkpt lat="44.5206001558236" lon="6.760745092816762"><ele>1461.5</ele><time>2026-05-01T12:00:27Z</time></trkpt><trkpt lat="44.52066563702273" lon="6.760918071257385"><ele>1464.0</ele><time>2026-05-01T12:00:28Z</time></trkpt><trkpt lat="44.52073417283179" lon="6.761073013903895"><ele>1466.5</ele><time>2026-05-01T12:00:29Z</time></trkpt><trkpt lat="44.520805299314276" lon="6.761206626671427"><ele>1469.0</ele><time>2026-05-01T12:00:30Z</time></trkpt><trkpt lat="44.52088089709459" lon="6.7613374651674"><ele>1469.0</ele><time>2026-05-01T12:00:31Z</time></trkpt><trkpt lat="44.52095581292855" lon="6.761457522687646"><ele>1469.0</ele><time>2026-05-01T12:00:32Z</time></trkpt><trkpt lat="44.521038103167626" lon="6.761575994147182"><ele>1469.0</ele><time>2026-05-01T12:00:33Z</time></trkpt><trkpt lat="44.521116436758355" lon="6.761657159404894"><ele>1469.0</ele><time>2026-05-01T12:00:34Z</time></trkpt><trkpt lat="44.52120719269786" lon="6.761723169086144"><ele>1469.0</ele><time>2026-05-01T12:00:35Z</time></trkpt><trkpt lat="44.521273903872824" lon="6.761781277998261"><ele>1471.0</ele><time>2026-05-01T12:00:36Z</time></trkpt><trkpt lat="44.52134542900411" lon="6.761849481045936"><ele>1473.0</ele><time>2026-05-01T12:00:37Z</time></trkpt><trkpt lat="44.521388746147665" lon="6.76195592454361"><ele>1475.0</ele><time>2026-05-01T12:00:38Z</time></trkpt><trkpt lat="44.52139252584797" lon="6.762069923940882"><ele>1477.0</ele><time>2026-05-01T12:00:39Z</time></trkpt><trkpt lat="44.5214017972179" lon="6.7622006408166895"><ele>1479.0</ele><time>2026-05-01T12:00:40Z</time></trkpt><trkpt lat="44.52143848440871" lon="6.7623334570107"><ele>1479.0</ele><time>2026-05-01T12:00:41Z</time></trkpt><trkpt lat="44.521493977324425" lon="6.7624708488348295"><ele>1479.0</ele><time>2026-05-01T12:00:42Z</time></trkpt><trkpt lat="44.52156473895477" lon="6.762608746595801"><ele>1479.0</ele><time>2026-05-01T12:00:43Z</time></trkpt><trkpt lat="44.5216410759794" lon="6.762754722330757"><ele>1479.0</ele><time>2026-05-01T12:00:44Z</time></trkpt><trkpt lat="44.52171097985085" lon="6.76292568611753"><ele>1476.4</ele><time>2026-05-01T12:00:45Z</time></trkpt><trkpt lat="44.52176903691037" lon="6.763078173395536"><ele>1473.8000000000002</ele><time>2026-05-01T12:00:46Z</time></trkpt><trkpt lat="44.521844443393555" lon="6.763198923203311"><ele>1471.1999999999998</ele><time>2026-05-01T12:00:47Z</time></trkpt><trkpt lat="44.52191447954573" lon="6.763293316357066"><ele>1468.6</ele><time>2026-05-01T12:00:48Z</time></trkpt><trkpt lat="44.521993125685086" lon="6.763297046175715"><ele>1466.0</ele><time>2026-05-01T12:00:49Z</time></trkpt><trkpt lat="44.52206466648516" lon="6.763326907324878"><ele>1468.6</ele><time>2026-05-01T12:00:50Z</time></trkpt><trkpt lat="44.52216972574066" lon="6.763352929292417"><ele>1471.1999999999998</ele><time>2026-05-01T12:00:51Z</time></trkpt><trkpt lat="44.52224370147833" lon="6.763429709114423"><ele>1473.8000000000002</ele><time>2026-05-01T12:00:52Z</time></trkpt><trkpt lat="44.5223155866048" lon="6.763561378545499"><ele>1476.4</ele><time>2026-05-01T12:00:52.999Z</time></trkpt><trkpt lat="44.52231942775873" lon="6.763697288239209"><ele>1479.0</ele><time>2026-05-01T12:00:53.999Z</time></trkpt><trkpt lat="44.522352782475956" lon="6.763819780649058"><ele>1479.0</ele><time>2026-05-01T12:00:54.999Z</time></trkpt><trkpt lat="44.52240334237481" lon="6.763926192104767"><ele>1479.0</ele><time>2026-05-01T12:00:55.999Z</time></trkpt><trkpt lat="44.52247134390663" lon="6.763999513487017"><ele>1479.0</ele><time>2026-05-01T12:00:56.999Z</time></trkpt><trkpt lat="44.52255228766397" lon="6.7640797586694354"><ele>1479.0</ele><time>2026-05-01T12:00:57.999Z</time></trkpt><trkpt lat="44.52264532948794" lon="6.764154335558611"><ele>1479.0</ele><time>2026-05-01T12:00:58.999Z</time></trkpt><trkpt lat="44.522771319235126" lon="6.764195785588877"><ele>1479.0</ele><time>2026-05-01T12:00:59.999Z</time></trkpt><trkpt lat="44.52284588049939" lon="6.764275121989968"><ele>1479.0</ele><time>2026-05-01T12:01:00.999Z</time></trkpt><trkpt lat="44.52292092228565" lon="6.764400015646396"><ele>1479.0</ele><time>2026-05-01T12:01:01.999Z</time></trkpt><trkpt lat="44.522953517583574" lon="6.764528270940747"><ele>1479.0</ele><time>2026-05-01T12:01:02.999Z</time></trkpt><trkpt lat="44.523013267377024" lon="6.764629022008217"><ele>1479.0</ele><time>2026-05-01T12:01:03.999Z</time></trkpt><trkpt lat="44.52307199415647" lon="6.764711800382098"><ele>1480.3333333333333</ele><time>2026-05-01T12:01:04.999Z</time></trkpt><trkpt lat="44.523133679244786" lon="6.764792824033475"><ele>1481.6666666666667</ele><time>2026-05-01T12:01:05.999Z</time></trkpt><trkpt lat="44.52320381300912" lon="6.764849367432274"><ele>1483.0</ele><time>2026-05-01T12:01:06.999Z</time></trkpt><trkpt lat="44.52326647450209" lon="6.764942634053128"><ele>1484.3333333333335</ele><time>2026-05-01T12:01:07.999Z</time></trkpt><trkpt lat="44.52335166066281" lon="6.7650019337207805"><ele>1485.6666666666667</ele><time>2026-05-01T12:01:08.999Z</time></trkpt><trkpt lat="44.523433590672916" lon="6.765057986401805"><ele>1487.0</ele><time>2026-05-01T12:01:09.999Z</time></trkpt><trkpt lat="44.52354484736246" lon="6.765109725547093"><ele>1487.0</ele><time>2026-05-01T12:01:10.999Z</time></trkpt><trkpt lat="44.52360476435853" lon="6.765189991445874"><ele>1487.0</ele><time>2026-05-01T12:01:11.999Z</time></trkpt><trkpt lat="44.523648384424405" lon="6.7652827370599535"><ele>1487.0</ele><time>2026-05-01T12:01:12.999Z</time></trkpt><trkpt lat="44.52369307074652" lon="6.765408304225233"><ele>1487.0</ele><time>2026-05-01T12:01:13.999Z</time></trkpt><trkpt lat="44.523738710016744" lon="6.765545590531021"><ele>1487.0</ele><time>2026-05-01T12:01:14.999Z</time></trkpt><trkpt lat="44.52379719675104" lon="6.765723716730198"><ele>1486.6</ele><time>2026-05-01T12:01:15.999Z</time></trkpt><trkpt lat="44.52384026304871" lon="6.765861077448435"><ele>1486.1999999999998</ele><time>2026-05-01T12:01:16.999Z</time></trkpt><trkpt lat="44.523878599580016" lon="6.765994284179831"><ele>1485.8</ele><time>2026-05-01T12:01:17.999Z</time></trkpt><trkpt lat="44.523920510489454" lon="6.766137563289727"><ele>1485.4</ele><time>2026-05-01T12:01:18.999Z</time></trkpt><trkpt lat="44.52398169899411" lon="6.766260584430948"><ele>1485.0</ele><time>2026-05-01T12:01:19.999Z</time></trkpt><trkpt lat="44.524027843770966" lon="6.766393239225032"><ele>1485.0</ele><time>2026-05-01T12:01:20.999Z</time></trkpt><trkpt lat="44.52409817058405" lon="6.766532766716898"><ele>1485.0</ele><time>2026-05-01T12:01:21.999Z</time></trkpt><trkpt lat="44.52416694915999" lon="6.766639388641497"><ele>1485.0</ele><time>2026-05-01T12:01:22.999Z</time></trkpt><trkpt lat="44.52426963688382" lon="6.766717315134309"><ele>1485.0</ele><time>2026-05-01T12:01:23.999Z</time></trkpt><trkpt lat="44.52436966318202" lon="6.766823441464481"><ele>1481.25</ele><time>2026-05-01T12:01:24.999Z</time></trkpt><trkpt lat="44.5244776448004" lon="6.766943865563787"><ele>1477.5</ele><time>2026-05-01T12:01:25.999Z</time></trkpt><trkpt lat="44.52456612219901" lon="6.767085760211153"><ele>1473.75</ele><time>2026-05-01T12:01:26.999Z</time></trkpt><trkpt lat="44.52469218044987" lon="6.767189750935083"><ele>1470.0</ele><time>2026-05-01T12:01:27.999Z</time></trkpt><trkpt lat="44.52480554562701" lon="6.767323100299916"><ele>1474.0</ele><time>2026-05-01T12:01:28.999Z</time></trkpt><trkpt lat="44.52489705261753" lon="6.767437324789097"><ele>1478.0</ele><time>2026-05-01T12:01:29.999Z</time></trkpt><trkpt lat="44.52495952527137" lon="6.767600627073101"><ele>1482.0</ele><time>2026-05-01T12:01:30.999Z</time></trkpt><trkpt lat="44.525033964072186" lon="6.76777669969479"><ele>1486.0</ele><time>2026-05-01T12:01:31.999Z</time></trkpt><trkpt lat="44.52511365385012" lon="6.767925166196944"><ele>1486.0</ele><time>2026-05-01T12:01:32.999Z</time></trkpt><trkpt lat="44.52517995304675" lon="6.768052973953219"><ele>1486.0</ele><time>2026-05-01T12:01:33.999Z</time></trkpt><trkpt lat="44.52525892996885" lon="6.768178484133901"><ele>1486.0</ele><time>2026-05-01T12:01:34.999Z</time></trkpt><trkpt lat="44.52534244031475" lon="6.768280426399043"><ele>1486.0</ele><time>2026-05-01T12:01:35.999Z</time></trkpt><trkpt lat="44.52539766254351" lon="6.768416437241026"><ele>1488.6666666666665</ele><time>2026-05-01T12:01:36.999Z</time></trkpt><trkpt lat="44.52546348022138" lon="6.768534410168204"><ele>1491.3333333333333</ele><time>2026-05-01T12:01:37.999Z</time></trkpt><trkpt lat="44.52554043135244" lon="6.768659546870988"><ele>1494.0</ele><time>2026-05-01T12:01:38.999Z</time></trkpt><trkpt lat="44.52558957299668" lon="6.768747824119168"><ele>1496.6666666666667</ele><time>2026-05-01T12:01:39.999Z</time></trkpt><trkpt lat="44.5256313281577" lon="6.768837224875068"><ele>1499.3333333333335</ele><time>2026-05-01T12:01:40.999Z</time></trkpt><trkpt lat="44.52565030029403" lon="6.768929724350268"><ele>1502.0</ele><time>2026-05-01T12:01:41.999Z</time></trkpt><trkpt lat="44.52563914823362" lon="6.769020634077628"><ele>1502.0</ele><time>2026-05-01T12:01:42.999Z</time></trkpt><trkpt lat="44.52559490875538" lon="6.769143599134651"><ele>1502.0</ele><time>2026-05-01T12:01:43.999Z</time></trkpt><trkpt lat="44.52559227026807" lon="6.769238449508389"><ele>1502.0</ele><time>2026-05-01T12:01:44.999Z</time></trkpt><trkpt lat="44.52561115769496" lon="6.769348136145481"><ele>1502.0</ele><time>2026-05-01T12:01:45.999Z</time></trkpt><trkpt lat="44.5256223002513" lon="6.769439134141684"><ele>1502.0</ele><time>2026-05-01T12:01:46.999Z</time></trkpt><trkpt lat="44.52566003796817" lon="6.769539971632305"><ele>1502.0</ele><time>2026-05-01T12:01:47.999Z</time></trkpt><trkpt lat="44.52574385428841" lon="6.769601037667519"><ele>1500.25</ele><time>2026-05-01T12:01:48.999Z</time></trkpt><trkpt lat="44.52582226289878" lon="6.7697022907756805"><ele>1498.5</ele><time>2026-05-01T12:01:49.999Z</time></trkpt><trkpt lat="44.5259393793182" lon="6.769850895300511"><ele>1496.75</ele><time>2026-05-01T12:01:50.999Z</time></trkpt><trkpt lat="44.526043620071604" lon="6.769989576466562"><ele>1495.0</ele><time>2026-05-01T12:01:51.999Z</time></trkpt><trkpt lat="44.52612619354164" lon="6.770127326188668"><ele>1493.25</ele><time>2026-05-01T12:01:52.999Z</time></trkpt><trkpt lat="44.52621992682452" lon="6.770248698907662"><ele>1491.5</ele><time>2026-05-01T12:01:54Z</time></trkpt><trkpt lat="44.526309358834794" lon="6.770387010622831"><ele>1489.75</ele><time>2026-05-01T12:01:55Z</time></trkpt><trkpt lat="44.52638148552158" lon="6.770527682619189"><ele>1488.0</ele><time>2026-05-01T12:01:56Z</time></trkpt><trkpt lat="44.52642676181276" lon="6.770696181495191"><ele>1490.6000000000001</ele><time>2026-05-01T12:01:57Z</time></trkpt><trkpt lat="44.52644600848055" lon="6.770832727752245"><ele>1493.2</ele><time>2026-05-01T12:01:58Z</time></trkpt><trkpt lat="44.526481618269194" lon="6.770975156072861"><ele>1495.8</ele><time>2026-05-01T12:01:59Z</time></trkpt><trkpt lat="44.526535656385924" lon="6.77109282122134"><ele>1498.4</ele><time>2026-05-01T12:02:00Z</time></trkpt><trkpt lat="44.52657833311516" lon="6.771220765802101"><ele>1501.0</ele><time>2026-05-01T12:02:01Z</time></trkpt><trkpt lat="44.52662537538488" lon="6.7712841156837555"><ele>1501.0</ele><time>2026-05-01T12:02:02Z</time></trkpt><trkpt lat="44.526672539627064" lon="6.771367654502269"><ele>1501.0</ele><time>2026-05-01T12:02:03Z</time></trkpt><trkpt lat="44.52673921525555" lon="6.771429689710075"><ele>1501.0</ele><time>2026-05-01T12:02:04Z</time></trkpt><trkpt lat="44.52680832934503" lon="6.7714519606488155"><ele>1501.0</ele><time>2026-05-01T12:02:05Z</time></trkpt><trkpt lat="44.526922945077516" lon="6.771484214689904"><ele>1501.0</ele><time>2026-05-01T12:02:06Z</time></trkpt><trkpt lat="44.527076892926004" lon="6.771520517864795"><ele>1503.4</ele><time>2026-05-01T12:02:07Z</time></trkpt><trkpt lat="44.527207606278544" lon="6.771561092487221"><ele>1505.8</ele><time>2026-05-01T12:02:08Z</time></trkpt><trkpt lat="44.527304295614975" lon="6.77156774433903"><ele>1508.2</ele><time>2026-05-01T12:02:09Z</time></trkpt><trkpt lat="44.52740678882147" lon="6.771580496855656"><ele>1510.6000000000001</ele><time>2026-05-01T12:02:10Z</time></trkpt><trkpt lat="44.52747880665018" lon="6.771622555980641"><ele>1513.0</ele><time>2026-05-01T12:02:11Z</time></trkpt><trkpt lat="44.527549105970486" lon="6.771699608341629"><ele>1513.0</ele><time>2026-05-01T12:02:12Z</time></trkpt><trkpt lat="44.52762098243701" lon="6.771820414932576"><ele>1513.0</ele><time>2026-05-01T12:02:13Z</time></trkpt><trkpt lat="44.52765838340158" lon="6.771945154928112"><ele>1513.0</ele><time>2026-05-01T12:02:14Z</time></trkpt><trkpt lat="44.52767532599024" lon="6.77206536744848"><ele>1513.0</ele><time>2026-05-01T12:02:15Z</time></trkpt><trkpt lat="44.52769280851311" lon="6.772184640645662"><ele>1513.0</ele><time>2026-05-01T12:02:16Z</time></trkpt><trkpt lat="44.52769554353058" lon="6.772305540355767"><ele>1513.4</ele><time>2026-05-01T12:02:17Z</time></trkpt><trkpt lat="44.52772561741835" lon="6.772412059498623"><ele>1513.8000000000002</ele><time>2026-05-01T12:02:18Z</time></trkpt><trkpt lat="44.527745292259304" lon="6.77252999934052"><ele>1514.2</ele><time>2026-05-01T12:02:19Z</time></trkpt><trkpt lat="44.52782563081245" lon="6.772668490900997"><ele>1514.6</ele><time>2026-05-01T12:02:21Z</time></trkpt><trkpt lat="44.52785440531476" lon="6.772767408816501"><ele>1515.0</ele><time>2026-05-01T12:02:22Z</time></trkpt><trkpt lat="44.52790649480988" lon="6.7728769827859105"><ele>1515.0</ele><time>2026-05-01T12:02:23Z</time></trkpt><trkpt lat="44.52797007347325" lon="6.77299019153127"><ele>1515.0</ele><time>2026-05-01T12:02:24Z</time></trkpt><trkpt lat="44.52802483455401" lon="6.7730922302432575"><ele>1515.0</ele><time>2026-05-01T12:02:25Z</time></trkpt><trkpt lat="44.52808231179871" lon="6.773187199489176"><ele>1515.0</ele><time>2026-05-01T12:02:26Z</time></trkpt><trkpt lat="44.52813828692436" lon="6.773269996863073"><ele>1515.0</ele><time>2026-05-01T12:02:27Z</time></trkpt><trkpt lat="44.52818413378536" lon="6.773338849126659"><ele>1515.0</ele><time>2026-05-01T12:02:28Z</time></trkpt><trkpt lat="44.52824071872083" lon="6.773417828808862"><ele>1515.0</ele><time>2026-05-01T12:02:29Z</time></trkpt><trkpt lat="44.528292275153234" lon="6.773491072013352"><ele>1515.0</ele><time>2026-05-01T12:02:30Z</time></trkpt><trkpt lat="44.52834639450029" lon="6.77355928878991"><ele>1515.0</ele><time>2026-05-01T12:02:31Z</time></trkpt><trkpt lat="44.52845474069861" lon="6.773684255287934"><ele>1515.0</ele><time>2026-05-01T12:02:33Z</time></trkpt><trkpt lat="44.52852913413789" lon="6.773736921561109"><ele>1515.0</ele><time>2026-05-01T12:02:34Z</time></trkpt><trkpt lat="44.52857128626177" lon="6.773817702159135"><ele>1515.0</ele><time>2026-05-01T12:02:35Z</time></trkpt><trkpt lat="44.52863529868903" lon="6.7739201299631935"><ele>1515.3333333333333</ele><time>2026-05-01T12:02:36Z</time></trkpt><trkpt lat="44.528690149949135" lon="6.774054060726334"><ele>1515.6666666666667</ele><time>2026-05-01T12:02:37Z</time></trkpt><trkpt lat="44.528739663791946" lon="6.774160920787307"><ele>1516.0</ele><time>2026-05-01T12:02:38Z</time></trkpt><trkpt lat="44.52878173580966" lon="6.774254076441698"><ele>1516.3333333333335</ele><time>2026-05-01T12:02:39Z</time></trkpt><trkpt lat="44.52881595988035" lon="6.774331832671677"><ele>1516.6666666666667</ele><time>2026-05-01T12:02:40Z</time></trkpt><trkpt lat="44.52885878382239" lon="6.774438464875762"><ele>1517.0</ele><time>2026-05-01T12:02:41Z</time></trkpt><trkpt lat="44.528892416811225" lon="6.7745299998586255"><ele>1517.0</ele><time>2026-05-01T12:02:42Z</time></trkpt><trkpt lat="44.528923788211976" lon="6.774632838791505"><ele>1517.0</ele><time>2026-05-01T12:02:43Z</time></trkpt><trkpt lat="44.52895424437997" lon="6.774737276182623"><ele>1517.0</ele><time>2026-05-01T12:02:44Z</time></trkpt><trkpt lat="44.529005645584114" lon="6.7748514430939535"><ele>1517.0</ele><time>2026-05-01T12:02:45Z</time></trkpt><trkpt lat="44.52903318303362" lon="6.774960904365449"><ele>1517.0</ele><time>2026-05-01T12:02:46Z</time></trkpt><trkpt lat="44.529076576541684" lon="6.775061418873814"><ele>1517.0</ele><time>2026-05-01T12:02:47Z</time></trkpt><trkpt lat="44.52911868708873" lon="6.775147246865849"><ele>1517.3333333333335</ele><time>2026-05-01T12:02:48Z</time></trkpt><trkpt lat="44.529179581293114" lon="6.775204010889358"><ele>1517.6666666666667</ele><time>2026-05-01T12:02:49Z</time></trkpt><trkpt lat="44.529257791305554" lon="6.775233050823857"><ele>1518.0</ele><time>2026-05-01T12:02:50Z</time></trkpt><trkpt lat="44.52934068479487" lon="6.775266133384559"><ele>1518.3333333333333</ele><time>2026-05-01T12:02:51Z</time></trkpt><trkpt lat="44.52943622470743" lon="6.775341541487602"><ele>1518.6666666666665</ele><time>2026-05-01T12:02:52Z</time></trkpt><trkpt lat="44.52952277607372" lon="6.7753828129076235"><ele>1519.0</ele><time>2026-05-01T12:02:53Z</time></trkpt><trkpt lat="44.52960393006547" lon="6.775416520398365"><ele>1519.0</ele><time>2026-05-01T12:02:54Z</time></trkpt><trkpt lat="44.529700821177315" lon="6.775417576717374"><ele>1519.0</ele><time>2026-05-01T12:02:55Z</time></trkpt><trkpt lat="44.52979096599548" lon="6.775425246944471"><ele>1519.0</ele><time>2026-05-01T12:02:56Z</time></trkpt><trkpt lat="44.52989755843933" lon="6.775411793623401"><ele>1519.0</ele><time>2026-05-01T12:02:57Z</time></trkpt><trkpt lat="44.52997692731743" lon="6.775400387404053"><ele>1519.0</ele><time>2026-05-01T12:02:58Z</time></trkpt><trkpt lat="44.53004799919876" lon="6.7754024702062505"><ele>1519.0</ele><time>2026-05-01T12:02:59Z</time></trkpt><trkpt lat="44.53012550475722" lon="6.775399507291515"><ele>1519.0</ele><time>2026-05-01T12:03:00Z</time></trkpt><trkpt lat="44.53021404395337" lon="6.775405900020767"><ele>1519.0</ele><time>2026-05-01T12:03:01Z</time></trkpt><trkpt lat="44.530299572842694" lon="6.7753872623562"><ele>1519.0</ele><time>2026-05-01T12:03:02Z</time></trkpt><trkpt lat="44.53039479019553" lon="6.775350752267464"><ele>1519.0</ele><time>2026-05-01T12:03:03Z</time></trkpt><trkpt lat="44.53045566037898" lon="6.775296611900541"><ele>1519.0</ele><time>2026-05-01T12:03:05Z</time></trkpt><trkpt lat="44.530544807723345" lon="6.775359681893278"><ele>1519.0</ele><time>2026-05-01T12:03:07Z</time></trkpt><trkpt lat="44.53059493423464" lon="6.775416038180619"><ele>1521.5</ele><time>2026-05-01T12:03:08Z</time></trkpt><trkpt lat="44.53061687693362" lon="6.7755106058462164"><ele>1524.0</ele><time>2026-05-01T12:03:09Z</time></trkpt><trkpt lat="44.53064122075594" lon="6.775597931933485"><ele>1526.5</ele><time>2026-05-01T12:03:10Z</time></trkpt><trkpt lat="44.53067134607426" lon="6.775682473403983"><ele>1529.0</ele><time>2026-05-01T12:03:11Z</time></trkpt><trkpt lat="44.53058818866461" lon="6.775807015193234"><ele>1531.5</ele><time>2026-05-01T12:03:13Z</time></trkpt><trkpt lat="44.53049091330094" lon="6.775905437555565"><ele>1534.0</ele><time>2026-05-01T12:03:15Z</time></trkpt><trkpt lat="44.53040364222997" lon="6.7760833130428"><ele>1534.0</ele><time>2026-05-01T12:03:17Z</time></trkpt><trkpt lat="44.53040248191106" lon="6.776174263870649"><ele>1534.0</ele><time>2026-05-01T12:03:18Z</time></trkpt><trkpt lat="44.530445847840774" lon="6.776247306221758"><ele>1534.0</ele><time>2026-05-01T12:03:19Z</time></trkpt><trkpt lat="44.53048136425417" lon="6.776396812750362"><ele>1534.0</ele><time>2026-05-01T12:03:20Z</time></trkpt><trkpt lat="44.53053345113379" lon="6.776482500818902"><ele>1534.0</ele><time>2026-05-01T12:03:21Z</time></trkpt><trkpt lat="44.530569857397396" lon="6.776557041985171"><ele>1534.0</ele><time>2026-05-01T12:03:22Z</time></trkpt><trkpt lat="44.53061845901749" lon="6.776627500251213"><ele>1534.0</ele><time>2026-05-01T12:03:23Z</time></trkpt><trkpt lat="44.530664200038224" lon="6.776715294410093"><ele>1534.0</ele><time>2026-05-01T12:03:24Z</time></trkpt><trkpt lat="44.53071246522266" lon="6.776786734945793"><ele>1534.0</ele><time>2026-05-01T12:03:25Z</time></trkpt><trkpt lat="44.53075990892999" lon="6.7768518771465285"><ele>1534.0</ele><time>2026-05-01T12:03:26Z</time></trkpt><trkpt lat="44.53080593415516" lon="6.776921583300882"><ele>1534.0</ele><time>2026-05-01T12:03:27Z</time></trkpt><trkpt lat="44.530851993314904" lon="6.776983295138264"><ele>1534.0</ele><time>2026-05-01T12:03:28Z</time></trkpt><trkpt lat="44.53095053856985" lon="6.7771185977952815"><ele>1534.6666666666665</ele><time>2026-05-01T12:03:30Z</time></trkpt><trkpt lat="44.531025673997775" lon="6.777168940850306"><ele>1535.3333333333333</ele><time>2026-05-01T12:03:31Z</time></trkpt><trkpt lat="44.53109198843912" lon="6.7772416372021285"><ele>1536.0</ele><time>2026-05-01T12:03:32Z</time></trkpt><trkpt lat="44.53113425337452" lon="6.777375603259042"><ele>1536.6666666666665</ele><time>2026-05-01T12:03:33Z</time></trkpt><trkpt lat="44.531180904398305" lon="6.7774773393713"><ele>1537.3333333333333</ele><time>2026-05-01T12:03:34Z</time></trkpt><trkpt lat="44.531224158957315" lon="6.777565679017702"><ele>1538.0</ele><time>2026-05-01T12:03:35Z</time></trkpt><trkpt lat="44.531318923999706" lon="6.777671363675902"><ele>1537.1666666666665</ele><time>2026-05-01T12:03:37Z</time></trkpt><trkpt lat="44.53137205271407" lon="6.777738703974483"><ele>1536.3333333333333</ele><time>2026-05-01T12:03:38Z</time></trkpt><trkpt lat="44.531425804462465" lon="6.777804257670334"><ele>1535.5</ele><time>2026-05-01T12:03:39Z</time></trkpt><trkpt lat="44.53148031254983" lon="6.777869522892191"><ele>1534.6666666666665</ele><time>2026-05-01T12:03:40Z</time></trkpt><trkpt lat="44.53152860599496" lon="6.777945797928311"><ele>1533.8333333333333</ele><time>2026-05-01T12:03:41Z</time></trkpt><trkpt lat="44.53158397196092" lon="6.77808854514139"><ele>1533.0</ele><time>2026-05-01T12:03:43Z</time></trkpt><trkpt lat="44.53164202910908" lon="6.778208767716154"><ele>1533.0</ele><time>2026-05-01T12:03:45Z</time></trkpt><trkpt lat="44.53166703795145" lon="6.778292665148508"><ele>1533.0</ele><time>2026-05-01T12:03:46Z</time></trkpt><trkpt lat="44.53169232868717" lon="6.778375509231208"><ele>1533.0</ele><time>2026-05-01T12:03:47Z</time></trkpt><trkpt lat="44.53174850657599" lon="6.7785672953685445"><ele>1533.0</ele><time>2026-05-01T12:03:48.999Z</time></trkpt><trkpt lat="44.53177575547333" lon="6.778646956595135"><ele>1533.0</ele><time>2026-05-01T12:03:49.999Z</time></trkpt><trkpt lat="44.53184202292384" lon="6.778807959850907"><ele>1531.6000000000001</ele><time>2026-05-01T12:03:51.999Z</time></trkpt><trkpt lat="44.53192457160256" lon="6.77892876815668"><ele>1530.2</ele><time>2026-05-01T12:03:53.999Z</time></trkpt><trkpt lat="44.532004016850486" lon="6.779020925410697"><ele>1528.8</ele><time>2026-05-01T12:03:55.999Z</time></trkpt><trkpt lat="44.53205417011579" lon="6.779095502162781"><ele>1527.4</ele><time>2026-05-01T12:03:57.999Z</time></trkpt><trkpt lat="44.53212404347401" lon="6.779182945830119"><ele>1526.0</ele><time>2026-05-01T12:04:00Z</time></trkpt><trkpt lat="44.532194425053234" lon="6.779271031921463"><ele>1527.4</ele><time>2026-05-01T12:04:02Z</time></trkpt><trkpt lat="44.53227033771586" lon="6.779348204610303"><ele>1528.8</ele><time>2026-05-01T12:04:04Z</time></trkpt><trkpt lat="44.53238038689858" lon="6.7794461689981"><ele>1530.2</ele><time>2026-05-01T12:04:06Z</time></trkpt><trkpt lat="44.532443750953036" lon="6.779518762494516"><ele>1531.6000000000001</ele><time>2026-05-01T12:04:07Z</time></trkpt><trkpt lat="44.53250144409411" lon="6.779588130476421"><ele>1533.0</ele><time>2026-05-01T12:04:08Z</time></trkpt><trkpt lat="44.53259249643708" lon="6.7796576660121275"><ele>1533.0</ele><time>2026-05-01T12:04:09Z</time></trkpt><trkpt lat="44.53269426862984" lon="6.779737138450282"><ele>1533.0</ele><time>2026-05-01T12:04:10Z</time></trkpt><trkpt lat="44.532762315916976" lon="6.779793082231099"><ele>1533.0</ele><time>2026-05-01T12:04:11Z</time></trkpt><trkpt lat="44.53284130825133" lon="6.779859023618348"><ele>1533.0</ele><time>2026-05-01T12:04:12Z</time></trkpt><trkpt lat="44.5329333362815" lon="6.77993102619101"><ele>1533.0</ele><time>2026-05-01T12:04:13Z</time></trkpt><trkpt lat="44.5330307530956" lon="6.780005780281493"><ele>1535.25</ele><time>2026-05-01T12:04:14Z</time></trkpt><trkpt lat="44.5331302861966" lon="6.7800899715211544"><ele>1537.5</ele><time>2026-05-01T12:04:15Z</time></trkpt><trkpt lat="44.533234969059144" lon="6.780164758487277"><ele>1539.75</ele><time>2026-05-01T12:04:16Z</time></trkpt><trkpt lat="44.53333790955371" lon="6.7802330150789745"><ele>1542.0</ele><time>2026-05-01T12:04:17Z</time></trkpt><trkpt lat="44.53344224968884" lon="6.780301511937847"><ele>1542.0</ele><time>2026-05-01T12:04:18Z</time></trkpt><trkpt lat="44.5335386944691" lon="6.78037520719227"><ele>1542.0</ele><time>2026-05-01T12:04:19Z</time></trkpt><trkpt lat="44.53363546726067" lon="6.780445657684489"><ele>1542.0</ele><time>2026-05-01T12:04:20Z</time></trkpt><trkpt lat="44.533721753836275" lon="6.7805061056782"><ele>1542.0</ele><time>2026-05-01T12:04:21Z</time></trkpt><trkpt lat="44.533807775267135" lon="6.780578573965869"><ele>1542.0</ele><time>2026-05-01T12:04:22Z</time></trkpt><trkpt lat="44.533904840966336" lon="6.780650243261642"><ele>1544.8</ele><time>2026-05-01T12:04:23Z</time></trkpt><trkpt lat="44.53400177170665" lon="6.780714404345977"><ele>1547.6</ele><time>2026-05-01T12:04:24Z</time></trkpt><trkpt lat="44.53410226364471" lon="6.7807978832745075"><ele>1550.3999999999999</ele><time>2026-05-01T12:04:25Z</time></trkpt><trkpt lat="44.53417551478356" lon="6.780878582729811"><ele>1553.1999999999998</ele><time>2026-05-01T12:04:26Z</time></trkpt><trkpt lat="44.53426337718131" lon="6.780955078655979"><ele>1556.0</ele><time>2026-05-01T12:04:27Z</time></trkpt><trkpt lat="44.534373348407385" lon="6.781009736758649"><ele>1555.1999999999998</ele><time>2026-05-01T12:04:28Z</time></trkpt><trkpt lat="44.53447469964878" lon="6.781066934258801"><ele>1554.3999999999999</ele><time>2026-05-01T12:04:29Z</time></trkpt><trkpt lat="44.53456390573743" lon="6.7811401295781595"><ele>1553.6</ele><time>2026-05-01T12:04:30Z</time></trkpt><trkpt lat="44.53466087753516" lon="6.781199733085127"><ele>1552.8</ele><time>2026-05-01T12:04:31Z</time></trkpt><trkpt lat="44.53476906955456" lon="6.78125160308085"><ele>1552.0</ele><time>2026-05-01T12:04:32Z</time></trkpt><trkpt lat="44.53484782038371" lon="6.7813195075402914"><ele>1553.8</ele><time>2026-05-01T12:04:33Z</time></trkpt><trkpt lat="44.534956996636076" lon="6.781389238304802"><ele>1555.6</ele><time>2026-05-01T12:04:34Z</time></trkpt><trkpt lat="44.535040510753475" lon="6.781457827192368"><ele>1557.3999999999999</ele><time>2026-05-01T12:04:35Z</time></trkpt><trkpt lat="44.535132116731035" lon="6.781549177306533"><ele>1559.1999999999998</ele><time>2026-05-01T12:04:36Z</time></trkpt><trkpt lat="44.53523436947561" lon="6.781629400696643"><ele>1561.0</ele><time>2026-05-01T12:04:37Z</time></trkpt><trkpt lat="44.53533943975849" lon="6.781696262832765"><ele>1563.0</ele><time>2026-05-01T12:04:38Z</time></trkpt><trkpt lat="44.535455972105765" lon="6.781751696277271"><ele>1565.0</ele><time>2026-05-01T12:04:39Z</time></trkpt><trkpt lat="44.535563590962475" lon="6.781805782411355"><ele>1567.0</ele><time>2026-05-01T12:04:40Z</time></trkpt><trkpt lat="44.53566998645597" lon="6.781855487291246"><ele>1569.0</ele><time>2026-05-01T12:04:41Z</time></trkpt><trkpt lat="44.53577451357383" lon="6.781909892565501"><ele>1569.0</ele><time>2026-05-01T12:04:42Z</time></trkpt><trkpt lat="44.535869355994926" lon="6.7819577607820545"><ele>1569.0</ele><time>2026-05-01T12:04:43Z</time></trkpt><trkpt lat="44.53594591238399" lon="6.781996084383506"><ele>1569.0</ele><time>2026-05-01T12:04:44Z</time></trkpt><trkpt lat="44.5360174833542" lon="6.7820030413543995"><ele>1569.0</ele><time>2026-05-01T12:04:45Z</time></trkpt><trkpt lat="44.53613312223568" lon="6.782033053697138"><ele>1569.0</ele><time>2026-05-01T12:04:46Z</time></trkpt><trkpt lat="44.53622290784952" lon="6.782086733813662"><ele>1569.0</ele><time>2026-05-01T12:04:47Z</time></trkpt><trkpt lat="44.536279612613875" lon="6.782152851536887"><ele>1569.0</ele><time>2026-05-01T12:04:48Z</time></trkpt><trkpt lat="44.53631292204176" lon="6.7822359331310835"><ele>1569.0</ele><time>2026-05-01T12:04:49Z</time></trkpt><trkpt lat="44.53634925637464" lon="6.782339343126568"><ele>1569.0</ele><time>2026-05-01T12:04:50Z</time></trkpt><trkpt lat="44.53635403836432" lon="6.782436954349406"><ele>1569.0</ele><time>2026-05-01T12:04:51Z</time></trkpt><trkpt lat="44.536275455060334" lon="6.782507254700278"><ele>1569.0</ele><time>2026-05-01T12:04:52Z</time></trkpt><trkpt lat="44.53620426667236" lon="6.782571178672841"><ele>1569.0</ele><time>2026-05-01T12:04:54Z</time></trkpt><trkpt lat="44.53614733507117" lon="6.782503820480774"><ele>1569.0</ele><time>2026-05-01T12:04:55Z</time></trkpt><trkpt lat="44.53602972165897" lon="6.782530884854391"><ele>1569.0</ele><time>2026-05-01T12:04:57Z</time></trkpt><trkpt lat="44.53593983831171" lon="6.782545375017567"><ele>1569.0</ele><time>2026-05-01T12:04:58Z</time></trkpt><trkpt lat="44.5358645761857" lon="6.782552079930165"><ele>1569.0</ele><time>2026-05-01T12:04:59Z</time></trkpt><trkpt lat="44.53579670064082" lon="6.782552517894158"><ele>1569.0</ele><time>2026-05-01T12:05:00Z</time></trkpt><trkpt lat="44.53571509406398" lon="6.782550757577165"><ele>1569.0</ele><time>2026-05-01T12:05:01Z</time></trkpt><trkpt lat="44.535640655440645" lon="6.782542231029795"><ele>1569.0</ele><time>2026-05-01T12:05:02Z</time></trkpt><trkpt lat="44.535521012339814" lon="6.782570774856344"><ele>1569.0</ele><time>2026-05-01T12:05:04Z</time></trkpt><trkpt lat="44.53547859175009" lon="6.782679420389846"><ele>1569.0</ele><time>2026-05-01T12:05:06Z</time></trkpt><trkpt lat="44.53552205938644" lon="6.782831482268619"><ele>1569.0</ele><time>2026-05-01T12:05:08Z</time></trkpt><trkpt lat="44.53556477223628" lon="6.782896613126753"><ele>1557.0</ele><time>2026-05-01T12:05:09Z</time></trkpt><trkpt lat="44.535659070232974" lon="6.782951881754573"><ele>1557.0</ele><time>2026-05-01T12:05:11Z</time></trkpt><trkpt lat="44.53573693704224" lon="6.782905061428348"><ele>1557.0</ele><time>2026-05-01T12:05:13Z</time></trkpt><trkpt lat="44.53573693704224" lon="6.782905061428348"><ele>1557.0</ele><time>2026-05-01T12:05:13Z</time></trkpt></trkseg><trkseg><trkpt lat="44.53577511977392" lon="6.782855910376306"><ele>1556.9999999999998</ele><time>2026-05-01T12:38:13Z</time></trkpt><trkpt lat="44.53583573332389" lon="6.78281861112305"><ele>1557.0</ele><time>2026-05-01T12:38:27Z</time></trkpt><trkpt lat="44.53576651983019" lon="6.782806671838587"><ele>1557.0</ele><time>2026-05-01T12:39:34.001Z</time></trkpt><trkpt lat="44.53569243329533" lon="6.7828120978318704"><ele>1557.0</ele><time>2026-05-01T12:39:37.001Z</time></trkpt><trkpt lat="44.535629697276306" lon="6.782790904113296"><ele>1557.0</ele><time>2026-05-01T12:39:39.001Z</time></trkpt><trkpt lat="44.535583434794674" lon="6.782722822221771"><ele>1556.9999999999998</ele><time>2026-05-01T12:39:41.001Z</time></trkpt><trkpt lat="44.535591084849216" lon="6.78260671257877"><ele>1557.0</ele><time>2026-05-01T12:39:43Z</time></trkpt><trkpt lat="44.53568320709533" lon="6.78256685045999"><ele>1559.3999999999999</ele><time>2026-05-01T12:39:45Z</time></trkpt><trkpt lat="44.53581198920844" lon="6.782562120788867"><ele>1561.8</ele><time>2026-05-01T12:39:47Z</time></trkpt><trkpt lat="44.53587694175521" lon="6.782547307076955"><ele>1564.2</ele><time>2026-05-01T12:39:48Z</time></trkpt><trkpt lat="44.535943293375325" lon="6.782590966263105"><ele>1566.6</ele><time>2026-05-01T12:39:49Z</time></trkpt><trkpt lat="44.53607517364129" lon="6.782566779536715"><ele>1569.0</ele><time>2026-05-01T12:39:51Z</time></trkpt><trkpt lat="44.53613437315322" lon="6.782533815450418"><ele>1570.4</ele><time>2026-05-01T12:39:52Z</time></trkpt><trkpt lat="44.53625048417987" lon="6.782492721631868"><ele>1571.8000000000002</ele><time>2026-05-01T12:39:54Z</time></trkpt><trkpt lat="44.53634803598921" lon="6.782447393934103"><ele>1573.1999999999998</ele><time>2026-05-01T12:39:56Z</time></trkpt><trkpt lat="44.536385449345225" lon="6.782337252168605"><ele>1574.6</ele><time>2026-05-01T12:39:58Z</time></trkpt><trkpt lat="44.53637500111632" lon="6.782246415189034"><ele>1576.0</ele><time>2026-05-01T12:39:59Z</time></trkpt><trkpt lat="44.536325409592294" lon="6.7821251907280935"><ele>1576.0</ele><time>2026-05-01T12:40:01Z</time></trkpt><trkpt lat="44.536241221841756" lon="6.7820169105470365"><ele>1576.0</ele><time>2026-05-01T12:40:03Z</time></trkpt><trkpt lat="44.5361367205686" lon="6.7819545104581564"><ele>1576.0</ele><time>2026-05-01T12:40:04Z</time></trkpt><trkpt lat="44.53602447775011" lon="6.781908761432342"><ele>1576.0</ele><time>2026-05-01T12:40:05Z</time></trkpt><trkpt lat="44.535934751596606" lon="6.781871148911249"><ele>1576.0</ele><time>2026-05-01T12:40:06Z</time></trkpt><trkpt lat="44.53586428541056" lon="6.78183926289104"><ele>1576.6</ele><time>2026-05-01T12:40:07Z</time></trkpt><trkpt lat="44.535792599675396" lon="6.7818068250951535"><ele>1577.1999999999998</ele><time>2026-05-01T12:40:08Z</time></trkpt><trkpt lat="44.53571877150206" lon="6.781787976890045"><ele>1577.8000000000002</ele><time>2026-05-01T12:40:09Z</time></trkpt><trkpt lat="44.53563129992834" lon="6.781761227685611"><ele>1578.4</ele><time>2026-05-01T12:40:10Z</time></trkpt><trkpt lat="44.53554707790459" lon="6.7817239707951344"><ele>1579.0</ele><time>2026-05-01T12:40:11Z</time></trkpt><trkpt lat="44.53541949371331" lon="6.781657826238684"><ele>1575.4</ele><time>2026-05-01T12:40:12Z</time></trkpt><trkpt lat="44.53532154716283" lon="6.7816084431422246"><ele>1571.8000000000002</ele><time>2026-05-01T12:40:13Z</time></trkpt><trkpt lat="44.535241628496195" lon="6.781554108918517"><ele>1568.1999999999998</ele><time>2026-05-01T12:40:14Z</time></trkpt><trkpt lat="44.53512775534986" lon="6.781481128968387"><ele>1564.6</ele><time>2026-05-01T12:40:15Z</time></trkpt><trkpt lat="44.535059773866024" lon="6.781435885848405"><ele>1561.0</ele><time>2026-05-01T12:40:16Z</time></trkpt><trkpt lat="44.53499686844427" lon="6.781386698762329"><ele>1561.0</ele><time>2026-05-01T12:40:17Z</time></trkpt><trkpt lat="44.53493246102204" lon="6.78133292828724"><ele>1561.0</ele><time>2026-05-01T12:40:18Z</time></trkpt><trkpt lat="44.53486465863956" lon="6.781277550872969"><ele>1561.0</ele><time>2026-05-01T12:40:19Z</time></trkpt><trkpt lat="44.53474758919475" lon="6.7811750490255855"><ele>1561.0</ele><time>2026-05-01T12:40:21Z</time></trkpt><trkpt lat="44.53461698983347" lon="6.781119447986283"><ele>1561.0</ele><time>2026-05-01T12:40:23Z</time></trkpt><trkpt lat="44.53455419035136" lon="6.781046847509768"><ele>1560.1666666666667</ele><time>2026-05-01T12:40:24Z</time></trkpt><trkpt lat="44.534479084388124" lon="6.7810037809006305"><ele>1559.3333333333335</ele><time>2026-05-01T12:40:25Z</time></trkpt><trkpt lat="44.53440189547147" lon="6.780950529625757"><ele>1558.5</ele><time>2026-05-01T12:40:26Z</time></trkpt><trkpt lat="44.53431713500423" lon="6.7808975954530375"><ele>1557.6666666666665</ele><time>2026-05-01T12:40:27Z</time></trkpt><trkpt lat="44.534237752960955" lon="6.780846149473234"><ele>1556.8333333333333</ele><time>2026-05-01T12:40:28Z</time></trkpt><trkpt lat="44.534157214751765" lon="6.780798180822427"><ele>1556.0</ele><time>2026-05-01T12:40:29Z</time></trkpt><trkpt lat="44.53409085574283" lon="6.78076139976906"><ele>1555.9999999999998</ele><time>2026-05-01T12:40:30Z</time></trkpt><trkpt lat="44.53402888121381" lon="6.780695159918801"><ele>1556.0</ele><time>2026-05-01T12:40:31Z</time></trkpt><trkpt lat="44.53395965137987" lon="6.780638756109409"><ele>1556.0</ele><time>2026-05-01T12:40:32Z</time></trkpt><trkpt lat="44.53388318468385" lon="6.7805846669064715"><ele>1556.0</ele><time>2026-05-01T12:40:33Z</time></trkpt><trkpt lat="44.53382856367886" lon="6.7805103097367265"><ele>1555.9999999999998</ele><time>2026-05-01T12:40:34Z</time></trkpt><trkpt lat="44.53375835134122" lon="6.780455131621457"><ele>1556.0</ele><time>2026-05-01T12:40:35Z</time></trkpt><trkpt lat="44.53367905818058" lon="6.780393319846921"><ele>1554.4999999999998</ele><time>2026-05-01T12:40:36Z</time></trkpt><trkpt lat="44.53360959705313" lon="6.780344605435343"><ele>1553.0</ele><time>2026-05-01T12:40:37Z</time></trkpt><trkpt lat="44.53354649997469" lon="6.780302567129759"><ele>1551.5</ele><time>2026-05-01T12:40:38Z</time></trkpt><trkpt lat="44.533449281531226" lon="6.780251832454748"><ele>1550.0</ele><time>2026-05-01T12:40:39Z</time></trkpt><trkpt lat="44.53336424271626" lon="6.780203724033992"><ele>1548.4999999999998</ele><time>2026-05-01T12:40:40Z</time></trkpt><trkpt lat="44.53328615375811" lon="6.780141684048492"><ele>1547.0</ele><time>2026-05-01T12:40:41Z</time></trkpt><trkpt lat="44.533217757535695" lon="6.780064133915138"><ele>1546.9999999999998</ele><time>2026-05-01T12:40:42Z</time></trkpt><trkpt lat="44.533150353715904" lon="6.7800202623079295"><ele>1547.0</ele><time>2026-05-01T12:40:43Z</time></trkpt><trkpt lat="44.533071311060155" lon="6.7799626791996745"><ele>1547.0</ele><time>2026-05-01T12:40:44Z</time></trkpt><trkpt lat="44.53300297418438" lon="6.779907996514257"><ele>1547.0</ele><time>2026-05-01T12:40:45Z</time></trkpt><trkpt lat="44.5329333433489" lon="6.779848909566221"><ele>1546.9999999999998</ele><time>2026-05-01T12:40:46Z</time></trkpt><trkpt lat="44.53287206719356" lon="6.779794580989882"><ele>1547.0</ele><time>2026-05-01T12:40:47Z</time></trkpt><trkpt lat="44.53279189099502" lon="6.779731726771461"><ele>1544.6666666666665</ele><time>2026-05-01T12:40:48Z</time></trkpt><trkpt lat="44.53272508074334" lon="6.7796783202652575"><ele>1542.3333333333333</ele><time>2026-05-01T12:40:49Z</time></trkpt><trkpt lat="44.532647864424185" lon="6.779622784334791"><ele>1540.0</ele><time>2026-05-01T12:40:50Z</time></trkpt><trkpt lat="44.5325846832043" lon="6.77957669132156"><ele>1537.6666666666665</ele><time>2026-05-01T12:40:51Z</time></trkpt><trkpt lat="44.53251480007426" lon="6.779512856037124"><ele>1535.3333333333333</ele><time>2026-05-01T12:40:52Z</time></trkpt><trkpt lat="44.53244214763138" lon="6.779456385641756"><ele>1533.0</ele><time>2026-05-01T12:40:53Z</time></trkpt><trkpt lat="44.53238477787509" lon="6.779403752594347"><ele>1531.6000000000001</ele><time>2026-05-01T12:40:54Z</time></trkpt><trkpt lat="44.53228854119072" lon="6.77930668214575"><ele>1530.2</ele><time>2026-05-01T12:40:56Z</time></trkpt><trkpt lat="44.53223683425314" lon="6.779254613892675"><ele>1528.8</ele><time>2026-05-01T12:40:57Z</time></trkpt><trkpt lat="44.532148463257315" lon="6.779144593347631"><ele>1527.4</ele><time>2026-05-01T12:40:59Z</time></trkpt><trkpt lat="44.532066066714954" lon="6.779030666632663"><ele>1526.0</ele><time>2026-05-01T12:41:01Z</time></trkpt><trkpt lat="44.53200178916447" lon="6.778983528094482"><ele>1526.0</ele><time>2026-05-01T12:41:02Z</time></trkpt><trkpt lat="44.53191218257791" lon="6.778870170612303"><ele>1526.0</ele><time>2026-05-01T12:41:04Z</time></trkpt><trkpt lat="44.53183393817592" lon="6.778750441348299"><ele>1526.0</ele><time>2026-05-01T12:41:06Z</time></trkpt><trkpt lat="44.53180773390364" lon="6.7786345083554425"><ele>1526.0</ele><time>2026-05-01T12:41:08Z</time></trkpt><trkpt lat="44.531767922078295" lon="6.7785161815668316"><ele>1526.0</ele><time>2026-05-01T12:41:10Z</time></trkpt><trkpt lat="44.53172268457058" lon="6.77835634659306"><ele>1527.1666666666667</ele><time>2026-05-01T12:41:12Z</time></trkpt><trkpt lat="44.531676303044776" lon="6.7782626223753715"><ele>1528.3333333333335</ele><time>2026-05-01T12:41:13Z</time></trkpt><trkpt lat="44.53164925737342" lon="6.778169918759678"><ele>1529.5</ele><time>2026-05-01T12:41:14Z</time></trkpt><trkpt lat="44.53162435099373" lon="6.77808875434631"><ele>1530.6666666666667</ele><time>2026-05-01T12:41:15Z</time></trkpt><trkpt lat="44.53156055329623" lon="6.777939101411313"><ele>1531.8333333333333</ele><time>2026-05-01T12:41:17Z</time></trkpt><trkpt lat="44.53151105031378" lon="6.777863070408856"><ele>1533.0</ele><time>2026-05-01T12:41:18Z</time></trkpt><trkpt lat="44.531428299921956" lon="6.777751451048936"><ele>1533.0</ele><time>2026-05-01T12:41:20Z</time></trkpt><trkpt lat="44.53137160205147" lon="6.777689278735046"><ele>1533.0</ele><time>2026-05-01T12:41:21Z</time></trkpt><trkpt lat="44.53132300493942" lon="6.777625765834847"><ele>1533.0</ele><time>2026-05-01T12:41:22.001Z</time></trkpt><trkpt lat="44.53128153502081" lon="6.77755772012205"><ele>1533.0</ele><time>2026-05-01T12:41:23.001Z</time></trkpt><trkpt lat="44.53123538396748" lon="6.777493524495087"><ele>1533.0</ele><time>2026-05-01T12:41:24.001Z</time></trkpt><trkpt lat="44.531156059311435" lon="6.777332806491834"><ele>1533.0</ele><time>2026-05-01T12:41:26.001Z</time></trkpt><trkpt lat="44.53112589038557" lon="6.7772504192640906"><ele>1533.2</ele><time>2026-05-01T12:41:27.001Z</time></trkpt><trkpt lat="44.531102413322856" lon="6.777165030740981"><ele>1533.4</ele><time>2026-05-01T12:41:28.001Z</time></trkpt><trkpt lat="44.53101379115769" lon="6.777026486649354"><ele>1533.6000000000001</ele><time>2026-05-01T12:41:30.001Z</time></trkpt><trkpt lat="44.53096117914752" lon="6.776961087595473"><ele>1533.8000000000002</ele><time>2026-05-01T12:41:31.001Z</time></trkpt><trkpt lat="44.530877694439475" lon="6.776852833588551"><ele>1534.0</ele><time>2026-05-01T12:41:33.001Z</time></trkpt><trkpt lat="44.53079984350859" lon="6.776740493749338"><ele>1534.0</ele><time>2026-05-01T12:41:35.001Z</time></trkpt><trkpt lat="44.53072102807912" lon="6.776631175502352"><ele>1534.0</ele><time>2026-05-01T12:41:37.001Z</time></trkpt><trkpt lat="44.53065352877424" lon="6.776588244843383"><ele>1534.0</ele><time>2026-05-01T12:41:38.001Z</time></trkpt><trkpt lat="44.530572012897196" lon="6.776508982608354"><ele>1534.0</ele><time>2026-05-01T12:41:39.001Z</time></trkpt><trkpt lat="44.53054111467761" lon="6.776431831646094"><ele>1534.0</ele><time>2026-05-01T12:41:40.001Z</time></trkpt><trkpt lat="44.530501765735316" lon="6.77635063042466"><ele>1534.0</ele><time>2026-05-01T12:41:41.001Z</time></trkpt><trkpt lat="44.530484971410885" lon="6.776254047902081"><ele>1534.0</ele><time>2026-05-01T12:41:42.001Z</time></trkpt><trkpt lat="44.530466982139444" lon="6.77615749407724"><ele>1534.0</ele><time>2026-05-01T12:41:43.001Z</time></trkpt><trkpt lat="44.53044729312054" lon="6.7760050274502355"><ele>1534.0</ele><time>2026-05-01T12:41:45.001Z</time></trkpt><trkpt lat="44.530472994554806" lon="6.775840570921657"><ele>1534.0</ele><time>2026-05-01T12:41:47.001Z</time></trkpt><trkpt lat="44.5306496042345" lon="6.775818890681521"><ele>1534.4</ele><time>2026-05-01T12:41:48Z</time></trkpt><trkpt lat="44.53066519914156" lon="6.77568493311438"><ele>1534.8000000000002</ele><time>2026-05-01T12:41:50Z</time></trkpt><trkpt lat="44.530671728666455" lon="6.775532632525965"><ele>1535.1999999999998</ele><time>2026-05-01T12:41:52Z</time></trkpt><trkpt lat="44.53059715374585" lon="6.775394125124099"><ele>1535.6</ele><time>2026-05-01T12:41:53Z</time></trkpt><trkpt lat="44.53054317810804" lon="6.775302161674625"><ele>1536.0</ele><time>2026-05-01T12:41:54Z</time></trkpt><trkpt lat="44.53044995710321" lon="6.775222736636688"><ele>1533.1666666666667</ele><time>2026-05-01T12:41:55Z</time></trkpt><trkpt lat="44.53036956254609" lon="6.775219372179564"><ele>1530.3333333333333</ele><time>2026-05-01T12:41:56Z</time></trkpt><trkpt lat="44.53031199763441" lon="6.775273861481099"><ele>1527.5</ele><time>2026-05-01T12:41:57Z</time></trkpt><trkpt lat="44.530229669999564" lon="6.77532953436123"><ele>1524.6666666666665</ele><time>2026-05-01T12:41:58Z</time></trkpt><trkpt lat="44.530159139866434" lon="6.775332305425383"><ele>1521.8333333333333</ele><time>2026-05-01T12:41:59Z</time></trkpt><trkpt lat="44.53008512679981" lon="6.7753708187256585"><ele>1519.0</ele><time>2026-05-01T12:42:00Z</time></trkpt><trkpt lat="44.530014758842796" lon="6.775379003985756"><ele>1519.0</ele><time>2026-05-01T12:42:01Z</time></trkpt><trkpt lat="44.529926941924344" lon="6.775360375126901"><ele>1519.0</ele><time>2026-05-01T12:42:02Z</time></trkpt><trkpt lat="44.529829128260815" lon="6.775357411071836"><ele>1519.0</ele><time>2026-05-01T12:42:03Z</time></trkpt><trkpt lat="44.52974779061988" lon="6.775354946293765"><ele>1519.0</ele><time>2026-05-01T12:42:04Z</time></trkpt><trkpt lat="44.5296493819965" lon="6.7753492038764165"><ele>1519.0</ele><time>2026-05-01T12:42:05Z</time></trkpt><trkpt lat="44.529569742007546" lon="6.775335454330891"><ele>1519.0</ele><time>2026-05-01T12:42:06Z</time></trkpt><trkpt lat="44.52945591461963" lon="6.775254778769381"><ele>1518.6666666666665</ele><time>2026-05-01T12:42:08Z</time></trkpt><trkpt lat="44.529375295412514" lon="6.775210204492653"><ele>1518.3333333333333</ele><time>2026-05-01T12:42:09Z</time></trkpt><trkpt lat="44.529295399511334" lon="6.775185955218502"><ele>1518.0</ele><time>2026-05-01T12:42:10Z</time></trkpt><trkpt lat="44.5292259319283" lon="6.775148199463808"><ele>1517.6666666666667</ele><time>2026-05-01T12:42:11Z</time></trkpt><trkpt lat="44.52915455769408" lon="6.775108184795521"><ele>1517.3333333333335</ele><time>2026-05-01T12:42:12Z</time></trkpt><trkpt lat="44.529088538043595" lon="6.775043972446874"><ele>1517.0</ele><time>2026-05-01T12:42:13Z</time></trkpt><trkpt lat="44.52905319010482" lon="6.7749450807538585"><ele>1517.0</ele><time>2026-05-01T12:42:14Z</time></trkpt><trkpt lat="44.52901868630635" lon="6.774832123130893"><ele>1517.0</ele><time>2026-05-01T12:42:15Z</time></trkpt><trkpt lat="44.528970993687594" lon="6.774720548702652"><ele>1517.0</ele><time>2026-05-01T12:42:16Z</time></trkpt><trkpt lat="44.52893406919559" lon="6.774602073880377"><ele>1517.0</ele><time>2026-05-01T12:42:17Z</time></trkpt><trkpt lat="44.5288978229553" lon="6.774469158417113"><ele>1517.0</ele><time>2026-05-01T12:42:18Z</time></trkpt><trkpt lat="44.52886053643352" lon="6.774356890488239"><ele>1518.3999999999999</ele><time>2026-05-01T12:42:19Z</time></trkpt><trkpt lat="44.52881579653651" lon="6.774232280032992"><ele>1519.8</ele><time>2026-05-01T12:42:20Z</time></trkpt><trkpt lat="44.52876668793584" lon="6.774122940255858"><ele>1521.2</ele><time>2026-05-01T12:42:21Z</time></trkpt><trkpt lat="44.52870935221034" lon="6.77400796992992"><ele>1522.6</ele><time>2026-05-01T12:42:22Z</time></trkpt><trkpt lat="44.52865358185302" lon="6.773899671225804"><ele>1524.0</ele><time>2026-05-01T12:42:23Z</time></trkpt><trkpt lat="44.52860302213657" lon="6.773797685147365"><ele>1522.5</ele><time>2026-05-01T12:42:24Z</time></trkpt><trkpt lat="44.528541339788084" lon="6.773702391354755"><ele>1521.0</ele><time>2026-05-01T12:42:25Z</time></trkpt><trkpt lat="44.52847168170849" lon="6.773629339386686"><ele>1519.5</ele><time>2026-05-01T12:42:26Z</time></trkpt><trkpt lat="44.52840500481425" lon="6.7735421294065"><ele>1518.0</ele><time>2026-05-01T12:42:27Z</time></trkpt><trkpt lat="44.52833935068862" lon="6.773446661106878"><ele>1516.5</ele><time>2026-05-01T12:42:28Z</time></trkpt><trkpt lat="44.528287809158336" lon="6.77335952993482"><ele>1515.0</ele><time>2026-05-01T12:42:29Z</time></trkpt><trkpt lat="44.52821994925456" lon="6.773275631850081"><ele>1515.0</ele><time>2026-05-01T12:42:30Z</time></trkpt><trkpt lat="44.52815745369852" lon="6.7732019366256475"><ele>1515.0</ele><time>2026-05-01T12:42:31Z</time></trkpt><trkpt lat="44.528096587676075" lon="6.773117978878563"><ele>1515.0</ele><time>2026-05-01T12:42:32Z</time></trkpt><trkpt lat="44.52804859528302" lon="6.77304588247594"><ele>1515.0</ele><time>2026-05-01T12:42:33Z</time></trkpt><trkpt lat="44.52798352977024" lon="6.772910207381532"><ele>1515.0</ele><time>2026-05-01T12:42:35Z</time></trkpt><trkpt lat="44.527939683080945" lon="6.772809142701927"><ele>1515.0</ele><time>2026-05-01T12:42:36Z</time></trkpt><trkpt lat="44.52788002248009" lon="6.772684730203253"><ele>1513.8333333333333</ele><time>2026-05-01T12:42:37Z</time></trkpt><trkpt lat="44.52782528144777" lon="6.772583662054624"><ele>1512.6666666666667</ele><time>2026-05-01T12:42:38Z</time></trkpt><trkpt lat="44.527787512222496" lon="6.772500971954479"><ele>1511.5</ele><time>2026-05-01T12:42:39Z</time></trkpt><trkpt lat="44.52774829367987" lon="6.772422117932871"><ele>1510.3333333333335</ele><time>2026-05-01T12:42:40Z</time></trkpt><trkpt lat="44.52771125949789" lon="6.77232063081714"><ele>1509.1666666666667</ele><time>2026-05-01T12:42:41Z</time></trkpt><trkpt lat="44.52772137385175" lon="6.772192386485828"><ele>1508.0</ele><time>2026-05-01T12:42:42Z</time></trkpt><trkpt lat="44.52770669758568" lon="6.77206830632246"><ele>1508.0</ele><time>2026-05-01T12:42:43Z</time></trkpt><trkpt lat="44.527674640630124" lon="6.771962454228898"><ele>1508.0</ele><time>2026-05-01T12:42:44Z</time></trkpt><trkpt lat="44.52764652556898" lon="6.77185082369684"><ele>1508.0</ele><time>2026-05-01T12:42:45Z</time></trkpt><trkpt lat="44.527604620805874" lon="6.771742557657838"><ele>1508.0</ele><time>2026-05-01T12:42:46Z</time></trkpt><trkpt lat="44.5275655636245" lon="6.77164174921395"><ele>1508.0</ele><time>2026-05-01T12:42:47Z</time></trkpt><trkpt lat="44.527477014211684" lon="6.771547860986703"><ele>1508.0</ele><time>2026-05-01T12:42:48Z</time></trkpt><trkpt lat="44.52741047318828" lon="6.771492531960587"><ele>1509.0</ele><time>2026-05-01T12:42:49Z</time></trkpt><trkpt lat="44.52734209683921" lon="6.771449289920349"><ele>1510.0</ele><time>2026-05-01T12:42:50Z</time></trkpt><trkpt lat="44.52725178905261" lon="6.771431596154328"><ele>1511.0</ele><time>2026-05-01T12:42:51Z</time></trkpt><trkpt lat="44.52716704697288" lon="6.771446036966414"><ele>1512.0</ele><time>2026-05-01T12:42:52Z</time></trkpt><trkpt lat="44.527067312346" lon="6.771400858946817"><ele>1513.0</ele><time>2026-05-01T12:42:53Z</time></trkpt><trkpt lat="44.52693925815023" lon="6.771407167846467"><ele>1511.0</ele><time>2026-05-01T12:42:54Z</time></trkpt><trkpt lat="44.52685773265343" lon="6.771400050799013"><ele>1509.0</ele><time>2026-05-01T12:42:55Z</time></trkpt><trkpt lat="44.526781181826706" lon="6.771368266314795"><ele>1507.0</ele><time>2026-05-01T12:42:56Z</time></trkpt><trkpt lat="44.52670604420596" lon="6.771316427005222"><ele>1505.0</ele><time>2026-05-01T12:42:57Z</time></trkpt><trkpt lat="44.52663151608948" lon="6.771239833827141"><ele>1503.0</ele><time>2026-05-01T12:42:58Z</time></trkpt><trkpt lat="44.52656528664078" lon="6.771172342751746"><ele>1501.0</ele><time>2026-05-01T12:42:59Z</time></trkpt><trkpt lat="44.52654754891405" lon="6.771068713644736"><ele>1502.8</ele><time>2026-05-01T12:43:00Z</time></trkpt><trkpt lat="44.52650294894555" lon="6.770950484277655"><ele>1504.6</ele><time>2026-05-01T12:43:01Z</time></trkpt><trkpt lat="44.52646387510431" lon="6.770786613319913"><ele>1506.4</ele><time>2026-05-01T12:43:02Z</time></trkpt><trkpt lat="44.52642323279071" lon="6.770620211525568"><ele>1508.2</ele><time>2026-05-01T12:43:03Z</time></trkpt><trkpt lat="44.52638843856985" lon="6.770481998837834"><ele>1510.0</ele><time>2026-05-01T12:43:04Z</time></trkpt><trkpt lat="44.52632295704696" lon="6.770337482786263"><ele>1510.0</ele><time>2026-05-01T12:43:05Z</time></trkpt><trkpt lat="44.526244413839514" lon="6.770191871368773"><ele>1510.0</ele><time>2026-05-01T12:43:06Z</time></trkpt><trkpt lat="44.52617642861596" lon="6.770059652252422"><ele>1510.0</ele><time>2026-05-01T12:43:07Z</time></trkpt><trkpt lat="44.52611076818845" lon="6.769942665098553"><ele>1510.0</ele><time>2026-05-01T12:43:08Z</time></trkpt><trkpt lat="44.526023254555405" lon="6.769827617131287"><ele>1507.0</ele><time>2026-05-01T12:43:09Z</time></trkpt><trkpt lat="44.525938710551884" lon="6.769717746541334"><ele>1504.0</ele><time>2026-05-01T12:43:10Z</time></trkpt><trkpt lat="44.52585867311695" lon="6.769627209223506"><ele>1501.0</ele><time>2026-05-01T12:43:11Z</time></trkpt><trkpt lat="44.52578923744758" lon="6.769547319892614"><ele>1498.0</ele><time>2026-05-01T12:43:12Z</time></trkpt><trkpt lat="44.52572174545342" lon="6.7694671720530355"><ele>1495.0</ele><time>2026-05-01T12:43:13Z</time></trkpt><trkpt lat="44.52566834813917" lon="6.769380462667235"><ele>1496.1666666666665</ele><time>2026-05-01T12:43:14Z</time></trkpt><trkpt lat="44.52564115641107" lon="6.769276675612654"><ele>1497.3333333333333</ele><time>2026-05-01T12:43:15Z</time></trkpt><trkpt lat="44.52561045908092" lon="6.769183861331202"><ele>1498.5</ele><time>2026-05-01T12:43:16Z</time></trkpt><trkpt lat="44.52560192915087" lon="6.769068379343443"><ele>1499.6666666666667</ele><time>2026-05-01T12:43:17Z</time></trkpt><trkpt lat="44.52565046173362" lon="6.768974340822854"><ele>1500.8333333333335</ele><time>2026-05-01T12:43:18Z</time></trkpt><trkpt lat="44.525659558372844" lon="6.7688539506738845"><ele>1502.0</ele><time>2026-05-01T12:43:19Z</time></trkpt><trkpt lat="44.52562560649837" lon="6.768749693888939"><ele>1502.0</ele><time>2026-05-01T12:43:20Z</time></trkpt><trkpt lat="44.525596330024484" lon="6.768648211972976"><ele>1502.0</ele><time>2026-05-01T12:43:21Z</time></trkpt><trkpt lat="44.525551921561394" lon="6.768563546911376"><ele>1502.0</ele><time>2026-05-01T12:43:22Z</time></trkpt><trkpt lat="44.52548317769716" lon="6.76846091418021"><ele>1502.0</ele><time>2026-05-01T12:43:23Z</time></trkpt><trkpt lat="44.52542421351289" lon="6.768314300935526"><ele>1502.0</ele><time>2026-05-01T12:43:24Z</time></trkpt><trkpt lat="44.5253447562313" lon="6.768192151785181"><ele>1502.75</ele><time>2026-05-01T12:43:25Z</time></trkpt><trkpt lat="44.52522629910917" lon="6.768070701782828"><ele>1503.5</ele><time>2026-05-01T12:43:26.001Z</time></trkpt><trkpt lat="44.525139394569834" lon="6.767961531308278"><ele>1504.25</ele><time>2026-05-01T12:43:27.001Z</time></trkpt><trkpt lat="44.52508231931881" lon="6.7677991666519"><ele>1505.0</ele><time>2026-05-01T12:43:28.001Z</time></trkpt><trkpt lat="44.52500854569948" lon="6.767671799869978"><ele>1505.0</ele><time>2026-05-01T12:43:29.001Z</time></trkpt><trkpt lat="44.52494507350207" lon="6.767526683907544"><ele>1505.0</ele><time>2026-05-01T12:43:30.001Z</time></trkpt><trkpt lat="44.52487196523604" lon="6.7673797594812735"><ele>1505.0</ele><time>2026-05-01T12:43:31.001Z</time></trkpt><trkpt lat="44.524785763371554" lon="6.767249428462768"><ele>1505.0</ele><time>2026-05-01T12:43:32.001Z</time></trkpt><trkpt lat="44.52470085311841" lon="6.767112722973441"><ele>1505.0</ele><time>2026-05-01T12:43:33.001Z</time></trkpt><trkpt lat="44.5246083978044" lon="6.766981181483396"><ele>1505.0</ele><time>2026-05-01T12:43:34.001Z</time></trkpt><trkpt lat="44.52450861701306" lon="6.766857387532117"><ele>1505.0</ele><time>2026-05-01T12:43:35.001Z</time></trkpt><trkpt lat="44.52440733960248" lon="6.766743790511134"><ele>1505.0</ele><time>2026-05-01T12:43:36.001Z</time></trkpt><trkpt lat="44.52430358879836" lon="6.766630824780819"><ele>1501.0</ele><time>2026-05-01T12:43:37.001Z</time></trkpt><trkpt lat="44.52421061171371" lon="6.766547468986645"><ele>1497.0</ele><time>2026-05-01T12:43:38.001Z</time></trkpt><trkpt lat="44.524111732735854" lon="6.766444724281993"><ele>1493.0</ele><time>2026-05-01T12:43:39.001Z</time></trkpt><trkpt lat="44.52404126558482" lon="6.766367121988215"><ele>1489.0</ele><time>2026-05-01T12:43:40.001Z</time></trkpt><trkpt lat="44.52397583458165" lon="6.766239061018134"><ele>1485.0</ele><time>2026-05-01T12:43:41.001Z</time></trkpt><trkpt lat="44.5239377772539" lon="6.766099547716503"><ele>1494.75</ele><time>2026-05-01T12:43:42.001Z</time></trkpt><trkpt lat="44.523895928376966" lon="6.76593948884501"><ele>1504.5</ele><time>2026-05-01T12:43:43.001Z</time></trkpt><trkpt lat="44.52384027792091" lon="6.765762687679352"><ele>1514.25</ele><time>2026-05-01T12:43:44.001Z</time></trkpt><trkpt lat="44.5237964366137" lon="6.7656012854510195"><ele>1524.0</ele><time>2026-05-01T12:43:45.001Z</time></trkpt><trkpt lat="44.52375585528636" lon="6.765451057221206"><ele>1516.6</ele><time>2026-05-01T12:43:46.001Z</time></trkpt><trkpt lat="44.523703754774374" lon="6.765305805607887"><ele>1509.2</ele><time>2026-05-01T12:43:47.001Z</time></trkpt><trkpt lat="44.52365249563042" lon="6.765179930485761"><ele>1501.8</ele><time>2026-05-01T12:43:48.001Z</time></trkpt><trkpt lat="44.52359415915056" lon="6.765063947380974"><ele>1494.3999999999999</ele><time>2026-05-01T12:43:49.001Z</time></trkpt><trkpt lat="44.523512565477375" lon="6.764988931604208"><ele>1487.0</ele><time>2026-05-01T12:43:50.001Z</time></trkpt><trkpt lat="44.5234131618417" lon="6.764952376802869"><ele>1487.0</ele><time>2026-05-01T12:43:51.001Z</time></trkpt><trkpt lat="44.523308114434556" lon="6.76488244741312"><ele>1487.0</ele><time>2026-05-01T12:43:52.001Z</time></trkpt><trkpt lat="44.52322953641124" lon="6.764797413950383"><ele>1487.0</ele><time>2026-05-01T12:43:53.001Z</time></trkpt><trkpt lat="44.52313212319188" lon="6.764714412026955"><ele>1487.0</ele><time>2026-05-01T12:43:54Z</time></trkpt><trkpt lat="44.5230555946368" lon="6.764608490483833"><ele>1487.0</ele><time>2026-05-01T12:43:55Z</time></trkpt><trkpt lat="44.52297227572987" lon="6.764520052522312"><ele>1487.0</ele><time>2026-05-01T12:43:56Z</time></trkpt><trkpt lat="44.522932620182125" lon="6.764378299102679"><ele>1487.0</ele><time>2026-05-01T12:43:57Z</time></trkpt><trkpt lat="44.522881124338376" lon="6.764262778675625"><ele>1487.0</ele><time>2026-05-01T12:43:58Z</time></trkpt><trkpt lat="44.52282606318386" lon="6.764129381450683"><ele>1487.0</ele><time>2026-05-01T12:43:59Z</time></trkpt><trkpt lat="44.522752587037125" lon="6.7640410335244665"><ele>1487.0</ele><time>2026-05-01T12:44:00Z</time></trkpt><trkpt lat="44.52266253015745" lon="6.7640378837311985"><ele>1485.6666666666667</ele><time>2026-05-01T12:44:01Z</time></trkpt><trkpt lat="44.522591181711796" lon="6.763990317241038"><ele>1484.3333333333335</ele><time>2026-05-01T12:44:02Z</time></trkpt><trkpt lat="44.52250763186548" lon="6.7639223733985"><ele>1483.0</ele><time>2026-05-01T12:44:03Z</time></trkpt><trkpt lat="44.522457280361294" lon="6.7638522225908435"><ele>1481.6666666666667</ele><time>2026-05-01T12:44:04Z</time></trkpt><trkpt lat="44.52239761650007" lon="6.763760973604236"><ele>1480.3333333333333</ele><time>2026-05-01T12:44:05Z</time></trkpt><trkpt lat="44.52237610607619" lon="6.763644327362879"><ele>1479.0</ele><time>2026-05-01T12:44:06Z</time></trkpt><trkpt lat="44.522343759290294" lon="6.763539203205936"><ele>1476.8333333333333</ele><time>2026-05-01T12:44:07Z</time></trkpt><trkpt lat="44.52231331209283" lon="6.7634336474016985"><ele>1474.6666666666667</ele><time>2026-05-01T12:44:08Z</time></trkpt><trkpt lat="44.52227256972482" lon="6.763344157073538"><ele>1472.5</ele><time>2026-05-01T12:44:09Z</time></trkpt><trkpt lat="44.52221546773312" lon="6.763270779894968"><ele>1470.3333333333335</ele><time>2026-05-01T12:44:10Z</time></trkpt><trkpt lat="44.52213714680193" lon="6.763226310822722"><ele>1468.1666666666667</ele><time>2026-05-01T12:44:11Z</time></trkpt><trkpt lat="44.52205247298029" lon="6.763220250242626"><ele>1466.0</ele><time>2026-05-01T12:44:12Z</time></trkpt><trkpt lat="44.52194872643875" lon="6.763185387511544"><ele>1466.0</ele><time>2026-05-01T12:44:13Z</time></trkpt><trkpt lat="44.52188399589814" lon="6.7631385910200335"><ele>1466.0</ele><time>2026-05-01T12:44:14Z</time></trkpt><trkpt lat="44.521818661638385" lon="6.763057557327992"><ele>1466.0</ele><time>2026-05-01T12:44:15Z</time></trkpt><trkpt lat="44.52176089625557" lon="6.7629430124320296"><ele>1466.0</ele><time>2026-05-01T12:44:16Z</time></trkpt><trkpt lat="44.52170924205894" lon="6.762832314890598"><ele>1466.0</ele><time>2026-05-01T12:44:17Z</time></trkpt><trkpt lat="44.52165350680843" lon="6.7627046093677405"><ele>1468.6</ele><time>2026-05-01T12:44:18Z</time></trkpt><trkpt lat="44.52159475675492" lon="6.762572979421797"><ele>1471.1999999999998</ele><time>2026-05-01T12:44:19Z</time></trkpt><trkpt lat="44.52153146036865" lon="6.762439547044279"><ele>1473.8000000000002</ele><time>2026-05-01T12:44:20Z</time></trkpt><trkpt lat="44.52146252564691" lon="6.762310845528268"><ele>1476.4</ele><time>2026-05-01T12:44:21Z</time></trkpt><trkpt lat="44.52141852039353" lon="6.76217622923746"><ele>1479.0</ele><time>2026-05-01T12:44:22Z</time></trkpt><trkpt lat="44.52140579535979" lon="6.762034786492081"><ele>1479.0</ele><time>2026-05-01T12:44:23Z</time></trkpt><trkpt lat="44.52138785275471" lon="6.761905788577435"><ele>1479.0</ele><time>2026-05-01T12:44:24Z</time></trkpt><trkpt lat="44.52137451939129" lon="6.761801521561465"><ele>1479.0</ele><time>2026-05-01T12:44:25Z</time></trkpt><trkpt lat="44.52131618867946" lon="6.7616966265562155"><ele>1479.0</ele><time>2026-05-01T12:44:26Z</time></trkpt><trkpt lat="44.521231869761955" lon="6.761615261518547"><ele>1479.0</ele><time>2026-05-01T12:44:27Z</time></trkpt><trkpt lat="44.521137749620344" lon="6.761542243160151"><ele>1479.4</ele><time>2026-05-01T12:44:28Z</time></trkpt><trkpt lat="44.52105219416981" lon="6.7614926051773905"><ele>1479.8000000000002</ele><time>2026-05-01T12:44:29Z</time></trkpt><trkpt lat="44.52097993127519" lon="6.761383715165691"><ele>1480.1999999999998</ele><time>2026-05-01T12:44:30Z</time></trkpt><trkpt lat="44.520902172676784" lon="6.761265277613748"><ele>1480.6</ele><time>2026-05-01T12:44:31Z</time></trkpt><trkpt lat="44.52083041795192" lon="6.761128374442042"><ele>1481.0</ele><time>2026-05-01T12:44:32Z</time></trkpt><trkpt lat="44.52075860015012" lon="6.7610003873502205"><ele>1481.0</ele><time>2026-05-01T12:44:33Z</time></trkpt><trkpt lat="44.520680232558895" lon="6.76084664734578"><ele>1481.0</ele><time>2026-05-01T12:44:34Z</time></trkpt><trkpt lat="44.52061566245455" lon="6.760692495793412"><ele>1481.0</ele><time>2026-05-01T12:44:35Z</time></trkpt><trkpt lat="44.52055156405215" lon="6.760538469556473"><ele>1481.0</ele><time>2026-05-01T12:44:36Z</time></trkpt><trkpt lat="44.52047046053339" lon="6.760387119289631"><ele>1478.25</ele><time>2026-05-01T12:44:37Z</time></trkpt><trkpt lat="44.52039289430362" lon="6.760244684758536"><ele>1475.5</ele><time>2026-05-01T12:44:38Z</time></trkpt><trkpt lat="44.52030367805395" lon="6.760117133239447"><ele>1472.75</ele><time>2026-05-01T12:44:39Z</time></trkpt><trkpt lat="44.520206211312086" lon="6.759999976254092"><ele>1470.0</ele><time>2026-05-01T12:44:40Z</time></trkpt><trkpt lat="44.5201197474552" lon="6.75988616586035"><ele>1470.0</ele><time>2026-05-01T12:44:41Z</time></trkpt><trkpt lat="44.52003775968377" lon="6.7597724180070635"><ele>1470.0</ele><time>2026-05-01T12:44:42Z</time></trkpt><trkpt lat="44.51995530287135" lon="6.759663140288456"><ele>1470.0</ele><time>2026-05-01T12:44:43Z</time></trkpt><trkpt lat="44.51988138528973" lon="6.759553402335295"><ele>1470.0</ele><time>2026-05-01T12:44:44Z</time></trkpt><trkpt lat="44.51980737759269" lon="6.759445076422514"><ele>1470.0</ele><time>2026-05-01T12:44:45Z</time></trkpt><trkpt lat="44.51973612706969" lon="6.759339347334808"><ele>1469.6</ele><time>2026-05-01T12:44:46Z</time></trkpt><trkpt lat="44.51968078406795" lon="6.75922448114706"><ele>1469.2</ele><time>2026-05-01T12:44:47Z</time></trkpt><trkpt lat="44.51960026774821" lon="6.759118461059886"><ele>1468.8000000000002</ele><time>2026-05-01T12:44:48Z</time></trkpt><trkpt lat="44.51952261663967" lon="6.759022132948688"><ele>1468.4</ele><time>2026-05-01T12:44:49Z</time></trkpt><trkpt lat="44.519447899450256" lon="6.7589140077292695"><ele>1468.0</ele><time>2026-05-01T12:44:50Z</time></trkpt><trkpt lat="44.5193691065868" lon="6.75881572923137"><ele>1468.0</ele><time>2026-05-01T12:44:51Z</time></trkpt><trkpt lat="44.51928716702125" lon="6.75872792710828"><ele>1468.0</ele><time>2026-05-01T12:44:52Z</time></trkpt><trkpt lat="44.51921781333565" lon="6.7586410054416595"><ele>1468.0</ele><time>2026-05-01T12:44:53Z</time></trkpt><trkpt lat="44.519139802743325" lon="6.75855464172545"><ele>1468.0</ele><time>2026-05-01T12:44:54Z</time></trkpt><trkpt lat="44.51905167397375" lon="6.7584786366343845"><ele>1468.0</ele><time>2026-05-01T12:44:55Z</time></trkpt><trkpt lat="44.51896947643369" lon="6.758418176286504"><ele>1467.6000000000001</ele><time>2026-05-01T12:44:56Z</time></trkpt><trkpt lat="44.51886844997098" lon="6.758389638178277"><ele>1467.2</ele><time>2026-05-01T12:44:57Z</time></trkpt><trkpt lat="44.51877317347116" lon="6.758356912830424"><ele>1466.8</ele><time>2026-05-01T12:44:58Z</time></trkpt><trkpt lat="44.51868260092086" lon="6.7583230458351355"><ele>1466.4</ele><time>2026-05-01T12:44:59Z</time></trkpt><trkpt lat="44.518586096194106" lon="6.75828517842817"><ele>1466.0</ele><time>2026-05-01T12:45:00Z</time></trkpt><trkpt lat="44.518490836185705" lon="6.758239835525239"><ele>1466.0</ele><time>2026-05-01T12:45:01Z</time></trkpt><trkpt lat="44.51838031471385" lon="6.758204107451432"><ele>1466.0</ele><time>2026-05-01T12:45:02Z</time></trkpt><trkpt lat="44.518260511637926" lon="6.758135257673555"><ele>1466.0</ele><time>2026-05-01T12:45:03Z</time></trkpt><trkpt lat="44.51817394988829" lon="6.758053904250387"><ele>1466.0</ele><time>2026-05-01T12:45:04Z</time></trkpt><trkpt lat="44.51807826705752" lon="6.7579603590231425"><ele>1466.0</ele><time>2026-05-01T12:45:05Z</time></trkpt><trkpt lat="44.51797516346296" lon="6.757895362982262"><ele>1466.0</ele><time>2026-05-01T12:45:06Z</time></trkpt><trkpt lat="44.51788767586095" lon="6.757792193415822"><ele>1466.0</ele><time>2026-05-01T12:45:07Z</time></trkpt><trkpt lat="44.517788550062946" lon="6.7577033876630725"><ele>1466.0</ele><time>2026-05-01T12:45:08Z</time></trkpt><trkpt lat="44.51769230245598" lon="6.7576138608937075"><ele>1464.5</ele><time>2026-05-01T12:45:09.001Z</time></trkpt><trkpt lat="44.51760682140824" lon="6.757514040833478"><ele>1463.0</ele><time>2026-05-01T12:45:10.001Z</time></trkpt><trkpt lat="44.517513046882364" lon="6.757398209623307"><ele>1461.5</ele><time>2026-05-01T12:45:11.001Z</time></trkpt><trkpt lat="44.51743625983886" lon="6.757292295922789"><ele>1460.0</ele><time>2026-05-01T12:45:12.001Z</time></trkpt><trkpt lat="44.51735838381685" lon="6.757189448483977"><ele>1460.0</ele><time>2026-05-01T12:45:13.001Z</time></trkpt><trkpt lat="44.51729631363863" lon="6.7570591091162955"><ele>1460.0</ele><time>2026-05-01T12:45:14.001Z</time></trkpt><trkpt lat="44.517233847637755" lon="6.7569395133230215"><ele>1460.0</ele><time>2026-05-01T12:45:15.001Z</time></trkpt><trkpt lat="44.51717021080229" lon="6.7568007361508045"><ele>1460.0</ele><time>2026-05-01T12:45:16.001Z</time></trkpt><trkpt lat="44.51709000876156" lon="6.756669353725605"><ele>1458.0</ele><time>2026-05-01T12:45:17.001Z</time></trkpt><trkpt lat="44.5170219797972" lon="6.756523226803026"><ele>1456.0</ele><time>2026-05-01T12:45:18.001Z</time></trkpt><trkpt lat="44.51696541843756" lon="6.756363416252428"><ele>1454.0</ele><time>2026-05-01T12:45:19.001Z</time></trkpt><trkpt lat="44.5168892429467" lon="6.756242294471372"><ele>1452.0</ele><time>2026-05-01T12:45:20.001Z</time></trkpt><trkpt lat="44.51685470302993" lon="6.756107907729476"><ele>1452.8333333333333</ele><time>2026-05-01T12:45:21.001Z</time></trkpt><trkpt lat="44.516801541039925" lon="6.7559869750786605"><ele>1453.6666666666667</ele><time>2026-05-01T12:45:22.001Z</time></trkpt><trkpt lat="44.51675199916794" lon="6.755907191349962"><ele>1454.5</ele><time>2026-05-01T12:45:23.001Z</time></trkpt><trkpt lat="44.516712312235946" lon="6.755795750029554"><ele>1455.3333333333335</ele><time>2026-05-01T12:45:24.001Z</time></trkpt><trkpt lat="44.516711772962516" lon="6.75566949472597"><ele>1456.1666666666667</ele><time>2026-05-01T12:45:25.001Z</time></trkpt><trkpt lat="44.51672032483178" lon="6.755550786737121"><ele>1457.0</ele><time>2026-05-01T12:45:26.001Z</time></trkpt><trkpt lat="44.51673309400643" lon="6.755408559889427"><ele>1457.0</ele><time>2026-05-01T12:45:27.001Z</time></trkpt><trkpt lat="44.51673297895535" lon="6.755267831035663"><ele>1457.0</ele><time>2026-05-01T12:45:28.001Z</time></trkpt><trkpt lat="44.51675379883104" lon="6.755114320558352"><ele>1457.0</ele><time>2026-05-01T12:45:29.001Z</time></trkpt><trkpt lat="44.516737569122675" lon="6.754968332010441"><ele>1457.0</ele><time>2026-05-01T12:45:30.001Z</time></trkpt><trkpt lat="44.516702602648685" lon="6.754829865836613"><ele>1457.0</ele><time>2026-05-01T12:45:31.001Z</time></trkpt><trkpt lat="44.51666607932754" lon="6.75472595006451"><ele>1457.25</ele><time>2026-05-01T12:45:32.001Z</time></trkpt><trkpt lat="44.51658895207015" lon="6.7546512939373375"><ele>1457.5</ele><time>2026-05-01T12:45:33.001Z</time></trkpt><trkpt lat="44.516501712321755" lon="6.754575846450866"><ele>1457.75</ele><time>2026-05-01T12:45:34.001Z</time></trkpt><trkpt lat="44.516363819009996" lon="6.754484977867824"><ele>1458.0</ele><time>2026-05-01T12:45:35.001Z</time></trkpt><trkpt lat="44.51624014844398" lon="6.7544124874405815"><ele>1458.4</ele><time>2026-05-01T12:45:36.001Z</time></trkpt><trkpt lat="44.516149011952294" lon="6.754332969417109"><ele>1458.8000000000002</ele><time>2026-05-01T12:45:37.001Z</time></trkpt><trkpt lat="44.516049454976205" lon="6.754285174137551"><ele>1459.2</ele><time>2026-05-01T12:45:38.001Z</time></trkpt><trkpt lat="44.51595394013589" lon="6.754203159690179"><ele>1459.6</ele><time>2026-05-01T12:45:39.001Z</time></trkpt><trkpt lat="44.515873724315135" lon="6.75415236293798"><ele>1460.0</ele><time>2026-05-01T12:45:40.001Z</time></trkpt><trkpt lat="44.515777724024844" lon="6.754065591648987"><ele>1460.0</ele><time>2026-05-01T12:45:42.001Z</time></trkpt><trkpt lat="44.51573269886613" lon="6.753980278545553"><ele>1460.0</ele><time>2026-05-01T12:45:43.001Z</time></trkpt><trkpt lat="44.515695152556376" lon="6.753878117916882"><ele>1460.0</ele><time>2026-05-01T12:45:44.001Z</time></trkpt><trkpt lat="44.51568176225001" lon="6.753772788178471"><ele>1460.0</ele><time>2026-05-01T12:45:45.001Z</time></trkpt><trkpt lat="44.51566313272878" lon="6.753677890862296"><ele>1460.0</ele><time>2026-05-01T12:45:46.001Z</time></trkpt><trkpt lat="44.51564095101099" lon="6.753574032443365"><ele>1460.0</ele><time>2026-05-01T12:45:47.001Z</time></trkpt><trkpt lat="44.51561896455978" lon="6.7534782830361"><ele>1461.0000000000002</ele><time>2026-05-01T12:45:48.001Z</time></trkpt><trkpt lat="44.51559191844287" lon="6.753376661538342"><ele>1462.0</ele><time>2026-05-01T12:45:49.001Z</time></trkpt><trkpt lat="44.5155422481293" lon="6.753271208535415"><ele>1463.0</ele><time>2026-05-01T12:45:50.001Z</time></trkpt><trkpt lat="44.5155113092234" lon="6.753168367543705"><ele>1464.0</ele><time>2026-05-01T12:45:51.001Z</time></trkpt><trkpt lat="44.515479345386076" lon="6.753080713783531"><ele>1465.0</ele><time>2026-05-01T12:45:52.001Z</time></trkpt><trkpt lat="44.51543895490675" lon="6.753005098324067"><ele>1466.0000000000002</ele><time>2026-05-01T12:45:53.001Z</time></trkpt><trkpt lat="44.515408296685564" lon="6.752925315307592"><ele>1467.0</ele><time>2026-05-01T12:45:54.001Z</time></trkpt><trkpt lat="44.515396547665645" lon="6.752825001553342"><ele>1464.75</ele><time>2026-05-01T12:45:55.001Z</time></trkpt><trkpt lat="44.51536121481132" lon="6.752651740325306"><ele>1462.5</ele><time>2026-05-01T12:45:57.001Z</time></trkpt><trkpt lat="44.51532743312198" lon="6.752507543465297"><ele>1460.25</ele><time>2026-05-01T12:45:59.001Z</time></trkpt><trkpt lat="44.515279366225286" lon="6.752361656999327"><ele>1458.0</ele><time>2026-05-01T12:46:01.001Z</time></trkpt><trkpt lat="44.515248123393235" lon="6.752193441980542"><ele>1458.0</ele><time>2026-05-01T12:46:03.001Z</time></trkpt><trkpt lat="44.515219739982605" lon="6.752105610679668"><ele>1458.0</ele><time>2026-05-01T12:46:04.001Z</time></trkpt><trkpt lat="44.515184236614395" lon="6.752008661484426"><ele>1458.0</ele><time>2026-05-01T12:46:05.001Z</time></trkpt><trkpt lat="44.51513279509103" lon="6.751907652537094"><ele>1458.0</ele><time>2026-05-01T12:46:06.001Z</time></trkpt><trkpt lat="44.51507273332883" lon="6.751835310705848"><ele>1458.0</ele><time>2026-05-01T12:46:07.001Z</time></trkpt><trkpt lat="44.51502443738237" lon="6.751747797682726"><ele>1458.0</ele><time>2026-05-01T12:46:08.001Z</time></trkpt><trkpt lat="44.51498206749904" lon="6.751667517727816"><ele>1459.6666666666667</ele><time>2026-05-01T12:46:09.001Z</time></trkpt><trkpt lat="44.51494407516039" lon="6.75158886083135"><ele>1461.3333333333333</ele><time>2026-05-01T12:46:10.001Z</time></trkpt><trkpt lat="44.51490036342827" lon="6.751493939015354"><ele>1463.0</ele><time>2026-05-01T12:46:11.001Z</time></trkpt><trkpt lat="44.51486227171959" lon="6.751401572862292"><ele>1464.6666666666665</ele><time>2026-05-01T12:46:12.001Z</time></trkpt><trkpt lat="44.51482707246983" lon="6.751305982308388"><ele>1466.3333333333333</ele><time>2026-05-01T12:46:13.001Z</time></trkpt><trkpt lat="44.51480272655037" lon="6.751209203106641"><ele>1468.0</ele><time>2026-05-01T12:46:14.001Z</time></trkpt><trkpt lat="44.51480203923122" lon="6.751007168494837"><ele>1469.0</ele><time>2026-05-01T12:46:16.001Z</time></trkpt><trkpt lat="44.514761205688856" lon="6.750938580779791"><ele>1470.0</ele><time>2026-05-01T12:46:17.001Z</time></trkpt><trkpt lat="44.514736080471025" lon="6.750855558283081"><ele>1471.0</ele><time>2026-05-01T12:46:18.001Z</time></trkpt><trkpt lat="44.5147058433049" lon="6.750755644250395"><ele>1472.0</ele><time>2026-05-01T12:46:19Z</time></trkpt><trkpt lat="44.51467991247606" lon="6.750669752000447"><ele>1473.0</ele><time>2026-05-01T12:46:20Z</time></trkpt><trkpt lat="44.514653409868195" lon="6.750571325372405"><ele>1474.0</ele><time>2026-05-01T12:46:21Z</time></trkpt><trkpt lat="44.5146210257222" lon="6.75044711014743"><ele>1475.0</ele><time>2026-05-01T12:46:22Z</time></trkpt><trkpt lat="44.514578226978756" lon="6.7502910953528925"><ele>1475.3333333333335</ele><time>2026-05-01T12:46:24Z</time></trkpt><trkpt lat="44.51459589451704" lon="6.750200397650509"><ele>1475.6666666666667</ele><time>2026-05-01T12:46:25Z</time></trkpt><trkpt lat="44.51470090618" lon="6.750097604013635"><ele>1476.0</ele><time>2026-05-01T12:46:27Z</time></trkpt><trkpt lat="44.51477062004878" lon="6.750021133354348"><ele>1476.3333333333333</ele><time>2026-05-01T12:46:28Z</time></trkpt><trkpt lat="44.51481214703567" lon="6.749949244315798"><ele>1476.6666666666665</ele><time>2026-05-01T12:46:29Z</time></trkpt><trkpt lat="44.514843840078406" lon="6.7498588585441235"><ele>1477.0</ele><time>2026-05-01T12:46:30Z</time></trkpt><trkpt lat="44.5148793180129" lon="6.749733030683731"><ele>1477.0</ele><time>2026-05-01T12:46:31Z</time></trkpt><trkpt lat="44.51481127646123" lon="6.749612982097204"><ele>1477.0</ele><time>2026-05-01T12:46:32Z</time></trkpt><trkpt lat="44.51478171257541" lon="6.749505089257325"><ele>1477.0</ele><time>2026-05-01T12:46:33Z</time></trkpt><trkpt lat="44.51472206439848" lon="6.749293442766142"><ele>1477.0</ele><time>2026-05-01T12:46:34Z</time></trkpt><trkpt lat="44.514679142630534" lon="6.749115809271382"><ele>1476.3999999999999</ele><time>2026-05-01T12:46:35Z</time></trkpt><trkpt lat="44.514644206724675" lon="6.749021021096743"><ele>1475.8</ele><time>2026-05-01T12:46:36Z</time></trkpt><trkpt lat="44.51459157992546" lon="6.7488641103377605"><ele>1475.2</ele><time>2026-05-01T12:46:38Z</time></trkpt><trkpt lat="44.514554662083505" lon="6.748771868675461"><ele>1474.6</ele><time>2026-05-01T12:46:40Z</time></trkpt><trkpt lat="44.51454236986988" lon="6.7486342442947596"><ele>1474.0</ele><time>2026-05-01T12:46:42Z</time></trkpt><trkpt lat="44.514585740078715" lon="6.7485474954825"><ele>1474.6</ele><time>2026-05-01T12:46:43Z</time></trkpt><trkpt lat="44.514602174848065" lon="6.748429601448667"><ele>1475.2</ele><time>2026-05-01T12:46:44Z</time></trkpt><trkpt lat="44.51460969114537" lon="6.748311576397113"><ele>1475.8</ele><time>2026-05-01T12:46:45Z</time></trkpt><trkpt lat="44.51462597860537" lon="6.748148709946352"><ele>1476.3999999999999</ele><time>2026-05-01T12:46:46Z</time></trkpt><trkpt lat="44.51463330250359" lon="6.747942989662858"><ele>1477.0</ele><time>2026-05-01T12:46:47Z</time></trkpt><trkpt lat="44.51464106911247" lon="6.747726505354515"><ele>1476.75</ele><time>2026-05-01T12:46:48Z</time></trkpt><trkpt lat="44.514668830475934" lon="6.7475418321651786"><ele>1476.5</ele><time>2026-05-01T12:46:49Z</time></trkpt><trkpt lat="44.51469329450879" lon="6.747324653071033"><ele>1476.25</ele><time>2026-05-01T12:46:50Z</time></trkpt><trkpt lat="44.51471427550318" lon="6.747142178762586"><ele>1476.0</ele><time>2026-05-01T12:46:51Z</time></trkpt><trkpt lat="44.51473209072507" lon="6.7469629738535675"><ele>1474.1999999999998</ele><time>2026-05-01T12:46:52Z</time></trkpt><trkpt lat="44.51475131279813" lon="6.74681554787336"><ele>1472.3999999999999</ele><time>2026-05-01T12:46:53.001Z</time></trkpt><trkpt lat="44.51479083971425" lon="6.7466668636402956"><ele>1470.6</ele><time>2026-05-01T12:46:54.001Z</time></trkpt><trkpt lat="44.51484557727151" lon="6.74655441430845"><ele>1468.8</ele><time>2026-05-01T12:46:55.001Z</time></trkpt><trkpt lat="44.51491573169441" lon="6.7464233763663115"><ele>1467.0</ele><time>2026-05-01T12:46:56.001Z</time></trkpt><trkpt lat="44.514999217020076" lon="6.746278185999932"><ele>1467.0</ele><time>2026-05-01T12:46:57.001Z</time></trkpt><trkpt lat="44.51508620249763" lon="6.746135821584821"><ele>1467.0</ele><time>2026-05-01T12:46:58.001Z</time></trkpt><trkpt lat="44.51516934676558" lon="6.7459924752241545"><ele>1467.0</ele><time>2026-05-01T12:46:59.001Z</time></trkpt><trkpt lat="44.5152427122255" lon="6.745822251728593"><ele>1467.0</ele><time>2026-05-01T12:47:00.001Z</time></trkpt><trkpt lat="44.51532479013913" lon="6.74566191454484"><ele>1463.6666666666667</ele><time>2026-05-01T12:47:01.001Z</time></trkpt><trkpt lat="44.51539213522617" lon="6.745479745607546"><ele>1460.3333333333335</ele><time>2026-05-01T12:47:02.001Z</time></trkpt><trkpt lat="44.51545167116656" lon="6.745259543658897"><ele>1457.0</ele><time>2026-05-01T12:47:03.001Z</time></trkpt><trkpt lat="44.51551247923416" lon="6.745067434304794"><ele>1459.3999999999999</ele><time>2026-05-01T12:47:04.001Z</time></trkpt><trkpt lat="44.515552741395965" lon="6.744894337433174"><ele>1461.8</ele><time>2026-05-01T12:47:05.001Z</time></trkpt><trkpt lat="44.515582999098946" lon="6.744759384782215"><ele>1464.2</ele><time>2026-05-01T12:47:06.001Z</time></trkpt><trkpt lat="44.51562855793689" lon="6.744630458453367"><ele>1466.6</ele><time>2026-05-01T12:47:07.001Z</time></trkpt><trkpt lat="44.51566667189491" lon="6.744497637670695"><ele>1469.0</ele><time>2026-05-01T12:47:08.001Z</time></trkpt><trkpt lat="44.5156893811379" lon="6.744366655409929"><ele>1469.0</ele><time>2026-05-01T12:47:09.001Z</time></trkpt><trkpt lat="44.51567022427931" lon="6.744247166536638"><ele>1469.0</ele><time>2026-05-01T12:47:10.001Z</time></trkpt><trkpt lat="44.515592929220674" lon="6.744126685186122"><ele>1469.0</ele><time>2026-05-01T12:47:11.001Z</time></trkpt><trkpt lat="44.515530422712686" lon="6.744057533885752"><ele>1469.0</ele><time>2026-05-01T12:47:12.001Z</time></trkpt><trkpt lat="44.51540349891426" lon="6.74394989382004"><ele>1469.0</ele><time>2026-05-01T12:47:13.001Z</time></trkpt><trkpt lat="44.51529032972725" lon="6.743941603293569"><ele>1468.0</ele><time>2026-05-01T12:47:14.001Z</time></trkpt><trkpt lat="44.515149794706474" lon="6.743947449308364"><ele>1467.0</ele><time>2026-05-01T12:47:15.001Z</time></trkpt><trkpt lat="44.51499379690877" lon="6.743957044290277"><ele>1466.0</ele><time>2026-05-01T12:47:16.001Z</time></trkpt><trkpt lat="44.514801506992065" lon="6.743985490833998"><ele>1466.0</ele><time>2026-05-01T12:47:17.001Z</time></trkpt><trkpt lat="44.51459565130749" lon="6.743982166083287"><ele>1466.0</ele><time>2026-05-01T12:47:18.001Z</time></trkpt><trkpt lat="44.514381803763996" lon="6.744012151638968"><ele>1466.0</ele><time>2026-05-01T12:47:19.001Z</time></trkpt><trkpt lat="44.51413720031396" lon="6.74403052685446"><ele>1465.3333333333335</ele><time>2026-05-01T12:47:20.001Z</time></trkpt><trkpt lat="44.513902728457836" lon="6.744048526893181"><ele>1464.6666666666667</ele><time>2026-05-01T12:47:21.001Z</time></trkpt><trkpt lat="44.513700019210255" lon="6.744065586434658"><ele>1464.0</ele><time>2026-05-01T12:47:22.001Z</time></trkpt><trkpt lat="44.51348858949227" lon="6.744083371249616"><ele>1464.6666666666667</ele><time>2026-05-01T12:47:23.001Z</time></trkpt><trkpt lat="44.5132851109323" lon="6.744100487327797"><ele>1465.3333333333335</ele><time>2026-05-01T12:47:24.001Z</time></trkpt><trkpt lat="44.513087313612814" lon="6.744117125474335"><ele>1466.0</ele><time>2026-05-01T12:47:25.001Z</time></trkpt><trkpt lat="44.51288477168461" lon="6.744128367289596"><ele>1466.0</ele><time>2026-05-01T12:47:26.001Z</time></trkpt><trkpt lat="44.51270435100137" lon="6.74417143684976"><ele>1466.0</ele><time>2026-05-01T12:47:27.001Z</time></trkpt><trkpt lat="44.512524551592314" lon="6.74420415022188"><ele>1466.0</ele><time>2026-05-01T12:47:28.001Z</time></trkpt><trkpt lat="44.51236253970907" lon="6.744233471325073"><ele>1466.0</ele><time>2026-05-01T12:47:29.001Z</time></trkpt><trkpt lat="44.51218900416486" lon="6.744280892872161"><ele>1466.0</ele><time>2026-05-01T12:47:30.001Z</time></trkpt><trkpt lat="44.512048188452766" lon="6.744267008107516"><ele>1466.0</ele><time>2026-05-01T12:47:31.001Z</time></trkpt><trkpt lat="44.51191252529636" lon="6.744231024409899"><ele>1464.0</ele><time>2026-05-01T12:47:32.001Z</time></trkpt><trkpt lat="44.51175694063598" lon="6.744199260519871"><ele>1462.0</ele><time>2026-05-01T12:47:33.001Z</time></trkpt><trkpt lat="44.51160363749953" lon="6.744178983532232"><ele>1460.0</ele><time>2026-05-01T12:47:34.001Z</time></trkpt><trkpt lat="44.511459510753674" lon="6.744192961768837"><ele>1460.0</ele><time>2026-05-01T12:47:35.001Z</time></trkpt><trkpt lat="44.51131940527264" lon="6.744200800914803"><ele>1460.0</ele><time>2026-05-01T12:47:36.001Z</time></trkpt><trkpt lat="44.51117662180364" lon="6.744277211453029"><ele>1460.0</ele><time>2026-05-01T12:47:37.001Z</time></trkpt><trkpt lat="44.511046720096076" lon="6.744368381215021"><ele>1460.0</ele><time>2026-05-01T12:47:38.001Z</time></trkpt><trkpt lat="44.51091587100111" lon="6.744480584435126"><ele>1452.0</ele><time>2026-05-01T12:47:39.001Z</time></trkpt><trkpt lat="44.51078912660639" lon="6.744618766894395"><ele>1444.0</ele><time>2026-05-01T12:47:40.001Z</time></trkpt><trkpt lat="44.51064357318167" lon="6.744784709077089"><ele>1436.0</ele><time>2026-05-01T12:47:41.001Z</time></trkpt><trkpt lat="44.51050844158484" lon="6.744977704460732"><ele>1436.0</ele><time>2026-05-01T12:47:42.001Z</time></trkpt><trkpt lat="44.51042855112475" lon="6.74516171169094"><ele>1436.0</ele><time>2026-05-01T12:47:43.001Z</time></trkpt><trkpt lat="44.51038713279729" lon="6.745364855442482"><ele>1436.0</ele><time>2026-05-01T12:47:44.001Z</time></trkpt><trkpt lat="44.510341817413725" lon="6.74554458023059"><ele>1436.0</ele><time>2026-05-01T12:47:45.001Z</time></trkpt><trkpt lat="44.51030926524844" lon="6.745721881657475"><ele>1436.0</ele><time>2026-05-01T12:47:46.001Z</time></trkpt><trkpt lat="44.51027483680846" lon="6.745953350774704"><ele>1436.0</ele><time>2026-05-01T12:47:47.001Z</time></trkpt><trkpt lat="44.51023128476844" lon="6.74614470081842"><ele>1436.0</ele><time>2026-05-01T12:47:48.001Z</time></trkpt><trkpt lat="44.510200708498154" lon="6.746318818125676"><ele>1436.0</ele><time>2026-05-01T12:47:49.001Z</time></trkpt><trkpt lat="44.51013592820134" lon="6.746490133537866"><ele>1432.5</ele><time>2026-05-01T12:47:50.001Z</time></trkpt><trkpt lat="44.510034366222555" lon="6.746591905949119"><ele>1429.0</ele><time>2026-05-01T12:47:51.001Z</time></trkpt><trkpt lat="44.50991571335421" lon="6.746674526268148"><ele>1425.5</ele><time>2026-05-01T12:47:52.001Z</time></trkpt><trkpt lat="44.509794570386504" lon="6.74668422086675"><ele>1422.0</ele><time>2026-05-01T12:47:53.001Z</time></trkpt><trkpt lat="44.509691922030505" lon="6.7466548507130915"><ele>1420.3333333333333</ele><time>2026-05-01T12:47:54.001Z</time></trkpt><trkpt lat="44.50957100758118" lon="6.746594664246974"><ele>1418.6666666666665</ele><time>2026-05-01T12:47:55.001Z</time></trkpt><trkpt lat="44.5093872995886" lon="6.746527119003123"><ele>1417.0</ele><time>2026-05-01T12:47:56.001Z</time></trkpt><trkpt lat="44.509200899505736" lon="6.74645965918595"><ele>1417.0</ele><time>2026-05-01T12:47:57.001Z</time></trkpt><trkpt lat="44.50901424498314" lon="6.7463925576336905"><ele>1417.0</ele><time>2026-05-01T12:47:58.001Z</time></trkpt><trkpt lat="44.50885137155799" lon="6.746334836119542"><ele>1417.0</ele><time>2026-05-01T12:47:59.001Z</time></trkpt><trkpt lat="44.508681538688904" lon="6.746298141306395"><ele>1429.6666666666665</ele><time>2026-05-01T12:48:00.001Z</time></trkpt><trkpt lat="44.50851323803218" lon="6.746234029239481"><ele>1442.3333333333333</ele><time>2026-05-01T12:48:01.022Z</time></trkpt><trkpt lat="44.50835493253773" lon="6.746176770712493"><ele>1455.0</ele><time>2026-05-01T12:48:02.015Z</time></trkpt><trkpt lat="44.50820360392634" lon="6.746124974992184"><ele>1455.0</ele><time>2026-05-01T12:48:03.026Z</time></trkpt><trkpt lat="44.50805110466693" lon="6.746064713200219"><ele>1455.0</ele><time>2026-05-01T12:48:04.021Z</time></trkpt><trkpt lat="44.507882029251064" lon="6.7459971137386505"><ele>1455.0</ele><time>2026-05-01T12:48:05.021Z</time></trkpt><trkpt lat="44.506094092544636" lon="6.745413187897527"><ele>1455.5</ele><time>2026-05-01T12:48:12.001Z</time></trkpt><trkpt lat="44.50586823086325" lon="6.745332069028014"><ele>1456.0</ele><time>2026-05-01T12:48:13.001Z</time></trkpt><trkpt lat="44.505644501149334" lon="6.745194850387821"><ele>1445.0</ele><time>2026-05-01T12:48:14.001Z</time></trkpt><trkpt lat="44.505431065070724" lon="6.745111737570912"><ele>1434.0</ele><time>2026-05-01T12:48:15.001Z</time></trkpt><trkpt lat="44.50526975756796" lon="6.7450419482827995"><ele>1423.0</ele><time>2026-05-01T12:48:16.001Z</time></trkpt><trkpt lat="44.50507615014996" lon="6.7449671419718955"><ele>1418.8000000000002</ele><time>2026-05-01T12:48:17.001Z</time></trkpt><trkpt lat="44.50501824112343" lon="6.7449312754238075"><ele>1414.6</ele><time>2026-05-01T12:48:18.001Z</time></trkpt><trkpt lat="44.50493016899437" lon="6.744845982689943"><ele>1410.4</ele><time>2026-05-01T12:48:19.001Z</time></trkpt><trkpt lat="44.50483321739124" lon="6.744726114185533"><ele>1406.1999999999998</ele><time>2026-05-01T12:48:20.001Z</time></trkpt><trkpt lat="44.504754228490754" lon="6.7445941063373365"><ele>1402.0</ele><time>2026-05-01T12:48:21.015Z</time></trkpt><trkpt lat="44.50469366022763" lon="6.744465005100383"><ele>1418.0</ele><time>2026-05-01T12:48:22.014Z</time></trkpt><trkpt lat="44.504599639666054" lon="6.74432157938264"><ele>1434.0</ele><time>2026-05-01T12:48:23.013Z</time></trkpt><trkpt lat="44.50382989865338" lon="6.744637874355701"><ele>1413.0</ele><time>2026-05-01T12:48:25.014Z</time></trkpt><trkpt lat="44.50316952079954" lon="6.742802057421526"><ele>1414.75</ele><time>2026-05-01T12:48:40.001Z</time></trkpt><trkpt lat="44.50309109022502" lon="6.742678117768886"><ele>1416.5</ele><time>2026-05-01T12:48:41.001Z</time></trkpt><trkpt lat="44.5030489758497" lon="6.742471570078129"><ele>1418.25</ele><time>2026-05-01T12:48:42.001Z</time></trkpt><trkpt lat="44.50297724356246" lon="6.742310263176673"><ele>1420.0</ele><time>2026-05-01T12:48:43.001Z</time></trkpt><trkpt lat="44.50290673987847" lon="6.74218949295528"><ele>1413.6666666666665</ele><time>2026-05-01T12:48:44.001Z</time></trkpt><trkpt lat="44.50289479712456" lon="6.742004355279535"><ele>1407.3333333333333</ele><time>2026-05-01T12:48:45.001Z</time></trkpt><trkpt lat="44.502852318272325" lon="6.741706851283961"><ele>1401.0</ele><time>2026-05-01T12:48:46.001Z</time></trkpt><trkpt lat="44.50279381143371" lon="6.74134968060374"><ele>1397.6666666666667</ele><time>2026-05-01T12:48:47.001Z</time></trkpt><trkpt lat="44.5027271731959" lon="6.741150244360992"><ele>1394.3333333333335</ele><time>2026-05-01T12:48:48.001Z</time></trkpt><trkpt lat="44.50263639106453" lon="6.740946957642376"><ele>1391.0</ele><time>2026-05-01T12:48:49.001Z</time></trkpt><trkpt lat="44.50245887150173" lon="6.740845755905271"><ele>1389.0</ele><time>2026-05-01T12:48:50.001Z</time></trkpt><trkpt lat="44.50231933479144" lon="6.740751781834051"><ele>1387.0</ele><time>2026-05-01T12:48:51.001Z</time></trkpt><trkpt lat="44.50222887243603" lon="6.7405792184727"><ele>1385.0</ele><time>2026-05-01T12:48:52.001Z</time></trkpt><trkpt lat="44.50207713742882" lon="6.7405169490432275"><ele>1385.0</ele><time>2026-05-01T12:48:53Z</time></trkpt><trkpt lat="44.50189302240194" lon="6.740466445435995"><ele>1385.0</ele><time>2026-05-01T12:48:54Z</time></trkpt><trkpt lat="44.50168801560129" lon="6.740491919051733"><ele>1385.0</ele><time>2026-05-01T12:48:55Z</time></trkpt><trkpt lat="44.501476619261624" lon="6.740480315360802"><ele>1385.0</ele><time>2026-05-01T12:48:56Z</time></trkpt><trkpt lat="44.50125813878241" lon="6.740500540154048"><ele>1385.0</ele><time>2026-05-01T12:48:57Z</time></trkpt><trkpt lat="44.501067520931116" lon="6.74049952543192"><ele>1385.0</ele><time>2026-05-01T12:48:58Z</time></trkpt><trkpt lat="44.500875745207274" lon="6.74048322915278"><ele>1384.6666666666667</ele><time>2026-05-01T12:48:59Z</time></trkpt><trkpt lat="44.50068800270521" lon="6.740436281332175"><ele>1384.3333333333333</ele><time>2026-05-01T12:49:00Z</time></trkpt><trkpt lat="44.50051722476588" lon="6.740302995555161"><ele>1384.0</ele><time>2026-05-01T12:49:01Z</time></trkpt><trkpt lat="44.50033498566136" lon="6.740173332279665"><ele>1383.0</ele><time>2026-05-01T12:49:02Z</time></trkpt><trkpt lat="44.5001633567295" lon="6.740040681755968"><ele>1382.0</ele><time>2026-05-01T12:49:03Z</time></trkpt><trkpt lat="44.500007108964894" lon="6.739902435487807"><ele>1381.0</ele><time>2026-05-01T12:49:04Z</time></trkpt><trkpt lat="44.49985848424453" lon="6.739765996205819"><ele>1381.0</ele><time>2026-05-01T12:49:05Z</time></trkpt><trkpt lat="44.4997175119892" lon="6.739635333797855"><ele>1381.0</ele><time>2026-05-01T12:49:06Z</time></trkpt><trkpt lat="44.49957386175238" lon="6.739519114146509"><ele>1381.0</ele><time>2026-05-01T12:49:07Z</time></trkpt><trkpt lat="44.49942421033668" lon="6.73942099532535"><ele>1384.6666666666665</ele><time>2026-05-01T12:49:08Z</time></trkpt><trkpt lat="44.49928112644011" lon="6.739355734908813"><ele>1388.3333333333333</ele><time>2026-05-01T12:49:09Z</time></trkpt><trkpt lat="44.49911206497805" lon="6.739300412585148"><ele>1392.0</ele><time>2026-05-01T12:49:10Z</time></trkpt><trkpt lat="44.49891123960931" lon="6.739255858273805"><ele>1392.0</ele><time>2026-05-01T12:49:11Z</time></trkpt><trkpt lat="44.4987539067226" lon="6.739211858946326"><ele>1392.0</ele><time>2026-05-01T12:49:12Z</time></trkpt><trkpt lat="44.498588826337475" lon="6.739172729115738"><ele>1392.0</ele><time>2026-05-01T12:49:13Z</time></trkpt><trkpt lat="44.498432203679954" lon="6.739155535116026"><ele>1391.0</ele><time>2026-05-01T12:49:14Z</time></trkpt><trkpt lat="44.498267325769824" lon="6.739173772675344"><ele>1390.0</ele><time>2026-05-01T12:49:15Z</time></trkpt><trkpt lat="44.49814314102206" lon="6.739095998254531"><ele>1389.0</ele><time>2026-05-01T12:49:16Z</time></trkpt><trkpt lat="44.49792255241462" lon="6.739038504316656"><ele>1389.0</ele><time>2026-05-01T12:49:17Z</time></trkpt><trkpt lat="44.49776092331333" lon="6.739337426581918"><ele>1389.0</ele><time>2026-05-01T12:49:18Z</time></trkpt><trkpt lat="44.49758596741511" lon="6.739451093807579"><ele>1382.0</ele><time>2026-05-01T12:49:19Z</time></trkpt><trkpt lat="44.49739743790007" lon="6.73967608781472"><ele>1375.0</ele><time>2026-05-01T12:49:20Z</time></trkpt><trkpt lat="44.4972111689083" lon="6.73985454294285"><ele>1377.3333333333333</ele><time>2026-05-01T12:49:21Z</time></trkpt><trkpt lat="44.49700783794553" lon="6.73996687732076"><ele>1379.6666666666667</ele><time>2026-05-01T12:49:22Z</time></trkpt><trkpt lat="44.49681990028198" lon="6.740120274577338"><ele>1382.0</ele><time>2026-05-01T12:49:23Z</time></trkpt><trkpt lat="44.496622185167325" lon="6.740280353924577"><ele>1379.0</ele><time>2026-05-01T12:49:24Z</time></trkpt><trkpt lat="44.4964419977277" lon="6.740425122088393"><ele>1376.0</ele><time>2026-05-01T12:49:25Z</time></trkpt><trkpt lat="44.49627840631946" lon="6.740546558103283"><ele>1373.0</ele><time>2026-05-01T12:49:26Z</time></trkpt><trkpt lat="44.49610301510553" lon="6.740652623793713"><ele>1373.0</ele><time>2026-05-01T12:49:27Z</time></trkpt><trkpt lat="44.49594329118373" lon="6.7407382782223975"><ele>1373.0</ele><time>2026-05-01T12:49:28Z</time></trkpt><trkpt lat="44.4957322643296" lon="6.7408142980075345"><ele>1373.0</ele><time>2026-05-01T12:49:29Z</time></trkpt><trkpt lat="44.4955253747466" lon="6.740878284577556"><ele>1373.6666666666667</ele><time>2026-05-01T12:49:30Z</time></trkpt><trkpt lat="44.495321935314884" lon="6.740940829589384"><ele>1374.3333333333333</ele><time>2026-05-01T12:49:31Z</time></trkpt><trkpt lat="44.49512915376756" lon="6.741000098257729"><ele>1375.0</ele><time>2026-05-01T12:49:32Z</time></trkpt><trkpt lat="44.494941351914754" lon="6.7410558611434235"><ele>1371.3333333333333</ele><time>2026-05-01T12:49:33Z</time></trkpt><trkpt lat="44.49474215832462" lon="6.7411140497460025"><ele>1367.6666666666667</ele><time>2026-05-01T12:49:34Z</time></trkpt><trkpt lat="44.49455625431841" lon="6.741169172872927"><ele>1364.0</ele><time>2026-05-01T12:49:35Z</time></trkpt><trkpt lat="44.494343910279056" lon="6.741234105337062"><ele>1364.0</ele><time>2026-05-01T12:49:36Z</time></trkpt><trkpt lat="44.49414605543239" lon="6.741301424731273"><ele>1364.0</ele><time>2026-05-01T12:49:37Z</time></trkpt><trkpt lat="44.49396089346201" lon="6.74137386453792"><ele>1364.0</ele><time>2026-05-01T12:49:38.001Z</time></trkpt><trkpt lat="44.493781230499465" lon="6.741459031705741"><ele>1365.0</ele><time>2026-05-01T12:49:39.001Z</time></trkpt><trkpt lat="44.49361206529607" lon="6.741556879206759"><ele>1366.0</ele><time>2026-05-01T12:49:40.001Z</time></trkpt><trkpt lat="44.49342348689726" lon="6.7416650407448655"><ele>1367.0</ele><time>2026-05-01T12:49:41.001Z</time></trkpt><trkpt lat="44.4932622958449" lon="6.741774294489423"><ele>1367.0</ele><time>2026-05-01T12:49:42.001Z</time></trkpt><trkpt lat="44.49310358864974" lon="6.741880295295798"><ele>1367.0</ele><time>2026-05-01T12:49:43.001Z</time></trkpt><trkpt lat="44.49293857811987" lon="6.741970653854156"><ele>1367.0</ele><time>2026-05-01T12:49:44.001Z</time></trkpt><trkpt lat="44.492774144174504" lon="6.742043586226522"><ele>1365.0</ele><time>2026-05-01T12:49:45.001Z</time></trkpt><trkpt lat="44.49258422870582" lon="6.742070764713426"><ele>1363.0</ele><time>2026-05-01T12:49:46.001Z</time></trkpt><trkpt lat="44.49240886770213" lon="6.742075889592521"><ele>1361.0</ele><time>2026-05-01T12:49:47.001Z</time></trkpt><trkpt lat="44.49222957088383" lon="6.742074845671317"><ele>1360.0</ele><time>2026-05-01T12:49:48.001Z</time></trkpt><trkpt lat="44.492017539529016" lon="6.742074845665928"><ele>1359.0</ele><time>2026-05-01T12:49:49.001Z</time></trkpt><trkpt lat="44.49183132082763" lon="6.742100008323273"><ele>1358.0</ele><time>2026-05-01T12:49:50.001Z</time></trkpt><trkpt lat="44.491634340903744" lon="6.742085146693324"><ele>1358.0</ele><time>2026-05-01T12:49:51.001Z</time></trkpt><trkpt lat="44.49147148140282" lon="6.742102407663218"><ele>1358.0</ele><time>2026-05-01T12:49:52.001Z</time></trkpt><trkpt lat="44.4913239331733" lon="6.742175072081924"><ele>1358.0</ele><time>2026-05-01T12:49:53.001Z</time></trkpt><trkpt lat="44.49118907573903" lon="6.742268724704113"><ele>1359.3333333333335</ele><time>2026-05-01T12:49:54.001Z</time></trkpt><trkpt lat="44.491045300041726" lon="6.742357742263869"><ele>1360.6666666666667</ele><time>2026-05-01T12:49:55.001Z</time></trkpt><trkpt lat="44.49090489599252" lon="6.742443797534975"><ele>1362.0</ele><time>2026-05-01T12:49:56.001Z</time></trkpt><trkpt lat="44.49079342473065" lon="6.742592127836245"><ele>1358.6666666666667</ele><time>2026-05-01T12:49:57.001Z</time></trkpt><trkpt lat="44.4906393325906" lon="6.742747685681339"><ele>1355.3333333333335</ele><time>2026-05-01T12:49:58.001Z</time></trkpt><trkpt lat="44.490475005999784" lon="6.742922824021153"><ele>1352.0</ele><time>2026-05-01T12:49:59.001Z</time></trkpt><trkpt lat="44.49034596514222" lon="6.743031755197715"><ele>1352.0</ele><time>2026-05-01T12:50:00.001Z</time></trkpt><trkpt lat="44.49020890475237" lon="6.743115487281028"><ele>1352.0</ele><time>2026-05-01T12:50:01.001Z</time></trkpt><trkpt lat="44.490053107498284" lon="6.74318382543343"><ele>1352.0</ele><time>2026-05-01T12:50:02.001Z</time></trkpt><trkpt lat="44.4898788368546" lon="6.743214289237838"><ele>1352.0</ele><time>2026-05-01T12:50:03.001Z</time></trkpt><trkpt lat="44.489715525325956" lon="6.74327189687441"><ele>1352.0</ele><time>2026-05-01T12:50:04.001Z</time></trkpt><trkpt lat="44.48956030184019" lon="6.743308577239038"><ele>1352.0</ele><time>2026-05-01T12:50:05.001Z</time></trkpt><trkpt lat="44.489405487675214" lon="6.743394086424578"><ele>1351.0</ele><time>2026-05-01T12:50:06.001Z</time></trkpt><trkpt lat="44.489240583811906" lon="6.743529968552086"><ele>1350.0</ele><time>2026-05-01T12:50:07.001Z</time></trkpt><trkpt lat="44.4891150893597" lon="6.743689224616795"><ele>1349.0</ele><time>2026-05-01T12:50:08.001Z</time></trkpt><trkpt lat="44.48901359051487" lon="6.743880611404296"><ele>1349.0</ele><time>2026-05-01T12:50:09.001Z</time></trkpt><trkpt lat="44.48891091602393" lon="6.744100018678881"><ele>1349.0</ele><time>2026-05-01T12:50:10.001Z</time></trkpt><trkpt lat="44.48880385442636" lon="6.744307557558127"><ele>1349.0</ele><time>2026-05-01T12:50:11.001Z</time></trkpt><trkpt lat="44.48868359231616" lon="6.744509386176575"><ele>1351.3333333333335</ele><time>2026-05-01T12:50:12.001Z</time></trkpt><trkpt lat="44.48857742387221" lon="6.744742521535562"><ele>1353.6666666666667</ele><time>2026-05-01T12:50:13.001Z</time></trkpt><trkpt lat="44.4884626870477" lon="6.744945237036621"><ele>1356.0</ele><time>2026-05-01T12:50:14.001Z</time></trkpt><trkpt lat="44.48832463674267" lon="6.745129936360039"><ele>1353.0</ele><time>2026-05-01T12:50:15.001Z</time></trkpt><trkpt lat="44.488185452925116" lon="6.745292265233598"><ele>1350.0</ele><time>2026-05-01T12:50:16.001Z</time></trkpt><trkpt lat="44.488036393466444" lon="6.745423482777535"><ele>1347.0</ele><time>2026-05-01T12:50:17.001Z</time></trkpt><trkpt lat="44.487884098600375" lon="6.745537451460949"><ele>1347.0</ele><time>2026-05-01T12:50:18.001Z</time></trkpt><trkpt lat="44.48773093624181" lon="6.745630971959012"><ele>1347.0</ele><time>2026-05-01T12:50:19.001Z</time></trkpt><trkpt lat="44.48755343930695" lon="6.745728110265679"><ele>1347.0</ele><time>2026-05-01T12:50:20.001Z</time></trkpt><trkpt lat="44.487377020013376" lon="6.745821483162134"><ele>1347.0</ele><time>2026-05-01T12:50:21.001Z</time></trkpt><trkpt lat="44.487205387597236" lon="6.745930207402906"><ele>1347.0</ele><time>2026-05-01T12:50:22.001Z</time></trkpt><trkpt lat="44.48705844760261" lon="6.746054324855676"><ele>1347.0</ele><time>2026-05-01T12:50:23.001Z</time></trkpt><trkpt lat="44.486912358682886" lon="6.746212744146306"><ele>1345.3333333333333</ele><time>2026-05-01T12:50:24.001Z</time></trkpt><trkpt lat="44.4867704890552" lon="6.746412235488813"><ele>1343.6666666666665</ele><time>2026-05-01T12:50:25.001Z</time></trkpt><trkpt lat="44.48661943372071" lon="6.746590902612921"><ele>1342.0</ele><time>2026-05-01T12:50:26.001Z</time></trkpt><trkpt lat="44.486477171986024" lon="6.746848159837185"><ele>1341.3333333333333</ele><time>2026-05-01T12:50:27.001Z</time></trkpt><trkpt lat="44.48635180310237" lon="6.747042977212084"><ele>1340.6666666666667</ele><time>2026-05-01T12:50:28.001Z</time></trkpt><trkpt lat="44.48623133608969" lon="6.747243946479831"><ele>1340.0</ele><time>2026-05-01T12:50:29.001Z</time></trkpt><trkpt lat="44.48612733678495" lon="6.747394406295598"><ele>1340.0</ele><time>2026-05-01T12:50:30.001Z</time></trkpt><trkpt lat="44.48602297562012" lon="6.747458239661478"><ele>1340.0</ele><time>2026-05-01T12:50:31.001Z</time></trkpt><trkpt lat="44.48590203388045" lon="6.74752554795606"><ele>1340.0</ele><time>2026-05-01T12:50:32.001Z</time></trkpt><trkpt lat="44.485786571060736" lon="6.747554853944947"><ele>1340.0</ele><time>2026-05-01T12:50:33.001Z</time></trkpt><trkpt lat="44.48562398148496" lon="6.747606373275962"><ele>1337.5</ele><time>2026-05-01T12:50:34.001Z</time></trkpt><trkpt lat="44.485428094981415" lon="6.747673766899273"><ele>1335.0</ele><time>2026-05-01T12:50:35.001Z</time></trkpt><trkpt lat="44.48514357142558" lon="6.747843028501511"><ele>1335.0</ele><time>2026-05-01T12:50:36.001Z</time></trkpt><trkpt lat="44.48495854628329" lon="6.748001588910508"><ele>1335.0</ele><time>2026-05-01T12:50:37.001Z</time></trkpt><trkpt lat="44.4847762700167" lon="6.748109086825094"><ele>1335.0</ele><time>2026-05-01T12:50:38.001Z</time></trkpt><trkpt lat="44.484599133072265" lon="6.748225402566452"><ele>1334.3333333333333</ele><time>2026-05-01T12:50:39.001Z</time></trkpt><trkpt lat="44.48440521994697" lon="6.748353972266744"><ele>1333.6666666666665</ele><time>2026-05-01T12:50:40.001Z</time></trkpt><trkpt lat="44.484256320626066" lon="6.748496124860299"><ele>1333.0</ele><time>2026-05-01T12:50:41.001Z</time></trkpt><trkpt lat="44.48410066871602" lon="6.748647323377126"><ele>1333.0</ele><time>2026-05-01T12:50:42.001Z</time></trkpt><trkpt lat="44.483962663345174" lon="6.7488632620274025"><ele>1333.0</ele><time>2026-05-01T12:50:43.001Z</time></trkpt><trkpt lat="44.48384261272492" lon="6.749044805003196"><ele>1333.0</ele><time>2026-05-01T12:50:44.001Z</time></trkpt><trkpt lat="44.48370633121962" lon="6.749319633491805"><ele>1332.0</ele><time>2026-05-01T12:50:45.001Z</time></trkpt><trkpt lat="44.483573605989555" lon="6.74953089964663"><ele>1331.0</ele><time>2026-05-01T12:50:46.001Z</time></trkpt><trkpt lat="44.483444434334544" lon="6.74967469115854"><ele>1330.0</ele><time>2026-05-01T12:50:47.001Z</time></trkpt><trkpt lat="44.48328856837494" lon="6.749832504829189"><ele>1330.0</ele><time>2026-05-01T12:50:48.001Z</time></trkpt><trkpt lat="44.48310785405105" lon="6.750012249512263"><ele>1330.0</ele><time>2026-05-01T12:50:49.001Z</time></trkpt><trkpt lat="44.48292456167005" lon="6.75019804170096"><ele>1330.0</ele><time>2026-05-01T12:50:50.001Z</time></trkpt><trkpt lat="44.48274149854208" lon="6.750390653428664"><ele>1330.0</ele><time>2026-05-01T12:50:51.001Z</time></trkpt><trkpt lat="44.48256820553105" lon="6.750583279023199"><ele>1330.0</ele><time>2026-05-01T12:50:52.001Z</time></trkpt><trkpt lat="44.48239548679357" lon="6.750779538313365"><ele>1330.0</ele><time>2026-05-01T12:50:53.001Z</time></trkpt><trkpt lat="44.482234294783524" lon="6.750962120045485"><ele>1331.6666666666665</ele><time>2026-05-01T12:50:54.001Z</time></trkpt><trkpt lat="44.48207707564003" lon="6.751136364180298"><ele>1333.3333333333333</ele><time>2026-05-01T12:50:55Z</time></trkpt><trkpt lat="44.481910394474696" lon="6.751313894651793"><ele>1335.0</ele><time>2026-05-01T12:50:56Z</time></trkpt><trkpt lat="44.48174529396431" lon="6.751494127067225"><ele>1335.0</ele><time>2026-05-01T12:50:57Z</time></trkpt><trkpt lat="44.48159156753078" lon="6.751673724369677"><ele>1335.0</ele><time>2026-05-01T12:50:58Z</time></trkpt><trkpt lat="44.481447103893004" lon="6.751910102601359"><ele>1335.0</ele><time>2026-05-01T12:50:59Z</time></trkpt><trkpt lat="44.4812773618714" lon="6.75215259039286"><ele>1338.3333333333333</ele><time>2026-05-01T12:51:00Z</time></trkpt><trkpt lat="44.481126164069416" lon="6.752389584850567"><ele>1341.6666666666665</ele><time>2026-05-01T12:51:01Z</time></trkpt><trkpt lat="44.480987026593496" lon="6.75262134043998"><ele>1345.0</ele><time>2026-05-01T12:51:02Z</time></trkpt><trkpt lat="44.480856352281435" lon="6.752822600504962"><ele>1338.3333333333333</ele><time>2026-05-01T12:51:03Z</time></trkpt><trkpt lat="44.48073360845873" lon="6.753022828679336"><ele>1331.6666666666667</ele><time>2026-05-01T12:51:04Z</time></trkpt><trkpt lat="44.480631132624325" lon="6.753238976904376"><ele>1325.0</ele><time>2026-05-01T12:51:05Z</time></trkpt><trkpt lat="44.480533081594984" lon="6.753445441300462"><ele>1325.0</ele><time>2026-05-01T12:51:06Z</time></trkpt><trkpt lat="44.48046704621009" lon="6.753673029983029"><ele>1325.0</ele><time>2026-05-01T12:51:07Z</time></trkpt><trkpt lat="44.48039255060492" lon="6.753929900069664"><ele>1325.0</ele><time>2026-05-01T12:51:08Z</time></trkpt><trkpt lat="44.48037000422124" lon="6.754249214128225"><ele>1321.5</ele><time>2026-05-01T12:51:09Z</time></trkpt><trkpt lat="44.48031991018203" lon="6.754587346448619"><ele>1318.0</ele><time>2026-05-01T12:51:10Z</time></trkpt><trkpt lat="44.48022446204507" lon="6.7549416306266"><ele>1322.0</ele><time>2026-05-01T12:51:11Z</time></trkpt><trkpt lat="44.480126979359454" lon="6.755229015379213"><ele>1326.0</ele><time>2026-05-01T12:51:12Z</time></trkpt><trkpt lat="44.4800102330862" lon="6.7555142910134345"><ele>1326.0</ele><time>2026-05-01T12:51:13Z</time></trkpt><trkpt lat="44.47987063153666" lon="6.755789398455496"><ele>1326.0</ele><time>2026-05-01T12:51:14Z</time></trkpt><trkpt lat="44.47972562269817" lon="6.756023335137875"><ele>1324.0</ele><time>2026-05-01T12:51:15Z</time></trkpt><trkpt lat="44.47955784279162" lon="6.756248811279088"><ele>1322.0</ele><time>2026-05-01T12:51:16Z</time></trkpt><trkpt lat="44.479381638149206" lon="6.75644781428527"><ele>1322.0</ele><time>2026-05-01T12:51:17Z</time></trkpt><trkpt lat="44.479205364659386" lon="6.756629004568478"><ele>1322.0</ele><time>2026-05-01T12:51:18Z</time></trkpt><trkpt lat="44.47901935529835" lon="6.756808415729685"><ele>1322.0</ele><time>2026-05-01T12:51:19Z</time></trkpt><trkpt lat="44.47882028444729" lon="6.756997945945337"><ele>1318.5</ele><time>2026-05-01T12:51:20Z</time></trkpt><trkpt lat="44.47862676562685" lon="6.757196832947706"><ele>1315.0</ele><time>2026-05-01T12:51:21Z</time></trkpt><trkpt lat="44.47843539864549" lon="6.75741922650431"><ele>1315.0</ele><time>2026-05-01T12:51:22Z</time></trkpt><trkpt lat="44.47826323688906" lon="6.757616349336168"><ele>1315.0</ele><time>2026-05-01T12:51:23Z</time></trkpt><trkpt lat="44.47811602144318" lon="6.757855456823188"><ele>1315.0</ele><time>2026-05-01T12:51:24Z</time></trkpt><trkpt lat="44.4779495427782" lon="6.758079178031485"><ele>1312.0</ele><time>2026-05-01T12:51:25Z</time></trkpt><trkpt lat="44.477790785968345" lon="6.758336221591623"><ele>1309.0</ele><time>2026-05-01T12:51:26Z</time></trkpt><trkpt lat="44.47766357857042" lon="6.758613837917309"><ele>1309.0</ele><time>2026-05-01T12:51:27Z</time></trkpt><trkpt lat="44.47753157497794" lon="6.758878304941566"><ele>1309.0</ele><time>2026-05-01T12:51:28Z</time></trkpt><trkpt lat="44.47742867016383" lon="6.759148514291482"><ele>1309.0</ele><time>2026-05-01T12:51:29Z</time></trkpt><trkpt lat="44.47732535784978" lon="6.7594054964829775"><ele>1308.6666666666665</ele><time>2026-05-01T12:51:30Z</time></trkpt><trkpt lat="44.47721575642997" lon="6.759638572637408"><ele>1308.3333333333333</ele><time>2026-05-01T12:51:31Z</time></trkpt><trkpt lat="44.47710870391328" lon="6.759855051751582"><ele>1308.0</ele><time>2026-05-01T12:51:32Z</time></trkpt><trkpt lat="44.47700804381069" lon="6.760078103165174"><ele>1308.3333333333333</ele><time>2026-05-01T12:51:33Z</time></trkpt><trkpt lat="44.47690977258091" lon="6.760264485215242"><ele>1308.6666666666665</ele><time>2026-05-01T12:51:34Z</time></trkpt><trkpt lat="44.47678244926144" lon="6.760419768367818"><ele>1309.0</ele><time>2026-05-01T12:51:35Z</time></trkpt><trkpt lat="44.47665591010369" lon="6.760520647774537"><ele>1309.0</ele><time>2026-05-01T12:51:36Z</time></trkpt><trkpt lat="44.4764972578951" lon="6.760641752141128"><ele>1309.0</ele><time>2026-05-01T12:51:37Z</time></trkpt><trkpt lat="44.476336978325435" lon="6.76075698667301"><ele>1309.0</ele><time>2026-05-01T12:51:38Z</time></trkpt><trkpt lat="44.47616970701154" lon="6.760830686738052"><ele>1309.6666666666665</ele><time>2026-05-01T12:51:39Z</time></trkpt><trkpt lat="44.47600198551099" lon="6.760926268613978"><ele>1310.3333333333333</ele><time>2026-05-01T12:51:40Z</time></trkpt><trkpt lat="44.47580603513171" lon="6.761037020273525"><ele>1311.0</ele><time>2026-05-01T12:51:41Z</time></trkpt><trkpt lat="44.47562380885669" lon="6.761138773942709"><ele>1310.0</ele><time>2026-05-01T12:51:42Z</time></trkpt><trkpt lat="44.475435129391556" lon="6.761244131104361"><ele>1309.0</ele><time>2026-05-01T12:51:43Z</time></trkpt><trkpt lat="44.47526501313445" lon="6.761339122819962"><ele>1308.0</ele><time>2026-05-01T12:51:44Z</time></trkpt><trkpt lat="44.47492522908346" lon="6.761538652353935"><ele>1308.0</ele><time>2026-05-01T12:51:46Z</time></trkpt><trkpt lat="44.47477429557987" lon="6.761609302564902"><ele>1308.0</ele><time>2026-05-01T12:51:47Z</time></trkpt><trkpt lat="44.474626778935544" lon="6.761697038350465"><ele>1308.0</ele><time>2026-05-01T12:51:48Z</time></trkpt><trkpt lat="44.47448734272556" lon="6.761761661538276"><ele>1308.6666666666667</ele><time>2026-05-01T12:51:49Z</time></trkpt><trkpt lat="44.474341802577506" lon="6.761855537494967"><ele>1309.3333333333335</ele><time>2026-05-01T12:51:50Z</time></trkpt><trkpt lat="44.47418314709123" lon="6.761949200499486"><ele>1310.0</ele><time>2026-05-01T12:51:51Z</time></trkpt><trkpt lat="44.47402366496291" lon="6.76205976541884"><ele>1310.3333333333335</ele><time>2026-05-01T12:51:52Z</time></trkpt><trkpt lat="44.473869214768705" lon="6.762151909009497"><ele>1310.6666666666667</ele><time>2026-05-01T12:51:53Z</time></trkpt><trkpt lat="44.473707720405166" lon="6.7622477316663305"><ele>1311.0</ele><time>2026-05-01T12:51:54Z</time></trkpt><trkpt lat="44.47356709803383" lon="6.762312710270276"><ele>1310.0</ele><time>2026-05-01T12:51:55Z</time></trkpt><trkpt lat="44.4734253571171" lon="6.762410890640231"><ele>1309.0</ele><time>2026-05-01T12:51:56Z</time></trkpt><trkpt lat="44.473279727909954" lon="6.762488587707875"><ele>1308.0</ele><time>2026-05-01T12:51:57Z</time></trkpt><trkpt lat="44.4731524421859" lon="6.762555745559724"><ele>1308.0</ele><time>2026-05-01T12:51:58Z</time></trkpt><trkpt lat="44.47303255926108" lon="6.762639364766165"><ele>1308.0</ele><time>2026-05-01T12:51:59Z</time></trkpt><trkpt lat="44.47292479988361" lon="6.7627079335193025"><ele>1308.0</ele><time>2026-05-01T12:52:00Z</time></trkpt><trkpt lat="44.47278868773757" lon="6.762737518344931"><ele>1308.0</ele><time>2026-05-01T12:52:01Z</time></trkpt><trkpt lat="44.472689630852024" lon="6.762795004483703"><ele>1308.2</ele><time>2026-05-01T12:52:02Z</time></trkpt><trkpt lat="44.47260441554353" lon="6.762850955116753"><ele>1308.4</ele><time>2026-05-01T12:52:03Z</time></trkpt><trkpt lat="44.47253733544618" lon="6.762894631136966"><ele>1308.6000000000001</ele><time>2026-05-01T12:52:04Z</time></trkpt><trkpt lat="44.47243320650862" lon="6.763034252895439"><ele>1308.8000000000002</ele><time>2026-05-01T12:52:06Z</time></trkpt><trkpt lat="44.47236947971973" lon="6.763101443666022"><ele>1309.0</ele><time>2026-05-01T12:52:07Z</time></trkpt><trkpt lat="44.472289245935265" lon="6.763148085460458"><ele>1309.0</ele><time>2026-05-01T12:52:08Z</time></trkpt><trkpt lat="44.472201715885674" lon="6.7631861358856495"><ele>1309.0</ele><time>2026-05-01T12:52:09Z</time></trkpt><trkpt lat="44.47210436666622" lon="6.763228961937988"><ele>1309.0</ele><time>2026-05-01T12:52:10Z</time></trkpt><trkpt lat="44.4720179811077" lon="6.763268413671548"><ele>1309.0</ele><time>2026-05-01T12:52:11Z</time></trkpt><trkpt lat="44.47193338902052" lon="6.76334093664684"><ele>1309.0</ele><time>2026-05-01T12:52:12Z</time></trkpt><trkpt lat="44.47181932425208" lon="6.763442281998931"><ele>1308.75</ele><time>2026-05-01T12:52:13Z</time></trkpt><trkpt lat="44.47171784236391" lon="6.763521179303683"><ele>1308.5</ele><time>2026-05-01T12:52:14Z</time></trkpt><trkpt lat="44.47161546900744" lon="6.763602698894902"><ele>1308.25</ele><time>2026-05-01T12:52:15Z</time></trkpt><trkpt lat="44.47149978966939" lon="6.763670648647156"><ele>1308.0</ele><time>2026-05-01T12:52:16Z</time></trkpt><trkpt lat="44.47138572735147" lon="6.763724770226206"><ele>1310.75</ele><time>2026-05-01T12:52:17Z</time></trkpt><trkpt lat="44.47123430093917" lon="6.763762965673997"><ele>1313.5</ele><time>2026-05-01T12:52:18Z</time></trkpt><trkpt lat="44.47108898222521" lon="6.763769030401512"><ele>1316.25</ele><time>2026-05-01T12:52:19Z</time></trkpt><trkpt lat="44.470953669661256" lon="6.763721537002296"><ele>1319.0</ele><time>2026-05-01T12:52:20Z</time></trkpt><trkpt lat="44.470823641106" lon="6.763663564692483"><ele>1319.0</ele><time>2026-05-01T12:52:21Z</time></trkpt><trkpt lat="44.47067883611826" lon="6.76356947837337"><ele>1319.0</ele><time>2026-05-01T12:52:22Z</time></trkpt><trkpt lat="44.47055256697152" lon="6.763468627108731"><ele>1319.0</ele><time>2026-05-01T12:52:23Z</time></trkpt><trkpt lat="44.470420866733605" lon="6.763348811703833"><ele>1316.0</ele><time>2026-05-01T12:52:24Z</time></trkpt><trkpt lat="44.47028400843595" lon="6.763243215296397"><ele>1313.0</ele><time>2026-05-01T12:52:25Z</time></trkpt><trkpt lat="44.47013438037572" lon="6.7631521003440795"><ele>1310.0</ele><time>2026-05-01T12:52:26Z</time></trkpt><trkpt lat="44.469991128485574" lon="6.763072167765374"><ele>1310.0</ele><time>2026-05-01T12:52:27Z</time></trkpt><trkpt lat="44.46982780644222" lon="6.763008445513516"><ele>1310.0</ele><time>2026-05-01T12:52:28Z</time></trkpt><trkpt lat="44.4696470921798" lon="6.762931970725969"><ele>1310.0</ele><time>2026-05-01T12:52:29.001Z</time></trkpt><trkpt lat="44.46946552305647" lon="6.762853173394214"><ele>1307.3333333333335</ele><time>2026-05-01T12:52:30.001Z</time></trkpt><trkpt lat="44.46929626875589" lon="6.762752377424331"><ele>1304.6666666666667</ele><time>2026-05-01T12:52:31.001Z</time></trkpt><trkpt lat="44.46912163266987" lon="6.762655494904349"><ele>1302.0</ele><time>2026-05-01T12:52:32.001Z</time></trkpt><trkpt lat="44.468948244815216" lon="6.762567043335128"><ele>1305.3333333333333</ele><time>2026-05-01T12:52:33.001Z</time></trkpt><trkpt lat="44.468760318379566" lon="6.762475629298871"><ele>1308.6666666666665</ele><time>2026-05-01T12:52:34.001Z</time></trkpt><trkpt lat="44.46854985243481" lon="6.762363329148965"><ele>1312.0</ele><time>2026-05-01T12:52:35.001Z</time></trkpt><trkpt lat="44.46832929386781" lon="6.7622564070929725"><ele>1312.0</ele><time>2026-05-01T12:52:36.001Z</time></trkpt><trkpt lat="44.4680980196088" lon="6.762144451600719"><ele>1312.0</ele><time>2026-05-01T12:52:37.001Z</time></trkpt><trkpt lat="44.46788318333062" lon="6.762032332951965"><ele>1314.0</ele><time>2026-05-01T12:52:38.001Z</time></trkpt><trkpt lat="44.46767411239907" lon="6.761927170950167"><ele>1316.0</ele><time>2026-05-01T12:52:39.001Z</time></trkpt><trkpt lat="44.467492205234976" lon="6.761836086244884"><ele>1318.0</ele><time>2026-05-01T12:52:40.001Z</time></trkpt><trkpt lat="44.46730697203974" lon="6.761738294462241"><ele>1319.6666666666665</ele><time>2026-05-01T12:52:41.001Z</time></trkpt><trkpt lat="44.46719537091028" lon="6.761493343614447"><ele>1321.3333333333333</ele><time>2026-05-01T12:52:42.001Z</time></trkpt><trkpt lat="44.467101101312856" lon="6.761233660548076"><ele>1323.0</ele><time>2026-05-01T12:52:43.001Z</time></trkpt><trkpt lat="44.46698940481365" lon="6.76096785259747"><ele>1314.0</ele><time>2026-05-01T12:52:44.001Z</time></trkpt><trkpt lat="44.46687017366029" lon="6.760627545595597"><ele>1305.0</ele><time>2026-05-01T12:52:45.001Z</time></trkpt><trkpt lat="44.46671378157299" lon="6.760324575107588"><ele>1301.0</ele><time>2026-05-01T12:52:46.001Z</time></trkpt><trkpt lat="44.46654755047098" lon="6.760036827297227"><ele>1297.0</ele><time>2026-05-01T12:52:47Z</time></trkpt><trkpt lat="44.466357126999206" lon="6.759728329861179"><ele>1303.0</ele><time>2026-05-01T12:52:48Z</time></trkpt><trkpt lat="44.46616920514758" lon="6.7594090916134"><ele>1309.0</ele><time>2026-05-01T12:52:49Z</time></trkpt><trkpt lat="44.465986900147236" lon="6.759056079236221"><ele>1309.0</ele><time>2026-05-01T12:52:50Z</time></trkpt><trkpt lat="44.465786048849836" lon="6.758693797603486"><ele>1309.0</ele><time>2026-05-01T12:52:51Z</time></trkpt><trkpt lat="44.465625419412596" lon="6.758356595911363"><ele>1303.5</ele><time>2026-05-01T12:52:52Z</time></trkpt><trkpt lat="44.46545991395727" lon="6.758060326022732"><ele>1298.0</ele><time>2026-05-01T12:52:53Z</time></trkpt><trkpt lat="44.46531450213887" lon="6.757743950714742"><ele>1301.0</ele><time>2026-05-01T12:52:54Z</time></trkpt><trkpt lat="44.465170345742614" lon="6.757453790306375"><ele>1304.0</ele><time>2026-05-01T12:52:55Z</time></trkpt><trkpt lat="44.46505792581137" lon="6.757195872728517"><ele>1304.0</ele><time>2026-05-01T12:52:56Z</time></trkpt><trkpt lat="44.465007110533676" lon="6.756994947448892"><ele>1304.0</ele><time>2026-05-01T12:52:57Z</time></trkpt><trkpt lat="44.46494140593405" lon="6.756748289860112"><ele>1304.0</ele><time>2026-05-01T12:52:58Z</time></trkpt><trkpt lat="44.46494278115586" lon="6.756467744722555"><ele>1300.0</ele><time>2026-05-01T12:52:59Z</time></trkpt><trkpt lat="44.46496155758341" lon="6.7561912137811735"><ele>1296.0</ele><time>2026-05-01T12:53:00Z</time></trkpt><trkpt lat="44.46500304636183" lon="6.755904487686445"><ele>1292.0</ele><time>2026-05-01T12:53:01Z</time></trkpt><trkpt lat="44.46505402328651" lon="6.755586657656514"><ele>1290.6666666666667</ele><time>2026-05-01T12:53:02Z</time></trkpt><trkpt lat="44.46509973076332" lon="6.755283065305006"><ele>1289.3333333333333</ele><time>2026-05-01T12:53:03Z</time></trkpt><trkpt lat="44.465132857368054" lon="6.754984612622295"><ele>1288.0</ele><time>2026-05-01T12:53:04Z</time></trkpt><trkpt lat="44.465188568662754" lon="6.754703590810945"><ele>1287.6666666666665</ele><time>2026-05-01T12:53:05Z</time></trkpt><trkpt lat="44.465230699722056" lon="6.754405735571238"><ele>1287.3333333333333</ele><time>2026-05-01T12:53:06Z</time></trkpt><trkpt lat="44.465265425249136" lon="6.754115737524707"><ele>1287.0</ele><time>2026-05-01T12:53:07Z</time></trkpt><trkpt lat="44.46528614868482" lon="6.753839177044874"><ele>1287.0</ele><time>2026-05-01T12:53:08Z</time></trkpt><trkpt lat="44.46530256629341" lon="6.753567639139131"><ele>1287.0</ele><time>2026-05-01T12:53:09Z</time></trkpt><trkpt lat="44.46527416883104" lon="6.75328200386091"><ele>1287.0</ele><time>2026-05-01T12:53:10Z</time></trkpt><trkpt lat="44.46522203852507" lon="6.753017358360232"><ele>1288.0</ele><time>2026-05-01T12:53:11Z</time></trkpt><trkpt lat="44.46513358407431" lon="6.752762310648173"><ele>1289.0</ele><time>2026-05-01T12:53:12Z</time></trkpt><trkpt lat="44.465000763940466" lon="6.7524957902894975"><ele>1290.0</ele><time>2026-05-01T12:53:13Z</time></trkpt><trkpt lat="44.464863855104" lon="6.7522177814882305"><ele>1291.0</ele><time>2026-05-01T12:53:14Z</time></trkpt><trkpt lat="44.46469068038434" lon="6.751950621913818"><ele>1292.0</ele><time>2026-05-01T12:53:15Z</time></trkpt><trkpt lat="44.46453653948882" lon="6.751699659019806"><ele>1292.0</ele><time>2026-05-01T12:53:16Z</time></trkpt><trkpt lat="44.46435742163815" lon="6.751452689018687"><ele>1292.0</ele><time>2026-05-01T12:53:17Z</time></trkpt><trkpt lat="44.46415387697262" lon="6.751205734402235"><ele>1307.5</ele><time>2026-05-01T12:53:18Z</time></trkpt><trkpt lat="44.46396778292579" lon="6.751010159584457"><ele>1323.0</ele><time>2026-05-01T12:53:19Z</time></trkpt><trkpt lat="44.46379187707716" lon="6.750823661846809"><ele>1313.6666666666667</ele><time>2026-05-01T12:53:20Z</time></trkpt><trkpt lat="44.46363227186257" lon="6.75061033472588"><ele>1304.3333333333335</ele><time>2026-05-01T12:53:21Z</time></trkpt><trkpt lat="44.4634862514569" lon="6.7504333613924725"><ele>1295.0</ele><time>2026-05-01T12:53:22Z</time></trkpt><trkpt lat="44.46332785740673" lon="6.750277152638672"><ele>1295.0</ele><time>2026-05-01T12:53:23Z</time></trkpt><trkpt lat="44.463157193127266" lon="6.750176359469335"><ele>1295.0</ele><time>2026-05-01T12:53:24Z</time></trkpt><trkpt lat="44.46292976528848" lon="6.750101821704846"><ele>1295.0</ele><time>2026-05-01T12:53:25Z</time></trkpt><trkpt lat="44.462687455506995" lon="6.750074302101876"><ele>1295.0</ele><time>2026-05-01T12:53:26Z</time></trkpt><trkpt lat="44.46248354400915" lon="6.750027150832645"><ele>1295.0</ele><time>2026-05-01T12:53:27Z</time></trkpt><trkpt lat="44.46230982820281" lon="6.749897688958452"><ele>1295.0</ele><time>2026-05-01T12:53:28Z</time></trkpt><trkpt lat="44.46214939896197" lon="6.749700209691404"><ele>1293.5</ele><time>2026-05-01T12:53:29Z</time></trkpt><trkpt lat="44.461989679526184" lon="6.7494716893432365"><ele>1292.0</ele><time>2026-05-01T12:53:30Z</time></trkpt><trkpt lat="44.46181174418503" lon="6.749250246335881"><ele>1292.0</ele><time>2026-05-01T12:53:31Z</time></trkpt><trkpt lat="44.46164188463056" lon="6.749022446176955"><ele>1292.0</ele><time>2026-05-01T12:53:32Z</time></trkpt><trkpt lat="44.46149193094826" lon="6.748781782534401"><ele>1292.0</ele><time>2026-05-01T12:53:33Z</time></trkpt><trkpt lat="44.4613410309417" lon="6.748572068116718"><ele>1292.0</ele><time>2026-05-01T12:53:34Z</time></trkpt><trkpt lat="44.46120692622223" lon="6.748363430880525"><ele>1292.0</ele><time>2026-05-01T12:53:35Z</time></trkpt><trkpt lat="44.461070500068644" lon="6.7481297400335025"><ele>1290.6666666666667</ele><time>2026-05-01T12:53:36Z</time></trkpt><trkpt lat="44.46093170209203" lon="6.747909816218168"><ele>1289.3333333333333</ele><time>2026-05-01T12:53:37Z</time></trkpt><trkpt lat="44.460791900676355" lon="6.747713995992283"><ele>1288.0</ele><time>2026-05-01T12:53:38Z</time></trkpt><trkpt lat="44.46066481619932" lon="6.74748295075055"><ele>1285.0</ele><time>2026-05-01T12:53:39Z</time></trkpt><trkpt lat="44.460490342621455" lon="6.747296557331918"><ele>1282.0</ele><time>2026-05-01T12:53:40Z</time></trkpt><trkpt lat="44.460293388828745" lon="6.747106631658275"><ele>1282.0</ele><time>2026-05-01T12:53:41Z</time></trkpt><trkpt lat="44.46010044064194" lon="6.746954386917254"><ele>1282.0</ele><time>2026-05-01T12:53:42Z</time></trkpt><trkpt lat="44.45990840303715" lon="6.746814070469653"><ele>1282.0</ele><time>2026-05-01T12:53:43Z</time></trkpt><trkpt lat="44.45967864644302" lon="6.746782135758648"><ele>1286.6666666666665</ele><time>2026-05-01T12:53:44Z</time></trkpt><trkpt lat="44.459465407598096" lon="6.746733292831507"><ele>1291.3333333333333</ele><time>2026-05-01T12:53:45Z</time></trkpt><trkpt lat="44.45926510608589" lon="6.746694570727248"><ele>1296.0</ele><time>2026-05-01T12:53:46Z</time></trkpt><trkpt lat="44.459072586125195" lon="6.74668347871407"><ele>1296.0</ele><time>2026-05-01T12:53:47Z</time></trkpt><trkpt lat="44.45890086757364" lon="6.746665687564767"><ele>1296.0</ele><time>2026-05-01T12:53:48Z</time></trkpt><trkpt lat="44.45875096938925" lon="6.746663967334032"><ele>1296.0</ele><time>2026-05-01T12:53:49Z</time></trkpt><trkpt lat="44.45860956487697" lon="6.7466613463777705"><ele>1293.8</ele><time>2026-05-01T12:53:50Z</time></trkpt><trkpt lat="44.4584859512779" lon="6.7466712029391624"><ele>1291.6</ele><time>2026-05-01T12:53:51Z</time></trkpt><trkpt lat="44.45839958501511" lon="6.746588797042981"><ele>1289.4</ele><time>2026-05-01T12:53:52Z</time></trkpt><trkpt lat="44.458327773870714" lon="6.746478690253059"><ele>1287.2</ele><time>2026-05-01T12:53:53Z</time></trkpt><trkpt lat="44.45827066112738" lon="6.7463580526498"><ele>1285.0</ele><time>2026-05-01T12:53:54Z</time></trkpt><trkpt lat="44.45822383914124" lon="6.746205385029563"><ele>1285.0</ele><time>2026-05-01T12:53:55Z</time></trkpt><trkpt lat="44.45818221057492" lon="6.74606332684545"><ele>1285.0</ele><time>2026-05-01T12:53:56Z</time></trkpt><trkpt lat="44.45817853267532" lon="6.745923264385929"><ele>1285.0</ele><time>2026-05-01T12:53:57Z</time></trkpt><trkpt lat="44.45815426615467" lon="6.7457633574453775"><ele>1285.0</ele><time>2026-05-01T12:53:58Z</time></trkpt><trkpt lat="44.458142890280726" lon="6.745598845238447"><ele>1285.0</ele><time>2026-05-01T12:53:59Z</time></trkpt><trkpt lat="44.45811841511713" lon="6.7454431190906945"><ele>1285.4</ele><time>2026-05-01T12:54:00Z</time></trkpt><trkpt lat="44.45809423258959" lon="6.745291042572259"><ele>1285.8</ele><time>2026-05-01T12:54:01Z</time></trkpt><trkpt lat="44.45806527667998" lon="6.7451409777905065"><ele>1286.1999999999998</ele><time>2026-05-01T12:54:02Z</time></trkpt><trkpt lat="44.45801489628098" lon="6.745028959756698"><ele>1286.6</ele><time>2026-05-01T12:54:03Z</time></trkpt><trkpt lat="44.45793222265699" lon="6.744907327644181"><ele>1287.0</ele><time>2026-05-01T12:54:04Z</time></trkpt><trkpt lat="44.45785499208499" lon="6.7448099008932"><ele>1287.0</ele><time>2026-05-01T12:54:05Z</time></trkpt><trkpt lat="44.45775518895117" lon="6.744712221894165"><ele>1287.0</ele><time>2026-05-01T12:54:06Z</time></trkpt><trkpt lat="44.45764298858704" lon="6.744622950055507"><ele>1287.0</ele><time>2026-05-01T12:54:07Z</time></trkpt><trkpt lat="44.457529017274865" lon="6.744531829778088"><ele>1287.0</ele><time>2026-05-01T12:54:08Z</time></trkpt><trkpt lat="44.457406988053485" lon="6.744448248651636"><ele>1287.25</ele><time>2026-05-01T12:54:09Z</time></trkpt><trkpt lat="44.45728766343195" lon="6.744362070400166"><ele>1287.5</ele><time>2026-05-01T12:54:10Z</time></trkpt><trkpt lat="44.4571720236171" lon="6.744272812671766"><ele>1287.75</ele><time>2026-05-01T12:54:11Z</time></trkpt><trkpt lat="44.45704805863352" lon="6.744175726015041"><ele>1288.0</ele><time>2026-05-01T12:54:12Z</time></trkpt><trkpt lat="44.456919729608344" lon="6.7441027726092475"><ele>1288.0</ele><time>2026-05-01T12:54:13Z</time></trkpt><trkpt lat="44.45678237288675" lon="6.744038000690319"><ele>1288.0</ele><time>2026-05-01T12:54:14Z</time></trkpt><trkpt lat="44.45661883649921" lon="6.744050386283813"><ele>1288.0</ele><time>2026-05-01T12:54:15Z</time></trkpt><trkpt lat="44.45645862997711" lon="6.744068512495829"><ele>1288.0</ele><time>2026-05-01T12:54:16Z</time></trkpt><trkpt lat="44.45628801572388" lon="6.744078032361369"><ele>1288.0</ele><time>2026-05-01T12:54:17Z</time></trkpt><trkpt lat="44.45611799767511" lon="6.7440964461237645"><ele>1288.0</ele><time>2026-05-01T12:54:18Z</time></trkpt><trkpt lat="44.45595880526744" lon="6.744099172014362"><ele>1286.6666666666665</ele><time>2026-05-01T12:54:19Z</time></trkpt><trkpt lat="44.455821320490536" lon="6.744080266914676"><ele>1285.3333333333333</ele><time>2026-05-01T12:54:20Z</time></trkpt><trkpt lat="44.45566236879247" lon="6.744034120903794"><ele>1284.0</ele><time>2026-05-01T12:54:21Z</time></trkpt><trkpt lat="44.455514955604926" lon="6.743957088578157"><ele>1283.0</ele><time>2026-05-01T12:54:22Z</time></trkpt><trkpt lat="44.45535503457184" lon="6.7438359611565"><ele>1282.0</ele><time>2026-05-01T12:54:23Z</time></trkpt><trkpt lat="44.45518167808299" lon="6.74369838092317"><ele>1281.0</ele><time>2026-05-01T12:54:24Z</time></trkpt><trkpt lat="44.45498698099015" lon="6.7436597319617215"><ele>1281.0</ele><time>2026-05-01T12:54:25Z</time></trkpt><trkpt lat="44.45472998887241" lon="6.7436478680230545"><ele>1281.0</ele><time>2026-05-01T12:54:26Z</time></trkpt><trkpt lat="44.45449374313463" lon="6.743645441633451"><ele>1278.3333333333333</ele><time>2026-05-01T12:54:27Z</time></trkpt><trkpt lat="44.454274516535875" lon="6.743628635214607"><ele>1275.6666666666665</ele><time>2026-05-01T12:54:28Z</time></trkpt><trkpt lat="44.454053596589745" lon="6.74363948400395"><ele>1273.0</ele><time>2026-05-01T12:54:29Z</time></trkpt><trkpt lat="44.45386912061257" lon="6.743648465025609"><ele>1272.6666666666665</ele><time>2026-05-01T12:54:30Z</time></trkpt><trkpt lat="44.45369608709895" lon="6.743702287208149"><ele>1272.3333333333333</ele><time>2026-05-01T12:54:31Z</time></trkpt><trkpt lat="44.453525057812136" lon="6.74378383112879"><ele>1272.0</ele><time>2026-05-01T12:54:32Z</time></trkpt><trkpt lat="44.453369492024386" lon="6.743858476322298"><ele>1272.0</ele><time>2026-05-01T12:54:33Z</time></trkpt><trkpt lat="44.45321825634485" lon="6.7439119529782925"><ele>1272.0</ele><time>2026-05-01T12:54:34Z</time></trkpt><trkpt lat="44.45305930867408" lon="6.743917319330016"><ele>1272.0</ele><time>2026-05-01T12:54:35Z</time></trkpt><trkpt lat="44.45293598811573" lon="6.743782337931833"><ele>1271.6666666666667</ele><time>2026-05-01T12:54:36Z</time></trkpt><trkpt lat="44.45280659577245" lon="6.743669797413888"><ele>1271.3333333333335</ele><time>2026-05-01T12:54:37Z</time></trkpt><trkpt lat="44.45267553363237" lon="6.743488492903136"><ele>1271.0</ele><time>2026-05-01T12:54:38Z</time></trkpt><trkpt lat="44.45256189583794" lon="6.7432054722864985"><ele>1271.0</ele><time>2026-05-01T12:54:39Z</time></trkpt><trkpt lat="44.45240926928668" lon="6.743063506734009"><ele>1271.0</ele><time>2026-05-01T12:54:40Z</time></trkpt><trkpt lat="44.45220568538431" lon="6.742937908990028"><ele>1271.0</ele><time>2026-05-01T12:54:41Z</time></trkpt><trkpt lat="44.45198841337816" lon="6.742793731233337"><ele>1275.5</ele><time>2026-05-01T12:54:42Z</time></trkpt><trkpt lat="44.45176950620244" lon="6.7426417435032215"><ele>1280.0</ele><time>2026-05-01T12:54:43Z</time></trkpt><trkpt lat="44.45153330344319" lon="6.742476131647718"><ele>1280.0</ele><time>2026-05-01T12:54:44Z</time></trkpt><trkpt lat="44.45132398211197" lon="6.742286968764141"><ele>1280.0</ele><time>2026-05-01T12:54:45Z</time></trkpt><trkpt lat="44.45110597496304" lon="6.742091881702819"><ele>1275.5</ele><time>2026-05-01T12:54:46Z</time></trkpt><trkpt lat="44.450878806218576" lon="6.74186148170314"><ele>1271.0</ele><time>2026-05-01T12:54:47Z</time></trkpt><trkpt lat="44.450720602542944" lon="6.741584887258345"><ele>1271.0</ele><time>2026-05-01T12:54:48Z</time></trkpt><trkpt lat="44.45052593961285" lon="6.74136670482473"><ele>1271.0</ele><time>2026-05-01T12:54:49Z</time></trkpt><trkpt lat="44.45034758366342" lon="6.741169986278827"><ele>1271.0</ele><time>2026-05-01T12:54:50Z</time></trkpt><trkpt lat="44.4501667050887" lon="6.740973292738395"><ele>1271.0</ele><time>2026-05-01T12:54:51Z</time></trkpt><trkpt lat="44.4499958213927" lon="6.740838148921218"><ele>1271.0</ele><time>2026-05-01T12:54:52Z</time></trkpt><trkpt lat="44.44983436154213" lon="6.740671412381215"><ele>1271.0</ele><time>2026-05-01T12:54:53Z</time></trkpt><trkpt lat="44.44966899598179" lon="6.740525239093182"><ele>1271.0</ele><time>2026-05-01T12:54:54Z</time></trkpt><trkpt lat="44.449473743577364" lon="6.7404825977774045"><ele>1271.0</ele><time>2026-05-01T12:54:55Z</time></trkpt><trkpt lat="44.44924338918666" lon="6.740470528895706"><ele>1267.5</ele><time>2026-05-01T12:54:56Z</time></trkpt><trkpt lat="44.44896600945185" lon="6.7404333523511335"><ele>1264.0</ele><time>2026-05-01T12:54:57Z</time></trkpt><trkpt lat="44.44869888693011" lon="6.740407075796515"><ele>1263.5</ele><time>2026-05-01T12:54:58Z</time></trkpt><trkpt lat="44.44847373901856" lon="6.740341957817564"><ele>1263.0</ele><time>2026-05-01T12:54:59Z</time></trkpt><trkpt lat="44.44825280381494" lon="6.740282339168139"><ele>1263.0</ele><time>2026-05-01T12:55:00Z</time></trkpt><trkpt lat="44.448047723127445" lon="6.740239308619033"><ele>1263.0</ele><time>2026-05-01T12:55:01Z</time></trkpt><trkpt lat="44.447842676965266" lon="6.740186799350426"><ele>1263.0</ele><time>2026-05-01T12:55:02Z</time></trkpt><trkpt lat="44.447648167589" lon="6.7401698996550055"><ele>1264.0</ele><time>2026-05-01T12:55:03Z</time></trkpt><trkpt lat="44.447457941294104" lon="6.740174960408328"><ele>1265.0</ele><time>2026-05-01T12:55:04Z</time></trkpt><trkpt lat="44.44726182109474" lon="6.7402200976449285"><ele>1266.0</ele><time>2026-05-01T12:55:05Z</time></trkpt><trkpt lat="44.44709760113666" lon="6.740359688003571"><ele>1267.0</ele><time>2026-05-01T12:55:06Z</time></trkpt><trkpt lat="44.446917546338355" lon="6.740529179394009"><ele>1268.0</ele><time>2026-05-01T12:55:07Z</time></trkpt><trkpt lat="44.446650066388074" lon="6.7407936136443665"><ele>1268.0</ele><time>2026-05-01T12:55:08Z</time></trkpt><trkpt lat="44.446423518391256" lon="6.741065191937934"><ele>1268.0</ele><time>2026-05-01T12:55:09Z</time></trkpt><trkpt lat="44.44620539762129" lon="6.741319220062721"><ele>1268.0</ele><time>2026-05-01T12:55:10Z</time></trkpt><trkpt lat="44.446011820988446" lon="6.741537206719662"><ele>1268.0</ele><time>2026-05-01T12:55:11Z</time></trkpt><trkpt lat="44.44582013683663" lon="6.741741584583579"><ele>1267.0</ele><time>2026-05-01T12:55:12Z</time></trkpt><trkpt lat="44.4456337611167" lon="6.741935590997525"><ele>1266.0</ele><time>2026-05-01T12:55:13Z</time></trkpt><trkpt lat="44.44543595015403" lon="6.7421015828857165"><ele>1266.0</ele><time>2026-05-01T12:55:14Z</time></trkpt><trkpt lat="44.44519212324608" lon="6.742235668978575"><ele>1266.0</ele><time>2026-05-01T12:55:15Z</time></trkpt><trkpt lat="44.44498232862489" lon="6.742395400325306"><ele>1266.0</ele><time>2026-05-01T12:55:16Z</time></trkpt><trkpt lat="44.44477307213759" lon="6.742521301800986"><ele>1266.0</ele><time>2026-05-01T12:55:17Z</time></trkpt><trkpt lat="44.44456442014102" lon="6.7425857791985"><ele>1266.0</ele><time>2026-05-01T12:55:18Z</time></trkpt><trkpt lat="44.44436640653703" lon="6.742623636673752"><ele>1269.0</ele><time>2026-05-01T12:55:19Z</time></trkpt><trkpt lat="44.4441995821489" lon="6.742620764909498"><ele>1272.0</ele><time>2026-05-01T12:55:20Z</time></trkpt><trkpt lat="44.44402128604362" lon="6.742591099525584"><ele>1275.0</ele><time>2026-05-01T12:55:21Z</time></trkpt><trkpt lat="44.44385259153342" lon="6.742515935113904"><ele>1272.0</ele><time>2026-05-01T12:55:22Z</time></trkpt><trkpt lat="44.44365825270902" lon="6.74239369468205"><ele>1269.0</ele><time>2026-05-01T12:55:23Z</time></trkpt><trkpt lat="44.443451119016345" lon="6.742255061543407"><ele>1266.0</ele><time>2026-05-01T12:55:24Z</time></trkpt><trkpt lat="44.44325887879155" lon="6.742163602373507"><ele>1266.0</ele><time>2026-05-01T12:55:25Z</time></trkpt><trkpt lat="44.443064834148515" lon="6.742125814014029"><ele>1266.0</ele><time>2026-05-01T12:55:26Z</time></trkpt><trkpt lat="44.44284607387646" lon="6.742100303105497"><ele>1266.0</ele><time>2026-05-01T12:55:27Z</time></trkpt><trkpt lat="44.44262445313382" lon="6.742063171857017"><ele>1264.5</ele><time>2026-05-01T12:55:28Z</time></trkpt><trkpt lat="44.44238952435262" lon="6.742026201879683"><ele>1263.0</ele><time>2026-05-01T12:55:29Z</time></trkpt><trkpt lat="44.442177357643146" lon="6.741986993043247"><ele>1261.3333333333333</ele><time>2026-05-01T12:55:30Z</time></trkpt><trkpt lat="44.44197776370901" lon="6.74196942255919"><ele>1259.6666666666665</ele><time>2026-05-01T12:55:31Z</time></trkpt><trkpt lat="44.44178806423198" lon="6.74193234270134"><ele>1258.0</ele><time>2026-05-01T12:55:32Z</time></trkpt><trkpt lat="44.441621537402746" lon="6.74191528695489"><ele>1258.0</ele><time>2026-05-01T12:55:33Z</time></trkpt><trkpt lat="44.44147144805569" lon="6.741937381243391"><ele>1258.0</ele><time>2026-05-01T12:55:34Z</time></trkpt><trkpt lat="44.441313922362795" lon="6.74194643986023"><ele>1258.0</ele><time>2026-05-01T12:55:35Z</time></trkpt><trkpt lat="44.44113737736306" lon="6.741953543879271"><ele>1262.5</ele><time>2026-05-01T12:55:36Z</time></trkpt><trkpt lat="44.440998016617385" lon="6.7422448956640375"><ele>1267.0</ele><time>2026-05-01T12:55:37Z</time></trkpt><trkpt lat="44.440852102372396" lon="6.742512722945399"><ele>1267.0</ele><time>2026-05-01T12:55:38Z</time></trkpt><trkpt lat="44.44071244320953" lon="6.742635145478955"><ele>1267.0</ele><time>2026-05-01T12:55:39Z</time></trkpt><trkpt lat="44.44058493101186" lon="6.742705180451617"><ele>1267.0</ele><time>2026-05-01T12:55:40Z</time></trkpt><trkpt lat="44.4404484082252" lon="6.742774369860516"><ele>1267.0</ele><time>2026-05-01T12:55:41Z</time></trkpt><trkpt lat="44.44029773499682" lon="6.742788796147817"><ele>1264.0</ele><time>2026-05-01T12:55:42Z</time></trkpt><trkpt lat="44.440121974895185" lon="6.742755128587475"><ele>1261.0</ele><time>2026-05-01T12:55:43Z</time></trkpt><trkpt lat="44.4399524629951" lon="6.74275515947804"><ele>1258.0</ele><time>2026-05-01T12:55:44Z</time></trkpt><trkpt lat="44.439809594929216" lon="6.742770751244541"><ele>1258.0</ele><time>2026-05-01T12:55:45Z</time></trkpt><trkpt lat="44.43969622975539" lon="6.742823146291482"><ele>1258.0</ele><time>2026-05-01T12:55:46Z</time></trkpt><trkpt lat="44.43957368082728" lon="6.742965562158202"><ele>1258.0</ele><time>2026-05-01T12:55:47Z</time></trkpt><trkpt lat="44.43949421053211" lon="6.743137484069777"><ele>1258.0</ele><time>2026-05-01T12:55:48Z</time></trkpt><trkpt lat="44.43941208631312" lon="6.743318381553549"><ele>1257.25</ele><time>2026-05-01T12:55:49Z</time></trkpt><trkpt lat="44.439334887640904" lon="6.743497876527422"><ele>1256.5</ele><time>2026-05-01T12:55:50Z</time></trkpt><trkpt lat="44.43922987548497" lon="6.74364633911934"><ele>1255.75</ele><time>2026-05-01T12:55:51Z</time></trkpt><trkpt lat="44.43913428385162" lon="6.743770508539264"><ele>1255.0</ele><time>2026-05-01T12:55:52Z</time></trkpt><trkpt lat="44.439015002609544" lon="6.743865292651001"><ele>1255.0</ele><time>2026-05-01T12:55:53Z</time></trkpt><trkpt lat="44.43888408932886" lon="6.743933783089064"><ele>1255.0</ele><time>2026-05-01T12:55:54Z</time></trkpt><trkpt lat="44.43876104620338" lon="6.744030035273491"><ele>1255.0</ele><time>2026-05-01T12:55:55Z</time></trkpt><trkpt lat="44.438637835953905" lon="6.74410882291563"><ele>1255.0</ele><time>2026-05-01T12:55:56Z</time></trkpt><trkpt lat="44.43849315483619" lon="6.744158286444386"><ele>1254.6666666666665</ele><time>2026-05-01T12:55:57Z</time></trkpt><trkpt lat="44.438326381834464" lon="6.7439279047530585"><ele>1254.3333333333333</ele><time>2026-05-01T12:55:58Z</time></trkpt><trkpt lat="44.43817850200967" lon="6.743831811224712"><ele>1254.0</ele><time>2026-05-01T12:55:59Z</time></trkpt><trkpt lat="44.43805861269924" lon="6.7438427792314135"><ele>1254.0</ele><time>2026-05-01T12:56:00Z</time></trkpt><trkpt lat="44.43789668415842" lon="6.743919053431253"><ele>1254.0</ele><time>2026-05-01T12:56:01Z</time></trkpt><trkpt lat="44.43775275028901" lon="6.743964577015779"><ele>1254.0</ele><time>2026-05-01T12:56:02Z</time></trkpt><trkpt lat="44.43760807266161" lon="6.744046221222927"><ele>1254.0</ele><time>2026-05-01T12:56:03Z</time></trkpt><trkpt lat="44.43747434225854" lon="6.744089839834979"><ele>1254.0</ele><time>2026-05-01T12:56:04Z</time></trkpt><trkpt lat="44.43731806626873" lon="6.744127842752642"><ele>1254.0</ele><time>2026-05-01T12:56:05Z</time></trkpt><trkpt lat="44.43715807936505" lon="6.744123235021926"><ele>1253.6666666666667</ele><time>2026-05-01T12:56:06Z</time></trkpt><trkpt lat="44.4369927191129" lon="6.743926423000014"><ele>1253.3333333333335</ele><time>2026-05-01T12:56:07Z</time></trkpt><trkpt lat="44.436841011001" lon="6.74385301184951"><ele>1253.0</ele><time>2026-05-01T12:56:08Z</time></trkpt><trkpt lat="44.43671393860229" lon="6.743811337562181"><ele>1253.0</ele><time>2026-05-01T12:56:09Z</time></trkpt><trkpt lat="44.43657626062775" lon="6.743798268853092"><ele>1253.0</ele><time>2026-05-01T12:56:10Z</time></trkpt><trkpt lat="44.43645888528306" lon="6.743754262608415"><ele>1253.0</ele><time>2026-05-01T12:56:11Z</time></trkpt><trkpt lat="44.43634095167774" lon="6.74368707945926"><ele>1253.0</ele><time>2026-05-01T12:56:12Z</time></trkpt><trkpt lat="44.436220160650095" lon="6.743629725164111"><ele>1252.5</ele><time>2026-05-01T12:56:13Z</time></trkpt><trkpt lat="44.43609026598221" lon="6.743644524438133"><ele>1252.0</ele><time>2026-05-01T12:56:14Z</time></trkpt><trkpt lat="44.43595204490684" lon="6.743721442246319"><ele>1251.5</ele><time>2026-05-01T12:56:15Z</time></trkpt><trkpt lat="44.435825501146496" lon="6.7438039680025055"><ele>1251.0</ele><time>2026-05-01T12:56:16Z</time></trkpt><trkpt lat="44.435710340312916" lon="6.743972603980096"><ele>1251.0</ele><time>2026-05-01T12:56:17Z</time></trkpt><trkpt lat="44.43556997004504" lon="6.744053126192242"><ele>1251.0</ele><time>2026-05-01T12:56:18Z</time></trkpt><trkpt lat="44.43544030880029" lon="6.744113610751018"><ele>1251.0</ele><time>2026-05-01T12:56:19Z</time></trkpt><trkpt lat="44.43525453116837" lon="6.744144380032126"><ele>1252.0</ele><time>2026-05-01T12:56:20Z</time></trkpt><trkpt lat="44.43510968251249" lon="6.744195005790416"><ele>1253.0</ele><time>2026-05-01T12:56:21Z</time></trkpt><trkpt lat="44.43497816447286" lon="6.7441805124054826"><ele>1254.0</ele><time>2026-05-01T12:56:22Z</time></trkpt><trkpt lat="44.434833100121324" lon="6.744094680791697"><ele>1255.0</ele><time>2026-05-01T12:56:23Z</time></trkpt><trkpt lat="44.434697798419386" lon="6.744108567728712"><ele>1253.0</ele><time>2026-05-01T12:56:24Z</time></trkpt><trkpt lat="44.43459501392048" lon="6.744032726867397"><ele>1251.0</ele><time>2026-05-01T12:56:25Z</time></trkpt><trkpt lat="44.43450083255787" lon="6.74398906293361"><ele>1249.0</ele><time>2026-05-01T12:56:26Z</time></trkpt><trkpt lat="44.43440393677501" lon="6.743925831021908"><ele>1247.0</ele><time>2026-05-01T12:56:27Z</time></trkpt><trkpt lat="44.434320362823236" lon="6.743787608692673"><ele>1247.0</ele><time>2026-05-01T12:56:28Z</time></trkpt><trkpt lat="44.43423421720703" lon="6.7436304505990865"><ele>1247.0</ele><time>2026-05-01T12:56:29Z</time></trkpt><trkpt lat="44.4341686394603" lon="6.74334482898322"><ele>1247.0</ele><time>2026-05-01T12:56:30Z</time></trkpt><trkpt lat="44.43411269624238" lon="6.743021015060561"><ele>1249.0</ele><time>2026-05-01T12:56:31Z</time></trkpt><trkpt lat="44.43403935069808" lon="6.742716067814809"><ele>1251.0</ele><time>2026-05-01T12:56:32Z</time></trkpt><trkpt lat="44.43394886475983" lon="6.742376098534588"><ele>1251.5</ele><time>2026-05-01T12:56:33Z</time></trkpt><trkpt lat="44.43386314329996" lon="6.741999282061133"><ele>1252.0</ele><time>2026-05-01T12:56:34Z</time></trkpt><trkpt lat="44.433790405592646" lon="6.741669639551251"><ele>1249.3333333333333</ele><time>2026-05-01T12:56:35Z</time></trkpt><trkpt lat="44.4337120892654" lon="6.7413732716983"><ele>1246.6666666666667</ele><time>2026-05-01T12:56:36Z</time></trkpt><trkpt lat="44.43364617646594" lon="6.741140829534368"><ele>1244.0</ele><time>2026-05-01T12:56:37Z</time></trkpt><trkpt lat="44.43352596626215" lon="6.740931466628557"><ele>1244.0</ele><time>2026-05-01T12:56:38Z</time></trkpt><trkpt lat="44.43334677935695" lon="6.740705197238957"><ele>1244.0</ele><time>2026-05-01T12:56:39Z</time></trkpt><trkpt lat="44.4330719669976" lon="6.740613867325185"><ele>1242.6666666666667</ele><time>2026-05-01T12:56:40Z</time></trkpt><trkpt lat="44.43286564098697" lon="6.74046742316814"><ele>1241.3333333333333</ele><time>2026-05-01T12:56:41Z</time></trkpt><trkpt lat="44.432675001568924" lon="6.740332069002329"><ele>1240.0</ele><time>2026-05-01T12:56:42Z</time></trkpt><trkpt lat="44.43253086183544" lon="6.740135093478086"><ele>1245.0</ele><time>2026-05-01T12:56:43Z</time></trkpt><trkpt lat="44.43239288026325" lon="6.73987796218854"><ele>1250.0</ele><time>2026-05-01T12:56:44Z</time></trkpt><trkpt lat="44.43224683880292" lon="6.739595209341812"><ele>1245.5</ele><time>2026-05-01T12:56:45Z</time></trkpt><trkpt lat="44.43210201696637" lon="6.739311832090748"><ele>1241.0</ele><time>2026-05-01T12:56:46Z</time></trkpt><trkpt lat="44.431979237733806" lon="6.739045440245753"><ele>1241.0</ele><time>2026-05-01T12:56:47Z</time></trkpt><trkpt lat="44.431865468949546" lon="6.7388768825442344"><ele>1241.0</ele><time>2026-05-01T12:56:48Z</time></trkpt><trkpt lat="44.43173681027818" lon="6.738742803195276"><ele>1241.0</ele><time>2026-05-01T12:56:49Z</time></trkpt><trkpt lat="44.43157051443182" lon="6.7386309969312554"><ele>1241.0</ele><time>2026-05-01T12:56:50Z</time></trkpt><trkpt lat="44.43138917137751" lon="6.738554766590416"><ele>1241.0</ele><time>2026-05-01T12:56:51Z</time></trkpt><trkpt lat="44.431189763668755" lon="6.738505743344242"><ele>1241.0</ele><time>2026-05-01T12:56:52Z</time></trkpt><trkpt lat="44.431012386637775" lon="6.738405381429609"><ele>1241.3333333333335</ele><time>2026-05-01T12:56:53Z</time></trkpt><trkpt lat="44.43088359027308" lon="6.738285011550197"><ele>1241.6666666666667</ele><time>2026-05-01T12:56:54Z</time></trkpt><trkpt lat="44.43075238978333" lon="6.738116177575694"><ele>1242.0</ele><time>2026-05-01T12:56:55Z</time></trkpt><trkpt lat="44.430631730750825" lon="6.737887822774812"><ele>1239.0</ele><time>2026-05-01T12:56:56Z</time></trkpt><trkpt lat="44.43049374547438" lon="6.737620106572177"><ele>1236.0</ele><time>2026-05-01T12:56:57Z</time></trkpt><trkpt lat="44.43035652947476" lon="6.737359248392587"><ele>1236.0</ele><time>2026-05-01T12:56:58Z</time></trkpt><trkpt lat="44.430221055793034" lon="6.7371240833770605"><ele>1236.0</ele><time>2026-05-01T12:56:59Z</time></trkpt><trkpt lat="44.430073399195244" lon="6.736911812399744"><ele>1236.0</ele><time>2026-05-01T12:57:00Z</time></trkpt><trkpt lat="44.42992012138392" lon="6.736724442477923"><ele>1234.6666666666667</ele><time>2026-05-01T12:57:01Z</time></trkpt><trkpt lat="44.42975964518468" lon="6.736567478206023"><ele>1233.3333333333335</ele><time>2026-05-01T12:57:02Z</time></trkpt><trkpt lat="44.42958630189625" lon="6.736399332288072"><ele>1232.0</ele><time>2026-05-01T12:57:03Z</time></trkpt><trkpt lat="44.42938627319101" lon="6.736248960054894"><ele>1232.0</ele><time>2026-05-01T12:57:04Z</time></trkpt><trkpt lat="44.42915971937223" lon="6.73620014651182"><ele>1232.0</ele><time>2026-05-01T12:57:05Z</time></trkpt><trkpt lat="44.4289717839574" lon="6.7362022524232215"><ele>1232.0</ele><time>2026-05-01T12:57:06Z</time></trkpt><trkpt lat="44.42875208020836" lon="6.736271051273744"><ele>1232.5</ele><time>2026-05-01T12:57:07Z</time></trkpt><trkpt lat="44.42853123248025" lon="6.736319093672802"><ele>1233.0</ele><time>2026-05-01T12:57:08Z</time></trkpt><trkpt lat="44.42831182328381" lon="6.73640041766599"><ele>1233.0</ele><time>2026-05-01T12:57:09Z</time></trkpt><trkpt lat="44.428088725158574" lon="6.736526498054009"><ele>1233.0</ele><time>2026-05-01T12:57:10Z</time></trkpt><trkpt lat="44.427883247936336" lon="6.736624137271684"><ele>1233.0</ele><time>2026-05-01T12:57:11Z</time></trkpt><trkpt lat="44.42768452001713" lon="6.736722635935179"><ele>1233.0</ele><time>2026-05-01T12:57:12Z</time></trkpt><trkpt lat="44.427503124442815" lon="6.736836073524046"><ele>1233.0</ele><time>2026-05-01T12:57:13Z</time></trkpt><trkpt lat="44.42730995558078" lon="6.736892211220131"><ele>1232.0</ele><time>2026-05-01T12:57:14Z</time></trkpt><trkpt lat="44.42710673156195" lon="6.736926757479938"><ele>1231.0</ele><time>2026-05-01T12:57:15Z</time></trkpt><trkpt lat="44.426888930395485" lon="6.736942264541208"><ele>1230.0</ele><time>2026-05-01T12:57:16Z</time></trkpt><trkpt lat="44.426662018285676" lon="6.736956729098448"><ele>1230.0</ele><time>2026-05-01T12:57:17Z</time></trkpt><trkpt lat="44.426427607011135" lon="6.736967265815479"><ele>1230.0</ele><time>2026-05-01T12:57:18Z</time></trkpt><trkpt lat="44.42619952043569" lon="6.7369814179309655"><ele>1231.0</ele><time>2026-05-01T12:57:19Z</time></trkpt><trkpt lat="44.425968300850975" lon="6.736996253558168"><ele>1232.0</ele><time>2026-05-01T12:57:20Z</time></trkpt><trkpt lat="44.425737090282155" lon="6.737007080804928"><ele>1232.0</ele><time>2026-05-01T12:57:21Z</time></trkpt><trkpt lat="44.42551864228822" lon="6.737010749068511"><ele>1232.0</ele><time>2026-05-01T12:57:22Z</time></trkpt><trkpt lat="44.425295415914654" lon="6.737018169073663"><ele>1232.0</ele><time>2026-05-01T12:57:23Z</time></trkpt><trkpt lat="44.42507902955365" lon="6.737027656711414"><ele>1231.0</ele><time>2026-05-01T12:57:24Z</time></trkpt><trkpt lat="44.424860143276995" lon="6.737030540321043"><ele>1230.0</ele><time>2026-05-01T12:57:25Z</time></trkpt><trkpt lat="44.42464242699018" lon="6.737035034901353"><ele>1229.0</ele><time>2026-05-01T12:57:26Z</time></trkpt><trkpt lat="44.42445507221794" lon="6.737039921484059"><ele>1229.0</ele><time>2026-05-01T12:57:27Z</time></trkpt><trkpt lat="44.42428006548676" lon="6.737052817918208"><ele>1229.0</ele><time>2026-05-01T12:57:28Z</time></trkpt><trkpt lat="44.424108355108785" lon="6.73707397732793"><ele>1229.0</ele><time>2026-05-01T12:57:29Z</time></trkpt><trkpt lat="44.423922121085" lon="6.737116944885383"><ele>1227.3333333333335</ele><time>2026-05-01T12:57:30Z</time></trkpt><trkpt lat="44.42375370900195" lon="6.73711465785"><ele>1225.6666666666667</ele><time>2026-05-01T12:57:31Z</time></trkpt><trkpt lat="44.423588141582954" lon="6.73711574311269"><ele>1224.0</ele><time>2026-05-01T12:57:32Z</time></trkpt><trkpt lat="44.42342487029143" lon="6.737118387244457"><ele>1224.0</ele><time>2026-05-01T12:57:33Z</time></trkpt><trkpt lat="44.42325423320105" lon="6.737141776784197"><ele>1224.0</ele><time>2026-05-01T12:57:34Z</time></trkpt><trkpt lat="44.42308065028201" lon="6.737157838345748"><ele>1224.0</ele><time>2026-05-01T12:57:35Z</time></trkpt><trkpt lat="44.4229074437577" lon="6.737162747987181"><ele>1225.0</ele><time>2026-05-01T12:57:36Z</time></trkpt><trkpt lat="44.4227456774723" lon="6.737150343612767"><ele>1226.0</ele><time>2026-05-01T12:57:37Z</time></trkpt><trkpt lat="44.42259286998993" lon="6.737166591192257"><ele>1227.0</ele><time>2026-05-01T12:57:38Z</time></trkpt><trkpt lat="44.4224391882574" lon="6.737193857916652"><ele>1227.0</ele><time>2026-05-01T12:57:39Z</time></trkpt><trkpt lat="44.42228141742731" lon="6.737203796197539"><ele>1227.0</ele><time>2026-05-01T12:57:40Z</time></trkpt><trkpt lat="44.42212766265515" lon="6.737180498798097"><ele>1227.0</ele><time>2026-05-01T12:57:41Z</time></trkpt><trkpt lat="44.42196652904828" lon="6.737147958225825"><ele>1225.5</ele><time>2026-05-01T12:57:42Z</time></trkpt><trkpt lat="44.42181536621234" lon="6.737118230322575"><ele>1224.0</ele><time>2026-05-01T12:57:43Z</time></trkpt><trkpt lat="44.42166872872273" lon="6.737062236695079"><ele>1222.5</ele><time>2026-05-01T12:57:44Z</time></trkpt><trkpt lat="44.421527421742624" lon="6.7370187717361585"><ele>1221.0</ele><time>2026-05-01T12:57:45Z</time></trkpt><trkpt lat="44.42140542886014" lon="6.736977170550811"><ele>1220.75</ele><time>2026-05-01T12:57:46Z</time></trkpt><trkpt lat="44.42128842211984" lon="6.73693282382225"><ele>1220.5</ele><time>2026-05-01T12:57:47Z</time></trkpt><trkpt lat="44.42117001491784" lon="6.736891441876159"><ele>1220.25</ele><time>2026-05-01T12:57:48Z</time></trkpt><trkpt lat="44.42105667079916" lon="6.7368305471228584"><ele>1220.0</ele><time>2026-05-01T12:57:49Z</time></trkpt><trkpt lat="44.42095901403289" lon="6.736781107363379"><ele>1219.8333333333335</ele><time>2026-05-01T12:57:50Z</time></trkpt><trkpt lat="44.420870289153214" lon="6.736743706126822"><ele>1219.6666666666667</ele><time>2026-05-01T12:57:51Z</time></trkpt><trkpt lat="44.4207949962821" lon="6.736718358212335"><ele>1219.5</ele><time>2026-05-01T12:57:52Z</time></trkpt><trkpt lat="44.42073152336538" lon="6.736717065121154"><ele>1219.3333333333333</ele><time>2026-05-01T12:57:53Z</time></trkpt><trkpt lat="44.420675893042926" lon="6.736667802660284"><ele>1219.1666666666665</ele><time>2026-05-01T12:57:54Z</time></trkpt><trkpt lat="44.42059917522049" lon="6.736618025653246"><ele>1219.0</ele><time>2026-05-01T12:57:55Z</time></trkpt><trkpt lat="44.42053000182752" lon="6.736588868734892"><ele>1219.1666666666665</ele><time>2026-05-01T12:57:56Z</time></trkpt><trkpt lat="44.42046368412394" lon="6.7365239633891445"><ele>1219.3333333333333</ele><time>2026-05-01T12:57:57Z</time></trkpt><trkpt lat="44.42038913194086" lon="6.736453939030157"><ele>1219.5</ele><time>2026-05-01T12:57:58Z</time></trkpt><trkpt lat="44.4203173064018" lon="6.736386266490588"><ele>1219.6666666666667</ele><time>2026-05-01T12:57:59Z</time></trkpt><trkpt lat="44.42023489374543" lon="6.736329172859734"><ele>1219.8333333333335</ele><time>2026-05-01T12:58:00Z</time></trkpt><trkpt lat="44.42016895127945" lon="6.73625323686342"><ele>1220.0</ele><time>2026-05-01T12:58:01Z</time></trkpt><trkpt lat="44.42015233380643" lon="6.736140273134091"><ele>1220.0</ele><time>2026-05-01T12:58:02Z</time></trkpt><trkpt lat="44.42009674637076" lon="6.73602664843345"><ele>1220.0</ele><time>2026-05-01T12:58:03Z</time></trkpt><trkpt lat="44.420122770383124" lon="6.735902012022072"><ele>1220.0</ele><time>2026-05-01T12:58:04Z</time></trkpt><trkpt lat="44.420119237110725" lon="6.735777748981057"><ele>1220.0</ele><time>2026-05-01T12:58:05Z</time></trkpt><trkpt lat="44.42012441518407" lon="6.735651233237122"><ele>1220.0</ele><time>2026-05-01T12:58:06Z</time></trkpt><trkpt lat="44.42013235115889" lon="6.735518096340659"><ele>1220.0</ele><time>2026-05-01T12:58:07Z</time></trkpt><trkpt lat="44.4200943091302" lon="6.735377985000777"><ele>1220.0</ele><time>2026-05-01T12:58:08Z</time></trkpt><trkpt lat="44.42005595944151" lon="6.735241939990004"><ele>1220.0</ele><time>2026-05-01T12:58:09Z</time></trkpt><trkpt lat="44.42001679064843" lon="6.735091261165912"><ele>1220.0</ele><time>2026-05-01T12:58:10Z</time></trkpt><trkpt lat="44.41994222936079" lon="6.734934731821387"><ele>1220.0</ele><time>2026-05-01T12:58:11Z</time></trkpt><trkpt lat="44.41988918448555" lon="6.734801239923313"><ele>1220.0</ele><time>2026-05-01T12:58:12Z</time></trkpt><trkpt lat="44.419841877847745" lon="6.734671471319253"><ele>1220.0</ele><time>2026-05-01T12:58:13Z</time></trkpt><trkpt lat="44.419805397422586" lon="6.7345277780349715"><ele>1220.0</ele><time>2026-05-01T12:58:14Z</time></trkpt><trkpt lat="44.41974084028302" lon="6.734399121166981"><ele>1220.0</ele><time>2026-05-01T12:58:15Z</time></trkpt><trkpt lat="44.419677935309785" lon="6.734284822080909"><ele>1220.4</ele><time>2026-05-01T12:58:16Z</time></trkpt><trkpt lat="44.41962210440219" lon="6.734170415617022"><ele>1220.8</ele><time>2026-05-01T12:58:17Z</time></trkpt><trkpt lat="44.41956134858985" lon="6.73404710584064"><ele>1221.2</ele><time>2026-05-01T12:58:18Z</time></trkpt><trkpt lat="44.4195052893506" lon="6.733921110584753"><ele>1221.6</ele><time>2026-05-01T12:58:19Z</time></trkpt><trkpt lat="44.4194474602163" lon="6.733787174595817"><ele>1222.0</ele><time>2026-05-01T12:58:20Z</time></trkpt><trkpt lat="44.419385313750176" lon="6.733669865602522"><ele>1222.0</ele><time>2026-05-01T12:58:21Z</time></trkpt><trkpt lat="44.4193200703334" lon="6.733564901012119"><ele>1222.0</ele><time>2026-05-01T12:58:22Z</time></trkpt><trkpt lat="44.41922682700786" lon="6.7334811228555"><ele>1222.0</ele><time>2026-05-01T12:58:23Z</time></trkpt><trkpt lat="44.419116269234934" lon="6.733419987623037"><ele>1222.0</ele><time>2026-05-01T12:58:24Z</time></trkpt><trkpt lat="44.41900006477813" lon="6.7333432419253745"><ele>1221.4</ele><time>2026-05-01T12:58:25Z</time></trkpt><trkpt lat="44.41892380102662" lon="6.733257267558583"><ele>1220.8000000000002</ele><time>2026-05-01T12:58:26Z</time></trkpt><trkpt lat="44.41883672920023" lon="6.733182979082831"><ele>1220.2</ele><time>2026-05-01T12:58:27Z</time></trkpt><trkpt lat="44.41876575374271" lon="6.733068577734508"><ele>1219.6000000000001</ele><time>2026-05-01T12:58:28Z</time></trkpt><trkpt lat="44.418729939570206" lon="6.732936621091224"><ele>1219.0</ele><time>2026-05-01T12:58:29Z</time></trkpt><trkpt lat="44.418695482364015" lon="6.732786057195608"><ele>1218.2</ele><time>2026-05-01T12:58:30Z</time></trkpt><trkpt lat="44.41866373892438" lon="6.7326294336090475"><ele>1217.4</ele><time>2026-05-01T12:58:31Z</time></trkpt><trkpt lat="44.41861914100726" lon="6.732494915859126"><ele>1216.6</ele><time>2026-05-01T12:58:32Z</time></trkpt><trkpt lat="44.41860280498936" lon="6.732347788446479"><ele>1215.8</ele><time>2026-05-01T12:58:33Z</time></trkpt><trkpt lat="44.41856673124761" lon="6.73222814744687"><ele>1215.0</ele><time>2026-05-01T12:58:34Z</time></trkpt><trkpt lat="44.418543530089615" lon="6.732081209577786"><ele>1215.0</ele><time>2026-05-01T12:58:35Z</time></trkpt><trkpt lat="44.418508896009655" lon="6.73193215516349"><ele>1215.0</ele><time>2026-05-01T12:58:36Z</time></trkpt><trkpt lat="44.41846523666894" lon="6.731783304715631"><ele>1215.0</ele><time>2026-05-01T12:58:37Z</time></trkpt><trkpt lat="44.41843185602994" lon="6.731645118973897"><ele>1215.0</ele><time>2026-05-01T12:58:38Z</time></trkpt><trkpt lat="44.418393880811635" lon="6.7314919602383805"><ele>1215.0</ele><time>2026-05-01T12:58:39Z</time></trkpt><trkpt lat="44.41836131388476" lon="6.731304722573343"><ele>1215.25</ele><time>2026-05-01T12:58:40Z</time></trkpt><trkpt lat="44.41829677510148" lon="6.731130242051262"><ele>1215.5</ele><time>2026-05-01T12:58:41Z</time></trkpt><trkpt lat="44.41823975696281" lon="6.731003886826069"><ele>1215.75</ele><time>2026-05-01T12:58:42Z</time></trkpt><trkpt lat="44.4181778179761" lon="6.730861581944304"><ele>1216.0</ele><time>2026-05-01T12:58:43Z</time></trkpt><trkpt lat="44.41808575020063" lon="6.730741694700525"><ele>1216.0</ele><time>2026-05-01T12:58:44Z</time></trkpt><trkpt lat="44.41799331991128" lon="6.730589688773092"><ele>1216.0</ele><time>2026-05-01T12:58:45Z</time></trkpt><trkpt lat="44.41791578718624" lon="6.730465431331431"><ele>1216.0</ele><time>2026-05-01T12:58:46Z</time></trkpt><trkpt lat="44.41782284995497" lon="6.730336583578934"><ele>1216.0</ele><time>2026-05-01T12:58:47Z</time></trkpt><trkpt lat="44.41773419868619" lon="6.730218366489174"><ele>1215.0</ele><time>2026-05-01T12:58:48Z</time></trkpt><trkpt lat="44.41765327861253" lon="6.7300869627714155"><ele>1214.0</ele><time>2026-05-01T12:58:49Z</time></trkpt><trkpt lat="44.41756238383207" lon="6.72994577325551"><ele>1213.0</ele><time>2026-05-01T12:58:50Z</time></trkpt><trkpt lat="44.417485336146854" lon="6.729778467604549"><ele>1212.0</ele><time>2026-05-01T12:58:51Z</time></trkpt><trkpt lat="44.41739525810272" lon="6.729640565308056"><ele>1212.0</ele><time>2026-05-01T12:58:52Z</time></trkpt><trkpt lat="44.417298064352536" lon="6.7295005075165575"><ele>1212.0</ele><time>2026-05-01T12:58:53Z</time></trkpt><trkpt lat="44.41719306853428" lon="6.729367053617766"><ele>1212.0</ele><time>2026-05-01T12:58:54Z</time></trkpt><trkpt lat="44.41709542389364" lon="6.7292347852116965"><ele>1212.0</ele><time>2026-05-01T12:58:55Z</time></trkpt><trkpt lat="44.416998750443426" lon="6.7290997008195745"><ele>1212.5</ele><time>2026-05-01T12:58:56Z</time></trkpt><trkpt lat="44.416905899731375" lon="6.728964210870466"><ele>1213.0</ele><time>2026-05-01T12:58:57Z</time></trkpt><trkpt lat="44.41680331317886" lon="6.728840181754887"><ele>1213.5</ele><time>2026-05-01T12:58:58Z</time></trkpt><trkpt lat="44.41670104779723" lon="6.728713981568848"><ele>1214.0</ele><time>2026-05-01T12:58:59Z</time></trkpt><trkpt lat="44.416590807269905" lon="6.728627750018335"><ele>1214.5</ele><time>2026-05-01T12:59:00Z</time></trkpt><trkpt lat="44.41645295212906" lon="6.728542678644231"><ele>1215.0</ele><time>2026-05-01T12:59:01Z</time></trkpt><trkpt lat="44.41631961364983" lon="6.728464140235571"><ele>1215.5</ele><time>2026-05-01T12:59:02Z</time></trkpt><trkpt lat="44.416182404107985" lon="6.7284011466947415"><ele>1216.0</ele><time>2026-05-01T12:59:03Z</time></trkpt><trkpt lat="44.41603856014322" lon="6.728330193157066"><ele>1216.0</ele><time>2026-05-01T12:59:04Z</time></trkpt><trkpt lat="44.415895127945234" lon="6.728293360780881"><ele>1216.0</ele><time>2026-05-01T12:59:05Z</time></trkpt><trkpt lat="44.415752313741294" lon="6.728256139488108"><ele>1216.0</ele><time>2026-05-01T12:59:06Z</time></trkpt><trkpt lat="44.41560723983179" lon="6.728226754490515"><ele>1216.0</ele><time>2026-05-01T12:59:07Z</time></trkpt><trkpt lat="44.415465040041454" lon="6.728198194414099"><ele>1216.0</ele><time>2026-05-01T12:59:08Z</time></trkpt><trkpt lat="44.4153235256531" lon="6.728168232109722"><ele>1216.0</ele><time>2026-05-01T12:59:09Z</time></trkpt><trkpt lat="44.415177128698794" lon="6.728171162269847"><ele>1216.0</ele><time>2026-05-01T12:59:10Z</time></trkpt><trkpt lat="44.415029037944244" lon="6.728206596646576"><ele>1216.0</ele><time>2026-05-01T12:59:11Z</time></trkpt><trkpt lat="44.414887677584595" lon="6.728273045666407"><ele>1216.0</ele><time>2026-05-01T12:59:12Z</time></trkpt><trkpt lat="44.41474227650302" lon="6.728340165978476"><ele>1216.0</ele><time>2026-05-01T12:59:13Z</time></trkpt><trkpt lat="44.41460589506954" lon="6.728399109316789"><ele>1216.0</ele><time>2026-05-01T12:59:14Z</time></trkpt><trkpt lat="44.41446762235597" lon="6.728458881322897"><ele>1216.0</ele><time>2026-05-01T12:59:15Z</time></trkpt><trkpt lat="44.41432835129874" lon="6.72853193729704"><ele>1215.6666666666665</ele><time>2026-05-01T12:59:16Z</time></trkpt><trkpt lat="44.41418039774322" lon="6.7285775422736"><ele>1215.3333333333333</ele><time>2026-05-01T12:59:17Z</time></trkpt><trkpt lat="44.41403712102406" lon="6.728638165858458"><ele>1215.0</ele><time>2026-05-01T12:59:18Z</time></trkpt><trkpt lat="44.413882248506475" lon="6.728703859618506"><ele>1215.0</ele><time>2026-05-01T12:59:19Z</time></trkpt><trkpt lat="44.413748392598755" lon="6.728761180247562"><ele>1215.0</ele><time>2026-05-01T12:59:20Z</time></trkpt><trkpt lat="44.41360124081475" lon="6.728824194539962"><ele>1215.0</ele><time>2026-05-01T12:59:21Z</time></trkpt><trkpt lat="44.41345494069037" lon="6.728885337281165"><ele>1215.0</ele><time>2026-05-01T12:59:22Z</time></trkpt><trkpt lat="44.41330061709501" lon="6.728942589611112"><ele>1215.0</ele><time>2026-05-01T12:59:23Z</time></trkpt><trkpt lat="44.41314766399974" lon="6.728988368764117"><ele>1215.0</ele><time>2026-05-01T12:59:24Z</time></trkpt><trkpt lat="44.41299498545051" lon="6.729018470488377"><ele>1215.0</ele><time>2026-05-01T12:59:25Z</time></trkpt><trkpt lat="44.41284778179437" lon="6.729102928282716"><ele>1214.6666666666667</ele><time>2026-05-01T12:59:26Z</time></trkpt><trkpt lat="44.412669884041875" lon="6.729063915886365"><ele>1214.3333333333335</ele><time>2026-05-01T12:59:27Z</time></trkpt><trkpt lat="44.41250513649932" lon="6.729027760858971"><ele>1214.0</ele><time>2026-05-01T12:59:28Z</time></trkpt><trkpt lat="44.41233644032733" lon="6.728994746380097"><ele>1214.0</ele><time>2026-05-01T12:59:29Z</time></trkpt><trkpt lat="44.41217072768629" lon="6.728959385222692"><ele>1214.0</ele><time>2026-05-01T12:59:30Z</time></trkpt><trkpt lat="44.412009386255846" lon="6.7288483650996636"><ele>1214.0</ele><time>2026-05-01T12:59:31Z</time></trkpt><trkpt lat="44.411828547317775" lon="6.728795553722843"><ele>1213.3333333333335</ele><time>2026-05-01T12:59:32Z</time></trkpt><trkpt lat="44.41165183464289" lon="6.728743374319908"><ele>1212.6666666666667</ele><time>2026-05-01T12:59:33Z</time></trkpt><trkpt lat="44.41147140150836" lon="6.728683780849909"><ele>1212.0</ele><time>2026-05-01T12:59:34Z</time></trkpt><trkpt lat="44.41128408154108" lon="6.7286155580992215"><ele>1213.3333333333333</ele><time>2026-05-01T12:59:35Z</time></trkpt><trkpt lat="44.41110078043763" lon="6.728540091395574"><ele>1214.6666666666665</ele><time>2026-05-01T12:59:36Z</time></trkpt><trkpt lat="44.41093264908009" lon="6.728456958787126"><ele>1216.0</ele><time>2026-05-01T12:59:37Z</time></trkpt><trkpt lat="44.410769206367604" lon="6.7283530659451705"><ele>1216.0</ele><time>2026-05-01T12:59:38Z</time></trkpt><trkpt lat="44.41060047165916" lon="6.7282307540236586"><ele>1216.0</ele><time>2026-05-01T12:59:39Z</time></trkpt><trkpt lat="44.410436019646134" lon="6.728096528249655"><ele>1216.0</ele><time>2026-05-01T12:59:40Z</time></trkpt><trkpt lat="44.41027929692414" lon="6.727945401322893"><ele>1216.0</ele><time>2026-05-01T12:59:41Z</time></trkpt><trkpt lat="44.41012197453758" lon="6.727772905446757"><ele>1216.0</ele><time>2026-05-01T12:59:42Z</time></trkpt><trkpt lat="44.40996892501702" lon="6.727593061726981"><ele>1216.0</ele><time>2026-05-01T12:59:43Z</time></trkpt><trkpt lat="44.40981831880818" lon="6.727400367323508"><ele>1216.0</ele><time>2026-05-01T12:59:44Z</time></trkpt><trkpt lat="44.40966390237998" lon="6.727194858825788"><ele>1216.0</ele><time>2026-05-01T12:59:45Z</time></trkpt><trkpt lat="44.409514388942604" lon="6.726987865392213"><ele>1216.0</ele><time>2026-05-01T12:59:46Z</time></trkpt><trkpt lat="44.40937430390852" lon="6.726769789705811"><ele>1214.6666666666665</ele><time>2026-05-01T12:59:47Z</time></trkpt><trkpt lat="44.409242549251985" lon="6.726543501995971"><ele>1213.3333333333333</ele><time>2026-05-01T12:59:48Z</time></trkpt><trkpt lat="44.40910942058717" lon="6.726306813096199"><ele>1212.0</ele><time>2026-05-01T12:59:49Z</time></trkpt><trkpt lat="44.40898168235164" lon="6.726070028225807"><ele>1212.6666666666667</ele><time>2026-05-01T12:59:50Z</time></trkpt><trkpt lat="44.40885849224038" lon="6.725817376918685"><ele>1213.3333333333335</ele><time>2026-05-01T12:59:51Z</time></trkpt><trkpt lat="44.408739764065636" lon="6.725564799106044"><ele>1214.0</ele><time>2026-05-01T12:59:52Z</time></trkpt><trkpt lat="44.408626145471686" lon="6.725320144827741"><ele>1213.3333333333335</ele><time>2026-05-01T12:59:53Z</time></trkpt><trkpt lat="44.40850397078488" lon="6.725087342612692"><ele>1212.6666666666667</ele><time>2026-05-01T12:59:54Z</time></trkpt><trkpt lat="44.40838974190814" lon="6.724832497760738"><ele>1212.0</ele><time>2026-05-01T12:59:55Z</time></trkpt><trkpt lat="44.40826986643559" lon="6.724588752940012"><ele>1212.6666666666667</ele><time>2026-05-01T12:59:56Z</time></trkpt><trkpt lat="44.40817203278767" lon="6.724336691195999"><ele>1213.3333333333335</ele><time>2026-05-01T12:59:57Z</time></trkpt><trkpt lat="44.408057322015345" lon="6.724086871236111"><ele>1214.0</ele><time>2026-05-01T12:59:58Z</time></trkpt><trkpt lat="44.407930439399664" lon="6.723848792430056"><ele>1212.6666666666667</ele><time>2026-05-01T12:59:59Z</time></trkpt><trkpt lat="44.40782443095399" lon="6.723608708416709"><ele>1211.3333333333333</ele><time>2026-05-01T13:00:00Z</time></trkpt><trkpt lat="44.40771382532474" lon="6.723369978412011"><ele>1210.0</ele><time>2026-05-01T13:00:01Z</time></trkpt><trkpt lat="44.40760855923825" lon="6.723138707381393"><ele>1210.0</ele><time>2026-05-01T13:00:02Z</time></trkpt><trkpt lat="44.40750357729509" lon="6.722913945930725"><ele>1210.0</ele><time>2026-05-01T13:00:03Z</time></trkpt><trkpt lat="44.40740296234794" lon="6.722724359574435"><ele>1210.0</ele><time>2026-05-01T13:00:04Z</time></trkpt><trkpt lat="44.40729948186382" lon="6.722505759309517"><ele>1210.0</ele><time>2026-05-01T13:00:05Z</time></trkpt><trkpt lat="44.40720596937369" lon="6.722281196658022"><ele>1210.0</ele><time>2026-05-01T13:00:06Z</time></trkpt><trkpt lat="44.40710221205124" lon="6.722041109066606"><ele>1210.0</ele><time>2026-05-01T13:00:07Z</time></trkpt><trkpt lat="44.407024878736365" lon="6.721759155273735"><ele>1210.0</ele><time>2026-05-01T13:00:08Z</time></trkpt><trkpt lat="44.40693923922732" lon="6.721484936699292"><ele>1210.0</ele><time>2026-05-01T13:00:09Z</time></trkpt><trkpt lat="44.40686380429516" lon="6.721237931876055"><ele>1210.0</ele><time>2026-05-01T13:00:10Z</time></trkpt><trkpt lat="44.406785650303505" lon="6.7209822312504235"><ele>1210.3333333333333</ele><time>2026-05-01T13:00:11Z</time></trkpt><trkpt lat="44.4067098146198" lon="6.720730979132566"><ele>1210.6666666666667</ele><time>2026-05-01T13:00:12Z</time></trkpt><trkpt lat="44.40663768422007" lon="6.7204920022684895"><ele>1211.0</ele><time>2026-05-01T13:00:13Z</time></trkpt><trkpt lat="44.4065697401242" lon="6.720266895252384"><ele>1211.3333333333335</ele><time>2026-05-01T13:00:14Z</time></trkpt><trkpt lat="44.406500696082105" lon="6.72003814400883"><ele>1211.6666666666667</ele><time>2026-05-01T13:00:15Z</time></trkpt><trkpt lat="44.40643337846916" lon="6.71981511266356"><ele>1212.0</ele><time>2026-05-01T13:00:16Z</time></trkpt><trkpt lat="44.40636645421355" lon="6.719593386327141"><ele>1210.0</ele><time>2026-05-01T13:00:17Z</time></trkpt><trkpt lat="44.40629400949976" lon="6.719408939963435"><ele>1208.0</ele><time>2026-05-01T13:00:18Z</time></trkpt><trkpt lat="44.40624408224305" lon="6.719218910141469"><ele>1206.0</ele><time>2026-05-01T13:00:19Z</time></trkpt><trkpt lat="44.406186920430834" lon="6.719032339672566"><ele>1204.0</ele><time>2026-05-01T13:00:20Z</time></trkpt><trkpt lat="44.40613092225558" lon="6.718827434600326"><ele>1203.6666666666665</ele><time>2026-05-01T13:00:21Z</time></trkpt><trkpt lat="44.40607820377089" lon="6.718629412487273"><ele>1203.3333333333333</ele><time>2026-05-01T13:00:22Z</time></trkpt><trkpt lat="44.40602165066343" lon="6.718433198564919"><ele>1203.0</ele><time>2026-05-01T13:00:23Z</time></trkpt><trkpt lat="44.405961327405265" lon="6.718218537359655"><ele>1202.6666666666667</ele><time>2026-05-01T13:00:24Z</time></trkpt><trkpt lat="44.40590827079657" lon="6.717982030977212"><ele>1202.3333333333335</ele><time>2026-05-01T13:00:25Z</time></trkpt><trkpt lat="44.40584390055024" lon="6.717697567869029"><ele>1202.0</ele><time>2026-05-01T13:00:26Z</time></trkpt><trkpt lat="44.405798689512864" lon="6.717445559009751"><ele>1203.0</ele><time>2026-05-01T13:00:27Z</time></trkpt><trkpt lat="44.40576530292677" lon="6.717185211585278"><ele>1204.0</ele><time>2026-05-01T13:00:28Z</time></trkpt><trkpt lat="44.4057287928247" lon="6.716937234697164"><ele>1205.0</ele><time>2026-05-01T13:00:29Z</time></trkpt><trkpt lat="44.40568922824608" lon="6.71670049238166"><ele>1205.0</ele><time>2026-05-01T13:00:30Z</time></trkpt><trkpt lat="44.40565769113872" lon="6.716457575070795"><ele>1205.0</ele><time>2026-05-01T13:00:31Z</time></trkpt><trkpt lat="44.405618580186726" lon="6.716223006519231"><ele>1205.0</ele><time>2026-05-01T13:00:32Z</time></trkpt><trkpt lat="44.40557910700357" lon="6.715982220424254"><ele>1204.6666666666667</ele><time>2026-05-01T13:00:33Z</time></trkpt><trkpt lat="44.4055399852006" lon="6.715738416287502"><ele>1204.3333333333333</ele><time>2026-05-01T13:00:34Z</time></trkpt><trkpt lat="44.405510015135555" lon="6.71549964613956"><ele>1204.0</ele><time>2026-05-01T13:00:35Z</time></trkpt><trkpt lat="44.40548343132747" lon="6.715264612746347"><ele>1200.0</ele><time>2026-05-01T13:00:36Z</time></trkpt><trkpt lat="44.40542827698236" lon="6.715020732479626"><ele>1196.0</ele><time>2026-05-01T13:00:37Z</time></trkpt><trkpt lat="44.40538016639646" lon="6.714768488924895"><ele>1192.0</ele><time>2026-05-01T13:00:38Z</time></trkpt><trkpt lat="44.40534020941122" lon="6.714499816360737"><ele>1192.0</ele><time>2026-05-01T13:00:39Z</time></trkpt><trkpt lat="44.40530759377573" lon="6.71424062636312"><ele>1192.0</ele><time>2026-05-01T13:00:40Z</time></trkpt><trkpt lat="44.40529515539506" lon="6.714002648182751"><ele>1192.0</ele><time>2026-05-01T13:00:41Z</time></trkpt><trkpt lat="44.405261914612886" lon="6.713779556240221"><ele>1192.0</ele><time>2026-05-01T13:00:42Z</time></trkpt><trkpt lat="44.405224503046256" lon="6.713555806905968"><ele>1192.0</ele><time>2026-05-01T13:00:43Z</time></trkpt><trkpt lat="44.40518629446995" lon="6.713320131035458"><ele>1192.0</ele><time>2026-05-01T13:00:44Z</time></trkpt><trkpt lat="44.40515416696255" lon="6.713077019955911"><ele>1192.0</ele><time>2026-05-01T13:00:45Z</time></trkpt><trkpt lat="44.40511589137011" lon="6.712841232000031"><ele>1192.0</ele><time>2026-05-01T13:00:46Z</time></trkpt><trkpt lat="44.40507757582936" lon="6.712599751546957"><ele>1192.0</ele><time>2026-05-01T13:00:47Z</time></trkpt><trkpt lat="44.405041977866524" lon="6.712381790912879"><ele>1192.3333333333333</ele><time>2026-05-01T13:00:48Z</time></trkpt><trkpt lat="44.404997937958626" lon="6.712143756898268"><ele>1192.6666666666667</ele><time>2026-05-01T13:00:49Z</time></trkpt><trkpt lat="44.40496761157719" lon="6.711910425495678"><ele>1193.0</ele><time>2026-05-01T13:00:50Z</time></trkpt><trkpt lat="44.40493794893464" lon="6.711665211123933"><ele>1193.0</ele><time>2026-05-01T13:00:51Z</time></trkpt><trkpt lat="44.40489968188756" lon="6.711406514269935"><ele>1193.0</ele><time>2026-05-01T13:00:52Z</time></trkpt><trkpt lat="44.40486374773202" lon="6.711151975748358"><ele>1193.0</ele><time>2026-05-01T13:00:53Z</time></trkpt><trkpt lat="44.4048620141486" lon="6.710889065526134"><ele>1192.3333333333335</ele><time>2026-05-01T13:00:54Z</time></trkpt><trkpt lat="44.40486047243687" lon="6.710622403838416"><ele>1191.6666666666667</ele><time>2026-05-01T13:00:55Z</time></trkpt><trkpt lat="44.40486699794425" lon="6.710362676833825"><ele>1191.0</ele><time>2026-05-01T13:00:56Z</time></trkpt><trkpt lat="44.40486590447792" lon="6.710106787698982"><ele>1191.0</ele><time>2026-05-01T13:00:57Z</time></trkpt><trkpt lat="44.404871716614224" lon="6.709874988701071"><ele>1191.0</ele><time>2026-05-01T13:00:58Z</time></trkpt><trkpt lat="44.40486081408952" lon="6.709628494581878"><ele>1191.0</ele><time>2026-05-01T13:00:59Z</time></trkpt><trkpt lat="44.40485624193134" lon="6.7093787175648245"><ele>1190.3333333333333</ele><time>2026-05-01T13:01:00Z</time></trkpt><trkpt lat="44.404861727382574" lon="6.7091292844678785"><ele>1189.6666666666665</ele><time>2026-05-01T13:01:01Z</time></trkpt><trkpt lat="44.40486112256268" lon="6.708885806734562"><ele>1189.0</ele><time>2026-05-01T13:01:02Z</time></trkpt><trkpt lat="44.404860598806046" lon="6.708636966778189"><ele>1187.6666666666665</ele><time>2026-05-01T13:01:03Z</time></trkpt><trkpt lat="44.40486008911303" lon="6.708394808268977"><ele>1186.3333333333333</ele><time>2026-05-01T13:01:04Z</time></trkpt><trkpt lat="44.404859434620604" lon="6.708151983830513"><ele>1185.0</ele><time>2026-05-01T13:01:05Z</time></trkpt><trkpt lat="44.40485783659606" lon="6.707909469788349"><ele>1184.3333333333333</ele><time>2026-05-01T13:01:06Z</time></trkpt><trkpt lat="44.404856321863186" lon="6.7076795969219045"><ele>1183.6666666666665</ele><time>2026-05-01T13:01:07Z</time></trkpt><trkpt lat="44.40485460529609" lon="6.707419094289964"><ele>1183.0</ele><time>2026-05-01T13:01:08Z</time></trkpt><trkpt lat="44.4048531023764" lon="6.707191013637029"><ele>1183.0</ele><time>2026-05-01T13:01:09Z</time></trkpt><trkpt lat="44.404851600870806" lon="6.706963148113142"><ele>1183.0</ele><time>2026-05-01T13:01:10Z</time></trkpt><trkpt lat="44.40485013983493" lon="6.706741423356112"><ele>1183.0</ele><time>2026-05-01T13:01:11Z</time></trkpt><trkpt lat="44.40484856246374" lon="6.706502044828985"><ele>1182.0</ele><time>2026-05-01T13:01:12Z</time></trkpt><trkpt lat="44.40484724555742" lon="6.706280072276757"><ele>1181.0</ele><time>2026-05-01T13:01:13Z</time></trkpt><trkpt lat="44.40484687368852" lon="6.706062541613549"><ele>1180.0</ele><time>2026-05-01T13:01:14Z</time></trkpt><trkpt lat="44.404835791984866" lon="6.705833091443869"><ele>1180.0</ele><time>2026-05-01T13:01:15Z</time></trkpt><trkpt lat="44.404794576013195" lon="6.70562241358711"><ele>1180.0</ele><time>2026-05-01T13:01:16Z</time></trkpt><trkpt lat="44.404789388697196" lon="6.705416292192952"><ele>1180.0</ele><time>2026-05-01T13:01:17Z</time></trkpt><trkpt lat="44.404721350032354" lon="6.705175193284572"><ele>1180.0</ele><time>2026-05-01T13:01:18Z</time></trkpt><trkpt lat="44.4046674513145" lon="6.7049611668454085"><ele>1180.0</ele><time>2026-05-01T13:01:19Z</time></trkpt><trkpt lat="44.404592316061624" lon="6.704711042113252"><ele>1180.0</ele><time>2026-05-01T13:01:20Z</time></trkpt><trkpt lat="44.40451140101512" lon="6.704415087175916"><ele>1180.3333333333333</ele><time>2026-05-01T13:01:21Z</time></trkpt><trkpt lat="44.40444053840358" lon="6.704139614995082"><ele>1180.6666666666667</ele><time>2026-05-01T13:01:22Z</time></trkpt><trkpt lat="44.40435666405086" lon="6.703834278735186"><ele>1181.0</ele><time>2026-05-01T13:01:23Z</time></trkpt><trkpt lat="44.40427655706128" lon="6.703526779074595"><ele>1181.0</ele><time>2026-05-01T13:01:24Z</time></trkpt><trkpt lat="44.404194700196854" lon="6.703196308083936"><ele>1181.0</ele><time>2026-05-01T13:01:25Z</time></trkpt><trkpt lat="44.404107135149296" lon="6.702906446699646"><ele>1181.6666666666667</ele><time>2026-05-01T13:01:26Z</time></trkpt><trkpt lat="44.40405111237777" lon="6.702643990011011"><ele>1182.3333333333333</ele><time>2026-05-01T13:01:27Z</time></trkpt><trkpt lat="44.40397447354587" lon="6.7024168750532835"><ele>1183.0</ele><time>2026-05-01T13:01:28Z</time></trkpt><trkpt lat="44.40388673192687" lon="6.702198514910701"><ele>1182.3333333333333</ele><time>2026-05-01T13:01:29Z</time></trkpt><trkpt lat="44.40376997910148" lon="6.702090476665202"><ele>1181.6666666666667</ele><time>2026-05-01T13:01:30Z</time></trkpt><trkpt lat="44.40362397393718" lon="6.701954929894343"><ele>1181.0</ele><time>2026-05-01T13:01:31Z</time></trkpt><trkpt lat="44.40347596137735" lon="6.701842263686417"><ele>1183.0</ele><time>2026-05-01T13:01:32Z</time></trkpt><trkpt lat="44.40330556518964" lon="6.701748037615564"><ele>1185.0</ele><time>2026-05-01T13:01:33Z</time></trkpt><trkpt lat="44.403104169543795" lon="6.701654709315121"><ele>1187.0</ele><time>2026-05-01T13:01:34Z</time></trkpt><trkpt lat="44.40283533336237" lon="6.701575666410474"><ele>1187.6666666666667</ele><time>2026-05-01T13:01:35Z</time></trkpt><trkpt lat="44.40262971533416" lon="6.70152577977855"><ele>1188.3333333333333</ele><time>2026-05-01T13:01:36Z</time></trkpt><trkpt lat="44.40243221313274" lon="6.701458332663784"><ele>1189.0</ele><time>2026-05-01T13:01:37Z</time></trkpt><trkpt lat="44.40227115338247" lon="6.701386484239931"><ele>1188.3333333333333</ele><time>2026-05-01T13:01:38Z</time></trkpt><trkpt lat="44.402117913077525" lon="6.701271672733575"><ele>1187.6666666666667</ele><time>2026-05-01T13:01:39Z</time></trkpt><trkpt lat="44.40199120040566" lon="6.701110428428682"><ele>1187.0</ele><time>2026-05-01T13:01:40Z</time></trkpt><trkpt lat="44.4018745771039" lon="6.700915149882928"><ele>1187.0</ele><time>2026-05-01T13:01:41Z</time></trkpt><trkpt lat="44.40178594355053" lon="6.700713879435486"><ele>1187.0</ele><time>2026-05-01T13:01:42Z</time></trkpt><trkpt lat="44.401701401189385" lon="6.700484112984042"><ele>1187.0</ele><time>2026-05-01T13:01:43Z</time></trkpt><trkpt lat="44.401603457018965" lon="6.700201498192671"><ele>1188.0</ele><time>2026-05-01T13:01:44Z</time></trkpt><trkpt lat="44.40150679285102" lon="6.699922577279056"><ele>1189.0</ele><time>2026-05-01T13:01:45Z</time></trkpt><trkpt lat="44.40139644966505" lon="6.699635939236753"><ele>1187.0</ele><time>2026-05-01T13:01:46Z</time></trkpt><trkpt lat="44.4012821640676" lon="6.6993154798251835"><ele>1185.0</ele><time>2026-05-01T13:01:47Z</time></trkpt><trkpt lat="44.40118350169362" lon="6.699019749560336"><ele>1185.0</ele><time>2026-05-01T13:01:48Z</time></trkpt><trkpt lat="44.40109933311458" lon="6.698731358867372"><ele>1185.0</ele><time>2026-05-01T13:01:49Z</time></trkpt><trkpt lat="44.40099988704593" lon="6.6984430835311795"><ele>1184.6666666666667</ele><time>2026-05-01T13:01:50Z</time></trkpt><trkpt lat="44.40089069264702" lon="6.698176758768801"><ele>1184.3333333333335</ele><time>2026-05-01T13:01:51Z</time></trkpt><trkpt lat="44.40079265645707" lon="6.697885446364104"><ele>1184.0</ele><time>2026-05-01T13:01:52Z</time></trkpt><trkpt lat="44.40071616227274" lon="6.697597723723533"><ele>1184.0</ele><time>2026-05-01T13:01:53Z</time></trkpt><trkpt lat="44.40061293125441" lon="6.697320166887947"><ele>1184.0</ele><time>2026-05-01T13:01:54Z</time></trkpt><trkpt lat="44.400517266340216" lon="6.6970604287709445"><ele>1184.0</ele><time>2026-05-01T13:01:55Z</time></trkpt><trkpt lat="44.400438761257625" lon="6.696784877939336"><ele>1182.0</ele><time>2026-05-01T13:01:56Z</time></trkpt><trkpt lat="44.400336846270136" lon="6.696537780597884"><ele>1180.0</ele><time>2026-05-01T13:01:57Z</time></trkpt><trkpt lat="44.40023739688285" lon="6.696271806442919"><ele>1178.0</ele><time>2026-05-01T13:01:58Z</time></trkpt><trkpt lat="44.40014395536893" lon="6.696013022043452"><ele>1178.0</ele><time>2026-05-01T13:01:59Z</time></trkpt><trkpt lat="44.4000596477142" lon="6.695758248176253"><ele>1178.0</ele><time>2026-05-01T13:02:00Z</time></trkpt><trkpt lat="44.3999788015904" lon="6.695508780423014"><ele>1178.0</ele><time>2026-05-01T13:02:01Z</time></trkpt><trkpt lat="44.39989029115131" lon="6.695270600746248"><ele>1177.6666666666667</ele><time>2026-05-01T13:02:02Z</time></trkpt><trkpt lat="44.39981808177242" lon="6.6950469421900936"><ele>1177.3333333333333</ele><time>2026-05-01T13:02:03Z</time></trkpt><trkpt lat="44.399739303008076" lon="6.694822156405128"><ele>1177.0</ele><time>2026-05-01T13:02:04Z</time></trkpt><trkpt lat="44.39967309814157" lon="6.6946189725942045"><ele>1177.0</ele><time>2026-05-01T13:02:05Z</time></trkpt><trkpt lat="44.39958385122009" lon="6.694412411961665"><ele>1177.0</ele><time>2026-05-01T13:02:06Z</time></trkpt><trkpt lat="44.399497091929376" lon="6.694240555659742"><ele>1177.0</ele><time>2026-05-01T13:02:07Z</time></trkpt><trkpt lat="44.39941774832189" lon="6.69407690924408"><ele>1177.0</ele><time>2026-05-01T13:02:08Z</time></trkpt><trkpt lat="44.399280393926574" lon="6.693958127435916"><ele>1177.0</ele><time>2026-05-01T13:02:09Z</time></trkpt><trkpt lat="44.39916161586678" lon="6.693829954294253"><ele>1177.0</ele><time>2026-05-01T13:02:10Z</time></trkpt><trkpt lat="44.3990103362002" lon="6.693702481363547"><ele>1179.0</ele><time>2026-05-01T13:02:11Z</time></trkpt><trkpt lat="44.39882355479322" lon="6.693551294713476"><ele>1181.0</ele><time>2026-05-01T13:02:12Z</time></trkpt><trkpt lat="44.39859125303729" lon="6.693375785674266"><ele>1181.0</ele><time>2026-05-01T13:02:13Z</time></trkpt><trkpt lat="44.398377810935656" lon="6.693187871739164"><ele>1181.0</ele><time>2026-05-01T13:02:14Z</time></trkpt><trkpt lat="44.39815834168173" lon="6.693040645923778"><ele>1179.5</ele><time>2026-05-01T13:02:15Z</time></trkpt><trkpt lat="44.397956606605135" lon="6.692857783759814"><ele>1178.0</ele><time>2026-05-01T13:02:16Z</time></trkpt><trkpt lat="44.39775514352891" lon="6.692688833340462"><ele>1178.0</ele><time>2026-05-01T13:02:17Z</time></trkpt><trkpt lat="44.3975726088264" lon="6.692519758394048"><ele>1178.0</ele><time>2026-05-01T13:02:18Z</time></trkpt><trkpt lat="44.39738415738577" lon="6.692359979357617"><ele>1178.0</ele><time>2026-05-01T13:02:19Z</time></trkpt><trkpt lat="44.39720969480387" lon="6.692213031200414"><ele>1178.0</ele><time>2026-05-01T13:02:20Z</time></trkpt><trkpt lat="44.397026811853614" lon="6.692084101492636"><ele>1178.0</ele><time>2026-05-01T13:02:21Z</time></trkpt><trkpt lat="44.3968500788988" lon="6.691923574871602"><ele>1178.0</ele><time>2026-05-01T13:02:22Z</time></trkpt><trkpt lat="44.396646246544286" lon="6.691766800623068"><ele>1178.0</ele><time>2026-05-01T13:02:23Z</time></trkpt><trkpt lat="44.39644922909245" lon="6.691607918370452"><ele>1178.0</ele><time>2026-05-01T13:02:24Z</time></trkpt><trkpt lat="44.39625852846751" lon="6.691448593131573"><ele>1178.0</ele><time>2026-05-01T13:02:25Z</time></trkpt><trkpt lat="44.396071493675144" lon="6.6912956129487915"><ele>1177.3333333333335</ele><time>2026-05-01T13:02:26Z</time></trkpt><trkpt lat="44.39589222662949" lon="6.69113501119849"><ele>1176.6666666666667</ele><time>2026-05-01T13:02:27Z</time></trkpt><trkpt lat="44.39571730144604" lon="6.690959355041729"><ele>1176.0</ele><time>2026-05-01T13:02:28Z</time></trkpt><trkpt lat="44.395556125573144" lon="6.690768868913784"><ele>1175.0</ele><time>2026-05-01T13:02:29Z</time></trkpt><trkpt lat="44.395380424269696" lon="6.69056875397128"><ele>1174.0</ele><time>2026-05-01T13:02:30Z</time></trkpt><trkpt lat="44.39519591444666" lon="6.690380724744151"><ele>1174.0</ele><time>2026-05-01T13:02:31Z</time></trkpt><trkpt lat="44.39501202314277" lon="6.6901878677797235"><ele>1174.0</ele><time>2026-05-01T13:02:32Z</time></trkpt><trkpt lat="44.394841106655406" lon="6.689981117981598"><ele>1174.0</ele><time>2026-05-01T13:02:33Z</time></trkpt><trkpt lat="44.39468472560939" lon="6.689787489444978"><ele>1174.0</ele><time>2026-05-01T13:02:34Z</time></trkpt><trkpt lat="44.39453032780689" lon="6.689602301533358"><ele>1174.0</ele><time>2026-05-01T13:02:35Z</time></trkpt><trkpt lat="44.39437776577751" lon="6.689390688739762"><ele>1172.3333333333333</ele><time>2026-05-01T13:02:36Z</time></trkpt><trkpt lat="44.394221690114826" lon="6.689169613225988"><ele>1170.6666666666667</ele><time>2026-05-01T13:02:37Z</time></trkpt><trkpt lat="44.394096112928445" lon="6.688929511135693"><ele>1169.0</ele><time>2026-05-01T13:02:38Z</time></trkpt><trkpt lat="44.39395552682019" lon="6.688693237959387"><ele>1168.3333333333335</ele><time>2026-05-01T13:02:39Z</time></trkpt><trkpt lat="44.39382019021864" lon="6.6884540680806435"><ele>1167.6666666666667</ele><time>2026-05-01T13:02:40Z</time></trkpt><trkpt lat="44.39367386655246" lon="6.688220412354807"><ele>1167.0</ele><time>2026-05-01T13:02:41Z</time></trkpt><trkpt lat="44.39352120077703" lon="6.687998031856144"><ele>1167.6666666666667</ele><time>2026-05-01T13:02:42Z</time></trkpt><trkpt lat="44.39338587648617" lon="6.6877599638179"><ele>1168.3333333333335</ele><time>2026-05-01T13:02:43Z</time></trkpt><trkpt lat="44.39324165169532" lon="6.687529945643064"><ele>1169.0</ele><time>2026-05-01T13:02:44Z</time></trkpt><trkpt lat="44.39310433697978" lon="6.687301241689281"><ele>1168.3333333333335</ele><time>2026-05-01T13:02:45Z</time></trkpt><trkpt lat="44.39297323040579" lon="6.687059698964811"><ele>1167.6666666666667</ele><time>2026-05-01T13:02:46Z</time></trkpt><trkpt lat="44.39282388389299" lon="6.686830004285533"><ele>1167.0</ele><time>2026-05-01T13:02:47Z</time></trkpt><trkpt lat="44.39270019197073" lon="6.686620878875378"><ele>1167.0</ele><time>2026-05-01T13:02:48Z</time></trkpt><trkpt lat="44.392586505008275" lon="6.686412723105786"><ele>1167.0</ele><time>2026-05-01T13:02:49Z</time></trkpt><trkpt lat="44.39248391432163" lon="6.68616545917701"><ele>1167.0</ele><time>2026-05-01T13:02:50Z</time></trkpt><trkpt lat="44.3923921307024" lon="6.685889400114588"><ele>1168.5</ele><time>2026-05-01T13:02:51Z</time></trkpt><trkpt lat="44.392318428369485" lon="6.685588013130234"><ele>1170.0</ele><time>2026-05-01T13:02:52Z</time></trkpt><trkpt lat="44.39223082096561" lon="6.685296590102168"><ele>1166.0</ele><time>2026-05-01T13:02:53Z</time></trkpt><trkpt lat="44.39214570234343" lon="6.684999620958727"><ele>1162.0</ele><time>2026-05-01T13:02:54Z</time></trkpt><trkpt lat="44.39205834544632" lon="6.684693937738008"><ele>1163.3333333333333</ele><time>2026-05-01T13:02:55Z</time></trkpt><trkpt lat="44.39198683462938" lon="6.6844037052939465"><ele>1164.6666666666667</ele><time>2026-05-01T13:02:56Z</time></trkpt><trkpt lat="44.391900243670236" lon="6.6841339167715255"><ele>1166.0</ele><time>2026-05-01T13:02:57Z</time></trkpt><trkpt lat="44.39181808485534" lon="6.683864558458673"><ele>1166.0</ele><time>2026-05-01T13:02:58Z</time></trkpt><trkpt lat="44.39175488016741" lon="6.683593160798636"><ele>1166.0</ele><time>2026-05-01T13:02:59Z</time></trkpt><trkpt lat="44.39168618871" lon="6.683343943014142"><ele>1166.0</ele><time>2026-05-01T13:03:00Z</time></trkpt><trkpt lat="44.39164450324687" lon="6.6830938516144185"><ele>1166.0</ele><time>2026-05-01T13:03:01Z</time></trkpt><trkpt lat="44.391617862274934" lon="6.682818478745856"><ele>1166.0</ele><time>2026-05-01T13:03:02Z</time></trkpt><trkpt lat="44.391609663374716" lon="6.682526053206864"><ele>1166.0</ele><time>2026-05-01T13:03:03Z</time></trkpt><trkpt lat="44.39159585910424" lon="6.682231273993264"><ele>1166.0</ele><time>2026-05-01T13:03:04Z</time></trkpt><trkpt lat="44.39159487977159" lon="6.681938424317782"><ele>1166.0</ele><time>2026-05-01T13:03:05Z</time></trkpt><trkpt lat="44.39159106378899" lon="6.6816458183539105"><ele>1166.0</ele><time>2026-05-01T13:03:06Z</time></trkpt><trkpt lat="44.39158911952295" lon="6.681343820421043"><ele>1166.3333333333335</ele><time>2026-05-01T13:03:07Z</time></trkpt><trkpt lat="44.391583936847425" lon="6.681044158802775"><ele>1166.6666666666667</ele><time>2026-05-01T13:03:08Z</time></trkpt><trkpt lat="44.391575715169516" lon="6.680730557660386"><ele>1167.0</ele><time>2026-05-01T13:03:09Z</time></trkpt><trkpt lat="44.391563867792215" lon="6.680398353421368"><ele>1167.5</ele><time>2026-05-01T13:03:10Z</time></trkpt><trkpt lat="44.391559998234" lon="6.68006598031996"><ele>1168.0</ele><time>2026-05-01T13:03:11Z</time></trkpt><trkpt lat="44.391548318877255" lon="6.67973082701475"><ele>1166.5</ele><time>2026-05-01T13:03:12Z</time></trkpt><trkpt lat="44.39154092101899" lon="6.6794065849485715"><ele>1165.0</ele><time>2026-05-01T13:03:13Z</time></trkpt><trkpt lat="44.391534943638526" lon="6.679084928721914"><ele>1165.0</ele><time>2026-05-01T13:03:14Z</time></trkpt><trkpt lat="44.3915145109714" lon="6.678768027317635"><ele>1165.0</ele><time>2026-05-01T13:03:15Z</time></trkpt><trkpt lat="44.39151036615772" lon="6.678468017765504"><ele>1165.0</ele><time>2026-05-01T13:03:16Z</time></trkpt><trkpt lat="44.39150499048833" lon="6.678174124003809"><ele>1164.6666666666665</ele><time>2026-05-01T13:03:17Z</time></trkpt><trkpt lat="44.39148697278612" lon="6.6778687412567255"><ele>1164.3333333333333</ele><time>2026-05-01T13:03:18Z</time></trkpt><trkpt lat="44.39147683335536" lon="6.677571842586245"><ele>1164.0</ele><time>2026-05-01T13:03:19Z</time></trkpt><trkpt lat="44.39147764126974" lon="6.677266520439932"><ele>1163.6666666666667</ele><time>2026-05-01T13:03:20Z</time></trkpt><trkpt lat="44.391477462390206" lon="6.676962889294614"><ele>1163.3333333333335</ele><time>2026-05-01T13:03:21Z</time></trkpt><trkpt lat="44.391466869824974" lon="6.676652744950772"><ele>1163.0</ele><time>2026-05-01T13:03:22Z</time></trkpt><trkpt lat="44.39146598989738" lon="6.6763511598263285"><ele>1163.0</ele><time>2026-05-01T13:03:23Z</time></trkpt><trkpt lat="44.39145819978333" lon="6.676038384416686"><ele>1163.0</ele><time>2026-05-01T13:03:24Z</time></trkpt><trkpt lat="44.39144180594962" lon="6.6757018456209005"><ele>1163.0</ele><time>2026-05-01T13:03:25Z</time></trkpt><trkpt lat="44.39145616240024" lon="6.675361113177993"><ele>1163.0</ele><time>2026-05-01T13:03:26Z</time></trkpt><trkpt lat="44.391443729007584" lon="6.6750367823215075"><ele>1163.0</ele><time>2026-05-01T13:03:27Z</time></trkpt><trkpt lat="44.39144292211714" lon="6.674723091137595"><ele>1163.0</ele><time>2026-05-01T13:03:28Z</time></trkpt><trkpt lat="44.391425592670544" lon="6.674393492114516"><ele>1163.0</ele><time>2026-05-01T13:03:29Z</time></trkpt><trkpt lat="44.39145020780003" lon="6.674096551752295"><ele>1163.0</ele><time>2026-05-01T13:03:30Z</time></trkpt><trkpt lat="44.391438912715266" lon="6.673787994778823"><ele>1163.0</ele><time>2026-05-01T13:03:31Z</time></trkpt><trkpt lat="44.39143407638923" lon="6.673487422575517"><ele>1162.5</ele><time>2026-05-01T13:03:32Z</time></trkpt><trkpt lat="44.391446016019884" lon="6.673191508582213"><ele>1162.0</ele><time>2026-05-01T13:03:33Z</time></trkpt><trkpt lat="44.39142687231696" lon="6.672859287861196"><ele>1160.6666666666665</ele><time>2026-05-01T13:03:34Z</time></trkpt><trkpt lat="44.39141278295198" lon="6.672560383543544"><ele>1159.3333333333333</ele><time>2026-05-01T13:03:35Z</time></trkpt><trkpt lat="44.391411538929646" lon="6.672260456119842"><ele>1158.0</ele><time>2026-05-01T13:03:36Z</time></trkpt><trkpt lat="44.39140766028399" lon="6.671960364531706"><ele>1158.0</ele><time>2026-05-01T13:03:37Z</time></trkpt><trkpt lat="44.39141173837492" lon="6.671676197875517"><ele>1158.0</ele><time>2026-05-01T13:03:38Z</time></trkpt><trkpt lat="44.39140823391421" lon="6.6713950253089145"><ele>1158.0</ele><time>2026-05-01T13:03:39Z</time></trkpt><trkpt lat="44.3914003658826" lon="6.67114487796439"><ele>1158.3333333333333</ele><time>2026-05-01T13:03:40Z</time></trkpt><trkpt lat="44.39138018673275" lon="6.6709259922890585"><ele>1158.6666666666665</ele><time>2026-05-01T13:03:41Z</time></trkpt><trkpt lat="44.391308183820065" lon="6.67073272360663"><ele>1159.0</ele><time>2026-05-01T13:03:42Z</time></trkpt><trkpt lat="44.39123100439583" lon="6.670538438302081"><ele>1156.3333333333333</ele><time>2026-05-01T13:03:43Z</time></trkpt><trkpt lat="44.391106769744965" lon="6.67034809880335"><ele>1153.6666666666667</ele><time>2026-05-01T13:03:44Z</time></trkpt><trkpt lat="44.390968326382534" lon="6.670193625558327"><ele>1151.0</ele><time>2026-05-01T13:03:45Z</time></trkpt><trkpt lat="44.39084674399973" lon="6.670048767926301"><ele>1151.0</ele><time>2026-05-01T13:03:46Z</time></trkpt><trkpt lat="44.39071119347938" lon="6.669944108188652"><ele>1151.0</ele><time>2026-05-01T13:03:47Z</time></trkpt><trkpt lat="44.39057990453589" lon="6.669829403302584"><ele>1151.0</ele><time>2026-05-01T13:03:48Z</time></trkpt><trkpt lat="44.39047371722153" lon="6.669737053351853"><ele>1151.0</ele><time>2026-05-01T13:03:49Z</time></trkpt><trkpt lat="44.39039783431764" lon="6.669563678764697"><ele>1150.3333333333335</ele><time>2026-05-01T13:03:50Z</time></trkpt><trkpt lat="44.39031969302386" lon="6.669381180685921"><ele>1149.6666666666667</ele><time>2026-05-01T13:03:51Z</time></trkpt><trkpt lat="44.39028656292487" lon="6.669171600123668"><ele>1149.0</ele><time>2026-05-01T13:03:52Z</time></trkpt><trkpt lat="44.39023917348031" lon="6.668964574253785"><ele>1149.0</ele><time>2026-05-01T13:03:53Z</time></trkpt><trkpt lat="44.390194311710985" lon="6.66878931546493"><ele>1149.0</ele><time>2026-05-01T13:03:54Z</time></trkpt><trkpt lat="44.390154801531" lon="6.668637139227646"><ele>1149.0</ele><time>2026-05-01T13:03:55Z</time></trkpt><trkpt lat="44.390117475808054" lon="6.668492077891692"><ele>1149.0</ele><time>2026-05-01T13:03:56Z</time></trkpt><trkpt lat="44.390065989044366" lon="6.6683638609777605"><ele>1148.8333333333333</ele><time>2026-05-01T13:03:57Z</time></trkpt><trkpt lat="44.390028839527815" lon="6.66822436416487"><ele>1148.6666666666667</ele><time>2026-05-01T13:03:58Z</time></trkpt><trkpt lat="44.390000110737276" lon="6.668093412598704"><ele>1148.5</ele><time>2026-05-01T13:03:59Z</time></trkpt><trkpt lat="44.38999453764436" lon="6.667995544507888"><ele>1148.3333333333335</ele><time>2026-05-01T13:04:00Z</time></trkpt><trkpt lat="44.39000461937904" lon="6.667899105092495"><ele>1148.1666666666667</ele><time>2026-05-01T13:04:01Z</time></trkpt><trkpt lat="44.389997242828855" lon="6.66775687491361"><ele>1148.0</ele><time>2026-05-01T13:04:03Z</time></trkpt><trkpt lat="44.38979932754115" lon="6.667736647448171"><ele>1148.3333333333335</ele><time>2026-05-01T13:04:05Z</time></trkpt><trkpt lat="44.38970413898881" lon="6.667754019711285"><ele>1148.6666666666667</ele><time>2026-05-01T13:04:06Z</time></trkpt><trkpt lat="44.389634329358444" lon="6.667769912165117"><ele>1149.0</ele><time>2026-05-01T13:04:07Z</time></trkpt><trkpt lat="44.389548098299514" lon="6.667652002049091"><ele>1149.3333333333333</ele><time>2026-05-01T13:04:08Z</time></trkpt><trkpt lat="44.389474917639504" lon="6.667614187942352"><ele>1149.6666666666665</ele><time>2026-05-01T13:04:09Z</time></trkpt><trkpt lat="44.389395256907356" lon="6.66757729655311"><ele>1150.0</ele><time>2026-05-01T13:04:10Z</time></trkpt><trkpt lat="44.389305852052836" lon="6.667529356858545"><ele>1148.5</ele><time>2026-05-01T13:04:11Z</time></trkpt><trkpt lat="44.38920652534008" lon="6.66746062355791"><ele>1147.0</ele><time>2026-05-01T13:04:12Z</time></trkpt><trkpt lat="44.389126094631386" lon="6.667331645677365"><ele>1145.5</ele><time>2026-05-01T13:04:13Z</time></trkpt><trkpt lat="44.38904313051454" lon="6.667198808817521"><ele>1144.0</ele><time>2026-05-01T13:04:14Z</time></trkpt><trkpt lat="44.3889564248223" lon="6.667067302947409"><ele>1144.0</ele><time>2026-05-01T13:04:15Z</time></trkpt><trkpt lat="44.38885377054548" lon="6.666912450625228"><ele>1144.0</ele><time>2026-05-01T13:04:16Z</time></trkpt><trkpt lat="44.38874954462645" lon="6.666763948309354"><ele>1144.0</ele><time>2026-05-01T13:04:17Z</time></trkpt><trkpt lat="44.38864368077107" lon="6.666598936653783"><ele>1144.0</ele><time>2026-05-01T13:04:18Z</time></trkpt><trkpt lat="44.38853948520619" lon="6.666448287304011"><ele>1144.0</ele><time>2026-05-01T13:04:19Z</time></trkpt><trkpt lat="44.388432430256124" lon="6.666301367167262"><ele>1144.0</ele><time>2026-05-01T13:04:20Z</time></trkpt><trkpt lat="44.38837817162451" lon="6.6661354431533475"><ele>1144.0</ele><time>2026-05-01T13:04:21Z</time></trkpt><trkpt lat="44.388279816909694" lon="6.665983540270443"><ele>1144.6666666666665</ele><time>2026-05-01T13:04:22Z</time></trkpt><trkpt lat="44.38816962782252" lon="6.66582504384473"><ele>1145.3333333333333</ele><time>2026-05-01T13:04:23Z</time></trkpt><trkpt lat="44.388057509339404" lon="6.66566549402069"><ele>1146.0</ele><time>2026-05-01T13:04:24Z</time></trkpt><trkpt lat="44.38793915312743" lon="6.665507149377576"><ele>1146.0</ele><time>2026-05-01T13:04:25Z</time></trkpt><trkpt lat="44.38784842828812" lon="6.665374245349825"><ele>1146.0</ele><time>2026-05-01T13:04:26Z</time></trkpt><trkpt lat="44.38776802632497" lon="6.665249613968489"><ele>1146.0</ele><time>2026-05-01T13:04:27Z</time></trkpt><trkpt lat="44.3876774451279" lon="6.665128456018632"><ele>1146.0</ele><time>2026-05-01T13:04:28Z</time></trkpt><trkpt lat="44.387594603326605" lon="6.6650309474924505"><ele>1145.8</ele><time>2026-05-01T13:04:29Z</time></trkpt><trkpt lat="44.387535889392" lon="6.6649383384780085"><ele>1145.6</ele><time>2026-05-01T13:04:30Z</time></trkpt><trkpt lat="44.38747450025488" lon="6.664822729994371"><ele>1145.4</ele><time>2026-05-01T13:04:31Z</time></trkpt><trkpt lat="44.38738734738601" lon="6.664719899578349"><ele>1145.2</ele><time>2026-05-01T13:04:32Z</time></trkpt><trkpt lat="44.38731885124867" lon="6.664593209557712"><ele>1145.0</ele><time>2026-05-01T13:04:33Z</time></trkpt><trkpt lat="44.38724560012206" lon="6.66445836470206"><ele>1144.5</ele><time>2026-05-01T13:04:34Z</time></trkpt><trkpt lat="44.38715759474339" lon="6.664339359587941"><ele>1144.0</ele><time>2026-05-01T13:04:35Z</time></trkpt><trkpt lat="44.38706261380617" lon="6.664217300925986"><ele>1143.5</ele><time>2026-05-01T13:04:36Z</time></trkpt><trkpt lat="44.38696433201922" lon="6.664085754628284"><ele>1143.0</ele><time>2026-05-01T13:04:37Z</time></trkpt><trkpt lat="44.38688891499177" lon="6.663952484028775"><ele>1143.0</ele><time>2026-05-01T13:04:38Z</time></trkpt><trkpt lat="44.38679397203728" lon="6.6638342401411546"><ele>1143.0</ele><time>2026-05-01T13:04:39Z</time></trkpt><trkpt lat="44.38672011311628" lon="6.663684369249693"><ele>1143.0</ele><time>2026-05-01T13:04:40Z</time></trkpt><trkpt lat="44.386644660827926" lon="6.6635647021702"><ele>1143.0</ele><time>2026-05-01T13:04:41Z</time></trkpt><trkpt lat="44.386570354266524" lon="6.66346019102113"><ele>1143.0</ele><time>2026-05-01T13:04:42Z</time></trkpt><trkpt lat="44.3865030765754" lon="6.663342790645793"><ele>1143.0</ele><time>2026-05-01T13:04:43Z</time></trkpt><trkpt lat="44.38642365720674" lon="6.663218618988786"><ele>1143.0</ele><time>2026-05-01T13:04:44Z</time></trkpt><trkpt lat="44.38634177508306" lon="6.663099314614197"><ele>1143.0</ele><time>2026-05-01T13:04:45Z</time></trkpt><trkpt lat="44.3862528874508" lon="6.662960175912157"><ele>1143.0</ele><time>2026-05-01T13:04:46Z</time></trkpt><trkpt lat="44.386172021617874" lon="6.662820354469614"><ele>1143.0</ele><time>2026-05-01T13:04:47Z</time></trkpt><trkpt lat="44.386083331945876" lon="6.662684979480436"><ele>1143.0</ele><time>2026-05-01T13:04:48Z</time></trkpt><trkpt lat="44.385984811769085" lon="6.662541638976719"><ele>1143.0</ele><time>2026-05-01T13:04:49Z</time></trkpt><trkpt lat="44.3858979454648" lon="6.662384929586656"><ele>1142.5</ele><time>2026-05-01T13:04:50Z</time></trkpt><trkpt lat="44.385785854991205" lon="6.66224862648225"><ele>1142.0</ele><time>2026-05-01T13:04:51Z</time></trkpt><trkpt lat="44.38569058952509" lon="6.662109890885364"><ele>1141.5</ele><time>2026-05-01T13:04:52Z</time></trkpt><trkpt lat="44.38560773143179" lon="6.661985536185758"><ele>1141.0</ele><time>2026-05-01T13:04:53Z</time></trkpt><trkpt lat="44.38552448058018" lon="6.661850689895662"><ele>1140.75</ele><time>2026-05-01T13:04:54Z</time></trkpt><trkpt lat="44.385435854207465" lon="6.661688645635524"><ele>1140.5</ele><time>2026-05-01T13:04:55Z</time></trkpt><trkpt lat="44.38534449948245" lon="6.661536263580907"><ele>1140.25</ele><time>2026-05-01T13:04:56Z</time></trkpt><trkpt lat="44.38525735435691" lon="6.661383831761596"><ele>1140.0</ele><time>2026-05-01T13:04:57Z</time></trkpt><trkpt lat="44.38517284650036" lon="6.661230796940511"><ele>1140.25</ele><time>2026-05-01T13:04:58Z</time></trkpt><trkpt lat="44.38508817543039" lon="6.6610759396953565"><ele>1140.5</ele><time>2026-05-01T13:04:59Z</time></trkpt><trkpt lat="44.38500194629972" lon="6.660914957589568"><ele>1140.75</ele><time>2026-05-01T13:05:00Z</time></trkpt><trkpt lat="44.38492241882413" lon="6.660765144501823"><ele>1141.0</ele><time>2026-05-01T13:05:01Z</time></trkpt><trkpt lat="44.38484370651359" lon="6.660623430249794"><ele>1141.0</ele><time>2026-05-01T13:05:02Z</time></trkpt><trkpt lat="44.384765367250694" lon="6.660469249872222"><ele>1141.0</ele><time>2026-05-01T13:05:03Z</time></trkpt><trkpt lat="44.38469393242249" lon="6.660317468463887"><ele>1141.0</ele><time>2026-05-01T13:05:04Z</time></trkpt><trkpt lat="44.38461251825186" lon="6.6601715325142745"><ele>1141.0</ele><time>2026-05-01T13:05:05Z</time></trkpt><trkpt lat="44.38454100556328" lon="6.66000412274405"><ele>1141.25</ele><time>2026-05-01T13:05:06Z</time></trkpt><trkpt lat="44.38448004761225" lon="6.6598353962770656"><ele>1141.5</ele><time>2026-05-01T13:05:07Z</time></trkpt><trkpt lat="44.384403454325415" lon="6.659658780080146"><ele>1141.75</ele><time>2026-05-01T13:05:08Z</time></trkpt><trkpt lat="44.38433815522375" lon="6.6594877643751325"><ele>1142.0</ele><time>2026-05-01T13:05:09Z</time></trkpt><trkpt lat="44.3842912162501" lon="6.659345753616512"><ele>1141.6</ele><time>2026-05-01T13:05:10Z</time></trkpt><trkpt lat="44.384246469378844" lon="6.659199966626196"><ele>1141.2</ele><time>2026-05-01T13:05:11Z</time></trkpt><trkpt lat="44.38419792002106" lon="6.6590492297895265"><ele>1140.8</ele><time>2026-05-01T13:05:12Z</time></trkpt><trkpt lat="44.384163927927325" lon="6.658908057151906"><ele>1140.4</ele><time>2026-05-01T13:05:13Z</time></trkpt><trkpt lat="44.38413941653082" lon="6.658759754251534"><ele>1140.0</ele><time>2026-05-01T13:05:14Z</time></trkpt><trkpt lat="44.38411256202054" lon="6.658590198563704"><ele>1140.0</ele><time>2026-05-01T13:05:15Z</time></trkpt><trkpt lat="44.38407526054223" lon="6.65842788200694"><ele>1140.0</ele><time>2026-05-01T13:05:16Z</time></trkpt><trkpt lat="44.384095644288806" lon="6.658279971415057"><ele>1140.0</ele><time>2026-05-01T13:05:17Z</time></trkpt><trkpt lat="44.38408136858086" lon="6.658121358803294"><ele>1140.0</ele><time>2026-05-01T13:05:18Z</time></trkpt><trkpt lat="44.38406788200222" lon="6.657949506747238"><ele>1140.0</ele><time>2026-05-01T13:05:19Z</time></trkpt><trkpt lat="44.384048908736865" lon="6.657761167886371"><ele>1140.0</ele><time>2026-05-01T13:05:20Z</time></trkpt><trkpt lat="44.384044035950446" lon="6.657577950147743"><ele>1140.0</ele><time>2026-05-01T13:05:21Z</time></trkpt><trkpt lat="44.384039793124785" lon="6.657393393935626"><ele>1140.0</ele><time>2026-05-01T13:05:22Z</time></trkpt><trkpt lat="44.384042750272535" lon="6.657203572271796"><ele>1140.0</ele><time>2026-05-01T13:05:23Z</time></trkpt><trkpt lat="44.38405405026936" lon="6.657004173346994"><ele>1140.0</ele><time>2026-05-01T13:05:24Z</time></trkpt><trkpt lat="44.38405394446989" lon="6.65680267000112"><ele>1140.0</ele><time>2026-05-01T13:05:25Z</time></trkpt><trkpt lat="44.384048772085976" lon="6.656571391965408"><ele>1140.0</ele><time>2026-05-01T13:05:26Z</time></trkpt><trkpt lat="44.384060913579106" lon="6.656341967209382"><ele>1140.0</ele><time>2026-05-01T13:05:27Z</time></trkpt><trkpt lat="44.384066164637396" lon="6.656077325574866"><ele>1140.0</ele><time>2026-05-01T13:05:28Z</time></trkpt><trkpt lat="44.38407019509835" lon="6.655808762672881"><ele>1140.0</ele><time>2026-05-01T13:05:29Z</time></trkpt><trkpt lat="44.384079189808425" lon="6.65552416683571"><ele>1140.0</ele><time>2026-05-01T13:05:30Z</time></trkpt><trkpt lat="44.38410270705151" lon="6.655226962012775"><ele>1140.0</ele><time>2026-05-01T13:05:31Z</time></trkpt><trkpt lat="44.38412252054233" lon="6.654913720215299"><ele>1140.3333333333333</ele><time>2026-05-01T13:05:32Z</time></trkpt><trkpt lat="44.38414669424172" lon="6.654648297941536"><ele>1140.6666666666665</ele><time>2026-05-01T13:05:33Z</time></trkpt><trkpt lat="44.38416913653196" lon="6.654375885332874"><ele>1141.0</ele><time>2026-05-01T13:05:34Z</time></trkpt><trkpt lat="44.384198234817376" lon="6.654095334731704"><ele>1141.0</ele><time>2026-05-01T13:05:35Z</time></trkpt><trkpt lat="44.38421373697259" lon="6.653804830009697"><ele>1141.0</ele><time>2026-05-01T13:05:36Z</time></trkpt><trkpt lat="44.38424238113183" lon="6.653512031125704"><ele>1141.0</ele><time>2026-05-01T13:05:37Z</time></trkpt><trkpt lat="44.384262010561706" lon="6.653238388931087"><ele>1140.3333333333333</ele><time>2026-05-01T13:05:38Z</time></trkpt><trkpt lat="44.384279709035454" lon="6.652984287930055"><ele>1139.6666666666667</ele><time>2026-05-01T13:05:39Z</time></trkpt><trkpt lat="44.38430006456954" lon="6.652737079699609"><ele>1139.0</ele><time>2026-05-01T13:05:40Z</time></trkpt><trkpt lat="44.38433361758458" lon="6.652528028859071"><ele>1138.5</ele><time>2026-05-01T13:05:41Z</time></trkpt><trkpt lat="44.38434978060467" lon="6.652324760763422"><ele>1138.0</ele><time>2026-05-01T13:05:42Z</time></trkpt><trkpt lat="44.38435570890032" lon="6.652154995236253"><ele>1137.5</ele><time>2026-05-01T13:05:43Z</time></trkpt><trkpt lat="44.38437025118262" lon="6.652014257465324"><ele>1137.0</ele><time>2026-05-01T13:05:44Z</time></trkpt><trkpt lat="44.38438515006253" lon="6.651891087268092"><ele>1137.0</ele><time>2026-05-01T13:05:45Z</time></trkpt><trkpt lat="44.38441312114705" lon="6.651775145483357"><ele>1137.0</ele><time>2026-05-01T13:05:46Z</time></trkpt><trkpt lat="44.384453378288796" lon="6.651609661220168"><ele>1137.0</ele><time>2026-05-01T13:05:48Z</time></trkpt><trkpt lat="44.3845143121445" lon="6.65153841088945"><ele>1137.0</ele><time>2026-05-01T13:05:50Z</time></trkpt><trkpt lat="44.38456429540592" lon="6.651449913103951"><ele>1137.0</ele><time>2026-05-01T13:05:52Z</time></trkpt><trkpt lat="44.384568638581854" lon="6.651289494352476"><ele>1137.0</ele><time>2026-05-01T13:05:54Z</time></trkpt><trkpt lat="44.384553647512575" lon="6.651170301878981"><ele>1137.0</ele><time>2026-05-01T13:05:55Z</time></trkpt><trkpt lat="44.38453668872166" lon="6.651032392011245"><ele>1137.0</ele><time>2026-05-01T13:05:56Z</time></trkpt><trkpt lat="44.38451993505887" lon="6.650827216157544"><ele>1137.0</ele><time>2026-05-01T13:05:57Z</time></trkpt><trkpt lat="44.384525074145536" lon="6.650677508302741"><ele>1137.0</ele><time>2026-05-01T13:05:58Z</time></trkpt><trkpt lat="44.38455399827823" lon="6.650512858998365"><ele>1137.0</ele><time>2026-05-01T13:05:59Z</time></trkpt><trkpt lat="44.384573693594035" lon="6.650321726918832"><ele>1137.0</ele><time>2026-05-01T13:06:00Z</time></trkpt><trkpt lat="44.384635600472954" lon="6.650171457446776"><ele>1137.0</ele><time>2026-05-01T13:06:01Z</time></trkpt><trkpt lat="44.38466182067842" lon="6.649988148547171"><ele>1137.0</ele><time>2026-05-01T13:06:02Z</time></trkpt><trkpt lat="44.38470158772311" lon="6.649756715314633"><ele>1137.0</ele><time>2026-05-01T13:06:03Z</time></trkpt><trkpt lat="44.38475782066745" lon="6.649560447480427"><ele>1137.0</ele><time>2026-05-01T13:06:04Z</time></trkpt><trkpt lat="44.38479725547245" lon="6.6493936243878045"><ele>1137.0</ele><time>2026-05-01T13:06:05Z</time></trkpt><trkpt lat="44.38483290600953" lon="6.649238764834537"><ele>1137.0</ele><time>2026-05-01T13:06:06Z</time></trkpt><trkpt lat="44.38487054583457" lon="6.649085578121855"><ele>1137.0</ele><time>2026-05-01T13:06:07Z</time></trkpt><trkpt lat="44.384890009151306" lon="6.648960245311103"><ele>1137.0</ele><time>2026-05-01T13:06:08Z</time></trkpt><trkpt lat="44.384907276097486" lon="6.648853005559022"><ele>1137.0</ele><time>2026-05-01T13:06:09Z</time></trkpt><trkpt lat="44.38495821501555" lon="6.648741186672528"><ele>1137.0</ele><time>2026-05-01T13:06:11Z</time></trkpt><trkpt lat="44.385018028318704" lon="6.648613829954659"><ele>1137.0</ele><time>2026-05-01T13:06:13Z</time></trkpt><trkpt lat="44.38503437270437" lon="6.6485176796851"><ele>1137.0</ele><time>2026-05-01T13:06:14Z</time></trkpt><trkpt lat="44.38503237685331" lon="6.64839171692073"><ele>1136.25</ele><time>2026-05-01T13:06:15Z</time></trkpt><trkpt lat="44.38504908949459" lon="6.648267562045841"><ele>1135.5</ele><time>2026-05-01T13:06:16Z</time></trkpt><trkpt lat="44.38509246832165" lon="6.648111863470022"><ele>1134.75</ele><time>2026-05-01T13:06:17Z</time></trkpt><trkpt lat="44.38513584030707" lon="6.647894503396151"><ele>1134.0</ele><time>2026-05-01T13:06:18Z</time></trkpt><trkpt lat="44.38517572886299" lon="6.647691976919307"><ele>1134.0</ele><time>2026-05-01T13:06:19Z</time></trkpt><trkpt lat="44.385216531746245" lon="6.647509170326645"><ele>1134.0</ele><time>2026-05-01T13:06:20Z</time></trkpt><trkpt lat="44.38531252113349" lon="6.647319038842569"><ele>1134.0</ele><time>2026-05-01T13:06:21Z</time></trkpt><trkpt lat="44.38536796860519" lon="6.647078866361293"><ele>1134.3333333333333</ele><time>2026-05-01T13:06:22Z</time></trkpt><trkpt lat="44.385427152279256" lon="6.6468373882032585"><ele>1134.6666666666665</ele><time>2026-05-01T13:06:23Z</time></trkpt><trkpt lat="44.38548964407818" lon="6.646590872056117"><ele>1135.0</ele><time>2026-05-01T13:06:24Z</time></trkpt><trkpt lat="44.38554702275151" lon="6.646341225809177"><ele>1134.6666666666665</ele><time>2026-05-01T13:06:25Z</time></trkpt><trkpt lat="44.38559387712709" lon="6.646079815629414"><ele>1134.3333333333333</ele><time>2026-05-01T13:06:26Z</time></trkpt><trkpt lat="44.38564042811213" lon="6.645817220586854"><ele>1134.0</ele><time>2026-05-01T13:06:27Z</time></trkpt><trkpt lat="44.38569037232512" lon="6.645548939635818"><ele>1133.3333333333333</ele><time>2026-05-01T13:06:28Z</time></trkpt><trkpt lat="44.38573568835824" lon="6.645266914322945"><ele>1132.6666666666665</ele><time>2026-05-01T13:06:29Z</time></trkpt><trkpt lat="44.385788019399" lon="6.644976455241127"><ele>1132.0</ele><time>2026-05-01T13:06:30Z</time></trkpt><trkpt lat="44.38584162517206" lon="6.644693175846788"><ele>1132.0</ele><time>2026-05-01T13:06:31Z</time></trkpt><trkpt lat="44.3858863580389" lon="6.644421577597761"><ele>1132.0</ele><time>2026-05-01T13:06:32Z</time></trkpt><trkpt lat="44.38593045026509" lon="6.644173467879032"><ele>1132.0</ele><time>2026-05-01T13:06:33Z</time></trkpt><trkpt lat="44.38596796333379" lon="6.643928169524232"><ele>1132.0</ele><time>2026-05-01T13:06:34Z</time></trkpt><trkpt lat="44.3860166296046" lon="6.643714128185256"><ele>1132.0</ele><time>2026-05-01T13:06:35Z</time></trkpt><trkpt lat="44.3860536829588" lon="6.64349965505778"><ele>1132.0</ele><time>2026-05-01T13:06:36Z</time></trkpt><trkpt lat="44.386090411893015" lon="6.643317884744911"><ele>1132.0</ele><time>2026-05-01T13:06:37Z</time></trkpt><trkpt lat="44.3861105951682" lon="6.643173053954122"><ele>1132.0</ele><time>2026-05-01T13:06:38Z</time></trkpt><trkpt lat="44.386124344874666" lon="6.643025643285338"><ele>1132.0</ele><time>2026-05-01T13:06:39Z</time></trkpt><trkpt lat="44.386142711092994" lon="6.6428993005428385"><ele>1132.0</ele><time>2026-05-01T13:06:40Z</time></trkpt><trkpt lat="44.38615819729351" lon="6.642785258950181"><ele>1132.0</ele><time>2026-05-01T13:06:41Z</time></trkpt><trkpt lat="44.3862130676272" lon="6.6427411841964465"><ele>1132.1666666666665</ele><time>2026-05-01T13:06:42Z</time></trkpt><trkpt lat="44.38627573637115" lon="6.642699748560974"><ele>1132.3333333333333</ele><time>2026-05-01T13:06:43Z</time></trkpt><trkpt lat="44.38630860525492" lon="6.642602848890843"><ele>1132.5</ele><time>2026-05-01T13:06:44Z</time></trkpt><trkpt lat="44.38631958066027" lon="6.642498005956199"><ele>1132.6666666666667</ele><time>2026-05-01T13:06:45Z</time></trkpt><trkpt lat="44.38632962815447" lon="6.64238778550642"><ele>1132.8333333333335</ele><time>2026-05-01T13:06:46Z</time></trkpt><trkpt lat="44.386328147191485" lon="6.642236278286322"><ele>1133.0</ele><time>2026-05-01T13:06:47Z</time></trkpt><trkpt lat="44.38631042233791" lon="6.642083775227386"><ele>1132.6666666666667</ele><time>2026-05-01T13:06:48Z</time></trkpt><trkpt lat="44.386304623036565" lon="6.641883891270203"><ele>1132.3333333333333</ele><time>2026-05-01T13:06:49Z</time></trkpt><trkpt lat="44.38631645133222" lon="6.641691145984626"><ele>1132.0</ele><time>2026-05-01T13:06:50Z</time></trkpt><trkpt lat="44.38632811045467" lon="6.641454968603695"><ele>1132.0</ele><time>2026-05-01T13:06:51Z</time></trkpt><trkpt lat="44.3863233413908" lon="6.641224199675823"><ele>1132.0</ele><time>2026-05-01T13:06:52Z</time></trkpt><trkpt lat="44.38632268739218" lon="6.64099949498536"><ele>1132.0</ele><time>2026-05-01T13:06:53Z</time></trkpt><trkpt lat="44.386339375037075" lon="6.640764076769092"><ele>1132.0</ele><time>2026-05-01T13:06:54Z</time></trkpt><trkpt lat="44.386343455045065" lon="6.640518969209513"><ele>1132.0</ele><time>2026-05-01T13:06:55Z</time></trkpt><trkpt lat="44.38634779423131" lon="6.6402671770229444"><ele>1132.0</ele><time>2026-05-01T13:06:56Z</time></trkpt><trkpt lat="44.386335841116946" lon="6.640009756868385"><ele>1131.6666666666665</ele><time>2026-05-01T13:06:57Z</time></trkpt><trkpt lat="44.386339310272824" lon="6.639750504174867"><ele>1131.3333333333333</ele><time>2026-05-01T13:06:58Z</time></trkpt><trkpt lat="44.3863519634893" lon="6.6394862002004995"><ele>1131.0</ele><time>2026-05-01T13:06:59Z</time></trkpt><trkpt lat="44.38634403336841" lon="6.639208762152165"><ele>1130.6666666666667</ele><time>2026-05-01T13:07:00Z</time></trkpt><trkpt lat="44.38632648189393" lon="6.638930864274634"><ele>1130.3333333333335</ele><time>2026-05-01T13:07:01Z</time></trkpt><trkpt lat="44.38633008988338" lon="6.638656449049023"><ele>1130.0</ele><time>2026-05-01T13:07:02Z</time></trkpt><trkpt lat="44.38633048386587" lon="6.638381754702589"><ele>1130.0</ele><time>2026-05-01T13:07:03Z</time></trkpt><trkpt lat="44.38631808678198" lon="6.6381142810058575"><ele>1130.0</ele><time>2026-05-01T13:07:04Z</time></trkpt><trkpt lat="44.38632103359183" lon="6.63785076015875"><ele>1130.0</ele><time>2026-05-01T13:07:05Z</time></trkpt><trkpt lat="44.3863107389434" lon="6.6375932414288075"><ele>1130.0</ele><time>2026-05-01T13:07:06Z</time></trkpt><trkpt lat="44.38631671117421" lon="6.63730443094654"><ele>1130.0</ele><time>2026-05-01T13:07:07Z</time></trkpt><trkpt lat="44.38631272183042" lon="6.637041348070461"><ele>1130.0</ele><time>2026-05-01T13:07:08Z</time></trkpt><trkpt lat="44.386309393329796" lon="6.636796645359863"><ele>1129.6666666666667</ele><time>2026-05-01T13:07:09Z</time></trkpt><trkpt lat="44.38630671934405" lon="6.636549357337686"><ele>1129.3333333333333</ele><time>2026-05-01T13:07:10Z</time></trkpt><trkpt lat="44.38630483790602" lon="6.636291639690816"><ele>1129.0</ele><time>2026-05-01T13:07:11Z</time></trkpt><trkpt lat="44.38628730585026" lon="6.636036415742836"><ele>1128.6666666666665</ele><time>2026-05-01T13:07:12Z</time></trkpt><trkpt lat="44.38629229395842" lon="6.635786941268776"><ele>1128.3333333333333</ele><time>2026-05-01T13:07:13Z</time></trkpt><trkpt lat="44.38629684609051" lon="6.635555577955831"><ele>1128.0</ele><time>2026-05-01T13:07:14Z</time></trkpt><trkpt lat="44.38628619470504" lon="6.635302786539446"><ele>1128.6666666666667</ele><time>2026-05-01T13:07:15Z</time></trkpt><trkpt lat="44.38630094356339" lon="6.6350352596339315"><ele>1129.3333333333335</ele><time>2026-05-01T13:07:16Z</time></trkpt><trkpt lat="44.38628544538537" lon="6.634776510324345"><ele>1130.0</ele><time>2026-05-01T13:07:17Z</time></trkpt><trkpt lat="44.38628769681479" lon="6.634521466593206"><ele>1129.6666666666667</ele><time>2026-05-01T13:07:18Z</time></trkpt><trkpt lat="44.3862931267044" lon="6.634258916314475"><ele>1129.3333333333333</ele><time>2026-05-01T13:07:19Z</time></trkpt><trkpt lat="44.386301630772955" lon="6.633981692540091"><ele>1129.0</ele><time>2026-05-01T13:07:20Z</time></trkpt><trkpt lat="44.386301902520344" lon="6.633713373783889"><ele>1128.6666666666665</ele><time>2026-05-01T13:07:21Z</time></trkpt><trkpt lat="44.386289868563786" lon="6.633457473338108"><ele>1128.3333333333333</ele><time>2026-05-01T13:07:22Z</time></trkpt><trkpt lat="44.38628679462945" lon="6.633197864724689"><ele>1128.0</ele><time>2026-05-01T13:07:23Z</time></trkpt><trkpt lat="44.386299103685445" lon="6.6329530534049175"><ele>1127.6666666666667</ele><time>2026-05-01T13:07:24Z</time></trkpt><trkpt lat="44.38631325284315" lon="6.632705054521887"><ele>1127.3333333333335</ele><time>2026-05-01T13:07:25Z</time></trkpt><trkpt lat="44.38631690271852" lon="6.632446599229475"><ele>1127.0</ele><time>2026-05-01T13:07:26Z</time></trkpt><trkpt lat="44.386313459661885" lon="6.632200336471089"><ele>1127.3333333333335</ele><time>2026-05-01T13:07:27Z</time></trkpt><trkpt lat="44.38631453527485" lon="6.631949337505733"><ele>1127.6666666666667</ele><time>2026-05-01T13:07:28Z</time></trkpt><trkpt lat="44.386305148189166" lon="6.631689937673182"><ele>1128.0</ele><time>2026-05-01T13:07:29Z</time></trkpt><trkpt lat="44.38629413703996" lon="6.631442741722901"><ele>1128.0</ele><time>2026-05-01T13:07:30Z</time></trkpt><trkpt lat="44.3863009519617" lon="6.631187461505766"><ele>1128.0</ele><time>2026-05-01T13:07:31Z</time></trkpt><trkpt lat="44.38630711232832" lon="6.630945614074338"><ele>1128.0</ele><time>2026-05-01T13:07:32Z</time></trkpt><trkpt lat="44.38629645162979" lon="6.630707954509271"><ele>1128.5</ele><time>2026-05-01T13:07:33Z</time></trkpt><trkpt lat="44.386307754857036" lon="6.630476835309938"><ele>1129.0</ele><time>2026-05-01T13:07:34Z</time></trkpt><trkpt lat="44.386302357262586" lon="6.630277136160432"><ele>1129.5</ele><time>2026-05-01T13:07:35Z</time></trkpt><trkpt lat="44.386309607581076" lon="6.63010197929887"><ele>1130.0</ele><time>2026-05-01T13:07:36Z</time></trkpt><trkpt lat="44.38630681060391" lon="6.62993304158616"><ele>1129.25</ele><time>2026-05-01T13:07:37Z</time></trkpt><trkpt lat="44.38632826603126" lon="6.629775545274402"><ele>1128.5</ele><time>2026-05-01T13:07:38Z</time></trkpt><trkpt lat="44.386368793164166" lon="6.629645541798971"><ele>1127.75</ele><time>2026-05-01T13:07:39Z</time></trkpt><trkpt lat="44.386417709397215" lon="6.629493628257324"><ele>1127.0</ele><time>2026-05-01T13:07:41Z</time></trkpt><trkpt lat="44.386529320302905" lon="6.629407163009663"><ele>1127.0</ele><time>2026-05-01T13:07:42Z</time></trkpt><trkpt lat="44.386545773104665" lon="6.629278456121535"><ele>1127.0</ele><time>2026-05-01T13:07:44Z</time></trkpt><trkpt lat="44.38656650763524" lon="6.629184484405277"><ele>1127.0</ele><time>2026-05-01T13:07:45Z</time></trkpt><trkpt lat="44.38646447322814" lon="6.629021024022932"><ele>1127.0</ele><time>2026-05-01T13:07:47Z</time></trkpt><trkpt lat="44.38642709686162" lon="6.628907140000729"><ele>1127.0</ele><time>2026-05-01T13:07:48Z</time></trkpt><trkpt lat="44.38637826326193" lon="6.6287504986155295"><ele>1127.25</ele><time>2026-05-01T13:07:49Z</time></trkpt><trkpt lat="44.386343537099215" lon="6.628595787976689"><ele>1127.5</ele><time>2026-05-01T13:07:50Z</time></trkpt><trkpt lat="44.38633059139644" lon="6.628407247740425"><ele>1127.75</ele><time>2026-05-01T13:07:51Z</time></trkpt><trkpt lat="44.386309098490266" lon="6.628228273209707"><ele>1128.0</ele><time>2026-05-01T13:07:52Z</time></trkpt><trkpt lat="44.3863003030407" lon="6.62801882610095"><ele>1128.0</ele><time>2026-05-01T13:07:53Z</time></trkpt><trkpt lat="44.3863027387487" lon="6.627791095488518"><ele>1128.0</ele><time>2026-05-01T13:07:54Z</time></trkpt><trkpt lat="44.386303937862635" lon="6.627548521920155"><ele>1128.0</ele><time>2026-05-01T13:07:55Z</time></trkpt><trkpt lat="44.38630303918946" lon="6.627307072044319"><ele>1128.0</ele><time>2026-05-01T13:07:56Z</time></trkpt><trkpt lat="44.38629647874748" lon="6.627052480693991"><ele>1128.0</ele><time>2026-05-01T13:07:57Z</time></trkpt><trkpt lat="44.386304365795546" lon="6.626808867905806"><ele>1128.0</ele><time>2026-05-01T13:07:58Z</time></trkpt><trkpt lat="44.38630322837536" lon="6.626573278284447"><ele>1127.6666666666667</ele><time>2026-05-01T13:07:59Z</time></trkpt><trkpt lat="44.38630944577368" lon="6.626350993768237"><ele>1127.3333333333335</ele><time>2026-05-01T13:08:00Z</time></trkpt><trkpt lat="44.386309445775815" lon="6.626145429928164"><ele>1127.0</ele><time>2026-05-01T13:08:01Z</time></trkpt><trkpt lat="44.38630944577844" lon="6.625932646145227"><ele>1126.75</ele><time>2026-05-01T13:08:02Z</time></trkpt><trkpt lat="44.386309445774515" lon="6.6257480752470075"><ele>1126.5</ele><time>2026-05-01T13:08:03Z</time></trkpt><trkpt lat="44.386303694765736" lon="6.625591192373595"><ele>1126.25</ele><time>2026-05-01T13:08:04Z</time></trkpt><trkpt lat="44.38630598648098" lon="6.625429997373835"><ele>1126.0</ele><time>2026-05-01T13:08:05Z</time></trkpt><trkpt lat="44.38629655080255" lon="6.6252742665463815"><ele>1125.25</ele><time>2026-05-01T13:08:06Z</time></trkpt><trkpt lat="44.386340253024" lon="6.625121876336042"><ele>1124.5</ele><time>2026-05-01T13:08:07Z</time></trkpt><trkpt lat="44.38633998697547" lon="6.624946178890197"><ele>1123.75</ele><time>2026-05-01T13:08:08Z</time></trkpt><trkpt lat="44.38633844715193" lon="6.6247377693303955"><ele>1123.0</ele><time>2026-05-01T13:08:09Z</time></trkpt><trkpt lat="44.38632943383492" lon="6.624515219154217"><ele>1122.75</ele><time>2026-05-01T13:08:10Z</time></trkpt><trkpt lat="44.38633179943915" lon="6.6243325412402285"><ele>1122.5</ele><time>2026-05-01T13:08:11Z</time></trkpt><trkpt lat="44.38633732021366" lon="6.624122689917907"><ele>1122.25</ele><time>2026-05-01T13:08:12Z</time></trkpt><trkpt lat="44.38633856612982" lon="6.623899633024193"><ele>1122.0</ele><time>2026-05-01T13:08:13Z</time></trkpt><trkpt lat="44.38634829702141" lon="6.623675653602545"><ele>1122.3333333333333</ele><time>2026-05-01T13:08:14Z</time></trkpt><trkpt lat="44.38636004366609" lon="6.623404054965774"><ele>1122.6666666666665</ele><time>2026-05-01T13:08:15Z</time></trkpt><trkpt lat="44.386365537831914" lon="6.623176432497709"><ele>1123.0</ele><time>2026-05-01T13:08:16Z</time></trkpt><trkpt lat="44.38632946079705" lon="6.622888605210341"><ele>1122.0</ele><time>2026-05-01T13:08:17Z</time></trkpt><trkpt lat="44.38630541690989" lon="6.6226390346750845"><ele>1121.0</ele><time>2026-05-01T13:08:18Z</time></trkpt><trkpt lat="44.38629965946865" lon="6.622417447268246"><ele>1120.0</ele><time>2026-05-01T13:08:19Z</time></trkpt><trkpt lat="44.386315155863606" lon="6.622215839168551"><ele>1120.0</ele><time>2026-05-01T13:08:20Z</time></trkpt><trkpt lat="44.38631866522948" lon="6.62198969596259"><ele>1120.0</ele><time>2026-05-01T13:08:21Z</time></trkpt><trkpt lat="44.386316899843806" lon="6.621743285030532"><ele>1120.0</ele><time>2026-05-01T13:08:22Z</time></trkpt><trkpt lat="44.386304911798256" lon="6.621516125294313"><ele>1120.0</ele><time>2026-05-01T13:08:23Z</time></trkpt><trkpt lat="44.38630493629136" lon="6.6212655475314035"><ele>1120.0</ele><time>2026-05-01T13:08:24Z</time></trkpt><trkpt lat="44.38629993353981" lon="6.621039249981005"><ele>1120.0</ele><time>2026-05-01T13:08:25Z</time></trkpt><trkpt lat="44.38631421243289" lon="6.6208295394708605"><ele>1119.75</ele><time>2026-05-01T13:08:26Z</time></trkpt><trkpt lat="44.3863146193593" lon="6.620622133722648"><ele>1119.5</ele><time>2026-05-01T13:08:27Z</time></trkpt><trkpt lat="44.386315007345544" lon="6.620424383900361"><ele>1119.25</ele><time>2026-05-01T13:08:28Z</time></trkpt><trkpt lat="44.386315347835634" lon="6.620250839426535"><ele>1119.0</ele><time>2026-05-01T13:08:29Z</time></trkpt><trkpt lat="44.386315664497296" lon="6.620089440197429"><ele>1118.75</ele><time>2026-05-01T13:08:30Z</time></trkpt><trkpt lat="44.38631596329927" lon="6.6199371434211045"><ele>1118.5</ele><time>2026-05-01T13:08:31Z</time></trkpt><trkpt lat="44.386300709905406" lon="6.619792197263706"><ele>1118.25</ele><time>2026-05-01T13:08:32Z</time></trkpt><trkpt lat="44.38630323409751" lon="6.619618778834203"><ele>1118.0</ele><time>2026-05-01T13:08:33Z</time></trkpt><trkpt lat="44.38631106227616" lon="6.619418712163645"><ele>1117.6666666666667</ele><time>2026-05-01T13:08:34Z</time></trkpt><trkpt lat="44.38631142878042" lon="6.619213598225559"><ele>1117.3333333333333</ele><time>2026-05-01T13:08:35Z</time></trkpt><trkpt lat="44.38630478659772" lon="6.618994306121492"><ele>1117.0</ele><time>2026-05-01T13:08:36Z</time></trkpt><trkpt lat="44.38630286899279" lon="6.618744664699655"><ele>1117.0</ele><time>2026-05-01T13:08:37Z</time></trkpt><trkpt lat="44.38632043030092" lon="6.618481614246298"><ele>1117.0</ele><time>2026-05-01T13:08:38Z</time></trkpt><trkpt lat="44.38630876494524" lon="6.6181951801877075"><ele>1117.0</ele><time>2026-05-01T13:08:39Z</time></trkpt><trkpt lat="44.38630887818187" lon="6.61792118574554"><ele>1117.0</ele><time>2026-05-01T13:08:40Z</time></trkpt><trkpt lat="44.38631033797329" lon="6.617640562647976"><ele>1117.0</ele><time>2026-05-01T13:08:41Z</time></trkpt><trkpt lat="44.386311737587725" lon="6.617360401488426"><ele>1117.0</ele><time>2026-05-01T13:08:42Z</time></trkpt><trkpt lat="44.38631808940236" lon="6.617071031835182"><ele>1116.3333333333333</ele><time>2026-05-01T13:08:43Z</time></trkpt><trkpt lat="44.3863319330499" lon="6.616784957986506"><ele>1115.6666666666667</ele><time>2026-05-01T13:08:44Z</time></trkpt><trkpt lat="44.38632041216568" lon="6.616491366518047"><ele>1115.0</ele><time>2026-05-01T13:08:45Z</time></trkpt><trkpt lat="44.386320506105726" lon="6.616201380907595"><ele>1115.3333333333335</ele><time>2026-05-01T13:08:46Z</time></trkpt><trkpt lat="44.38631832531812" lon="6.615917719723734"><ele>1115.6666666666667</ele><time>2026-05-01T13:08:47Z</time></trkpt><trkpt lat="44.38630344763418" lon="6.615634040905324"><ele>1116.0</ele><time>2026-05-01T13:08:48Z</time></trkpt><trkpt lat="44.38630069665115" lon="6.615383290668871"><ele>1116.3333333333333</ele><time>2026-05-01T13:08:49Z</time></trkpt><trkpt lat="44.386284908553776" lon="6.615117414597933"><ele>1116.6666666666665</ele><time>2026-05-01T13:08:50Z</time></trkpt><trkpt lat="44.386261732664124" lon="6.614847921506454"><ele>1117.0</ele><time>2026-05-01T13:08:51Z</time></trkpt><trkpt lat="44.386227970327226" lon="6.614574455594139"><ele>1117.3333333333333</ele><time>2026-05-01T13:08:52Z</time></trkpt><trkpt lat="44.3861471941639" lon="6.6142962628483515"><ele>1117.6666666666667</ele><time>2026-05-01T13:08:53Z</time></trkpt><trkpt lat="44.38606374474701" lon="6.614015014311385"><ele>1118.0</ele><time>2026-05-01T13:08:54Z</time></trkpt><trkpt lat="44.386010112659314" lon="6.613758861946826"><ele>1118.6666666666667</ele><time>2026-05-01T13:08:55Z</time></trkpt><trkpt lat="44.385933353976085" lon="6.613473343282167"><ele>1119.3333333333333</ele><time>2026-05-01T13:08:56Z</time></trkpt><trkpt lat="44.385864181934046" lon="6.613200005095979"><ele>1120.0</ele><time>2026-05-01T13:08:57Z</time></trkpt><trkpt lat="44.38579510178538" lon="6.61292241311443"><ele>1121.3333333333333</ele><time>2026-05-01T13:08:58Z</time></trkpt><trkpt lat="44.38573566596563" lon="6.61265919886812"><ele>1122.6666666666667</ele><time>2026-05-01T13:08:59Z</time></trkpt><trkpt lat="44.3856934581259" lon="6.612395596741415"><ele>1124.0</ele><time>2026-05-01T13:09:00Z</time></trkpt><trkpt lat="44.38563837906401" lon="6.612139746641309"><ele>1124.6666666666667</ele><time>2026-05-01T13:09:01Z</time></trkpt><trkpt lat="44.38559624482685" lon="6.611868226451559"><ele>1125.3333333333333</ele><time>2026-05-01T13:09:02Z</time></trkpt><trkpt lat="44.385557269536854" lon="6.6115961288439395"><ele>1126.0</ele><time>2026-05-01T13:09:03Z</time></trkpt><trkpt lat="44.38553376707938" lon="6.611325665290343"><ele>1125.6666666666665</ele><time>2026-05-01T13:09:04Z</time></trkpt><trkpt lat="44.38550875476789" lon="6.611065347452683"><ele>1125.3333333333333</ele><time>2026-05-01T13:09:05Z</time></trkpt><trkpt lat="44.38549315410185" lon="6.6108248874717495"><ele>1125.0</ele><time>2026-05-01T13:09:06Z</time></trkpt><trkpt lat="44.385512686820846" lon="6.610615531025829"><ele>1123.3333333333333</ele><time>2026-05-01T13:09:07Z</time></trkpt><trkpt lat="44.385503882826505" lon="6.6103946432856215"><ele>1121.6666666666665</ele><time>2026-05-01T13:09:08Z</time></trkpt><trkpt lat="44.385477664720675" lon="6.610166750456777"><ele>1120.0</ele><time>2026-05-01T13:09:09Z</time></trkpt><trkpt lat="44.385456727860216" lon="6.609939378431022"><ele>1120.0</ele><time>2026-05-01T13:09:10Z</time></trkpt><trkpt lat="44.38542937751792" lon="6.609705946806573"><ele>1120.0</ele><time>2026-05-01T13:09:11Z</time></trkpt><trkpt lat="44.38540715733314" lon="6.609475089638889"><ele>1120.0</ele><time>2026-05-01T13:09:12Z</time></trkpt><trkpt lat="44.38539346537778" lon="6.609269919915939"><ele>1120.0</ele><time>2026-05-01T13:09:13Z</time></trkpt><trkpt lat="44.38538002145591" lon="6.60903887189522"><ele>1120.0</ele><time>2026-05-01T13:09:14Z</time></trkpt><trkpt lat="44.38537608680067" lon="6.6088089956993805"><ele>1120.0</ele><time>2026-05-01T13:09:15Z</time></trkpt><trkpt lat="44.38536820839705" lon="6.608572613368451"><ele>1119.6666666666665</ele><time>2026-05-01T13:09:16Z</time></trkpt><trkpt lat="44.385364947781554" lon="6.608328559794756"><ele>1119.3333333333333</ele><time>2026-05-01T13:09:17Z</time></trkpt><trkpt lat="44.38537465700386" lon="6.6081026348996055"><ele>1119.0</ele><time>2026-05-01T13:09:18Z</time></trkpt><trkpt lat="44.385387155585086" lon="6.6078629113660705"><ele>1119.6666666666667</ele><time>2026-05-01T13:09:19Z</time></trkpt><trkpt lat="44.38540508305114" lon="6.607628589365497"><ele>1120.3333333333335</ele><time>2026-05-01T13:09:20Z</time></trkpt><trkpt lat="44.38541930265866" lon="6.607387974802023"><ele>1121.0</ele><time>2026-05-01T13:09:21Z</time></trkpt><trkpt lat="44.38543865071743" lon="6.607155912378484"><ele>1120.0</ele><time>2026-05-01T13:09:22Z</time></trkpt><trkpt lat="44.38546055387926" lon="6.606927806846275"><ele>1119.0</ele><time>2026-05-01T13:09:23Z</time></trkpt><trkpt lat="44.38548890860256" lon="6.606685208368201"><ele>1118.0</ele><time>2026-05-01T13:09:24Z</time></trkpt><trkpt lat="44.38553217748042" lon="6.606435332773371"><ele>1119.6666666666667</ele><time>2026-05-01T13:09:25Z</time></trkpt><trkpt lat="44.385568731276905" lon="6.606183917225682"><ele>1121.3333333333333</ele><time>2026-05-01T13:09:26Z</time></trkpt><trkpt lat="44.385610160864765" lon="6.605925832772165"><ele>1123.0</ele><time>2026-05-01T13:09:27Z</time></trkpt><trkpt lat="44.38565402908333" lon="6.605684460375052"><ele>1123.0</ele><time>2026-05-01T13:09:28Z</time></trkpt><trkpt lat="44.385699560126326" lon="6.605445344320898"><ele>1123.0</ele><time>2026-05-01T13:09:29Z</time></trkpt><trkpt lat="44.385749669250934" lon="6.605197688291487"><ele>1123.0</ele><time>2026-05-01T13:09:30Z</time></trkpt><trkpt lat="44.38580090155189" lon="6.604963565020122"><ele>1122.6666666666665</ele><time>2026-05-01T13:09:31Z</time></trkpt><trkpt lat="44.38585786338336" lon="6.60473179665202"><ele>1122.3333333333333</ele><time>2026-05-01T13:09:32Z</time></trkpt><trkpt lat="44.38592497150415" lon="6.60448477319295"><ele>1122.0</ele><time>2026-05-01T13:09:33Z</time></trkpt><trkpt lat="44.385990870157066" lon="6.60424516866183"><ele>1121.3333333333333</ele><time>2026-05-01T13:09:34Z</time></trkpt><trkpt lat="44.386058873640636" lon="6.604003313308956"><ele>1120.6666666666665</ele><time>2026-05-01T13:09:35Z</time></trkpt><trkpt lat="44.386128787914046" lon="6.603764642649764"><ele>1120.0</ele><time>2026-05-01T13:09:36Z</time></trkpt><trkpt lat="44.386198611616415" lon="6.6035301664802715"><ele>1120.0</ele><time>2026-05-01T13:09:37Z</time></trkpt><trkpt lat="44.386272596068366" lon="6.603282845201976"><ele>1120.0</ele><time>2026-05-01T13:09:38Z</time></trkpt><trkpt lat="44.386340817856485" lon="6.603054787853491"><ele>1120.0</ele><time>2026-05-01T13:09:39Z</time></trkpt><trkpt lat="44.38641546966749" lon="6.6028015171731544"><ele>1120.0</ele><time>2026-05-01T13:09:40Z</time></trkpt><trkpt lat="44.386494654606985" lon="6.602535960565195"><ele>1120.0</ele><time>2026-05-01T13:09:41Z</time></trkpt><trkpt lat="44.38658352343731" lon="6.602239369561078"><ele>1120.0</ele><time>2026-05-01T13:09:42Z</time></trkpt><trkpt lat="44.38667618053119" lon="6.601930135643566"><ele>1119.5</ele><time>2026-05-01T13:09:43Z</time></trkpt><trkpt lat="44.38677201009009" lon="6.601606671622873"><ele>1119.0</ele><time>2026-05-01T13:09:44Z</time></trkpt><trkpt lat="44.38687414408877" lon="6.601260098019148"><ele>1117.5</ele><time>2026-05-01T13:09:45Z</time></trkpt><trkpt lat="44.38697520880225" lon="6.600917787808807"><ele>1116.0</ele><time>2026-05-01T13:09:46Z</time></trkpt><trkpt lat="44.38707406521115" lon="6.6005849005298"><ele>1116.5</ele><time>2026-05-01T13:09:47Z</time></trkpt><trkpt lat="44.38717572022459" lon="6.600242589266079"><ele>1117.0</ele><time>2026-05-01T13:09:48Z</time></trkpt><trkpt lat="44.38727274359564" lon="6.599917755265142"><ele>1117.0</ele><time>2026-05-01T13:09:49Z</time></trkpt><trkpt lat="44.38737030799497" lon="6.599591829872988"><ele>1117.0</ele><time>2026-05-01T13:09:50Z</time></trkpt><trkpt lat="44.38747275051778" lon="6.599247787242561"><ele>1117.5</ele><time>2026-05-01T13:09:51Z</time></trkpt><trkpt lat="44.38756978306416" lon="6.598918800788124"><ele>1118.0</ele><time>2026-05-01T13:09:52Z</time></trkpt><trkpt lat="44.38766699132776" lon="6.59859322356673"><ele>1117.0</ele><time>2026-05-01T13:09:53Z</time></trkpt><trkpt lat="44.38776975813074" lon="6.598248501371648"><ele>1116.0</ele><time>2026-05-01T13:09:54Z</time></trkpt><trkpt lat="44.3878718282893" lon="6.597906115992043"><ele>1115.5</ele><time>2026-05-01T13:09:55Z</time></trkpt><trkpt lat="44.38797724081718" lon="6.597548810477731"><ele>1115.0</ele><time>2026-05-01T13:09:56Z</time></trkpt><trkpt lat="44.38807823296963" lon="6.597202914813117"><ele>1115.5</ele><time>2026-05-01T13:09:57Z</time></trkpt><trkpt lat="44.38817417895133" lon="6.596875617002926"><ele>1116.0</ele><time>2026-05-01T13:09:58Z</time></trkpt><trkpt lat="44.38827558529718" lon="6.596540210523075"><ele>1116.0</ele><time>2026-05-01T13:09:59Z</time></trkpt><trkpt lat="44.38837055450533" lon="6.596233764521574"><ele>1116.0</ele><time>2026-05-01T13:10:00Z</time></trkpt><trkpt lat="44.38847250556029" lon="6.595916790906692"><ele>1114.0</ele><time>2026-05-01T13:10:01Z</time></trkpt><trkpt lat="44.38859587671475" lon="6.595579109407447"><ele>1112.0</ele><time>2026-05-01T13:10:02Z</time></trkpt><trkpt lat="44.388736983136596" lon="6.595226917382613"><ele>1113.5</ele><time>2026-05-01T13:10:03Z</time></trkpt><trkpt lat="44.38887180875036" lon="6.594886980677158"><ele>1115.0</ele><time>2026-05-01T13:10:04Z</time></trkpt><trkpt lat="44.389009408094616" lon="6.594537849809142"><ele>1113.5</ele><time>2026-05-01T13:10:05Z</time></trkpt><trkpt lat="44.389148302553714" lon="6.594185432926292"><ele>1112.0</ele><time>2026-05-01T13:10:06Z</time></trkpt><trkpt lat="44.38928420147428" lon="6.5938406172005495"><ele>1110.5</ele><time>2026-05-01T13:10:07Z</time></trkpt><trkpt lat="44.389421960241116" lon="6.593491564962119"><ele>1109.0</ele><time>2026-05-01T13:10:08Z</time></trkpt><trkpt lat="44.38955810230174" lon="6.593144595664289"><ele>1109.0</ele><time>2026-05-01T13:10:09Z</time></trkpt><trkpt lat="44.38969799811381" lon="6.592790202183742"><ele>1109.0</ele><time>2026-05-01T13:10:10Z</time></trkpt><trkpt lat="44.389832868492476" lon="6.592448539440172"><ele>1109.0</ele><time>2026-05-01T13:10:11Z</time></trkpt><trkpt lat="44.38996874321146" lon="6.592104332474617"><ele>1109.0</ele><time>2026-05-01T13:10:12Z</time></trkpt><trkpt lat="44.390085702574744" lon="6.591762976376372"><ele>1107.0</ele><time>2026-05-01T13:10:13Z</time></trkpt><trkpt lat="44.3902267666928" lon="6.5914506921579274"><ele>1105.0</ele><time>2026-05-01T13:10:14Z</time></trkpt><trkpt lat="44.39034671523978" lon="6.591146832238678"><ele>1105.5</ele><time>2026-05-01T13:10:15Z</time></trkpt><trkpt lat="44.39045756488917" lon="6.5908626532628425"><ele>1106.0</ele><time>2026-05-01T13:10:16Z</time></trkpt><trkpt lat="44.390551177297844" lon="6.590548096819012"><ele>1105.3333333333335</ele><time>2026-05-01T13:10:17Z</time></trkpt><trkpt lat="44.39065395195686" lon="6.59027821278759"><ele>1104.6666666666667</ele><time>2026-05-01T13:10:18Z</time></trkpt><trkpt lat="44.39073148391241" lon="6.590002917443232"><ele>1104.0</ele><time>2026-05-01T13:10:19Z</time></trkpt><trkpt lat="44.39078949675353" lon="6.589726942854824"><ele>1104.3333333333333</ele><time>2026-05-01T13:10:20Z</time></trkpt><trkpt lat="44.3908241610221" lon="6.589466822009155"><ele>1104.6666666666665</ele><time>2026-05-01T13:10:21Z</time></trkpt><trkpt lat="44.39084856545816" lon="6.589168116935863"><ele>1105.0</ele><time>2026-05-01T13:10:22Z</time></trkpt><trkpt lat="44.39084832072386" lon="6.588853716709844"><ele>1104.5</ele><time>2026-05-01T13:10:23Z</time></trkpt><trkpt lat="44.39083935375466" lon="6.588517359037396"><ele>1104.0</ele><time>2026-05-01T13:10:24Z</time></trkpt><trkpt lat="44.390786112267456" lon="6.588163638954886"><ele>1106.0</ele><time>2026-05-01T13:10:25Z</time></trkpt><trkpt lat="44.39067219183745" lon="6.5877493725498795"><ele>1108.0</ele><time>2026-05-01T13:10:26Z</time></trkpt><trkpt lat="44.390539588020616" lon="6.587363726906263"><ele>1107.5</ele><time>2026-05-01T13:10:27Z</time></trkpt><trkpt lat="44.39044159009546" lon="6.586993196460822"><ele>1107.0</ele><time>2026-05-01T13:10:28Z</time></trkpt><trkpt lat="44.39034151197598" lon="6.586620197611317"><ele>1107.0</ele><time>2026-05-01T13:10:29Z</time></trkpt><trkpt lat="44.390248491596516" lon="6.586293482585339"><ele>1107.0</ele><time>2026-05-01T13:10:30Z</time></trkpt><trkpt lat="44.390165040092796" lon="6.585962486243105"><ele>1108.0</ele><time>2026-05-01T13:10:31Z</time></trkpt><trkpt lat="44.39009854950415" lon="6.585663768543794"><ele>1109.0</ele><time>2026-05-01T13:10:32Z</time></trkpt><trkpt lat="44.390042967477285" lon="6.585367246670622"><ele>1110.0</ele><time>2026-05-01T13:10:33Z</time></trkpt><trkpt lat="44.39000151259153" lon="6.585060860578892"><ele>1110.3333333333333</ele><time>2026-05-01T13:10:34Z</time></trkpt><trkpt lat="44.389968707367416" lon="6.5847504287704055"><ele>1110.6666666666665</ele><time>2026-05-01T13:10:35Z</time></trkpt><trkpt lat="44.38993072191049" lon="6.584453501085766"><ele>1111.0</ele><time>2026-05-01T13:10:36Z</time></trkpt><trkpt lat="44.38990714224101" lon="6.5841677872442075"><ele>1111.0</ele><time>2026-05-01T13:10:37Z</time></trkpt><trkpt lat="44.389888614177885" lon="6.583884782309982"><ele>1111.0</ele><time>2026-05-01T13:10:38Z</time></trkpt><trkpt lat="44.38988222226138" lon="6.583588547422664"><ele>1111.0</ele><time>2026-05-01T13:10:39Z</time></trkpt><trkpt lat="44.38990135785423" lon="6.58327386630575"><ele>1111.0</ele><time>2026-05-01T13:10:40Z</time></trkpt><trkpt lat="44.38994058071163" lon="6.5829607433499895"><ele>1111.0</ele><time>2026-05-01T13:10:41Z</time></trkpt><trkpt lat="44.38997378006132" lon="6.582638493721928"><ele>1111.0</ele><time>2026-05-01T13:10:42Z</time></trkpt><trkpt lat="44.38999033760352" lon="6.582329466799769"><ele>1111.0</ele><time>2026-05-01T13:10:43Z</time></trkpt><trkpt lat="44.38999513658099" lon="6.582026572617188"><ele>1111.0</ele><time>2026-05-01T13:10:44Z</time></trkpt><trkpt lat="44.39000731185415" lon="6.5817771222423955"><ele>1111.0</ele><time>2026-05-01T13:10:45Z</time></trkpt><trkpt lat="44.39002129512566" lon="6.581520239137796"><ele>1111.0</ele><time>2026-05-01T13:10:46Z</time></trkpt><trkpt lat="44.390084909255336" lon="6.581270681534899"><ele>1111.0</ele><time>2026-05-01T13:10:47Z</time></trkpt><trkpt lat="44.39017744768151" lon="6.581019800108958"><ele>1110.6666666666665</ele><time>2026-05-01T13:10:48Z</time></trkpt><trkpt lat="44.390270331995225" lon="6.5807548905743145"><ele>1110.3333333333333</ele><time>2026-05-01T13:10:49Z</time></trkpt><trkpt lat="44.39038256799982" lon="6.580485713527544"><ele>1110.0</ele><time>2026-05-01T13:10:50Z</time></trkpt><trkpt lat="44.39054018735011" lon="6.5802480545360975"><ele>1111.0</ele><time>2026-05-01T13:10:51Z</time></trkpt><trkpt lat="44.39067987701657" lon="6.5799925453677375"><ele>1112.0</ele><time>2026-05-01T13:10:52Z</time></trkpt><trkpt lat="44.39089315104241" lon="6.579720912530452"><ele>1108.5</ele><time>2026-05-01T13:10:53Z</time></trkpt><trkpt lat="44.391071253598454" lon="6.579424795044985"><ele>1105.0</ele><time>2026-05-01T13:10:54Z</time></trkpt><trkpt lat="44.391239624402644" lon="6.579146629463446"><ele>1105.0</ele><time>2026-05-01T13:10:55Z</time></trkpt><trkpt lat="44.39140199672705" lon="6.578871396782433"><ele>1105.0</ele><time>2026-05-01T13:10:56Z</time></trkpt><trkpt lat="44.391555095679884" lon="6.578597624096266"><ele>1105.0</ele><time>2026-05-01T13:10:57Z</time></trkpt><trkpt lat="44.39169782684823" lon="6.578316475070579"><ele>1105.0</ele><time>2026-05-01T13:10:58Z</time></trkpt><trkpt lat="44.391840374248595" lon="6.57803219462471"><ele>1103.0</ele><time>2026-05-01T13:10:59Z</time></trkpt><trkpt lat="44.39197408559028" lon="6.577742824965934"><ele>1101.0</ele><time>2026-05-01T13:11:00Z</time></trkpt><trkpt lat="44.39210711172436" lon="6.577462624379915"><ele>1101.0</ele><time>2026-05-01T13:11:01Z</time></trkpt><trkpt lat="44.39225077333647" lon="6.577165204677929"><ele>1101.0</ele><time>2026-05-01T13:11:02Z</time></trkpt><trkpt lat="44.39238582125221" lon="6.576879101475363"><ele>1101.0</ele><time>2026-05-01T13:11:03Z</time></trkpt><trkpt lat="44.39251923539048" lon="6.576594084199631"><ele>1101.0</ele><time>2026-05-01T13:11:04Z</time></trkpt><trkpt lat="44.39265259645639" lon="6.576330227381063"><ele>1100.3333333333333</ele><time>2026-05-01T13:11:05Z</time></trkpt><trkpt lat="44.39276728413022" lon="6.576080698853559"><ele>1099.6666666666665</ele><time>2026-05-01T13:11:06Z</time></trkpt><trkpt lat="44.392872730534414" lon="6.575851064383004"><ele>1099.0</ele><time>2026-05-01T13:11:07Z</time></trkpt><trkpt lat="44.392956325478" lon="6.5756602345329975"><ele>1100.4</ele><time>2026-05-01T13:11:08Z</time></trkpt><trkpt lat="44.39301763691402" lon="6.5754760136535895"><ele>1101.8000000000002</ele><time>2026-05-01T13:11:09Z</time></trkpt><trkpt lat="44.39306094502639" lon="6.575320088417236"><ele>1103.1999999999998</ele><time>2026-05-01T13:11:10Z</time></trkpt><trkpt lat="44.3931011539549" lon="6.575213200600864"><ele>1104.6</ele><time>2026-05-01T13:11:11Z</time></trkpt><trkpt lat="44.39313331524268" lon="6.57513496760038"><ele>1106.0</ele><time>2026-05-01T13:11:12Z</time></trkpt><trkpt lat="44.393095278005156" lon="6.575035448105859"><ele>1106.0</ele><time>2026-05-01T13:11:14Z</time></trkpt><trkpt lat="44.39311463121684" lon="6.574867496657027"><ele>1106.0</ele><time>2026-05-01T13:11:16Z</time></trkpt><trkpt lat="44.39313389526073" lon="6.574750009230078"><ele>1106.0</ele><time>2026-05-01T13:11:17Z</time></trkpt><trkpt lat="44.39316078157632" lon="6.574597074050393"><ele>1106.0</ele><time>2026-05-01T13:11:18Z</time></trkpt><trkpt lat="44.393188639504" lon="6.574434977289137"><ele>1106.0</ele><time>2026-05-01T13:11:19Z</time></trkpt><trkpt lat="44.3932219583149" lon="6.574273118298868"><ele>1106.0</ele><time>2026-05-01T13:11:20Z</time></trkpt><trkpt lat="44.39325079912854" lon="6.574088033209605"><ele>1106.0</ele><time>2026-05-01T13:11:21Z</time></trkpt><trkpt lat="44.393279740631186" lon="6.573916035784564"><ele>1106.0</ele><time>2026-05-01T13:11:22Z</time></trkpt><trkpt lat="44.39331442048013" lon="6.573752785945381"><ele>1106.0</ele><time>2026-05-01T13:11:23Z</time></trkpt><trkpt lat="44.39334142660446" lon="6.573599196631149"><ele>1106.0</ele><time>2026-05-01T13:11:24Z</time></trkpt><trkpt lat="44.39337623525577" lon="6.573449572036832"><ele>1106.0</ele><time>2026-05-01T13:11:25Z</time></trkpt><trkpt lat="44.39340377748245" lon="6.573299633684632"><ele>1106.0</ele><time>2026-05-01T13:11:26Z</time></trkpt><trkpt lat="44.393437503876825" lon="6.573152379297698"><ele>1106.0</ele><time>2026-05-01T13:11:27Z</time></trkpt><trkpt lat="44.39345034308235" lon="6.572979342992265"><ele>1105.75</ele><time>2026-05-01T13:11:28Z</time></trkpt><trkpt lat="44.393479384932604" lon="6.572810478655668"><ele>1105.5</ele><time>2026-05-01T13:11:29Z</time></trkpt><trkpt lat="44.39351281093908" lon="6.5726331817065775"><ele>1105.25</ele><time>2026-05-01T13:11:30Z</time></trkpt><trkpt lat="44.393526012321416" lon="6.5724529024790455"><ele>1105.0</ele><time>2026-05-01T13:11:31Z</time></trkpt><trkpt lat="44.393543526709166" lon="6.572277523129973"><ele>1105.0</ele><time>2026-05-01T13:11:32Z</time></trkpt><trkpt lat="44.393559164542154" lon="6.572102038025278"><ele>1105.0</ele><time>2026-05-01T13:11:33Z</time></trkpt><trkpt lat="44.39357369487251" lon="6.571914911598329"><ele>1105.0</ele><time>2026-05-01T13:11:34Z</time></trkpt><trkpt lat="44.39357246515704" lon="6.571730590616263"><ele>1105.0</ele><time>2026-05-01T13:11:35Z</time></trkpt><trkpt lat="44.393545109225514" lon="6.571532934685627"><ele>1106.0</ele><time>2026-05-01T13:11:36Z</time></trkpt><trkpt lat="44.39345885750687" lon="6.571297928582503"><ele>1107.0</ele><time>2026-05-01T13:11:37Z</time></trkpt><trkpt lat="44.39342278259798" lon="6.571095873088943"><ele>1108.0</ele><time>2026-05-01T13:11:38Z</time></trkpt><trkpt lat="44.393381823882166" lon="6.570874087783617"><ele>1109.0</ele><time>2026-05-01T13:11:39Z</time></trkpt><trkpt lat="44.39335731956718" lon="6.570665907676288"><ele>1110.0</ele><time>2026-05-01T13:11:40Z</time></trkpt><trkpt lat="44.3933042359872" lon="6.570425377128045"><ele>1111.0</ele><time>2026-05-01T13:11:41Z</time></trkpt><trkpt lat="44.393266416114585" lon="6.570213891859177"><ele>1112.3333333333333</ele><time>2026-05-01T13:11:42Z</time></trkpt><trkpt lat="44.39323690742953" lon="6.569991625197008"><ele>1113.6666666666667</ele><time>2026-05-01T13:11:43Z</time></trkpt><trkpt lat="44.393212733329406" lon="6.569765775866309"><ele>1115.0</ele><time>2026-05-01T13:11:44Z</time></trkpt><trkpt lat="44.393157617306215" lon="6.569522959803088"><ele>1115.6666666666667</ele><time>2026-05-01T13:11:45Z</time></trkpt><trkpt lat="44.39311752015714" lon="6.569280859860115"><ele>1116.3333333333333</ele><time>2026-05-01T13:11:46Z</time></trkpt><trkpt lat="44.393082861452626" lon="6.569025669828997"><ele>1117.0</ele><time>2026-05-01T13:11:47Z</time></trkpt><trkpt lat="44.39305477201462" lon="6.568779723567245"><ele>1118.3333333333333</ele><time>2026-05-01T13:11:48Z</time></trkpt><trkpt lat="44.393019298621404" lon="6.568517378598347"><ele>1119.6666666666667</ele><time>2026-05-01T13:11:49Z</time></trkpt><trkpt lat="44.39298267675639" lon="6.568249171272569"><ele>1121.0</ele><time>2026-05-01T13:11:50Z</time></trkpt><trkpt lat="44.39294779892895" lon="6.567993183225843"><ele>1116.6666666666667</ele><time>2026-05-01T13:11:51Z</time></trkpt><trkpt lat="44.392890132497534" lon="6.567698941202999"><ele>1112.3333333333333</ele><time>2026-05-01T13:11:52Z</time></trkpt><trkpt lat="44.39284121229136" lon="6.567419197977362"><ele>1108.0</ele><time>2026-05-01T13:11:53Z</time></trkpt><trkpt lat="44.392785159334856" lon="6.56714857937055"><ele>1105.6666666666665</ele><time>2026-05-01T13:11:54Z</time></trkpt><trkpt lat="44.39274504854197" lon="6.566887052239438"><ele>1103.3333333333333</ele><time>2026-05-01T13:11:55Z</time></trkpt><trkpt lat="44.392691041712226" lon="6.566615243870306"><ele>1101.0</ele><time>2026-05-01T13:11:56Z</time></trkpt><trkpt lat="44.39264882445135" lon="6.5663711796326965"><ele>1103.6666666666667</ele><time>2026-05-01T13:11:57Z</time></trkpt><trkpt lat="44.3926185072818" lon="6.56612326102923"><ele>1106.3333333333335</ele><time>2026-05-01T13:11:58Z</time></trkpt><trkpt lat="44.39256323812788" lon="6.565872995765428"><ele>1109.0</ele><time>2026-05-01T13:11:59Z</time></trkpt><trkpt lat="44.39252097784063" lon="6.5656235421517755"><ele>1109.0</ele><time>2026-05-01T13:12:00Z</time></trkpt><trkpt lat="44.39248810667394" lon="6.565380963528546"><ele>1109.0</ele><time>2026-05-01T13:12:01Z</time></trkpt><trkpt lat="44.39249212841205" lon="6.565181902701336"><ele>1109.0</ele><time>2026-05-01T13:12:02Z</time></trkpt><trkpt lat="44.39245734866311" lon="6.564936730450726"><ele>1109.3333333333335</ele><time>2026-05-01T13:12:03Z</time></trkpt><trkpt lat="44.3924848432524" lon="6.564683714066987"><ele>1109.6666666666667</ele><time>2026-05-01T13:12:04Z</time></trkpt><trkpt lat="44.39249797400019" lon="6.564424880190587"><ele>1110.0</ele><time>2026-05-01T13:12:05Z</time></trkpt><trkpt lat="44.39251933726985" lon="6.564155938390513"><ele>1109.0</ele><time>2026-05-01T13:12:06Z</time></trkpt><trkpt lat="44.39253968711332" lon="6.563884246404023"><ele>1108.0</ele><time>2026-05-01T13:12:07Z</time></trkpt><trkpt lat="44.39257892822146" lon="6.563613777382443"><ele>1107.0</ele><time>2026-05-01T13:12:08Z</time></trkpt><trkpt lat="44.39263583830224" lon="6.563327513935439"><ele>1106.6666666666667</ele><time>2026-05-01T13:12:09Z</time></trkpt><trkpt lat="44.392701910449716" lon="6.563039725087985"><ele>1106.3333333333335</ele><time>2026-05-01T13:12:10Z</time></trkpt><trkpt lat="44.392768443798104" lon="6.562761561371166"><ele>1106.0</ele><time>2026-05-01T13:12:11Z</time></trkpt><trkpt lat="44.39283923448789" lon="6.562465944269071"><ele>1103.0</ele><time>2026-05-01T13:12:12Z</time></trkpt><trkpt lat="44.39291185597918" lon="6.562165041523841"><ele>1100.0</ele><time>2026-05-01T13:12:13Z</time></trkpt><trkpt lat="44.3929827069881" lon="6.561868522929933"><ele>1101.6666666666667</ele><time>2026-05-01T13:12:14Z</time></trkpt><trkpt lat="44.39304662971829" lon="6.561572054006143"><ele>1103.3333333333333</ele><time>2026-05-01T13:12:15Z</time></trkpt><trkpt lat="44.3931230574893" lon="6.561273326872115"><ele>1105.0</ele><time>2026-05-01T13:12:16Z</time></trkpt><trkpt lat="44.393187551371916" lon="6.56097985415275"><ele>1105.0</ele><time>2026-05-01T13:12:17Z</time></trkpt><trkpt lat="44.393255480673915" lon="6.560670224111123"><ele>1105.0</ele><time>2026-05-01T13:12:18Z</time></trkpt><trkpt lat="44.39332167902639" lon="6.560371187905621"><ele>1102.3333333333333</ele><time>2026-05-01T13:12:19Z</time></trkpt><trkpt lat="44.39338917655903" lon="6.5600891795789975"><ele>1099.6666666666667</ele><time>2026-05-01T13:12:20Z</time></trkpt><trkpt lat="44.39344486667082" lon="6.559808146337328"><ele>1097.0</ele><time>2026-05-01T13:12:21Z</time></trkpt><trkpt lat="44.393506960958995" lon="6.559549365842474"><ele>1094.0</ele><time>2026-05-01T13:12:22Z</time></trkpt><trkpt lat="44.393565823975635" lon="6.559301370284999"><ele>1091.0</ele><time>2026-05-01T13:12:23Z</time></trkpt><trkpt lat="44.39361372753055" lon="6.559073914957407"><ele>1088.0</ele><time>2026-05-01T13:12:24Z</time></trkpt><trkpt lat="44.393631195028185" lon="6.558861331631045"><ele>1088.3333333333335</ele><time>2026-05-01T13:12:25Z</time></trkpt><trkpt lat="44.39363375273967" lon="6.558663441345052"><ele>1088.6666666666667</ele><time>2026-05-01T13:12:26Z</time></trkpt><trkpt lat="44.393629050539516" lon="6.558453205451874"><ele>1089.0</ele><time>2026-05-01T13:12:27Z</time></trkpt><trkpt lat="44.39349931054495" lon="6.558167459962317"><ele>1089.0</ele><time>2026-05-01T13:12:28Z</time></trkpt><trkpt lat="44.393464013973954" lon="6.55794607203068"><ele>1089.0</ele><time>2026-05-01T13:12:29Z</time></trkpt><trkpt lat="44.393428881859684" lon="6.557745188866065"><ele>1089.0</ele><time>2026-05-01T13:12:30Z</time></trkpt><trkpt lat="44.39338113262976" lon="6.557480625309986"><ele>1090.3333333333333</ele><time>2026-05-01T13:12:31Z</time></trkpt><trkpt lat="44.3933249755326" lon="6.557226537996298"><ele>1091.6666666666665</ele><time>2026-05-01T13:12:32Z</time></trkpt><trkpt lat="44.393274712330154" lon="6.556975343478743"><ele>1093.0</ele><time>2026-05-01T13:12:33Z</time></trkpt><trkpt lat="44.39322942596993" lon="6.556695820584856"><ele>1093.6666666666665</ele><time>2026-05-01T13:12:34Z</time></trkpt><trkpt lat="44.39317853976422" lon="6.556427832870949"><ele>1094.3333333333333</ele><time>2026-05-01T13:12:35Z</time></trkpt><trkpt lat="44.39313166794533" lon="6.556175928170392"><ele>1095.0</ele><time>2026-05-01T13:12:36Z</time></trkpt><trkpt lat="44.39312446170182" lon="6.555950569224222"><ele>1095.0</ele><time>2026-05-01T13:12:37Z</time></trkpt><trkpt lat="44.393160168939296" lon="6.555719675881332"><ele>1095.0</ele><time>2026-05-01T13:12:38Z</time></trkpt><trkpt lat="44.39321512306523" lon="6.555482483367801"><ele>1095.0</ele><time>2026-05-01T13:12:39Z</time></trkpt><trkpt lat="44.39327484059842" lon="6.555241016816345"><ele>1092.6666666666667</ele><time>2026-05-01T13:12:40Z</time></trkpt><trkpt lat="44.393339894454456" lon="6.554983000628251"><ele>1090.3333333333335</ele><time>2026-05-01T13:12:41Z</time></trkpt><trkpt lat="44.39340663600359" lon="6.554720556004823"><ele>1088.0</ele><time>2026-05-01T13:12:42Z</time></trkpt><trkpt lat="44.3934782736824" lon="6.554440091023834"><ele>1083.5</ele><time>2026-05-01T13:12:43Z</time></trkpt><trkpt lat="44.393546587929784" lon="6.554129744143251"><ele>1079.0</ele><time>2026-05-01T13:12:44Z</time></trkpt><trkpt lat="44.39363544702013" lon="6.553830565791535"><ele>1078.3333333333335</ele><time>2026-05-01T13:12:45Z</time></trkpt><trkpt lat="44.39370659752371" lon="6.553541852916181"><ele>1077.6666666666667</ele><time>2026-05-01T13:12:46Z</time></trkpt><trkpt lat="44.3937657557243" lon="6.5532715611076675"><ele>1077.0</ele><time>2026-05-01T13:12:47Z</time></trkpt><trkpt lat="44.3937816936824" lon="6.553004809940689"><ele>1076.6666666666667</ele><time>2026-05-01T13:12:48Z</time></trkpt><trkpt lat="44.39380139948986" lon="6.552732771751574"><ele>1076.3333333333335</ele><time>2026-05-01T13:12:49Z</time></trkpt><trkpt lat="44.39380704054635" lon="6.552451981854546"><ele>1076.0</ele><time>2026-05-01T13:12:50Z</time></trkpt><trkpt lat="44.39381826983366" lon="6.552153194512824"><ele>1075.0</ele><time>2026-05-01T13:12:51Z</time></trkpt><trkpt lat="44.39381731555551" lon="6.551902181063854"><ele>1074.0</ele><time>2026-05-01T13:12:52Z</time></trkpt><trkpt lat="44.39385304724391" lon="6.55166226185368"><ele>1073.0</ele><time>2026-05-01T13:12:53Z</time></trkpt><trkpt lat="44.393900689754204" lon="6.551449406021142"><ele>1078.6666666666667</ele><time>2026-05-01T13:12:54Z</time></trkpt><trkpt lat="44.39398266665512" lon="6.551208292684738"><ele>1084.3333333333333</ele><time>2026-05-01T13:12:55Z</time></trkpt><trkpt lat="44.39408625994092" lon="6.550998411103849"><ele>1090.0</ele><time>2026-05-01T13:12:56Z</time></trkpt><trkpt lat="44.394197612122674" lon="6.550803036579249"><ele>1090.0</ele><time>2026-05-01T13:12:57Z</time></trkpt><trkpt lat="44.39432171536339" lon="6.5506014938891415"><ele>1090.0</ele><time>2026-05-01T13:12:58Z</time></trkpt><trkpt lat="44.39446429143937" lon="6.55033332324775"><ele>1090.0</ele><time>2026-05-01T13:12:59Z</time></trkpt><trkpt lat="44.394599341233054" lon="6.550024715548451"><ele>1089.5</ele><time>2026-05-01T13:13:00Z</time></trkpt><trkpt lat="44.39472169182428" lon="6.5497322928035775"><ele>1089.0</ele><time>2026-05-01T13:13:01Z</time></trkpt><trkpt lat="44.39484599961295" lon="6.54948689024684"><ele>1089.0</ele><time>2026-05-01T13:13:02Z</time></trkpt><trkpt lat="44.39498206201349" lon="6.549267260415764"><ele>1089.0</ele><time>2026-05-01T13:13:03Z</time></trkpt><trkpt lat="44.3951427112033" lon="6.549027372988407"><ele>1089.0</ele><time>2026-05-01T13:13:04Z</time></trkpt><trkpt lat="44.39532423109904" lon="6.548782300625715"><ele>1095.0</ele><time>2026-05-01T13:13:05Z</time></trkpt><trkpt lat="44.395519339648764" lon="6.548534613283722"><ele>1101.0</ele><time>2026-05-01T13:13:06Z</time></trkpt><trkpt lat="44.39571123690507" lon="6.548283965384171"><ele>1101.0</ele><time>2026-05-01T13:13:07Z</time></trkpt><trkpt lat="44.395870393418" lon="6.5480745460623355"><ele>1101.0</ele><time>2026-05-01T13:13:08Z</time></trkpt><trkpt lat="44.396021215733484" lon="6.547863614357991"><ele>1101.0</ele><time>2026-05-01T13:13:09Z</time></trkpt><trkpt lat="44.396192389680756" lon="6.547580281280676"><ele>1103.5</ele><time>2026-05-01T13:13:10Z</time></trkpt><trkpt lat="44.39633721728356" lon="6.547310201296145"><ele>1106.0</ele><time>2026-05-01T13:13:11Z</time></trkpt><trkpt lat="44.3964346784471" lon="6.547033515091244"><ele>1100.3333333333335</ele><time>2026-05-01T13:13:12Z</time></trkpt><trkpt lat="44.396549857892225" lon="6.546758970130373"><ele>1094.6666666666667</ele><time>2026-05-01T13:13:13Z</time></trkpt><trkpt lat="44.39663123961987" lon="6.546499523992897"><ele>1089.0</ele><time>2026-05-01T13:13:14Z</time></trkpt><trkpt lat="44.39671942794452" lon="6.5462297190131356"><ele>1086.3333333333333</ele><time>2026-05-01T13:13:15Z</time></trkpt><trkpt lat="44.39683764594933" lon="6.545975007046621"><ele>1083.6666666666665</ele><time>2026-05-01T13:13:16Z</time></trkpt><trkpt lat="44.39698735343232" lon="6.545746249363644"><ele>1081.0</ele><time>2026-05-01T13:13:17Z</time></trkpt><trkpt lat="44.39714868094008" lon="6.545543884248345"><ele>1079.3333333333333</ele><time>2026-05-01T13:13:18Z</time></trkpt><trkpt lat="44.397316129866454" lon="6.545362050090719"><ele>1077.6666666666667</ele><time>2026-05-01T13:13:19Z</time></trkpt><trkpt lat="44.39749672386461" lon="6.545244273930502"><ele>1076.0</ele><time>2026-05-01T13:13:20Z</time></trkpt><trkpt lat="44.3976823237076" lon="6.5451607667144005"><ele>1076.0</ele><time>2026-05-01T13:13:21Z</time></trkpt><trkpt lat="44.397899728013314" lon="6.545076144707"><ele>1076.0</ele><time>2026-05-01T13:13:22Z</time></trkpt><trkpt lat="44.39806979424811" lon="6.54496141757496"><ele>1076.0</ele><time>2026-05-01T13:13:23Z</time></trkpt><trkpt lat="44.39822451133722" lon="6.544879056606715"><ele>1077.0</ele><time>2026-05-01T13:13:24Z</time></trkpt><trkpt lat="44.39836723462029" lon="6.544716538083426"><ele>1078.0</ele><time>2026-05-01T13:13:25Z</time></trkpt><trkpt lat="44.39849425585803" lon="6.544560663086961"><ele>1079.0</ele><time>2026-05-01T13:13:26Z</time></trkpt><trkpt lat="44.39863024107371" lon="6.5443362621593035"><ele>1079.0</ele><time>2026-05-01T13:13:27Z</time></trkpt><trkpt lat="44.398754456951785" lon="6.544048913354407"><ele>1079.0</ele><time>2026-05-01T13:13:28Z</time></trkpt><trkpt lat="44.398831299026305" lon="6.5437682613360755"><ele>1080.5</ele><time>2026-05-01T13:13:29Z</time></trkpt><trkpt lat="44.39893591052331" lon="6.5434237459409035"><ele>1082.0</ele><time>2026-05-01T13:13:30Z</time></trkpt><trkpt lat="44.39905032214676" lon="6.543146931081674"><ele>1082.0</ele><time>2026-05-01T13:13:31Z</time></trkpt><trkpt lat="44.39921710210683" lon="6.54291480535176"><ele>1082.0</ele><time>2026-05-01T13:13:32Z</time></trkpt><trkpt lat="44.399361064575906" lon="6.542694805544333"><ele>1082.0</ele><time>2026-05-01T13:13:33Z</time></trkpt><trkpt lat="44.39948167405761" lon="6.542467714341797"><ele>1082.6666666666667</ele><time>2026-05-01T13:13:34Z</time></trkpt><trkpt lat="44.39961546888063" lon="6.542247284076541"><ele>1083.3333333333333</ele><time>2026-05-01T13:13:35Z</time></trkpt><trkpt lat="44.39973031719139" lon="6.541993723158634"><ele>1084.0</ele><time>2026-05-01T13:13:36Z</time></trkpt><trkpt lat="44.39980001442491" lon="6.541751606302156"><ele>1084.0</ele><time>2026-05-01T13:13:37Z</time></trkpt><trkpt lat="44.39987274139248" lon="6.541495398513089"><ele>1084.0</ele><time>2026-05-01T13:13:38Z</time></trkpt><trkpt lat="44.39991470032633" lon="6.541188775758845"><ele>1084.0</ele><time>2026-05-01T13:13:39Z</time></trkpt><trkpt lat="44.399852899061926" lon="6.540789836138091"><ele>1084.0</ele><time>2026-05-01T13:13:40Z</time></trkpt><trkpt lat="44.39985766914732" lon="6.540311906043528"><ele>1084.0</ele><time>2026-05-01T13:13:41Z</time></trkpt><trkpt lat="44.399868940781474" lon="6.539897402027598"><ele>1085.5</ele><time>2026-05-01T13:13:42Z</time></trkpt><trkpt lat="44.39986090727107" lon="6.539526399572963"><ele>1087.0</ele><time>2026-05-01T13:13:43Z</time></trkpt><trkpt lat="44.39985310126577" lon="6.539163858109166"><ele>1087.0</ele><time>2026-05-01T13:13:44Z</time></trkpt><trkpt lat="44.39983641409708" lon="6.538790964328779"><ele>1087.0</ele><time>2026-05-01T13:13:45Z</time></trkpt><trkpt lat="44.39981862972774" lon="6.538427131745432"><ele>1090.5</ele><time>2026-05-01T13:13:46Z</time></trkpt><trkpt lat="44.39979669459079" lon="6.538133115587466"><ele>1094.0</ele><time>2026-05-01T13:13:47Z</time></trkpt><trkpt lat="44.39972977425009" lon="6.5377790084818646"><ele>1086.0</ele><time>2026-05-01T13:13:48Z</time></trkpt><trkpt lat="44.39964313191765" lon="6.537415614652114"><ele>1078.0</ele><time>2026-05-01T13:13:49Z</time></trkpt><trkpt lat="44.399481356800706" lon="6.5370484208983575"><ele>1078.0</ele><time>2026-05-01T13:13:50Z</time></trkpt><trkpt lat="44.399341747728364" lon="6.536684388507991"><ele>1078.0</ele><time>2026-05-01T13:13:51Z</time></trkpt><trkpt lat="44.39924279648014" lon="6.536343557123124"><ele>1083.5</ele><time>2026-05-01T13:13:52Z</time></trkpt><trkpt lat="44.39912176624468" lon="6.536012826367857"><ele>1089.0</ele><time>2026-05-01T13:13:53Z</time></trkpt><trkpt lat="44.399012927731754" lon="6.53564955488213"><ele>1095.0</ele><time>2026-05-01T13:13:54Z</time></trkpt><trkpt lat="44.398915232798416" lon="6.535290339287703"><ele>1101.0</ele><time>2026-05-01T13:13:55Z</time></trkpt><trkpt lat="44.398835803685124" lon="6.534964429707081"><ele>1089.6666666666667</ele><time>2026-05-01T13:13:56Z</time></trkpt><trkpt lat="44.39876248882743" lon="6.5346406167821804"><ele>1078.3333333333335</ele><time>2026-05-01T13:13:57Z</time></trkpt><trkpt lat="44.398758815864795" lon="6.534386008446891"><ele>1067.0</ele><time>2026-05-01T13:13:58Z</time></trkpt><trkpt lat="44.398727417083585" lon="6.534104032586929"><ele>1067.0</ele><time>2026-05-01T13:13:59Z</time></trkpt><trkpt lat="44.39877212437149" lon="6.533836514093196"><ele>1067.0</ele><time>2026-05-01T13:14:00Z</time></trkpt><trkpt lat="44.3989392734051" lon="6.533625031305741"><ele>1067.0</ele><time>2026-05-01T13:14:01Z</time></trkpt><trkpt lat="44.39903104262859" lon="6.533371686627944"><ele>1069.3333333333335</ele><time>2026-05-01T13:14:02Z</time></trkpt><trkpt lat="44.399170258528734" lon="6.533168250456659"><ele>1071.6666666666667</ele><time>2026-05-01T13:14:03Z</time></trkpt><trkpt lat="44.3993002798069" lon="6.532954848540977"><ele>1074.0</ele><time>2026-05-01T13:14:04Z</time></trkpt><trkpt lat="44.399453276465444" lon="6.53276966327821"><ele>1074.0</ele><time>2026-05-01T13:14:05Z</time></trkpt><trkpt lat="44.39956406333255" lon="6.532530586827465"><ele>1074.0</ele><time>2026-05-01T13:14:06Z</time></trkpt><trkpt lat="44.39964835952493" lon="6.532304113381374"><ele>1074.0</ele><time>2026-05-01T13:14:07Z</time></trkpt><trkpt lat="44.39971949485751" lon="6.532051316664561"><ele>1076.5</ele><time>2026-05-01T13:14:08Z</time></trkpt><trkpt lat="44.399749322911305" lon="6.531733030952103"><ele>1079.0</ele><time>2026-05-01T13:14:09Z</time></trkpt><trkpt lat="44.39977620482421" lon="6.531372003472509"><ele>1079.6666666666667</ele><time>2026-05-01T13:14:10Z</time></trkpt><trkpt lat="44.39977026208094" lon="6.531034019509254"><ele>1080.3333333333333</ele><time>2026-05-01T13:14:11Z</time></trkpt><trkpt lat="44.3998008854475" lon="6.530750752221101"><ele>1081.0</ele><time>2026-05-01T13:14:12Z</time></trkpt><trkpt lat="44.3998208600452" lon="6.530507556753386"><ele>1079.6666666666665</ele><time>2026-05-01T13:14:13Z</time></trkpt><trkpt lat="44.39985899988668" lon="6.53028281923183"><ele>1078.3333333333333</ele><time>2026-05-01T13:14:14Z</time></trkpt><trkpt lat="44.399916073083574" lon="6.530082390949358"><ele>1077.0</ele><time>2026-05-01T13:14:15Z</time></trkpt><trkpt lat="44.40003918993379" lon="6.529898966810192"><ele>1077.0</ele><time>2026-05-01T13:14:16Z</time></trkpt><trkpt lat="44.40016019533969" lon="6.529695845501438"><ele>1077.0</ele><time>2026-05-01T13:14:17Z</time></trkpt><trkpt lat="44.400294864905334" lon="6.529504780165832"><ele>1077.0</ele><time>2026-05-01T13:14:18Z</time></trkpt><trkpt lat="44.400437023181354" lon="6.529305925887365"><ele>1083.0</ele><time>2026-05-01T13:14:19Z</time></trkpt><trkpt lat="44.40069731755204" lon="6.529007804317834"><ele>1089.0</ele><time>2026-05-01T13:14:20Z</time></trkpt><trkpt lat="44.40085317982224" lon="6.528737095960983"><ele>1081.5</ele><time>2026-05-01T13:14:21Z</time></trkpt><trkpt lat="44.40100764950052" lon="6.528454838392289"><ele>1074.0</ele><time>2026-05-01T13:14:22Z</time></trkpt><trkpt lat="44.40115093810728" lon="6.528192403555224"><ele>1074.0</ele><time>2026-05-01T13:14:23Z</time></trkpt><trkpt lat="44.40126695633012" lon="6.527916779308715"><ele>1074.0</ele><time>2026-05-01T13:14:24Z</time></trkpt><trkpt lat="44.40134458216096" lon="6.527642343400532"><ele>1074.0</ele><time>2026-05-01T13:14:25Z</time></trkpt><trkpt lat="44.4014200612706" lon="6.527375560269301"><ele>1074.0</ele><time>2026-05-01T13:14:26Z</time></trkpt><trkpt lat="44.401510257769296" lon="6.527100125515642"><ele>1074.0</ele><time>2026-05-01T13:14:27Z</time></trkpt><trkpt lat="44.40151089337172" lon="6.526716972407985"><ele>1074.0</ele><time>2026-05-01T13:14:28Z</time></trkpt><trkpt lat="44.401511738285436" lon="6.526380278996607"><ele>1074.0</ele><time>2026-05-01T13:14:29Z</time></trkpt><trkpt lat="44.401503700206845" lon="6.526063167974744"><ele>1079.5</ele><time>2026-05-01T13:14:30Z</time></trkpt><trkpt lat="44.40144859606495" lon="6.525721038849589"><ele>1085.0</ele><time>2026-05-01T13:14:31Z</time></trkpt><trkpt lat="44.40137619591162" lon="6.525358919093004"><ele>1069.0</ele><time>2026-05-01T13:14:32Z</time></trkpt><trkpt lat="44.40128614986797" lon="6.524969598712884"><ele>1053.0</ele><time>2026-05-01T13:14:33Z</time></trkpt><trkpt lat="44.401178370180524" lon="6.524580573866104"><ele>1057.0</ele><time>2026-05-01T13:14:34Z</time></trkpt><trkpt lat="44.401089551453055" lon="6.524225288725831"><ele>1061.0</ele><time>2026-05-01T13:14:35Z</time></trkpt><trkpt lat="44.40099521848415" lon="6.523876256332085"><ele>1068.0</ele><time>2026-05-01T13:14:36Z</time></trkpt><trkpt lat="44.400884461718256" lon="6.523522447391007"><ele>1075.0</ele><time>2026-05-01T13:14:37Z</time></trkpt><trkpt lat="44.40080164003554" lon="6.52319551765051"><ele>1075.3333333333333</ele><time>2026-05-01T13:14:38Z</time></trkpt><trkpt lat="44.4007038737151" lon="6.522893925295747"><ele>1075.6666666666667</ele><time>2026-05-01T13:14:39Z</time></trkpt><trkpt lat="44.400611421534784" lon="6.5226260637366575"><ele>1076.0</ele><time>2026-05-01T13:14:40Z</time></trkpt><trkpt lat="44.40055383781342" lon="6.522305772260629"><ele>1078.0</ele><time>2026-05-01T13:14:41Z</time></trkpt><trkpt lat="44.400518067549015" lon="6.521969848398494"><ele>1080.0</ele><time>2026-05-01T13:14:42Z</time></trkpt><trkpt lat="44.40052554609352" lon="6.521627847628526"><ele>1080.0</ele><time>2026-05-01T13:14:43Z</time></trkpt><trkpt lat="44.40050551683783" lon="6.521300081163454"><ele>1080.0</ele><time>2026-05-01T13:14:44Z</time></trkpt><trkpt lat="44.40051262749972" lon="6.520966178737204"><ele>1079.5</ele><time>2026-05-01T13:14:45Z</time></trkpt><trkpt lat="44.40052394846355" lon="6.520645084964964"><ele>1079.0</ele><time>2026-05-01T13:14:46Z</time></trkpt><trkpt lat="44.40058184593326" lon="6.520319108992673"><ele>1071.5</ele><time>2026-05-01T13:14:47Z</time></trkpt><trkpt lat="44.400642861100074" lon="6.519980538839258"><ele>1064.0</ele><time>2026-05-01T13:14:48Z</time></trkpt><trkpt lat="44.400698589552846" lon="6.519637515673377"><ele>1060.0</ele><time>2026-05-01T13:14:49Z</time></trkpt><trkpt lat="44.40075349430882" lon="6.519302666378753"><ele>1056.0</ele><time>2026-05-01T13:14:50Z</time></trkpt><trkpt lat="44.40079917157466" lon="6.518969511028838"><ele>1052.5</ele><time>2026-05-01T13:14:51Z</time></trkpt><trkpt lat="44.40083579544469" lon="6.518645774755267"><ele>1049.0</ele><time>2026-05-01T13:14:52Z</time></trkpt><trkpt lat="44.40082066020406" lon="6.518312420590729"><ele>1049.0</ele><time>2026-05-01T13:14:53Z</time></trkpt><trkpt lat="44.400804203917765" lon="6.517998683022974"><ele>1049.0</ele><time>2026-05-01T13:14:54Z</time></trkpt><trkpt lat="44.40078027002765" lon="6.517686433910332"><ele>1049.0</ele><time>2026-05-01T13:14:55Z</time></trkpt><trkpt lat="44.400693640853525" lon="6.517363315162282"><ele>1048.0</ele><time>2026-05-01T13:14:56Z</time></trkpt><trkpt lat="44.400664437039055" lon="6.517077531927634"><ele>1047.0</ele><time>2026-05-01T13:14:57Z</time></trkpt><trkpt lat="44.40064895907947" lon="6.51681385946761"><ele>1046.0</ele><time>2026-05-01T13:14:58Z</time></trkpt><trkpt lat="44.40063882828595" lon="6.51658224825829"><ele>1046.0</ele><time>2026-05-01T13:14:59Z</time></trkpt><trkpt lat="44.40074177444592" lon="6.516406587933414"><ele>1046.0</ele><time>2026-05-01T13:15:00Z</time></trkpt><trkpt lat="44.400801530841626" lon="6.516150701187058"><ele>1046.0</ele><time>2026-05-01T13:15:01Z</time></trkpt><trkpt lat="44.40087425070728" lon="6.515906440589445"><ele>1044.6666666666667</ele><time>2026-05-01T13:15:02Z</time></trkpt><trkpt lat="44.40099936402902" lon="6.515678842552003"><ele>1043.3333333333333</ele><time>2026-05-01T13:15:03Z</time></trkpt><trkpt lat="44.401050322977525" lon="6.515416197761262"><ele>1042.0</ele><time>2026-05-01T13:15:04Z</time></trkpt><trkpt lat="44.401088772847736" lon="6.515145618986886"><ele>1041.3333333333333</ele><time>2026-05-01T13:15:05Z</time></trkpt><trkpt lat="44.40109134293901" lon="6.5149012564677795"><ele>1040.6666666666667</ele><time>2026-05-01T13:15:06Z</time></trkpt><trkpt lat="44.40107108111333" lon="6.51467390561303"><ele>1040.0</ele><time>2026-05-01T13:15:07Z</time></trkpt><trkpt lat="44.4010523067401" lon="6.514453620693995"><ele>1039.3333333333335</ele><time>2026-05-01T13:15:08Z</time></trkpt><trkpt lat="44.401040634471826" lon="6.51424071895519"><ele>1038.6666666666667</ele><time>2026-05-01T13:15:09Z</time></trkpt><trkpt lat="44.401050461336666" lon="6.514021442673777"><ele>1038.0</ele><time>2026-05-01T13:15:10Z</time></trkpt><trkpt lat="44.40113364882951" lon="6.513841561542203"><ele>1037.0</ele><time>2026-05-01T13:15:11Z</time></trkpt><trkpt lat="44.40118972975975" lon="6.513645863403345"><ele>1036.0</ele><time>2026-05-01T13:15:12Z</time></trkpt><trkpt lat="44.40122026708444" lon="6.513456584912111"><ele>1035.0</ele><time>2026-05-01T13:15:13Z</time></trkpt><trkpt lat="44.40126089241343" lon="6.513258897654215"><ele>1034.0</ele><time>2026-05-01T13:15:14Z</time></trkpt><trkpt lat="44.40131398752984" lon="6.513055898807997"><ele>1036.0</ele><time>2026-05-01T13:15:15Z</time></trkpt><trkpt lat="44.40135620782473" lon="6.512866255438852"><ele>1038.0</ele><time>2026-05-01T13:15:16Z</time></trkpt><trkpt lat="44.40139807596079" lon="6.512670128376204"><ele>1040.0</ele><time>2026-05-01T13:15:17Z</time></trkpt><trkpt lat="44.40144607516894" lon="6.5124862190711905"><ele>1042.0</ele><time>2026-05-01T13:15:18Z</time></trkpt><trkpt lat="44.401495748179215" lon="6.512314494528738"><ele>1042.0</ele><time>2026-05-01T13:15:19Z</time></trkpt><trkpt lat="44.40152267288439" lon="6.51215953818878"><ele>1042.0</ele><time>2026-05-01T13:15:20Z</time></trkpt><trkpt lat="44.40156215765093" lon="6.511993413164869"><ele>1042.0</ele><time>2026-05-01T13:15:21Z</time></trkpt><trkpt lat="44.40160541798145" lon="6.511833918717364"><ele>1042.0</ele><time>2026-05-01T13:15:22Z</time></trkpt><trkpt lat="44.40163232654728" lon="6.51170089670199"><ele>1041.8</ele><time>2026-05-01T13:15:23Z</time></trkpt><trkpt lat="44.40165264482696" lon="6.51156896911836"><ele>1041.6</ele><time>2026-05-01T13:15:24Z</time></trkpt><trkpt lat="44.401667498730504" lon="6.5114254124032485"><ele>1041.3999999999999</ele><time>2026-05-01T13:15:25Z</time></trkpt><trkpt lat="44.40167359599243" lon="6.511278448307131"><ele>1041.2</ele><time>2026-05-01T13:15:26Z</time></trkpt><trkpt lat="44.40168015957146" lon="6.511133231815328"><ele>1041.0</ele><time>2026-05-01T13:15:27Z</time></trkpt><trkpt lat="44.40166716897369" lon="6.510995593123662"><ele>1041.0</ele><time>2026-05-01T13:15:28Z</time></trkpt><trkpt lat="44.401643884863525" lon="6.510862909715792"><ele>1041.0</ele><time>2026-05-01T13:15:29Z</time></trkpt><trkpt lat="44.4016355299594" lon="6.510711632166913"><ele>1041.0</ele><time>2026-05-01T13:15:30Z</time></trkpt><trkpt lat="44.401622074160514" lon="6.510562743932424"><ele>1041.0</ele><time>2026-05-01T13:15:31Z</time></trkpt><trkpt lat="44.40164579769778" lon="6.510409411685851"><ele>1041.0</ele><time>2026-05-01T13:15:32Z</time></trkpt><trkpt lat="44.40163391929091" lon="6.51025368951598"><ele>1041.0</ele><time>2026-05-01T13:15:33Z</time></trkpt><trkpt lat="44.40162525629176" lon="6.5101083947437415"><ele>1041.0</ele><time>2026-05-01T13:15:34Z</time></trkpt><trkpt lat="44.401605775669225" lon="6.509972332137191"><ele>1041.0</ele><time>2026-05-01T13:15:35Z</time></trkpt><trkpt lat="44.40159067483105" lon="6.509835769330857"><ele>1041.0</ele><time>2026-05-01T13:15:36Z</time></trkpt><trkpt lat="44.40158757945301" lon="6.509689657106233"><ele>1041.0</ele><time>2026-05-01T13:15:37Z</time></trkpt><trkpt lat="44.401586746960305" lon="6.509548325148355"><ele>1041.0</ele><time>2026-05-01T13:15:38Z</time></trkpt><trkpt lat="44.40158950771628" lon="6.509396086631074"><ele>1041.0</ele><time>2026-05-01T13:15:39Z</time></trkpt><trkpt lat="44.40159924370821" lon="6.509254772093417"><ele>1041.0</ele><time>2026-05-01T13:15:40Z</time></trkpt><trkpt lat="44.40161443083895" lon="6.509117957323668"><ele>1041.0</ele><time>2026-05-01T13:15:41Z</time></trkpt><trkpt lat="44.401631819963804" lon="6.508979505091123"><ele>1041.0</ele><time>2026-05-01T13:15:42Z</time></trkpt><trkpt lat="44.4016750185456" lon="6.5088371886386565"><ele>1041.75</ele><time>2026-05-01T13:15:43Z</time></trkpt><trkpt lat="44.40170607785004" lon="6.508684477060898"><ele>1042.5</ele><time>2026-05-01T13:15:44Z</time></trkpt><trkpt lat="44.401722718331335" lon="6.508522580437225"><ele>1043.25</ele><time>2026-05-01T13:15:45Z</time></trkpt><trkpt lat="44.40171059206973" lon="6.508376537382629"><ele>1044.0</ele><time>2026-05-01T13:15:46Z</time></trkpt><trkpt lat="44.40169242334617" lon="6.508207963158346"><ele>1044.0</ele><time>2026-05-01T13:15:47Z</time></trkpt><trkpt lat="44.40166806125328" lon="6.508031665723887"><ele>1044.0</ele><time>2026-05-01T13:15:48Z</time></trkpt><trkpt lat="44.40163496636781" lon="6.507863039333398"><ele>1044.0</ele><time>2026-05-01T13:15:49Z</time></trkpt><trkpt lat="44.40155794146313" lon="6.507658425376721"><ele>1044.0</ele><time>2026-05-01T13:15:50Z</time></trkpt><trkpt lat="44.40150843656549" lon="6.507464636796906"><ele>1048.3333333333333</ele><time>2026-05-01T13:15:51Z</time></trkpt><trkpt lat="44.40147520381565" lon="6.507250640481048"><ele>1052.6666666666665</ele><time>2026-05-01T13:15:52Z</time></trkpt><trkpt lat="44.40147639035685" lon="6.507037796917565"><ele>1057.0</ele><time>2026-05-01T13:15:53Z</time></trkpt><trkpt lat="44.40146788624885" lon="6.506811044881705"><ele>1060.3333333333333</ele><time>2026-05-01T13:15:54Z</time></trkpt><trkpt lat="44.40143536055981" lon="6.506596091128861"><ele>1063.6666666666667</ele><time>2026-05-01T13:15:55Z</time></trkpt><trkpt lat="44.401403450983416" lon="6.506386447264357"><ele>1067.0</ele><time>2026-05-01T13:15:56Z</time></trkpt><trkpt lat="44.40136166287365" lon="6.506183148758749"><ele>1054.3333333333335</ele><time>2026-05-01T13:15:57Z</time></trkpt><trkpt lat="44.401287282004716" lon="6.505997524242237"><ele>1041.6666666666667</ele><time>2026-05-01T13:15:58Z</time></trkpt><trkpt lat="44.40119923714437" lon="6.505821988249199"><ele>1029.0</ele><time>2026-05-01T13:15:59Z</time></trkpt><trkpt lat="44.401117451898855" lon="6.505643978202782"><ele>1029.0</ele><time>2026-05-01T13:16:00Z</time></trkpt><trkpt lat="44.40099840240077" lon="6.505469470889247"><ele>1029.0</ele><time>2026-05-01T13:16:01Z</time></trkpt><trkpt lat="44.400906670664156" lon="6.5053091704373305"><ele>1029.0</ele><time>2026-05-01T13:16:02Z</time></trkpt><trkpt lat="44.40079874404119" lon="6.505135711700278"><ele>1037.6666666666667</ele><time>2026-05-01T13:16:03Z</time></trkpt><trkpt lat="44.4006990739832" lon="6.504978378425695"><ele>1046.3333333333335</ele><time>2026-05-01T13:16:04Z</time></trkpt><trkpt lat="44.400595928243405" lon="6.504816881358148"><ele>1055.0</ele><time>2026-05-01T13:16:05Z</time></trkpt><trkpt lat="44.40050343885302" lon="6.504644703680481"><ele>1048.6666666666667</ele><time>2026-05-01T13:16:06Z</time></trkpt><trkpt lat="44.40042911471372" lon="6.504452103083911"><ele>1042.3333333333333</ele><time>2026-05-01T13:16:07Z</time></trkpt><trkpt lat="44.40035526556522" lon="6.5042510141585845"><ele>1036.0</ele><time>2026-05-01T13:16:08Z</time></trkpt><trkpt lat="44.400353463170134" lon="6.504020554569752"><ele>1036.0</ele><time>2026-05-01T13:16:09Z</time></trkpt><trkpt lat="44.40034724595262" lon="6.50377970837175"><ele>1036.0</ele><time>2026-05-01T13:16:10Z</time></trkpt><trkpt lat="44.40036627803821" lon="6.50354992308966"><ele>1036.0</ele><time>2026-05-01T13:16:11Z</time></trkpt><trkpt lat="44.40041755663561" lon="6.503338234531353"><ele>1037.0</ele><time>2026-05-01T13:16:12Z</time></trkpt><trkpt lat="44.40048105580038" lon="6.503130881268862"><ele>1038.0</ele><time>2026-05-01T13:16:13Z</time></trkpt><trkpt lat="44.40056383170691" lon="6.502911640386033"><ele>1039.0</ele><time>2026-05-01T13:16:14Z</time></trkpt><trkpt lat="44.40064817202672" lon="6.502664842881139"><ele>1039.0</ele><time>2026-05-01T13:16:15Z</time></trkpt><trkpt lat="44.40069595279148" lon="6.502420652336295"><ele>1039.0</ele><time>2026-05-01T13:16:16Z</time></trkpt><trkpt lat="44.4007584076332" lon="6.502180655227105"><ele>1039.0</ele><time>2026-05-01T13:16:17Z</time></trkpt><trkpt lat="44.40079787665546" lon="6.501930612851231"><ele>1034.3333333333333</ele><time>2026-05-01T13:16:18Z</time></trkpt><trkpt lat="44.40083078344989" lon="6.50166619712072"><ele>1029.6666666666667</ele><time>2026-05-01T13:16:19Z</time></trkpt><trkpt lat="44.40082693887287" lon="6.5013505425189715"><ele>1025.0</ele><time>2026-05-01T13:16:20Z</time></trkpt><trkpt lat="44.40082443380228" lon="6.501043023527163"><ele>1025.3333333333335</ele><time>2026-05-01T13:16:21Z</time></trkpt><trkpt lat="44.40083827967534" lon="6.500751933998355"><ele>1025.6666666666667</ele><time>2026-05-01T13:16:22Z</time></trkpt><trkpt lat="44.40084905137306" lon="6.50046254056291"><ele>1026.0</ele><time>2026-05-01T13:16:23Z</time></trkpt><trkpt lat="44.40084818147277" lon="6.500179936146147"><ele>1026.0</ele><time>2026-05-01T13:16:24Z</time></trkpt><trkpt lat="44.400834127655706" lon="6.4999043049038026"><ele>1026.0</ele><time>2026-05-01T13:16:25Z</time></trkpt><trkpt lat="44.40078864457788" lon="6.49963138291238"><ele>1026.0</ele><time>2026-05-01T13:16:26Z</time></trkpt><trkpt lat="44.400726048132434" lon="6.4993462029165645"><ele>1026.3333333333333</ele><time>2026-05-01T13:16:27Z</time></trkpt><trkpt lat="44.40065155580336" lon="6.49906842092752"><ele>1026.6666666666665</ele><time>2026-05-01T13:16:28Z</time></trkpt><trkpt lat="44.40064487680158" lon="6.498800210559562"><ele>1027.0</ele><time>2026-05-01T13:16:29Z</time></trkpt><trkpt lat="44.40063183623017" lon="6.498492738591798"><ele>1029.0</ele><time>2026-05-01T13:16:30Z</time></trkpt><trkpt lat="44.40062998229146" lon="6.498169379855452"><ele>1031.0</ele><time>2026-05-01T13:16:31Z</time></trkpt><trkpt lat="44.4006489015536" lon="6.49781968744642"><ele>1031.0</ele><time>2026-05-01T13:16:32Z</time></trkpt><trkpt lat="44.40065614660538" lon="6.49747890513841"><ele>1031.0</ele><time>2026-05-01T13:16:33Z</time></trkpt><trkpt lat="44.40064863554717" lon="6.4971430686062375"><ele>1029.3333333333335</ele><time>2026-05-01T13:16:34Z</time></trkpt><trkpt lat="44.400649835654185" lon="6.496811862540376"><ele>1027.6666666666667</ele><time>2026-05-01T13:16:35Z</time></trkpt><trkpt lat="44.40061577118386" lon="6.496520213318463"><ele>1026.0</ele><time>2026-05-01T13:16:36Z</time></trkpt><trkpt lat="44.40057183254318" lon="6.49623639131584"><ele>1017.0</ele><time>2026-05-01T13:16:37Z</time></trkpt><trkpt lat="44.40048647899087" lon="6.495969569548852"><ele>1008.0</ele><time>2026-05-01T13:16:38Z</time></trkpt><trkpt lat="44.40037786333841" lon="6.495716747158536"><ele>999.0</ele><time>2026-05-01T13:16:39Z</time></trkpt><trkpt lat="44.400259269272055" lon="6.495423192667138"><ele>1002.3333333333333</ele><time>2026-05-01T13:16:40Z</time></trkpt><trkpt lat="44.40012728757576" lon="6.495178772045335"><ele>1005.6666666666666</ele><time>2026-05-01T13:16:41Z</time></trkpt><trkpt lat="44.40002047832343" lon="6.4949243690676095"><ele>1009.0</ele><time>2026-05-01T13:16:42Z</time></trkpt><trkpt lat="44.39990153771396" lon="6.4947481903561135"><ele>1009.0</ele><time>2026-05-01T13:16:43Z</time></trkpt><trkpt lat="44.39977211402336" lon="6.494590947749182"><ele>1009.0</ele><time>2026-05-01T13:16:44Z</time></trkpt><trkpt lat="44.39964250730795" lon="6.4945069917506615"><ele>1009.0</ele><time>2026-05-01T13:16:45Z</time></trkpt><trkpt lat="44.399475346391405" lon="6.494432505898363"><ele>1005.5</ele><time>2026-05-01T13:16:46Z</time></trkpt><trkpt lat="44.39919796421145" lon="6.49427327121018"><ele>1002.0</ele><time>2026-05-01T13:16:47Z</time></trkpt><trkpt lat="44.399029575684985" lon="6.494183530690963"><ele>1002.0</ele><time>2026-05-01T13:16:48Z</time></trkpt><trkpt lat="44.398882599673506" lon="6.494035831430205"><ele>1002.0</ele><time>2026-05-01T13:16:49Z</time></trkpt><trkpt lat="44.39877460475218" lon="6.493841662100277"><ele>1002.0</ele><time>2026-05-01T13:16:50Z</time></trkpt><trkpt lat="44.39871360409656" lon="6.493606055927377"><ele>998.0</ele><time>2026-05-01T13:16:51Z</time></trkpt><trkpt lat="44.39865517316159" lon="6.493361960904517"><ele>994.0</ele><time>2026-05-01T13:16:52Z</time></trkpt><trkpt lat="44.3986734755152" lon="6.493087000483177"><ele>990.0</ele><time>2026-05-01T13:16:53Z</time></trkpt><trkpt lat="44.39868729892512" lon="6.492765436601047"><ele>990.0</ele><time>2026-05-01T13:16:54Z</time></trkpt><trkpt lat="44.39866371694345" lon="6.4924776339896475"><ele>990.0</ele><time>2026-05-01T13:16:55Z</time></trkpt><trkpt lat="44.39862809323296" lon="6.492176184625773"><ele>990.0</ele><time>2026-05-01T13:16:56Z</time></trkpt><trkpt lat="44.39858037969326" lon="6.4918164352055285"><ele>990.0</ele><time>2026-05-01T13:16:57Z</time></trkpt><trkpt lat="44.39854260498435" lon="6.491408971676094"><ele>990.0</ele><time>2026-05-01T13:16:58Z</time></trkpt><trkpt lat="44.398499421041805" lon="6.491006382346107"><ele>989.5</ele><time>2026-05-01T13:16:59Z</time></trkpt><trkpt lat="44.39845568019952" lon="6.490638715331128"><ele>989.0</ele><time>2026-05-01T13:17:00Z</time></trkpt><trkpt lat="44.39841312406997" lon="6.490280491919165"><ele>991.0</ele><time>2026-05-01T13:17:01Z</time></trkpt><trkpt lat="44.39836089078714" lon="6.489903230303161"><ele>993.0</ele><time>2026-05-01T13:17:02Z</time></trkpt><trkpt lat="44.398342186590504" lon="6.489523400872879"><ele>993.0</ele><time>2026-05-01T13:17:03Z</time></trkpt><trkpt lat="44.39831227277335" lon="6.489164074550043"><ele>993.0</ele><time>2026-05-01T13:17:04Z</time></trkpt><trkpt lat="44.39829105622813" lon="6.48883605095402"><ele>992.5</ele><time>2026-05-01T13:17:05Z</time></trkpt><trkpt lat="44.3982605130113" lon="6.488490838694172"><ele>992.0</ele><time>2026-05-01T13:17:06Z</time></trkpt><trkpt lat="44.398217490145456" lon="6.48816281115672"><ele>996.0</ele><time>2026-05-01T13:17:07Z</time></trkpt><trkpt lat="44.39816400385112" lon="6.487849072938077"><ele>1000.0</ele><time>2026-05-01T13:17:08Z</time></trkpt><trkpt lat="44.39810792652863" lon="6.48754329325959"><ele>986.5</ele><time>2026-05-01T13:17:09Z</time></trkpt><trkpt lat="44.39798441101126" lon="6.48727339609907"><ele>973.0</ele><time>2026-05-01T13:17:10Z</time></trkpt><trkpt lat="44.397849895600324" lon="6.487019181531381"><ele>973.0</ele><time>2026-05-01T13:17:11Z</time></trkpt><trkpt lat="44.397672423745" lon="6.486752365766434"><ele>973.0</ele><time>2026-05-01T13:17:12Z</time></trkpt><trkpt lat="44.39750606404024" lon="6.486540336473802"><ele>973.0</ele><time>2026-05-01T13:17:13Z</time></trkpt><trkpt lat="44.39732793789331" lon="6.486343842856707"><ele>973.0</ele><time>2026-05-01T13:17:14Z</time></trkpt><trkpt lat="44.39715532073243" lon="6.486127747337935"><ele>968.5</ele><time>2026-05-01T13:17:15Z</time></trkpt><trkpt lat="44.39699076951097" lon="6.485917929353354"><ele>964.0</ele><time>2026-05-01T13:17:16Z</time></trkpt><trkpt lat="44.39682391776928" lon="6.485694404159614"><ele>967.0</ele><time>2026-05-01T13:17:17Z</time></trkpt><trkpt lat="44.3968062299447" lon="6.485325111363631"><ele>970.0</ele><time>2026-05-01T13:17:18Z</time></trkpt><trkpt lat="44.3967473794617" lon="6.4850319056707955"><ele>970.0</ele><time>2026-05-01T13:17:19Z</time></trkpt><trkpt lat="44.39672047820022" lon="6.484708054581808"><ele>970.0</ele><time>2026-05-01T13:17:20Z</time></trkpt><trkpt lat="44.396746526978866" lon="6.484404237260265"><ele>970.0</ele><time>2026-05-01T13:17:21Z</time></trkpt><trkpt lat="44.396772404697536" lon="6.484088557131958"><ele>970.0</ele><time>2026-05-01T13:17:22Z</time></trkpt><trkpt lat="44.396821792685515" lon="6.483780168026819"><ele>967.0</ele><time>2026-05-01T13:17:23Z</time></trkpt><trkpt lat="44.39687980066087" lon="6.483460113352557"><ele>964.0</ele><time>2026-05-01T13:17:24Z</time></trkpt><trkpt lat="44.396956658536354" lon="6.483126288929941"><ele>961.0</ele><time>2026-05-01T13:17:25Z</time></trkpt><trkpt lat="44.39709699708254" lon="6.482794078228148"><ele>958.0</ele><time>2026-05-01T13:17:26Z</time></trkpt><trkpt lat="44.39718737191247" lon="6.482456609872329"><ele>959.0</ele><time>2026-05-01T13:17:27Z</time></trkpt><trkpt lat="44.39724468262935" lon="6.482150434375353"><ele>960.0</ele><time>2026-05-01T13:17:28Z</time></trkpt><trkpt lat="44.397260422518784" lon="6.481857026654164"><ele>961.0</ele><time>2026-05-01T13:17:29Z</time></trkpt><trkpt lat="44.39726999391464" lon="6.481573972892972"><ele>961.0</ele><time>2026-05-01T13:17:30Z</time></trkpt><trkpt lat="44.39725632812431" lon="6.48128567563249"><ele>961.0</ele><time>2026-05-01T13:17:31Z</time></trkpt><trkpt lat="44.39724793496456" lon="6.481021135640492"><ele>961.0</ele><time>2026-05-01T13:17:32Z</time></trkpt><trkpt lat="44.397232035106974" lon="6.480781493685642"><ele>960.6666666666666</ele><time>2026-05-01T13:17:33Z</time></trkpt><trkpt lat="44.397162129693704" lon="6.4805451659545374"><ele>960.3333333333333</ele><time>2026-05-01T13:17:34Z</time></trkpt><trkpt lat="44.397150841429514" lon="6.480328745703374"><ele>960.0</ele><time>2026-05-01T13:17:35Z</time></trkpt><trkpt lat="44.39712006695277" lon="6.480101295157766"><ele>960.0</ele><time>2026-05-01T13:17:36Z</time></trkpt><trkpt lat="44.39709394916027" lon="6.479885488164808"><ele>960.0</ele><time>2026-05-01T13:17:37Z</time></trkpt><trkpt lat="44.39707305069115" lon="6.479666052663285"><ele>960.0</ele><time>2026-05-01T13:17:38Z</time></trkpt><trkpt lat="44.39705415585214" lon="6.479462593285163"><ele>960.5</ele><time>2026-05-01T13:17:39Z</time></trkpt><trkpt lat="44.397037456772914" lon="6.47927834659521"><ele>961.0</ele><time>2026-05-01T13:17:40Z</time></trkpt><trkpt lat="44.39701096749063" lon="6.479084562453515"><ele>961.5</ele><time>2026-05-01T13:17:41Z</time></trkpt><trkpt lat="44.396982708386254" lon="6.478899372391715"><ele>962.0</ele><time>2026-05-01T13:17:42Z</time></trkpt><trkpt lat="44.39695348464391" lon="6.478695200169789"><ele>963.3333333333334</ele><time>2026-05-01T13:17:43Z</time></trkpt><trkpt lat="44.396923215032196" lon="6.478479567420502"><ele>964.6666666666667</ele><time>2026-05-01T13:17:44Z</time></trkpt><trkpt lat="44.39689970470539" lon="6.4782710129894765"><ele>966.0</ele><time>2026-05-01T13:17:45Z</time></trkpt><trkpt lat="44.39688657133753" lon="6.47805642060975"><ele>967.6666666666667</ele><time>2026-05-01T13:17:46Z</time></trkpt><trkpt lat="44.396825068767164" lon="6.477775936593089"><ele>969.3333333333334</ele><time>2026-05-01T13:17:47Z</time></trkpt><trkpt lat="44.396785350586796" lon="6.477527378727843"><ele>971.0</ele><time>2026-05-01T13:17:48Z</time></trkpt><trkpt lat="44.3967539447477" lon="6.477270428990792"><ele>972.0</ele><time>2026-05-01T13:17:49Z</time></trkpt><trkpt lat="44.396724953561346" lon="6.476960546507413"><ele>973.0</ele><time>2026-05-01T13:17:50Z</time></trkpt><trkpt lat="44.39670079323842" lon="6.476652854380627"><ele>974.0</ele><time>2026-05-01T13:17:51Z</time></trkpt><trkpt lat="44.39668916664707" lon="6.476354432765207"><ele>975.0</ele><time>2026-05-01T13:17:52Z</time></trkpt><trkpt lat="44.396697047556266" lon="6.476064669671165"><ele>976.0</ele><time>2026-05-01T13:17:53Z</time></trkpt><trkpt lat="44.39675585559763" lon="6.475813129445353"><ele>977.0</ele><time>2026-05-01T13:17:54Z</time></trkpt><trkpt lat="44.39682736337338" lon="6.4755506884245335"><ele>979.3333333333334</ele><time>2026-05-01T13:17:55Z</time></trkpt><trkpt lat="44.39692062184001" lon="6.475290148208737"><ele>981.6666666666667</ele><time>2026-05-01T13:17:56Z</time></trkpt><trkpt lat="44.397007478167346" lon="6.475017388202322"><ele>984.0</ele><time>2026-05-01T13:17:57Z</time></trkpt><trkpt lat="44.39710097040688" lon="6.4747347210476685"><ele>982.5</ele><time>2026-05-01T13:17:58Z</time></trkpt><trkpt lat="44.39723945052399" lon="6.4744658345611565"><ele>981.0</ele><time>2026-05-01T13:17:59Z</time></trkpt><trkpt lat="44.39739711898587" lon="6.474253570284774"><ele>981.0</ele><time>2026-05-01T13:18:00Z</time></trkpt><trkpt lat="44.397594489293816" lon="6.474081788196553"><ele>981.0</ele><time>2026-05-01T13:18:01Z</time></trkpt><trkpt lat="44.39776760057891" lon="6.473842988693932"><ele>977.0</ele><time>2026-05-01T13:18:02Z</time></trkpt><trkpt lat="44.3979095101367" lon="6.473593104602731"><ele>973.0</ele><time>2026-05-01T13:18:03Z</time></trkpt><trkpt lat="44.39804012852338" lon="6.473312023219601"><ele>973.0</ele><time>2026-05-01T13:18:04Z</time></trkpt><trkpt lat="44.39817311037363" lon="6.473010794546108"><ele>973.0</ele><time>2026-05-01T13:18:05Z</time></trkpt><trkpt lat="44.39829780474721" lon="6.472667543037075"><ele>973.0</ele><time>2026-05-01T13:18:06Z</time></trkpt><trkpt lat="44.39842617937899" lon="6.472346827846031"><ele>973.0</ele><time>2026-05-01T13:18:07Z</time></trkpt><trkpt lat="44.39855413633375" lon="6.472024758306803"><ele>980.5</ele><time>2026-05-01T13:18:08Z</time></trkpt><trkpt lat="44.39868885336226" lon="6.471750660267093"><ele>988.0</ele><time>2026-05-01T13:18:09Z</time></trkpt><trkpt lat="44.398810199931724" lon="6.471462465344896"><ele>986.6666666666666</ele><time>2026-05-01T13:18:10Z</time></trkpt><trkpt lat="44.39892837450835" lon="6.471208523785885"><ele>985.3333333333333</ele><time>2026-05-01T13:18:11Z</time></trkpt><trkpt lat="44.399116825928516" lon="6.4710621116091875"><ele>984.0</ele><time>2026-05-01T13:18:12Z</time></trkpt><trkpt lat="44.399293356236406" lon="6.470870789138896"><ele>984.0</ele><time>2026-05-01T13:18:13Z</time></trkpt><trkpt lat="44.3995178838749" lon="6.470746212567006"><ele>984.0</ele><time>2026-05-01T13:18:14Z</time></trkpt><trkpt lat="44.39972568818959" lon="6.470614028132096"><ele>971.0</ele><time>2026-05-01T13:18:15Z</time></trkpt><trkpt lat="44.39993446714139" lon="6.470509255265693"><ele>958.0</ele><time>2026-05-01T13:18:16Z</time></trkpt><trkpt lat="44.40016983995675" lon="6.470507369992507"><ele>958.3333333333333</ele><time>2026-05-01T13:18:17Z</time></trkpt><trkpt lat="44.400383359991096" lon="6.470411848586723"><ele>958.6666666666667</ele><time>2026-05-01T13:18:18Z</time></trkpt><trkpt lat="44.40059355591345" lon="6.470298684832376"><ele>959.0</ele><time>2026-05-01T13:18:19Z</time></trkpt><trkpt lat="44.400803198197025" lon="6.470186736931603"><ele>959.0</ele><time>2026-05-01T13:18:20Z</time></trkpt><trkpt lat="44.400967671901256" lon="6.469970322339558"><ele>959.0</ele><time>2026-05-01T13:18:21Z</time></trkpt><trkpt lat="44.40114659950981" lon="6.46977323929402"><ele>952.0</ele><time>2026-05-01T13:18:22Z</time></trkpt><trkpt lat="44.401326538862676" lon="6.469559990642892"><ele>945.0</ele><time>2026-05-01T13:18:23Z</time></trkpt><trkpt lat="44.40148469537057" lon="6.469319948099998"><ele>945.0</ele><time>2026-05-01T13:18:24Z</time></trkpt><trkpt lat="44.401623367987355" lon="6.469016141273311"><ele>945.0</ele><time>2026-05-01T13:18:25Z</time></trkpt><trkpt lat="44.40175834102419" lon="6.468659190466312"><ele>951.5</ele><time>2026-05-01T13:18:26Z</time></trkpt><trkpt lat="44.40184330150352" lon="6.468242460743454"><ele>958.0</ele><time>2026-05-01T13:18:27Z</time></trkpt><trkpt lat="44.40198120485662" lon="6.467842553767825"><ele>969.5</ele><time>2026-05-01T13:18:28Z</time></trkpt><trkpt lat="44.40204895107756" lon="6.467462009221974"><ele>981.0</ele><time>2026-05-01T13:18:29Z</time></trkpt><trkpt lat="44.40214137173763" lon="6.4671210603585525"><ele>961.0</ele><time>2026-05-01T13:18:30Z</time></trkpt><trkpt lat="44.402215698228844" lon="6.466761827178199"><ele>941.0</ele><time>2026-05-01T13:18:31Z</time></trkpt><trkpt lat="44.402277390955575" lon="6.466401702152615"><ele>939.5</ele><time>2026-05-01T13:18:32Z</time></trkpt><trkpt lat="44.40233854391827" lon="6.466055874862033"><ele>938.0</ele><time>2026-05-01T13:18:33Z</time></trkpt><trkpt lat="44.402385114672455" lon="6.46570481385307"><ele>941.0</ele><time>2026-05-01T13:18:34Z</time></trkpt><trkpt lat="44.4024101864801" lon="6.465378061775743"><ele>944.0</ele><time>2026-05-01T13:18:35Z</time></trkpt><trkpt lat="44.402396933528934" lon="6.465033323521912"><ele>944.0</ele><time>2026-05-01T13:18:36Z</time></trkpt><trkpt lat="44.402476194857215" lon="6.46470288035313"><ele>944.0</ele><time>2026-05-01T13:18:37Z</time></trkpt><trkpt lat="44.40260000163703" lon="6.464368756631519"><ele>952.0</ele><time>2026-05-01T13:18:38Z</time></trkpt><trkpt lat="44.40272976201885" lon="6.464039718610844"><ele>960.0</ele><time>2026-05-01T13:18:39Z</time></trkpt><trkpt lat="44.40286903987378" lon="6.463774128919158"><ele>957.0</ele><time>2026-05-01T13:18:40Z</time></trkpt><trkpt lat="44.403017095349064" lon="6.4635407559632485"><ele>954.0</ele><time>2026-05-01T13:18:41Z</time></trkpt><trkpt lat="44.40317645374126" lon="6.463323340986324"><ele>951.0</ele><time>2026-05-01T13:18:42Z</time></trkpt><trkpt lat="44.40336735713181" lon="6.463100902823665"><ele>957.0</ele><time>2026-05-01T13:18:43Z</time></trkpt><trkpt lat="44.40357292857341" lon="6.462909986976408"><ele>963.0</ele><time>2026-05-01T13:18:44Z</time></trkpt><trkpt lat="44.40377666540303" lon="6.4627350936914905"><ele>953.5</ele><time>2026-05-01T13:18:45Z</time></trkpt><trkpt lat="44.4039656204484" lon="6.462556929533562"><ele>944.0</ele><time>2026-05-01T13:18:46Z</time></trkpt><trkpt lat="44.40415987931302" lon="6.462342960453847"><ele>944.0</ele><time>2026-05-01T13:18:47Z</time></trkpt><trkpt lat="44.40433180692458" lon="6.462122047923516"><ele>944.0</ele><time>2026-05-01T13:18:48Z</time></trkpt><trkpt lat="44.40450513533695" lon="6.461879027360724"><ele>937.5</ele><time>2026-05-01T13:18:49Z</time></trkpt><trkpt lat="44.40467364609971" lon="6.461626024260967"><ele>931.0</ele><time>2026-05-01T13:18:50Z</time></trkpt><trkpt lat="44.40481279400813" lon="6.461288065347537"><ele>934.5</ele><time>2026-05-01T13:18:51Z</time></trkpt><trkpt lat="44.404956220757754" lon="6.460946141087518"><ele>938.0</ele><time>2026-05-01T13:18:52Z</time></trkpt><trkpt lat="44.405065601760064" lon="6.460574051542968"><ele>941.0</ele><time>2026-05-01T13:18:53Z</time></trkpt><trkpt lat="44.40518478653553" lon="6.460181192315509"><ele>944.0</ele><time>2026-05-01T13:18:54Z</time></trkpt><trkpt lat="44.4053043241824" lon="6.459835871773513"><ele>947.5</ele><time>2026-05-01T13:18:55Z</time></trkpt><trkpt lat="44.40543751469329" lon="6.4594914064049345"><ele>951.0</ele><time>2026-05-01T13:18:56Z</time></trkpt><trkpt lat="44.40559864939523" lon="6.4591928609286855"><ele>945.0</ele><time>2026-05-01T13:18:57Z</time></trkpt><trkpt lat="44.40578260174659" lon="6.458889722207785"><ele>939.0</ele><time>2026-05-01T13:18:58Z</time></trkpt><trkpt lat="44.40596833328976" lon="6.4585676426357"><ele>939.0</ele><time>2026-05-01T13:18:59Z</time></trkpt><trkpt lat="44.40617947796431" lon="6.458293933624713"><ele>939.0</ele><time>2026-05-01T13:19:00Z</time></trkpt><trkpt lat="44.40634089721132" lon="6.457959804262337"><ele>933.0</ele><time>2026-05-01T13:19:01Z</time></trkpt><trkpt lat="44.40647653118387" lon="6.457557859632949"><ele>927.0</ele><time>2026-05-01T13:19:02Z</time></trkpt><trkpt lat="44.40662797371284" lon="6.457219265155866"><ele>932.5</ele><time>2026-05-01T13:19:03Z</time></trkpt><trkpt lat="44.40678770667579" lon="6.456897622213888"><ele>938.0</ele><time>2026-05-01T13:19:04Z</time></trkpt><trkpt lat="44.40693080173445" lon="6.4565858341609275"><ele>935.0</ele><time>2026-05-01T13:19:05Z</time></trkpt><trkpt lat="44.40708979480674" lon="6.45627548221774"><ele>932.0</ele><time>2026-05-01T13:19:06Z</time></trkpt><trkpt lat="44.407243358938985" lon="6.455983631998215"><ele>932.0</ele><time>2026-05-01T13:19:07Z</time></trkpt><trkpt lat="44.407434231418875" lon="6.455753396321977"><ele>932.0</ele><time>2026-05-01T13:19:08Z</time></trkpt><trkpt lat="44.40761861570583" lon="6.45550232045077"><ele>939.5</ele><time>2026-05-01T13:19:09Z</time></trkpt><trkpt lat="44.40779617010615" lon="6.455250820126851"><ele>947.0</ele><time>2026-05-01T13:19:10Z</time></trkpt><trkpt lat="44.407983852071425" lon="6.45499532557877"><ele>947.5</ele><time>2026-05-01T13:19:11Z</time></trkpt><trkpt lat="44.408227880240524" lon="6.454760563843068"><ele>948.0</ele><time>2026-05-01T13:19:12Z</time></trkpt><trkpt lat="44.40846432775175" lon="6.454594290934824"><ele>948.0</ele><time>2026-05-01T13:19:13Z</time></trkpt><trkpt lat="44.408675509480766" lon="6.454449436541784"><ele>948.0</ele><time>2026-05-01T13:19:14Z</time></trkpt><trkpt lat="44.40887590862323" lon="6.454311978231756"><ele>941.5</ele><time>2026-05-01T13:19:15Z</time></trkpt><trkpt lat="44.40908105387575" lon="6.454173202914173"><ele>935.0</ele><time>2026-05-01T13:19:16Z</time></trkpt><trkpt lat="44.40928116839868" lon="6.454038512729616"><ele>935.0</ele><time>2026-05-01T13:19:17Z</time></trkpt><trkpt lat="44.409450134413866" lon="6.453925236631183"><ele>935.0</ele><time>2026-05-01T13:19:18Z</time></trkpt><trkpt lat="44.40959453652003" lon="6.453831302928201"><ele>935.0</ele><time>2026-05-01T13:19:19Z</time></trkpt><trkpt lat="44.409729579463026" lon="6.453743458264128"><ele>936.0</ele><time>2026-05-01T13:19:20Z</time></trkpt><trkpt lat="44.40988009593146" lon="6.453640798272742"><ele>937.0</ele><time>2026-05-01T13:19:21Z</time></trkpt><trkpt lat="44.41003296318147" lon="6.453624050009662"><ele>938.0</ele><time>2026-05-01T13:19:22Z</time></trkpt><trkpt lat="44.41019015081283" lon="6.453575257558889"><ele>938.0</ele><time>2026-05-01T13:19:23Z</time></trkpt><trkpt lat="44.410372957476156" lon="6.453543877693318"><ele>938.0</ele><time>2026-05-01T13:19:24Z</time></trkpt><trkpt lat="44.410526050541456" lon="6.453524052529548"><ele>938.0</ele><time>2026-05-01T13:19:25Z</time></trkpt><trkpt lat="44.41068988100515" lon="6.453552672437436"><ele>937.0</ele><time>2026-05-01T13:19:26Z</time></trkpt><trkpt lat="44.410872132230004" lon="6.453569583907739"><ele>936.0</ele><time>2026-05-01T13:19:27Z</time></trkpt><trkpt lat="44.41103458813642" lon="6.453534994337148"><ele>935.0</ele><time>2026-05-01T13:19:28Z</time></trkpt><trkpt lat="44.411194218540466" lon="6.453469735911956"><ele>931.6666666666667</ele><time>2026-05-01T13:19:29Z</time></trkpt><trkpt lat="44.41133118270071" lon="6.453372957232448"><ele>928.3333333333333</ele><time>2026-05-01T13:19:30Z</time></trkpt><trkpt lat="44.411478644287" lon="6.453276751254399"><ele>925.0</ele><time>2026-05-01T13:19:31Z</time></trkpt><trkpt lat="44.41159424228426" lon="6.453166483694292"><ele>925.0</ele><time>2026-05-01T13:19:32Z</time></trkpt><trkpt lat="44.411675378284585" lon="6.453020935753178"><ele>925.0</ele><time>2026-05-01T13:19:33Z</time></trkpt><trkpt lat="44.41175155426487" lon="6.452815543343827"><ele>925.0</ele><time>2026-05-01T13:19:34Z</time></trkpt><trkpt lat="44.411772208102285" lon="6.452575617337891"><ele>926.6666666666666</ele><time>2026-05-01T13:19:35Z</time></trkpt><trkpt lat="44.4118267706644" lon="6.452376345283635"><ele>928.3333333333333</ele><time>2026-05-01T13:19:36Z</time></trkpt><trkpt lat="44.41187592709951" lon="6.4521870921871365"><ele>930.0</ele><time>2026-05-01T13:19:37Z</time></trkpt><trkpt lat="44.41190283232241" lon="6.451944890631145"><ele>932.0</ele><time>2026-05-01T13:19:38Z</time></trkpt><trkpt lat="44.411913490973" lon="6.4517170303754865"><ele>934.0</ele><time>2026-05-01T13:19:39Z</time></trkpt><trkpt lat="44.41190240020032" lon="6.451454489787235"><ele>936.0</ele><time>2026-05-01T13:19:40Z</time></trkpt><trkpt lat="44.41188764474732" lon="6.451196583079671"><ele>937.0</ele><time>2026-05-01T13:19:41Z</time></trkpt><trkpt lat="44.41184333861096" lon="6.450913006191379"><ele>938.0</ele><time>2026-05-01T13:19:42Z</time></trkpt><trkpt lat="44.411903165961796" lon="6.45069720452357"><ele>939.0</ele><time>2026-05-01T13:19:43Z</time></trkpt><trkpt lat="44.41194208487815" lon="6.450474075823017"><ele>942.0</ele><time>2026-05-01T13:19:44Z</time></trkpt><trkpt lat="44.41201965847774" lon="6.450237141410893"><ele>945.0</ele><time>2026-05-01T13:19:45Z</time></trkpt><trkpt lat="44.41208388268249" lon="6.450006629846573"><ele>948.0</ele><time>2026-05-01T13:19:46Z</time></trkpt><trkpt lat="44.412152183546475" lon="6.449793948172404"><ele>941.6666666666667</ele><time>2026-05-01T13:19:47Z</time></trkpt><trkpt lat="44.41223362366526" lon="6.449613417016951"><ele>935.3333333333334</ele><time>2026-05-01T13:19:48Z</time></trkpt><trkpt lat="44.4123243461735" lon="6.449404847432093"><ele>929.0</ele><time>2026-05-01T13:19:49Z</time></trkpt><trkpt lat="44.4124233492551" lon="6.449272210719709"><ele>929.0</ele><time>2026-05-01T13:19:50Z</time></trkpt><trkpt lat="44.41251151196657" lon="6.4490748251550345"><ele>929.0</ele><time>2026-05-01T13:19:51Z</time></trkpt><trkpt lat="44.412621546737306" lon="6.448897607223825"><ele>929.0</ele><time>2026-05-01T13:19:52Z</time></trkpt><trkpt lat="44.412721318222545" lon="6.448751080421293"><ele>929.25</ele><time>2026-05-01T13:19:53Z</time></trkpt><trkpt lat="44.41283510918154" lon="6.44862541327943"><ele>929.5</ele><time>2026-05-01T13:19:54Z</time></trkpt><trkpt lat="44.412949616293524" lon="6.4485071738782125"><ele>929.75</ele><time>2026-05-01T13:19:55Z</time></trkpt><trkpt lat="44.41307776498521" lon="6.448413145663479"><ele>930.0</ele><time>2026-05-01T13:19:56Z</time></trkpt><trkpt lat="44.413189105510995" lon="6.4483202082895525"><ele>930.0</ele><time>2026-05-01T13:19:57Z</time></trkpt><trkpt lat="44.41337250145456" lon="6.448264844793125"><ele>930.0</ele><time>2026-05-01T13:19:58Z</time></trkpt><trkpt lat="44.41349245199616" lon="6.448166486430588"><ele>930.0</ele><time>2026-05-01T13:19:59Z</time></trkpt><trkpt lat="44.413617542859214" lon="6.448087726759097"><ele>930.0</ele><time>2026-05-01T13:20:00Z</time></trkpt><trkpt lat="44.41376056149577" lon="6.448066598510386"><ele>930.0</ele><time>2026-05-01T13:20:01Z</time></trkpt><trkpt lat="44.41388978212288" lon="6.448037396669204"><ele>930.0</ele><time>2026-05-01T13:20:02Z</time></trkpt><trkpt lat="44.41403630000611" lon="6.448004395662498"><ele>930.0</ele><time>2026-05-01T13:20:03Z</time></trkpt><trkpt lat="44.4141886747125" lon="6.4479836986684544"><ele>924.0</ele><time>2026-05-01T13:20:04Z</time></trkpt><trkpt lat="44.4143301212519" lon="6.4479675112317665"><ele>918.0</ele><time>2026-05-01T13:20:05Z</time></trkpt><trkpt lat="44.41450027251656" lon="6.448016475955218"><ele>912.0</ele><time>2026-05-01T13:20:06Z</time></trkpt><trkpt lat="44.41469982438975" lon="6.447991960075866"><ele>910.0</ele><time>2026-05-01T13:20:07Z</time></trkpt><trkpt lat="44.41487034539362" lon="6.447963529429531"><ele>908.0</ele><time>2026-05-01T13:20:08Z</time></trkpt><trkpt lat="44.41511380193764" lon="6.447900745694482"><ele>906.0</ele><time>2026-05-01T13:20:09Z</time></trkpt><trkpt lat="44.41539037434875" lon="6.44787502574403"><ele>919.0</ele><time>2026-05-01T13:20:10Z</time></trkpt><trkpt lat="44.41563462366512" lon="6.447833980453543"><ele>932.0</ele><time>2026-05-01T13:20:11Z</time></trkpt><trkpt lat="44.41588389098463" lon="6.4478100038702735"><ele>932.0</ele><time>2026-05-01T13:20:12Z</time></trkpt><trkpt lat="44.416123413450094" lon="6.447788139455412"><ele>932.0</ele><time>2026-05-01T13:20:13Z</time></trkpt><trkpt lat="44.416347735308406" lon="6.447751516198811"><ele>925.0</ele><time>2026-05-01T13:20:14Z</time></trkpt><trkpt lat="44.4165805885397" lon="6.447708737330127"><ele>918.0</ele><time>2026-05-01T13:20:15Z</time></trkpt><trkpt lat="44.41680675545935" lon="6.447659447581247"><ele>918.0</ele><time>2026-05-01T13:20:16Z</time></trkpt><trkpt lat="44.417034525575396" lon="6.447566687404751"><ele>918.0</ele><time>2026-05-01T13:20:17Z</time></trkpt><trkpt lat="44.41728004134934" lon="6.447341851424056"><ele>922.5</ele><time>2026-05-01T13:20:18Z</time></trkpt><trkpt lat="44.41763443780131" lon="6.447132562172666"><ele>927.0</ele><time>2026-05-01T13:20:19Z</time></trkpt><trkpt lat="44.41797443979802" lon="6.447028998314628"><ele>922.0</ele><time>2026-05-01T13:20:20Z</time></trkpt><trkpt lat="44.418265161072284" lon="6.446930273451936"><ele>917.0</ele><time>2026-05-01T13:20:21Z</time></trkpt><trkpt lat="44.418537504859806" lon="6.446831727943508"><ele>917.0</ele><time>2026-05-01T13:20:22Z</time></trkpt><trkpt lat="44.41880299904427" lon="6.4467236720091625"><ele>917.0</ele><time>2026-05-01T13:20:23Z</time></trkpt><trkpt lat="44.41905316277901" lon="6.446604788474196"><ele>917.0</ele><time>2026-05-01T13:20:24Z</time></trkpt><trkpt lat="44.41926338542634" lon="6.446400759171226"><ele>917.0</ele><time>2026-05-01T13:20:25Z</time></trkpt><trkpt lat="44.41948183361523" lon="6.446232055734325"><ele>910.0</ele><time>2026-05-01T13:20:26Z</time></trkpt><trkpt lat="44.419662834059146" lon="6.446042644540573"><ele>903.0</ele><time>2026-05-01T13:20:27Z</time></trkpt><trkpt lat="44.419791508702964" lon="6.44552973360185"><ele>908.0</ele><time>2026-05-01T13:20:28Z</time></trkpt><trkpt lat="44.41998544071338" lon="6.445301972518183"><ele>913.0</ele><time>2026-05-01T13:20:29Z</time></trkpt><trkpt lat="44.42013136010075" lon="6.445032859949607"><ele>913.0</ele><time>2026-05-01T13:20:30Z</time></trkpt><trkpt lat="44.42033489351266" lon="6.444840375077886"><ele>913.0</ele><time>2026-05-01T13:20:31Z</time></trkpt><trkpt lat="44.420578989210775" lon="6.444658487547514"><ele>912.5</ele><time>2026-05-01T13:20:32Z</time></trkpt><trkpt lat="44.4208464025118" lon="6.444474174664691"><ele>912.0</ele><time>2026-05-01T13:20:33Z</time></trkpt><trkpt lat="44.42111538021818" lon="6.444286581148997"><ele>903.0</ele><time>2026-05-01T13:20:34Z</time></trkpt><trkpt lat="44.42137970583667" lon="6.444103202887024"><ele>894.0</ele><time>2026-05-01T13:20:35Z</time></trkpt><trkpt lat="44.42164040055693" lon="6.443922343612558"><ele>904.0</ele><time>2026-05-01T13:20:36Z</time></trkpt><trkpt lat="44.42189490113851" lon="6.443744077444017"><ele>914.0</ele><time>2026-05-01T13:20:37Z</time></trkpt><trkpt lat="44.422116169926525" lon="6.443589333786637"><ele>906.5</ele><time>2026-05-01T13:20:38Z</time></trkpt><trkpt lat="44.42233092354001" lon="6.44341289091095"><ele>899.0</ele><time>2026-05-01T13:20:39Z</time></trkpt><trkpt lat="44.42252818123259" lon="6.443265957835538"><ele>899.0</ele><time>2026-05-01T13:20:40Z</time></trkpt><trkpt lat="44.42274518187384" lon="6.443099853343166"><ele>899.0</ele><time>2026-05-01T13:20:41Z</time></trkpt><trkpt lat="44.42292031990678" lon="6.442894502622818"><ele>896.0</ele><time>2026-05-01T13:20:42Z</time></trkpt><trkpt lat="44.42306453783997" lon="6.4426619370697145"><ele>893.0</ele><time>2026-05-01T13:20:43Z</time></trkpt><trkpt lat="44.42319727895984" lon="6.442364908326499"><ele>897.5</ele><time>2026-05-01T13:20:44Z</time></trkpt><trkpt lat="44.42330864459413" lon="6.442099385977654"><ele>902.0</ele><time>2026-05-01T13:20:45Z</time></trkpt><trkpt lat="44.423372056780266" lon="6.441788475889994"><ele>902.0</ele><time>2026-05-01T13:20:46Z</time></trkpt><trkpt lat="44.4234556129238" lon="6.441467400972823"><ele>902.0</ele><time>2026-05-01T13:20:47Z</time></trkpt><trkpt lat="44.42356950882529" lon="6.441092829244358"><ele>907.0</ele><time>2026-05-01T13:20:48Z</time></trkpt><trkpt lat="44.42367444308647" lon="6.440779064366148"><ele>912.0</ele><time>2026-05-01T13:20:49Z</time></trkpt><trkpt lat="44.42381234443468" lon="6.440458664907191"><ele>906.5</ele><time>2026-05-01T13:20:50Z</time></trkpt><trkpt lat="44.42398747380185" lon="6.4401604370698085"><ele>901.0</ele><time>2026-05-01T13:20:51Z</time></trkpt><trkpt lat="44.424153949857185" lon="6.439889801882919"><ele>901.0</ele><time>2026-05-01T13:20:52Z</time></trkpt><trkpt lat="44.42431568540189" lon="6.439636527159529"><ele>901.0</ele><time>2026-05-01T13:20:53Z</time></trkpt><trkpt lat="44.42449375127643" lon="6.439394065802317"><ele>897.5</ele><time>2026-05-01T13:20:54Z</time></trkpt><trkpt lat="44.42465127388387" lon="6.439136001913039"><ele>894.0</ele><time>2026-05-01T13:20:55Z</time></trkpt><trkpt lat="44.42479907374773" lon="6.43888436502622"><ele>897.0</ele><time>2026-05-01T13:20:56Z</time></trkpt><trkpt lat="44.424934191386924" lon="6.438666557164269"><ele>900.0</ele><time>2026-05-01T13:20:57Z</time></trkpt><trkpt lat="44.42507659010958" lon="6.43846946023695"><ele>903.0</ele><time>2026-05-01T13:20:58Z</time></trkpt><trkpt lat="44.42519875618602" lon="6.438287039485542"><ele>903.0</ele><time>2026-05-01T13:20:59Z</time></trkpt><trkpt lat="44.425305375060795" lon="6.438098218387073"><ele>903.0</ele><time>2026-05-01T13:21:00Z</time></trkpt><trkpt lat="44.42542219015264" lon="6.437916304112944"><ele>903.0</ele><time>2026-05-01T13:21:01Z</time></trkpt><trkpt lat="44.42552895235635" lon="6.437786605660213"><ele>902.75</ele><time>2026-05-01T13:21:02Z</time></trkpt><trkpt lat="44.42561092477311" lon="6.437705246875567"><ele>902.5</ele><time>2026-05-01T13:21:03Z</time></trkpt><trkpt lat="44.425721773561285" lon="6.437600809829008"><ele>902.25</ele><time>2026-05-01T13:21:04Z</time></trkpt><trkpt lat="44.42584114777457" lon="6.437485079127579"><ele>902.0</ele><time>2026-05-01T13:21:05Z</time></trkpt><trkpt lat="44.42594181458912" lon="6.43741199897787"><ele>902.0</ele><time>2026-05-01T13:21:06Z</time></trkpt><trkpt lat="44.426040034101845" lon="6.437306233813157"><ele>902.0</ele><time>2026-05-01T13:21:07Z</time></trkpt><trkpt lat="44.42616008266554" lon="6.437204045665813"><ele>902.0</ele><time>2026-05-01T13:21:08Z</time></trkpt><trkpt lat="44.4262917870774" lon="6.437115403385911"><ele>902.0</ele><time>2026-05-01T13:21:09Z</time></trkpt><trkpt lat="44.42645355133931" lon="6.437032426685246"><ele>902.5</ele><time>2026-05-01T13:21:10Z</time></trkpt><trkpt lat="44.426575434335575" lon="6.436976446446728"><ele>903.0</ele><time>2026-05-01T13:21:11Z</time></trkpt><trkpt lat="44.42669096001314" lon="6.4369181832956945"><ele>903.5</ele><time>2026-05-01T13:21:12Z</time></trkpt><trkpt lat="44.42682778914997" lon="6.43688117357257"><ele>904.0</ele><time>2026-05-01T13:21:13Z</time></trkpt><trkpt lat="44.42696219030954" lon="6.436817411165101"><ele>904.0</ele><time>2026-05-01T13:21:14Z</time></trkpt><trkpt lat="44.427101192263095" lon="6.436707974671552"><ele>904.0</ele><time>2026-05-01T13:21:15Z</time></trkpt><trkpt lat="44.42724700978594" lon="6.436581484379915"><ele>904.0</ele><time>2026-05-01T13:21:16Z</time></trkpt><trkpt lat="44.427364699047644" lon="6.4364310782281775"><ele>904.0</ele><time>2026-05-01T13:21:17Z</time></trkpt><trkpt lat="44.427496413984194" lon="6.436290317433013"><ele>904.0</ele><time>2026-05-01T13:21:18Z</time></trkpt><trkpt lat="44.42761885479142" lon="6.436155091135066"><ele>904.0</ele><time>2026-05-01T13:21:19Z</time></trkpt><trkpt lat="44.42773907295756" lon="6.4360372549252425"><ele>904.0</ele><time>2026-05-01T13:21:20Z</time></trkpt><trkpt lat="44.42785800618595" lon="6.435909919734532"><ele>904.0</ele><time>2026-05-01T13:21:21Z</time></trkpt><trkpt lat="44.427947819110734" lon="6.435772167457947"><ele>904.0</ele><time>2026-05-01T13:21:22Z</time></trkpt><trkpt lat="44.42802131534755" lon="6.435619649520726"><ele>904.0</ele><time>2026-05-01T13:21:23Z</time></trkpt><trkpt lat="44.428087849610094" lon="6.435441540355327"><ele>904.8000000000001</ele><time>2026-05-01T13:21:24Z</time></trkpt><trkpt lat="44.4281280077917" lon="6.435287042499978"><ele>905.6000000000001</ele><time>2026-05-01T13:21:25Z</time></trkpt><trkpt lat="44.42818057133115" lon="6.435174664828853"><ele>906.4</ele><time>2026-05-01T13:21:26Z</time></trkpt><trkpt lat="44.42825972695512" lon="6.435055172520494"><ele>907.2</ele><time>2026-05-01T13:21:27Z</time></trkpt><trkpt lat="44.42833175468238" lon="6.434934736832645"><ele>908.0</ele><time>2026-05-01T13:21:28Z</time></trkpt><trkpt lat="44.42839311664594" lon="6.434799024041028"><ele>908.0</ele><time>2026-05-01T13:21:29Z</time></trkpt><trkpt lat="44.42842038657288" lon="6.434654445242065"><ele>908.0</ele><time>2026-05-01T13:21:30Z</time></trkpt><trkpt lat="44.42844883446918" lon="6.434520797223428"><ele>908.0</ele><time>2026-05-01T13:21:31Z</time></trkpt><trkpt lat="44.42849448352108" lon="6.434374432766282"><ele>908.0</ele><time>2026-05-01T13:21:32Z</time></trkpt><trkpt lat="44.42853036346882" lon="6.434240457201763"><ele>908.0</ele><time>2026-05-01T13:21:33Z</time></trkpt><trkpt lat="44.428585831226314" lon="6.434129957956691"><ele>907.0</ele><time>2026-05-01T13:21:34Z</time></trkpt><trkpt lat="44.42867645623198" lon="6.434032781178312"><ele>906.0</ele><time>2026-05-01T13:21:35Z</time></trkpt><trkpt lat="44.42871941839508" lon="6.433900610245513"><ele>905.0</ele><time>2026-05-01T13:21:36Z</time></trkpt><trkpt lat="44.428747492767855" lon="6.433771401256413"><ele>904.0</ele><time>2026-05-01T13:21:37Z</time></trkpt><trkpt lat="44.42876359673703" lon="6.433645458587656"><ele>903.0</ele><time>2026-05-01T13:21:38Z</time></trkpt><trkpt lat="44.42876494107011" lon="6.433504499334613"><ele>902.75</ele><time>2026-05-01T13:21:39Z</time></trkpt><trkpt lat="44.42873816239546" lon="6.433309592712522"><ele>902.5</ele><time>2026-05-01T13:21:40Z</time></trkpt><trkpt lat="44.42872101824302" lon="6.433106447291831"><ele>902.25</ele><time>2026-05-01T13:21:41Z</time></trkpt><trkpt lat="44.428757484409566" lon="6.432909001677033"><ele>902.0</ele><time>2026-05-01T13:21:42Z</time></trkpt><trkpt lat="44.42881994532105" lon="6.432732888914536"><ele>905.3333333333334</ele><time>2026-05-01T13:21:43Z</time></trkpt><trkpt lat="44.42889379996761" lon="6.432561984049384"><ele>908.6666666666667</ele><time>2026-05-01T13:21:44Z</time></trkpt><trkpt lat="44.42899550186907" lon="6.43235570722969"><ele>912.0</ele><time>2026-05-01T13:21:45Z</time></trkpt><trkpt lat="44.42908601836876" lon="6.432173614610539"><ele>911.25</ele><time>2026-05-01T13:21:46Z</time></trkpt><trkpt lat="44.42916014406088" lon="6.431995466782548"><ele>910.5</ele><time>2026-05-01T13:21:47Z</time></trkpt><trkpt lat="44.42923073880393" lon="6.431818939080472"><ele>909.75</ele><time>2026-05-01T13:21:48Z</time></trkpt><trkpt lat="44.429316175800146" lon="6.431663126306378"><ele>909.0</ele><time>2026-05-01T13:21:49Z</time></trkpt><trkpt lat="44.429402939083595" lon="6.431497928607065"><ele>909.0</ele><time>2026-05-01T13:21:50Z</time></trkpt><trkpt lat="44.429476968354486" lon="6.4313124568817255"><ele>909.0</ele><time>2026-05-01T13:21:51Z</time></trkpt><trkpt lat="44.42957083954946" lon="6.4311158591648345"><ele>909.0</ele><time>2026-05-01T13:21:52Z</time></trkpt><trkpt lat="44.429675225465814" lon="6.430956952971605"><ele>909.25</ele><time>2026-05-01T13:21:53Z</time></trkpt><trkpt lat="44.4297636153154" lon="6.430768931603383"><ele>909.5</ele><time>2026-05-01T13:21:54Z</time></trkpt><trkpt lat="44.42986183942609" lon="6.430627573446244"><ele>909.75</ele><time>2026-05-01T13:21:55Z</time></trkpt><trkpt lat="44.429923267750524" lon="6.43044320196757"><ele>910.0</ele><time>2026-05-01T13:21:56Z</time></trkpt><trkpt lat="44.4299962032955" lon="6.430254275553088"><ele>912.0</ele><time>2026-05-01T13:21:57Z</time></trkpt><trkpt lat="44.43003318170993" lon="6.430000088949162"><ele>914.0</ele><time>2026-05-01T13:21:58Z</time></trkpt><trkpt lat="44.43012525744774" lon="6.429797412924073"><ele>916.0</ele><time>2026-05-01T13:21:59Z</time></trkpt><trkpt lat="44.430247480924464" lon="6.42962445185201"><ele>914.0</ele><time>2026-05-01T13:22:00Z</time></trkpt><trkpt lat="44.4303721628421" lon="6.429461365394086"><ele>912.0</ele><time>2026-05-01T13:22:01Z</time></trkpt><trkpt lat="44.430502931064204" lon="6.429312022416912"><ele>910.0</ele><time>2026-05-01T13:22:02Z</time></trkpt><trkpt lat="44.43063590903807" lon="6.4291619064622525"><ele>910.0</ele><time>2026-05-01T13:22:03Z</time></trkpt><trkpt lat="44.430766190276906" lon="6.429016991065597"><ele>910.0</ele><time>2026-05-01T13:22:04Z</time></trkpt><trkpt lat="44.43090260649665" lon="6.4288652093029555"><ele>910.0</ele><time>2026-05-01T13:22:05Z</time></trkpt><trkpt lat="44.430983126719696" lon="6.428775619490686"><ele>910.0</ele><time>2026-05-01T13:22:06Z</time></trkpt><trkpt lat="44.43108761783635" lon="6.42865723613483"><ele>909.75</ele><time>2026-05-01T13:22:07Z</time></trkpt><trkpt lat="44.43116725611876" lon="6.4285381146294815"><ele>909.5</ele><time>2026-05-01T13:22:08Z</time></trkpt><trkpt lat="44.431322493628365" lon="6.4284348618805245"><ele>909.25</ele><time>2026-05-01T13:22:09Z</time></trkpt><trkpt lat="44.43143407498174" lon="6.428274361397795"><ele>909.0</ele><time>2026-05-01T13:22:10Z</time></trkpt><trkpt lat="44.43157033224835" lon="6.428111427205885"><ele>914.6666666666667</ele><time>2026-05-01T13:22:11Z</time></trkpt><trkpt lat="44.43174174640688" lon="6.427910323061388"><ele>920.3333333333334</ele><time>2026-05-01T13:22:12Z</time></trkpt><trkpt lat="44.43189337753584" lon="6.4277297262668736"><ele>926.0</ele><time>2026-05-01T13:22:13Z</time></trkpt><trkpt lat="44.43206008561295" lon="6.427593198295033"><ele>924.6666666666667</ele><time>2026-05-01T13:22:14Z</time></trkpt><trkpt lat="44.43226307349654" lon="6.427404668530115"><ele>923.3333333333333</ele><time>2026-05-01T13:22:15Z</time></trkpt><trkpt lat="44.43241490735536" lon="6.4272124921332345"><ele>922.0</ele><time>2026-05-01T13:22:16Z</time></trkpt><trkpt lat="44.43260149608786" lon="6.427041489205157"><ele>922.0</ele><time>2026-05-01T13:22:17Z</time></trkpt><trkpt lat="44.43278132307696" lon="6.426865548805852"><ele>922.0</ele><time>2026-05-01T13:22:18Z</time></trkpt><trkpt lat="44.43296511668714" lon="6.4266971514842295"><ele>922.0</ele><time>2026-05-01T13:22:19Z</time></trkpt><trkpt lat="44.433133029265136" lon="6.4265329556745"><ele>923.6666666666666</ele><time>2026-05-01T13:22:20Z</time></trkpt><trkpt lat="44.43329726741348" lon="6.426393183861923"><ele>925.3333333333333</ele><time>2026-05-01T13:22:21Z</time></trkpt><trkpt lat="44.433450148289346" lon="6.426255295067315"><ele>927.0</ele><time>2026-05-01T13:22:22Z</time></trkpt><trkpt lat="44.43359833960044" lon="6.426089914549625"><ele>927.0</ele><time>2026-05-01T13:22:23Z</time></trkpt><trkpt lat="44.43374490894188" lon="6.42588803445056"><ele>927.0</ele><time>2026-05-01T13:22:24Z</time></trkpt><trkpt lat="44.43387605381651" lon="6.425695025885637"><ele>927.0</ele><time>2026-05-01T13:22:25Z</time></trkpt><trkpt lat="44.43398913688691" lon="6.4254470445172345"><ele>923.3333333333333</ele><time>2026-05-01T13:22:26Z</time></trkpt><trkpt lat="44.434107056430875" lon="6.425241724929446"><ele>919.6666666666666</ele><time>2026-05-01T13:22:27Z</time></trkpt><trkpt lat="44.4341912660377" lon="6.425029015349127"><ele>916.0</ele><time>2026-05-01T13:22:28Z</time></trkpt><trkpt lat="44.43432467611402" lon="6.42480510153617"><ele>915.0</ele><time>2026-05-01T13:22:29Z</time></trkpt><trkpt lat="44.434469361563885" lon="6.42460874765385"><ele>914.0</ele><time>2026-05-01T13:22:30Z</time></trkpt><trkpt lat="44.434608328968686" lon="6.4244072949733715"><ele>913.0</ele><time>2026-05-01T13:22:31Z</time></trkpt><trkpt lat="44.43477089261603" lon="6.424269705942396"><ele>913.0</ele><time>2026-05-01T13:22:32Z</time></trkpt><trkpt lat="44.43494701884937" lon="6.424128403571439"><ele>913.0</ele><time>2026-05-01T13:22:33Z</time></trkpt><trkpt lat="44.43509999287895" lon="6.42394797199527"><ele>913.0</ele><time>2026-05-01T13:22:34Z</time></trkpt><trkpt lat="44.43525806670588" lon="6.423781888701569"><ele>913.6666666666666</ele><time>2026-05-01T13:22:35Z</time></trkpt><trkpt lat="44.43540187130727" lon="6.423619206350461"><ele>914.3333333333333</ele><time>2026-05-01T13:22:36Z</time></trkpt><trkpt lat="44.43554192942148" lon="6.423428674946124"><ele>915.0</ele><time>2026-05-01T13:22:37Z</time></trkpt><trkpt lat="44.435721287603364" lon="6.423300704675823"><ele>915.0</ele><time>2026-05-01T13:22:38Z</time></trkpt><trkpt lat="44.43590157243944" lon="6.423172739903955"><ele>915.0</ele><time>2026-05-01T13:22:39Z</time></trkpt><trkpt lat="44.43605271095693" lon="6.423054302508451"><ele>915.0</ele><time>2026-05-01T13:22:40Z</time></trkpt><trkpt lat="44.436175256829074" lon="6.422925531227383"><ele>911.3333333333333</ele><time>2026-05-01T13:22:41Z</time></trkpt><trkpt lat="44.43630366212857" lon="6.422778249323722"><ele>907.6666666666666</ele><time>2026-05-01T13:22:42Z</time></trkpt><trkpt lat="44.43639666951582" lon="6.422613614419113"><ele>904.0</ele><time>2026-05-01T13:22:43Z</time></trkpt><trkpt lat="44.43649111737633" lon="6.422392910097038"><ele>910.0</ele><time>2026-05-01T13:22:44Z</time></trkpt><trkpt lat="44.43653347477013" lon="6.422120515635624"><ele>916.0</ele><time>2026-05-01T13:22:45Z</time></trkpt><trkpt lat="44.4366285637048" lon="6.421928114770778"><ele>922.0</ele><time>2026-05-01T13:22:46Z</time></trkpt><trkpt lat="44.436714270546524" lon="6.42174338438146"><ele>922.0</ele><time>2026-05-01T13:22:47Z</time></trkpt><trkpt lat="44.43676843773083" lon="6.421524376172271"><ele>922.0</ele><time>2026-05-01T13:22:48Z</time></trkpt><trkpt lat="44.43684387843496" lon="6.421346047476817"><ele>922.0</ele><time>2026-05-01T13:22:49Z</time></trkpt><trkpt lat="44.43691901876084" lon="6.421168985273177"><ele>927.5</ele><time>2026-05-01T13:22:50Z</time></trkpt><trkpt lat="44.43700382217121" lon="6.4210002826504695"><ele>933.0</ele><time>2026-05-01T13:22:51Z</time></trkpt><trkpt lat="44.4370722195108" lon="6.420827917020585"><ele>938.5</ele><time>2026-05-01T13:22:52Z</time></trkpt><trkpt lat="44.437165131361645" lon="6.420682164799353"><ele>944.0</ele><time>2026-05-01T13:22:53Z</time></trkpt><trkpt lat="44.43720846268773" lon="6.420558652309564"><ele>944.2</ele><time>2026-05-01T13:22:54Z</time></trkpt><trkpt lat="44.43720493107811" lon="6.420395751765691"><ele>944.4000000000001</ele><time>2026-05-01T13:22:55Z</time></trkpt><trkpt lat="44.437212996115974" lon="6.420239633598122"><ele>944.6</ele><time>2026-05-01T13:22:56Z</time></trkpt><trkpt lat="44.43719429851363" lon="6.420108632730714"><ele>944.8</ele><time>2026-05-01T13:22:57Z</time></trkpt><trkpt lat="44.437162345810385" lon="6.419951211750917"><ele>945.0</ele><time>2026-05-01T13:22:58Z</time></trkpt><trkpt lat="44.4371011759559" lon="6.41978175679176"><ele>945.0</ele><time>2026-05-01T13:22:59Z</time></trkpt><trkpt lat="44.43710000172181" lon="6.419662926717256"><ele>945.0</ele><time>2026-05-01T13:23:00Z</time></trkpt><trkpt lat="44.437075842902594" lon="6.4195174754769475"><ele>945.0</ele><time>2026-05-01T13:23:01Z</time></trkpt><trkpt lat="44.43706979721284" lon="6.419347422508976"><ele>945.0</ele><time>2026-05-01T13:23:02Z</time></trkpt><trkpt lat="44.43707184835281" lon="6.41917235021853"><ele>945.0</ele><time>2026-05-01T13:23:03Z</time></trkpt><trkpt lat="44.43710575628273" lon="6.41898911576206"><ele>932.25</ele><time>2026-05-01T13:23:04Z</time></trkpt><trkpt lat="44.43714106645537" lon="6.418824513778548"><ele>919.5</ele><time>2026-05-01T13:23:05Z</time></trkpt><trkpt lat="44.43724011480766" lon="6.418654453613339"><ele>906.75</ele><time>2026-05-01T13:23:06Z</time></trkpt><trkpt lat="44.437293890982474" lon="6.418493986401981"><ele>894.0</ele><time>2026-05-01T13:23:07Z</time></trkpt><trkpt lat="44.43739432297288" lon="6.418381717492991"><ele>894.0</ele><time>2026-05-01T13:23:08Z</time></trkpt><trkpt lat="44.43750064026241" lon="6.418222251980795"><ele>894.0</ele><time>2026-05-01T13:23:09Z</time></trkpt><trkpt lat="44.43760067945057" lon="6.418044763387942"><ele>894.0</ele><time>2026-05-01T13:23:10Z</time></trkpt><trkpt lat="44.43772029287424" lon="6.4179138899027475"><ele>894.75</ele><time>2026-05-01T13:23:11Z</time></trkpt><trkpt lat="44.43781878218638" lon="6.417784606890603"><ele>895.5</ele><time>2026-05-01T13:23:12Z</time></trkpt><trkpt lat="44.43790010978822" lon="6.417681439107185"><ele>896.25</ele><time>2026-05-01T13:23:13Z</time></trkpt><trkpt lat="44.43800529560555" lon="6.417564378129823"><ele>897.0</ele><time>2026-05-01T13:23:14Z</time></trkpt><trkpt lat="44.43814202931058" lon="6.4173917962343925"><ele>897.0</ele><time>2026-05-01T13:23:15Z</time></trkpt><trkpt lat="44.43828926964432" lon="6.417206318072602"><ele>897.0</ele><time>2026-05-01T13:23:16Z</time></trkpt><trkpt lat="44.438474627702234" lon="6.416972879688452"><ele>897.0</ele><time>2026-05-01T13:23:17Z</time></trkpt><trkpt lat="44.43866124332139" lon="6.416745729452386"><ele>900.5</ele><time>2026-05-01T13:23:18Z</time></trkpt><trkpt lat="44.43890170851002" lon="6.416503159436601"><ele>904.0</ele><time>2026-05-01T13:23:19Z</time></trkpt><trkpt lat="44.43912755582129" lon="6.4162889761657445"><ele>903.3333333333333</ele><time>2026-05-01T13:23:20Z</time></trkpt><trkpt lat="44.43932296861052" lon="6.41610365546538"><ele>902.6666666666667</ele><time>2026-05-01T13:23:21Z</time></trkpt><trkpt lat="44.43949246792996" lon="6.415945176193727"><ele>902.0</ele><time>2026-05-01T13:23:22Z</time></trkpt><trkpt lat="44.43968059189165" lon="6.415769711401912"><ele>902.0</ele><time>2026-05-01T13:23:23Z</time></trkpt><trkpt lat="44.4398495913017" lon="6.415579916534156"><ele>902.0</ele><time>2026-05-01T13:23:24Z</time></trkpt><trkpt lat="44.44003906272839" lon="6.415359548832486"><ele>920.0</ele><time>2026-05-01T13:23:25Z</time></trkpt><trkpt lat="44.440225406067015" lon="6.415144614332754"><ele>938.0</ele><time>2026-05-01T13:23:26Z</time></trkpt><trkpt lat="44.44039378540437" lon="6.414957852308112"><ele>939.0</ele><time>2026-05-01T13:23:27Z</time></trkpt><trkpt lat="44.44057239473733" lon="6.414804234498315"><ele>940.0</ele><time>2026-05-01T13:23:28Z</time></trkpt><trkpt lat="44.44074857738217" lon="6.414665638338271"><ele>941.0</ele><time>2026-05-01T13:23:29Z</time></trkpt><trkpt lat="44.440939964121306" lon="6.414507442050592"><ele>941.0</ele><time>2026-05-01T13:23:30Z</time></trkpt><trkpt lat="44.4411157277763" lon="6.41432678399922"><ele>941.0</ele><time>2026-05-01T13:23:31Z</time></trkpt><trkpt lat="44.44125415995426" lon="6.41413343144475"><ele>941.0</ele><time>2026-05-01T13:23:32Z</time></trkpt><trkpt lat="44.44141908023736" lon="6.413911108330067"><ele>943.0</ele><time>2026-05-01T13:23:33Z</time></trkpt><trkpt lat="44.441597224672634" lon="6.413710538465564"><ele>945.0</ele><time>2026-05-01T13:23:34Z</time></trkpt><trkpt lat="44.441751087459714" lon="6.413496079633033"><ele>947.0</ele><time>2026-05-01T13:23:35Z</time></trkpt><trkpt lat="44.44194454304665" lon="6.413310798386046"><ele>947.0</ele><time>2026-05-01T13:23:36Z</time></trkpt><trkpt lat="44.442146827371936" lon="6.413128674589683"><ele>947.0</ele><time>2026-05-01T13:23:37Z</time></trkpt><trkpt lat="44.44235585445308" lon="6.412957631251019"><ele>947.0</ele><time>2026-05-01T13:23:38Z</time></trkpt><trkpt lat="44.44257155065076" lon="6.412784476805073"><ele>947.0</ele><time>2026-05-01T13:23:39Z</time></trkpt><trkpt lat="44.442773191557826" lon="6.412622605608904"><ele>947.0</ele><time>2026-05-01T13:23:40Z</time></trkpt><trkpt lat="44.44294827423603" lon="6.412479740191268"><ele>947.0</ele><time>2026-05-01T13:23:41Z</time></trkpt><trkpt lat="44.443125870123325" lon="6.4122797711506525"><ele>947.0</ele><time>2026-05-01T13:23:42Z</time></trkpt><trkpt lat="44.443283897695224" lon="6.412119742865287"><ele>950.0</ele><time>2026-05-01T13:23:43Z</time></trkpt><trkpt lat="44.44345348479302" lon="6.411945696251343"><ele>953.0</ele><time>2026-05-01T13:23:44Z</time></trkpt><trkpt lat="44.44363188060957" lon="6.41178420678735"><ele>956.0</ele><time>2026-05-01T13:23:45Z</time></trkpt><trkpt lat="44.44378547577047" lon="6.411673949827673"><ele>959.0</ele><time>2026-05-01T13:23:46Z</time></trkpt><trkpt lat="44.44397387838894" lon="6.4115343177010615"><ele>962.0</ele><time>2026-05-01T13:23:47Z</time></trkpt><trkpt lat="44.44419097302545" lon="6.411409981389648"><ele>965.0</ele><time>2026-05-01T13:23:48Z</time></trkpt><trkpt lat="44.44438139599282" lon="6.411281146311486"><ele>965.0</ele><time>2026-05-01T13:23:49Z</time></trkpt><trkpt lat="44.44458233518079" lon="6.41111597603245"><ele>965.0</ele><time>2026-05-01T13:23:50Z</time></trkpt><trkpt lat="44.4447627998584" lon="6.410967943909264"><ele>965.0</ele><time>2026-05-01T13:23:51Z</time></trkpt><trkpt lat="44.444944897624524" lon="6.410831176261848"><ele>965.3333333333334</ele><time>2026-05-01T13:23:52Z</time></trkpt><trkpt lat="44.44510709394276" lon="6.410704921944861"><ele>965.6666666666667</ele><time>2026-05-01T13:23:53Z</time></trkpt><trkpt lat="44.445242052907666" lon="6.410568651018382"><ele>966.0</ele><time>2026-05-01T13:23:54Z</time></trkpt><trkpt lat="44.445338193182174" lon="6.41041269232644"><ele>966.0</ele><time>2026-05-01T13:23:55Z</time></trkpt><trkpt lat="44.445395703387334" lon="6.410245290395247"><ele>966.0</ele><time>2026-05-01T13:23:56Z</time></trkpt><trkpt lat="44.445428558844554" lon="6.410073438625167"><ele>966.0</ele><time>2026-05-01T13:23:57Z</time></trkpt><trkpt lat="44.445448489398984" lon="6.409882346003575"><ele>966.0</ele><time>2026-05-01T13:23:58Z</time></trkpt><trkpt lat="44.44548423817313" lon="6.409588103591701"><ele>940.5</ele><time>2026-05-01T13:23:59Z</time></trkpt><trkpt lat="44.44551881561048" lon="6.40930334261562"><ele>915.0</ele><time>2026-05-01T13:24:00Z</time></trkpt><trkpt lat="44.44556158453676" lon="6.4089396877004265"><ele>919.3333333333333</ele><time>2026-05-01T13:24:01Z</time></trkpt><trkpt lat="44.445598027452604" lon="6.408651740315678"><ele>923.6666666666666</ele><time>2026-05-01T13:24:02Z</time></trkpt><trkpt lat="44.44563664871597" lon="6.408349510383241"><ele>928.0</ele><time>2026-05-01T13:24:03Z</time></trkpt><trkpt lat="44.445672887297654" lon="6.4080083695438015"><ele>931.0</ele><time>2026-05-01T13:24:04Z</time></trkpt><trkpt lat="44.445694701261026" lon="6.4076387596088304"><ele>934.0</ele><time>2026-05-01T13:24:05Z</time></trkpt><trkpt lat="44.4457051609006" lon="6.407265518405127"><ele>940.5</ele><time>2026-05-01T13:24:06Z</time></trkpt><trkpt lat="44.44571512891494" lon="6.406905017814843"><ele>947.0</ele><time>2026-05-01T13:24:07Z</time></trkpt><trkpt lat="44.44573414848114" lon="6.406578496962267"><ele>956.0</ele><time>2026-05-01T13:24:08Z</time></trkpt><trkpt lat="44.445823194108904" lon="6.406258820799961"><ele>965.0</ele><time>2026-05-01T13:24:09Z</time></trkpt><trkpt lat="44.44591947359794" lon="6.405952247641469"><ele>965.0</ele><time>2026-05-01T13:24:10Z</time></trkpt><trkpt lat="44.446018142545185" lon="6.405645457880928"><ele>965.0</ele><time>2026-05-01T13:24:11Z</time></trkpt><trkpt lat="44.4460972701754" lon="6.405340731517619"><ele>969.3333333333334</ele><time>2026-05-01T13:24:12Z</time></trkpt><trkpt lat="44.44613570816387" lon="6.405042043635995"><ele>973.6666666666667</ele><time>2026-05-01T13:24:13Z</time></trkpt><trkpt lat="44.44614642455719" lon="6.404744020564809"><ele>978.0</ele><time>2026-05-01T13:24:14Z</time></trkpt><trkpt lat="44.44619499012256" lon="6.404399235150816"><ele>984.5</ele><time>2026-05-01T13:24:15Z</time></trkpt><trkpt lat="44.44614580254849" lon="6.404044904332039"><ele>991.0</ele><time>2026-05-01T13:24:16Z</time></trkpt><trkpt lat="44.44623833398577" lon="6.40371313628335"><ele>971.0</ele><time>2026-05-01T13:24:17Z</time></trkpt><trkpt lat="44.44635569394679" lon="6.403391074141688"><ele>951.0</ele><time>2026-05-01T13:24:18Z</time></trkpt><trkpt lat="44.446416012377746" lon="6.403097388597597"><ele>957.0</ele><time>2026-05-01T13:24:19Z</time></trkpt><trkpt lat="44.44646574111279" lon="6.402804711126137"><ele>963.0</ele><time>2026-05-01T13:24:20Z</time></trkpt><trkpt lat="44.446571435562035" lon="6.402533849365548"><ele>969.0</ele><time>2026-05-01T13:24:21Z</time></trkpt><trkpt lat="44.446696754904025" lon="6.402282576110958"><ele>976.3333333333333</ele><time>2026-05-01T13:24:22Z</time></trkpt><trkpt lat="44.44678595064304" lon="6.402017187536767"><ele>983.6666666666666</ele><time>2026-05-01T13:24:23Z</time></trkpt><trkpt lat="44.44689125778997" lon="6.401772954156115"><ele>991.0</ele><time>2026-05-01T13:24:24Z</time></trkpt><trkpt lat="44.44698528597092" lon="6.401540999102017"><ele>995.0</ele><time>2026-05-01T13:24:25Z</time></trkpt><trkpt lat="44.44705569539375" lon="6.401279376643719"><ele>999.0</ele><time>2026-05-01T13:24:26Z</time></trkpt><trkpt lat="44.44708721241939" lon="6.400994534770988"><ele>1003.0</ele><time>2026-05-01T13:24:27Z</time></trkpt><trkpt lat="44.44713024771818" lon="6.400743488013097"><ele>984.0</ele><time>2026-05-01T13:24:28Z</time></trkpt><trkpt lat="44.44715859732839" lon="6.400504515482796"><ele>965.0</ele><time>2026-05-01T13:24:29Z</time></trkpt><trkpt lat="44.447172933443696" lon="6.400273811110331"><ele>946.0</ele><time>2026-05-01T13:24:30Z</time></trkpt><trkpt lat="44.44716791692508" lon="6.400029170056253"><ele>945.0</ele><time>2026-05-01T13:24:31Z</time></trkpt><trkpt lat="44.447161545423675" lon="6.399787079512537"><ele>944.0</ele><time>2026-05-01T13:24:32Z</time></trkpt><trkpt lat="44.44701550001627" lon="6.399538828893097"><ele>943.0</ele><time>2026-05-01T13:24:33Z</time></trkpt><trkpt lat="44.446944064762675" lon="6.399277668431872"><ele>957.3333333333333</ele><time>2026-05-01T13:24:34Z</time></trkpt><trkpt lat="44.44687600956472" lon="6.398963468468789"><ele>971.6666666666667</ele><time>2026-05-01T13:24:35Z</time></trkpt><trkpt lat="44.44678667135253" lon="6.398719289547805"><ele>986.0</ele><time>2026-05-01T13:24:36Z</time></trkpt><trkpt lat="44.446686358505865" lon="6.398445440113424"><ele>986.0</ele><time>2026-05-01T13:24:37Z</time></trkpt><trkpt lat="44.44662702044453" lon="6.398131350357435"><ele>986.0</ele><time>2026-05-01T13:24:38Z</time></trkpt><trkpt lat="44.44657747402388" lon="6.39780795534628"><ele>985.0</ele><time>2026-05-01T13:24:39Z</time></trkpt><trkpt lat="44.446547038641526" lon="6.39748919013569"><ele>984.0</ele><time>2026-05-01T13:24:40Z</time></trkpt><trkpt lat="44.44652104806027" lon="6.3972062589893754"><ele>983.0</ele><time>2026-05-01T13:24:41Z</time></trkpt><trkpt lat="44.44647109184273" lon="6.396950667330878"><ele>980.6666666666667</ele><time>2026-05-01T13:24:42Z</time></trkpt><trkpt lat="44.44640895803911" lon="6.3966708669343575"><ele>978.3333333333333</ele><time>2026-05-01T13:24:43Z</time></trkpt><trkpt lat="44.44628952345688" lon="6.396447346142448"><ele>976.0</ele><time>2026-05-01T13:24:44Z</time></trkpt><trkpt lat="44.44620918006952" lon="6.3961716156872255"><ele>991.6666666666666</ele><time>2026-05-01T13:24:45Z</time></trkpt><trkpt lat="44.446119284605686" lon="6.3959466086534045"><ele>1007.3333333333333</ele><time>2026-05-01T13:24:46Z</time></trkpt><trkpt lat="44.44610987529543" lon="6.395692491522576"><ele>1023.0</ele><time>2026-05-01T13:24:47Z</time></trkpt><trkpt lat="44.44608847596067" lon="6.39540412957667"><ele>1023.0</ele><time>2026-05-01T13:24:48Z</time></trkpt><trkpt lat="44.446068329961776" lon="6.395099393124349"><ele>1023.0</ele><time>2026-05-01T13:24:49Z</time></trkpt><trkpt lat="44.44605211756642" lon="6.394759537444404"><ele>1024.6666666666667</ele><time>2026-05-01T13:24:50Z</time></trkpt><trkpt lat="44.44605277938315" lon="6.394470243860698"><ele>1026.3333333333335</ele><time>2026-05-01T13:24:51Z</time></trkpt><trkpt lat="44.446099226652315" lon="6.3941807083094035"><ele>1028.0</ele><time>2026-05-01T13:24:52Z</time></trkpt><trkpt lat="44.44615466960757" lon="6.393941627710936"><ele>1027.3333333333335</ele><time>2026-05-01T13:24:53Z</time></trkpt><trkpt lat="44.446198520188176" lon="6.393682468158641"><ele>1026.6666666666667</ele><time>2026-05-01T13:24:54Z</time></trkpt><trkpt lat="44.446274256318965" lon="6.393469300714195"><ele>1026.0</ele><time>2026-05-01T13:24:55Z</time></trkpt><trkpt lat="44.446303940011404" lon="6.393260206958022"><ele>1022.25</ele><time>2026-05-01T13:24:56Z</time></trkpt><trkpt lat="44.446306452075184" lon="6.393049576223033"><ele>1018.5</ele><time>2026-05-01T13:24:57Z</time></trkpt><trkpt lat="44.44622408002601" lon="6.392914236418059"><ele>1014.75</ele><time>2026-05-01T13:24:58Z</time></trkpt><trkpt lat="44.44619167504539" lon="6.3927679277531855"><ele>1011.0</ele><time>2026-05-01T13:24:59Z</time></trkpt><trkpt lat="44.44614014821775" lon="6.392640408682412"><ele>1011.0</ele><time>2026-05-01T13:25:00Z</time></trkpt><trkpt lat="44.44602653161459" lon="6.392495104016079"><ele>1011.0</ele><time>2026-05-01T13:25:01Z</time></trkpt><trkpt lat="44.44582666400938" lon="6.392328605991262"><ele>1011.0</ele><time>2026-05-01T13:25:02Z</time></trkpt><trkpt lat="44.44562921575729" lon="6.392173473824651"><ele>1007.5</ele><time>2026-05-01T13:25:03Z</time></trkpt><trkpt lat="44.44542134613273" lon="6.3920052860212"><ele>1004.0</ele><time>2026-05-01T13:25:04Z</time></trkpt><trkpt lat="44.445051111633305" lon="6.392008131088256"><ele>1004.0</ele><time>2026-05-01T13:25:05Z</time></trkpt><trkpt lat="44.44485973533399" lon="6.391882045856794"><ele>1004.0</ele><time>2026-05-01T13:25:06Z</time></trkpt><trkpt lat="44.44465036863579" lon="6.3917688878438135"><ele>1004.0</ele><time>2026-05-01T13:25:07Z</time></trkpt><trkpt lat="44.44446219488482" lon="6.391676832992772"><ele>1010.3333333333334</ele><time>2026-05-01T13:25:08Z</time></trkpt><trkpt lat="44.44425782120721" lon="6.391633149882651"><ele>1016.6666666666667</ele><time>2026-05-01T13:25:09Z</time></trkpt><trkpt lat="44.44404161292923" lon="6.3915879572211605"><ele>1023.0</ele><time>2026-05-01T13:25:10Z</time></trkpt><trkpt lat="44.44382241010635" lon="6.391574505620452"><ele>1029.0</ele><time>2026-05-01T13:25:11Z</time></trkpt><trkpt lat="44.44361398004684" lon="6.391529961686533"><ele>1035.0</ele><time>2026-05-01T13:25:12Z</time></trkpt><trkpt lat="44.44343767359778" lon="6.391488140629637"><ele>1041.0</ele><time>2026-05-01T13:25:13Z</time></trkpt><trkpt lat="44.44327038822599" lon="6.391428175855973"><ele>1041.0</ele><time>2026-05-01T13:25:14Z</time></trkpt><trkpt lat="44.44313516881183" lon="6.39136392579336"><ele>1041.0</ele><time>2026-05-01T13:25:15Z</time></trkpt><trkpt lat="44.44304677543887" lon="6.391208104113268"><ele>1041.0</ele><time>2026-05-01T13:25:17Z</time></trkpt><trkpt lat="44.44314504037946" lon="6.390933632463275"><ele>1041.25</ele><time>2026-05-01T13:25:18Z</time></trkpt><trkpt lat="44.44329351677205" lon="6.390822992050674"><ele>1041.5</ele><time>2026-05-01T13:25:19Z</time></trkpt><trkpt lat="44.44335345081145" lon="6.390652909119398"><ele>1041.75</ele><time>2026-05-01T13:25:20Z</time></trkpt><trkpt lat="44.44339507926994" lon="6.390460559927217"><ele>1042.0</ele><time>2026-05-01T13:25:21Z</time></trkpt><trkpt lat="44.443574416612954" lon="6.390328159793867"><ele>1042.0</ele><time>2026-05-01T13:25:22Z</time></trkpt><trkpt lat="44.44359755319698" lon="6.39012939514574"><ele>1042.0</ele><time>2026-05-01T13:25:23Z</time></trkpt><trkpt lat="44.443590446459204" lon="6.389961031841651"><ele>1042.0</ele><time>2026-05-01T13:25:24Z</time></trkpt><trkpt lat="44.44352528156243" lon="6.3898305090509835"><ele>1042.0</ele><time>2026-05-01T13:25:25Z</time></trkpt><trkpt lat="44.44340625859058" lon="6.389747941018363"><ele>1042.25</ele><time>2026-05-01T13:25:26Z</time></trkpt><trkpt lat="44.443321201887784" lon="6.389653086116852"><ele>1042.5</ele><time>2026-05-01T13:25:27Z</time></trkpt><trkpt lat="44.44323630453345" lon="6.389531669879912"><ele>1042.75</ele><time>2026-05-01T13:25:28Z</time></trkpt><trkpt lat="44.44311526929802" lon="6.3894335484192055"><ele>1043.0</ele><time>2026-05-01T13:25:29Z</time></trkpt><trkpt lat="44.44311344699097" lon="6.389273330943695"><ele>1043.0</ele><time>2026-05-01T13:25:30Z</time></trkpt><trkpt lat="44.443138919180235" lon="6.389111179277103"><ele>1043.0</ele><time>2026-05-01T13:25:31Z</time></trkpt><trkpt lat="44.44323211722031" lon="6.389038553621605"><ele>1043.0</ele><time>2026-05-01T13:25:32Z</time></trkpt><trkpt lat="44.443325606971804" lon="6.388864535996507"><ele>1043.0</ele><time>2026-05-01T13:25:33Z</time></trkpt><trkpt lat="44.44347725509911" lon="6.38860259509385"><ele>1041.25</ele><time>2026-05-01T13:25:34Z</time></trkpt><trkpt lat="44.44357028906014" lon="6.38849471782486"><ele>1039.5</ele><time>2026-05-01T13:25:35Z</time></trkpt><trkpt lat="44.44368880866543" lon="6.388400794948463"><ele>1037.75</ele><time>2026-05-01T13:25:36Z</time></trkpt><trkpt lat="44.443820781531635" lon="6.388354608417619"><ele>1036.0</ele><time>2026-05-01T13:25:37Z</time></trkpt><trkpt lat="44.444003219161246" lon="6.388291029095071"><ele>1036.0</ele><time>2026-05-01T13:25:38Z</time></trkpt><trkpt lat="44.44416271837043" lon="6.388238853159197"><ele>1036.0</ele><time>2026-05-01T13:25:39Z</time></trkpt><trkpt lat="44.4442911410967" lon="6.388182731129034"><ele>1036.0</ele><time>2026-05-01T13:25:40Z</time></trkpt><trkpt lat="44.44439953174785" lon="6.388084912310964"><ele>1036.0</ele><time>2026-05-01T13:25:41Z</time></trkpt><trkpt lat="44.44449985760969" lon="6.3879871484750295"><ele>1041.75</ele><time>2026-05-01T13:25:42Z</time></trkpt><trkpt lat="44.44455724018702" lon="6.387834331742811"><ele>1047.5</ele><time>2026-05-01T13:25:43Z</time></trkpt><trkpt lat="44.44460348635036" lon="6.3876873540002705"><ele>1053.25</ele><time>2026-05-01T13:25:44Z</time></trkpt><trkpt lat="44.444585307100894" lon="6.387511286250591"><ele>1059.0</ele><time>2026-05-01T13:25:45Z</time></trkpt><trkpt lat="44.44455768437523" lon="6.387376531803527"><ele>1060.6666666666667</ele><time>2026-05-01T13:25:46Z</time></trkpt><trkpt lat="44.44450942725386" lon="6.3870825606936625"><ele>1062.3333333333335</ele><time>2026-05-01T13:25:47Z</time></trkpt><trkpt lat="44.44449070874961" lon="6.386844256652477"><ele>1064.0</ele><time>2026-05-01T13:25:48Z</time></trkpt><trkpt lat="44.44443097618018" lon="6.386429186364058"><ele>1063.5</ele><time>2026-05-01T13:25:49Z</time></trkpt><trkpt lat="44.444368265336855" lon="6.386118977433784"><ele>1063.0</ele><time>2026-05-01T13:25:50Z</time></trkpt><trkpt lat="44.44429513681426" lon="6.385752666465518"><ele>1061.5</ele><time>2026-05-01T13:25:51Z</time></trkpt><trkpt lat="44.444202662498306" lon="6.385342959688641"><ele>1060.0</ele><time>2026-05-01T13:25:52Z</time></trkpt><trkpt lat="44.444121934316115" lon="6.384977846178864"><ele>1058.5</ele><time>2026-05-01T13:25:53Z</time></trkpt><trkpt lat="44.44402695953958" lon="6.38461852761037"><ele>1057.0</ele><time>2026-05-01T13:25:54Z</time></trkpt><trkpt lat="44.44394977530643" lon="6.38427236346603"><ele>1057.0</ele><time>2026-05-01T13:25:55Z</time></trkpt><trkpt lat="44.44387754338908" lon="6.38390734870664"><ele>1057.0</ele><time>2026-05-01T13:25:56Z</time></trkpt><trkpt lat="44.44377770655896" lon="6.383562869907861"><ele>1072.5</ele><time>2026-05-01T13:25:57Z</time></trkpt><trkpt lat="44.443714071366806" lon="6.383210265390649"><ele>1088.0</ele><time>2026-05-01T13:25:58Z</time></trkpt><trkpt lat="44.44365311146656" lon="6.382869884728502"><ele>1088.0</ele><time>2026-05-01T13:25:59Z</time></trkpt><trkpt lat="44.44355355635891" lon="6.382579105234896"><ele>1088.0</ele><time>2026-05-01T13:26:00Z</time></trkpt><trkpt lat="44.44358409207285" lon="6.382260783327148"><ele>1086.3333333333335</ele><time>2026-05-01T13:26:01Z</time></trkpt><trkpt lat="44.443544832993894" lon="6.3820285022444745"><ele>1084.6666666666667</ele><time>2026-05-01T13:26:02Z</time></trkpt><trkpt lat="44.44346872388707" lon="6.381797633912742"><ele>1083.0</ele><time>2026-05-01T13:26:03Z</time></trkpt><trkpt lat="44.44346388701112" lon="6.381537442330061"><ele>1089.3333333333333</ele><time>2026-05-01T13:26:04Z</time></trkpt><trkpt lat="44.443452286206764" lon="6.38133754152063"><ele>1095.6666666666665</ele><time>2026-05-01T13:26:05Z</time></trkpt><trkpt lat="44.44363948485832" lon="6.381145054937396"><ele>1102.0</ele><time>2026-05-01T13:26:06Z</time></trkpt><trkpt lat="44.44377254531389" lon="6.380994171834885"><ele>1099.3333333333333</ele><time>2026-05-01T13:26:07Z</time></trkpt><trkpt lat="44.443881363406355" lon="6.380806269933735"><ele>1096.6666666666667</ele><time>2026-05-01T13:26:08Z</time></trkpt><trkpt lat="44.44399600835805" lon="6.380610538670311"><ele>1094.0</ele><time>2026-05-01T13:26:09Z</time></trkpt><trkpt lat="44.44412842133718" lon="6.38038531151258"><ele>1094.0</ele><time>2026-05-01T13:26:10Z</time></trkpt><trkpt lat="44.4443100144184" lon="6.380075726938477"><ele>1094.0</ele><time>2026-05-01T13:26:11Z</time></trkpt><trkpt lat="44.44446524708786" lon="6.37981037542066"><ele>1091.0</ele><time>2026-05-01T13:26:12Z</time></trkpt><trkpt lat="44.444633167864744" lon="6.379542685965763"><ele>1088.0</ele><time>2026-05-01T13:26:13Z</time></trkpt><trkpt lat="44.444814993237436" lon="6.379297124105989"><ele>1088.0</ele><time>2026-05-01T13:26:14Z</time></trkpt><trkpt lat="44.44499681457493" lon="6.379091247244928"><ele>1088.0</ele><time>2026-05-01T13:26:15Z</time></trkpt><trkpt lat="44.445200359035226" lon="6.378894088304207"><ele>1093.0</ele><time>2026-05-01T13:26:16Z</time></trkpt><trkpt lat="44.44539559054942" lon="6.3787319346936675"><ele>1098.0</ele><time>2026-05-01T13:26:17Z</time></trkpt><trkpt lat="44.44560722720651" lon="6.378586587076411"><ele>1098.0</ele><time>2026-05-01T13:26:18Z</time></trkpt><trkpt lat="44.44585299152209" lon="6.3784478203911075"><ele>1098.0</ele><time>2026-05-01T13:26:19Z</time></trkpt><trkpt lat="44.446142380009825" lon="6.378283825433829"><ele>1104.0</ele><time>2026-05-01T13:26:20Z</time></trkpt><trkpt lat="44.44641127989559" lon="6.378065451862888"><ele>1110.0</ele><time>2026-05-01T13:26:21Z</time></trkpt><trkpt lat="44.44663554608443" lon="6.377872803570479"><ele>1110.0</ele><time>2026-05-01T13:26:22Z</time></trkpt><trkpt lat="44.44686435044095" lon="6.377634832678967"><ele>1110.0</ele><time>2026-05-01T13:26:23Z</time></trkpt><trkpt lat="44.44708023647341" lon="6.377443575007473"><ele>1103.3333333333333</ele><time>2026-05-01T13:26:24Z</time></trkpt><trkpt lat="44.44728128705107" lon="6.377282218605003"><ele>1096.6666666666665</ele><time>2026-05-01T13:26:25Z</time></trkpt><trkpt lat="44.44746622531708" lon="6.377214084695556"><ele>1090.0</ele><time>2026-05-01T13:26:26Z</time></trkpt><trkpt lat="44.44767984702387" lon="6.377144100023434"><ele>1106.0</ele><time>2026-05-01T13:26:27Z</time></trkpt><trkpt lat="44.44790382667533" lon="6.37707792039931"><ele>1122.0</ele><time>2026-05-01T13:26:28Z</time></trkpt><trkpt lat="44.44813308641322" lon="6.377012973576798"><ele>1122.0</ele><time>2026-05-01T13:26:29Z</time></trkpt><trkpt lat="44.44836245438686" lon="6.376943684040515"><ele>1122.0</ele><time>2026-05-01T13:26:30Z</time></trkpt><trkpt lat="44.448585805033154" lon="6.376881223741679"><ele>1115.6666666666667</ele><time>2026-05-01T13:26:31Z</time></trkpt><trkpt lat="44.448827985880676" lon="6.376818210182906"><ele>1109.3333333333335</ele><time>2026-05-01T13:26:32Z</time></trkpt><trkpt lat="44.44901073143736" lon="6.376756402257389"><ele>1103.0</ele><time>2026-05-01T13:26:33Z</time></trkpt><trkpt lat="44.449272234206205" lon="6.376687270186753"><ele>1103.0</ele><time>2026-05-01T13:26:34Z</time></trkpt><trkpt lat="44.449448953536915" lon="6.376620518788974"><ele>1103.0</ele><time>2026-05-01T13:26:35Z</time></trkpt><trkpt lat="44.44964069479817" lon="6.376548613957667"><ele>1103.0</ele><time>2026-05-01T13:26:36Z</time></trkpt><trkpt lat="44.449838159701116" lon="6.376488884534678"><ele>1099.3333333333335</ele><time>2026-05-01T13:26:37Z</time></trkpt><trkpt lat="44.45004654505273" lon="6.376419904090135"><ele>1095.6666666666667</ele><time>2026-05-01T13:26:38Z</time></trkpt><trkpt lat="44.45022863369462" lon="6.376214617707833"><ele>1092.0</ele><time>2026-05-01T13:26:39Z</time></trkpt><trkpt lat="44.45043958600804" lon="6.376111819771407"><ele>1101.0</ele><time>2026-05-01T13:26:40Z</time></trkpt><trkpt lat="44.45062696390454" lon="6.376016593557402"><ele>1110.0</ele><time>2026-05-01T13:26:41Z</time></trkpt><trkpt lat="44.45080383138811" lon="6.375917106095663"><ele>1119.0</ele><time>2026-05-01T13:26:42Z</time></trkpt><trkpt lat="44.450978998313005" lon="6.375838987842529"><ele>1119.0</ele><time>2026-05-01T13:26:43Z</time></trkpt><trkpt lat="44.45114253013467" lon="6.3758094591199095"><ele>1119.0</ele><time>2026-05-01T13:26:44Z</time></trkpt><trkpt lat="44.451306582416485" lon="6.3757700651802764"><ele>1119.0</ele><time>2026-05-01T13:26:45Z</time></trkpt><trkpt lat="44.45144219316796" lon="6.37573355329127"><ele>1117.0</ele><time>2026-05-01T13:26:46Z</time></trkpt><trkpt lat="44.451512488798976" lon="6.375677304329488"><ele>1115.0</ele><time>2026-05-01T13:26:47Z</time></trkpt><trkpt lat="44.451611521432575" lon="6.375643588901297"><ele>1113.0</ele><time>2026-05-01T13:26:48Z</time></trkpt><trkpt lat="44.451712924103916" lon="6.375618141433544"><ele>1111.0</ele><time>2026-05-01T13:26:49Z</time></trkpt><trkpt lat="44.45180181960544" lon="6.375524667925321"><ele>1109.0</ele><time>2026-05-01T13:26:50Z</time></trkpt><trkpt lat="44.4518702170723" lon="6.375431138223925"><ele>1117.5</ele><time>2026-05-01T13:26:51Z</time></trkpt><trkpt lat="44.45193898097331" lon="6.375328643602517"><ele>1126.0</ele><time>2026-05-01T13:26:52Z</time></trkpt><trkpt lat="44.45197101343198" lon="6.37515817892136"><ele>1134.5</ele><time>2026-05-01T13:26:53Z</time></trkpt><trkpt lat="44.452037616936565" lon="6.375011156325276"><ele>1143.0</ele><time>2026-05-01T13:26:54Z</time></trkpt><trkpt lat="44.452099574439416" lon="6.374866280005035"><ele>1133.4</ele><time>2026-05-01T13:26:55Z</time></trkpt><trkpt lat="44.45215140816214" lon="6.374755972860505"><ele>1123.8</ele><time>2026-05-01T13:26:56Z</time></trkpt><trkpt lat="44.452191233951105" lon="6.374659279343832"><ele>1114.2</ele><time>2026-05-01T13:26:57Z</time></trkpt><trkpt lat="44.45226257084408" lon="6.374524170951494"><ele>1104.6</ele><time>2026-05-01T13:26:59Z</time></trkpt><trkpt lat="44.45231485932545" lon="6.374427507375722"><ele>1095.0</ele><time>2026-05-01T13:27:01Z</time></trkpt><trkpt lat="44.45232212880437" lon="6.3742838334590415"><ele>1095.0</ele><time>2026-05-01T13:27:03Z</time></trkpt><trkpt lat="44.45233335515663" lon="6.374186668656718"><ele>1095.0</ele><time>2026-05-01T13:27:05Z</time></trkpt><trkpt lat="44.452285127331415" lon="6.374102050921978"><ele>1095.0</ele><time>2026-05-01T13:27:08Z</time></trkpt><trkpt lat="44.452285127331415" lon="6.374102050921978"><ele>1095.0</ele><time>2026-05-01T13:27:08Z</time></trkpt></trkseg><trkseg><trkpt lat="44.45227149545404" lon="6.374048863330301"><ele>1095.0</ele><time>2026-05-01T13:42:37.001Z</time></trkpt><trkpt lat="44.452256621985725" lon="6.37395703665135"><ele>1095.0</ele><time>2026-05-01T13:42:39.001Z</time></trkpt><trkpt lat="44.452241711167396" lon="6.374107193916939"><ele>1095.0</ele><time>2026-05-01T13:42:43.001Z</time></trkpt><trkpt lat="44.452250315468106" lon="6.3741976238045295"><ele>1095.0</ele><time>2026-05-01T13:42:44.001Z</time></trkpt><trkpt lat="44.45223512677269" lon="6.374316416529391"><ele>1095.0</ele><time>2026-05-01T13:42:45.001Z</time></trkpt><trkpt lat="44.45219879678276" lon="6.374419488644694"><ele>1095.0</ele><time>2026-05-01T13:42:46.001Z</time></trkpt><trkpt lat="44.452175139473574" lon="6.374506656426556"><ele>1095.0</ele><time>2026-05-01T13:42:47.001Z</time></trkpt><trkpt lat="44.45213199470604" lon="6.374593204258676"><ele>1095.0</ele><time>2026-05-01T13:42:48.001Z</time></trkpt><trkpt lat="44.452066514294266" lon="6.374744482738866"><ele>1095.0</ele><time>2026-05-01T13:42:50.001Z</time></trkpt><trkpt lat="44.45202882832182" lon="6.374828703442418"><ele>1095.0</ele><time>2026-05-01T13:42:51Z</time></trkpt><trkpt lat="44.45198951324932" lon="6.37491755782583"><ele>1095.0</ele><time>2026-05-01T13:42:52Z</time></trkpt><trkpt lat="44.45195099161894" lon="6.375005116125585"><ele>1095.0</ele><time>2026-05-01T13:42:53Z</time></trkpt><trkpt lat="44.45190691125209" lon="6.375105716844644"><ele>1097.3333333333333</ele><time>2026-05-01T13:42:54Z</time></trkpt><trkpt lat="44.451865754276234" lon="6.37519088561886"><ele>1099.6666666666667</ele><time>2026-05-01T13:42:55Z</time></trkpt><trkpt lat="44.451805657961124" lon="6.3752977730570635"><ele>1102.0</ele><time>2026-05-01T13:42:56Z</time></trkpt><trkpt lat="44.45174880764246" lon="6.375381665454759"><ele>1104.3333333333335</ele><time>2026-05-01T13:42:57Z</time></trkpt><trkpt lat="44.45168236760242" lon="6.375459294637124"><ele>1106.6666666666667</ele><time>2026-05-01T13:42:58Z</time></trkpt><trkpt lat="44.451604507828606" lon="6.375534080983287"><ele>1109.0</ele><time>2026-05-01T13:42:59Z</time></trkpt><trkpt lat="44.45151441369449" lon="6.375598295010962"><ele>1109.0</ele><time>2026-05-01T13:43:00Z</time></trkpt><trkpt lat="44.45140519941255" lon="6.375657120218919"><ele>1109.0</ele><time>2026-05-01T13:43:01Z</time></trkpt><trkpt lat="44.45131390506427" lon="6.375690865344852"><ele>1109.0</ele><time>2026-05-01T13:43:02Z</time></trkpt><trkpt lat="44.451204399727345" lon="6.375724697740598"><ele>1109.0</ele><time>2026-05-01T13:43:03Z</time></trkpt><trkpt lat="44.45110867005758" lon="6.3757528480717385"><ele>1109.0</ele><time>2026-05-01T13:43:04Z</time></trkpt><trkpt lat="44.450975498046624" lon="6.3757926018542985"><ele>1111.5</ele><time>2026-05-01T13:43:05Z</time></trkpt><trkpt lat="44.450837976918194" lon="6.375861106669653"><ele>1114.0</ele><time>2026-05-01T13:43:06Z</time></trkpt><trkpt lat="44.45068541085222" lon="6.375893369249824"><ele>1116.5</ele><time>2026-05-01T13:43:07Z</time></trkpt><trkpt lat="44.45056041400344" lon="6.375979730347015"><ele>1119.0</ele><time>2026-05-01T13:43:08Z</time></trkpt><trkpt lat="44.45043844678919" lon="6.376051444074644"><ele>1126.0</ele><time>2026-05-01T13:43:09Z</time></trkpt><trkpt lat="44.45029149327887" lon="6.376130765506149"><ele>1133.0</ele><time>2026-05-01T13:43:10Z</time></trkpt><trkpt lat="44.45014670346802" lon="6.376222021674954"><ele>1140.0</ele><time>2026-05-01T13:43:11Z</time></trkpt><trkpt lat="44.44999495801494" lon="6.376308524910778"><ele>1127.6666666666667</ele><time>2026-05-01T13:43:12Z</time></trkpt><trkpt lat="44.44983336403203" lon="6.376388052209011"><ele>1115.3333333333335</ele><time>2026-05-01T13:43:13Z</time></trkpt><trkpt lat="44.44968188801807" lon="6.376482227735283"><ele>1103.0</ele><time>2026-05-01T13:43:14Z</time></trkpt><trkpt lat="44.449516555836766" lon="6.376567138211465"><ele>1103.0</ele><time>2026-05-01T13:43:15Z</time></trkpt><trkpt lat="44.44932334673881" lon="6.376622251469586"><ele>1103.0</ele><time>2026-05-01T13:43:16Z</time></trkpt><trkpt lat="44.449140798990086" lon="6.376672145792091"><ele>1103.0</ele><time>2026-05-01T13:43:17Z</time></trkpt><trkpt lat="44.448944910792235" lon="6.376722011061908"><ele>1109.3333333333335</ele><time>2026-05-01T13:43:18Z</time></trkpt><trkpt lat="44.44875979751426" lon="6.376791325347295"><ele>1115.6666666666667</ele><time>2026-05-01T13:43:19Z</time></trkpt><trkpt lat="44.44856508119667" lon="6.3768484796130025"><ele>1122.0</ele><time>2026-05-01T13:43:20Z</time></trkpt><trkpt lat="44.44836299968465" lon="6.376902472224284"><ele>1122.0</ele><time>2026-05-01T13:43:21Z</time></trkpt><trkpt lat="44.44815845731475" lon="6.376977620328326"><ele>1122.0</ele><time>2026-05-01T13:43:22Z</time></trkpt><trkpt lat="44.44795229225747" lon="6.377038988965837"><ele>1122.0</ele><time>2026-05-01T13:43:23Z</time></trkpt><trkpt lat="44.447744480442346" lon="6.377077500415027"><ele>1125.0</ele><time>2026-05-01T13:43:24Z</time></trkpt><trkpt lat="44.447560500961345" lon="6.377131861065292"><ele>1128.0</ele><time>2026-05-01T13:43:25Z</time></trkpt><trkpt lat="44.447375090099094" lon="6.37722720553553"><ele>1131.0</ele><time>2026-05-01T13:43:26Z</time></trkpt><trkpt lat="44.447185802544666" lon="6.377314131070593"><ele>1124.0</ele><time>2026-05-01T13:43:27Z</time></trkpt><trkpt lat="44.447010363860706" lon="6.377446653648227"><ele>1117.0</ele><time>2026-05-01T13:43:28Z</time></trkpt><trkpt lat="44.446832146432165" lon="6.377615218150559"><ele>1110.0</ele><time>2026-05-01T13:43:29Z</time></trkpt><trkpt lat="44.446649198313814" lon="6.377787630115781"><ele>1110.0</ele><time>2026-05-01T13:43:30Z</time></trkpt><trkpt lat="44.4464643223909" lon="6.377961858858157"><ele>1110.0</ele><time>2026-05-01T13:43:31Z</time></trkpt><trkpt lat="44.44629024953042" lon="6.378122604557338"><ele>1110.0</ele><time>2026-05-01T13:43:32Z</time></trkpt><trkpt lat="44.44611574430087" lon="6.378249387820507"><ele>1106.0</ele><time>2026-05-01T13:43:33Z</time></trkpt><trkpt lat="44.445906731931174" lon="6.3783681127638605"><ele>1102.0</ele><time>2026-05-01T13:43:34Z</time></trkpt><trkpt lat="44.445705132561194" lon="6.3784801476803805"><ele>1098.0</ele><time>2026-05-01T13:43:35Z</time></trkpt><trkpt lat="44.44551129034922" lon="6.378598610022003"><ele>1094.6666666666667</ele><time>2026-05-01T13:43:36Z</time></trkpt><trkpt lat="44.44531566816618" lon="6.3787401781036195"><ele>1091.3333333333335</ele><time>2026-05-01T13:43:37Z</time></trkpt><trkpt lat="44.44513396662573" lon="6.378900358031575"><ele>1088.0</ele><time>2026-05-01T13:43:38Z</time></trkpt><trkpt lat="44.44496716577559" lon="6.379065195986641"><ele>1088.0</ele><time>2026-05-01T13:43:39Z</time></trkpt><trkpt lat="44.44479103291066" lon="6.379264945716406"><ele>1088.0</ele><time>2026-05-01T13:43:40Z</time></trkpt><trkpt lat="44.44462097450624" lon="6.3794927696548696"><ele>1091.0</ele><time>2026-05-01T13:43:41Z</time></trkpt><trkpt lat="44.44445808077198" lon="6.379749152938524"><ele>1094.0</ele><time>2026-05-01T13:43:42Z</time></trkpt><trkpt lat="44.44427639990157" lon="6.380059714510109"><ele>1094.0</ele><time>2026-05-01T13:43:43Z</time></trkpt><trkpt lat="44.44414854726545" lon="6.380312813239764"><ele>1094.0</ele><time>2026-05-01T13:43:44Z</time></trkpt><trkpt lat="44.44400912841445" lon="6.38053829308245"><ele>1094.0</ele><time>2026-05-01T13:43:45Z</time></trkpt><trkpt lat="44.44386231112581" lon="6.380768657240955"><ele>1096.6666666666667</ele><time>2026-05-01T13:43:46Z</time></trkpt><trkpt lat="44.44373244898763" lon="6.381002357061159"><ele>1099.3333333333333</ele><time>2026-05-01T13:43:47Z</time></trkpt><trkpt lat="44.44359818179474" lon="6.381228086871203"><ele>1102.0</ele><time>2026-05-01T13:43:48Z</time></trkpt><trkpt lat="44.443479528888176" lon="6.381476412970685"><ele>1097.25</ele><time>2026-05-01T13:43:49Z</time></trkpt><trkpt lat="44.44338138577303" lon="6.381604759702179"><ele>1092.5</ele><time>2026-05-01T13:43:50Z</time></trkpt><trkpt lat="44.4433205161538" lon="6.381753680835006"><ele>1087.75</ele><time>2026-05-01T13:43:51Z</time></trkpt><trkpt lat="44.44329159187402" lon="6.381943832398296"><ele>1083.0</ele><time>2026-05-01T13:43:52Z</time></trkpt><trkpt lat="44.44353307645012" lon="6.382161920385878"><ele>1084.6666666666667</ele><time>2026-05-01T13:43:53Z</time></trkpt><trkpt lat="44.443576914769075" lon="6.38240501369585"><ele>1086.3333333333335</ele><time>2026-05-01T13:43:54Z</time></trkpt><trkpt lat="44.4436164900226" lon="6.382658334791969"><ele>1088.0</ele><time>2026-05-01T13:43:55Z</time></trkpt><trkpt lat="44.4436412767396" lon="6.382951682695194"><ele>1088.5</ele><time>2026-05-01T13:43:56Z</time></trkpt><trkpt lat="44.443684861199394" lon="6.383280882021826"><ele>1089.0</ele><time>2026-05-01T13:43:57Z</time></trkpt><trkpt lat="44.44372911684496" lon="6.383618195018997"><ele>1089.0</ele><time>2026-05-01T13:43:58Z</time></trkpt><trkpt lat="44.44377835850683" lon="6.383938600881564"><ele>1089.0</ele><time>2026-05-01T13:43:59Z</time></trkpt><trkpt lat="44.44384395756974" lon="6.384250351185486"><ele>1079.3333333333333</ele><time>2026-05-01T13:44:00Z</time></trkpt><trkpt lat="44.44389901741131" lon="6.384554268620417"><ele>1069.6666666666665</ele><time>2026-05-01T13:44:01Z</time></trkpt><trkpt lat="44.44395335975949" lon="6.3848519002825"><ele>1060.0</ele><time>2026-05-01T13:44:02Z</time></trkpt><trkpt lat="44.4440251238023" lon="6.385177507869077"><ele>1060.0</ele><time>2026-05-01T13:44:03Z</time></trkpt><trkpt lat="44.444088581571755" lon="6.3854879993376334"><ele>1060.0</ele><time>2026-05-01T13:44:04Z</time></trkpt><trkpt lat="44.44415364070669" lon="6.385801682615484"><ele>1061.5</ele><time>2026-05-01T13:44:05Z</time></trkpt><trkpt lat="44.44421528077021" lon="6.386109373035014"><ele>1063.0</ele><time>2026-05-01T13:44:06Z</time></trkpt><trkpt lat="44.444282037944056" lon="6.386415868029464"><ele>1063.3333333333333</ele><time>2026-05-01T13:44:07Z</time></trkpt><trkpt lat="44.44432044871336" lon="6.3867071880341255"><ele>1063.6666666666667</ele><time>2026-05-01T13:44:08Z</time></trkpt><trkpt lat="44.44436305749239" lon="6.386982183324418"><ele>1064.0</ele><time>2026-05-01T13:44:09Z</time></trkpt><trkpt lat="44.444426950985815" lon="6.387238949853858"><ele>1062.75</ele><time>2026-05-01T13:44:10Z</time></trkpt><trkpt lat="44.44446636487967" lon="6.387480529994393"><ele>1061.5</ele><time>2026-05-01T13:44:11Z</time></trkpt><trkpt lat="44.44450111451739" lon="6.387704339178179"><ele>1060.25</ele><time>2026-05-01T13:44:12Z</time></trkpt><trkpt lat="44.44448739630278" lon="6.387825094387887"><ele>1059.0</ele><time>2026-05-01T13:44:13Z</time></trkpt><trkpt lat="44.44445798727329" lon="6.3879312743236"><ele>1053.25</ele><time>2026-05-01T13:44:14Z</time></trkpt><trkpt lat="44.444336196349006" lon="6.388087046604769"><ele>1047.5</ele><time>2026-05-01T13:44:15Z</time></trkpt><trkpt lat="44.444268187654615" lon="6.38816584333979"><ele>1041.75</ele><time>2026-05-01T13:44:16Z</time></trkpt><trkpt lat="44.44417355278268" lon="6.3881903374890125"><ele>1036.0</ele><time>2026-05-01T13:44:17Z</time></trkpt><trkpt lat="44.44406778229668" lon="6.388222405291236"><ele>1036.0</ele><time>2026-05-01T13:44:18Z</time></trkpt><trkpt lat="44.44392454971493" lon="6.38826912967084"><ele>1036.0</ele><time>2026-05-01T13:44:19Z</time></trkpt><trkpt lat="44.44375405463275" lon="6.388333918586505"><ele>1036.0</ele><time>2026-05-01T13:44:20Z</time></trkpt><trkpt lat="44.44361476585637" lon="6.388428575992621"><ele>1037.75</ele><time>2026-05-01T13:44:21Z</time></trkpt><trkpt lat="44.4434795695083" lon="6.388509824694606"><ele>1039.5</ele><time>2026-05-01T13:44:22Z</time></trkpt><trkpt lat="44.443390096812415" lon="6.388617811639614"><ele>1041.25</ele><time>2026-05-01T13:44:23Z</time></trkpt><trkpt lat="44.44328778224149" lon="6.388741423292853"><ele>1043.0</ele><time>2026-05-01T13:44:24Z</time></trkpt><trkpt lat="44.443190837221486" lon="6.388901543543461"><ele>1043.0</ele><time>2026-05-01T13:44:25Z</time></trkpt><trkpt lat="44.443086189249065" lon="6.389102628510728"><ele>1043.0</ele><time>2026-05-01T13:44:26Z</time></trkpt><trkpt lat="44.44301842457486" lon="6.389274735042212"><ele>1043.0</ele><time>2026-05-01T13:44:27Z</time></trkpt><trkpt lat="44.44300606944104" lon="6.38942741356634"><ele>1043.0</ele><time>2026-05-01T13:44:28Z</time></trkpt><trkpt lat="44.44301378629176" lon="6.389518421772168"><ele>1043.0</ele><time>2026-05-01T13:44:29Z</time></trkpt><trkpt lat="44.44305518951167" lon="6.389610131843522"><ele>1043.0</ele><time>2026-05-01T13:44:30Z</time></trkpt><trkpt lat="44.44307995168533" lon="6.389695393409187"><ele>1043.0</ele><time>2026-05-01T13:44:31Z</time></trkpt><trkpt lat="44.44317706934321" lon="6.389765555769655"><ele>1043.0</ele><time>2026-05-01T13:44:32Z</time></trkpt><trkpt lat="44.44343748585594" lon="6.389937352891686"><ele>1042.75</ele><time>2026-05-01T13:44:33Z</time></trkpt><trkpt lat="44.44349788852544" lon="6.390117250094117"><ele>1042.5</ele><time>2026-05-01T13:44:34Z</time></trkpt><trkpt lat="44.44349899389038" lon="6.39029407386761"><ele>1042.25</ele><time>2026-05-01T13:44:35Z</time></trkpt><trkpt lat="44.443477954498704" lon="6.390486160035077"><ele>1042.0</ele><time>2026-05-01T13:44:36Z</time></trkpt><trkpt lat="44.44340189323302" lon="6.3906427497087535"><ele>1040.0</ele><time>2026-05-01T13:44:37Z</time></trkpt><trkpt lat="44.44334920395701" lon="6.39078072568432"><ele>1038.0</ele><time>2026-05-01T13:44:38Z</time></trkpt><trkpt lat="44.443244679274976" lon="6.390982943016342"><ele>1036.0</ele><time>2026-05-01T13:44:39Z</time></trkpt><trkpt lat="44.44321055416287" lon="6.39120738937505"><ele>1037.0</ele><time>2026-05-01T13:44:40Z</time></trkpt><trkpt lat="44.44322660886229" lon="6.391384072439331"><ele>1038.0</ele><time>2026-05-01T13:44:41Z</time></trkpt><trkpt lat="44.443210281603704" lon="6.391487559751946"><ele>1039.0</ele><time>2026-05-01T13:44:42Z</time></trkpt><trkpt lat="44.443236246987205" lon="6.391613805726736"><ele>1040.0</ele><time>2026-05-01T13:44:43Z</time></trkpt><trkpt lat="44.44329196070564" lon="6.39172751091544"><ele>1041.0</ele><time>2026-05-01T13:44:44Z</time></trkpt><trkpt lat="44.44347563734947" lon="6.391734639956747"><ele>1041.0</ele><time>2026-05-01T13:44:45Z</time></trkpt><trkpt lat="44.443616150207866" lon="6.391761130540447"><ele>1041.0</ele><time>2026-05-01T13:44:47Z</time></trkpt><trkpt lat="44.443933428910356" lon="6.391745368647406"><ele>1035.0</ele><time>2026-05-01T13:44:48Z</time></trkpt><trkpt lat="44.44411865601973" lon="6.391685260622141"><ele>1029.0</ele><time>2026-05-01T13:44:49Z</time></trkpt><trkpt lat="44.44430951294852" lon="6.391736927660123"><ele>1023.0</ele><time>2026-05-01T13:44:50Z</time></trkpt><trkpt lat="44.44450302673153" lon="6.391808634220612"><ele>1016.6666666666667</ele><time>2026-05-01T13:44:51Z</time></trkpt><trkpt lat="44.44466608472608" lon="6.391909867368041"><ele>1010.3333333333334</ele><time>2026-05-01T13:44:52Z</time></trkpt><trkpt lat="44.44483933549104" lon="6.392013951679206"><ele>1004.0</ele><time>2026-05-01T13:44:53Z</time></trkpt><trkpt lat="44.44501815977024" lon="6.392119180233063"><ele>1006.3333333333334</ele><time>2026-05-01T13:44:54Z</time></trkpt><trkpt lat="44.44522767468575" lon="6.392225337064279"><ele>1008.6666666666667</ele><time>2026-05-01T13:44:55Z</time></trkpt><trkpt lat="44.44541372278528" lon="6.392358193580766"><ele>1011.0</ele><time>2026-05-01T13:44:56Z</time></trkpt><trkpt lat="44.44560262950148" lon="6.392472105420276"><ele>1011.0</ele><time>2026-05-01T13:44:57Z</time></trkpt><trkpt lat="44.44578664739529" lon="6.392583069420227"><ele>1011.0</ele><time>2026-05-01T13:44:58Z</time></trkpt><trkpt lat="44.44595680413221" lon="6.392685674781407"><ele>1011.0</ele><time>2026-05-01T13:44:59Z</time></trkpt><trkpt lat="44.446100122023786" lon="6.3927866468021834"><ele>1011.0</ele><time>2026-05-01T13:45:00Z</time></trkpt><trkpt lat="44.44620778499726" lon="6.3929131094508955"><ele>1011.0</ele><time>2026-05-01T13:45:01Z</time></trkpt><trkpt lat="44.44628784060543" lon="6.393062792299865"><ele>1011.0</ele><time>2026-05-01T13:45:02Z</time></trkpt><trkpt lat="44.44634221388974" lon="6.393248929507136"><ele>1011.0</ele><time>2026-05-01T13:45:03Z</time></trkpt><trkpt lat="44.44635944601363" lon="6.393440311889449"><ele>1014.75</ele><time>2026-05-01T13:45:04Z</time></trkpt><trkpt lat="44.44634475408176" lon="6.3936407318679365"><ele>1018.5</ele><time>2026-05-01T13:45:05Z</time></trkpt><trkpt lat="44.446292018485714" lon="6.3937915248785915"><ele>1022.25</ele><time>2026-05-01T13:45:06Z</time></trkpt><trkpt lat="44.44623998896946" lon="6.393971241778306"><ele>1026.0</ele><time>2026-05-01T13:45:07Z</time></trkpt><trkpt lat="44.446178892465554" lon="6.394192206655169"><ele>1026.6666666666667</ele><time>2026-05-01T13:45:08Z</time></trkpt><trkpt lat="44.44612854255507" lon="6.394477117178276"><ele>1027.3333333333335</ele><time>2026-05-01T13:45:09Z</time></trkpt><trkpt lat="44.446109128178676" lon="6.394778685060501"><ele>1028.0</ele><time>2026-05-01T13:45:10Z</time></trkpt><trkpt lat="44.44610104351452" lon="6.395123909554332"><ele>1025.5</ele><time>2026-05-01T13:45:11Z</time></trkpt><trkpt lat="44.44609602174275" lon="6.395453628160557"><ele>1023.0</ele><time>2026-05-01T13:45:12Z</time></trkpt><trkpt lat="44.44609957320246" lon="6.3957719658439025"><ele>1027.3333333333333</ele><time>2026-05-01T13:45:13Z</time></trkpt><trkpt lat="44.4461473917121" lon="6.3960776447468115"><ele>1031.6666666666665</ele><time>2026-05-01T13:45:14Z</time></trkpt><trkpt lat="44.44621686553506" lon="6.39632522492461"><ele>1036.0</ele><time>2026-05-01T13:45:15Z</time></trkpt><trkpt lat="44.44630175869979" lon="6.396550691168125"><ele>1016.0</ele><time>2026-05-01T13:45:16Z</time></trkpt><trkpt lat="44.44638217721223" lon="6.396776629504827"><ele>996.0</ele><time>2026-05-01T13:45:17Z</time></trkpt><trkpt lat="44.446439826243456" lon="6.396981528693838"><ele>976.0</ele><time>2026-05-01T13:45:18Z</time></trkpt><trkpt lat="44.446474764882446" lon="6.397166288699547"><ele>978.3333333333333</ele><time>2026-05-01T13:45:19Z</time></trkpt><trkpt lat="44.44650446488011" lon="6.397453036665457"><ele>980.6666666666667</ele><time>2026-05-01T13:45:20Z</time></trkpt><trkpt lat="44.44652855991333" lon="6.397735295791918"><ele>983.0</ele><time>2026-05-01T13:45:21Z</time></trkpt><trkpt lat="44.446554942157604" lon="6.398044348460419"><ele>984.0</ele><time>2026-05-01T13:45:22Z</time></trkpt><trkpt lat="44.446579480591424" lon="6.398331801832305"><ele>985.0</ele><time>2026-05-01T13:45:23Z</time></trkpt><trkpt lat="44.44660564693724" lon="6.39862845980938"><ele>986.0</ele><time>2026-05-01T13:45:24Z</time></trkpt><trkpt lat="44.44665137530463" lon="6.398883169861771"><ele>988.0</ele><time>2026-05-01T13:45:25Z</time></trkpt><trkpt lat="44.44673258888616" lon="6.399153308322214"><ele>990.0</ele><time>2026-05-01T13:45:26Z</time></trkpt><trkpt lat="44.44682669706267" lon="6.399416908897061"><ele>992.0</ele><time>2026-05-01T13:45:27Z</time></trkpt><trkpt lat="44.44691437425616" lon="6.3996634935658765"><ele>995.0</ele><time>2026-05-01T13:45:28Z</time></trkpt><trkpt lat="44.44699360743309" lon="6.399894983623304"><ele>998.0</ele><time>2026-05-01T13:45:29Z</time></trkpt><trkpt lat="44.447057816607746" lon="6.400130821282202"><ele>1001.0</ele><time>2026-05-01T13:45:30Z</time></trkpt><trkpt lat="44.44709126954587" lon="6.4003353948562385"><ele>1001.6666666666667</ele><time>2026-05-01T13:45:31Z</time></trkpt><trkpt lat="44.44710782961688" lon="6.400574961810297"><ele>1002.3333333333333</ele><time>2026-05-01T13:45:32Z</time></trkpt><trkpt lat="44.44710437981054" lon="6.400814238137135"><ele>1003.0</ele><time>2026-05-01T13:45:33Z</time></trkpt><trkpt lat="44.447074506446185" lon="6.40105405202373"><ele>999.0</ele><time>2026-05-01T13:45:34Z</time></trkpt><trkpt lat="44.447034965708156" lon="6.401335589767025"><ele>995.0</ele><time>2026-05-01T13:45:35Z</time></trkpt><trkpt lat="44.44698772395775" lon="6.401596403430517"><ele>991.0</ele><time>2026-05-01T13:45:36Z</time></trkpt><trkpt lat="44.44693324893649" lon="6.4018149006269365"><ele>991.0</ele><time>2026-05-01T13:45:37Z</time></trkpt><trkpt lat="44.44683487608265" lon="6.4020536332101"><ele>991.0</ele><time>2026-05-01T13:45:38Z</time></trkpt><trkpt lat="44.44672641261228" lon="6.402289242944108"><ele>991.0</ele><time>2026-05-01T13:45:39Z</time></trkpt><trkpt lat="44.446611986021765" lon="6.402537131665157"><ele>980.0</ele><time>2026-05-01T13:45:40Z</time></trkpt><trkpt lat="44.44650286793968" lon="6.402820784892918"><ele>969.0</ele><time>2026-05-01T13:45:41Z</time></trkpt><trkpt lat="44.44641588549935" lon="6.403138477769624"><ele>960.0</ele><time>2026-05-01T13:45:42Z</time></trkpt><trkpt lat="44.44633987005937" lon="6.40345120130406"><ele>951.0</ele><time>2026-05-01T13:45:43Z</time></trkpt><trkpt lat="44.44625690230941" lon="6.403784852696732"><ele>964.3333333333333</ele><time>2026-05-01T13:45:44Z</time></trkpt><trkpt lat="44.446188924535576" lon="6.404069829814108"><ele>977.6666666666666</ele><time>2026-05-01T13:45:45Z</time></trkpt><trkpt lat="44.44614665246804" lon="6.404370301598167"><ele>991.0</ele><time>2026-05-01T13:45:46Z</time></trkpt><trkpt lat="44.446079073511" lon="6.404636164479724"><ele>986.6666666666666</ele><time>2026-05-01T13:45:47Z</time></trkpt><trkpt lat="44.446039181560444" lon="6.4049228170208385"><ele>982.3333333333333</ele><time>2026-05-01T13:45:48Z</time></trkpt><trkpt lat="44.44602357607641" lon="6.405215414514797"><ele>978.0</ele><time>2026-05-01T13:45:49Z</time></trkpt><trkpt lat="44.446038003335836" lon="6.4055126323055624"><ele>973.6666666666667</ele><time>2026-05-01T13:45:50Z</time></trkpt><trkpt lat="44.44594715352896" lon="6.405753081508039"><ele>969.3333333333334</ele><time>2026-05-01T13:45:51Z</time></trkpt><trkpt lat="44.44586448949448" lon="6.406009586112167"><ele>965.0</ele><time>2026-05-01T13:45:52Z</time></trkpt><trkpt lat="44.44577585978969" lon="6.406296739090825"><ele>956.0</ele><time>2026-05-01T13:45:53Z</time></trkpt><trkpt lat="44.44569737341985" lon="6.406621949285552"><ele>947.0</ele><time>2026-05-01T13:45:54Z</time></trkpt><trkpt lat="44.445646711977545" lon="6.406954081121451"><ele>940.5</ele><time>2026-05-01T13:45:55Z</time></trkpt><trkpt lat="44.44561985867425" lon="6.407311916050721"><ele>934.0</ele><time>2026-05-01T13:45:56Z</time></trkpt><trkpt lat="44.445601953614705" lon="6.407657401561855"><ele>931.0</ele><time>2026-05-01T13:45:57Z</time></trkpt><trkpt lat="44.44558063041257" lon="6.408009687700026"><ele>928.0</ele><time>2026-05-01T13:45:58Z</time></trkpt><trkpt lat="44.44554199151389" lon="6.408362490367922"><ele>928.0</ele><time>2026-05-01T13:45:59Z</time></trkpt><trkpt lat="44.44549674899942" lon="6.408716534616111"><ele>928.0</ele><time>2026-05-01T13:46:00Z</time></trkpt><trkpt lat="44.44545681860474" lon="6.409041451776902"><ele>940.6666666666666</ele><time>2026-05-01T13:46:01Z</time></trkpt><trkpt lat="44.44542421533569" lon="6.409317680567974"><ele>953.3333333333333</ele><time>2026-05-01T13:46:02Z</time></trkpt><trkpt lat="44.44538817280842" lon="6.4096145077806055"><ele>966.0</ele><time>2026-05-01T13:46:03Z</time></trkpt><trkpt lat="44.44536038872145" lon="6.409843322685612"><ele>966.0</ele><time>2026-05-01T13:46:04Z</time></trkpt><trkpt lat="44.44533231601264" lon="6.410067961689952"><ele>966.0</ele><time>2026-05-01T13:46:05Z</time></trkpt><trkpt lat="44.44529845414382" lon="6.4102334348137955"><ele>966.0</ele><time>2026-05-01T13:46:06Z</time></trkpt><trkpt lat="44.445236042037216" lon="6.410392815627662"><ele>966.0</ele><time>2026-05-01T13:46:07Z</time></trkpt><trkpt lat="44.445140458681884" lon="6.410534635540157"><ele>955.0</ele><time>2026-05-01T13:46:08Z</time></trkpt><trkpt lat="44.445005099794244" lon="6.410664202452297"><ele>944.0</ele><time>2026-05-01T13:46:09Z</time></trkpt><trkpt lat="44.444835029494136" lon="6.410811950850847"><ele>933.0</ele><time>2026-05-01T13:46:10Z</time></trkpt><trkpt lat="44.44466499329741" lon="6.410959832684995"><ele>949.0</ele><time>2026-05-01T13:46:11Z</time></trkpt><trkpt lat="44.44447716334207" lon="6.4111493615639965"><ele>965.0</ele><time>2026-05-01T13:46:12Z</time></trkpt><trkpt lat="44.44428205324494" lon="6.411293966963819"><ele>945.0</ele><time>2026-05-01T13:46:13Z</time></trkpt><trkpt lat="44.444016654085495" lon="6.4114770356097965"><ele>925.0</ele><time>2026-05-01T13:46:14Z</time></trkpt><trkpt lat="44.443814580124496" lon="6.411605034995176"><ele>935.3333333333333</ele><time>2026-05-01T13:46:15Z</time></trkpt><trkpt lat="44.44362176182993" lon="6.411735153151646"><ele>945.6666666666667</ele><time>2026-05-01T13:46:16Z</time></trkpt><trkpt lat="44.4434378215103" lon="6.411910039818314"><ele>956.0</ele><time>2026-05-01T13:46:17Z</time></trkpt><trkpt lat="44.44324125604499" lon="6.4120928462931435"><ele>951.5</ele><time>2026-05-01T13:46:18Z</time></trkpt><trkpt lat="44.4430686791536" lon="6.41230261232003"><ele>947.0</ele><time>2026-05-01T13:46:19Z</time></trkpt><trkpt lat="44.442833242559075" lon="6.412520791177283"><ele>947.0</ele><time>2026-05-01T13:46:20Z</time></trkpt><trkpt lat="44.44259556891206" lon="6.4127115885461174"><ele>947.0</ele><time>2026-05-01T13:46:21Z</time></trkpt><trkpt lat="44.44236681685518" lon="6.4128952236593095"><ele>947.0</ele><time>2026-05-01T13:46:22Z</time></trkpt><trkpt lat="44.4421497213846" lon="6.413071791203744"><ele>947.0</ele><time>2026-05-01T13:46:23Z</time></trkpt><trkpt lat="44.44194451739993" lon="6.413253304121979"><ele>947.0</ele><time>2026-05-01T13:46:24Z</time></trkpt><trkpt lat="44.44174406410811" lon="6.413459986906859"><ele>947.0</ele><time>2026-05-01T13:46:25Z</time></trkpt><trkpt lat="44.441578780159475" lon="6.413657431020674"><ele>944.0</ele><time>2026-05-01T13:46:26Z</time></trkpt><trkpt lat="44.44141397985318" lon="6.413884972734773"><ele>941.0</ele><time>2026-05-01T13:46:26.999Z</time></trkpt><trkpt lat="44.44123558401624" lon="6.414129493094156"><ele>941.0</ele><time>2026-05-01T13:46:27.999Z</time></trkpt><trkpt lat="44.441065248188586" lon="6.414324135300545"><ele>941.0</ele><time>2026-05-01T13:46:28.999Z</time></trkpt><trkpt lat="44.44093199698601" lon="6.414460707823368"><ele>941.0</ele><time>2026-05-01T13:46:29.999Z</time></trkpt><trkpt lat="44.440786141886484" lon="6.414583247099346"><ele>940.0</ele><time>2026-05-01T13:46:30.999Z</time></trkpt><trkpt lat="44.4406000228005" lon="6.4147291585620545"><ele>939.0</ele><time>2026-05-01T13:46:31.999Z</time></trkpt><trkpt lat="44.44041425434409" lon="6.414883379557257"><ele>938.0</ele><time>2026-05-01T13:46:32.999Z</time></trkpt><trkpt lat="44.440263620676255" lon="6.415050032035221"><ele>938.0</ele><time>2026-05-01T13:46:33.999Z</time></trkpt><trkpt lat="44.44010867407487" lon="6.415193915274209"><ele>938.0</ele><time>2026-05-01T13:46:34.999Z</time></trkpt><trkpt lat="44.43994716977645" lon="6.4153811668560135"><ele>938.0</ele><time>2026-05-01T13:46:35.999Z</time></trkpt><trkpt lat="44.43982649086133" lon="6.415561518090422"><ele>936.6666666666667</ele><time>2026-05-01T13:46:36.999Z</time></trkpt><trkpt lat="44.43969635462886" lon="6.41569682235105"><ele>935.3333333333333</ele><time>2026-05-01T13:46:37.999Z</time></trkpt><trkpt lat="44.43953852433709" lon="6.415846826695585"><ele>934.0</ele><time>2026-05-01T13:46:38.999Z</time></trkpt><trkpt lat="44.43937368195943" lon="6.415999380293824"><ele>934.0</ele><time>2026-05-01T13:46:39.999Z</time></trkpt><trkpt lat="44.43922331955607" lon="6.4161671460980445"><ele>934.0</ele><time>2026-05-01T13:46:40.999Z</time></trkpt><trkpt lat="44.439051448627005" lon="6.416332907055151"><ele>934.0</ele><time>2026-05-01T13:46:41.999Z</time></trkpt><trkpt lat="44.43891059448718" lon="6.416464900415092"><ele>932.6666666666666</ele><time>2026-05-01T13:46:42.999Z</time></trkpt><trkpt lat="44.43875880878474" lon="6.416607096840406"><ele>931.3333333333333</ele><time>2026-05-01T13:46:44Z</time></trkpt><trkpt lat="44.43860476050582" lon="6.416775208374051"><ele>930.0</ele><time>2026-05-01T13:46:45Z</time></trkpt><trkpt lat="44.43848504859243" lon="6.416916392012983"><ele>930.0</ele><time>2026-05-01T13:46:46Z</time></trkpt><trkpt lat="44.43836122612226" lon="6.417075723280329"><ele>930.0</ele><time>2026-05-01T13:46:47Z</time></trkpt><trkpt lat="44.438257401731285" lon="6.417201636596772"><ele>930.0</ele><time>2026-05-01T13:46:48Z</time></trkpt><trkpt lat="44.43815019785835" lon="6.417343443805706"><ele>924.4</ele><time>2026-05-01T13:46:49Z</time></trkpt><trkpt lat="44.4380467425636" lon="6.4174825262584125"><ele>918.8</ele><time>2026-05-01T13:46:50Z</time></trkpt><trkpt lat="44.437983273503214" lon="6.4175600876016565"><ele>913.2</ele><time>2026-05-01T13:46:52Z</time></trkpt><trkpt lat="44.43791812262367" lon="6.417676249553823"><ele>907.6</ele><time>2026-05-01T13:46:54Z</time></trkpt><trkpt lat="44.43795806944741" lon="6.417581551245884"><ele>902.0</ele><time>2026-05-01T13:46:57Z</time></trkpt><trkpt lat="44.438123585450505" lon="6.417711067509187"><ele>900.75</ele><time>2026-05-01T13:46:58Z</time></trkpt><trkpt lat="44.4382030643531" lon="6.417641430749757"><ele>899.5</ele><time>2026-05-01T13:46:59Z</time></trkpt><trkpt lat="44.43827146306251" lon="6.417468754446358"><ele>898.25</ele><time>2026-05-01T13:47:00Z</time></trkpt><trkpt lat="44.43836638150229" lon="6.417318629754237"><ele>897.0</ele><time>2026-05-01T13:47:01Z</time></trkpt><trkpt lat="44.43846256671674" lon="6.417154214360326"><ele>899.3333333333333</ele><time>2026-05-01T13:47:02Z</time></trkpt><trkpt lat="44.43857441214037" lon="6.416993499298555"><ele>901.6666666666666</ele><time>2026-05-01T13:47:03Z</time></trkpt><trkpt lat="44.43870909600115" lon="6.416849970013053"><ele>904.0</ele><time>2026-05-01T13:47:04Z</time></trkpt><trkpt lat="44.43884248021546" lon="6.416719508259316"><ele>904.0</ele><time>2026-05-01T13:47:05Z</time></trkpt><trkpt lat="44.43898447698088" lon="6.416615343499588"><ele>904.0</ele><time>2026-05-01T13:47:06Z</time></trkpt><trkpt lat="44.43914458891431" lon="6.416495864520283"><ele>904.0</ele><time>2026-05-01T13:47:07Z</time></trkpt><trkpt lat="44.439296868194745" lon="6.416406007272234"><ele>903.3333333333333</ele><time>2026-05-01T13:47:08Z</time></trkpt><trkpt lat="44.43944421433476" lon="6.416314886972499"><ele>902.6666666666667</ele><time>2026-05-01T13:47:09Z</time></trkpt><trkpt lat="44.43959095452201" lon="6.416214056947732"><ele>902.0</ele><time>2026-05-01T13:47:10Z</time></trkpt><trkpt lat="44.439740628416125" lon="6.416067762631568"><ele>902.0</ele><time>2026-05-01T13:47:11Z</time></trkpt><trkpt lat="44.43987766731622" lon="6.415894972229644"><ele>902.0</ele><time>2026-05-01T13:47:12Z</time></trkpt><trkpt lat="44.44003774912285" lon="6.415750203126421"><ele>902.0</ele><time>2026-05-01T13:47:13Z</time></trkpt><trkpt lat="44.4401880798076" lon="6.415604029141334"><ele>900.3333333333334</ele><time>2026-05-01T13:47:14Z</time></trkpt><trkpt lat="44.4403067476594" lon="6.415454779896796"><ele>898.6666666666667</ele><time>2026-05-01T13:47:15Z</time></trkpt><trkpt lat="44.44041474370984" lon="6.41531012243413"><ele>897.0</ele><time>2026-05-01T13:47:16Z</time></trkpt><trkpt lat="44.44051870863536" lon="6.415163581313473"><ele>897.0</ele><time>2026-05-01T13:47:17Z</time></trkpt><trkpt lat="44.44063029456285" lon="6.415010911630437"><ele>897.0</ele><time>2026-05-01T13:47:18Z</time></trkpt><trkpt lat="44.440749611372915" lon="6.414860850055651"><ele>897.0</ele><time>2026-05-01T13:47:19Z</time></trkpt><trkpt lat="44.44088274591618" lon="6.414746316550234"><ele>899.6666666666667</ele><time>2026-05-01T13:47:20Z</time></trkpt><trkpt lat="44.44102744659878" lon="6.414638275931725"><ele>902.3333333333334</ele><time>2026-05-01T13:47:21Z</time></trkpt><trkpt lat="44.44122635495458" lon="6.414543167901923"><ele>905.0</ele><time>2026-05-01T13:47:22Z</time></trkpt><trkpt lat="44.44136137284868" lon="6.4144194402117085"><ele>905.0</ele><time>2026-05-01T13:47:23Z</time></trkpt><trkpt lat="44.44149887749227" lon="6.414276273062064"><ele>905.0</ele><time>2026-05-01T13:47:24Z</time></trkpt><trkpt lat="44.44164625822491" lon="6.414122525693213"><ele>905.0</ele><time>2026-05-01T13:47:25Z</time></trkpt><trkpt lat="44.441828590422524" lon="6.413934274136015"><ele>906.3333333333334</ele><time>2026-05-01T13:47:26Z</time></trkpt><trkpt lat="44.442001102534036" lon="6.413766367481883"><ele>907.6666666666667</ele><time>2026-05-01T13:47:27Z</time></trkpt><trkpt lat="44.4421804555246" lon="6.413646017358593"><ele>909.0</ele><time>2026-05-01T13:47:28Z</time></trkpt><trkpt lat="44.44236302204147" lon="6.413542768823241"><ele>909.0</ele><time>2026-05-01T13:47:29Z</time></trkpt><trkpt lat="44.44256694916163" lon="6.4134141494913095"><ele>909.0</ele><time>2026-05-01T13:47:30Z</time></trkpt><trkpt lat="44.4427604369733" lon="6.4132643484978455"><ele>909.0</ele><time>2026-05-01T13:47:31Z</time></trkpt><trkpt lat="44.44294620474885" lon="6.413108873670803"><ele>911.0</ele><time>2026-05-01T13:47:32Z</time></trkpt><trkpt lat="44.4431200321311" lon="6.412966287372263"><ele>913.0</ele><time>2026-05-01T13:47:33Z</time></trkpt><trkpt lat="44.44329473855128" lon="6.412826554808021"><ele>915.0</ele><time>2026-05-01T13:47:34Z</time></trkpt><trkpt lat="44.443471950465565" lon="6.412670890183257"><ele>915.0</ele><time>2026-05-01T13:47:35Z</time></trkpt><trkpt lat="44.443650521373364" lon="6.412522921977698"><ele>915.0</ele><time>2026-05-01T13:47:36Z</time></trkpt><trkpt lat="44.44383997591002" lon="6.412411047365539"><ele>915.0</ele><time>2026-05-01T13:47:37Z</time></trkpt><trkpt lat="44.444039893069665" lon="6.41228873884927"><ele>918.3333333333333</ele><time>2026-05-01T13:47:38Z</time></trkpt><trkpt lat="44.44422786927014" lon="6.412156048466585"><ele>921.6666666666666</ele><time>2026-05-01T13:47:39Z</time></trkpt><trkpt lat="44.4444223480758" lon="6.412016619015666"><ele>925.0</ele><time>2026-05-01T13:47:40Z</time></trkpt><trkpt lat="44.44461592931964" lon="6.411876622661448"><ele>916.6666666666666</ele><time>2026-05-01T13:47:41Z</time></trkpt><trkpt lat="44.44480945393964" lon="6.411738897564558"><ele>908.3333333333333</ele><time>2026-05-01T13:47:42Z</time></trkpt><trkpt lat="44.44499568409754" lon="6.411607099917398"><ele>900.0</ele><time>2026-05-01T13:47:43Z</time></trkpt><trkpt lat="44.44517147434296" lon="6.411471793151174"><ele>900.0</ele><time>2026-05-01T13:47:44Z</time></trkpt><trkpt lat="44.445335153863915" lon="6.411327553560458"><ele>900.0</ele><time>2026-05-01T13:47:45Z</time></trkpt><trkpt lat="44.44548986629995" lon="6.411173798203452"><ele>900.0</ele><time>2026-05-01T13:47:46Z</time></trkpt><trkpt lat="44.44561915164411" lon="6.411007360306278"><ele>901.3333333333333</ele><time>2026-05-01T13:47:47Z</time></trkpt><trkpt lat="44.44571401696972" lon="6.410847390786867"><ele>902.6666666666666</ele><time>2026-05-01T13:47:48Z</time></trkpt><trkpt lat="44.44581503475324" lon="6.410665598790891"><ele>904.0</ele><time>2026-05-01T13:47:49Z</time></trkpt><trkpt lat="44.44587700564227" lon="6.410457400337491"><ele>904.0</ele><time>2026-05-01T13:47:50Z</time></trkpt><trkpt lat="44.445931942926684" lon="6.410217398487827"><ele>904.0</ele><time>2026-05-01T13:47:51Z</time></trkpt><trkpt lat="44.44597637054531" lon="6.4099322066425195"><ele>904.0</ele><time>2026-05-01T13:47:52Z</time></trkpt><trkpt lat="44.446001816865035" lon="6.409654661159331"><ele>907.6666666666666</ele><time>2026-05-01T13:47:53Z</time></trkpt><trkpt lat="44.44603253989831" lon="6.409439660387522"><ele>911.3333333333333</ele><time>2026-05-01T13:47:54Z</time></trkpt><trkpt lat="44.44605425505734" lon="6.40922704345013"><ele>915.0</ele><time>2026-05-01T13:47:55Z</time></trkpt><trkpt lat="44.4460770150636" lon="6.409004350507815"><ele>915.0</ele><time>2026-05-01T13:47:56Z</time></trkpt><trkpt lat="44.44615193426999" lon="6.408879630624171"><ele>915.0</ele><time>2026-05-01T13:47:57Z</time></trkpt><trkpt lat="44.44621223326054" lon="6.408671418052464"><ele>915.0</ele><time>2026-05-01T13:47:58Z</time></trkpt><trkpt lat="44.446260818433" lon="6.408457249247619"><ele>915.0</ele><time>2026-05-01T13:47:59Z</time></trkpt><trkpt lat="44.446300747881295" lon="6.408240333257276"><ele>901.3333333333333</ele><time>2026-05-01T13:48:00Z</time></trkpt><trkpt lat="44.44632160238273" lon="6.407984994330079"><ele>887.6666666666666</ele><time>2026-05-01T13:48:01Z</time></trkpt><trkpt lat="44.446338273177965" lon="6.407747798055517"><ele>874.0</ele><time>2026-05-01T13:48:02Z</time></trkpt><trkpt lat="44.4463802518917" lon="6.407531932576804"><ele>874.0</ele><time>2026-05-01T13:48:03Z</time></trkpt><trkpt lat="44.44645363478221" lon="6.407339846013695"><ele>874.0</ele><time>2026-05-01T13:48:04Z</time></trkpt><trkpt lat="44.446547141266635" lon="6.407142687711572"><ele>874.0</ele><time>2026-05-01T13:48:05Z</time></trkpt><trkpt lat="44.44664698925656" lon="6.406968023615541"><ele>881.5</ele><time>2026-05-01T13:48:06Z</time></trkpt><trkpt lat="44.44678478504698" lon="6.406741318618057"><ele>889.0</ele><time>2026-05-01T13:48:07Z</time></trkpt><trkpt lat="44.447010761356836" lon="6.406400390235393"><ele>884.3333333333333</ele><time>2026-05-01T13:48:08Z</time></trkpt><trkpt lat="44.44719852893694" lon="6.406217966204136"><ele>879.6666666666667</ele><time>2026-05-01T13:48:09Z</time></trkpt><trkpt lat="44.44733803694551" lon="6.406029566641914"><ele>875.0</ele><time>2026-05-01T13:48:10Z</time></trkpt><trkpt lat="44.447466462566545" lon="6.405839760000093"><ele>875.0</ele><time>2026-05-01T13:48:11Z</time></trkpt><trkpt lat="44.44758580150321" lon="6.405660814961399"><ele>875.0</ele><time>2026-05-01T13:48:12Z</time></trkpt><trkpt lat="44.447658720024705" lon="6.4054839307643165"><ele>875.0</ele><time>2026-05-01T13:48:13Z</time></trkpt><trkpt lat="44.44770375993612" lon="6.405355409336349"><ele>875.0</ele><time>2026-05-01T13:48:14Z</time></trkpt><trkpt lat="44.44774501821629" lon="6.405160362305816"><ele>878.3333333333334</ele><time>2026-05-01T13:48:15Z</time></trkpt><trkpt lat="44.44777175708815" lon="6.404933843547703"><ele>881.6666666666667</ele><time>2026-05-01T13:48:16Z</time></trkpt><trkpt lat="44.44779450716241" lon="6.404700607462651"><ele>885.0</ele><time>2026-05-01T13:48:17Z</time></trkpt><trkpt lat="44.447818136906086" lon="6.404459571614719"><ele>886.0</ele><time>2026-05-01T13:48:18Z</time></trkpt><trkpt lat="44.447842682608645" lon="6.404205378794806"><ele>887.0</ele><time>2026-05-01T13:48:19Z</time></trkpt><trkpt lat="44.44788397496557" lon="6.403866376658325"><ele>888.0</ele><time>2026-05-01T13:48:20Z</time></trkpt><trkpt lat="44.447947279101946" lon="6.403563320195845"><ele>884.0</ele><time>2026-05-01T13:48:21Z</time></trkpt><trkpt lat="44.44802905204957" lon="6.403354911371513"><ele>880.0</ele><time>2026-05-01T13:48:22Z</time></trkpt><trkpt lat="44.44808089961617" lon="6.403127245337046"><ele>876.0</ele><time>2026-05-01T13:48:23Z</time></trkpt><trkpt lat="44.448233570798685" lon="6.402934188362308"><ele>876.0</ele><time>2026-05-01T13:48:24Z</time></trkpt><trkpt lat="44.4484059092425" lon="6.402754414983379"><ele>876.0</ele><time>2026-05-01T13:48:25Z</time></trkpt><trkpt lat="44.448519109694196" lon="6.402615408083241"><ele>876.0</ele><time>2026-05-01T13:48:26Z</time></trkpt><trkpt lat="44.44867724736608" lon="6.402456002903009"><ele>867.0</ele><time>2026-05-01T13:48:27Z</time></trkpt><trkpt lat="44.44880397362628" lon="6.402277725770435"><ele>858.0</ele><time>2026-05-01T13:48:28Z</time></trkpt><trkpt lat="44.44890756165629" lon="6.402094715630692"><ele>849.0</ele><time>2026-05-01T13:48:29Z</time></trkpt><trkpt lat="44.448987567303384" lon="6.40190382708229"><ele>849.0</ele><time>2026-05-01T13:48:30Z</time></trkpt><trkpt lat="44.44898199909467" lon="6.401697950160451"><ele>849.0</ele><time>2026-05-01T13:48:31Z</time></trkpt><trkpt lat="44.448974315081" lon="6.401492100103639"><ele>849.0</ele><time>2026-05-01T13:48:32Z</time></trkpt><trkpt lat="44.44896222947635" lon="6.401220024641138"><ele>847.6666666666667</ele><time>2026-05-01T13:48:33Z</time></trkpt><trkpt lat="44.448946865741604" lon="6.4008682914000214"><ele>846.3333333333334</ele><time>2026-05-01T13:48:34Z</time></trkpt><trkpt lat="44.44892885270773" lon="6.400592159100213"><ele>845.0</ele><time>2026-05-01T13:48:35Z</time></trkpt><trkpt lat="44.448884931163875" lon="6.400333632968467"><ele>840.3333333333334</ele><time>2026-05-01T13:48:36Z</time></trkpt><trkpt lat="44.44884580681717" lon="6.400093250291823"><ele>835.6666666666667</ele><time>2026-05-01T13:48:37Z</time></trkpt><trkpt lat="44.44879665675406" lon="6.399851407170521"><ele>831.0</ele><time>2026-05-01T13:48:38Z</time></trkpt><trkpt lat="44.44871538821954" lon="6.399624016562371"><ele>845.3333333333333</ele><time>2026-05-01T13:48:39Z</time></trkpt><trkpt lat="44.44863432175038" lon="6.3993697652981085"><ele>859.6666666666666</ele><time>2026-05-01T13:48:40Z</time></trkpt><trkpt lat="44.44858116215611" lon="6.39912983994081"><ele>874.0</ele><time>2026-05-01T13:48:41Z</time></trkpt><trkpt lat="44.44849747425101" lon="6.398903526816451"><ele>870.0</ele><time>2026-05-01T13:48:42Z</time></trkpt><trkpt lat="44.44841969493879" lon="6.398691046450002"><ele>866.0</ele><time>2026-05-01T13:48:43Z</time></trkpt><trkpt lat="44.448369693232024" lon="6.398481033759602"><ele>862.0</ele><time>2026-05-01T13:48:44Z</time></trkpt><trkpt lat="44.44837753423787" lon="6.398257420373717"><ele>863.0</ele><time>2026-05-01T13:48:45Z</time></trkpt><trkpt lat="44.44838988124245" lon="6.398000722116751"><ele>864.0</ele><time>2026-05-01T13:48:45.999Z</time></trkpt><trkpt lat="44.44840841382214" lon="6.397770889941242"><ele>865.0</ele><time>2026-05-01T13:48:46.999Z</time></trkpt><trkpt lat="44.44844205404993" lon="6.397584371742236"><ele>865.0</ele><time>2026-05-01T13:48:47.999Z</time></trkpt><trkpt lat="44.44849290945089" lon="6.39742719132147"><ele>865.0</ele><time>2026-05-01T13:48:48.999Z</time></trkpt><trkpt lat="44.44861618180489" lon="6.3971773747729985"><ele>865.0</ele><time>2026-05-01T13:48:50Z</time></trkpt><trkpt lat="44.44872233153566" lon="6.396977048619892"><ele>847.5</ele><time>2026-05-01T13:48:51Z</time></trkpt><trkpt lat="44.44888423402944" lon="6.396719338475804"><ele>830.0</ele><time>2026-05-01T13:48:52Z</time></trkpt><trkpt lat="44.44903446636083" lon="6.396440373708231"><ele>835.3333333333334</ele><time>2026-05-01T13:48:53Z</time></trkpt><trkpt lat="44.44911927242304" lon="6.3962292335478645"><ele>840.6666666666667</ele><time>2026-05-01T13:48:54Z</time></trkpt><trkpt lat="44.44918260622459" lon="6.395991927531757"><ele>846.0</ele><time>2026-05-01T13:48:55Z</time></trkpt><trkpt lat="44.449266677968495" lon="6.395747736374572"><ele>846.0</ele><time>2026-05-01T13:48:56Z</time></trkpt><trkpt lat="44.44933504587637" lon="6.395512022171782"><ele>846.0</ele><time>2026-05-01T13:48:57Z</time></trkpt><trkpt lat="44.449383123654506" lon="6.395283779139314"><ele>846.0</ele><time>2026-05-01T13:48:58Z</time></trkpt><trkpt lat="44.44944253402547" lon="6.395057027313466"><ele>846.5</ele><time>2026-05-01T13:48:59Z</time></trkpt><trkpt lat="44.44945589407382" lon="6.394830743037291"><ele>847.0</ele><time>2026-05-01T13:49:00Z</time></trkpt><trkpt lat="44.44943631722322" lon="6.394730076293365"><ele>847.5</ele><time>2026-05-01T13:49:01Z</time></trkpt><trkpt lat="44.44942783197949" lon="6.394634405548076"><ele>848.0</ele><time>2026-05-01T13:49:02Z</time></trkpt><trkpt lat="44.44928263041608" lon="6.394274985607978"><ele>848.0</ele><time>2026-05-01T13:49:03Z</time></trkpt><trkpt lat="44.44927783635019" lon="6.394074696559319"><ele>848.0</ele><time>2026-05-01T13:49:04Z</time></trkpt><trkpt lat="44.44931364081797" lon="6.393813747708014"><ele>848.0</ele><time>2026-05-01T13:49:05Z</time></trkpt><trkpt lat="44.4493943485324" lon="6.393605252004685"><ele>848.0</ele><time>2026-05-01T13:49:06Z</time></trkpt><trkpt lat="44.44953180012157" lon="6.393424089383644"><ele>848.0</ele><time>2026-05-01T13:49:07Z</time></trkpt><trkpt lat="44.44969728608752" lon="6.393320794101129"><ele>848.0</ele><time>2026-05-01T13:49:08Z</time></trkpt><trkpt lat="44.449820548777296" lon="6.3932819241581615"><ele>843.8</ele><time>2026-05-01T13:49:09Z</time></trkpt><trkpt lat="44.44989238343948" lon="6.393216712096108"><ele>839.5999999999999</ele><time>2026-05-01T13:49:10Z</time></trkpt><trkpt lat="44.45001608399584" lon="6.3931557187661125"><ele>835.4000000000001</ele><time>2026-05-01T13:49:11Z</time></trkpt><trkpt lat="44.4501057599375" lon="6.393057085124913"><ele>831.2</ele><time>2026-05-01T13:49:12Z</time></trkpt><trkpt lat="44.45016276118094" lon="6.392949688352758"><ele>827.0</ele><time>2026-05-01T13:49:13Z</time></trkpt><trkpt lat="44.450250482555994" lon="6.392831475660328"><ele>827.0</ele><time>2026-05-01T13:49:14Z</time></trkpt><trkpt lat="44.4502172034889" lon="6.392613890741566"><ele>827.0</ele><time>2026-05-01T13:49:15Z</time></trkpt><trkpt lat="44.45015905334014" lon="6.392414332021671"><ele>827.0</ele><time>2026-05-01T13:49:16Z</time></trkpt><trkpt lat="44.45019495378471" lon="6.392252174722514"><ele>827.0</ele><time>2026-05-01T13:49:17Z</time></trkpt><trkpt lat="44.450262129882496" lon="6.392116148625627"><ele>827.0</ele><time>2026-05-01T13:49:18Z</time></trkpt><trkpt lat="44.45025777673128" lon="6.391966811611399"><ele>827.0</ele><time>2026-05-01T13:49:19Z</time></trkpt><trkpt lat="44.450365700332235" lon="6.39186088962583"><ele>827.0</ele><time>2026-05-01T13:49:20Z</time></trkpt><trkpt lat="44.45049434441455" lon="6.391785828026319"><ele>827.0</ele><time>2026-05-01T13:49:21Z</time></trkpt><trkpt lat="44.45065855330064" lon="6.391723320392559"><ele>824.6666666666667</ele><time>2026-05-01T13:49:22Z</time></trkpt><trkpt lat="44.450836484164164" lon="6.391649235991339"><ele>822.3333333333333</ele><time>2026-05-01T13:49:23Z</time></trkpt><trkpt lat="44.45099489374315" lon="6.391574760203667"><ele>820.0</ele><time>2026-05-01T13:49:24Z</time></trkpt><trkpt lat="44.451167425825446" lon="6.391474214266555"><ele>819.6666666666666</ele><time>2026-05-01T13:49:25Z</time></trkpt><trkpt lat="44.4513206503472" lon="6.391342251142019"><ele>819.3333333333333</ele><time>2026-05-01T13:49:26Z</time></trkpt><trkpt lat="44.45150189929611" lon="6.3911434223979855"><ele>819.0</ele><time>2026-05-01T13:49:27Z</time></trkpt><trkpt lat="44.451651641226135" lon="6.390963800044664"><ele>819.0</ele><time>2026-05-01T13:49:28Z</time></trkpt><trkpt lat="44.45180767560285" lon="6.390774317427439"><ele>819.0</ele><time>2026-05-01T13:49:29Z</time></trkpt><trkpt lat="44.45195573457729" lon="6.390598367639023"><ele>819.0</ele><time>2026-05-01T13:49:30Z</time></trkpt><trkpt lat="44.45209720445876" lon="6.39042248629428"><ele>812.3333333333333</ele><time>2026-05-01T13:49:31Z</time></trkpt><trkpt lat="44.45221026992897" lon="6.3902682639785775"><ele>805.6666666666666</ele><time>2026-05-01T13:49:32Z</time></trkpt><trkpt lat="44.45230590863853" lon="6.390067584021931"><ele>799.0</ele><time>2026-05-01T13:49:33Z</time></trkpt><trkpt lat="44.452391680776756" lon="6.3899116517748205"><ele>799.0</ele><time>2026-05-01T13:49:34Z</time></trkpt><trkpt lat="44.45244207765642" lon="6.389775096642713"><ele>799.0</ele><time>2026-05-01T13:49:35Z</time></trkpt><trkpt lat="44.45246963712149" lon="6.389617718873303"><ele>799.0</ele><time>2026-05-01T13:49:36Z</time></trkpt><trkpt lat="44.452464108996146" lon="6.38944639155349"><ele>799.0</ele><time>2026-05-01T13:49:37Z</time></trkpt><trkpt lat="44.452412568567155" lon="6.389343470879424"><ele>799.0</ele><time>2026-05-01T13:49:38Z</time></trkpt><trkpt lat="44.45237978897608" lon="6.389222525639483"><ele>798.3333333333333</ele><time>2026-05-01T13:49:39Z</time></trkpt><trkpt lat="44.452301801163834" lon="6.38902452410585"><ele>797.6666666666667</ele><time>2026-05-01T13:49:40Z</time></trkpt><trkpt lat="44.45220144078168" lon="6.388656384627329"><ele>797.0</ele><time>2026-05-01T13:49:41Z</time></trkpt><trkpt lat="44.452144675613475" lon="6.3883301006163045"><ele>795.0</ele><time>2026-05-01T13:49:42Z</time></trkpt><trkpt lat="44.452138762564374" lon="6.388086648042835"><ele>793.0</ele><time>2026-05-01T13:49:43Z</time></trkpt><trkpt lat="44.45216286241141" lon="6.387848652684528"><ele>791.0</ele><time>2026-05-01T13:49:44Z</time></trkpt><trkpt lat="44.45219440025246" lon="6.387577945454906"><ele>790.6666666666667</ele><time>2026-05-01T13:49:45Z</time></trkpt><trkpt lat="44.45222882541928" lon="6.387348455490462"><ele>790.3333333333333</ele><time>2026-05-01T13:49:46Z</time></trkpt><trkpt lat="44.4522509737225" lon="6.387120464071991"><ele>790.0</ele><time>2026-05-01T13:49:47Z</time></trkpt><trkpt lat="44.45230851121656" lon="6.386930996419388"><ele>790.0</ele><time>2026-05-01T13:49:48Z</time></trkpt><trkpt lat="44.45236326418751" lon="6.3867529065639745"><ele>790.0</ele><time>2026-05-01T13:49:49Z</time></trkpt><trkpt lat="44.452395991520135" lon="6.386660233432691"><ele>790.0</ele><time>2026-05-01T13:49:50Z</time></trkpt><trkpt lat="44.4524380673246" lon="6.386568841729585"><ele>790.0</ele><time>2026-05-01T13:49:51Z</time></trkpt><trkpt lat="44.452495803412944" lon="6.38648703085229"><ele>790.0</ele><time>2026-05-01T13:49:52Z</time></trkpt><trkpt lat="44.45263388385632" lon="6.386400721120706"><ele>790.0</ele><time>2026-05-01T13:49:54Z</time></trkpt><trkpt lat="44.452787003491316" lon="6.386426999097781"><ele>790.0</ele><time>2026-05-01T13:49:55Z</time></trkpt><trkpt lat="44.452896666565344" lon="6.386441653746314"><ele>790.0</ele><time>2026-05-01T13:49:56Z</time></trkpt><trkpt lat="44.4530012232168" lon="6.386477593411232"><ele>790.0</ele><time>2026-05-01T13:49:57Z</time></trkpt><trkpt lat="44.4531170165882" lon="6.386499398671715"><ele>786.5</ele><time>2026-05-01T13:49:58Z</time></trkpt><trkpt lat="44.45322721218723" lon="6.386566750498731"><ele>783.0</ele><time>2026-05-01T13:49:59Z</time></trkpt><trkpt lat="44.45333719858623" lon="6.386580970988861"><ele>779.5</ele><time>2026-05-01T13:50:00Z</time></trkpt><trkpt lat="44.453463836831375" lon="6.386604797015321"><ele>776.0</ele><time>2026-05-01T13:50:01Z</time></trkpt><trkpt lat="44.45360008947696" lon="6.38663228387524"><ele>776.0</ele><time>2026-05-01T13:50:02Z</time></trkpt><trkpt lat="44.45375867726803" lon="6.386683476724655"><ele>776.0</ele><time>2026-05-01T13:50:03Z</time></trkpt><trkpt lat="44.45391828557875" lon="6.386742407257794"><ele>776.0</ele><time>2026-05-01T13:50:04Z</time></trkpt><trkpt lat="44.454080941540106" lon="6.386781986385268"><ele>780.0</ele><time>2026-05-01T13:50:05Z</time></trkpt><trkpt lat="44.45425147284468" lon="6.386818562098184"><ele>784.0</ele><time>2026-05-01T13:50:06Z</time></trkpt><trkpt lat="44.45447827217633" lon="6.386878001591249"><ele>788.0</ele><time>2026-05-01T13:50:07Z</time></trkpt><trkpt lat="44.45466028209118" lon="6.386926427131439"><ele>790.6666666666667</ele><time>2026-05-01T13:50:08Z</time></trkpt><trkpt lat="44.45484569278423" lon="6.3869920508278915"><ele>793.3333333333333</ele><time>2026-05-01T13:50:09Z</time></trkpt><trkpt lat="44.45502434694652" lon="6.38700269856601"><ele>796.0</ele><time>2026-05-01T13:50:10Z</time></trkpt><trkpt lat="44.45519528404313" lon="6.3869630456848245"><ele>796.0</ele><time>2026-05-01T13:50:11Z</time></trkpt><trkpt lat="44.45538079005339" lon="6.386911415411878"><ele>796.0</ele><time>2026-05-01T13:50:12Z</time></trkpt><trkpt lat="44.45554337105644" lon="6.3868026554321125"><ele>796.0</ele><time>2026-05-01T13:50:13Z</time></trkpt><trkpt lat="44.45574155479419" lon="6.3866485248534195"><ele>792.5</ele><time>2026-05-01T13:50:14Z</time></trkpt><trkpt lat="44.455977982649934" lon="6.386475654770096"><ele>789.0</ele><time>2026-05-01T13:50:15Z</time></trkpt><trkpt lat="44.4561535555724" lon="6.38633732093424"><ele>789.0</ele><time>2026-05-01T13:50:16Z</time></trkpt><trkpt lat="44.45628343465257" lon="6.386208709518385"><ele>789.0</ele><time>2026-05-01T13:50:17Z</time></trkpt><trkpt lat="44.45642217339445" lon="6.386075079430487"><ele>789.0</ele><time>2026-05-01T13:50:18Z</time></trkpt><trkpt lat="44.45655539584062" lon="6.385920290772395"><ele>790.6666666666667</ele><time>2026-05-01T13:50:19Z</time></trkpt><trkpt lat="44.456675099358556" lon="6.385707431188171"><ele>792.3333333333334</ele><time>2026-05-01T13:50:20Z</time></trkpt><trkpt lat="44.45678834217819" lon="6.3854904098105285"><ele>794.0</ele><time>2026-05-01T13:50:21Z</time></trkpt><trkpt lat="44.456909337643914" lon="6.385300411038715"><ele>794.0</ele><time>2026-05-01T13:50:22Z</time></trkpt><trkpt lat="44.45702685002468" lon="6.385084743143243"><ele>794.0</ele><time>2026-05-01T13:50:23Z</time></trkpt><trkpt lat="44.45709669393397" lon="6.384833874495826"><ele>794.0</ele><time>2026-05-01T13:50:24Z</time></trkpt><trkpt lat="44.457176939974865" lon="6.384530747653495"><ele>800.0</ele><time>2026-05-01T13:50:25Z</time></trkpt><trkpt lat="44.45722070218034" lon="6.384236656929073"><ele>806.0</ele><time>2026-05-01T13:50:26Z</time></trkpt><trkpt lat="44.45726376285128" lon="6.383938864392327"><ele>812.0</ele><time>2026-05-01T13:50:27Z</time></trkpt><trkpt lat="44.457268446148014" lon="6.383571260166299"><ele>812.0</ele><time>2026-05-01T13:50:28Z</time></trkpt><trkpt lat="44.457289071861055" lon="6.3832113141084195"><ele>812.0</ele><time>2026-05-01T13:50:29Z</time></trkpt><trkpt lat="44.457306179369475" lon="6.382901447872913"><ele>811.0</ele><time>2026-05-01T13:50:30Z</time></trkpt><trkpt lat="44.45730978580292" lon="6.382602119800538"><ele>810.0</ele><time>2026-05-01T13:50:31Z</time></trkpt><trkpt lat="44.45733712026174" lon="6.382324328531611"><ele>809.0</ele><time>2026-05-01T13:50:32Z</time></trkpt><trkpt lat="44.45736245148932" lon="6.382070824212873"><ele>807.0</ele><time>2026-05-01T13:50:33Z</time></trkpt><trkpt lat="44.45739223731422" lon="6.381839544408368"><ele>805.0</ele><time>2026-05-01T13:50:34Z</time></trkpt><trkpt lat="44.4574755322157" lon="6.381653521078975"><ele>803.0</ele><time>2026-05-01T13:50:35Z</time></trkpt><trkpt lat="44.4575683957677" lon="6.381465517054771"><ele>802.3333333333334</ele><time>2026-05-01T13:50:36Z</time></trkpt><trkpt lat="44.45764788045439" lon="6.381254516064452"><ele>801.6666666666667</ele><time>2026-05-01T13:50:37Z</time></trkpt><trkpt lat="44.457752944396724" lon="6.381069986025202"><ele>801.0</ele><time>2026-05-01T13:50:38Z</time></trkpt><trkpt lat="44.45784028995895" lon="6.380875094834207"><ele>801.0</ele><time>2026-05-01T13:50:39Z</time></trkpt><trkpt lat="44.45793196927946" lon="6.380687815611518"><ele>801.0</ele><time>2026-05-01T13:50:40Z</time></trkpt><trkpt lat="44.45801533056455" lon="6.380491437596844"><ele>801.0</ele><time>2026-05-01T13:50:41Z</time></trkpt><trkpt lat="44.45810430130248" lon="6.3802942560271685"><ele>815.0</ele><time>2026-05-01T13:50:42.016Z</time></trkpt><trkpt lat="44.45820711225986" lon="6.380116881437679"><ele>829.0</ele><time>2026-05-01T13:50:43.023Z</time></trkpt><trkpt lat="44.45829516467719" lon="6.379931309148544"><ele>843.0</ele><time>2026-05-01T13:50:44.023Z</time></trkpt><trkpt lat="44.45838455153252" lon="6.379748230345935"><ele>814.0</ele><time>2026-05-01T13:50:45.009Z</time></trkpt><trkpt lat="44.458839646581986" lon="6.3788417168021"><ele>814.0</ele><time>2026-05-01T13:50:50Z</time></trkpt><trkpt lat="44.45893346481963" lon="6.378640364282028"><ele>814.0</ele><time>2026-05-01T13:50:51Z</time></trkpt><trkpt lat="44.45900323264484" lon="6.378454087498338"><ele>814.0</ele><time>2026-05-01T13:50:52Z</time></trkpt><trkpt lat="44.45912128085265" lon="6.3782053333664726"><ele>806.3333333333333</ele><time>2026-05-01T13:50:53Z</time></trkpt><trkpt lat="44.45925229951996" lon="6.377936106165116"><ele>798.6666666666667</ele><time>2026-05-01T13:50:54Z</time></trkpt><trkpt lat="44.45935936787023" lon="6.377717194515997"><ele>791.0</ele><time>2026-05-01T13:50:55Z</time></trkpt><trkpt lat="44.45945672447874" lon="6.377510516891956"><ele>791.0</ele><time>2026-05-01T13:50:56Z</time></trkpt><trkpt lat="44.45952763823472" lon="6.377320834453241"><ele>791.0</ele><time>2026-05-01T13:50:57Z</time></trkpt><trkpt lat="44.45961536026793" lon="6.377108693058455"><ele>791.0</ele><time>2026-05-01T13:50:58Z</time></trkpt><trkpt lat="44.459693572166294" lon="6.376825473667008"><ele>790.6666666666667</ele><time>2026-05-01T13:50:59Z</time></trkpt><trkpt lat="44.45974062061665" lon="6.376619258168138"><ele>790.3333333333333</ele><time>2026-05-01T13:51:00Z</time></trkpt><trkpt lat="44.45977813045034" lon="6.376394103597719"><ele>790.0</ele><time>2026-05-01T13:51:01Z</time></trkpt><trkpt lat="44.459797813543055" lon="6.376133214683954"><ele>790.0</ele><time>2026-05-01T13:51:02Z</time></trkpt><trkpt lat="44.4598110490037" lon="6.375885682486077"><ele>790.0</ele><time>2026-05-01T13:51:03Z</time></trkpt><trkpt lat="44.45988346814881" lon="6.375603766148618"><ele>790.0</ele><time>2026-05-01T13:51:04Z</time></trkpt><trkpt lat="44.459959090750196" lon="6.375290138879471"><ele>788.3333333333333</ele><time>2026-05-01T13:51:05Z</time></trkpt><trkpt lat="44.46003910352038" lon="6.375006431850026"><ele>786.6666666666667</ele><time>2026-05-01T13:51:06Z</time></trkpt><trkpt lat="44.46011235876684" lon="6.3747349505866335"><ele>785.0</ele><time>2026-05-01T13:51:07Z</time></trkpt><trkpt lat="44.460185106362985" lon="6.374503921895505"><ele>785.3333333333334</ele><time>2026-05-01T13:51:08Z</time></trkpt><trkpt lat="44.460267415885426" lon="6.374244824014184"><ele>785.6666666666667</ele><time>2026-05-01T13:51:09Z</time></trkpt><trkpt lat="44.460385053377486" lon="6.374014492104309"><ele>786.0</ele><time>2026-05-01T13:51:10Z</time></trkpt><trkpt lat="44.460573795258256" lon="6.373841429267404"><ele>786.0</ele><time>2026-05-01T13:51:11Z</time></trkpt><trkpt lat="44.46072413009513" lon="6.373614913031528"><ele>786.0</ele><time>2026-05-01T13:51:12Z</time></trkpt><trkpt lat="44.46088481560693" lon="6.373371797894046"><ele>786.0</ele><time>2026-05-01T13:51:13Z</time></trkpt><trkpt lat="44.46105016406269" lon="6.373131046055385"><ele>786.0</ele><time>2026-05-01T13:51:14Z</time></trkpt><trkpt lat="44.46120370824492" lon="6.372897257589268"><ele>793.0</ele><time>2026-05-01T13:51:15Z</time></trkpt><trkpt lat="44.461356399701785" lon="6.372662530921995"><ele>800.0</ele><time>2026-05-01T13:51:16Z</time></trkpt><trkpt lat="44.46148678402296" lon="6.372446547297201"><ele>807.0</ele><time>2026-05-01T13:51:17Z</time></trkpt><trkpt lat="44.46160551410231" lon="6.372230860511294"><ele>802.6666666666667</ele><time>2026-05-01T13:51:18Z</time></trkpt><trkpt lat="44.46172391494183" lon="6.372027230273666"><ele>798.3333333333334</ele><time>2026-05-01T13:51:19Z</time></trkpt><trkpt lat="44.46177864116449" lon="6.371760673315872"><ele>794.0</ele><time>2026-05-01T13:51:20Z</time></trkpt><trkpt lat="44.46183001338766" lon="6.371489204266113"><ele>791.6666666666667</ele><time>2026-05-01T13:51:21Z</time></trkpt><trkpt lat="44.46184898682894" lon="6.371219788070924"><ele>789.3333333333333</ele><time>2026-05-01T13:51:22Z</time></trkpt><trkpt lat="44.46184062094773" lon="6.3709448783702065"><ele>787.0</ele><time>2026-05-01T13:51:23Z</time></trkpt><trkpt lat="44.46187505524896" lon="6.370718221799904"><ele>784.3333333333333</ele><time>2026-05-01T13:51:24Z</time></trkpt><trkpt lat="44.4619058820621" lon="6.370493273698097"><ele>781.6666666666667</ele><time>2026-05-01T13:51:25Z</time></trkpt><trkpt lat="44.46197195992966" lon="6.370294587433028"><ele>779.0</ele><time>2026-05-01T13:51:26Z</time></trkpt><trkpt lat="44.46204281056628" lon="6.370112312539529"><ele>782.0</ele><time>2026-05-01T13:51:27Z</time></trkpt><trkpt lat="44.46213785177887" lon="6.3699508714480615"><ele>785.0</ele><time>2026-05-01T13:51:28Z</time></trkpt><trkpt lat="44.462247638678" lon="6.369786413167464"><ele>788.0</ele><time>2026-05-01T13:51:29Z</time></trkpt><trkpt lat="44.46237749605164" lon="6.369599607104959"><ele>788.0</ele><time>2026-05-01T13:51:30Z</time></trkpt><trkpt lat="44.462518292586196" lon="6.369403018993111"><ele>788.0</ele><time>2026-05-01T13:51:31Z</time></trkpt><trkpt lat="44.462663253148115" lon="6.369185841942028"><ele>788.0</ele><time>2026-05-01T13:51:32Z</time></trkpt><trkpt lat="44.46282716059866" lon="6.368970927244689"><ele>789.3333333333334</ele><time>2026-05-01T13:51:33Z</time></trkpt><trkpt lat="44.46296456896579" lon="6.368730949224823"><ele>790.6666666666667</ele><time>2026-05-01T13:51:34Z</time></trkpt><trkpt lat="44.4631134262003" lon="6.368547780280167"><ele>792.0</ele><time>2026-05-01T13:51:35Z</time></trkpt><trkpt lat="44.46325330202884" lon="6.368374279426754"><ele>792.0</ele><time>2026-05-01T13:51:36Z</time></trkpt><trkpt lat="44.46338871188804" lon="6.368197437315045"><ele>792.0</ele><time>2026-05-01T13:51:37Z</time></trkpt><trkpt lat="44.46352541431865" lon="6.3680075057791266"><ele>792.0</ele><time>2026-05-01T13:51:38Z</time></trkpt><trkpt lat="44.463638225460926" lon="6.36782355897054"><ele>794.6666666666667</ele><time>2026-05-01T13:51:39Z</time></trkpt><trkpt lat="44.46375907500578" lon="6.367659606069867"><ele>797.3333333333334</ele><time>2026-05-01T13:51:40Z</time></trkpt><trkpt lat="44.46386355149846" lon="6.367502341204188"><ele>800.0</ele><time>2026-05-01T13:51:41Z</time></trkpt><trkpt lat="44.463939669691044" lon="6.367336408150594"><ele>803.3333333333334</ele><time>2026-05-01T13:51:42Z</time></trkpt><trkpt lat="44.4639863466492" lon="6.367150015218283"><ele>806.6666666666667</ele><time>2026-05-01T13:51:43Z</time></trkpt><trkpt lat="44.463993907733446" lon="6.366944583760296"><ele>810.0</ele><time>2026-05-01T13:51:44Z</time></trkpt><trkpt lat="44.463959966409824" lon="6.366654577927584"><ele>810.0</ele><time>2026-05-01T13:51:45Z</time></trkpt><trkpt lat="44.463889904999796" lon="6.366432941259192"><ele>810.0</ele><time>2026-05-01T13:51:46Z</time></trkpt><trkpt lat="44.46381231086629" lon="6.366231307982215"><ele>810.0</ele><time>2026-05-01T13:51:47Z</time></trkpt><trkpt lat="44.46370062773927" lon="6.366044838905233"><ele>808.6666666666667</ele><time>2026-05-01T13:51:48Z</time></trkpt><trkpt lat="44.463580306101434" lon="6.365832148893422"><ele>807.3333333333334</ele><time>2026-05-01T13:51:49Z</time></trkpt><trkpt lat="44.46345126142219" lon="6.365620687605109"><ele>806.0</ele><time>2026-05-01T13:51:50Z</time></trkpt><trkpt lat="44.46332646113824" lon="6.365399237949175"><ele>806.0</ele><time>2026-05-01T13:51:51Z</time></trkpt><trkpt lat="44.46321607184831" lon="6.3651643355243746"><ele>806.0</ele><time>2026-05-01T13:51:52Z</time></trkpt><trkpt lat="44.4631458542183" lon="6.364936682842733"><ele>806.0</ele><time>2026-05-01T13:51:53Z</time></trkpt><trkpt lat="44.4630750222964" lon="6.36468780377508"><ele>810.3333333333334</ele><time>2026-05-01T13:51:54Z</time></trkpt><trkpt lat="44.46304928508603" lon="6.364426003801794"><ele>814.6666666666667</ele><time>2026-05-01T13:51:55Z</time></trkpt><trkpt lat="44.462996825130034" lon="6.364139292065022"><ele>819.0</ele><time>2026-05-01T13:51:56Z</time></trkpt><trkpt lat="44.46295472054265" lon="6.363848469984124"><ele>805.0</ele><time>2026-05-01T13:51:57Z</time></trkpt><trkpt lat="44.46292170447829" lon="6.363573114628885"><ele>791.0</ele><time>2026-05-01T13:51:58Z</time></trkpt><trkpt lat="44.46288596767987" lon="6.36331933187326"><ele>777.0</ele><time>2026-05-01T13:51:59Z</time></trkpt><trkpt lat="44.462885184746455" lon="6.3630712599748955"><ele>775.0</ele><time>2026-05-01T13:52:00Z</time></trkpt><trkpt lat="44.46290781326904" lon="6.362909210541884"><ele>773.0</ele><time>2026-05-01T13:52:01Z</time></trkpt><trkpt lat="44.462945248534076" lon="6.362751962079884"><ele>771.0</ele><time>2026-05-01T13:52:02Z</time></trkpt><trkpt lat="44.46302247010821" lon="6.362602847661283"><ele>769.0</ele><time>2026-05-01T13:52:03Z</time></trkpt><trkpt lat="44.46311850621476" lon="6.362480572459999"><ele>778.0</ele><time>2026-05-01T13:52:04Z</time></trkpt><trkpt lat="44.463240773988794" lon="6.362375212822871"><ele>787.0</ele><time>2026-05-01T13:52:05Z</time></trkpt><trkpt lat="44.46338744201053" lon="6.362297267310189"><ele>796.0</ele><time>2026-05-01T13:52:06Z</time></trkpt><trkpt lat="44.46355081313235" lon="6.362211251971539"><ele>794.3333333333333</ele><time>2026-05-01T13:52:07Z</time></trkpt><trkpt lat="44.46372311903338" lon="6.3621209304647905"><ele>792.6666666666667</ele><time>2026-05-01T13:52:08Z</time></trkpt><trkpt lat="44.463896544975725" lon="6.362025864988688"><ele>791.0</ele><time>2026-05-01T13:52:09Z</time></trkpt><trkpt lat="44.464071480754214" lon="6.36193103986023"><ele>791.0</ele><time>2026-05-01T13:52:10Z</time></trkpt><trkpt lat="44.464260056346895" lon="6.361829421600515"><ele>791.0</ele><time>2026-05-01T13:52:11Z</time></trkpt><trkpt lat="44.46442909973341" lon="6.361736685705696"><ele>791.0</ele><time>2026-05-01T13:52:12Z</time></trkpt><trkpt lat="44.46460275886989" lon="6.361642994213177"><ele>790.3333333333334</ele><time>2026-05-01T13:52:13Z</time></trkpt><trkpt lat="44.46475091583793" lon="6.361537505670101"><ele>789.6666666666667</ele><time>2026-05-01T13:52:14Z</time></trkpt><trkpt lat="44.46491166745551" lon="6.361465411413009"><ele>789.0</ele><time>2026-05-01T13:52:15Z</time></trkpt><trkpt lat="44.46503321941236" lon="6.3613539976605"><ele>789.0</ele><time>2026-05-01T13:52:16Z</time></trkpt><trkpt lat="44.46516369062916" lon="6.3612455532529095"><ele>789.0</ele><time>2026-05-01T13:52:17Z</time></trkpt><trkpt lat="44.46524984281984" lon="6.361011503836287"><ele>789.0</ele><time>2026-05-01T13:52:18Z</time></trkpt><trkpt lat="44.46532213236719" lon="6.360847466256347"><ele>789.0</ele><time>2026-05-01T13:52:19Z</time></trkpt><trkpt lat="44.46536997678829" lon="6.360629740412564"><ele>789.0</ele><time>2026-05-01T13:52:20Z</time></trkpt><trkpt lat="44.46533518142551" lon="6.360410413162887"><ele>789.0</ele><time>2026-05-01T13:52:21Z</time></trkpt><trkpt lat="44.465325321290045" lon="6.3601905034799415"><ele>789.3333333333333</ele><time>2026-05-01T13:52:22Z</time></trkpt><trkpt lat="44.46530307464344" lon="6.359968566682441"><ele>789.6666666666666</ele><time>2026-05-01T13:52:23Z</time></trkpt><trkpt lat="44.465256935536615" lon="6.359688466890395"><ele>790.0</ele><time>2026-05-01T13:52:24Z</time></trkpt><trkpt lat="44.465202304151234" lon="6.359443357631229"><ele>792.3333333333333</ele><time>2026-05-01T13:52:25Z</time></trkpt><trkpt lat="44.46514622561076" lon="6.359141640416655"><ele>794.6666666666667</ele><time>2026-05-01T13:52:26Z</time></trkpt><trkpt lat="44.46508814055284" lon="6.35887344634809"><ele>797.0</ele><time>2026-05-01T13:52:27Z</time></trkpt><trkpt lat="44.46505090740883" lon="6.3585937982853"><ele>798.3333333333334</ele><time>2026-05-01T13:52:28Z</time></trkpt><trkpt lat="44.46500267965081" lon="6.358320467151992"><ele>799.6666666666667</ele><time>2026-05-01T13:52:29Z</time></trkpt><trkpt lat="44.46498153023285" lon="6.35805086552798"><ele>801.0</ele><time>2026-05-01T13:52:30Z</time></trkpt><trkpt lat="44.464947469186036" lon="6.357788102400068"><ele>801.6666666666667</ele><time>2026-05-01T13:52:31Z</time></trkpt><trkpt lat="44.46493475398706" lon="6.3575674142185745"><ele>802.3333333333334</ele><time>2026-05-01T13:52:32Z</time></trkpt><trkpt lat="44.46494441312889" lon="6.357356258515747"><ele>803.0</ele><time>2026-05-01T13:52:33Z</time></trkpt><trkpt lat="44.464976180625385" lon="6.357131754215149"><ele>803.0</ele><time>2026-05-01T13:52:34Z</time></trkpt><trkpt lat="44.46502387129805" lon="6.356903513686854"><ele>803.0</ele><time>2026-05-01T13:52:35Z</time></trkpt><trkpt lat="44.46508149712931" lon="6.3566545423946215"><ele>803.0</ele><time>2026-05-01T13:52:36Z</time></trkpt><trkpt lat="44.465141090115" lon="6.356396744063327"><ele>799.6666666666667</ele><time>2026-05-01T13:52:37Z</time></trkpt><trkpt lat="44.46520621968185" lon="6.356111897581648"><ele>796.3333333333333</ele><time>2026-05-01T13:52:38Z</time></trkpt><trkpt lat="44.46527243841066" lon="6.355820091890615"><ele>793.0</ele><time>2026-05-01T13:52:39Z</time></trkpt><trkpt lat="44.46533204317258" lon="6.3555501801394145"><ele>790.0</ele><time>2026-05-01T13:52:40Z</time></trkpt><trkpt lat="44.46539191296019" lon="6.355278320042245"><ele>787.0</ele><time>2026-05-01T13:52:41Z</time></trkpt><trkpt lat="44.4654521983457" lon="6.355004572826085"><ele>784.0</ele><time>2026-05-01T13:52:42Z</time></trkpt><trkpt lat="44.4655160630932" lon="6.354722513662814"><ele>791.6666666666666</ele><time>2026-05-01T13:52:43Z</time></trkpt><trkpt lat="44.46557603331916" lon="6.354456198380897"><ele>799.3333333333333</ele><time>2026-05-01T13:52:44Z</time></trkpt><trkpt lat="44.46563705242044" lon="6.354207071390285"><ele>807.0</ele><time>2026-05-01T13:52:45Z</time></trkpt><trkpt lat="44.46571516700328" lon="6.353984117814728"><ele>804.0</ele><time>2026-05-01T13:52:46Z</time></trkpt><trkpt lat="44.465804706336606" lon="6.353779534576907"><ele>801.0</ele><time>2026-05-01T13:52:47Z</time></trkpt><trkpt lat="44.46592478762476" lon="6.3535783767238225"><ele>798.0</ele><time>2026-05-01T13:52:48Z</time></trkpt><trkpt lat="44.466047576214265" lon="6.353425899947639"><ele>798.0</ele><time>2026-05-01T13:52:49Z</time></trkpt><trkpt lat="44.4661558347166" lon="6.353311145834088"><ele>798.0</ele><time>2026-05-01T13:52:50Z</time></trkpt><trkpt lat="44.4662830553716" lon="6.353205765612485"><ele>798.0</ele><time>2026-05-01T13:52:51Z</time></trkpt><trkpt lat="44.466434839005" lon="6.353120620142071"><ele>798.0</ele><time>2026-05-01T13:52:52Z</time></trkpt><trkpt lat="44.466588685255985" lon="6.353047938899529"><ele>795.3333333333333</ele><time>2026-05-01T13:52:53Z</time></trkpt><trkpt lat="44.466756455070914" lon="6.352975986473879"><ele>792.6666666666666</ele><time>2026-05-01T13:52:54Z</time></trkpt><trkpt lat="44.46690269867807" lon="6.352901648357551"><ele>790.0</ele><time>2026-05-01T13:52:55Z</time></trkpt><trkpt lat="44.46703803955714" lon="6.352809611834665"><ele>793.25</ele><time>2026-05-01T13:52:56Z</time></trkpt><trkpt lat="44.46714429965178" lon="6.3527118137699965"><ele>796.5</ele><time>2026-05-01T13:52:57Z</time></trkpt><trkpt lat="44.46721536566383" lon="6.352560263893694"><ele>799.75</ele><time>2026-05-01T13:52:58Z</time></trkpt><trkpt lat="44.46726369896454" lon="6.352387384592605"><ele>803.0</ele><time>2026-05-01T13:52:59Z</time></trkpt><trkpt lat="44.46727544957535" lon="6.352184290698287"><ele>803.0</ele><time>2026-05-01T13:53:00Z</time></trkpt><trkpt lat="44.46730712549645" lon="6.3519216293690475"><ele>803.0</ele><time>2026-05-01T13:53:01Z</time></trkpt><trkpt lat="44.46735993390736" lon="6.3515905146034575"><ele>803.0</ele><time>2026-05-01T13:53:02Z</time></trkpt><trkpt lat="44.467428957859426" lon="6.3512881128730125"><ele>801.6666666666667</ele><time>2026-05-01T13:53:03Z</time></trkpt><trkpt lat="44.46750746958747" lon="6.351013052741442"><ele>800.3333333333333</ele><time>2026-05-01T13:53:04Z</time></trkpt><trkpt lat="44.467529040282535" lon="6.350724905084748"><ele>799.0</ele><time>2026-05-01T13:53:05Z</time></trkpt><trkpt lat="44.467565495277675" lon="6.350486760964127"><ele>798.25</ele><time>2026-05-01T13:53:06Z</time></trkpt><trkpt lat="44.4675488646469" lon="6.350321384212607"><ele>797.5</ele><time>2026-05-01T13:53:07Z</time></trkpt><trkpt lat="44.46750618982271" lon="6.350122031744056"><ele>796.75</ele><time>2026-05-01T13:53:08Z</time></trkpt><trkpt lat="44.46744100821527" lon="6.349941791649752"><ele>796.0</ele><time>2026-05-01T13:53:09Z</time></trkpt><trkpt lat="44.46738707388101" lon="6.349789049039209"><ele>798.5999999999999</ele><time>2026-05-01T13:53:10Z</time></trkpt><trkpt lat="44.467332238712686" lon="6.349647282897079"><ele>801.2</ele><time>2026-05-01T13:53:11Z</time></trkpt><trkpt lat="44.467271931114574" lon="6.349536478813328"><ele>803.8</ele><time>2026-05-01T13:53:12Z</time></trkpt><trkpt lat="44.467221669386284" lon="6.349424422938372"><ele>806.4000000000001</ele><time>2026-05-01T13:53:13Z</time></trkpt><trkpt lat="44.467186596638406" lon="6.349279854274396"><ele>809.0</ele><time>2026-05-01T13:53:14Z</time></trkpt><trkpt lat="44.46721415637715" lon="6.349129118757567"><ele>809.0</ele><time>2026-05-01T13:53:15Z</time></trkpt><trkpt lat="44.46724677021641" lon="6.348999923182486"><ele>809.0</ele><time>2026-05-01T13:53:16Z</time></trkpt><trkpt lat="44.46731847612693" lon="6.3488307271577265"><ele>809.0</ele><time>2026-05-01T13:53:17Z</time></trkpt><trkpt lat="44.46741349281163" lon="6.348630975253545"><ele>809.0</ele><time>2026-05-01T13:53:18Z</time></trkpt><trkpt lat="44.46749687661953" lon="6.348419946784272"><ele>806.0</ele><time>2026-05-01T13:53:19Z</time></trkpt><trkpt lat="44.467553026245675" lon="6.348203819925005"><ele>803.0</ele><time>2026-05-01T13:53:20Z</time></trkpt><trkpt lat="44.467608220324934" lon="6.3479572902425465"><ele>800.0</ele><time>2026-05-01T13:53:21Z</time></trkpt><trkpt lat="44.467633204353824" lon="6.347667126776571"><ele>797.3333333333334</ele><time>2026-05-01T13:53:22Z</time></trkpt><trkpt lat="44.46766517677137" lon="6.347409172902732"><ele>794.6666666666667</ele><time>2026-05-01T13:53:23Z</time></trkpt><trkpt lat="44.467720998121415" lon="6.347192765843454"><ele>792.0</ele><time>2026-05-01T13:53:24Z</time></trkpt><trkpt lat="44.46777004834305" lon="6.347011062363737"><ele>792.75</ele><time>2026-05-01T13:53:25Z</time></trkpt><trkpt lat="44.46782639010899" lon="6.34687545706807"><ele>793.5</ele><time>2026-05-01T13:53:26Z</time></trkpt><trkpt lat="44.467910225931526" lon="6.346809719581059"><ele>794.25</ele><time>2026-05-01T13:53:27Z</time></trkpt><trkpt lat="44.46800806437259" lon="6.346762850623097"><ele>795.0</ele><time>2026-05-01T13:53:28Z</time></trkpt><trkpt lat="44.46816127666502" lon="6.346690623441895"><ele>795.0</ele><time>2026-05-01T13:53:29Z</time></trkpt><trkpt lat="44.46829099621396" lon="6.346621366431636"><ele>795.0</ele><time>2026-05-01T13:53:30Z</time></trkpt><trkpt lat="44.468399253955994" lon="6.346515659602374"><ele>795.0</ele><time>2026-05-01T13:53:31Z</time></trkpt><trkpt lat="44.46849189024897" lon="6.3464219188593844"><ele>795.0</ele><time>2026-05-01T13:53:32Z</time></trkpt><trkpt lat="44.46855350495047" lon="6.346320128980653"><ele>795.75</ele><time>2026-05-01T13:53:33Z</time></trkpt><trkpt lat="44.46854490294822" lon="6.346153411710344"><ele>796.5</ele><time>2026-05-01T13:53:34Z</time></trkpt><trkpt lat="44.468523022038156" lon="6.346005243457895"><ele>797.25</ele><time>2026-05-01T13:53:35Z</time></trkpt><trkpt lat="44.46848645582658" lon="6.345877753303768"><ele>798.0</ele><time>2026-05-01T13:53:36Z</time></trkpt><trkpt lat="44.4683406948507" lon="6.345732587511491"><ele>798.0</ele><time>2026-05-01T13:53:37Z</time></trkpt><trkpt lat="44.468220319133515" lon="6.345681784935738"><ele>798.0</ele><time>2026-05-01T13:53:38Z</time></trkpt><trkpt lat="44.46808054387808" lon="6.3456356934111815"><ele>798.0</ele><time>2026-05-01T13:53:39Z</time></trkpt><trkpt lat="44.46791643240038" lon="6.345598484990335"><ele>798.0</ele><time>2026-05-01T13:53:40Z</time></trkpt><trkpt lat="44.46778478346333" lon="6.3455746054391495"><ele>799.3333333333334</ele><time>2026-05-01T13:53:41Z</time></trkpt><trkpt lat="44.46765925289887" lon="6.345543221064564"><ele>800.6666666666667</ele><time>2026-05-01T13:53:42Z</time></trkpt><trkpt lat="44.46758029470539" lon="6.345551321466103"><ele>802.0</ele><time>2026-05-01T13:53:43Z</time></trkpt><trkpt lat="44.467500054769694" lon="6.345518619302081"><ele>803.3333333333334</ele><time>2026-05-01T13:53:44Z</time></trkpt><trkpt lat="44.467433709511305" lon="6.3455186230033425"><ele>804.6666666666667</ele><time>2026-05-01T13:53:45Z</time></trkpt><trkpt lat="44.46734497738947" lon="6.3454901578354415"><ele>806.0</ele><time>2026-05-01T13:53:47Z</time></trkpt><trkpt lat="44.46727533645748" lon="6.345476394752122"><ele>806.0</ele><time>2026-05-01T13:53:49Z</time></trkpt><trkpt lat="44.46718189113306" lon="6.345444732248743"><ele>806.0</ele><time>2026-05-01T13:53:51Z</time></trkpt><trkpt lat="44.467098071379056" lon="6.345406760308337"><ele>806.0</ele><time>2026-05-01T13:53:53Z</time></trkpt><trkpt lat="44.46703056354134" lon="6.345352604008654"><ele>806.0</ele><time>2026-05-01T13:53:55Z</time></trkpt><trkpt lat="44.46699994369952" lon="6.345263098476416"><ele>806.0</ele><time>2026-05-01T13:53:59Z</time></trkpt><trkpt lat="44.466825788046556" lon="6.345485924049463"><ele>786.0</ele><time>2026-05-01T13:58:42Z</time></trkpt></trkseg><trkseg><trkpt lat="44.46680484524801" lon="6.345394873662122"><ele>786.0</ele><time>2026-05-01T14:47:21Z</time></trkpt><trkpt lat="44.46680820803593" lon="6.345296265355071"><ele>786.0</ele><time>2026-05-01T14:47:23Z</time></trkpt><trkpt lat="44.4668198967137" lon="6.345198212698496"><ele>786.0</ele><time>2026-05-01T14:47:25Z</time></trkpt><trkpt lat="44.46681167335665" lon="6.345057803215556"><ele>786.0</ele><time>2026-05-01T14:47:28Z</time></trkpt><trkpt lat="44.46680479006639" lon="6.344913222587496"><ele>786.0</ele><time>2026-05-01T14:47:31Z</time></trkpt><trkpt lat="44.46681757410026" lon="6.344813512332743"><ele>786.0</ele><time>2026-05-01T14:47:33Z</time></trkpt><trkpt lat="44.46684752546816" lon="6.344735312544783"><ele>784.8</ele><time>2026-05-01T14:47:35Z</time></trkpt><trkpt lat="44.46689885266135" lon="6.344673599928929"><ele>783.5999999999999</ele><time>2026-05-01T14:47:36Z</time></trkpt><trkpt lat="44.46695314285496" lon="6.344561000707802"><ele>782.4</ele><time>2026-05-01T14:47:38Z</time></trkpt><trkpt lat="44.46699542296822" lon="6.344482865446989"><ele>781.2</ele><time>2026-05-01T14:47:39Z</time></trkpt><trkpt lat="44.46704430806918" lon="6.34427036752343"><ele>780.0</ele><time>2026-05-01T14:47:41Z</time></trkpt><trkpt lat="44.467072442843815" lon="6.344136783916543"><ele>780.0</ele><time>2026-05-01T14:47:42Z</time></trkpt><trkpt lat="44.46709948920665" lon="6.34398714750429"><ele>780.0</ele><time>2026-05-01T14:47:43Z</time></trkpt><trkpt lat="44.46710768087375" lon="6.343841437276694"><ele>780.0</ele><time>2026-05-01T14:47:44Z</time></trkpt><trkpt lat="44.46717010682506" lon="6.34368705668741"><ele>780.0</ele><time>2026-05-01T14:47:45Z</time></trkpt><trkpt lat="44.467201049888345" lon="6.343535322194803"><ele>785.75</ele><time>2026-05-01T14:47:46Z</time></trkpt><trkpt lat="44.46723256357792" lon="6.343370963910231"><ele>791.5</ele><time>2026-05-01T14:47:47Z</time></trkpt><trkpt lat="44.4672708189155" lon="6.343178806349494"><ele>797.25</ele><time>2026-05-01T14:47:48Z</time></trkpt><trkpt lat="44.46730670897917" lon="6.3429912919044895"><ele>803.0</ele><time>2026-05-01T14:47:49Z</time></trkpt><trkpt lat="44.467320370311015" lon="6.342811902496369"><ele>803.25</ele><time>2026-05-01T14:47:50Z</time></trkpt><trkpt lat="44.46728105346631" lon="6.342638983467742"><ele>803.5</ele><time>2026-05-01T14:47:51Z</time></trkpt><trkpt lat="44.46721584338777" lon="6.342459998117592"><ele>803.75</ele><time>2026-05-01T14:47:52Z</time></trkpt><trkpt lat="44.46714180225983" lon="6.34227731423049"><ele>804.0</ele><time>2026-05-01T14:47:53Z</time></trkpt><trkpt lat="44.46706989644038" lon="6.342084603855214"><ele>798.0</ele><time>2026-05-01T14:47:54Z</time></trkpt><trkpt lat="44.4669613039954" lon="6.341880995186112"><ele>792.0</ele><time>2026-05-01T14:47:55Z</time></trkpt><trkpt lat="44.46687662798176" lon="6.341738873461051"><ele>786.0</ele><time>2026-05-01T14:47:56Z</time></trkpt><trkpt lat="44.46684501264917" lon="6.341580548239144"><ele>780.0</ele><time>2026-05-01T14:47:56.999Z</time></trkpt><trkpt lat="44.46683482024293" lon="6.341414674369364"><ele>778.5</ele><time>2026-05-01T14:47:57.999Z</time></trkpt><trkpt lat="44.46683419668967" lon="6.341240170704915"><ele>777.0</ele><time>2026-05-01T14:47:58.999Z</time></trkpt><trkpt lat="44.466877199332615" lon="6.341075118841165"><ele>775.5</ele><time>2026-05-01T14:47:59.999Z</time></trkpt><trkpt lat="44.466906826953405" lon="6.340890688786623"><ele>774.0</ele><time>2026-05-01T14:48:00.999Z</time></trkpt><trkpt lat="44.466966754904924" lon="6.34069342879788"><ele>772.75</ele><time>2026-05-01T14:48:01.999Z</time></trkpt><trkpt lat="44.46701765993795" lon="6.340495348389142"><ele>771.5</ele><time>2026-05-01T14:48:02.999Z</time></trkpt><trkpt lat="44.46709504057653" lon="6.340337171279924"><ele>770.25</ele><time>2026-05-01T14:48:03.999Z</time></trkpt><trkpt lat="44.46714722694376" lon="6.34016103796615"><ele>769.0</ele><time>2026-05-01T14:48:04.999Z</time></trkpt><trkpt lat="44.4672036724126" lon="6.339968776952629"><ele>772.3333333333333</ele><time>2026-05-01T14:48:05.999Z</time></trkpt><trkpt lat="44.46726065417813" lon="6.339753354200504"><ele>775.6666666666667</ele><time>2026-05-01T14:48:06.999Z</time></trkpt><trkpt lat="44.467324186430275" lon="6.3395494945842685"><ele>779.0</ele><time>2026-05-01T14:48:07.999Z</time></trkpt><trkpt lat="44.46738289064779" lon="6.339327976092526"><ele>783.6666666666667</ele><time>2026-05-01T14:48:08.999Z</time></trkpt><trkpt lat="44.467432475113704" lon="6.339100109844315"><ele>788.3333333333333</ele><time>2026-05-01T14:48:09.999Z</time></trkpt><trkpt lat="44.46749542742832" lon="6.33887297094069"><ele>793.0</ele><time>2026-05-01T14:48:10.999Z</time></trkpt><trkpt lat="44.46755262046552" lon="6.338598970830246"><ele>793.0</ele><time>2026-05-01T14:48:11.999Z</time></trkpt><trkpt lat="44.467626461492" lon="6.338327986128755"><ele>793.0</ele><time>2026-05-01T14:48:12.999Z</time></trkpt><trkpt lat="44.46769910862531" lon="6.338089259734089"><ele>793.0</ele><time>2026-05-01T14:48:13.999Z</time></trkpt><trkpt lat="44.46777758710915" lon="6.3378683879294355"><ele>793.0</ele><time>2026-05-01T14:48:14.999Z</time></trkpt><trkpt lat="44.46784268479376" lon="6.337667750170406"><ele>793.0</ele><time>2026-05-01T14:48:15.999Z</time></trkpt><trkpt lat="44.46788373369821" lon="6.337473097876315"><ele>793.0</ele><time>2026-05-01T14:48:16.999Z</time></trkpt><trkpt lat="44.46789911914782" lon="6.337210891431593"><ele>793.0</ele><time>2026-05-01T14:48:17.999Z</time></trkpt><trkpt lat="44.467904878641654" lon="6.336928632308392"><ele>793.0</ele><time>2026-05-01T14:48:18.999Z</time></trkpt><trkpt lat="44.467906954152774" lon="6.336658487678473"><ele>793.0</ele><time>2026-05-01T14:48:19.999Z</time></trkpt><trkpt lat="44.46788781313961" lon="6.336428216779622"><ele>795.0</ele><time>2026-05-01T14:48:20.999Z</time></trkpt><trkpt lat="44.46791687964398" lon="6.336176722498266"><ele>797.0</ele><time>2026-05-01T14:48:21.999Z</time></trkpt><trkpt lat="44.46797304864054" lon="6.336009048591754"><ele>799.0</ele><time>2026-05-01T14:48:22.999Z</time></trkpt><trkpt lat="44.46807806257039" lon="6.335834982748507"><ele>801.6666666666666</ele><time>2026-05-01T14:48:23.999Z</time></trkpt><trkpt lat="44.468186911376094" lon="6.335676523323021"><ele>804.3333333333333</ele><time>2026-05-01T14:48:24.999Z</time></trkpt><trkpt lat="44.46828539241344" lon="6.33549048680008"><ele>807.0</ele><time>2026-05-01T14:48:25.999Z</time></trkpt><trkpt lat="44.46841054722974" lon="6.335287334820057"><ele>807.5</ele><time>2026-05-01T14:48:26.999Z</time></trkpt><trkpt lat="44.46856410751508" lon="6.33508497848016"><ele>808.0</ele><time>2026-05-01T14:48:27.999Z</time></trkpt><trkpt lat="44.46872794982475" lon="6.3348307673721225"><ele>812.0</ele><time>2026-05-01T14:48:28.999Z</time></trkpt><trkpt lat="44.4688518209742" lon="6.3346218271143435"><ele>816.0</ele><time>2026-05-01T14:48:29.999Z</time></trkpt><trkpt lat="44.46896505827391" lon="6.334422903445764"><ele>820.0</ele><time>2026-05-01T14:48:30.999Z</time></trkpt><trkpt lat="44.46907457010068" lon="6.334213837042365"><ele>820.0</ele><time>2026-05-01T14:48:31.999Z</time></trkpt><trkpt lat="44.46917540788543" lon="6.333988196915515"><ele>820.0</ele><time>2026-05-01T14:48:32.999Z</time></trkpt><trkpt lat="44.469274619108006" lon="6.333762926870183"><ele>820.0</ele><time>2026-05-01T14:48:33.999Z</time></trkpt><trkpt lat="44.46937254651687" lon="6.333518555854629"><ele>820.0</ele><time>2026-05-01T14:48:34.999Z</time></trkpt><trkpt lat="44.46944916448219" lon="6.333257380563431"><ele>820.0</ele><time>2026-05-01T14:48:35.999Z</time></trkpt><trkpt lat="44.46955619969863" lon="6.332953406255567"><ele>820.0</ele><time>2026-05-01T14:48:36.999Z</time></trkpt><trkpt lat="44.46963320300416" lon="6.332625575425044"><ele>828.0</ele><time>2026-05-01T14:48:37.999Z</time></trkpt><trkpt lat="44.469701003940166" lon="6.332308039763874"><ele>836.0</ele><time>2026-05-01T14:48:38.999Z</time></trkpt><trkpt lat="44.469781181555334" lon="6.332004858245286"><ele>836.3333333333334</ele><time>2026-05-01T14:48:39.999Z</time></trkpt><trkpt lat="44.46985161973451" lon="6.331697034527052"><ele>836.6666666666667</ele><time>2026-05-01T14:48:40.999Z</time></trkpt><trkpt lat="44.469911345635595" lon="6.331438963298971"><ele>837.0</ele><time>2026-05-01T14:48:41.999Z</time></trkpt><trkpt lat="44.469966286521455" lon="6.3312030146677305"><ele>837.5</ele><time>2026-05-01T14:48:42.999Z</time></trkpt><trkpt lat="44.47001620970863" lon="6.330991033511266"><ele>838.0</ele><time>2026-05-01T14:48:43.999Z</time></trkpt><trkpt lat="44.4700657285449" lon="6.330796814769244"><ele>838.5</ele><time>2026-05-01T14:48:44.999Z</time></trkpt><trkpt lat="44.4701055731521" lon="6.330606307022525"><ele>839.0</ele><time>2026-05-01T14:48:45.999Z</time></trkpt><trkpt lat="44.47011069057639" lon="6.3303513044849655"><ele>839.3333333333334</ele><time>2026-05-01T14:48:46.999Z</time></trkpt><trkpt lat="44.47010781506671" lon="6.330124116250881"><ele>839.6666666666667</ele><time>2026-05-01T14:48:47.999Z</time></trkpt><trkpt lat="44.47010212997067" lon="6.32985070399039"><ele>840.0</ele><time>2026-05-01T14:48:48.999Z</time></trkpt><trkpt lat="44.470105118329585" lon="6.329644260406748"><ele>840.5</ele><time>2026-05-01T14:48:49.999Z</time></trkpt><trkpt lat="44.47012024485827" lon="6.329457971091786"><ele>841.0</ele><time>2026-05-01T14:48:51Z</time></trkpt><trkpt lat="44.4701694516464" lon="6.329292857132134"><ele>841.5</ele><time>2026-05-01T14:48:52Z</time></trkpt><trkpt lat="44.47023641858402" lon="6.329104469682143"><ele>842.0</ele><time>2026-05-01T14:48:53Z</time></trkpt><trkpt lat="44.470294992072304" lon="6.328945227838135"><ele>843.0</ele><time>2026-05-01T14:48:54Z</time></trkpt><trkpt lat="44.47034251336168" lon="6.3287695663994725"><ele>844.0</ele><time>2026-05-01T14:48:55Z</time></trkpt><trkpt lat="44.470364767817244" lon="6.328595032698834"><ele>845.0</ele><time>2026-05-01T14:48:56Z</time></trkpt><trkpt lat="44.47034811113452" lon="6.32845503080928"><ele>846.0</ele><time>2026-05-01T14:48:57Z</time></trkpt><trkpt lat="44.47031131883314" lon="6.328270573627722"><ele>846.0</ele><time>2026-05-01T14:48:58Z</time></trkpt><trkpt lat="44.47025891331343" lon="6.328098203115996"><ele>846.0</ele><time>2026-05-01T14:48:59Z</time></trkpt><trkpt lat="44.470177340294576" lon="6.327872539768973"><ele>846.0</ele><time>2026-05-01T14:49:00Z</time></trkpt><trkpt lat="44.47002398868052" lon="6.327687484960478"><ele>849.25</ele><time>2026-05-01T14:49:01Z</time></trkpt><trkpt lat="44.46994714097091" lon="6.327536025110512"><ele>852.5</ele><time>2026-05-01T14:49:02Z</time></trkpt><trkpt lat="44.46987766344118" lon="6.327381783913312"><ele>855.75</ele><time>2026-05-01T14:49:03Z</time></trkpt><trkpt lat="44.4698361618373" lon="6.327218226458075"><ele>859.0</ele><time>2026-05-01T14:49:04Z</time></trkpt><trkpt lat="44.46983684621556" lon="6.327043528785691"><ele>858.0</ele><time>2026-05-01T14:49:05Z</time></trkpt><trkpt lat="44.46985617675514" lon="6.326880006709767"><ele>857.0</ele><time>2026-05-01T14:49:06Z</time></trkpt><trkpt lat="44.46987975337628" lon="6.326666583310822"><ele>856.0</ele><time>2026-05-01T14:49:07Z</time></trkpt><trkpt lat="44.4698861153746" lon="6.326466299141314"><ele>855.0</ele><time>2026-05-01T14:49:08Z</time></trkpt><trkpt lat="44.46992018474404" lon="6.326293738984695"><ele>855.0</ele><time>2026-05-01T14:49:09Z</time></trkpt><trkpt lat="44.469958289331124" lon="6.3261199620776285"><ele>855.0</ele><time>2026-05-01T14:49:10Z</time></trkpt><trkpt lat="44.47000410880454" lon="6.325964553382796"><ele>855.0</ele><time>2026-05-01T14:49:11Z</time></trkpt><trkpt lat="44.47008265178411" lon="6.325883360201999"><ele>855.0</ele><time>2026-05-01T14:49:12Z</time></trkpt><trkpt lat="44.47018049308979" lon="6.3257898703790305"><ele>855.0</ele><time>2026-05-01T14:49:13Z</time></trkpt><trkpt lat="44.47029980874236" lon="6.3256966762091"><ele>855.0</ele><time>2026-05-01T14:49:14Z</time></trkpt><trkpt lat="44.470414819901094" lon="6.325667852273921"><ele>855.0</ele><time>2026-05-01T14:49:15Z</time></trkpt><trkpt lat="44.47051942662175" lon="6.325707061240604"><ele>855.0</ele><time>2026-05-01T14:49:16Z</time></trkpt><trkpt lat="44.470642457747644" lon="6.32576252746551"><ele>862.0</ele><time>2026-05-01T14:49:17Z</time></trkpt><trkpt lat="44.47081094985993" lon="6.325829966880824"><ele>869.0</ele><time>2026-05-01T14:49:18Z</time></trkpt><trkpt lat="44.47097677167832" lon="6.32588433502929"><ele>876.0</ele><time>2026-05-01T14:49:19Z</time></trkpt><trkpt lat="44.47118760489009" lon="6.325946310036282"><ele>875.0</ele><time>2026-05-01T14:49:20Z</time></trkpt><trkpt lat="44.47134008904224" lon="6.326013251242869"><ele>874.0</ele><time>2026-05-01T14:49:21Z</time></trkpt><trkpt lat="44.47143198430859" lon="6.3261035512876225"><ele>873.0</ele><time>2026-05-01T14:49:22Z</time></trkpt><trkpt lat="44.47149589779855" lon="6.326262451313949"><ele>872.0</ele><time>2026-05-01T14:49:23Z</time></trkpt><trkpt lat="44.471570922255225" lon="6.326425182003958"><ele>875.0</ele><time>2026-05-01T14:49:24Z</time></trkpt><trkpt lat="44.4716295946887" lon="6.326586504696646"><ele>878.0</ele><time>2026-05-01T14:49:25Z</time></trkpt><trkpt lat="44.47169373108557" lon="6.326778808933643"><ele>881.0</ele><time>2026-05-01T14:49:26Z</time></trkpt><trkpt lat="44.471752719760836" lon="6.3269567933698"><ele>884.0</ele><time>2026-05-01T14:49:27Z</time></trkpt><trkpt lat="44.4718198402229" lon="6.3271009792705835"><ele>885.25</ele><time>2026-05-01T14:49:28Z</time></trkpt><trkpt lat="44.47190549101158" lon="6.327229970088752"><ele>886.5</ele><time>2026-05-01T14:49:29Z</time></trkpt><trkpt lat="44.47197978133" lon="6.3273436697554475"><ele>887.75</ele><time>2026-05-01T14:49:30Z</time></trkpt><trkpt lat="44.47209948203758" lon="6.327401306972485"><ele>889.0</ele><time>2026-05-01T14:49:31Z</time></trkpt><trkpt lat="44.47229002609581" lon="6.327415624052445"><ele>889.0</ele><time>2026-05-01T14:49:32Z</time></trkpt><trkpt lat="44.47241577524387" lon="6.327405592877863"><ele>889.0</ele><time>2026-05-01T14:49:33Z</time></trkpt><trkpt lat="44.472552618428644" lon="6.327321050491186"><ele>889.0</ele><time>2026-05-01T14:49:34Z</time></trkpt><trkpt lat="44.47265308060134" lon="6.3271769674246245"><ele>889.0</ele><time>2026-05-01T14:49:35Z</time></trkpt><trkpt lat="44.472727952474095" lon="6.3270363929777815"><ele>886.3333333333333</ele><time>2026-05-01T14:49:36Z</time></trkpt><trkpt lat="44.47278550117956" lon="6.326806924602443"><ele>883.6666666666667</ele><time>2026-05-01T14:49:37Z</time></trkpt><trkpt lat="44.47279828869497" lon="6.326587009261672"><ele>881.0</ele><time>2026-05-01T14:49:38Z</time></trkpt><trkpt lat="44.472739407305816" lon="6.3263250124167865"><ele>881.0</ele><time>2026-05-01T14:49:39Z</time></trkpt><trkpt lat="44.472686074651286" lon="6.326065711977169"><ele>881.0</ele><time>2026-05-01T14:49:40Z</time></trkpt><trkpt lat="44.47264701094369" lon="6.325803230109282"><ele>881.0</ele><time>2026-05-01T14:49:41Z</time></trkpt><trkpt lat="44.472608233522166" lon="6.3255579959432175"><ele>881.25</ele><time>2026-05-01T14:49:42Z</time></trkpt><trkpt lat="44.47258457461712" lon="6.325334825144654"><ele>881.5</ele><time>2026-05-01T14:49:43Z</time></trkpt><trkpt lat="44.47259105138739" lon="6.325176813235463"><ele>881.75</ele><time>2026-05-01T14:49:44Z</time></trkpt><trkpt lat="44.47271147917094" lon="6.325021870502314"><ele>882.0</ele><time>2026-05-01T14:49:45Z</time></trkpt><trkpt lat="44.47279841623381" lon="6.3248455818371525"><ele>881.6666666666667</ele><time>2026-05-01T14:49:46Z</time></trkpt><trkpt lat="44.47287002793203" lon="6.324643733959503"><ele>881.3333333333334</ele><time>2026-05-01T14:49:47Z</time></trkpt><trkpt lat="44.47291994564323" lon="6.324404566941295"><ele>881.0</ele><time>2026-05-01T14:49:48Z</time></trkpt><trkpt lat="44.472989346406" lon="6.3241559032374"><ele>888.3333333333334</ele><time>2026-05-01T14:49:49Z</time></trkpt><trkpt lat="44.473046278017456" lon="6.323928857258515"><ele>895.6666666666667</ele><time>2026-05-01T14:49:50Z</time></trkpt><trkpt lat="44.473114408871034" lon="6.323724701116078"><ele>903.0</ele><time>2026-05-01T14:49:51Z</time></trkpt><trkpt lat="44.473160190669944" lon="6.32355203170082"><ele>903.0</ele><time>2026-05-01T14:49:52Z</time></trkpt><trkpt lat="44.47315375949329" lon="6.32339674194746"><ele>903.0</ele><time>2026-05-01T14:49:53Z</time></trkpt><trkpt lat="44.47310637551871" lon="6.323207627689481"><ele>903.0</ele><time>2026-05-01T14:49:54Z</time></trkpt><trkpt lat="44.47299953055989" lon="6.323049133781677"><ele>903.0</ele><time>2026-05-01T14:49:55Z</time></trkpt><trkpt lat="44.472872887264764" lon="6.322920162508844"><ele>903.3333333333333</ele><time>2026-05-01T14:49:56Z</time></trkpt><trkpt lat="44.47275161632769" lon="6.322865249685954"><ele>903.6666666666666</ele><time>2026-05-01T14:49:57Z</time></trkpt><trkpt lat="44.47258398231746" lon="6.322830453244906"><ele>904.0</ele><time>2026-05-01T14:49:58Z</time></trkpt><trkpt lat="44.47241654435117" lon="6.322804985392506"><ele>904.0</ele><time>2026-05-01T14:49:58.999Z</time></trkpt><trkpt lat="44.47223589438384" lon="6.32276660950512"><ele>904.0</ele><time>2026-05-01T14:49:59.999Z</time></trkpt><trkpt lat="44.47209289782503" lon="6.3227421129419135"><ele>904.0</ele><time>2026-05-01T14:50:00.999Z</time></trkpt><trkpt lat="44.4719464517361" lon="6.322704522096719"><ele>900.6666666666666</ele><time>2026-05-01T14:50:01.999Z</time></trkpt><trkpt lat="44.471813964722294" lon="6.322591255848377"><ele>897.3333333333333</ele><time>2026-05-01T14:50:02.999Z</time></trkpt><trkpt lat="44.4716973882439" lon="6.322441142707532"><ele>894.0</ele><time>2026-05-01T14:50:03.999Z</time></trkpt><trkpt lat="44.47161308506775" lon="6.322272811982058"><ele>899.0</ele><time>2026-05-01T14:50:04.999Z</time></trkpt><trkpt lat="44.471535885113724" lon="6.322073925112897"><ele>904.0</ele><time>2026-05-01T14:50:05.999Z</time></trkpt><trkpt lat="44.47145103878224" lon="6.321850565617698"><ele>909.0</ele><time>2026-05-01T14:50:06.999Z</time></trkpt><trkpt lat="44.471363748329956" lon="6.3216145075037655"><ele>909.0</ele><time>2026-05-01T14:50:07.999Z</time></trkpt><trkpt lat="44.471298299976844" lon="6.321412203168867"><ele>909.0</ele><time>2026-05-01T14:50:08.999Z</time></trkpt><trkpt lat="44.471266508672166" lon="6.321224364213117"><ele>909.0</ele><time>2026-05-01T14:50:09.999Z</time></trkpt><trkpt lat="44.4712719743074" lon="6.321040659842541"><ele>909.0</ele><time>2026-05-01T14:50:10.999Z</time></trkpt><trkpt lat="44.47129801049826" lon="6.320854039312584"><ele>911.75</ele><time>2026-05-01T14:50:11.999Z</time></trkpt><trkpt lat="44.471329865535246" lon="6.3206548602070844"><ele>914.5</ele><time>2026-05-01T14:50:12.999Z</time></trkpt><trkpt lat="44.47133940797217" lon="6.320452568110497"><ele>917.25</ele><time>2026-05-01T14:50:13.999Z</time></trkpt><trkpt lat="44.47134559092375" lon="6.320260788697166"><ele>920.0</ele><time>2026-05-01T14:50:14.999Z</time></trkpt><trkpt lat="44.47130793056123" lon="6.320087815105075"><ele>916.75</ele><time>2026-05-01T14:50:15.999Z</time></trkpt><trkpt lat="44.471244278535714" lon="6.319925297428948"><ele>913.5</ele><time>2026-05-01T14:50:16.999Z</time></trkpt><trkpt lat="44.47114348549139" lon="6.319777729691026"><ele>910.25</ele><time>2026-05-01T14:50:17.999Z</time></trkpt><trkpt lat="44.47105271140815" lon="6.31961805995774"><ele>907.0</ele><time>2026-05-01T14:50:18.999Z</time></trkpt><trkpt lat="44.47099480556894" lon="6.319468163792491"><ele>907.0</ele><time>2026-05-01T14:50:19.999Z</time></trkpt><trkpt lat="44.47100030621941" lon="6.319268833745988"><ele>907.0</ele><time>2026-05-01T14:50:20.999Z</time></trkpt><trkpt lat="44.471026847392416" lon="6.319075416762494"><ele>907.0</ele><time>2026-05-01T14:50:21.999Z</time></trkpt><trkpt lat="44.47108372835862" lon="6.318874967246431"><ele>907.0</ele><time>2026-05-01T14:50:22.999Z</time></trkpt><trkpt lat="44.471154497238864" lon="6.3187034888143945"><ele>904.25</ele><time>2026-05-01T14:50:23.999Z</time></trkpt><trkpt lat="44.47125461875512" lon="6.318565605254267"><ele>901.5</ele><time>2026-05-01T14:50:24.999Z</time></trkpt><trkpt lat="44.47137476749262" lon="6.31843615014236"><ele>898.75</ele><time>2026-05-01T14:50:25.999Z</time></trkpt><trkpt lat="44.47148602984588" lon="6.318280482762"><ele>896.0</ele><time>2026-05-01T14:50:26.999Z</time></trkpt><trkpt lat="44.47160220623735" lon="6.318112001031763"><ele>902.6666666666667</ele><time>2026-05-01T14:50:27.999Z</time></trkpt><trkpt lat="44.47169752759564" lon="6.317930577346254"><ele>909.3333333333333</ele><time>2026-05-01T14:50:28.999Z</time></trkpt><trkpt lat="44.47177320983786" lon="6.317725407613781"><ele>916.0</ele><time>2026-05-01T14:50:29.999Z</time></trkpt><trkpt lat="44.471889980704454" lon="6.317592054965349"><ele>916.0</ele><time>2026-05-01T14:50:30.999Z</time></trkpt><trkpt lat="44.47204332134036" lon="6.317484232048976"><ele>916.0</ele><time>2026-05-01T14:50:31.999Z</time></trkpt><trkpt lat="44.47218829281238" lon="6.317412941921969"><ele>916.0</ele><time>2026-05-01T14:50:32.999Z</time></trkpt><trkpt lat="44.47232683828389" lon="6.317381132898601"><ele>923.6666666666666</ele><time>2026-05-01T14:50:33.999Z</time></trkpt><trkpt lat="44.472482392452044" lon="6.317416518912427"><ele>931.3333333333333</ele><time>2026-05-01T14:50:34.999Z</time></trkpt><trkpt lat="44.47262267729607" lon="6.317488452806503"><ele>939.0</ele><time>2026-05-01T14:50:35.999Z</time></trkpt><trkpt lat="44.47278126248027" lon="6.317541336433975"><ele>939.0</ele><time>2026-05-01T14:50:36.999Z</time></trkpt><trkpt lat="44.47292922146519" lon="6.3175403411759765"><ele>939.0</ele><time>2026-05-01T14:50:37.999Z</time></trkpt><trkpt lat="44.4730430571204" lon="6.317557378797902"><ele>939.0</ele><time>2026-05-01T14:50:38.999Z</time></trkpt><trkpt lat="44.47315227649961" lon="6.317519437651843"><ele>939.0</ele><time>2026-05-01T14:50:39.999Z</time></trkpt><trkpt lat="44.47325153212754" lon="6.317456429019903"><ele>940.5</ele><time>2026-05-01T14:50:40.999Z</time></trkpt><trkpt lat="44.47334458143657" lon="6.317369875090633"><ele>942.0</ele><time>2026-05-01T14:50:41.999Z</time></trkpt><trkpt lat="44.47340695211093" lon="6.317157836715126"><ele>943.5</ele><time>2026-05-01T14:50:42.999Z</time></trkpt><trkpt lat="44.47346166452657" lon="6.316970401344088"><ele>945.0</ele><time>2026-05-01T14:50:43.999Z</time></trkpt><trkpt lat="44.47348786476722" lon="6.316766745984043"><ele>945.0</ele><time>2026-05-01T14:50:44.999Z</time></trkpt><trkpt lat="44.47353680952745" lon="6.3165793425824415"><ele>945.0</ele><time>2026-05-01T14:50:45.999Z</time></trkpt><trkpt lat="44.473654095611785" lon="6.316438543496991"><ele>945.0</ele><time>2026-05-01T14:50:46.999Z</time></trkpt><trkpt lat="44.47378765115879" lon="6.316277092853909"><ele>947.25</ele><time>2026-05-01T14:50:47.999Z</time></trkpt><trkpt lat="44.47392865944692" lon="6.316165804914013"><ele>949.5</ele><time>2026-05-01T14:50:48.999Z</time></trkpt><trkpt lat="44.47404573519833" lon="6.31607122924673"><ele>951.75</ele><time>2026-05-01T14:50:49.999Z</time></trkpt><trkpt lat="44.47418845715543" lon="6.316057179787456"><ele>954.0</ele><time>2026-05-01T14:50:50.999Z</time></trkpt><trkpt lat="44.474342161982925" lon="6.31605372741624"><ele>954.0</ele><time>2026-05-01T14:50:51.999Z</time></trkpt><trkpt lat="44.47448303277191" lon="6.316043679851912"><ele>954.0</ele><time>2026-05-01T14:50:52.999Z</time></trkpt><trkpt lat="44.47458944418942" lon="6.315981494777686"><ele>954.0</ele><time>2026-05-01T14:50:53.999Z</time></trkpt><trkpt lat="44.474695288844984" lon="6.31591904340249"><ele>954.0</ele><time>2026-05-01T14:50:54.999Z</time></trkpt><trkpt lat="44.47477112699888" lon="6.315847144073179"><ele>956.5</ele><time>2026-05-01T14:50:55.999Z</time></trkpt><trkpt lat="44.47487276207406" lon="6.315856093411301"><ele>959.0</ele><time>2026-05-01T14:50:58Z</time></trkpt><trkpt lat="44.474892196863614" lon="6.315963770924828"><ele>961.5</ele><time>2026-05-01T14:50:59Z</time></trkpt><trkpt lat="44.474860616329465" lon="6.316075158605981"><ele>964.0</ele><time>2026-05-01T14:51:00Z</time></trkpt><trkpt lat="44.47477963840774" lon="6.316141561417"><ele>966.5</ele><time>2026-05-01T14:51:01Z</time></trkpt><trkpt lat="44.47470145069333" lon="6.316110730831725"><ele>969.0</ele><time>2026-05-01T14:51:02Z</time></trkpt><trkpt lat="44.474607422478854" lon="6.316141684575067"><ele>965.25</ele><time>2026-05-01T14:51:03Z</time></trkpt><trkpt lat="44.47445399411659" lon="6.316192459043378"><ele>961.5</ele><time>2026-05-01T14:51:04Z</time></trkpt><trkpt lat="44.47431986770282" lon="6.31623568699203"><ele>957.75</ele><time>2026-05-01T14:51:05Z</time></trkpt><trkpt lat="44.474193424879154" lon="6.31628237288916"><ele>954.0</ele><time>2026-05-01T14:51:06Z</time></trkpt><trkpt lat="44.474082233213956" lon="6.3163666633723645"><ele>959.0</ele><time>2026-05-01T14:51:07Z</time></trkpt><trkpt lat="44.47400294633534" lon="6.316453735439845"><ele>964.0</ele><time>2026-05-01T14:51:08Z</time></trkpt><trkpt lat="44.47396706059323" lon="6.316616168567763"><ele>969.0</ele><time>2026-05-01T14:51:09Z</time></trkpt><trkpt lat="44.47395083011802" lon="6.31676105452039"><ele>974.0</ele><time>2026-05-01T14:51:10Z</time></trkpt><trkpt lat="44.47399480851696" lon="6.316928077307061"><ele>974.0</ele><time>2026-05-01T14:51:11Z</time></trkpt><trkpt lat="44.47406391260997" lon="6.317086171390455"><ele>974.0</ele><time>2026-05-01T14:51:12Z</time></trkpt><trkpt lat="44.474159621124066" lon="6.31725668677195"><ele>974.0</ele><time>2026-05-01T14:51:13Z</time></trkpt><trkpt lat="44.47422948738068" lon="6.317455737859258"><ele>974.0</ele><time>2026-05-01T14:51:14Z</time></trkpt><trkpt lat="44.474290783665836" lon="6.317655404615281"><ele>975.5</ele><time>2026-05-01T14:51:15Z</time></trkpt><trkpt lat="44.47432398630618" lon="6.317836111737066"><ele>977.0</ele><time>2026-05-01T14:51:16Z</time></trkpt><trkpt lat="44.47430550994057" lon="6.318005537575332"><ele>978.5</ele><time>2026-05-01T14:51:17Z</time></trkpt><trkpt lat="44.47426462173504" lon="6.31817381523304"><ele>980.0</ele><time>2026-05-01T14:51:18Z</time></trkpt><trkpt lat="44.474166776783086" lon="6.318289250047274"><ele>982.5</ele><time>2026-05-01T14:51:19Z</time></trkpt><trkpt lat="44.4740804958706" lon="6.318419536454643"><ele>985.0</ele><time>2026-05-01T14:51:20Z</time></trkpt><trkpt lat="44.473993030326895" lon="6.318589808390125"><ele>987.5</ele><time>2026-05-01T14:51:21Z</time></trkpt><trkpt lat="44.47389025045073" lon="6.318745404793958"><ele>990.0</ele><time>2026-05-01T14:51:22Z</time></trkpt><trkpt lat="44.473832782776455" lon="6.318903445495687"><ele>990.8</ele><time>2026-05-01T14:51:23Z</time></trkpt><trkpt lat="44.473784399888785" lon="6.319047321400951"><ele>991.6</ele><time>2026-05-01T14:51:24Z</time></trkpt><trkpt lat="44.47376783574993" lon="6.319182613530321"><ele>992.4000000000001</ele><time>2026-05-01T14:51:25Z</time></trkpt><trkpt lat="44.47379041721267" lon="6.319281879095804"><ele>993.2</ele><time>2026-05-01T14:51:26Z</time></trkpt><trkpt lat="44.47383452381128" lon="6.3193587740809765"><ele>994.0</ele><time>2026-05-01T14:51:27Z</time></trkpt><trkpt lat="44.473967219969325" lon="6.319296727748164"><ele>994.0</ele><time>2026-05-01T14:51:29Z</time></trkpt><trkpt lat="44.474057939921586" lon="6.319256175055803"><ele>994.0</ele><time>2026-05-01T14:51:30Z</time></trkpt><trkpt lat="44.47409517332581" lon="6.31913789414396"><ele>994.0</ele><time>2026-05-01T14:51:31Z</time></trkpt><trkpt lat="44.47412799270939" lon="6.319011982763614"><ele>994.0</ele><time>2026-05-01T14:51:32Z</time></trkpt><trkpt lat="44.47416432961194" lon="6.318723912775677"><ele>993.0</ele><time>2026-05-01T14:51:33Z</time></trkpt><trkpt lat="44.47419029185267" lon="6.318585261780235"><ele>992.0</ele><time>2026-05-01T14:51:34Z</time></trkpt><trkpt lat="44.47430844881823" lon="6.318489352880142"><ele>991.0</ele><time>2026-05-01T14:51:35Z</time></trkpt><trkpt lat="44.47441143996157" lon="6.318366506816216"><ele>990.0</ele><time>2026-05-01T14:51:36Z</time></trkpt><trkpt lat="44.474512996904885" lon="6.318247177669229"><ele>993.0</ele><time>2026-05-01T14:51:37Z</time></trkpt><trkpt lat="44.474611820669445" lon="6.318123612224377"><ele>996.0</ele><time>2026-05-01T14:51:38Z</time></trkpt><trkpt lat="44.47470422861238" lon="6.3179942202484"><ele>999.0</ele><time>2026-05-01T14:51:39Z</time></trkpt><trkpt lat="44.474784165934885" lon="6.317838870866083"><ele>1002.0</ele><time>2026-05-01T14:51:40Z</time></trkpt><trkpt lat="44.4748786623159" lon="6.317694486134046"><ele>1002.0</ele><time>2026-05-01T14:51:41Z</time></trkpt><trkpt lat="44.47500393849353" lon="6.317592782151631"><ele>1002.0</ele><time>2026-05-01T14:51:42Z</time></trkpt><trkpt lat="44.47513477013278" lon="6.317530628111554"><ele>1002.0</ele><time>2026-05-01T14:51:43Z</time></trkpt><trkpt lat="44.47529236085651" lon="6.317549937571667"><ele>1002.0</ele><time>2026-05-01T14:51:44Z</time></trkpt><trkpt lat="44.47545028932491" lon="6.317493520377163"><ele>1007.6666666666667</ele><time>2026-05-01T14:51:45Z</time></trkpt><trkpt lat="44.475635262938006" lon="6.317431463391109"><ele>1013.3333333333334</ele><time>2026-05-01T14:51:46Z</time></trkpt><trkpt lat="44.475842353790284" lon="6.317399533667218"><ele>1019.0</ele><time>2026-05-01T14:51:47Z</time></trkpt><trkpt lat="44.475996531323446" lon="6.317326116825546"><ele>1019.0</ele><time>2026-05-01T14:51:48Z</time></trkpt><trkpt lat="44.47614800008906" lon="6.317237804585984"><ele>1019.0</ele><time>2026-05-01T14:51:49Z</time></trkpt><trkpt lat="44.47630687101674" lon="6.317145826740824"><ele>1019.0</ele><time>2026-05-01T14:51:50Z</time></trkpt><trkpt lat="44.47646524770998" lon="6.317050325674335"><ele>1019.5</ele><time>2026-05-01T14:51:51Z</time></trkpt><trkpt lat="44.4766051559512" lon="6.316969818526905"><ele>1020.0</ele><time>2026-05-01T14:51:52Z</time></trkpt><trkpt lat="44.47672146909235" lon="6.316860276808269"><ele>1020.5</ele><time>2026-05-01T14:51:53Z</time></trkpt><trkpt lat="44.47681189869853" lon="6.3167605581003246"><ele>1021.0</ele><time>2026-05-01T14:51:54Z</time></trkpt><trkpt lat="44.47688272122603" lon="6.316717974593234"><ele>1021.0</ele><time>2026-05-01T14:51:55Z</time></trkpt><trkpt lat="44.476963786508264" lon="6.316618517018279"><ele>1020.9999999999999</ele><time>2026-05-01T14:51:56Z</time></trkpt><trkpt lat="44.47705399641527" lon="6.31653214661786"><ele>1020.9999999999999</ele><time>2026-05-01T14:51:57Z</time></trkpt><trkpt lat="44.47714861073067" lon="6.316448982017766"><ele>1021.0</ele><time>2026-05-01T14:51:58Z</time></trkpt><trkpt lat="44.47723770964628" lon="6.316349167611465"><ele>1021.0</ele><time>2026-05-01T14:51:59Z</time></trkpt><trkpt lat="44.477352187357035" lon="6.3162448646922185"><ele>1023.6666666666666</ele><time>2026-05-01T14:52:00Z</time></trkpt><trkpt lat="44.477507717136184" lon="6.316197950128395"><ele>1026.3333333333333</ele><time>2026-05-01T14:52:01Z</time></trkpt><trkpt lat="44.477655878525724" lon="6.316163109939709"><ele>1029.0</ele><time>2026-05-01T14:52:02Z</time></trkpt><trkpt lat="44.47782651221385" lon="6.316119854974325"><ele>1032.3333333333333</ele><time>2026-05-01T14:52:03Z</time></trkpt><trkpt lat="44.47798548299159" lon="6.316073903847695"><ele>1035.6666666666665</ele><time>2026-05-01T14:52:04Z</time></trkpt><trkpt lat="44.4781348808617" lon="6.316013826102832"><ele>1039.0</ele><time>2026-05-01T14:52:05Z</time></trkpt><trkpt lat="44.47826072044256" lon="6.315941523828284"><ele>1039.0</ele><time>2026-05-01T14:52:06Z</time></trkpt><trkpt lat="44.47835582278518" lon="6.31589158863429"><ele>1039.0</ele><time>2026-05-01T14:52:07Z</time></trkpt><trkpt lat="44.47843774165956" lon="6.31573530675313"><ele>1039.0</ele><time>2026-05-01T14:52:08Z</time></trkpt><trkpt lat="44.47849993871145" lon="6.315571140575989"><ele>1039.0</ele><time>2026-05-01T14:52:09Z</time></trkpt><trkpt lat="44.47856855903386" lon="6.3154408861489015"><ele>1038.8</ele><time>2026-05-01T14:52:10Z</time></trkpt><trkpt lat="44.47860997108907" lon="6.315331759687487"><ele>1038.6000000000001</ele><time>2026-05-01T14:52:11Z</time></trkpt><trkpt lat="44.47867251064213" lon="6.315213828209128"><ele>1038.4</ele><time>2026-05-01T14:52:12Z</time></trkpt><trkpt lat="44.47873227352237" lon="6.315136749344229"><ele>1038.2</ele><time>2026-05-01T14:52:13Z</time></trkpt><trkpt lat="44.47884117080386" lon="6.315147574937636"><ele>1038.0</ele><time>2026-05-01T14:52:14Z</time></trkpt><trkpt lat="44.478935816306226" lon="6.315130169692146"><ele>1039.0</ele><time>2026-05-01T14:52:15Z</time></trkpt><trkpt lat="44.47902226491135" lon="6.3151385143519825"><ele>1040.0</ele><time>2026-05-01T14:52:16Z</time></trkpt><trkpt lat="44.47909786602457" lon="6.315119455916494"><ele>1041.0</ele><time>2026-05-01T14:52:17Z</time></trkpt><trkpt lat="44.47916582318764" lon="6.315112164489509"><ele>1042.0</ele><time>2026-05-01T14:52:17.999Z</time></trkpt><trkpt lat="44.479245075674555" lon="6.315132230487242"><ele>1043.0</ele><time>2026-05-01T14:52:18.999Z</time></trkpt><trkpt lat="44.47934774758121" lon="6.315155246777659"><ele>1044.0</ele><time>2026-05-01T14:52:19.999Z</time></trkpt><trkpt lat="44.47946035048743" lon="6.315153219255362"><ele>1044.0</ele><time>2026-05-01T14:52:20.999Z</time></trkpt><trkpt lat="44.479586739157355" lon="6.3151463477922745"><ele>1044.0</ele><time>2026-05-01T14:52:21.999Z</time></trkpt><trkpt lat="44.47973025850823" lon="6.315148407850949"><ele>1044.0</ele><time>2026-05-01T14:52:22.999Z</time></trkpt><trkpt lat="44.47987442001872" lon="6.315195273108223"><ele>1044.0</ele><time>2026-05-01T14:52:23.999Z</time></trkpt><trkpt lat="44.48001402003307" lon="6.315228966671752"><ele>1042.0</ele><time>2026-05-01T14:52:24.999Z</time></trkpt><trkpt lat="44.48014829665637" lon="6.3152643512133215"><ele>1040.0</ele><time>2026-05-01T14:52:25.999Z</time></trkpt><trkpt lat="44.480270516341996" lon="6.315301899231092"><ele>1038.0</ele><time>2026-05-01T14:52:26.999Z</time></trkpt><trkpt lat="44.48038880582055" lon="6.315355779720234"><ele>1036.0</ele><time>2026-05-01T14:52:27.999Z</time></trkpt><trkpt lat="44.48051808990691" lon="6.315438161965285"><ele>1035.75</ele><time>2026-05-01T14:52:28.999Z</time></trkpt><trkpt lat="44.48064657316461" lon="6.31556230927997"><ele>1035.5</ele><time>2026-05-01T14:52:29.999Z</time></trkpt><trkpt lat="44.48073841001611" lon="6.3157004681561855"><ele>1035.25</ele><time>2026-05-01T14:52:30.999Z</time></trkpt><trkpt lat="44.48082024487956" lon="6.3158598298082795"><ele>1035.0</ele><time>2026-05-01T14:52:31.999Z</time></trkpt><trkpt lat="44.480865668323084" lon="6.31604419209863"><ele>1036.0</ele><time>2026-05-01T14:52:32.999Z</time></trkpt><trkpt lat="44.48088707765453" lon="6.316221960151966"><ele>1037.0</ele><time>2026-05-01T14:52:33.999Z</time></trkpt><trkpt lat="44.480974603998064" lon="6.316415238309412"><ele>1038.0</ele><time>2026-05-01T14:52:34.999Z</time></trkpt><trkpt lat="44.48099044178274" lon="6.316632384752829"><ele>1039.0</ele><time>2026-05-01T14:52:35.999Z</time></trkpt><trkpt lat="44.48089671027472" lon="6.316868254643403"><ele>1039.0</ele><time>2026-05-01T14:52:36.999Z</time></trkpt><trkpt lat="44.48084027809435" lon="6.3170926509566945"><ele>1039.0</ele><time>2026-05-01T14:52:37.999Z</time></trkpt><trkpt lat="44.48070099480963" lon="6.317259792345231"><ele>1039.0</ele><time>2026-05-01T14:52:38.999Z</time></trkpt><trkpt lat="44.48066049077046" lon="6.31746813400049"><ele>1038.0</ele><time>2026-05-01T14:52:39.999Z</time></trkpt><trkpt lat="44.48064626887074" lon="6.317657030416019"><ele>1037.0</ele><time>2026-05-01T14:52:40.999Z</time></trkpt><trkpt lat="44.480681894912124" lon="6.31786408411756"><ele>1036.0</ele><time>2026-05-01T14:52:41.999Z</time></trkpt><trkpt lat="44.480716996374284" lon="6.31808136389388"><ele>1035.0</ele><time>2026-05-01T14:52:42.999Z</time></trkpt><trkpt lat="44.48073866694174" lon="6.318295936408548"><ele>1035.0</ele><time>2026-05-01T14:52:43.999Z</time></trkpt><trkpt lat="44.48078210356976" lon="6.318499192292788"><ele>1035.0</ele><time>2026-05-01T14:52:44.999Z</time></trkpt><trkpt lat="44.480878277074304" lon="6.318640052411933"><ele>1035.0</ele><time>2026-05-01T14:52:45.999Z</time></trkpt><trkpt lat="44.48099375852371" lon="6.318825152919927"><ele>1036.3333333333333</ele><time>2026-05-01T14:52:46.999Z</time></trkpt><trkpt lat="44.481117714374605" lon="6.319014269228704"><ele>1037.6666666666665</ele><time>2026-05-01T14:52:47.999Z</time></trkpt><trkpt lat="44.48123083827674" lon="6.319168385423948"><ele>1039.0</ele><time>2026-05-01T14:52:48.999Z</time></trkpt><trkpt lat="44.48134985596136" lon="6.319315520392047"><ele>1034.6666666666665</ele><time>2026-05-01T14:52:49.999Z</time></trkpt><trkpt lat="44.481470090208525" lon="6.319435827664591"><ele>1030.3333333333333</ele><time>2026-05-01T14:52:50.999Z</time></trkpt><trkpt lat="44.48159476512168" lon="6.31954584679661"><ele>1026.0</ele><time>2026-05-01T14:52:51.999Z</time></trkpt><trkpt lat="44.481752640697486" lon="6.319603932933126"><ele>1026.0</ele><time>2026-05-01T14:52:52.999Z</time></trkpt><trkpt lat="44.481923549109304" lon="6.319582912232547"><ele>1026.0</ele><time>2026-05-01T14:52:53.999Z</time></trkpt><trkpt lat="44.482053926947536" lon="6.31953814286503"><ele>1026.0</ele><time>2026-05-01T14:52:54.999Z</time></trkpt><trkpt lat="44.48219861017684" lon="6.319413857173303"><ele>1026.6666666666667</ele><time>2026-05-01T14:52:55.999Z</time></trkpt><trkpt lat="44.48232799274865" lon="6.3192579710611625"><ele>1027.3333333333335</ele><time>2026-05-01T14:52:56.999Z</time></trkpt><trkpt lat="44.48243860339989" lon="6.319121590938101"><ele>1028.0</ele><time>2026-05-01T14:52:57.999Z</time></trkpt><trkpt lat="44.48255105151248" lon="6.319007670966593"><ele>1028.0</ele><time>2026-05-01T14:52:58.999Z</time></trkpt><trkpt lat="44.48264211667126" lon="6.31889673611597"><ele>1028.0</ele><time>2026-05-01T14:52:59.999Z</time></trkpt><trkpt lat="44.48275725698959" lon="6.318844612160139"><ele>1028.0</ele><time>2026-05-01T14:53:00.999Z</time></trkpt><trkpt lat="44.48288913757013" lon="6.318901528381254"><ele>1028.0</ele><time>2026-05-01T14:53:02Z</time></trkpt><trkpt lat="44.483035564370816" lon="6.318911180443415"><ele>1028.0</ele><time>2026-05-01T14:53:03Z</time></trkpt><trkpt lat="44.48319567318569" lon="6.318925702636834"><ele>1028.0</ele><time>2026-05-01T14:53:04Z</time></trkpt><trkpt lat="44.48337980280815" lon="6.318941468346918"><ele>1028.0</ele><time>2026-05-01T14:53:05Z</time></trkpt><trkpt lat="44.48353878534172" lon="6.318955215912546"><ele>1028.0</ele><time>2026-05-01T14:53:06Z</time></trkpt><trkpt lat="44.48367967935949" lon="6.318968907223084"><ele>1028.0</ele><time>2026-05-01T14:53:07Z</time></trkpt><trkpt lat="44.483820093273884" lon="6.318991405826265"><ele>1028.0</ele><time>2026-05-01T14:53:08Z</time></trkpt><trkpt lat="44.483961088150714" lon="6.319036425591885"><ele>1028.0</ele><time>2026-05-01T14:53:09Z</time></trkpt><trkpt lat="44.484093312429216" lon="6.319095028264083"><ele>1026.5</ele><time>2026-05-01T14:53:10Z</time></trkpt><trkpt lat="44.48423065985022" lon="6.319152016927094"><ele>1025.0</ele><time>2026-05-01T14:53:11Z</time></trkpt><trkpt lat="44.48433645915999" lon="6.3192687591581125"><ele>1023.5</ele><time>2026-05-01T14:53:12Z</time></trkpt><trkpt lat="44.48445307244209" lon="6.319423315099715"><ele>1022.0</ele><time>2026-05-01T14:53:13Z</time></trkpt><trkpt lat="44.48455275774251" lon="6.319606169579611"><ele>1019.6666666666667</ele><time>2026-05-01T14:53:14Z</time></trkpt><trkpt lat="44.48466640154059" lon="6.31980684920121"><ele>1017.3333333333333</ele><time>2026-05-01T14:53:15Z</time></trkpt><trkpt lat="44.4847942319785" lon="6.319994626838545"><ele>1015.0</ele><time>2026-05-01T14:53:16Z</time></trkpt><trkpt lat="44.48492167648084" lon="6.320151199244727"><ele>1015.0</ele><time>2026-05-01T14:53:17Z</time></trkpt><trkpt lat="44.485056654635244" lon="6.320305635192396"><ele>1015.0</ele><time>2026-05-01T14:53:18Z</time></trkpt><trkpt lat="44.48516116705635" lon="6.320454636535179"><ele>1015.0</ele><time>2026-05-01T14:53:19Z</time></trkpt><trkpt lat="44.485250090843415" lon="6.320600167042775"><ele>1017.3333333333333</ele><time>2026-05-01T14:53:20Z</time></trkpt><trkpt lat="44.48533514937436" lon="6.320766767166814"><ele>1019.6666666666667</ele><time>2026-05-01T14:53:21Z</time></trkpt><trkpt lat="44.485411924425804" lon="6.32097088587213"><ele>1022.0</ele><time>2026-05-01T14:53:22Z</time></trkpt><trkpt lat="44.48548500647659" lon="6.321205811781569"><ele>1018.0</ele><time>2026-05-01T14:53:23Z</time></trkpt><trkpt lat="44.48555579337403" lon="6.321435937830705"><ele>1014.0</ele><time>2026-05-01T14:53:24Z</time></trkpt><trkpt lat="44.485623504411905" lon="6.321652988850062"><ele>1010.0</ele><time>2026-05-01T14:53:25Z</time></trkpt><trkpt lat="44.48569880479551" lon="6.3218911848606645"><ele>1010.0</ele><time>2026-05-01T14:53:26Z</time></trkpt><trkpt lat="44.48576906517208" lon="6.32211343779861"><ele>1010.0</ele><time>2026-05-01T14:53:27Z</time></trkpt><trkpt lat="44.48583872988013" lon="6.322340665624442"><ele>1010.0</ele><time>2026-05-01T14:53:28Z</time></trkpt><trkpt lat="44.485908145145515" lon="6.32256830251802"><ele>1012.6666666666667</ele><time>2026-05-01T14:53:29Z</time></trkpt><trkpt lat="44.48598028548279" lon="6.322794564571004"><ele>1015.3333333333333</ele><time>2026-05-01T14:53:30Z</time></trkpt><trkpt lat="44.48607831033673" lon="6.323025346799368"><ele>1018.0</ele><time>2026-05-01T14:53:31Z</time></trkpt><trkpt lat="44.486215165264674" lon="6.323215062337822"><ele>1012.3333333333333</ele><time>2026-05-01T14:53:32Z</time></trkpt><trkpt lat="44.48634127685994" lon="6.32337895734525"><ele>1006.6666666666667</ele><time>2026-05-01T14:53:33Z</time></trkpt><trkpt lat="44.48644894676812" lon="6.3235889357096"><ele>1001.0</ele><time>2026-05-01T14:53:34Z</time></trkpt><trkpt lat="44.48655158599134" lon="6.3237964231032615"><ele>1005.0</ele><time>2026-05-01T14:53:35Z</time></trkpt><trkpt lat="44.486653354347204" lon="6.324019040861298"><ele>1009.0</ele><time>2026-05-01T14:53:36Z</time></trkpt><trkpt lat="44.48675480593331" lon="6.324252574374372"><ele>1013.0</ele><time>2026-05-01T14:53:37Z</time></trkpt><trkpt lat="44.48684938912041" lon="6.324480009462733"><ele>1013.0</ele><time>2026-05-01T14:53:38Z</time></trkpt><trkpt lat="44.48693962932261" lon="6.324700596224867"><ele>1013.0</ele><time>2026-05-01T14:53:39Z</time></trkpt><trkpt lat="44.48703315051" lon="6.324913924939985"><ele>1013.0</ele><time>2026-05-01T14:53:40Z</time></trkpt><trkpt lat="44.48712544926877" lon="6.325106766802328"><ele>1010.6666666666667</ele><time>2026-05-01T14:53:41Z</time></trkpt><trkpt lat="44.48722005898043" lon="6.325306483427725"><ele>1008.3333333333333</ele><time>2026-05-01T14:53:42Z</time></trkpt><trkpt lat="44.48730631600059" lon="6.325492208996943"><ele>1006.0</ele><time>2026-05-01T14:53:43Z</time></trkpt><trkpt lat="44.48739431484731" lon="6.325659137238911"><ele>1006.0</ele><time>2026-05-01T14:53:44Z</time></trkpt><trkpt lat="44.487442302788885" lon="6.325845099958629"><ele>1006.0</ele><time>2026-05-01T14:53:45Z</time></trkpt><trkpt lat="44.48746937834066" lon="6.3260307631135335"><ele>1006.0</ele><time>2026-05-01T14:53:46Z</time></trkpt><trkpt lat="44.48750974265303" lon="6.326222897022152"><ele>1006.0</ele><time>2026-05-01T14:53:47Z</time></trkpt><trkpt lat="44.4875730020935" lon="6.326399647714918"><ele>1004.0</ele><time>2026-05-01T14:53:48Z</time></trkpt><trkpt lat="44.48768036711695" lon="6.326560762324451"><ele>1002.0</ele><time>2026-05-01T14:53:49Z</time></trkpt><trkpt lat="44.487782217387" lon="6.326747270211579"><ele>1000.0</ele><time>2026-05-01T14:53:50Z</time></trkpt><trkpt lat="44.48793304871606" lon="6.326930137111854"><ele>1000.0</ele><time>2026-05-01T14:53:51Z</time></trkpt><trkpt lat="44.488068985575154" lon="6.327074077569253"><ele>1000.0</ele><time>2026-05-01T14:53:52Z</time></trkpt><trkpt lat="44.48819094112765" lon="6.327248089526335"><ele>1000.0</ele><time>2026-05-01T14:53:53Z</time></trkpt><trkpt lat="44.48830481349146" lon="6.327406394391952"><ele>1002.3333333333333</ele><time>2026-05-01T14:53:54Z</time></trkpt><trkpt lat="44.48843354983736" lon="6.327528592169533"><ele>1004.6666666666667</ele><time>2026-05-01T14:53:55Z</time></trkpt><trkpt lat="44.488587989502946" lon="6.327603768439571"><ele>1007.0</ele><time>2026-05-01T14:53:56Z</time></trkpt><trkpt lat="44.488763707843106" lon="6.327632446177115"><ele>1007.0</ele><time>2026-05-01T14:53:57Z</time></trkpt><trkpt lat="44.488912082545156" lon="6.327697781920389"><ele>1007.0</ele><time>2026-05-01T14:53:58Z</time></trkpt><trkpt lat="44.48906513722995" lon="6.327748056351501"><ele>1007.0</ele><time>2026-05-01T14:53:59Z</time></trkpt><trkpt lat="44.48921392852886" lon="6.327815591584688"><ele>1007.0</ele><time>2026-05-01T14:54:00Z</time></trkpt><trkpt lat="44.489366076876756" lon="6.327887257932963"><ele>1007.0</ele><time>2026-05-01T14:54:01Z</time></trkpt><trkpt lat="44.48951999713989" lon="6.327930726584643"><ele>1007.0</ele><time>2026-05-01T14:54:02Z</time></trkpt><trkpt lat="44.489672312113726" lon="6.327995157303277"><ele>1010.75</ele><time>2026-05-01T14:54:03Z</time></trkpt><trkpt lat="44.48980818143988" lon="6.328067967524547"><ele>1014.5</ele><time>2026-05-01T14:54:04Z</time></trkpt><trkpt lat="44.489930589112575" lon="6.328167840852707"><ele>1018.25</ele><time>2026-05-01T14:54:05Z</time></trkpt><trkpt lat="44.49003598070715" lon="6.328311602799455"><ele>1022.0</ele><time>2026-05-01T14:54:06Z</time></trkpt><trkpt lat="44.49012951378826" lon="6.328456083093229"><ele>1022.0</ele><time>2026-05-01T14:54:07Z</time></trkpt><trkpt lat="44.49019176678742" lon="6.328622561613107"><ele>1022.0</ele><time>2026-05-01T14:54:08Z</time></trkpt><trkpt lat="44.490231660847535" lon="6.328815504895725"><ele>1022.0</ele><time>2026-05-01T14:54:09Z</time></trkpt><trkpt lat="44.49028006142284" lon="6.329008676263423"><ele>1022.0</ele><time>2026-05-01T14:54:10Z</time></trkpt><trkpt lat="44.49026251721389" lon="6.329223725007417"><ele>1024.6666666666667</ele><time>2026-05-01T14:54:11Z</time></trkpt><trkpt lat="44.49025002161523" lon="6.329468638672018"><ele>1027.3333333333333</ele><time>2026-05-01T14:54:12Z</time></trkpt><trkpt lat="44.490241403410025" lon="6.32971263701399"><ele>1030.0</ele><time>2026-05-01T14:54:13Z</time></trkpt><trkpt lat="44.49023939096616" lon="6.329945126304835"><ele>1030.3333333333333</ele><time>2026-05-01T14:54:14Z</time></trkpt><trkpt lat="44.49024341584457" lon="6.330175661506556"><ele>1030.6666666666667</ele><time>2026-05-01T14:54:15Z</time></trkpt><trkpt lat="44.49025344932012" lon="6.330393335030083"><ele>1031.0</ele><time>2026-05-01T14:54:16Z</time></trkpt><trkpt lat="44.490259766659115" lon="6.330604158718173"><ele>1031.0</ele><time>2026-05-01T14:54:17Z</time></trkpt><trkpt lat="44.49028678905908" lon="6.3308251201074235"><ele>1031.0</ele><time>2026-05-01T14:54:18Z</time></trkpt><trkpt lat="44.49038126492633" lon="6.331016273550112"><ele>1031.0</ele><time>2026-05-01T14:54:19Z</time></trkpt><trkpt lat="44.490401179478674" lon="6.331234477788739"><ele>1032.0</ele><time>2026-05-01T14:54:20Z</time></trkpt><trkpt lat="44.49042267961344" lon="6.331441099537529"><ele>1033.0</ele><time>2026-05-01T14:54:21Z</time></trkpt><trkpt lat="44.49042981819468" lon="6.33163796665457"><ele>1034.0</ele><time>2026-05-01T14:54:22Z</time></trkpt><trkpt lat="44.49042575683834" lon="6.331828422904666"><ele>1035.0</ele><time>2026-05-01T14:54:23Z</time></trkpt><trkpt lat="44.49040369815009" lon="6.332052833452344"><ele>1034.0</ele><time>2026-05-01T14:54:24Z</time></trkpt><trkpt lat="44.49037585464488" lon="6.332266199302545"><ele>1033.0</ele><time>2026-05-01T14:54:25Z</time></trkpt><trkpt lat="44.49033143589903" lon="6.332467126598973"><ele>1032.0</ele><time>2026-05-01T14:54:26Z</time></trkpt><trkpt lat="44.49027093732459" lon="6.3326882265250815"><ele>1032.0</ele><time>2026-05-01T14:54:27Z</time></trkpt><trkpt lat="44.49021708137434" lon="6.3328626937697985"><ele>1032.0</ele><time>2026-05-01T14:54:28Z</time></trkpt><trkpt lat="44.49014975340151" lon="6.33308235011082"><ele>1032.0</ele><time>2026-05-01T14:54:29Z</time></trkpt><trkpt lat="44.49008522568231" lon="6.333301052717906"><ele>1028.75</ele><time>2026-05-01T14:54:30Z</time></trkpt><trkpt lat="44.49002342288305" lon="6.333501882173957"><ele>1025.5</ele><time>2026-05-01T14:54:31Z</time></trkpt><trkpt lat="44.489968001582454" lon="6.333675335343338"><ele>1022.25</ele><time>2026-05-01T14:54:32Z</time></trkpt><trkpt lat="44.489912597260115" lon="6.333862164993349"><ele>1019.0</ele><time>2026-05-01T14:54:33Z</time></trkpt><trkpt lat="44.48987588822055" lon="6.334038722782144"><ele>1017.0</ele><time>2026-05-01T14:54:34Z</time></trkpt><trkpt lat="44.48985677495648" lon="6.334193394601176"><ele>1015.0</ele><time>2026-05-01T14:54:35Z</time></trkpt><trkpt lat="44.489867400539005" lon="6.334350595104315"><ele>1013.0</ele><time>2026-05-01T14:54:36Z</time></trkpt><trkpt lat="44.489908214665704" lon="6.33447405473768"><ele>1011.0</ele><time>2026-05-01T14:54:37Z</time></trkpt><trkpt lat="44.49003253379225" lon="6.334605434442357"><ele>1009.75</ele><time>2026-05-01T14:54:38Z</time></trkpt><trkpt lat="44.490129049870674" lon="6.334728785592078"><ele>1008.5</ele><time>2026-05-01T14:54:39Z</time></trkpt><trkpt lat="44.4902333122529" lon="6.334860851101746"><ele>1007.25</ele><time>2026-05-01T14:54:39.999Z</time></trkpt><trkpt lat="44.490395345093006" lon="6.33495393984965"><ele>1006.0</ele><time>2026-05-01T14:54:40.999Z</time></trkpt><trkpt lat="44.490525004896796" lon="6.335045054079243"><ele>1006.0</ele><time>2026-05-01T14:54:41.999Z</time></trkpt><trkpt lat="44.490633421966" lon="6.335154940006955"><ele>1006.0</ele><time>2026-05-01T14:54:42.999Z</time></trkpt><trkpt lat="44.490748551633445" lon="6.335249406012173"><ele>1006.0</ele><time>2026-05-01T14:54:43.999Z</time></trkpt><trkpt lat="44.49088222464822" lon="6.335316430087191"><ele>1006.0</ele><time>2026-05-01T14:54:44.999Z</time></trkpt><trkpt lat="44.49106039569211" lon="6.3352781149678465"><ele>1006.0</ele><time>2026-05-01T14:54:45.999Z</time></trkpt><trkpt lat="44.491216583861274" lon="6.335180875807205"><ele>1006.0</ele><time>2026-05-01T14:54:46.999Z</time></trkpt><trkpt lat="44.49136629178389" lon="6.334985810038993"><ele>1006.0</ele><time>2026-05-01T14:54:47.999Z</time></trkpt><trkpt lat="44.49150602392267" lon="6.334892496099345"><ele>1008.6666666666666</ele><time>2026-05-01T14:54:48.999Z</time></trkpt><trkpt lat="44.49165937573604" lon="6.334786972086855"><ele>1011.3333333333333</ele><time>2026-05-01T14:54:49.999Z</time></trkpt><trkpt lat="44.491820016596826" lon="6.334701290062314"><ele>1014.0</ele><time>2026-05-01T14:54:50.999Z</time></trkpt><trkpt lat="44.4919775376256" lon="6.3346122203140025"><ele>1009.5</ele><time>2026-05-01T14:54:51.999Z</time></trkpt><trkpt lat="44.492100639136794" lon="6.334526702286047"><ele>1005.0</ele><time>2026-05-01T14:54:52.999Z</time></trkpt><trkpt lat="44.492230515043715" lon="6.334438262350757"><ele>1000.5</ele><time>2026-05-01T14:54:53.999Z</time></trkpt><trkpt lat="44.492362014672885" lon="6.334386001461527"><ele>996.0</ele><time>2026-05-01T14:54:54.999Z</time></trkpt><trkpt lat="44.492500394256396" lon="6.334331460063403"><ele>996.0</ele><time>2026-05-01T14:54:55.999Z</time></trkpt><trkpt lat="44.49266088601056" lon="6.334321064077027"><ele>996.0</ele><time>2026-05-01T14:54:56.999Z</time></trkpt><trkpt lat="44.49280816673376" lon="6.334336050590466"><ele>996.0</ele><time>2026-05-01T14:54:57.999Z</time></trkpt><trkpt lat="44.49296896429329" lon="6.334369208914729"><ele>994.0</ele><time>2026-05-01T14:54:58.999Z</time></trkpt><trkpt lat="44.493108977025265" lon="6.33446450441324"><ele>992.0</ele><time>2026-05-01T14:54:59.999Z</time></trkpt><trkpt lat="44.49326596354145" lon="6.334578554375916"><ele>990.0</ele><time>2026-05-01T14:55:00.999Z</time></trkpt><trkpt lat="44.49344145381905" lon="6.334731696205678"><ele>992.0</ele><time>2026-05-01T14:55:01.999Z</time></trkpt><trkpt lat="44.49356895534208" lon="6.334843630001825"><ele>994.0</ele><time>2026-05-01T14:55:02.999Z</time></trkpt><trkpt lat="44.49370874573847" lon="6.33496422187887"><ele>996.0</ele><time>2026-05-01T14:55:03.999Z</time></trkpt><trkpt lat="44.49384103048333" lon="6.335077472209363"><ele>996.0</ele><time>2026-05-01T14:55:04.999Z</time></trkpt><trkpt lat="44.493968458109194" lon="6.335196843825166"><ele>996.0</ele><time>2026-05-01T14:55:05.999Z</time></trkpt><trkpt lat="44.494081715839236" lon="6.335317209757663"><ele>996.0</ele><time>2026-05-01T14:55:06.999Z</time></trkpt><trkpt lat="44.49415886542464" lon="6.335426341653889"><ele>996.0</ele><time>2026-05-01T14:55:08Z</time></trkpt><trkpt lat="44.49424974034603" lon="6.335575039225125"><ele>999.6666666666667</ele><time>2026-05-01T14:55:09Z</time></trkpt><trkpt lat="44.49433226224906" lon="6.3357676184303955"><ele>1003.3333333333334</ele><time>2026-05-01T14:55:10Z</time></trkpt><trkpt lat="44.49439435311482" lon="6.33595363097197"><ele>1007.0</ele><time>2026-05-01T14:55:11Z</time></trkpt><trkpt lat="44.49443898210639" lon="6.336168817167345"><ele>1007.0</ele><time>2026-05-01T14:55:12Z</time></trkpt><trkpt lat="44.49447128463023" lon="6.336381123398426"><ele>1007.0</ele><time>2026-05-01T14:55:13Z</time></trkpt><trkpt lat="44.49450235693623" lon="6.336599993038396"><ele>1007.0</ele><time>2026-05-01T14:55:14Z</time></trkpt><trkpt lat="44.49453233263246" lon="6.336819437800418"><ele>1009.3333333333334</ele><time>2026-05-01T14:55:15Z</time></trkpt><trkpt lat="44.494561956643544" lon="6.337049674694934"><ele>1011.6666666666667</ele><time>2026-05-01T14:55:16Z</time></trkpt><trkpt lat="44.49460275921264" lon="6.337286526939607"><ele>1014.0</ele><time>2026-05-01T14:55:17Z</time></trkpt><trkpt lat="44.49465767402379" lon="6.337452590877059"><ele>1010.5</ele><time>2026-05-01T14:55:18Z</time></trkpt><trkpt lat="44.49468794243315" lon="6.337647188239302"><ele>1007.0</ele><time>2026-05-01T14:55:19Z</time></trkpt><trkpt lat="44.494795549374096" lon="6.337782978076093"><ele>1003.5</ele><time>2026-05-01T14:55:20Z</time></trkpt><trkpt lat="44.49490560172309" lon="6.337883729659157"><ele>1000.0</ele><time>2026-05-01T14:55:21Z</time></trkpt><trkpt lat="44.495009606637424" lon="6.338000401636945"><ele>1003.25</ele><time>2026-05-01T14:55:22Z</time></trkpt><trkpt lat="44.495135539962725" lon="6.33807535038187"><ele>1006.5</ele><time>2026-05-01T14:55:23Z</time></trkpt><trkpt lat="44.495233791052925" lon="6.33825598857954"><ele>1009.75</ele><time>2026-05-01T14:55:24Z</time></trkpt><trkpt lat="44.495299324190604" lon="6.338406700293307"><ele>1013.0</ele><time>2026-05-01T14:55:25Z</time></trkpt><trkpt lat="44.49534254430256" lon="6.338561701089935"><ele>1013.0</ele><time>2026-05-01T14:55:26Z</time></trkpt><trkpt lat="44.49538182435992" lon="6.338732893143563"><ele>1013.0</ele><time>2026-05-01T14:55:27Z</time></trkpt><trkpt lat="44.49540637379492" lon="6.338911933060037"><ele>1013.0</ele><time>2026-05-01T14:55:28Z</time></trkpt><trkpt lat="44.49540945424574" lon="6.339090767039976"><ele>1013.0</ele><time>2026-05-01T14:55:29Z</time></trkpt><trkpt lat="44.49540216310378" lon="6.339279227067929"><ele>1013.75</ele><time>2026-05-01T14:55:30Z</time></trkpt><trkpt lat="44.49537514674647" lon="6.33945630683711"><ele>1014.5</ele><time>2026-05-01T14:55:31Z</time></trkpt><trkpt lat="44.49533634525616" lon="6.339635276801975"><ele>1015.25</ele><time>2026-05-01T14:55:32Z</time></trkpt><trkpt lat="44.49528070921722" lon="6.339804718862971"><ele>1016.0</ele><time>2026-05-01T14:55:33Z</time></trkpt><trkpt lat="44.49521751334489" lon="6.3399558323447875"><ele>1016.0</ele><time>2026-05-01T14:55:34Z</time></trkpt><trkpt lat="44.49514187012446" lon="6.340084900527877"><ele>1016.0</ele><time>2026-05-01T14:55:35Z</time></trkpt><trkpt lat="44.49505934798553" lon="6.340218334649449"><ele>1016.0</ele><time>2026-05-01T14:55:36Z</time></trkpt><trkpt lat="44.49496798136223" lon="6.340366172458322"><ele>1016.0</ele><time>2026-05-01T14:55:37Z</time></trkpt><trkpt lat="44.49488046441942" lon="6.340507402321302"><ele>1012.25</ele><time>2026-05-01T14:55:38Z</time></trkpt><trkpt lat="44.494796545837005" lon="6.340639168043211"><ele>1008.5</ele><time>2026-05-01T14:55:39Z</time></trkpt><trkpt lat="44.49470343443883" lon="6.340785368115302"><ele>1004.75</ele><time>2026-05-01T14:55:40Z</time></trkpt><trkpt lat="44.49462441374498" lon="6.34094094965755"><ele>1001.0</ele><time>2026-05-01T14:55:41Z</time></trkpt><trkpt lat="44.49450652815694" lon="6.341065502089147"><ele>1006.5</ele><time>2026-05-01T14:55:42Z</time></trkpt><trkpt lat="44.49441568176977" lon="6.34121655143609"><ele>1012.0</ele><time>2026-05-01T14:55:43Z</time></trkpt><trkpt lat="44.494336175528424" lon="6.341369455854709"><ele>1017.5</ele><time>2026-05-01T14:55:44Z</time></trkpt><trkpt lat="44.49432660637967" lon="6.34153746391046"><ele>1023.0</ele><time>2026-05-01T14:55:45Z</time></trkpt><trkpt lat="44.49436047403063" lon="6.341727055221277"><ele>1023.0</ele><time>2026-05-01T14:55:46Z</time></trkpt><trkpt lat="44.49438932660535" lon="6.341896547590467"><ele>1023.0</ele><time>2026-05-01T14:55:47Z</time></trkpt><trkpt lat="44.49445819112603" lon="6.342047950056884"><ele>1023.0</ele><time>2026-05-01T14:55:48Z</time></trkpt><trkpt lat="44.494552953929585" lon="6.3422213855476395"><ele>1023.0</ele><time>2026-05-01T14:55:49Z</time></trkpt><trkpt lat="44.49466891835176" lon="6.342324426248275"><ele>1018.0</ele><time>2026-05-01T14:55:50Z</time></trkpt><trkpt lat="44.49477033797313" lon="6.34246485890594"><ele>1013.0</ele><time>2026-05-01T14:55:51Z</time></trkpt><trkpt lat="44.49488696536378" lon="6.34259218163684"><ele>1008.0</ele><time>2026-05-01T14:55:52Z</time></trkpt><trkpt lat="44.49504440192168" lon="6.342673683490513"><ele>1008.0</ele><time>2026-05-01T14:55:53Z</time></trkpt><trkpt lat="44.49514962219003" lon="6.34276897043748"><ele>1008.0</ele><time>2026-05-01T14:55:54Z</time></trkpt><trkpt lat="44.495295610914795" lon="6.342813705065745"><ele>1008.0</ele><time>2026-05-01T14:55:55Z</time></trkpt><trkpt lat="44.495442119449024" lon="6.342814227877363"><ele>1008.0</ele><time>2026-05-01T14:55:56Z</time></trkpt><trkpt lat="44.49557664967037" lon="6.3428462317122385"><ele>1007.5</ele><time>2026-05-01T14:55:57Z</time></trkpt><trkpt lat="44.49566447807488" lon="6.34288587350944"><ele>1007.0</ele><time>2026-05-01T14:55:58Z</time></trkpt><trkpt lat="44.49577144766682" lon="6.34298774604459"><ele>1006.5</ele><time>2026-05-01T14:55:59Z</time></trkpt><trkpt lat="44.495852557183845" lon="6.343159247185754"><ele>1006.0</ele><time>2026-05-01T14:56:00Z</time></trkpt><trkpt lat="44.49591435817046" lon="6.343316117597426"><ele>1009.75</ele><time>2026-05-01T14:56:01Z</time></trkpt><trkpt lat="44.49592569376637" lon="6.343466652990527"><ele>1013.5</ele><time>2026-05-01T14:56:02Z</time></trkpt><trkpt lat="44.49596786549363" lon="6.343636295967511"><ele>1017.25</ele><time>2026-05-01T14:56:03Z</time></trkpt><trkpt lat="44.49604994682531" lon="6.343786488790976"><ele>1021.0</ele><time>2026-05-01T14:56:04Z</time></trkpt><trkpt lat="44.49616090351707" lon="6.3438893815980695"><ele>1018.25</ele><time>2026-05-01T14:56:05Z</time></trkpt><trkpt lat="44.496257321202066" lon="6.344002180715256"><ele>1015.5</ele><time>2026-05-01T14:56:06Z</time></trkpt><trkpt lat="44.496368800656526" lon="6.344086439242283"><ele>1012.75</ele><time>2026-05-01T14:56:07Z</time></trkpt><trkpt lat="44.496454223966" lon="6.3441909527111555"><ele>1010.0</ele><time>2026-05-01T14:56:08Z</time></trkpt><trkpt lat="44.4965693401752" lon="6.344343034691142"><ele>1010.0</ele><time>2026-05-01T14:56:09Z</time></trkpt><trkpt lat="44.4966322910868" lon="6.344503533167422"><ele>1010.0</ele><time>2026-05-01T14:56:10Z</time></trkpt><trkpt lat="44.49665985388772" lon="6.34464716606936"><ele>1010.0</ele><time>2026-05-01T14:56:11Z</time></trkpt><trkpt lat="44.49670923085" lon="6.344803574482797"><ele>1010.0</ele><time>2026-05-01T14:56:12Z</time></trkpt><trkpt lat="44.49678760169716" lon="6.344917301475295"><ele>1014.25</ele><time>2026-05-01T14:56:13Z</time></trkpt><trkpt lat="44.49685808093657" lon="6.345018010240013"><ele>1018.5</ele><time>2026-05-01T14:56:14Z</time></trkpt><trkpt lat="44.49697534094121" lon="6.3450608813726035"><ele>1022.75</ele><time>2026-05-01T14:56:15Z</time></trkpt><trkpt lat="44.497124701621054" lon="6.345038797249789"><ele>1027.0</ele><time>2026-05-01T14:56:16Z</time></trkpt><trkpt lat="44.497234392651166" lon="6.34500652745493"><ele>1027.0</ele><time>2026-05-01T14:56:17Z</time></trkpt><trkpt lat="44.49734232737239" lon="6.344926498677972"><ele>1027.0</ele><time>2026-05-01T14:56:18Z</time></trkpt><trkpt lat="44.497401346402654" lon="6.344774284852539"><ele>1027.0</ele><time>2026-05-01T14:56:19Z</time></trkpt><trkpt lat="44.49752535531012" lon="6.344520702515952"><ele>1022.3333333333333</ele><time>2026-05-01T14:56:20Z</time></trkpt><trkpt lat="44.49761454185409" lon="6.344271654917723"><ele>1017.6666666666667</ele><time>2026-05-01T14:56:21Z</time></trkpt><trkpt lat="44.49770906685995" lon="6.344107610754824"><ele>1013.0</ele><time>2026-05-01T14:56:22Z</time></trkpt><trkpt lat="44.49777748190656" lon="6.343935410858399"><ele>1013.0</ele><time>2026-05-01T14:56:23Z</time></trkpt><trkpt lat="44.4978868905003" lon="6.343816720674865"><ele>1013.0</ele><time>2026-05-01T14:56:24Z</time></trkpt><trkpt lat="44.49799774610019" lon="6.343720267900594"><ele>1013.0</ele><time>2026-05-01T14:56:25Z</time></trkpt><trkpt lat="44.49812743509526" lon="6.343672774176542"><ele>1013.0</ele><time>2026-05-01T14:56:26Z</time></trkpt><trkpt lat="44.49824837184186" lon="6.343605280995667"><ele>1013.0</ele><time>2026-05-01T14:56:27Z</time></trkpt><trkpt lat="44.498385550888415" lon="6.343606221618154"><ele>1013.0</ele><time>2026-05-01T14:56:28Z</time></trkpt><trkpt lat="44.498540112608325" lon="6.343631416419557"><ele>1013.0</ele><time>2026-05-01T14:56:29Z</time></trkpt><trkpt lat="44.49866461132873" lon="6.3437069994785995"><ele>1013.0</ele><time>2026-05-01T14:56:30Z</time></trkpt><trkpt lat="44.498784847106535" lon="6.343792470311006"><ele>1014.25</ele><time>2026-05-01T14:56:31Z</time></trkpt><trkpt lat="44.49888714332746" lon="6.343929575236748"><ele>1015.5</ele><time>2026-05-01T14:56:32Z</time></trkpt><trkpt lat="44.4989836109826" lon="6.34408328449805"><ele>1016.75</ele><time>2026-05-01T14:56:33Z</time></trkpt><trkpt lat="44.49904252845324" lon="6.34424658543256"><ele>1018.0</ele><time>2026-05-01T14:56:34Z</time></trkpt><trkpt lat="44.499076335770326" lon="6.344422315620777"><ele>1018.0</ele><time>2026-05-01T14:56:35Z</time></trkpt><trkpt lat="44.49909978983788" lon="6.344614672530902"><ele>1018.0</ele><time>2026-05-01T14:56:36Z</time></trkpt><trkpt lat="44.49911866898683" lon="6.344844868599911"><ele>1018.0</ele><time>2026-05-01T14:56:37Z</time></trkpt><trkpt lat="44.49914342313445" lon="6.345058133435661"><ele>1019.5</ele><time>2026-05-01T14:56:38Z</time></trkpt><trkpt lat="44.49918811189027" lon="6.34524139131055"><ele>1021.0</ele><time>2026-05-01T14:56:39Z</time></trkpt><trkpt lat="44.49926434359239" lon="6.345394902400368"><ele>1022.5</ele><time>2026-05-01T14:56:40Z</time></trkpt><trkpt lat="44.499338932338354" lon="6.345562623254422"><ele>1024.0</ele><time>2026-05-01T14:56:41Z</time></trkpt><trkpt lat="44.499457079896494" lon="6.345685277553481"><ele>1025.6666666666665</ele><time>2026-05-01T14:56:42Z</time></trkpt><trkpt lat="44.4995916825373" lon="6.3457343820225685"><ele>1027.3333333333333</ele><time>2026-05-01T14:56:43Z</time></trkpt><trkpt lat="44.499720606100816" lon="6.345741352789092"><ele>1029.0</ele><time>2026-05-01T14:56:44Z</time></trkpt><trkpt lat="44.499900668925115" lon="6.345652462572087"><ele>1029.0</ele><time>2026-05-01T14:56:45Z</time></trkpt><trkpt lat="44.500111617966084" lon="6.345563957298348"><ele>1029.0</ele><time>2026-05-01T14:56:46Z</time></trkpt><trkpt lat="44.50028607679235" lon="6.345531470984183"><ele>1029.0</ele><time>2026-05-01T14:56:47Z</time></trkpt><trkpt lat="44.500431167087015" lon="6.345490543926871"><ele>1029.0</ele><time>2026-05-01T14:56:48Z</time></trkpt><trkpt lat="44.50059158900165" lon="6.345479449080092"><ele>1029.0</ele><time>2026-05-01T14:56:49Z</time></trkpt><trkpt lat="44.50074172331726" lon="6.345553312302407"><ele>1029.0</ele><time>2026-05-01T14:56:50Z</time></trkpt><trkpt lat="44.50087353229317" lon="6.345616579489691"><ele>1029.0</ele><time>2026-05-01T14:56:51Z</time></trkpt><trkpt lat="44.50104796999564" lon="6.34570508796115"><ele>1029.0</ele><time>2026-05-01T14:56:52Z</time></trkpt><trkpt lat="44.5012089629626" lon="6.3457853865280995"><ele>1029.0</ele><time>2026-05-01T14:56:53Z</time></trkpt><trkpt lat="44.50135883026445" lon="6.3458576934041115"><ele>1028.0</ele><time>2026-05-01T14:56:54Z</time></trkpt><trkpt lat="44.50150263747542" lon="6.345927076841685"><ele>1027.0</ele><time>2026-05-01T14:56:54.999Z</time></trkpt><trkpt lat="44.50163945707586" lon="6.346001750933097"><ele>1026.0</ele><time>2026-05-01T14:56:55.999Z</time></trkpt><trkpt lat="44.501774272521196" lon="6.346083400704357"><ele>1025.0</ele><time>2026-05-01T14:56:56.999Z</time></trkpt><trkpt lat="44.50190200707347" lon="6.346170025387458"><ele>1025.0</ele><time>2026-05-01T14:56:57.999Z</time></trkpt><trkpt lat="44.501989582485386" lon="6.346326294185813"><ele>1025.0</ele><time>2026-05-01T14:56:58.999Z</time></trkpt><trkpt lat="44.502097968647675" lon="6.3464912216689"><ele>1025.0</ele><time>2026-05-01T14:56:59.999Z</time></trkpt><trkpt lat="44.502162204089295" lon="6.3466922240010275"><ele>1021.0</ele><time>2026-05-01T14:57:00.999Z</time></trkpt><trkpt lat="44.502217679179644" lon="6.346912452352176"><ele>1017.0</ele><time>2026-05-01T14:57:01.999Z</time></trkpt><trkpt lat="44.50223326958313" lon="6.347146865183233"><ele>1013.0</ele><time>2026-05-01T14:57:02.999Z</time></trkpt><trkpt lat="44.502249343032986" lon="6.3473938027242625"><ele>1012.75</ele><time>2026-05-01T14:57:03.999Z</time></trkpt><trkpt lat="44.5022540828177" lon="6.347614805334938"><ele>1012.5</ele><time>2026-05-01T14:57:04.999Z</time></trkpt><trkpt lat="44.50225788539151" lon="6.347833691220503"><ele>1012.25</ele><time>2026-05-01T14:57:05.999Z</time></trkpt><trkpt lat="44.50226579660443" lon="6.348001689140634"><ele>1012.0</ele><time>2026-05-01T14:57:06.999Z</time></trkpt><trkpt lat="44.50230419552797" lon="6.34818090046573"><ele>1012.5</ele><time>2026-05-01T14:57:07.999Z</time></trkpt><trkpt lat="44.50237131477116" lon="6.3482999805057085"><ele>1013.0</ele><time>2026-05-01T14:57:08.999Z</time></trkpt><trkpt lat="44.502430409637974" lon="6.34842674766379"><ele>1013.5</ele><time>2026-05-01T14:57:09.999Z</time></trkpt><trkpt lat="44.50254287696016" lon="6.34848434338339"><ele>1014.0</ele><time>2026-05-01T14:57:10.999Z</time></trkpt><trkpt lat="44.50267468534133" lon="6.348560644446308"><ele>1014.0</ele><time>2026-05-01T14:57:11.999Z</time></trkpt><trkpt lat="44.50283909308191" lon="6.3486376005023075"><ele>1014.0</ele><time>2026-05-01T14:57:12.999Z</time></trkpt><trkpt lat="44.50301074088815" lon="6.348709591115584"><ele>1014.0</ele><time>2026-05-01T14:57:14Z</time></trkpt><trkpt lat="44.503236086509965" lon="6.348751439794206"><ele>1014.0</ele><time>2026-05-01T14:57:15Z</time></trkpt><trkpt lat="44.5033978431172" lon="6.348791006060461"><ele>1014.0</ele><time>2026-05-01T14:57:16Z</time></trkpt><trkpt lat="44.50349931796723" lon="6.348784119564461"><ele>1014.0</ele><time>2026-05-01T14:57:17Z</time></trkpt><trkpt lat="44.50356650099917" lon="6.348884741324077"><ele>1014.0</ele><time>2026-05-01T14:57:18Z</time></trkpt><trkpt lat="44.5036482046145" lon="6.349011361268413"><ele>1014.0</ele><time>2026-05-01T14:57:19Z</time></trkpt><trkpt lat="44.503688922048845" lon="6.349168617998983"><ele>1014.0</ele><time>2026-05-01T14:57:20Z</time></trkpt><trkpt lat="44.50372575849485" lon="6.349337699055889"><ele>1014.0</ele><time>2026-05-01T14:57:21Z</time></trkpt><trkpt lat="44.50375872905031" lon="6.349515193666562"><ele>1014.0</ele><time>2026-05-01T14:57:22Z</time></trkpt><trkpt lat="44.503824241376776" lon="6.349687064750489"><ele>1012.0</ele><time>2026-05-01T14:57:23Z</time></trkpt><trkpt lat="44.50390983337982" lon="6.349788764584306"><ele>1010.0</ele><time>2026-05-01T14:57:24Z</time></trkpt><trkpt lat="44.50398749453532" lon="6.349880157118801"><ele>1008.0</ele><time>2026-05-01T14:57:25Z</time></trkpt><trkpt lat="44.50408511684113" lon="6.349931004356727"><ele>1006.0</ele><time>2026-05-01T14:57:26Z</time></trkpt><trkpt lat="44.50425191452431" lon="6.349839679542934"><ele>1006.0</ele><time>2026-05-01T14:57:27Z</time></trkpt><trkpt lat="44.504323787140095" lon="6.349724361830585"><ele>1006.0</ele><time>2026-05-01T14:57:28Z</time></trkpt><trkpt lat="44.50438366526586" lon="6.349564371015838"><ele>1006.0</ele><time>2026-05-01T14:57:29Z</time></trkpt><trkpt lat="44.50444618782518" lon="6.349380375296979"><ele>1006.0</ele><time>2026-05-01T14:57:30Z</time></trkpt><trkpt lat="44.50456802181338" lon="6.349226477358084"><ele>1003.25</ele><time>2026-05-01T14:57:31Z</time></trkpt><trkpt lat="44.504684691130684" lon="6.349121892673876"><ele>1000.5</ele><time>2026-05-01T14:57:32Z</time></trkpt><trkpt lat="44.50480241542359" lon="6.349051897730581"><ele>997.75</ele><time>2026-05-01T14:57:33Z</time></trkpt><trkpt lat="44.504922065359246" lon="6.3490713544761235"><ele>995.0</ele><time>2026-05-01T14:57:34Z</time></trkpt><trkpt lat="44.505069782446846" lon="6.3491380819154735"><ele>995.0</ele><time>2026-05-01T14:57:35Z</time></trkpt><trkpt lat="44.505192528292966" lon="6.349241817965096"><ele>995.0</ele><time>2026-05-01T14:57:36Z</time></trkpt><trkpt lat="44.50531359093118" lon="6.349363182848077"><ele>995.0</ele><time>2026-05-01T14:57:37Z</time></trkpt><trkpt lat="44.50544472088133" lon="6.349495967049376"><ele>996.0</ele><time>2026-05-01T14:57:38Z</time></trkpt><trkpt lat="44.5055934885869" lon="6.349646611395961"><ele>997.0</ele><time>2026-05-01T14:57:39Z</time></trkpt><trkpt lat="44.50576413206447" lon="6.34981940749226"><ele>998.0</ele><time>2026-05-01T14:57:40Z</time></trkpt><trkpt lat="44.50592918909792" lon="6.349986764580231"><ele>998.0</ele><time>2026-05-01T14:57:41Z</time></trkpt><trkpt lat="44.506120942568295" lon="6.350153147227846"><ele>998.0</ele><time>2026-05-01T14:57:42Z</time></trkpt><trkpt lat="44.506274556529135" lon="6.350311758820801"><ele>998.0</ele><time>2026-05-01T14:57:43Z</time></trkpt><trkpt lat="44.50642863295066" lon="6.350465345511814"><ele>998.3333333333334</ele><time>2026-05-01T14:57:44Z</time></trkpt><trkpt lat="44.506588069856456" lon="6.35062773269107"><ele>998.6666666666667</ele><time>2026-05-01T14:57:45Z</time></trkpt><trkpt lat="44.50673411183258" lon="6.350800406201641"><ele>999.0</ele><time>2026-05-01T14:57:46Z</time></trkpt><trkpt lat="44.50688103161607" lon="6.350949084578276"><ele>999.0</ele><time>2026-05-01T14:57:47Z</time></trkpt><trkpt lat="44.50702376466786" lon="6.351093526087398"><ele>999.0</ele><time>2026-05-01T14:57:48Z</time></trkpt><trkpt lat="44.5071790348643" lon="6.3512531816206295"><ele>999.0</ele><time>2026-05-01T14:57:49Z</time></trkpt><trkpt lat="44.507338787140355" lon="6.351408325188506"><ele>996.0</ele><time>2026-05-01T14:57:50Z</time></trkpt><trkpt lat="44.50749306103865" lon="6.35151778467296"><ele>993.0</ele><time>2026-05-01T14:57:51Z</time></trkpt><trkpt lat="44.50764058266374" lon="6.351624874377883"><ele>990.0</ele><time>2026-05-01T14:57:52Z</time></trkpt><trkpt lat="44.507802198797606" lon="6.35169402101401"><ele>984.6666666666667</ele><time>2026-05-01T14:57:53Z</time></trkpt><trkpt lat="44.50797711925197" lon="6.351764941585408"><ele>979.3333333333334</ele><time>2026-05-01T14:57:54Z</time></trkpt><trkpt lat="44.508142274874295" lon="6.351836521317711"><ele>974.0</ele><time>2026-05-01T14:57:55Z</time></trkpt><trkpt lat="44.50830773754059" lon="6.351892924791031"><ele>974.0</ele><time>2026-05-01T14:57:56Z</time></trkpt><trkpt lat="44.50846810081244" lon="6.351952663359324"><ele>974.0</ele><time>2026-05-01T14:57:57Z</time></trkpt><trkpt lat="44.50859423524566" lon="6.352052330055539"><ele>974.0</ele><time>2026-05-01T14:57:58Z</time></trkpt><trkpt lat="44.50870334336512" lon="6.352154169719551"><ele>974.0</ele><time>2026-05-01T14:57:59Z</time></trkpt><trkpt lat="44.50878649442049" lon="6.352291125885631"><ele>972.0</ele><time>2026-05-01T14:58:00Z</time></trkpt><trkpt lat="44.508856197109885" lon="6.352432963457031"><ele>970.0</ele><time>2026-05-01T14:58:01Z</time></trkpt><trkpt lat="44.50891202919585" lon="6.352618263996037"><ele>968.0</ele><time>2026-05-01T14:58:02Z</time></trkpt><trkpt lat="44.50895098151774" lon="6.352831886839428"><ele>966.0</ele><time>2026-05-01T14:58:03Z</time></trkpt><trkpt lat="44.50895616723919" lon="6.3530650720246"><ele>965.3333333333333</ele><time>2026-05-01T14:58:04Z</time></trkpt><trkpt lat="44.50894127106639" lon="6.353321635826593"><ele>964.6666666666666</ele><time>2026-05-01T14:58:05Z</time></trkpt><trkpt lat="44.50890416140319" lon="6.3535887388660734"><ele>964.0</ele><time>2026-05-01T14:58:06Z</time></trkpt><trkpt lat="44.50887378628781" lon="6.353832388264677"><ele>962.6666666666666</ele><time>2026-05-01T14:58:07Z</time></trkpt><trkpt lat="44.5088558302749" lon="6.354033831270638"><ele>961.3333333333333</ele><time>2026-05-01T14:58:08Z</time></trkpt><trkpt lat="44.508853447502375" lon="6.354252495937968"><ele>960.0</ele><time>2026-05-01T14:58:09Z</time></trkpt><trkpt lat="44.508894974637165" lon="6.354455941647383"><ele>960.0</ele><time>2026-05-01T14:58:10Z</time></trkpt><trkpt lat="44.508912725219346" lon="6.354653007797867"><ele>960.0</ele><time>2026-05-01T14:58:11Z</time></trkpt><trkpt lat="44.50899368749584" lon="6.3548413878427334"><ele>960.0</ele><time>2026-05-01T14:58:12Z</time></trkpt><trkpt lat="44.50909368776344" lon="6.354975389781843"><ele>960.0</ele><time>2026-05-01T14:58:13Z</time></trkpt><trkpt lat="44.50924018905365" lon="6.355153352315218"><ele>958.3333333333333</ele><time>2026-05-01T14:58:14Z</time></trkpt><trkpt lat="44.509391647649295" lon="6.355344515371741"><ele>956.6666666666666</ele><time>2026-05-01T14:58:15Z</time></trkpt><trkpt lat="44.50953362810474" lon="6.355526287354703"><ele>955.0</ele><time>2026-05-01T14:58:16Z</time></trkpt><trkpt lat="44.509654540990205" lon="6.3557107105682675"><ele>955.0</ele><time>2026-05-01T14:58:17Z</time></trkpt><trkpt lat="44.50980509526698" lon="6.3558671208389494"><ele>955.0</ele><time>2026-05-01T14:58:18Z</time></trkpt><trkpt lat="44.509917914676926" lon="6.356019606966468"><ele>955.0</ele><time>2026-05-01T14:58:19Z</time></trkpt><trkpt lat="44.510037035284306" lon="6.356167561114138"><ele>955.0</ele><time>2026-05-01T14:58:20Z</time></trkpt><trkpt lat="44.510152117831865" lon="6.356316970128868"><ele>955.0</ele><time>2026-05-01T14:58:21Z</time></trkpt><trkpt lat="44.51026588455171" lon="6.356452253366175"><ele>955.0</ele><time>2026-05-01T14:58:22Z</time></trkpt><trkpt lat="44.51037004235651" lon="6.356573984776294"><ele>955.0</ele><time>2026-05-01T14:58:23Z</time></trkpt><trkpt lat="44.51052254126993" lon="6.356555448115793"><ele>954.75</ele><time>2026-05-01T14:58:24Z</time></trkpt><trkpt lat="44.51065521379304" lon="6.356576694872773"><ele>954.5</ele><time>2026-05-01T14:58:25Z</time></trkpt><trkpt lat="44.51077906532175" lon="6.356575906016905"><ele>954.25</ele><time>2026-05-01T14:58:26Z</time></trkpt><trkpt lat="44.51090798344278" lon="6.356531457035205"><ele>954.0</ele><time>2026-05-01T14:58:27Z</time></trkpt><trkpt lat="44.51099992129459" lon="6.356434104449227"><ele>950.5</ele><time>2026-05-01T14:58:28Z</time></trkpt><trkpt lat="44.51109434100243" lon="6.3563148857137595"><ele>947.0</ele><time>2026-05-01T14:58:29Z</time></trkpt><trkpt lat="44.511200006612455" lon="6.356231042322944"><ele>943.5</ele><time>2026-05-01T14:58:30Z</time></trkpt><trkpt lat="44.5113346502152" lon="6.3561204000207505"><ele>940.0</ele><time>2026-05-01T14:58:31Z</time></trkpt><trkpt lat="44.511448038595134" lon="6.356054745150526"><ele>940.0</ele><time>2026-05-01T14:58:32Z</time></trkpt><trkpt lat="44.51157495285835" lon="6.356052074015682"><ele>940.0</ele><time>2026-05-01T14:58:33Z</time></trkpt><trkpt lat="44.511704276710866" lon="6.356050999069198"><ele>940.0</ele><time>2026-05-01T14:58:34Z</time></trkpt><trkpt lat="44.511826052823885" lon="6.356125031563614"><ele>940.0</ele><time>2026-05-01T14:58:35Z</time></trkpt><trkpt lat="44.51195475659395" lon="6.356193901699803"><ele>940.0</ele><time>2026-05-01T14:58:36Z</time></trkpt><trkpt lat="44.51206148643821" lon="6.356321383257897"><ele>940.0</ele><time>2026-05-01T14:58:37Z</time></trkpt><trkpt lat="44.51212983584478" lon="6.356470761362178"><ele>940.0</ele><time>2026-05-01T14:58:38Z</time></trkpt><trkpt lat="44.51220195378471" lon="6.356631191790541"><ele>940.0</ele><time>2026-05-01T14:58:39Z</time></trkpt><trkpt lat="44.51226006439821" lon="6.356794927774773"><ele>938.0</ele><time>2026-05-01T14:58:40Z</time></trkpt><trkpt lat="44.512285960099895" lon="6.3570061374360725"><ele>936.0</ele><time>2026-05-01T14:58:41Z</time></trkpt><trkpt lat="44.512305049887686" lon="6.357215170794581"><ele>934.0</ele><time>2026-05-01T14:58:42Z</time></trkpt><trkpt lat="44.51231272728517" lon="6.3574312661100505"><ele>933.0</ele><time>2026-05-01T14:58:43Z</time></trkpt><trkpt lat="44.51220824861064" lon="6.357666069471241"><ele>932.0</ele><time>2026-05-01T14:58:44Z</time></trkpt><trkpt lat="44.51214257958432" lon="6.357862436733114"><ele>931.0</ele><time>2026-05-01T14:58:45Z</time></trkpt><trkpt lat="44.51207488234226" lon="6.358100115498013"><ele>939.3333333333333</ele><time>2026-05-01T14:58:46Z</time></trkpt><trkpt lat="44.51200611266914" lon="6.358332683077197"><ele>947.6666666666667</ele><time>2026-05-01T14:58:47Z</time></trkpt><trkpt lat="44.51193814171174" lon="6.358549099409547"><ele>956.0</ele><time>2026-05-01T14:58:48Z</time></trkpt><trkpt lat="44.511863018790784" lon="6.3587852347036895"><ele>951.0</ele><time>2026-05-01T14:58:49Z</time></trkpt><trkpt lat="44.511789516087745" lon="6.359014327021066"><ele>946.0</ele><time>2026-05-01T14:58:50Z</time></trkpt><trkpt lat="44.51171505836098" lon="6.359240066623755"><ele>941.0</ele><time>2026-05-01T14:58:51Z</time></trkpt><trkpt lat="44.51164740952981" lon="6.359451709209814"><ele>941.0</ele><time>2026-05-01T14:58:52Z</time></trkpt><trkpt lat="44.511600871787856" lon="6.359681838387649"><ele>941.0</ele><time>2026-05-01T14:58:53Z</time></trkpt><trkpt lat="44.511590456294286" lon="6.35988838856502"><ele>941.0</ele><time>2026-05-01T14:58:54Z</time></trkpt><trkpt lat="44.511623204668304" lon="6.36009146549605"><ele>940.6666666666667</ele><time>2026-05-01T14:58:55Z</time></trkpt><trkpt lat="44.511654952080555" lon="6.360293712553255"><ele>940.3333333333333</ele><time>2026-05-01T14:58:56Z</time></trkpt><trkpt lat="44.51169936250438" lon="6.360495048637436"><ele>940.0</ele><time>2026-05-01T14:58:57Z</time></trkpt><trkpt lat="44.51179878925289" lon="6.360659930545008"><ele>940.0</ele><time>2026-05-01T14:58:58Z</time></trkpt><trkpt lat="44.51192501557595" lon="6.36084095928533"><ele>940.0</ele><time>2026-05-01T14:58:59Z</time></trkpt><trkpt lat="44.512097893910294" lon="6.360964620098166"><ele>940.0</ele><time>2026-05-01T14:59:00Z</time></trkpt><trkpt lat="44.51223372159286" lon="6.361133730661172"><ele>933.6666666666666</ele><time>2026-05-01T14:59:01Z</time></trkpt><trkpt lat="44.51235277110038" lon="6.361294815864326"><ele>927.3333333333333</ele><time>2026-05-01T14:59:02Z</time></trkpt><trkpt lat="44.512497108067386" lon="6.361435225496754"><ele>921.0</ele><time>2026-05-01T14:59:03Z</time></trkpt><trkpt lat="44.512610558550186" lon="6.361573198612067"><ele>921.0</ele><time>2026-05-01T14:59:04Z</time></trkpt><trkpt lat="44.51270754810577" lon="6.361695804977267"><ele>921.0</ele><time>2026-05-01T14:59:05Z</time></trkpt><trkpt lat="44.5127965637372" lon="6.361888386481793"><ele>921.0</ele><time>2026-05-01T14:59:06Z</time></trkpt><trkpt lat="44.51286365758658" lon="6.362092105973906"><ele>923.0</ele><time>2026-05-01T14:59:07Z</time></trkpt><trkpt lat="44.51290137870194" lon="6.36232684555574"><ele>925.0</ele><time>2026-05-01T14:59:08Z</time></trkpt><trkpt lat="44.51293919787929" lon="6.3625739736806075"><ele>927.0</ele><time>2026-05-01T14:59:08.999Z</time></trkpt><trkpt lat="44.51297135658319" lon="6.362814169513667"><ele>919.3333333333333</ele><time>2026-05-01T14:59:09.999Z</time></trkpt><trkpt lat="44.51302046962101" lon="6.363035834725848"><ele>911.6666666666666</ele><time>2026-05-01T14:59:10.999Z</time></trkpt><trkpt lat="44.51310261418323" lon="6.363246023046975"><ele>904.0</ele><time>2026-05-01T14:59:11.999Z</time></trkpt><trkpt lat="44.513194580488985" lon="6.363447482685235"><ele>904.0</ele><time>2026-05-01T14:59:12.999Z</time></trkpt><trkpt lat="44.51330225304574" lon="6.363642961780831"><ele>904.0</ele><time>2026-05-01T14:59:13.999Z</time></trkpt><trkpt lat="44.51344078112" lon="6.363815547961435"><ele>904.0</ele><time>2026-05-01T14:59:14.999Z</time></trkpt><trkpt lat="44.51355520146313" lon="6.3639655945406375"><ele>904.5</ele><time>2026-05-01T14:59:15.999Z</time></trkpt><trkpt lat="44.513677916690185" lon="6.364086400759777"><ele>905.0</ele><time>2026-05-01T14:59:16.999Z</time></trkpt><trkpt lat="44.513721389309964" lon="6.364244889835734"><ele>905.5</ele><time>2026-05-01T14:59:17.999Z</time></trkpt><trkpt lat="44.513784850175824" lon="6.364397170150855"><ele>906.0</ele><time>2026-05-01T14:59:18.999Z</time></trkpt><trkpt lat="44.513792102513534" lon="6.364586290118284"><ele>898.6666666666667</ele><time>2026-05-01T14:59:20Z</time></trkpt><trkpt lat="44.51378729129779" lon="6.364785506974292"><ele>891.3333333333334</ele><time>2026-05-01T14:59:21Z</time></trkpt><trkpt lat="44.51383515370973" lon="6.3649886802073485"><ele>884.0</ele><time>2026-05-01T14:59:22Z</time></trkpt><trkpt lat="44.513779677224676" lon="6.365203899721112"><ele>885.3333333333334</ele><time>2026-05-01T14:59:23Z</time></trkpt><trkpt lat="44.513720681043324" lon="6.365407926695616"><ele>886.6666666666667</ele><time>2026-05-01T14:59:24Z</time></trkpt><trkpt lat="44.51364820776859" lon="6.365628000061339"><ele>888.0</ele><time>2026-05-01T14:59:25Z</time></trkpt><trkpt lat="44.513469054837046" lon="6.365810714170786"><ele>888.0</ele><time>2026-05-01T14:59:26Z</time></trkpt><trkpt lat="44.513402734176466" lon="6.366058294959633"><ele>888.0</ele><time>2026-05-01T14:59:27Z</time></trkpt><trkpt lat="44.51337679128634" lon="6.366296131683971"><ele>888.0</ele><time>2026-05-01T14:59:28Z</time></trkpt><trkpt lat="44.5133801141171" lon="6.366542048116718"><ele>887.6666666666667</ele><time>2026-05-01T14:59:29Z</time></trkpt><trkpt lat="44.51340692391492" lon="6.3667857266532994"><ele>887.3333333333334</ele><time>2026-05-01T14:59:30Z</time></trkpt><trkpt lat="44.51343135646839" lon="6.367029535186482"><ele>887.0</ele><time>2026-05-01T14:59:31Z</time></trkpt><trkpt lat="44.51352028324611" lon="6.367275819469942"><ele>887.0</ele><time>2026-05-01T14:59:32Z</time></trkpt><trkpt lat="44.51360618745345" lon="6.367568150743239"><ele>887.0</ele><time>2026-05-01T14:59:33Z</time></trkpt><trkpt lat="44.51373942877477" lon="6.3678386149787185"><ele>879.0</ele><time>2026-05-01T14:59:34Z</time></trkpt><trkpt lat="44.51383532367686" lon="6.368115547329743"><ele>871.0</ele><time>2026-05-01T14:59:35Z</time></trkpt><trkpt lat="44.513929180370404" lon="6.368337555275725"><ele>863.0</ele><time>2026-05-01T14:59:36Z</time></trkpt><trkpt lat="44.514031481785906" lon="6.368589044974377"><ele>863.0</ele><time>2026-05-01T14:59:37Z</time></trkpt><trkpt lat="44.51412668813867" lon="6.368821098568031"><ele>863.0</ele><time>2026-05-01T14:59:38Z</time></trkpt><trkpt lat="44.514209186258434" lon="6.369060081281612"><ele>863.0</ele><time>2026-05-01T14:59:39Z</time></trkpt><trkpt lat="44.51428879633725" lon="6.3692915366569185"><ele>863.3333333333334</ele><time>2026-05-01T14:59:40Z</time></trkpt><trkpt lat="44.514357502098925" lon="6.369532999419079"><ele>863.6666666666667</ele><time>2026-05-01T14:59:41Z</time></trkpt><trkpt lat="44.514431933056315" lon="6.369752714224564"><ele>864.0</ele><time>2026-05-01T14:59:42Z</time></trkpt><trkpt lat="44.51449798129371" lon="6.369940541911103"><ele>864.5</ele><time>2026-05-01T14:59:43Z</time></trkpt><trkpt lat="44.51453326400599" lon="6.370127884269225"><ele>865.0</ele><time>2026-05-01T14:59:44Z</time></trkpt><trkpt lat="44.514540057719124" lon="6.370310347064331"><ele>865.5</ele><time>2026-05-01T14:59:45Z</time></trkpt><trkpt lat="44.514525055424166" lon="6.370513363152016"><ele>866.0</ele><time>2026-05-01T14:59:46Z</time></trkpt><trkpt lat="44.514481501514574" lon="6.370675669622318"><ele>864.5</ele><time>2026-05-01T14:59:47Z</time></trkpt><trkpt lat="44.51441754639022" lon="6.370851573909293"><ele>863.0</ele><time>2026-05-01T14:59:48Z</time></trkpt><trkpt lat="44.5143374898615" lon="6.370987993258044"><ele>861.5</ele><time>2026-05-01T14:59:49Z</time></trkpt><trkpt lat="44.51422071613331" lon="6.371120646349831"><ele>860.0</ele><time>2026-05-01T14:59:50Z</time></trkpt><trkpt lat="44.514112404472684" lon="6.3712166298682025"><ele>860.0</ele><time>2026-05-01T14:59:51Z</time></trkpt><trkpt lat="44.51398235460875" lon="6.371325251290892"><ele>860.0</ele><time>2026-05-01T14:59:52Z</time></trkpt><trkpt lat="44.51385997770161" lon="6.3714660616576495"><ele>860.0</ele><time>2026-05-01T14:59:53Z</time></trkpt><trkpt lat="44.513763803626176" lon="6.371590021029373"><ele>860.0</ele><time>2026-05-01T14:59:54Z</time></trkpt><trkpt lat="44.513694848398245" lon="6.371710688242088"><ele>860.0</ele><time>2026-05-01T14:59:55Z</time></trkpt><trkpt lat="44.513650115012354" lon="6.371801194570441"><ele>860.0</ele><time>2026-05-01T14:59:56Z</time></trkpt><trkpt lat="44.51368333866553" lon="6.371958175054845"><ele>860.0</ele><time>2026-05-01T14:59:57Z</time></trkpt><trkpt lat="44.51368498658795" lon="6.3720999046268405"><ele>860.0</ele><time>2026-05-01T14:59:58Z</time></trkpt><trkpt lat="44.51371010034857" lon="6.3722359312669115"><ele>860.0</ele><time>2026-05-01T14:59:59Z</time></trkpt><trkpt lat="44.51373597601806" lon="6.372422103028755"><ele>855.6666666666667</ele><time>2026-05-01T15:00:00Z</time></trkpt><trkpt lat="44.51378853655105" lon="6.372618304334846"><ele>851.3333333333333</ele><time>2026-05-01T15:00:01Z</time></trkpt><trkpt lat="44.513852542669184" lon="6.372845617016627"><ele>847.0</ele><time>2026-05-01T15:00:02Z</time></trkpt><trkpt lat="44.51391535430725" lon="6.3730635595934775"><ele>847.0</ele><time>2026-05-01T15:00:03Z</time></trkpt><trkpt lat="44.513965132239065" lon="6.37329504062543"><ele>847.0</ele><time>2026-05-01T15:00:04Z</time></trkpt><trkpt lat="44.514008279727605" lon="6.373550897215733"><ele>847.0</ele><time>2026-05-01T15:00:05Z</time></trkpt><trkpt lat="44.514085742384175" lon="6.373805570963931"><ele>846.6666666666666</ele><time>2026-05-01T15:00:06Z</time></trkpt><trkpt lat="44.5141588761568" lon="6.3740602909653195"><ele>846.3333333333333</ele><time>2026-05-01T15:00:07Z</time></trkpt><trkpt lat="44.51421889533972" lon="6.3743065721457235"><ele>846.0</ele><time>2026-05-01T15:00:08Z</time></trkpt><trkpt lat="44.51426813406157" lon="6.3745443792203"><ele>846.3333333333333</ele><time>2026-05-01T15:00:09Z</time></trkpt><trkpt lat="44.51433318513845" lon="6.374761421449226"><ele>846.6666666666666</ele><time>2026-05-01T15:00:10Z</time></trkpt><trkpt lat="44.5143924800111" lon="6.374990024678879"><ele>847.0</ele><time>2026-05-01T15:00:11Z</time></trkpt><trkpt lat="44.51444402469718" lon="6.375233195684764"><ele>847.0</ele><time>2026-05-01T15:00:12Z</time></trkpt><trkpt lat="44.514512544349564" lon="6.375479369582589"><ele>847.0</ele><time>2026-05-01T15:00:13Z</time></trkpt><trkpt lat="44.51455914491354" lon="6.375734352064618"><ele>847.0</ele><time>2026-05-01T15:00:14Z</time></trkpt><trkpt lat="44.51461197951326" lon="6.375984947384963"><ele>842.3333333333333</ele><time>2026-05-01T15:00:15Z</time></trkpt><trkpt lat="44.51469680131657" lon="6.376217289947414"><ele>837.6666666666667</ele><time>2026-05-01T15:00:16Z</time></trkpt><trkpt lat="44.51477706148021" lon="6.37644210815836"><ele>833.0</ele><time>2026-05-01T15:00:17Z</time></trkpt><trkpt lat="44.514866912733616" lon="6.376665857451893"><ele>833.0</ele><time>2026-05-01T15:00:18Z</time></trkpt><trkpt lat="44.51500100051833" lon="6.376854826198712"><ele>833.0</ele><time>2026-05-01T15:00:19Z</time></trkpt><trkpt lat="44.5151483779616" lon="6.377072350890228"><ele>833.0</ele><time>2026-05-01T15:00:20Z</time></trkpt><trkpt lat="44.515284144955025" lon="6.377254021652646"><ele>828.0</ele><time>2026-05-01T15:00:21Z</time></trkpt><trkpt lat="44.51541838401281" lon="6.3774323916836515"><ele>823.0</ele><time>2026-05-01T15:00:22Z</time></trkpt><trkpt lat="44.515559853230926" lon="6.377624528165095"><ele>818.0</ele><time>2026-05-01T15:00:23Z</time></trkpt><trkpt lat="44.5157019427391" lon="6.377823221035992"><ele>819.6666666666667</ele><time>2026-05-01T15:00:24Z</time></trkpt><trkpt lat="44.51581806614862" lon="6.378067186080973"><ele>821.3333333333333</ele><time>2026-05-01T15:00:25Z</time></trkpt><trkpt lat="44.515907428570344" lon="6.378318958227665"><ele>823.0</ele><time>2026-05-01T15:00:26Z</time></trkpt><trkpt lat="44.515988549698115" lon="6.378578796252908"><ele>824.3333333333333</ele><time>2026-05-01T15:00:27Z</time></trkpt><trkpt lat="44.516059476067845" lon="6.378858870948238"><ele>825.6666666666667</ele><time>2026-05-01T15:00:28Z</time></trkpt><trkpt lat="44.516119795223204" lon="6.3791587666997325"><ele>827.0</ele><time>2026-05-01T15:00:29Z</time></trkpt><trkpt lat="44.51617484404565" lon="6.379472557956165"><ele>827.5</ele><time>2026-05-01T15:00:30Z</time></trkpt><trkpt lat="44.51623052035749" lon="6.379797916399858"><ele>828.0</ele><time>2026-05-01T15:00:31Z</time></trkpt><trkpt lat="44.51628085120278" lon="6.38009203730757"><ele>823.0</ele><time>2026-05-01T15:00:32Z</time></trkpt><trkpt lat="44.5163309292803" lon="6.380382210628946"><ele>818.0</ele><time>2026-05-01T15:00:33Z</time></trkpt><trkpt lat="44.516379848733" lon="6.380656574464502"><ele>813.0</ele><time>2026-05-01T15:00:34Z</time></trkpt><trkpt lat="44.516430308783804" lon="6.380937938392454"><ele>813.0</ele><time>2026-05-01T15:00:35Z</time></trkpt><trkpt lat="44.516479655236864" lon="6.38119939857822"><ele>813.0</ele><time>2026-05-01T15:00:36Z</time></trkpt><trkpt lat="44.51652731065858" lon="6.3814299545005015"><ele>813.0</ele><time>2026-05-01T15:00:37Z</time></trkpt><trkpt lat="44.51659536220518" lon="6.38166547284326"><ele>813.3333333333333</ele><time>2026-05-01T15:00:38Z</time></trkpt><trkpt lat="44.516654578645955" lon="6.381909126265013"><ele>813.6666666666666</ele><time>2026-05-01T15:00:39Z</time></trkpt><trkpt lat="44.516719236635815" lon="6.382130756667446"><ele>814.0</ele><time>2026-05-01T15:00:40Z</time></trkpt><trkpt lat="44.51677219242938" lon="6.382349395155295"><ele>816.6666666666666</ele><time>2026-05-01T15:00:41Z</time></trkpt><trkpt lat="44.516837217346634" lon="6.382576330454618"><ele>819.3333333333333</ele><time>2026-05-01T15:00:42Z</time></trkpt><trkpt lat="44.51692519965277" lon="6.382747830901108"><ele>822.0</ele><time>2026-05-01T15:00:43Z</time></trkpt><trkpt lat="44.516995364405034" lon="6.382932459450512"><ele>816.6666666666667</ele><time>2026-05-01T15:00:44Z</time></trkpt><trkpt lat="44.51707725261004" lon="6.383115553316396"><ele>811.3333333333334</ele><time>2026-05-01T15:00:45Z</time></trkpt><trkpt lat="44.517181636935035" lon="6.383281785028923"><ele>806.0</ele><time>2026-05-01T15:00:46Z</time></trkpt><trkpt lat="44.517293127233074" lon="6.383435628135788"><ele>806.0</ele><time>2026-05-01T15:00:47Z</time></trkpt><trkpt lat="44.51740528862893" lon="6.383579898549002"><ele>806.0</ele><time>2026-05-01T15:00:48Z</time></trkpt><trkpt lat="44.51752993514095" lon="6.383706554891601"><ele>806.0</ele><time>2026-05-01T15:00:49Z</time></trkpt><trkpt lat="44.517661017000975" lon="6.3838506319290085"><ele>805.5</ele><time>2026-05-01T15:00:50Z</time></trkpt><trkpt lat="44.51776894435744" lon="6.383987767596948"><ele>805.0</ele><time>2026-05-01T15:00:51Z</time></trkpt><trkpt lat="44.517897827652725" lon="6.384116534720332"><ele>804.5</ele><time>2026-05-01T15:00:52Z</time></trkpt><trkpt lat="44.517978189754956" lon="6.384278924146853"><ele>804.0</ele><time>2026-05-01T15:00:53Z</time></trkpt><trkpt lat="44.51810229112209" lon="6.384403945533015"><ele>804.0</ele><time>2026-05-01T15:00:54Z</time></trkpt><trkpt lat="44.51822775006939" lon="6.384518569305064"><ele>804.0</ele><time>2026-05-01T15:00:55Z</time></trkpt><trkpt lat="44.51835591085052" lon="6.384636209881285"><ele>804.0</ele><time>2026-05-01T15:00:56Z</time></trkpt><trkpt lat="44.51846499348635" lon="6.3847519845835325"><ele>804.0</ele><time>2026-05-01T15:00:57Z</time></trkpt><trkpt lat="44.518583497704455" lon="6.384860804541927"><ele>803.75</ele><time>2026-05-01T15:00:58Z</time></trkpt><trkpt lat="44.518705382219956" lon="6.3849706250433895"><ele>803.5</ele><time>2026-05-01T15:00:59Z</time></trkpt><trkpt lat="44.51880950986159" lon="6.385098579330898"><ele>803.25</ele><time>2026-05-01T15:01:00Z</time></trkpt><trkpt lat="44.51892743776184" lon="6.38524217965106"><ele>803.0</ele><time>2026-05-01T15:01:01Z</time></trkpt><trkpt lat="44.51904378017852" lon="6.385398773523727"><ele>804.0</ele><time>2026-05-01T15:01:02Z</time></trkpt><trkpt lat="44.5191373019663" lon="6.385589119737163"><ele>805.0</ele><time>2026-05-01T15:01:03Z</time></trkpt><trkpt lat="44.51920730776931" lon="6.3857817461902275"><ele>806.0</ele><time>2026-05-01T15:01:04Z</time></trkpt><trkpt lat="44.519246186064834" lon="6.385975220719661"><ele>806.0</ele><time>2026-05-01T15:01:05Z</time></trkpt><trkpt lat="44.51928886230132" lon="6.386162059873188"><ele>806.0</ele><time>2026-05-01T15:01:06Z</time></trkpt><trkpt lat="44.51932075563293" lon="6.386352439453192"><ele>806.0</ele><time>2026-05-01T15:01:07Z</time></trkpt><trkpt lat="44.519316478590916" lon="6.386539433466379"><ele>806.0</ele><time>2026-05-01T15:01:08Z</time></trkpt><trkpt lat="44.51930475226112" lon="6.386742408877073"><ele>806.0</ele><time>2026-05-01T15:01:09Z</time></trkpt><trkpt lat="44.51927717561585" lon="6.386947868589466"><ele>806.0</ele><time>2026-05-01T15:01:10Z</time></trkpt><trkpt lat="44.51925319885642" lon="6.387166536679192"><ele>806.0</ele><time>2026-05-01T15:01:11Z</time></trkpt><trkpt lat="44.51922667839312" lon="6.387399649353489"><ele>805.6666666666667</ele><time>2026-05-01T15:01:12Z</time></trkpt><trkpt lat="44.51920020476252" lon="6.387636436561405"><ele>805.3333333333333</ele><time>2026-05-01T15:01:13Z</time></trkpt><trkpt lat="44.519174818835815" lon="6.387889786865107"><ele>805.0</ele><time>2026-05-01T15:01:14Z</time></trkpt><trkpt lat="44.51914832890074" lon="6.388152850635073"><ele>805.0</ele><time>2026-05-01T15:01:15Z</time></trkpt><trkpt lat="44.51912272495321" lon="6.388404790110491"><ele>805.0</ele><time>2026-05-01T15:01:16Z</time></trkpt><trkpt lat="44.51911673828933" lon="6.388651847819009"><ele>805.0</ele><time>2026-05-01T15:01:16.999Z</time></trkpt><trkpt lat="44.51911269017523" lon="6.388875240160259"><ele>805.3333333333333</ele><time>2026-05-01T15:01:17.999Z</time></trkpt><trkpt lat="44.5191274628726" lon="6.389108991770618"><ele>805.6666666666667</ele><time>2026-05-01T15:01:18.999Z</time></trkpt><trkpt lat="44.51916579840361" lon="6.3893809793589815"><ele>806.0</ele><time>2026-05-01T15:01:19.999Z</time></trkpt><trkpt lat="44.519233827410666" lon="6.389619133592769"><ele>810.0</ele><time>2026-05-01T15:01:20.999Z</time></trkpt><trkpt lat="44.519319652325876" lon="6.389859411265449"><ele>814.0</ele><time>2026-05-01T15:01:21.999Z</time></trkpt><trkpt lat="44.51942632061179" lon="6.390086991310714"><ele>818.0</ele><time>2026-05-01T15:01:22.999Z</time></trkpt><trkpt lat="44.519552643655466" lon="6.390318174575299"><ele>813.0</ele><time>2026-05-01T15:01:23.999Z</time></trkpt><trkpt lat="44.519672367007985" lon="6.390540023817048"><ele>808.0</ele><time>2026-05-01T15:01:24.999Z</time></trkpt><trkpt lat="44.519823411724296" lon="6.390751451862849"><ele>803.0</ele><time>2026-05-01T15:01:26Z</time></trkpt><trkpt lat="44.519954158798114" lon="6.390969069144425"><ele>803.0</ele><time>2026-05-01T15:01:27Z</time></trkpt><trkpt lat="44.520092496355986" lon="6.391152610906645"><ele>803.0</ele><time>2026-05-01T15:01:28Z</time></trkpt><trkpt lat="44.520228861471075" lon="6.391321705702912"><ele>803.0</ele><time>2026-05-01T15:01:29Z</time></trkpt><trkpt lat="44.52034770294862" lon="6.391509840653884"><ele>796.3333333333334</ele><time>2026-05-01T15:01:30Z</time></trkpt><trkpt lat="44.520467250413034" lon="6.391692130732059"><ele>789.6666666666667</ele><time>2026-05-01T15:01:31Z</time></trkpt><trkpt lat="44.520577352420545" lon="6.391891963424695"><ele>783.0</ele><time>2026-05-01T15:01:32Z</time></trkpt><trkpt lat="44.52072231565829" lon="6.392100353838013"><ele>792.6666666666667</ele><time>2026-05-01T15:01:33Z</time></trkpt><trkpt lat="44.520845343496816" lon="6.392316957382992"><ele>802.3333333333334</ele><time>2026-05-01T15:01:34Z</time></trkpt><trkpt lat="44.52097936639975" lon="6.392553396896679"><ele>812.0</ele><time>2026-05-01T15:01:35Z</time></trkpt><trkpt lat="44.52110139862103" lon="6.392773858032499"><ele>812.0</ele><time>2026-05-01T15:01:36Z</time></trkpt><trkpt lat="44.521213334569595" lon="6.392983481346394"><ele>812.0</ele><time>2026-05-01T15:01:37Z</time></trkpt><trkpt lat="44.52132549353741" lon="6.393206268294412"><ele>812.0</ele><time>2026-05-01T15:01:38Z</time></trkpt><trkpt lat="44.521425433503644" lon="6.393418742802954"><ele>811.6666666666667</ele><time>2026-05-01T15:01:39Z</time></trkpt><trkpt lat="44.52151550780159" lon="6.393614929385399"><ele>811.3333333333333</ele><time>2026-05-01T15:01:40Z</time></trkpt><trkpt lat="44.521607941151096" lon="6.3938033963033725"><ele>811.0</ele><time>2026-05-01T15:01:41Z</time></trkpt><trkpt lat="44.521714370531775" lon="6.393964076120032"><ele>811.0</ele><time>2026-05-01T15:01:42Z</time></trkpt><trkpt lat="44.5218338936058" lon="6.394063170031798"><ele>811.0</ele><time>2026-05-01T15:01:43Z</time></trkpt><trkpt lat="44.521981372501116" lon="6.394121517394558"><ele>811.0</ele><time>2026-05-01T15:01:44Z</time></trkpt><trkpt lat="44.522129864539274" lon="6.394207135215528"><ele>802.6666666666666</ele><time>2026-05-01T15:01:45Z</time></trkpt><trkpt lat="44.522279710299756" lon="6.394309649405595"><ele>794.3333333333333</ele><time>2026-05-01T15:01:46Z</time></trkpt><trkpt lat="44.52242123750469" lon="6.394406591069672"><ele>786.0</ele><time>2026-05-01T15:01:47Z</time></trkpt><trkpt lat="44.52256905959499" lon="6.394558435668768"><ele>793.3333333333333</ele><time>2026-05-01T15:01:48Z</time></trkpt><trkpt lat="44.5226807259069" lon="6.39473943050342"><ele>800.6666666666666</ele><time>2026-05-01T15:01:49Z</time></trkpt><trkpt lat="44.52276841261853" lon="6.394931515890091"><ele>808.0</ele><time>2026-05-01T15:01:50Z</time></trkpt><trkpt lat="44.52283626201032" lon="6.395144694729661"><ele>808.0</ele><time>2026-05-01T15:01:51Z</time></trkpt><trkpt lat="44.52287488833122" lon="6.395375755270038"><ele>808.0</ele><time>2026-05-01T15:01:52Z</time></trkpt><trkpt lat="44.522893867520864" lon="6.3956129382835325"><ele>808.0</ele><time>2026-05-01T15:01:53Z</time></trkpt><trkpt lat="44.52288917914717" lon="6.395842064967117"><ele>808.3333333333333</ele><time>2026-05-01T15:01:54Z</time></trkpt><trkpt lat="44.52285907725979" lon="6.396088726724022"><ele>808.6666666666667</ele><time>2026-05-01T15:01:55Z</time></trkpt><trkpt lat="44.52280472792696" lon="6.396321696276546"><ele>809.0</ele><time>2026-05-01T15:01:56Z</time></trkpt><trkpt lat="44.52273417551164" lon="6.396549737615413"><ele>809.0</ele><time>2026-05-01T15:01:57Z</time></trkpt><trkpt lat="44.52266207315836" lon="6.396757554061546"><ele>809.0</ele><time>2026-05-01T15:01:58Z</time></trkpt><trkpt lat="44.52259255231881" lon="6.396974371029745"><ele>809.0</ele><time>2026-05-01T15:01:59Z</time></trkpt><trkpt lat="44.52254885236938" lon="6.397179593562377"><ele>806.3333333333334</ele><time>2026-05-01T15:02:00Z</time></trkpt><trkpt lat="44.522536799625236" lon="6.397385286822518"><ele>803.6666666666667</ele><time>2026-05-01T15:02:01Z</time></trkpt><trkpt lat="44.52254495598" lon="6.397600166159816"><ele>801.0</ele><time>2026-05-01T15:02:02Z</time></trkpt><trkpt lat="44.52256203193993" lon="6.397833355195957"><ele>803.3333333333333</ele><time>2026-05-01T15:02:03Z</time></trkpt><trkpt lat="44.5226347383153" lon="6.398059911354763"><ele>805.6666666666666</ele><time>2026-05-01T15:02:04Z</time></trkpt><trkpt lat="44.522703968174504" lon="6.398320123030034"><ele>808.0</ele><time>2026-05-01T15:02:05Z</time></trkpt><trkpt lat="44.522776117276784" lon="6.398533166278833"><ele>808.0</ele><time>2026-05-01T15:02:06Z</time></trkpt><trkpt lat="44.52283901929588" lon="6.398749461541988"><ele>808.0</ele><time>2026-05-01T15:02:07Z</time></trkpt><trkpt lat="44.522901785712705" lon="6.398908237279264"><ele>808.0</ele><time>2026-05-01T15:02:08Z</time></trkpt><trkpt lat="44.522972912046065" lon="6.399097319486675"><ele>808.0</ele><time>2026-05-01T15:02:09Z</time></trkpt><trkpt lat="44.52305061078677" lon="6.399264866547478"><ele>806.0</ele><time>2026-05-01T15:02:10Z</time></trkpt><trkpt lat="44.523130769535264" lon="6.399391649423436"><ele>804.0</ele><time>2026-05-01T15:02:11Z</time></trkpt><trkpt lat="44.52324032968854" lon="6.399542585011849"><ele>802.0</ele><time>2026-05-01T15:02:12Z</time></trkpt><trkpt lat="44.52338472840261" lon="6.399646274243631"><ele>800.0</ele><time>2026-05-01T15:02:13Z</time></trkpt><trkpt lat="44.52350802755817" lon="6.399757905204455"><ele>800.0</ele><time>2026-05-01T15:02:14Z</time></trkpt><trkpt lat="44.52364101498406" lon="6.399844337811535"><ele>800.0</ele><time>2026-05-01T15:02:15Z</time></trkpt><trkpt lat="44.52376992188806" lon="6.39993308177602"><ele>800.0</ele><time>2026-05-01T15:02:16Z</time></trkpt><trkpt lat="44.52391644474967" lon="6.40002315666416"><ele>798.3333333333334</ele><time>2026-05-01T15:02:17Z</time></trkpt><trkpt lat="44.52404707724891" lon="6.400116053782446"><ele>796.6666666666667</ele><time>2026-05-01T15:02:18Z</time></trkpt><trkpt lat="44.52419485536119" lon="6.40020427841527"><ele>795.0</ele><time>2026-05-01T15:02:19Z</time></trkpt><trkpt lat="44.52433757845435" lon="6.4002844975771644"><ele>795.0</ele><time>2026-05-01T15:02:20Z</time></trkpt><trkpt lat="44.52445186300348" lon="6.40038111807471"><ele>795.0</ele><time>2026-05-01T15:02:21Z</time></trkpt><trkpt lat="44.52459386386754" lon="6.4004579917636"><ele>795.0</ele><time>2026-05-01T15:02:22Z</time></trkpt><trkpt lat="44.5247353701941" lon="6.4005351572009435"><ele>795.0</ele><time>2026-05-01T15:02:23Z</time></trkpt><trkpt lat="44.52487004150119" lon="6.400606577672076"><ele>795.25</ele><time>2026-05-01T15:02:24Z</time></trkpt><trkpt lat="44.52502017780867" lon="6.400678042156354"><ele>795.5</ele><time>2026-05-01T15:02:25Z</time></trkpt><trkpt lat="44.52515139167336" lon="6.400756679436908"><ele>795.75</ele><time>2026-05-01T15:02:26Z</time></trkpt><trkpt lat="44.5252720735478" lon="6.400850214233578"><ele>796.0</ele><time>2026-05-01T15:02:27Z</time></trkpt><trkpt lat="44.52539788395096" lon="6.40095143075384"><ele>794.5</ele><time>2026-05-01T15:02:28Z</time></trkpt><trkpt lat="44.52550800203937" lon="6.401021447849522"><ele>793.0</ele><time>2026-05-01T15:02:29Z</time></trkpt><trkpt lat="44.5256145787416" lon="6.401103946792283"><ele>791.5</ele><time>2026-05-01T15:02:30Z</time></trkpt><trkpt lat="44.52572921528973" lon="6.401152624079866"><ele>790.0</ele><time>2026-05-01T15:02:31Z</time></trkpt><trkpt lat="44.52582849028873" lon="6.401198671468646"><ele>790.0</ele><time>2026-05-01T15:02:32Z</time></trkpt><trkpt lat="44.52592786124771" lon="6.401239585051107"><ele>790.0</ele><time>2026-05-01T15:02:33Z</time></trkpt><trkpt lat="44.52601948045595" lon="6.401289753836779"><ele>790.0</ele><time>2026-05-01T15:02:34Z</time></trkpt><trkpt lat="44.52608749326784" lon="6.401313849583691"><ele>790.0</ele><time>2026-05-01T15:02:35Z</time></trkpt><trkpt lat="44.52617701893989" lon="6.401395695789523"><ele>790.0</ele><time>2026-05-01T15:02:37Z</time></trkpt><trkpt lat="44.526188398731406" lon="6.401505880047252"><ele>791.8</ele><time>2026-05-01T15:02:39Z</time></trkpt><trkpt lat="44.52620837366011" lon="6.401617574860288"><ele>793.6</ele><time>2026-05-01T15:02:41Z</time></trkpt><trkpt lat="44.52621055972447" lon="6.401738467222049"><ele>795.4000000000001</ele><time>2026-05-01T15:02:43Z</time></trkpt><trkpt lat="44.52618908133182" lon="6.401898979270857"><ele>797.2</ele><time>2026-05-01T15:02:45Z</time></trkpt><trkpt lat="44.526171333936375" lon="6.401999462430175"><ele>799.0</ele><time>2026-05-01T15:02:46Z</time></trkpt><trkpt lat="44.52615264221265" lon="6.402132317095912"><ele>799.6</ele><time>2026-05-01T15:02:47Z</time></trkpt><trkpt lat="44.5261212233334" lon="6.402272750798813"><ele>800.2</ele><time>2026-05-01T15:02:48Z</time></trkpt><trkpt lat="44.52609886656939" lon="6.402431078691902"><ele>800.8000000000001</ele><time>2026-05-01T15:02:49Z</time></trkpt><trkpt lat="44.52607560018611" lon="6.402569437987057"><ele>801.4000000000001</ele><time>2026-05-01T15:02:50Z</time></trkpt><trkpt lat="44.526054038951905" lon="6.402701472081667"><ele>802.0</ele><time>2026-05-01T15:02:51Z</time></trkpt><trkpt lat="44.52604204367675" lon="6.402845046680215"><ele>802.0</ele><time>2026-05-01T15:02:52Z</time></trkpt><trkpt lat="44.52603840039716" lon="6.402972474439207"><ele>802.0</ele><time>2026-05-01T15:02:53Z</time></trkpt><trkpt lat="44.52603629046905" lon="6.403113874495062"><ele>802.0</ele><time>2026-05-01T15:02:54Z</time></trkpt><trkpt lat="44.52604488110676" lon="6.403251231170623"><ele>802.0</ele><time>2026-05-01T15:02:55Z</time></trkpt><trkpt lat="44.52604688867147" lon="6.403386676744842"><ele>802.0</ele><time>2026-05-01T15:02:56Z</time></trkpt><trkpt lat="44.526052602810175" lon="6.40351357041408"><ele>802.8</ele><time>2026-05-01T15:02:57Z</time></trkpt><trkpt lat="44.52606572125095" lon="6.403644646010081"><ele>803.6</ele><time>2026-05-01T15:02:58Z</time></trkpt><trkpt lat="44.52607448508037" lon="6.403785301675717"><ele>804.4</ele><time>2026-05-01T15:02:59Z</time></trkpt><trkpt lat="44.52608237301572" lon="6.403926418126192"><ele>805.1999999999999</ele><time>2026-05-01T15:03:00Z</time></trkpt><trkpt lat="44.52609337296697" lon="6.404071546165547"><ele>806.0</ele><time>2026-05-01T15:03:01Z</time></trkpt><trkpt lat="44.52612335251078" lon="6.404217992967522"><ele>806.75</ele><time>2026-05-01T15:03:01.999Z</time></trkpt><trkpt lat="44.52613477228683" lon="6.404374991164535"><ele>807.5</ele><time>2026-05-01T15:03:02.999Z</time></trkpt><trkpt lat="44.52612242091121" lon="6.404525718938256"><ele>808.25</ele><time>2026-05-01T15:03:03.999Z</time></trkpt><trkpt lat="44.526134630679366" lon="6.404696137474875"><ele>809.0</ele><time>2026-05-01T15:03:04.999Z</time></trkpt><trkpt lat="44.526145855233004" lon="6.404886363817666"><ele>810.0</ele><time>2026-05-01T15:03:05.999Z</time></trkpt><trkpt lat="44.526164634746394" lon="6.4050860009284465"><ele>811.0</ele><time>2026-05-01T15:03:06.999Z</time></trkpt><trkpt lat="44.526182571211216" lon="6.4052821646455325"><ele>812.0</ele><time>2026-05-01T15:03:07.999Z</time></trkpt><trkpt lat="44.52620835573234" lon="6.40546375435452"><ele>813.0</ele><time>2026-05-01T15:03:08.999Z</time></trkpt><trkpt lat="44.52620601912175" lon="6.405641299310144"><ele>813.25</ele><time>2026-05-01T15:03:09.999Z</time></trkpt><trkpt lat="44.52620951779736" lon="6.405838036055305"><ele>813.5</ele><time>2026-05-01T15:03:10.999Z</time></trkpt><trkpt lat="44.52621194846271" lon="6.4060572307166606"><ele>813.75</ele><time>2026-05-01T15:03:11.999Z</time></trkpt><trkpt lat="44.52623437553199" lon="6.406265174832274"><ele>814.0</ele><time>2026-05-01T15:03:12.999Z</time></trkpt><trkpt lat="44.52625434241631" lon="6.4064798973458945"><ele>814.0</ele><time>2026-05-01T15:03:13.999Z</time></trkpt><trkpt lat="44.52628547970233" lon="6.406697747591821"><ele>814.0</ele><time>2026-05-01T15:03:14.999Z</time></trkpt><trkpt lat="44.52626496326793" lon="6.40695987140945"><ele>814.0</ele><time>2026-05-01T15:03:15.999Z</time></trkpt><trkpt lat="44.5262798575254" lon="6.407228217297836"><ele>815.3333333333333</ele><time>2026-05-01T15:03:16.999Z</time></trkpt><trkpt lat="44.52630586147723" lon="6.4075087919250056"><ele>816.6666666666667</ele><time>2026-05-01T15:03:17.999Z</time></trkpt><trkpt lat="44.52630489926205" lon="6.407751951223393"><ele>818.0</ele><time>2026-05-01T15:03:18.999Z</time></trkpt><trkpt lat="44.52632811560328" lon="6.407962963004711"><ele>819.75</ele><time>2026-05-01T15:03:19.999Z</time></trkpt><trkpt lat="44.526346297922714" lon="6.408173098277967"><ele>821.5</ele><time>2026-05-01T15:03:20.999Z</time></trkpt><trkpt lat="44.526354243117666" lon="6.408363255165423"><ele>823.25</ele><time>2026-05-01T15:03:21.999Z</time></trkpt><trkpt lat="44.52635621879349" lon="6.408509046420262"><ele>825.0</ele><time>2026-05-01T15:03:22.999Z</time></trkpt><trkpt lat="44.526347558618234" lon="6.408613766195858"><ele>825.0</ele><time>2026-05-01T15:03:23.999Z</time></trkpt><trkpt lat="44.52637307393547" lon="6.408791991788595"><ele>825.0</ele><time>2026-05-01T15:03:25.999Z</time></trkpt><trkpt lat="44.52633132024701" lon="6.408884944483579"><ele>825.0</ele><time>2026-05-01T15:03:26.999Z</time></trkpt><trkpt lat="44.52626448293677" lon="6.408997952190178"><ele>825.0</ele><time>2026-05-01T15:03:28.999Z</time></trkpt><trkpt lat="44.5262657000733" lon="6.409098572107205"><ele>825.0</ele><time>2026-05-01T15:04:35Z</time></trkpt><trkpt lat="44.52622652162644" lon="6.4091719593653105"><ele>826.0</ele><time>2026-05-01T15:04:45Z</time></trkpt><trkpt lat="44.526243364450266" lon="6.40928040707246"><ele>827.0</ele><time>2026-05-01T15:07:40.999Z</time></trkpt><trkpt lat="44.52633391317225" lon="6.409395619724582"><ele>828.0</ele><time>2026-05-01T15:07:44Z</time></trkpt><trkpt lat="44.52637666782664" lon="6.409273476060734"><ele>829.0</ele><time>2026-05-01T15:15:14Z</time></trkpt><trkpt lat="44.526420556777126" lon="6.409134669940353"><ele>830.0</ele><time>2026-05-01T15:15:16Z</time></trkpt><trkpt lat="44.52641102235106" lon="6.409037180088733"><ele>830.0000000000001</ele><time>2026-05-01T15:15:17Z</time></trkpt><trkpt lat="44.5264106939207" lon="6.408943078272339"><ele>830.0</ele><time>2026-05-01T15:15:18Z</time></trkpt><trkpt lat="44.526398566482015" lon="6.408831698950847"><ele>830.0</ele><time>2026-05-01T15:15:19Z</time></trkpt><trkpt lat="44.52638761106924" lon="6.408717164173668"><ele>830.0</ele><time>2026-05-01T15:15:20Z</time></trkpt><trkpt lat="44.52638209278546" lon="6.408603186076995"><ele>830.0000000000001</ele><time>2026-05-01T15:15:21Z</time></trkpt><trkpt lat="44.52637738542752" lon="6.40847313738118"><ele>830.0</ele><time>2026-05-01T15:15:22Z</time></trkpt><trkpt lat="44.52637655139435" lon="6.4083427133301925"><ele>829.0</ele><time>2026-05-01T15:15:23Z</time></trkpt><trkpt lat="44.52637316134987" lon="6.408215695932037"><ele>828.0</ele><time>2026-05-01T15:15:24Z</time></trkpt><trkpt lat="44.52635749114082" lon="6.408073414752526"><ele>827.0</ele><time>2026-05-01T15:15:25Z</time></trkpt><trkpt lat="44.52635719181647" lon="6.407934428042923"><ele>826.0</ele><time>2026-05-01T15:15:26Z</time></trkpt><trkpt lat="44.52634810197338" lon="6.407790511519533"><ele>825.0</ele><time>2026-05-01T15:15:27Z</time></trkpt><trkpt lat="44.526328249637324" lon="6.407644799079393"><ele>823.6</ele><time>2026-05-01T15:15:28Z</time></trkpt><trkpt lat="44.52632143856413" lon="6.407489720012859"><ele>822.2</ele><time>2026-05-01T15:15:29Z</time></trkpt><trkpt lat="44.526317831205624" lon="6.407341529275679"><ele>820.8</ele><time>2026-05-01T15:15:30Z</time></trkpt><trkpt lat="44.52631374161532" lon="6.407181832452901"><ele>819.4</ele><time>2026-05-01T15:15:31Z</time></trkpt><trkpt lat="44.526293655953964" lon="6.407023044827784"><ele>818.0</ele><time>2026-05-01T15:15:32Z</time></trkpt><trkpt lat="44.52628099579534" lon="6.406871370205534"><ele>817.2</ele><time>2026-05-01T15:15:33Z</time></trkpt><trkpt lat="44.52627853912736" lon="6.40672070839323"><ele>816.4</ele><time>2026-05-01T15:15:34Z</time></trkpt><trkpt lat="44.526266348859245" lon="6.406570736735726"><ele>815.6</ele><time>2026-05-01T15:15:35Z</time></trkpt><trkpt lat="44.52627403015364" lon="6.4064224165330765"><ele>814.8000000000001</ele><time>2026-05-01T15:15:36Z</time></trkpt><trkpt lat="44.52627214570338" lon="6.406275662774596"><ele>814.0</ele><time>2026-05-01T15:15:37Z</time></trkpt><trkpt lat="44.52626675653376" lon="6.40613174903018"><ele>813.8000000000001</ele><time>2026-05-01T15:15:38Z</time></trkpt><trkpt lat="44.52625017513706" lon="6.405984224900473"><ele>813.6</ele><time>2026-05-01T15:15:39Z</time></trkpt><trkpt lat="44.52624503524178" lon="6.40584496716735"><ele>813.4</ele><time>2026-05-01T15:15:40Z</time></trkpt><trkpt lat="44.526240996209566" lon="6.405703951772234"><ele>813.2</ele><time>2026-05-01T15:15:41Z</time></trkpt><trkpt lat="44.52622329367566" lon="6.405566129805755"><ele>813.0</ele><time>2026-05-01T15:15:42Z</time></trkpt><trkpt lat="44.52621109655402" lon="6.405431178821692"><ele>813.0</ele><time>2026-05-01T15:15:43Z</time></trkpt><trkpt lat="44.526197802779016" lon="6.405290556307859"><ele>813.0</ele><time>2026-05-01T15:15:44Z</time></trkpt><trkpt lat="44.52619319530549" lon="6.405146149666295"><ele>813.0</ele><time>2026-05-01T15:15:45Z</time></trkpt><trkpt lat="44.52617551356859" lon="6.405006460678291"><ele>813.0</ele><time>2026-05-01T15:15:46Z</time></trkpt><trkpt lat="44.52617499381233" lon="6.404867036823582"><ele>813.0</ele><time>2026-05-01T15:15:47Z</time></trkpt><trkpt lat="44.52615885013206" lon="6.4047246915842715"><ele>812.2</ele><time>2026-05-01T15:15:48Z</time></trkpt><trkpt lat="44.52611059806797" lon="6.404571786082284"><ele>811.4</ele><time>2026-05-01T15:15:49Z</time></trkpt><trkpt lat="44.52608980357302" lon="6.404424050939588"><ele>810.6</ele><time>2026-05-01T15:15:50Z</time></trkpt><trkpt lat="44.52612502757626" lon="6.4042721955682556"><ele>809.8000000000001</ele><time>2026-05-01T15:15:51Z</time></trkpt><trkpt lat="44.52611856077264" lon="6.4041221752192845"><ele>809.0</ele><time>2026-05-01T15:15:52Z</time></trkpt><trkpt lat="44.52611144450126" lon="6.403971244171272"><ele>809.0</ele><time>2026-05-01T15:15:53Z</time></trkpt><trkpt lat="44.52610430254981" lon="6.403836997524153"><ele>809.0</ele><time>2026-05-01T15:15:54Z</time></trkpt><trkpt lat="44.526097010962786" lon="6.403696001500467"><ele>809.0</ele><time>2026-05-01T15:15:55Z</time></trkpt><trkpt lat="44.5260888781462" lon="6.403557805214321"><ele>809.0</ele><time>2026-05-01T15:15:56Z</time></trkpt><trkpt lat="44.526046383428266" lon="6.403418369807904"><ele>809.0</ele><time>2026-05-01T15:15:57Z</time></trkpt><trkpt lat="44.526042098551834" lon="6.403281681654479"><ele>808.4000000000001</ele><time>2026-05-01T15:15:58Z</time></trkpt><trkpt lat="44.52603702132617" lon="6.403146817408775"><ele>807.8</ele><time>2026-05-01T15:15:59Z</time></trkpt><trkpt lat="44.52603529237484" lon="6.403018880929457"><ele>807.2</ele><time>2026-05-01T15:15:59.999Z</time></trkpt><trkpt lat="44.52603253099199" lon="6.402891668932742"><ele>806.5999999999999</ele><time>2026-05-01T15:16:00.999Z</time></trkpt><trkpt lat="44.52603741246966" lon="6.402758751053337"><ele>806.0</ele><time>2026-05-01T15:16:01.999Z</time></trkpt><trkpt lat="44.52606107845362" lon="6.402627186428718"><ele>805.1999999999999</ele><time>2026-05-01T15:16:02.999Z</time></trkpt><trkpt lat="44.526089954098374" lon="6.40249266288125"><ele>804.4</ele><time>2026-05-01T15:16:03.999Z</time></trkpt><trkpt lat="44.52611898769342" lon="6.402360792797237"><ele>803.6</ele><time>2026-05-01T15:16:04.999Z</time></trkpt><trkpt lat="44.5261439404038" lon="6.402232383442011"><ele>802.8</ele><time>2026-05-01T15:16:05.999Z</time></trkpt><trkpt lat="44.526177731676654" lon="6.402125019622218"><ele>802.0</ele><time>2026-05-01T15:16:06.999Z</time></trkpt><trkpt lat="44.526210703538055" lon="6.402012606145383"><ele>799.8</ele><time>2026-05-01T15:16:07.999Z</time></trkpt><trkpt lat="44.52624239632387" lon="6.4018944936934865"><ele>797.6</ele><time>2026-05-01T15:16:08.999Z</time></trkpt><trkpt lat="44.52628515418655" lon="6.401782184785671"><ele>795.4</ele><time>2026-05-01T15:16:09.999Z</time></trkpt><trkpt lat="44.52632073632487" lon="6.401663146938346"><ele>793.1999999999999</ele><time>2026-05-01T15:16:10.999Z</time></trkpt><trkpt lat="44.526362446430134" lon="6.401531714406387"><ele>791.0</ele><time>2026-05-01T15:16:11.999Z</time></trkpt><trkpt lat="44.52639373981269" lon="6.401392987690776"><ele>789.8</ele><time>2026-05-01T15:16:12.999Z</time></trkpt><trkpt lat="44.52643574990397" lon="6.401253115064125"><ele>788.5999999999999</ele><time>2026-05-01T15:16:13.999Z</time></trkpt><trkpt lat="44.52648730561401" lon="6.4011343460114825"><ele>787.4</ele><time>2026-05-01T15:16:14.999Z</time></trkpt><trkpt lat="44.52653580307787" lon="6.401008985072699"><ele>786.2</ele><time>2026-05-01T15:16:15.999Z</time></trkpt><trkpt lat="44.52658810969213" lon="6.400883882831849"><ele>785.0</ele><time>2026-05-01T15:16:16.999Z</time></trkpt><trkpt lat="44.52664821479987" lon="6.40075817973322"><ele>785.0</ele><time>2026-05-01T15:16:17.999Z</time></trkpt><trkpt lat="44.52670822608693" lon="6.40062216842498"><ele>785.0</ele><time>2026-05-01T15:16:18.999Z</time></trkpt><trkpt lat="44.52677211889903" lon="6.400506443824577"><ele>785.0</ele><time>2026-05-01T15:16:19.999Z</time></trkpt><trkpt lat="44.52685727600579" lon="6.400409091535156"><ele>785.0</ele><time>2026-05-01T15:16:20.999Z</time></trkpt><trkpt lat="44.52692546123954" lon="6.40029746805037"><ele>785.0</ele><time>2026-05-01T15:16:21.999Z</time></trkpt><trkpt lat="44.526997887228994" lon="6.400184587030234"><ele>783.2</ele><time>2026-05-01T15:16:22.999Z</time></trkpt><trkpt lat="44.52707103202783" lon="6.400080867058159"><ele>781.4</ele><time>2026-05-01T15:16:23.999Z</time></trkpt><trkpt lat="44.52714225763273" lon="6.399977779013101"><ele>779.5999999999999</ele><time>2026-05-01T15:16:24.999Z</time></trkpt><trkpt lat="44.52722539537995" lon="6.39989124386373"><ele>777.8</ele><time>2026-05-01T15:16:25.999Z</time></trkpt><trkpt lat="44.52731039220837" lon="6.3998038577642875"><ele>776.0</ele><time>2026-05-01T15:16:26.999Z</time></trkpt><trkpt lat="44.527395149984514" lon="6.399715720035667"><ele>774.0</ele><time>2026-05-01T15:16:27.999Z</time></trkpt><trkpt lat="44.52748075198867" lon="6.399626547645083"><ele>772.0</ele><time>2026-05-01T15:16:29Z</time></trkpt><trkpt lat="44.527570487403125" lon="6.39952555070188"><ele>770.0</ele><time>2026-05-01T15:16:30Z</time></trkpt><trkpt lat="44.5276657623541" lon="6.399421527774467"><ele>768.0</ele><time>2026-05-01T15:16:31Z</time></trkpt><trkpt lat="44.52777202206714" lon="6.3993127367672695"><ele>768.0</ele><time>2026-05-01T15:16:32Z</time></trkpt><trkpt lat="44.52787672396517" lon="6.399201944707903"><ele>768.0</ele><time>2026-05-01T15:16:33Z</time></trkpt><trkpt lat="44.52797282351454" lon="6.399082956130701"><ele>768.0</ele><time>2026-05-01T15:16:34Z</time></trkpt><trkpt lat="44.52810569244737" lon="6.3990008515106"><ele>768.0</ele><time>2026-05-01T15:16:35Z</time></trkpt><trkpt lat="44.52820681053305" lon="6.398902804335007"><ele>765.25</ele><time>2026-05-01T15:16:36Z</time></trkpt><trkpt lat="44.528312677314545" lon="6.398789955589686"><ele>762.5</ele><time>2026-05-01T15:16:37Z</time></trkpt><trkpt lat="44.52842590172786" lon="6.398675897810851"><ele>759.75</ele><time>2026-05-01T15:16:38Z</time></trkpt><trkpt lat="44.5285486442597" lon="6.398563377314633"><ele>757.0</ele><time>2026-05-01T15:16:39Z</time></trkpt><trkpt lat="44.5286784217625" lon="6.398444202412664"><ele>757.0</ele><time>2026-05-01T15:16:40Z</time></trkpt><trkpt lat="44.528801171546924" lon="6.398317181349724"><ele>757.0</ele><time>2026-05-01T15:16:41Z</time></trkpt><trkpt lat="44.528920130161644" lon="6.39820323359775"><ele>757.0</ele><time>2026-05-01T15:16:42Z</time></trkpt><trkpt lat="44.52904153380944" lon="6.398082257910169"><ele>757.0</ele><time>2026-05-01T15:16:43Z</time></trkpt><trkpt lat="44.52915339314154" lon="6.397952856220792"><ele>757.0</ele><time>2026-05-01T15:16:44Z</time></trkpt><trkpt lat="44.52926964282497" lon="6.397814703894749"><ele>757.0</ele><time>2026-05-01T15:16:45Z</time></trkpt><trkpt lat="44.5293963541814" lon="6.397677510344649"><ele>757.0</ele><time>2026-05-01T15:16:46Z</time></trkpt><trkpt lat="44.52953483271912" lon="6.3975349381443705"><ele>757.0</ele><time>2026-05-01T15:16:47Z</time></trkpt><trkpt lat="44.52968018818988" lon="6.397385004739873"><ele>757.0</ele><time>2026-05-01T15:16:48Z</time></trkpt><trkpt lat="44.529826523401034" lon="6.39723553242813"><ele>757.0</ele><time>2026-05-01T15:16:49Z</time></trkpt><trkpt lat="44.52997632994957" lon="6.3970879350575345"><ele>757.0</ele><time>2026-05-01T15:16:50Z</time></trkpt><trkpt lat="44.53011324147229" lon="6.396923673108106"><ele>757.0</ele><time>2026-05-01T15:16:51Z</time></trkpt><trkpt lat="44.53025551644448" lon="6.396789467765352"><ele>757.0</ele><time>2026-05-01T15:16:52Z</time></trkpt><trkpt lat="44.53039475044113" lon="6.396636617050207"><ele>757.0</ele><time>2026-05-01T15:16:53Z</time></trkpt><trkpt lat="44.530535929699184" lon="6.396501154744754"><ele>757.0</ele><time>2026-05-01T15:16:54Z</time></trkpt><trkpt lat="44.53066870857897" lon="6.396358674244783"><ele>757.0</ele><time>2026-05-01T15:16:55Z</time></trkpt><trkpt lat="44.53081936344517" lon="6.396235876777946"><ele>757.0</ele><time>2026-05-01T15:16:56Z</time></trkpt><trkpt lat="44.530959004448135" lon="6.39609552185945"><ele>757.0</ele><time>2026-05-01T15:16:57Z</time></trkpt><trkpt lat="44.531095776888" lon="6.395958242409755"><ele>757.0</ele><time>2026-05-01T15:16:58Z</time></trkpt><trkpt lat="44.53123277815704" lon="6.395820737610894"><ele>757.0</ele><time>2026-05-01T15:16:59Z</time></trkpt><trkpt lat="44.53137008919034" lon="6.395680847076066"><ele>757.0</ele><time>2026-05-01T15:17:00Z</time></trkpt><trkpt lat="44.53150059700387" lon="6.395520905672272"><ele>757.0</ele><time>2026-05-01T15:17:01Z</time></trkpt><trkpt lat="44.5316402956905" lon="6.395385045986821"><ele>757.0</ele><time>2026-05-01T15:17:02Z</time></trkpt><trkpt lat="44.5317839729416" lon="6.395240823233417"><ele>757.0</ele><time>2026-05-01T15:17:03Z</time></trkpt><trkpt lat="44.53193790488383" lon="6.395092444077833"><ele>757.0</ele><time>2026-05-01T15:17:04Z</time></trkpt><trkpt lat="44.53207190250013" lon="6.394957952547043"><ele>758.3333333333334</ele><time>2026-05-01T15:17:05Z</time></trkpt><trkpt lat="44.53221489334587" lon="6.3948163082586404"><ele>759.6666666666666</ele><time>2026-05-01T15:17:06Z</time></trkpt><trkpt lat="44.53236201309809" lon="6.394670069213194"><ele>761.0</ele><time>2026-05-01T15:17:07Z</time></trkpt><trkpt lat="44.53250544756592" lon="6.3945301669678525"><ele>761.0</ele><time>2026-05-01T15:17:08Z</time></trkpt><trkpt lat="44.532650733404985" lon="6.3943889250873145"><ele>761.0</ele><time>2026-05-01T15:17:09Z</time></trkpt><trkpt lat="44.53279166139098" lon="6.3942327787334845"><ele>761.0</ele><time>2026-05-01T15:17:10Z</time></trkpt><trkpt lat="44.532937236488614" lon="6.394089152637547"><ele>762.3333333333333</ele><time>2026-05-01T15:17:11Z</time></trkpt><trkpt lat="44.53309094811922" lon="6.3939544280058715"><ele>763.6666666666666</ele><time>2026-05-01T15:17:12Z</time></trkpt><trkpt lat="44.53322320725384" lon="6.393817976397396"><ele>765.0</ele><time>2026-05-01T15:17:13Z</time></trkpt><trkpt lat="44.53335796213699" lon="6.39367253010967"><ele>765.0</ele><time>2026-05-01T15:17:14Z</time></trkpt><trkpt lat="44.53349864555475" lon="6.393531354751099"><ele>765.0</ele><time>2026-05-01T15:17:15Z</time></trkpt><trkpt lat="44.533630595344796" lon="6.393392130135229"><ele>765.0</ele><time>2026-05-01T15:17:16Z</time></trkpt><trkpt lat="44.53377330294029" lon="6.393251181434257"><ele>766.6666666666667</ele><time>2026-05-01T15:17:17Z</time></trkpt><trkpt lat="44.53390775215854" lon="6.393105454472374"><ele>768.3333333333334</ele><time>2026-05-01T15:17:18Z</time></trkpt><trkpt lat="44.53404859604037" lon="6.392964450392612"><ele>770.0</ele><time>2026-05-01T15:17:19Z</time></trkpt><trkpt lat="44.53418560541431" lon="6.392817729580467"><ele>771.0</ele><time>2026-05-01T15:17:20Z</time></trkpt><trkpt lat="44.53432863122543" lon="6.392697756543047"><ele>772.0</ele><time>2026-05-01T15:17:21Z</time></trkpt><trkpt lat="44.53445674245181" lon="6.392539702494809"><ele>773.0</ele><time>2026-05-01T15:17:22Z</time></trkpt><trkpt lat="44.5345924348392" lon="6.392400631155098"><ele>775.3333333333334</ele><time>2026-05-01T15:17:23Z</time></trkpt><trkpt lat="44.534730103612084" lon="6.39225811681704"><ele>777.6666666666667</ele><time>2026-05-01T15:17:24Z</time></trkpt><trkpt lat="44.53485296658097" lon="6.392115181235496"><ele>780.0</ele><time>2026-05-01T15:17:25Z</time></trkpt><trkpt lat="44.53496827252853" lon="6.391942370160137"><ele>780.3333333333333</ele><time>2026-05-01T15:17:26Z</time></trkpt><trkpt lat="44.535071838632604" lon="6.391754398638902"><ele>780.6666666666666</ele><time>2026-05-01T15:17:27Z</time></trkpt><trkpt lat="44.53517586708327" lon="6.391583486035409"><ele>781.0</ele><time>2026-05-01T15:17:28Z</time></trkpt><trkpt lat="44.53527528307306" lon="6.391403768994356"><ele>779.3333333333333</ele><time>2026-05-01T15:17:29Z</time></trkpt><trkpt lat="44.53534883741207" lon="6.391218413503616"><ele>777.6666666666667</ele><time>2026-05-01T15:17:30Z</time></trkpt><trkpt lat="44.53541419397262" lon="6.391030722691082"><ele>776.0</ele><time>2026-05-01T15:17:31Z</time></trkpt><trkpt lat="44.53546139787832" lon="6.39082017653453"><ele>781.3333333333334</ele><time>2026-05-01T15:17:32Z</time></trkpt><trkpt lat="44.53550018062042" lon="6.390594275349378"><ele>786.6666666666667</ele><time>2026-05-01T15:17:33Z</time></trkpt><trkpt lat="44.53554820987406" lon="6.390387842416025"><ele>792.0</ele><time>2026-05-01T15:17:34Z</time></trkpt><trkpt lat="44.53557327658871" lon="6.390181503831436"><ele>792.25</ele><time>2026-05-01T15:17:35Z</time></trkpt><trkpt lat="44.53559747783713" lon="6.389988482027279"><ele>792.5</ele><time>2026-05-01T15:17:36Z</time></trkpt><trkpt lat="44.535615680280465" lon="6.389778984606674"><ele>792.75</ele><time>2026-05-01T15:17:37Z</time></trkpt><trkpt lat="44.53563045473197" lon="6.389572061077831"><ele>793.0</ele><time>2026-05-01T15:17:38Z</time></trkpt><trkpt lat="44.53563463932208" lon="6.389380209046187"><ele>793.3333333333333</ele><time>2026-05-01T15:17:39Z</time></trkpt><trkpt lat="44.53563579660459" lon="6.389173623130174"><ele>793.6666666666667</ele><time>2026-05-01T15:17:40Z</time></trkpt><trkpt lat="44.53563032247635" lon="6.388940649038935"><ele>794.0</ele><time>2026-05-01T15:17:41Z</time></trkpt><trkpt lat="44.53563240505191" lon="6.388732411214753"><ele>793.3333333333334</ele><time>2026-05-01T15:17:42Z</time></trkpt><trkpt lat="44.535628054853795" lon="6.388524490867437"><ele>792.6666666666667</ele><time>2026-05-01T15:17:43Z</time></trkpt><trkpt lat="44.53562793826262" lon="6.388301337270294"><ele>792.0</ele><time>2026-05-01T15:17:44Z</time></trkpt><trkpt lat="44.535624866776615" lon="6.388073965522548"><ele>791.6666666666667</ele><time>2026-05-01T15:17:45Z</time></trkpt><trkpt lat="44.535620849641916" lon="6.387832189442163"><ele>791.3333333333334</ele><time>2026-05-01T15:17:46Z</time></trkpt><trkpt lat="44.53563201148412" lon="6.387595687991668"><ele>791.0</ele><time>2026-05-01T15:17:47Z</time></trkpt><trkpt lat="44.535618001661575" lon="6.3873677323334626"><ele>790.6666666666667</ele><time>2026-05-01T15:17:48Z</time></trkpt><trkpt lat="44.535602316096416" lon="6.387145548608201"><ele>790.3333333333333</ele><time>2026-05-01T15:17:49Z</time></trkpt><trkpt lat="44.53560265948429" lon="6.386925278012541"><ele>790.0</ele><time>2026-05-01T15:17:50Z</time></trkpt><trkpt lat="44.53559502233656" lon="6.386717828936137"><ele>790.0</ele><time>2026-05-01T15:17:51Z</time></trkpt><trkpt lat="44.535596764562925" lon="6.386510130178949"><ele>790.0</ele><time>2026-05-01T15:17:52Z</time></trkpt><trkpt lat="44.53560294832912" lon="6.386308686031827"><ele>790.0</ele><time>2026-05-01T15:17:53Z</time></trkpt><trkpt lat="44.53560265701973" lon="6.386115628347605"><ele>790.0</ele><time>2026-05-01T15:17:54Z</time></trkpt><trkpt lat="44.53559335482271" lon="6.385904090899352"><ele>791.25</ele><time>2026-05-01T15:17:55Z</time></trkpt><trkpt lat="44.53561553988171" lon="6.385687561494291"><ele>792.5</ele><time>2026-05-01T15:17:56Z</time></trkpt><trkpt lat="44.53562641933975" lon="6.385488931448362"><ele>793.75</ele><time>2026-05-01T15:17:57Z</time></trkpt><trkpt lat="44.53562319478003" lon="6.385300401887044"><ele>795.0</ele><time>2026-05-01T15:17:58Z</time></trkpt><trkpt lat="44.5356246548072" lon="6.38510981371299"><ele>795.0</ele><time>2026-05-01T15:17:59Z</time></trkpt><trkpt lat="44.535631464647025" lon="6.3849135874529654"><ele>795.0</ele><time>2026-05-01T15:18:00Z</time></trkpt><trkpt lat="44.535634713037105" lon="6.384720236783129"><ele>795.0</ele><time>2026-05-01T15:18:01Z</time></trkpt><trkpt lat="44.53564596684429" lon="6.384527656822349"><ele>795.0</ele><time>2026-05-01T15:18:02Z</time></trkpt><trkpt lat="44.53566027959664" lon="6.384326561320015"><ele>795.0</ele><time>2026-05-01T15:18:03Z</time></trkpt><trkpt lat="44.535674327792435" lon="6.3841287232095505"><ele>795.0</ele><time>2026-05-01T15:18:04Z</time></trkpt><trkpt lat="44.53569011522517" lon="6.3839380043590035"><ele>795.0</ele><time>2026-05-01T15:18:05Z</time></trkpt><trkpt lat="44.535702768224915" lon="6.383737273090853"><ele>795.0</ele><time>2026-05-01T15:18:06Z</time></trkpt><trkpt lat="44.53571262916465" lon="6.3835280641820376"><ele>794.5</ele><time>2026-05-01T15:18:07Z</time></trkpt><trkpt lat="44.53571901512212" lon="6.383330012949935"><ele>794.0</ele><time>2026-05-01T15:18:08Z</time></trkpt><trkpt lat="44.53572165938638" lon="6.3831465239038705"><ele>793.5</ele><time>2026-05-01T15:18:09Z</time></trkpt><trkpt lat="44.53572919429309" lon="6.382930206191423"><ele>793.0</ele><time>2026-05-01T15:18:10Z</time></trkpt><trkpt lat="44.53574476143845" lon="6.382686693038317"><ele>793.0</ele><time>2026-05-01T15:18:11Z</time></trkpt><trkpt lat="44.53575214267147" lon="6.382468124024342"><ele>793.0</ele><time>2026-05-01T15:18:12Z</time></trkpt><trkpt lat="44.53575750879226" lon="6.38224221487546"><ele>793.0</ele><time>2026-05-01T15:18:13Z</time></trkpt><trkpt lat="44.53576445303563" lon="6.382025978460807"><ele>792.6666666666666</ele><time>2026-05-01T15:18:13.999Z</time></trkpt><trkpt lat="44.53577467687278" lon="6.381811794473166"><ele>792.3333333333333</ele><time>2026-05-01T15:18:14.999Z</time></trkpt><trkpt lat="44.53578039205718" lon="6.3815791535986595"><ele>792.0</ele><time>2026-05-01T15:18:15.999Z</time></trkpt><trkpt lat="44.53580689845191" lon="6.3813631159044615"><ele>790.6666666666667</ele><time>2026-05-01T15:18:16.999Z</time></trkpt><trkpt lat="44.53582687818051" lon="6.381161512463519"><ele>789.3333333333334</ele><time>2026-05-01T15:18:17.999Z</time></trkpt><trkpt lat="44.53584215718994" lon="6.380936445400695"><ele>788.0</ele><time>2026-05-01T15:18:18.999Z</time></trkpt><trkpt lat="44.53584126838985" lon="6.380710171991103"><ele>787.0</ele><time>2026-05-01T15:18:19.999Z</time></trkpt><trkpt lat="44.53585527797266" lon="6.380491428990734"><ele>786.0</ele><time>2026-05-01T15:18:20.999Z</time></trkpt><trkpt lat="44.535867258420055" lon="6.380279705400652"><ele>785.0</ele><time>2026-05-01T15:18:21.999Z</time></trkpt><trkpt lat="44.53586339818728" lon="6.380055004944559"><ele>785.0</ele><time>2026-05-01T15:18:22.999Z</time></trkpt><trkpt lat="44.53582974973257" lon="6.379836462337671"><ele>785.0</ele><time>2026-05-01T15:18:23.999Z</time></trkpt><trkpt lat="44.535808574052744" lon="6.37961995681132"><ele>785.0</ele><time>2026-05-01T15:18:24.999Z</time></trkpt><trkpt lat="44.535772044896085" lon="6.379409798086959"><ele>785.5</ele><time>2026-05-01T15:18:25.999Z</time></trkpt><trkpt lat="44.53572175931494" lon="6.379214329268976"><ele>786.0</ele><time>2026-05-01T15:18:26.999Z</time></trkpt><trkpt lat="44.5356620172096" lon="6.3790184488015065"><ele>786.5</ele><time>2026-05-01T15:18:27.999Z</time></trkpt><trkpt lat="44.53560155830338" lon="6.378830044149539"><ele>787.0</ele><time>2026-05-01T15:18:29Z</time></trkpt><trkpt lat="44.53552761042063" lon="6.3786475757397225"><ele>787.5</ele><time>2026-05-01T15:18:30Z</time></trkpt><trkpt lat="44.53545263636777" lon="6.378495617102417"><ele>788.0</ele><time>2026-05-01T15:18:31Z</time></trkpt><trkpt lat="44.53537718562402" lon="6.378345094929778"><ele>788.5</ele><time>2026-05-01T15:18:32Z</time></trkpt><trkpt lat="44.53530055995438" lon="6.378188330086089"><ele>789.0</ele><time>2026-05-01T15:18:33Z</time></trkpt><trkpt lat="44.53521695287581" lon="6.3780351448636665"><ele>789.75</ele><time>2026-05-01T15:18:34Z</time></trkpt><trkpt lat="44.535126588000466" lon="6.377898712651803"><ele>790.5</ele><time>2026-05-01T15:18:35Z</time></trkpt><trkpt lat="44.53502758949062" lon="6.377765183847361"><ele>791.25</ele><time>2026-05-01T15:18:36Z</time></trkpt><trkpt lat="44.53494519136702" lon="6.377637319970049"><ele>792.0</ele><time>2026-05-01T15:18:37Z</time></trkpt><trkpt lat="44.53482988807852" lon="6.377515655906094"><ele>792.0</ele><time>2026-05-01T15:18:38Z</time></trkpt><trkpt lat="44.534742157830834" lon="6.377375597452798"><ele>792.0</ele><time>2026-05-01T15:18:39Z</time></trkpt><trkpt lat="44.53462866633301" lon="6.377256348150175"><ele>792.0</ele><time>2026-05-01T15:18:40Z</time></trkpt><trkpt lat="44.53449835329522" lon="6.3771572092816395"><ele>792.0</ele><time>2026-05-01T15:18:41Z</time></trkpt><trkpt lat="44.534362778712065" lon="6.377048054368743"><ele>796.6666666666667</ele><time>2026-05-01T15:18:42Z</time></trkpt><trkpt lat="44.53424516986621" lon="6.376918896305665"><ele>801.3333333333334</ele><time>2026-05-01T15:18:43Z</time></trkpt><trkpt lat="44.53412280842449" lon="6.376801353450242"><ele>806.0</ele><time>2026-05-01T15:18:44Z</time></trkpt><trkpt lat="44.53398963547153" lon="6.376678319093966"><ele>806.0</ele><time>2026-05-01T15:18:45Z</time></trkpt><trkpt lat="44.533879446591314" lon="6.376550936619365"><ele>806.0</ele><time>2026-05-01T15:18:46Z</time></trkpt><trkpt lat="44.53374852378406" lon="6.3764413110853155"><ele>806.0</ele><time>2026-05-01T15:18:47Z</time></trkpt><trkpt lat="44.53361991741322" lon="6.376328286174633"><ele>806.0</ele><time>2026-05-01T15:18:48Z</time></trkpt><trkpt lat="44.53349618902761" lon="6.3762066907199015"><ele>805.0</ele><time>2026-05-01T15:18:49Z</time></trkpt><trkpt lat="44.53336815001747" lon="6.376069452510928"><ele>804.0</ele><time>2026-05-01T15:18:50Z</time></trkpt><trkpt lat="44.53323755711282" lon="6.3759566282936015"><ele>803.0</ele><time>2026-05-01T15:18:51Z</time></trkpt><trkpt lat="44.53312104481068" lon="6.375822935560383"><ele>803.0</ele><time>2026-05-01T15:18:52Z</time></trkpt><trkpt lat="44.53300466502462" lon="6.375710904896146"><ele>803.0</ele><time>2026-05-01T15:18:53Z</time></trkpt><trkpt lat="44.532878001890175" lon="6.37557000222405"><ele>803.0</ele><time>2026-05-01T15:18:54Z</time></trkpt><trkpt lat="44.53275237100346" lon="6.375435684032051"><ele>799.3333333333334</ele><time>2026-05-01T15:18:55Z</time></trkpt><trkpt lat="44.53262099001445" lon="6.375320567838478"><ele>795.6666666666667</ele><time>2026-05-01T15:18:56Z</time></trkpt><trkpt lat="44.532490846112815" lon="6.375188770571339"><ele>792.0</ele><time>2026-05-01T15:18:57Z</time></trkpt><trkpt lat="44.53235787331989" lon="6.375058989025158"><ele>792.0</ele><time>2026-05-01T15:18:58Z</time></trkpt><trkpt lat="44.532219461700926" lon="6.374930088377664"><ele>792.0</ele><time>2026-05-01T15:18:59Z</time></trkpt><trkpt lat="44.53208344114204" lon="6.37479946254309"><ele>792.0</ele><time>2026-05-01T15:19:00Z</time></trkpt><trkpt lat="44.53194565655994" lon="6.374659440148738"><ele>794.3333333333333</ele><time>2026-05-01T15:19:01Z</time></trkpt><trkpt lat="44.531799668758765" lon="6.374518771206847"><ele>796.6666666666666</ele><time>2026-05-01T15:19:02Z</time></trkpt><trkpt lat="44.531673806865136" lon="6.374376502216129"><ele>799.0</ele><time>2026-05-01T15:19:03Z</time></trkpt><trkpt lat="44.531559784017254" lon="6.374200114987465"><ele>799.0</ele><time>2026-05-01T15:19:04Z</time></trkpt><trkpt lat="44.53144395083726" lon="6.374039202989117"><ele>799.0</ele><time>2026-05-01T15:19:05Z</time></trkpt><trkpt lat="44.531326830271546" lon="6.373853488554105"><ele>799.0</ele><time>2026-05-01T15:19:06Z</time></trkpt><trkpt lat="44.53121479993485" lon="6.373678005957314"><ele>797.6666666666666</ele><time>2026-05-01T15:19:07Z</time></trkpt><trkpt lat="44.53111959268728" lon="6.373480446340393"><ele>796.3333333333333</ele><time>2026-05-01T15:19:08Z</time></trkpt><trkpt lat="44.53105381708546" lon="6.373256779780457"><ele>795.0</ele><time>2026-05-01T15:19:09Z</time></trkpt><trkpt lat="44.53098516709078" lon="6.373054269044232"><ele>796.0</ele><time>2026-05-01T15:19:10Z</time></trkpt><trkpt lat="44.530920372824" lon="6.372844422670672"><ele>797.0</ele><time>2026-05-01T15:19:11Z</time></trkpt><trkpt lat="44.530866609960405" lon="6.372654334621064"><ele>798.0</ele><time>2026-05-01T15:19:12Z</time></trkpt><trkpt lat="44.53081819845519" lon="6.37244331461041"><ele>799.0</ele><time>2026-05-01T15:19:13Z</time></trkpt><trkpt lat="44.530771918314684" lon="6.3721805906907525"><ele>800.0</ele><time>2026-05-01T15:19:14Z</time></trkpt><trkpt lat="44.530740684122954" lon="6.3719673036527915"><ele>801.0</ele><time>2026-05-01T15:19:15Z</time></trkpt><trkpt lat="44.53071723710969" lon="6.3717934978973085"><ele>801.0</ele><time>2026-05-01T15:19:16Z</time></trkpt><trkpt lat="44.53069371797724" lon="6.371619157337354"><ele>801.0</ele><time>2026-05-01T15:19:17Z</time></trkpt><trkpt lat="44.530668355331855" lon="6.371431151441049"><ele>801.0</ele><time>2026-05-01T15:19:18Z</time></trkpt><trkpt lat="44.530643316690565" lon="6.37124554656058"><ele>801.0</ele><time>2026-05-01T15:19:19Z</time></trkpt><trkpt lat="44.53061819642982" lon="6.371059337035228"><ele>801.5</ele><time>2026-05-01T15:19:20Z</time></trkpt><trkpt lat="44.53059483801775" lon="6.370886189673361"><ele>802.0</ele><time>2026-05-01T15:19:21Z</time></trkpt><trkpt lat="44.53057238008704" lon="6.370717950396036"><ele>802.5</ele><time>2026-05-01T15:19:22Z</time></trkpt><trkpt lat="44.530548077854476" lon="6.370536284354731"><ele>803.0</ele><time>2026-05-01T15:19:23Z</time></trkpt><trkpt lat="44.53052465282518" lon="6.370361175768516"><ele>803.0</ele><time>2026-05-01T15:19:24Z</time></trkpt><trkpt lat="44.53050007760429" lon="6.370180279516155"><ele>803.0</ele><time>2026-05-01T15:19:25Z</time></trkpt><trkpt lat="44.530477187296796" lon="6.3700090234601126"><ele>803.0</ele><time>2026-05-01T15:19:26Z</time></trkpt><trkpt lat="44.53045367640364" lon="6.36983309206126"><ele>803.0</ele><time>2026-05-01T15:19:27Z</time></trkpt><trkpt lat="44.5304294759199" lon="6.3696530943254"><ele>796.0</ele><time>2026-05-01T15:19:28Z</time></trkpt><trkpt lat="44.530412420277784" lon="6.369466701841055"><ele>789.0</ele><time>2026-05-01T15:19:29Z</time></trkpt><trkpt lat="44.53038563882959" lon="6.36927406621723"><ele>782.0</ele><time>2026-05-01T15:19:30Z</time></trkpt><trkpt lat="44.53035222330298" lon="6.3690857283621645"><ele>775.0</ele><time>2026-05-01T15:19:31Z</time></trkpt><trkpt lat="44.53032261762121" lon="6.368884578717075"><ele>772.5</ele><time>2026-05-01T15:19:32Z</time></trkpt><trkpt lat="44.530294542057035" lon="6.368688629589943"><ele>770.0</ele><time>2026-05-01T15:19:33Z</time></trkpt><trkpt lat="44.53026444986526" lon="6.368490857993571"><ele>767.5</ele><time>2026-05-01T15:19:34Z</time></trkpt><trkpt lat="44.53023959454753" lon="6.368287507238807"><ele>765.0</ele><time>2026-05-01T15:19:35Z</time></trkpt><trkpt lat="44.53021275263744" lon="6.368083214132615"><ele>768.25</ele><time>2026-05-01T15:19:36Z</time></trkpt><trkpt lat="44.53018096077581" lon="6.367881932254597"><ele>771.5</ele><time>2026-05-01T15:19:37Z</time></trkpt><trkpt lat="44.53015472429462" lon="6.3676734005039215"><ele>774.75</ele><time>2026-05-01T15:19:38Z</time></trkpt><trkpt lat="44.530133137593715" lon="6.367473845586166"><ele>778.0</ele><time>2026-05-01T15:19:39Z</time></trkpt><trkpt lat="44.530092749157504" lon="6.367256542159391"><ele>783.6666666666666</ele><time>2026-05-01T15:19:40Z</time></trkpt><trkpt lat="44.530081614158846" lon="6.367053614739748"><ele>789.3333333333333</ele><time>2026-05-01T15:19:41Z</time></trkpt><trkpt lat="44.53005174640676" lon="6.366840231836236"><ele>795.0</ele><time>2026-05-01T15:19:42Z</time></trkpt><trkpt lat="44.530037001922096" lon="6.366625681181002"><ele>795.0</ele><time>2026-05-01T15:19:43Z</time></trkpt><trkpt lat="44.53000700551082" lon="6.36641422055869"><ele>795.0</ele><time>2026-05-01T15:19:44Z</time></trkpt><trkpt lat="44.52996941192847" lon="6.366194175394925"><ele>795.0</ele><time>2026-05-01T15:19:45Z</time></trkpt><trkpt lat="44.529942355315995" lon="6.365979278253422"><ele>798.6666666666667</ele><time>2026-05-01T15:19:46Z</time></trkpt><trkpt lat="44.52991323792271" lon="6.3657627366442355"><ele>802.3333333333334</ele><time>2026-05-01T15:19:47Z</time></trkpt><trkpt lat="44.52986993707031" lon="6.3655514403950875"><ele>806.0</ele><time>2026-05-01T15:19:48Z</time></trkpt><trkpt lat="44.529847731295774" lon="6.365336027136954"><ele>809.3333333333334</ele><time>2026-05-01T15:19:49Z</time></trkpt><trkpt lat="44.52981953581663" lon="6.3651274100243596"><ele>812.6666666666667</ele><time>2026-05-01T15:19:50Z</time></trkpt><trkpt lat="44.529789266388256" lon="6.364893663446485"><ele>816.0</ele><time>2026-05-01T15:19:51Z</time></trkpt><trkpt lat="44.52975906272317" lon="6.364679284126765"><ele>816.6666666666667</ele><time>2026-05-01T15:19:52Z</time></trkpt><trkpt lat="44.52972464447979" lon="6.364463060633894"><ele>817.3333333333334</ele><time>2026-05-01T15:19:53Z</time></trkpt><trkpt lat="44.52968747101952" lon="6.364253932316325"><ele>818.0</ele><time>2026-05-01T15:19:54Z</time></trkpt><trkpt lat="44.52966557199843" lon="6.3640368130624365"><ele>815.3333333333334</ele><time>2026-05-01T15:19:55Z</time></trkpt><trkpt lat="44.5296401627172" lon="6.363824775630248"><ele>812.6666666666667</ele><time>2026-05-01T15:19:56Z</time></trkpt><trkpt lat="44.529612491296895" lon="6.363613999383518"><ele>810.0</ele><time>2026-05-01T15:19:57Z</time></trkpt><trkpt lat="44.52958602280047" lon="6.363388518453941"><ele>804.6666666666667</ele><time>2026-05-01T15:19:58Z</time></trkpt><trkpt lat="44.52955173931981" lon="6.3631703350908575"><ele>799.3333333333334</ele><time>2026-05-01T15:19:59Z</time></trkpt><trkpt lat="44.5295209384385" lon="6.36295185017944"><ele>794.0</ele><time>2026-05-01T15:20:00Z</time></trkpt><trkpt lat="44.529501066336735" lon="6.362723350794423"><ele>794.0</ele><time>2026-05-01T15:20:01Z</time></trkpt><trkpt lat="44.529471521208556" lon="6.3624999156765885"><ele>794.0</ele><time>2026-05-01T15:20:02Z</time></trkpt><trkpt lat="44.529441865006184" lon="6.36227092532422"><ele>794.0</ele><time>2026-05-01T15:20:03Z</time></trkpt><trkpt lat="44.52941096325093" lon="6.362042809135367"><ele>795.3333333333334</ele><time>2026-05-01T15:20:04Z</time></trkpt><trkpt lat="44.52937933889783" lon="6.361813220614133"><ele>796.6666666666667</ele><time>2026-05-01T15:20:05Z</time></trkpt><trkpt lat="44.529348436945156" lon="6.361590823492911"><ele>798.0</ele><time>2026-05-01T15:20:06Z</time></trkpt><trkpt lat="44.52931409626885" lon="6.361351248405918"><ele>798.6666666666667</ele><time>2026-05-01T15:20:07Z</time></trkpt><trkpt lat="44.529274426115414" lon="6.361121786654615"><ele>799.3333333333334</ele><time>2026-05-01T15:20:08Z</time></trkpt><trkpt lat="44.52921837581501" lon="6.36088535779238"><ele>800.0</ele><time>2026-05-01T15:20:09Z</time></trkpt><trkpt lat="44.52915854342912" lon="6.3606572179258"><ele>799.6666666666667</ele><time>2026-05-01T15:20:10Z</time></trkpt><trkpt lat="44.529089324424554" lon="6.360426177466565"><ele>799.3333333333333</ele><time>2026-05-01T15:20:11Z</time></trkpt><trkpt lat="44.529011255448765" lon="6.360201495756486"><ele>799.0</ele><time>2026-05-01T15:20:12Z</time></trkpt><trkpt lat="44.52891528080169" lon="6.35997353030406"><ele>799.0</ele><time>2026-05-01T15:20:13Z</time></trkpt><trkpt lat="44.52880886307605" lon="6.35976782955171"><ele>799.0</ele><time>2026-05-01T15:20:14Z</time></trkpt><trkpt lat="44.52867734055045" lon="6.3595729859069206"><ele>799.0</ele><time>2026-05-01T15:20:15Z</time></trkpt><trkpt lat="44.52854961045807" lon="6.359362273132207"><ele>799.6666666666666</ele><time>2026-05-01T15:20:16Z</time></trkpt><trkpt lat="44.528394773255634" lon="6.359190291429489"><ele>800.3333333333333</ele><time>2026-05-01T15:20:17Z</time></trkpt><trkpt lat="44.528240014928436" lon="6.359033755958075"><ele>801.0</ele><time>2026-05-01T15:20:18Z</time></trkpt><trkpt lat="44.52807928460485" lon="6.358881195060435"><ele>802.3333333333333</ele><time>2026-05-01T15:20:19Z</time></trkpt><trkpt lat="44.52791853250587" lon="6.358717468082493"><ele>803.6666666666666</ele><time>2026-05-01T15:20:20Z</time></trkpt><trkpt lat="44.52774705819589" lon="6.358563273558037"><ele>805.0</ele><time>2026-05-01T15:20:21Z</time></trkpt><trkpt lat="44.52758788377587" lon="6.358398387628571"><ele>805.0</ele><time>2026-05-01T15:20:22Z</time></trkpt><trkpt lat="44.527429409215664" lon="6.358234856461829"><ele>805.0</ele><time>2026-05-01T15:20:23Z</time></trkpt><trkpt lat="44.527291980838406" lon="6.358060178879779"><ele>805.0</ele><time>2026-05-01T15:20:24Z</time></trkpt><trkpt lat="44.52714537976258" lon="6.357883825016135"><ele>803.3333333333333</ele><time>2026-05-01T15:20:25Z</time></trkpt><trkpt lat="44.52698534021743" lon="6.357690415683147"><ele>801.6666666666667</ele><time>2026-05-01T15:20:26Z</time></trkpt><trkpt lat="44.526866184562415" lon="6.357475085868561"><ele>800.0</ele><time>2026-05-01T15:20:27Z</time></trkpt><trkpt lat="44.52674197353468" lon="6.357259252952327"><ele>802.3333333333334</ele><time>2026-05-01T15:20:28Z</time></trkpt><trkpt lat="44.52662311868852" lon="6.3570284411685085"><ele>804.6666666666667</ele><time>2026-05-01T15:20:29Z</time></trkpt><trkpt lat="44.52649692989021" lon="6.356808171619604"><ele>807.0</ele><time>2026-05-01T15:20:30Z</time></trkpt><trkpt lat="44.52640363660378" lon="6.356562640516977"><ele>804.6666666666667</ele><time>2026-05-01T15:20:31Z</time></trkpt><trkpt lat="44.526316418794615" lon="6.356319331123445"><ele>802.3333333333334</ele><time>2026-05-01T15:20:32Z</time></trkpt><trkpt lat="44.526231604660495" lon="6.356053168418282"><ele>800.0</ele><time>2026-05-01T15:20:33Z</time></trkpt><trkpt lat="44.52615914044869" lon="6.355784766296709"><ele>801.6666666666667</ele><time>2026-05-01T15:20:34Z</time></trkpt><trkpt lat="44.526115619939326" lon="6.355505068129994"><ele>803.3333333333333</ele><time>2026-05-01T15:20:35Z</time></trkpt><trkpt lat="44.526062531246524" lon="6.355238867064087"><ele>805.0</ele><time>2026-05-01T15:20:36Z</time></trkpt><trkpt lat="44.52601264315296" lon="6.354971415452422"><ele>805.0</ele><time>2026-05-01T15:20:37Z</time></trkpt><trkpt lat="44.525963902378024" lon="6.354706735024471"><ele>805.0</ele><time>2026-05-01T15:20:38Z</time></trkpt><trkpt lat="44.525915384260855" lon="6.35444169122659"><ele>805.0</ele><time>2026-05-01T15:20:39Z</time></trkpt><trkpt lat="44.525867373963024" lon="6.354179421465682"><ele>806.0</ele><time>2026-05-01T15:20:40Z</time></trkpt><trkpt lat="44.52581215697222" lon="6.353932582049223"><ele>807.0</ele><time>2026-05-01T15:20:41Z</time></trkpt><trkpt lat="44.52577397385102" lon="6.353664040637459"><ele>808.0</ele><time>2026-05-01T15:20:42Z</time></trkpt><trkpt lat="44.52571591301395" lon="6.353399030565128"><ele>808.6666666666666</ele><time>2026-05-01T15:20:43Z</time></trkpt><trkpt lat="44.525662844103664" lon="6.353135059324418"><ele>809.3333333333333</ele><time>2026-05-01T15:20:44Z</time></trkpt><trkpt lat="44.52562031859001" lon="6.352867800753305"><ele>810.0</ele><time>2026-05-01T15:20:45Z</time></trkpt><trkpt lat="44.525567546864686" lon="6.352593909723079"><ele>812.6666666666667</ele><time>2026-05-01T15:20:46Z</time></trkpt><trkpt lat="44.52551055450524" lon="6.352321590038253"><ele>815.3333333333334</ele><time>2026-05-01T15:20:47Z</time></trkpt><trkpt lat="44.52547043654146" lon="6.352059512194937"><ele>818.0</ele><time>2026-05-01T15:20:48Z</time></trkpt><trkpt lat="44.52543125595543" lon="6.351785588337556"><ele>817.3333333333334</ele><time>2026-05-01T15:20:49Z</time></trkpt><trkpt lat="44.525382437103026" lon="6.351506334660641"><ele>816.6666666666667</ele><time>2026-05-01T15:20:50Z</time></trkpt><trkpt lat="44.52532844960117" lon="6.351223779891966"><ele>816.0</ele><time>2026-05-01T15:20:51Z</time></trkpt><trkpt lat="44.52527603800033" lon="6.350939050880387"><ele>816.0</ele><time>2026-05-01T15:20:52Z</time></trkpt><trkpt lat="44.52522777023871" lon="6.350650285670391"><ele>816.0</ele><time>2026-05-01T15:20:53Z</time></trkpt><trkpt lat="44.52515786337108" lon="6.350354771262807"><ele>816.0</ele><time>2026-05-01T15:20:54Z</time></trkpt><trkpt lat="44.52509883967653" lon="6.350065191301898"><ele>816.0</ele><time>2026-05-01T15:20:55Z</time></trkpt><trkpt lat="44.52504788268987" lon="6.349804052255891"><ele>816.0</ele><time>2026-05-01T15:20:56Z</time></trkpt><trkpt lat="44.52499088983949" lon="6.349550129159975"><ele>816.0</ele><time>2026-05-01T15:20:57Z</time></trkpt><trkpt lat="44.524917989488216" lon="6.3493210332588825"><ele>816.6666666666667</ele><time>2026-05-01T15:20:58Z</time></trkpt><trkpt lat="44.52482906909151" lon="6.349088087097022"><ele>817.3333333333334</ele><time>2026-05-01T15:20:59Z</time></trkpt><trkpt lat="44.52476120994901" lon="6.348862167323606"><ele>818.0</ele><time>2026-05-01T15:21:00Z</time></trkpt><trkpt lat="44.52468884574484" lon="6.348624464205818"><ele>818.6666666666667</ele><time>2026-05-01T15:21:01Z</time></trkpt><trkpt lat="44.52460869748613" lon="6.348395390220955"><ele>819.3333333333333</ele><time>2026-05-01T15:21:02Z</time></trkpt><trkpt lat="44.52453339775448" lon="6.34818017410443"><ele>820.0</ele><time>2026-05-01T15:21:03Z</time></trkpt><trkpt lat="44.524460189591615" lon="6.347976228088485"><ele>821.3333333333333</ele><time>2026-05-01T15:21:04Z</time></trkpt><trkpt lat="44.52438102468726" lon="6.3477882660095135"><ele>822.6666666666667</ele><time>2026-05-01T15:21:05Z</time></trkpt><trkpt lat="44.52431365386495" lon="6.347600805001672"><ele>824.0</ele><time>2026-05-01T15:21:06Z</time></trkpt><trkpt lat="44.52425600147717" lon="6.347397901901592"><ele>823.6666666666667</ele><time>2026-05-01T15:21:07Z</time></trkpt><trkpt lat="44.524183491112254" lon="6.347190447145121"><ele>823.3333333333333</ele><time>2026-05-01T15:21:08Z</time></trkpt><trkpt lat="44.52411426786711" lon="6.346977435142513"><ele>823.0</ele><time>2026-05-01T15:21:09Z</time></trkpt><trkpt lat="44.524030768484984" lon="6.346759639471561"><ele>823.0</ele><time>2026-05-01T15:21:10Z</time></trkpt><trkpt lat="44.523974765460565" lon="6.34653329964189"><ele>823.0</ele><time>2026-05-01T15:21:11Z</time></trkpt><trkpt lat="44.52390679165537" lon="6.346303988027091"><ele>823.0</ele><time>2026-05-01T15:21:12Z</time></trkpt><trkpt lat="44.523856254649026" lon="6.346080541369374"><ele>823.6666666666666</ele><time>2026-05-01T15:21:13Z</time></trkpt><trkpt lat="44.52380592448519" lon="6.345863845311872"><ele>824.3333333333333</ele><time>2026-05-01T15:21:14Z</time></trkpt><trkpt lat="44.52376393359292" lon="6.34563362819499"><ele>825.0</ele><time>2026-05-01T15:21:15Z</time></trkpt><trkpt lat="44.523731488444184" lon="6.345397037219028"><ele>823.3333333333333</ele><time>2026-05-01T15:21:16Z</time></trkpt><trkpt lat="44.52371722682571" lon="6.345151902194886"><ele>821.6666666666666</ele><time>2026-05-01T15:21:17Z</time></trkpt><trkpt lat="44.52371253088354" lon="6.344913541160183"><ele>820.0</ele><time>2026-05-01T15:21:18Z</time></trkpt><trkpt lat="44.523714091259954" lon="6.344660471639803"><ele>820.0</ele><time>2026-05-01T15:21:19Z</time></trkpt><trkpt lat="44.52370051586635" lon="6.3444234122598635"><ele>820.0</ele><time>2026-05-01T15:21:20Z</time></trkpt><trkpt lat="44.523707148647816" lon="6.344189618404871"><ele>820.0</ele><time>2026-05-01T15:21:21Z</time></trkpt><trkpt lat="44.523731921388354" lon="6.34394745574265"><ele>823.3333333333333</ele><time>2026-05-01T15:21:22Z</time></trkpt><trkpt lat="44.52374830281317" lon="6.34370202102305"><ele>826.6666666666667</ele><time>2026-05-01T15:21:23Z</time></trkpt><trkpt lat="44.52378388741421" lon="6.343464232369855"><ele>830.0</ele><time>2026-05-01T15:21:24Z</time></trkpt><trkpt lat="44.52382498061459" lon="6.343232704358618"><ele>829.0</ele><time>2026-05-01T15:21:25Z</time></trkpt><trkpt lat="44.52387788341906" lon="6.3430117452987025"><ele>828.0</ele><time>2026-05-01T15:21:26Z</time></trkpt><trkpt lat="44.523928957238454" lon="6.342778439374273"><ele>827.0</ele><time>2026-05-01T15:21:27Z</time></trkpt><trkpt lat="44.523993793782246" lon="6.342561445596931"><ele>827.0</ele><time>2026-05-01T15:21:28Z</time></trkpt><trkpt lat="44.52407164038434" lon="6.34234853640155"><ele>827.0</ele><time>2026-05-01T15:21:29Z</time></trkpt><trkpt lat="44.52414745907998" lon="6.342116701277776"><ele>827.0</ele><time>2026-05-01T15:21:30Z</time></trkpt><trkpt lat="44.52422119952521" lon="6.34189735962739"><ele>824.0</ele><time>2026-05-01T15:21:31Z</time></trkpt><trkpt lat="44.52431876801909" lon="6.341687953856399"><ele>821.0</ele><time>2026-05-01T15:21:32Z</time></trkpt><trkpt lat="44.524420997110965" lon="6.341470063000482"><ele>818.0</ele><time>2026-05-01T15:21:33Z</time></trkpt><trkpt lat="44.52452170325311" lon="6.341242866448281"><ele>817.6666666666667</ele><time>2026-05-01T15:21:34Z</time></trkpt><trkpt lat="44.52462955790987" lon="6.341022831397869"><ele>817.3333333333333</ele><time>2026-05-01T15:21:35Z</time></trkpt><trkpt lat="44.52473312230096" lon="6.340787933445021"><ele>817.0</ele><time>2026-05-01T15:21:36Z</time></trkpt><trkpt lat="44.52484706256648" lon="6.340547982665463"><ele>817.0</ele><time>2026-05-01T15:21:37Z</time></trkpt><trkpt lat="44.52496181571552" lon="6.340314714505452"><ele>817.0</ele><time>2026-05-01T15:21:38Z</time></trkpt><trkpt lat="44.52508361610987" lon="6.3400644047857435"><ele>817.0</ele><time>2026-05-01T15:21:39Z</time></trkpt><trkpt lat="44.5252025741828" lon="6.339797501209554"><ele>812.6666666666666</ele><time>2026-05-01T15:21:40Z</time></trkpt><trkpt lat="44.525326458475426" lon="6.339566531661709"><ele>808.3333333333333</ele><time>2026-05-01T15:21:41Z</time></trkpt><trkpt lat="44.52543076920554" lon="6.339349091394774"><ele>804.0</ele><time>2026-05-01T15:21:42Z</time></trkpt><trkpt lat="44.52552752990323" lon="6.339127417812337"><ele>809.6666666666667</ele><time>2026-05-01T15:21:43Z</time></trkpt><trkpt lat="44.52562103394282" lon="6.338916546612227"><ele>815.3333333333334</ele><time>2026-05-01T15:21:44Z</time></trkpt><trkpt lat="44.52572171541991" lon="6.338726070635361"><ele>821.0</ele><time>2026-05-01T15:21:45Z</time></trkpt><trkpt lat="44.525811741821116" lon="6.3385341563203825"><ele>821.0</ele><time>2026-05-01T15:21:46Z</time></trkpt><trkpt lat="44.52590706670978" lon="6.338330990209149"><ele>821.0</ele><time>2026-05-01T15:21:47Z</time></trkpt><trkpt lat="44.52599579822032" lon="6.338142338218842"><ele>821.0</ele><time>2026-05-01T15:21:48Z</time></trkpt><trkpt lat="44.52607169375299" lon="6.337940987196518"><ele>821.6666666666667</ele><time>2026-05-01T15:21:49Z</time></trkpt><trkpt lat="44.526164380707996" lon="6.337747518541675"><ele>822.3333333333333</ele><time>2026-05-01T15:21:50Z</time></trkpt><trkpt lat="44.52626072520204" lon="6.337552211995956"><ele>823.0</ele><time>2026-05-01T15:21:51Z</time></trkpt><trkpt lat="44.52635165745284" lon="6.337359577254205"><ele>820.3333333333333</ele><time>2026-05-01T15:21:52Z</time></trkpt><trkpt lat="44.52645394171073" lon="6.3371891493804835"><ele>817.6666666666667</ele><time>2026-05-01T15:21:53Z</time></trkpt><trkpt lat="44.52653141899532" lon="6.336985039083233"><ele>815.0</ele><time>2026-05-01T15:21:54Z</time></trkpt><trkpt lat="44.52663215912226" lon="6.336810114866351"><ele>815.0</ele><time>2026-05-01T15:21:55Z</time></trkpt><trkpt lat="44.52672757455484" lon="6.336631302239651"><ele>815.0</ele><time>2026-05-01T15:21:56Z</time></trkpt><trkpt lat="44.52682713895974" lon="6.33647206207131"><ele>815.0</ele><time>2026-05-01T15:21:57Z</time></trkpt><trkpt lat="44.52691737164395" lon="6.336287141655868"><ele>816.3333333333334</ele><time>2026-05-01T15:21:58Z</time></trkpt><trkpt lat="44.527020289390755" lon="6.336141347022549"><ele>817.6666666666667</ele><time>2026-05-01T15:21:59Z</time></trkpt><trkpt lat="44.52713079290013" lon="6.335976194366642"><ele>819.0</ele><time>2026-05-01T15:22:00Z</time></trkpt><trkpt lat="44.52724480886898" lon="6.335850894057401"><ele>819.0</ele><time>2026-05-01T15:22:01Z</time></trkpt><trkpt lat="44.52736242687661" lon="6.335717691703823"><ele>819.0</ele><time>2026-05-01T15:22:02Z</time></trkpt><trkpt lat="44.5274787122206" lon="6.335590544166513"><ele>819.0</ele><time>2026-05-01T15:22:03Z</time></trkpt><trkpt lat="44.52759986629676" lon="6.335468058586983"><ele>819.0</ele><time>2026-05-01T15:22:04Z</time></trkpt><trkpt lat="44.5277299358422" lon="6.335360348257082"><ele>817.3333333333333</ele><time>2026-05-01T15:22:05Z</time></trkpt><trkpt lat="44.52786700440797" lon="6.335247479572852"><ele>815.6666666666666</ele><time>2026-05-01T15:22:06Z</time></trkpt><trkpt lat="44.52799116384668" lon="6.335111763907599"><ele>814.0</ele><time>2026-05-01T15:22:07Z</time></trkpt><trkpt lat="44.52813665302415" lon="6.33499694152502"><ele>814.0</ele><time>2026-05-01T15:22:08Z</time></trkpt><trkpt lat="44.528263368150334" lon="6.334878664054002"><ele>814.0</ele><time>2026-05-01T15:22:09Z</time></trkpt><trkpt lat="44.52839746301062" lon="6.3347667657255196"><ele>814.0</ele><time>2026-05-01T15:22:10Z</time></trkpt><trkpt lat="44.52852984182287" lon="6.334636707924904"><ele>813.3333333333333</ele><time>2026-05-01T15:22:11Z</time></trkpt><trkpt lat="44.528668549632165" lon="6.334515514907556"><ele>812.6666666666667</ele><time>2026-05-01T15:22:12Z</time></trkpt><trkpt lat="44.52880895669024" lon="6.334414411305276"><ele>812.0</ele><time>2026-05-01T15:22:13Z</time></trkpt><trkpt lat="44.52893012389502" lon="6.334290679358674"><ele>812.0</ele><time>2026-05-01T15:22:14Z</time></trkpt><trkpt lat="44.52905741236966" lon="6.334180304163379"><ele>812.0</ele><time>2026-05-01T15:22:15Z</time></trkpt><trkpt lat="44.52917568874904" lon="6.334046806035165"><ele>812.0</ele><time>2026-05-01T15:22:16Z</time></trkpt><trkpt lat="44.52930266785391" lon="6.33392287295338"><ele>811.25</ele><time>2026-05-01T15:22:17Z</time></trkpt><trkpt lat="44.529422087959375" lon="6.333793666023782"><ele>810.5</ele><time>2026-05-01T15:22:18Z</time></trkpt><trkpt lat="44.52954006213692" lon="6.333665912093683"><ele>809.75</ele><time>2026-05-01T15:22:19Z</time></trkpt><trkpt lat="44.52964779319919" lon="6.333530281575134"><ele>809.0</ele><time>2026-05-01T15:22:20Z</time></trkpt><trkpt lat="44.52974425705492" lon="6.333346579088763"><ele>812.3333333333334</ele><time>2026-05-01T15:22:21Z</time></trkpt><trkpt lat="44.529842947556894" lon="6.333180904297322"><ele>815.6666666666667</ele><time>2026-05-01T15:22:22Z</time></trkpt><trkpt lat="44.52994033637836" lon="6.333018113965903"><ele>819.0</ele><time>2026-05-01T15:22:23Z</time></trkpt><trkpt lat="44.53004018750146" lon="6.33282510780686"><ele>819.0</ele><time>2026-05-01T15:22:24Z</time></trkpt><trkpt lat="44.53014707560195" lon="6.332614234837255"><ele>819.0</ele><time>2026-05-01T15:22:25Z</time></trkpt><trkpt lat="44.53022787162025" lon="6.332421567227387"><ele>819.0</ele><time>2026-05-01T15:22:26Z</time></trkpt><trkpt lat="44.53030497873243" lon="6.3322183102231335"><ele>818.0</ele><time>2026-05-01T15:22:27Z</time></trkpt><trkpt lat="44.53037728954383" lon="6.332000770855412"><ele>817.0</ele><time>2026-05-01T15:22:28Z</time></trkpt><trkpt lat="44.530436690829326" lon="6.331759316401531"><ele>816.0</ele><time>2026-05-01T15:22:29Z</time></trkpt><trkpt lat="44.53051369678364" lon="6.331501185457139"><ele>818.0</ele><time>2026-05-01T15:22:30Z</time></trkpt><trkpt lat="44.53059555326001" lon="6.331221790696642"><ele>820.0</ele><time>2026-05-01T15:22:31Z</time></trkpt><trkpt lat="44.530698612925285" lon="6.33084830689679"><ele>818.0</ele><time>2026-05-01T15:22:32Z</time></trkpt><trkpt lat="44.530780078291635" lon="6.330545251874522"><ele>816.0</ele><time>2026-05-01T15:22:33Z</time></trkpt><trkpt lat="44.530872465635824" lon="6.330201566682507"><ele>816.0</ele><time>2026-05-01T15:22:34Z</time></trkpt><trkpt lat="44.530951749111324" lon="6.329906628716455"><ele>816.0</ele><time>2026-05-01T15:22:35Z</time></trkpt><trkpt lat="44.53103365164855" lon="6.3296019476754335"><ele>812.0</ele><time>2026-05-01T15:22:36Z</time></trkpt><trkpt lat="44.53111905086867" lon="6.329284258773768"><ele>808.0</ele><time>2026-05-01T15:22:37Z</time></trkpt><trkpt lat="44.531188850160284" lon="6.328985069550713"><ele>813.5</ele><time>2026-05-01T15:22:38Z</time></trkpt><trkpt lat="44.53127673808464" lon="6.328701342117558"><ele>819.0</ele><time>2026-05-01T15:22:39Z</time></trkpt><trkpt lat="44.53135680764457" lon="6.32837148248265"><ele>819.0</ele><time>2026-05-01T15:22:40Z</time></trkpt><trkpt lat="44.53144046578073" lon="6.328086585286947"><ele>819.0</ele><time>2026-05-01T15:22:41Z</time></trkpt><trkpt lat="44.53151582082537" lon="6.32778082251001"><ele>819.3333333333333</ele><time>2026-05-01T15:22:42Z</time></trkpt><trkpt lat="44.53159845345598" lon="6.327492655854662"><ele>819.6666666666666</ele><time>2026-05-01T15:22:43Z</time></trkpt><trkpt lat="44.53166669489953" lon="6.327213283600444"><ele>820.0</ele><time>2026-05-01T15:22:44Z</time></trkpt><trkpt lat="44.53172717120759" lon="6.326929221408581"><ele>820.3333333333333</ele><time>2026-05-01T15:22:45Z</time></trkpt><trkpt lat="44.53178212583824" lon="6.326657404730906"><ele>820.6666666666667</ele><time>2026-05-01T15:22:46Z</time></trkpt><trkpt lat="44.5318207562572" lon="6.326387257161248"><ele>821.0</ele><time>2026-05-01T15:22:47Z</time></trkpt><trkpt lat="44.53184016514795" lon="6.3261142077182875"><ele>821.0</ele><time>2026-05-01T15:22:48Z</time></trkpt><trkpt lat="44.53182048724356" lon="6.325813163190819"><ele>821.0</ele><time>2026-05-01T15:22:49Z</time></trkpt><trkpt lat="44.53179582822017" lon="6.325548778642101"><ele>821.0</ele><time>2026-05-01T15:22:50Z</time></trkpt><trkpt lat="44.53176523688531" lon="6.325285012186009"><ele>820.3333333333334</ele><time>2026-05-01T15:22:51Z</time></trkpt><trkpt lat="44.53172738574893" lon="6.325019371519341"><ele>819.6666666666667</ele><time>2026-05-01T15:22:52Z</time></trkpt><trkpt lat="44.53168540323167" lon="6.324742701230053"><ele>819.0</ele><time>2026-05-01T15:22:53Z</time></trkpt><trkpt lat="44.53162220928882" lon="6.32448817294229"><ele>819.0</ele><time>2026-05-01T15:22:54Z</time></trkpt><trkpt lat="44.53155418519124" lon="6.32423761705128"><ele>819.0</ele><time>2026-05-01T15:22:55Z</time></trkpt><trkpt lat="44.5314546239338" lon="6.324011358694637"><ele>819.0</ele><time>2026-05-01T15:22:56Z</time></trkpt><trkpt lat="44.53134588361335" lon="6.323778640229582"><ele>820.0</ele><time>2026-05-01T15:22:57Z</time></trkpt><trkpt lat="44.53121687989699" lon="6.323565282632228"><ele>821.0</ele><time>2026-05-01T15:22:58Z</time></trkpt><trkpt lat="44.531085519166545" lon="6.3233500713707524"><ele>822.0</ele><time>2026-05-01T15:22:59Z</time></trkpt><trkpt lat="44.530958013191686" lon="6.323148190851451"><ele>824.3333333333333</ele><time>2026-05-01T15:23:00Z</time></trkpt><trkpt lat="44.53082427194319" lon="6.322923323846306"><ele>826.6666666666666</ele><time>2026-05-01T15:23:01Z</time></trkpt><trkpt lat="44.530697585673884" lon="6.322697867927874"><ele>829.0</ele><time>2026-05-01T15:23:02Z</time></trkpt><trkpt lat="44.53056360248305" lon="6.322474561091954"><ele>829.0</ele><time>2026-05-01T15:23:03Z</time></trkpt><trkpt lat="44.53043300672443" lon="6.322240542382563"><ele>829.0</ele><time>2026-05-01T15:23:04Z</time></trkpt><trkpt lat="44.530293090812265" lon="6.322010684431252"><ele>829.0</ele><time>2026-05-01T15:23:05Z</time></trkpt><trkpt lat="44.53016067224055" lon="6.321774471920176"><ele>834.0</ele><time>2026-05-01T15:23:06Z</time></trkpt><trkpt lat="44.53004237443222" lon="6.321567989793402"><ele>839.0</ele><time>2026-05-01T15:23:07Z</time></trkpt><trkpt lat="44.5299026960848" lon="6.3213504304121875"><ele>844.0</ele><time>2026-05-01T15:23:08Z</time></trkpt><trkpt lat="44.52980801282317" lon="6.321122870765015"><ele>849.0</ele><time>2026-05-01T15:23:09Z</time></trkpt><trkpt lat="44.52971151274719" lon="6.320919668976528"><ele>854.0</ele><time>2026-05-01T15:23:10Z</time></trkpt><trkpt lat="44.52962087395937" lon="6.3207095233841875"><ele>859.0</ele><time>2026-05-01T15:23:11Z</time></trkpt><trkpt lat="44.52954114341222" lon="6.320493883854797"><ele>859.6666666666666</ele><time>2026-05-01T15:23:12Z</time></trkpt><trkpt lat="44.529470981765094" lon="6.32026643618104"><ele>860.3333333333333</ele><time>2026-05-01T15:23:13Z</time></trkpt><trkpt lat="44.52941301401749" lon="6.3200368086983865"><ele>861.0</ele><time>2026-05-01T15:23:14Z</time></trkpt><trkpt lat="44.529368967670976" lon="6.319810303181849"><ele>860.0</ele><time>2026-05-01T15:23:15Z</time></trkpt><trkpt lat="44.52933301625962" lon="6.319538248756833"><ele>859.0</ele><time>2026-05-01T15:23:16Z</time></trkpt><trkpt lat="44.529300327953244" lon="6.319277988273751"><ele>858.0</ele><time>2026-05-01T15:23:17Z</time></trkpt><trkpt lat="44.52926714852066" lon="6.3190138175047785"><ele>856.6666666666667</ele><time>2026-05-01T15:23:18Z</time></trkpt><trkpt lat="44.52924325214082" lon="6.318740350087562"><ele>855.3333333333334</ele><time>2026-05-01T15:23:19Z</time></trkpt><trkpt lat="44.52925076560261" lon="6.318483568804047"><ele>854.0</ele><time>2026-05-01T15:23:20Z</time></trkpt><trkpt lat="44.529273894182296" lon="6.318227133410337"><ele>853.3333333333334</ele><time>2026-05-01T15:23:21Z</time></trkpt><trkpt lat="44.52934256865117" lon="6.317982528861402"><ele>852.6666666666667</ele><time>2026-05-01T15:23:22Z</time></trkpt><trkpt lat="44.52940450329049" lon="6.317727269482674"><ele>852.0</ele><time>2026-05-01T15:23:23Z</time></trkpt><trkpt lat="44.529465224296644" lon="6.317476534178163"><ele>852.0</ele><time>2026-05-01T15:23:24Z</time></trkpt><trkpt lat="44.529527798903175" lon="6.317240165927134"><ele>852.0</ele><time>2026-05-01T15:23:25Z</time></trkpt><trkpt lat="44.529634342427144" lon="6.317015975951822"><ele>852.0</ele><time>2026-05-01T15:23:26Z</time></trkpt><trkpt lat="44.529730158288565" lon="6.316780478261147"><ele>853.3333333333333</ele><time>2026-05-01T15:23:27Z</time></trkpt><trkpt lat="44.529814598704256" lon="6.316531711821407"><ele>854.6666666666666</ele><time>2026-05-01T15:23:28Z</time></trkpt><trkpt lat="44.52990286017662" lon="6.316274903934829"><ele>856.0</ele><time>2026-05-01T15:23:29Z</time></trkpt><trkpt lat="44.529993427074864" lon="6.31602802628039"><ele>856.3333333333333</ele><time>2026-05-01T15:23:30Z</time></trkpt><trkpt lat="44.53007652880937" lon="6.315774158759897"><ele>856.6666666666667</ele><time>2026-05-01T15:23:31Z</time></trkpt><trkpt lat="44.53016189476556" lon="6.315527620283326"><ele>857.0</ele><time>2026-05-01T15:23:32Z</time></trkpt><trkpt lat="44.53024776298196" lon="6.315286348264903"><ele>857.6666666666667</ele><time>2026-05-01T15:23:33Z</time></trkpt><trkpt lat="44.530335828770085" lon="6.315043234777866"><ele>858.3333333333333</ele><time>2026-05-01T15:23:34Z</time></trkpt><trkpt lat="44.53042005173195" lon="6.314796975763889"><ele>859.0</ele><time>2026-05-01T15:23:35Z</time></trkpt><trkpt lat="44.53050360990231" lon="6.31453754029659"><ele>861.0</ele><time>2026-05-01T15:23:36Z</time></trkpt><trkpt lat="44.530586328031696" lon="6.314292989921005"><ele>863.0</ele><time>2026-05-01T15:23:37Z</time></trkpt><trkpt lat="44.53066689106986" lon="6.3140339559873695"><ele>865.0</ele><time>2026-05-01T15:23:38Z</time></trkpt><trkpt lat="44.53075427270302" lon="6.313786743658196"><ele>865.0</ele><time>2026-05-01T15:23:39Z</time></trkpt><trkpt lat="44.530843661152986" lon="6.313535172437723"><ele>865.0</ele><time>2026-05-01T15:23:40Z</time></trkpt><trkpt lat="44.53092811594039" lon="6.313296080244195"><ele>865.0</ele><time>2026-05-01T15:23:41Z</time></trkpt><trkpt lat="44.53101441523204" lon="6.313041043714633"><ele>865.0</ele><time>2026-05-01T15:23:42Z</time></trkpt><trkpt lat="44.53108855360368" lon="6.312772054703461"><ele>865.0</ele><time>2026-05-01T15:23:43Z</time></trkpt><trkpt lat="44.53116187934051" lon="6.312510430179053"><ele>865.0</ele><time>2026-05-01T15:23:44Z</time></trkpt><trkpt lat="44.53124102847623" lon="6.312274065307635"><ele>863.3333333333333</ele><time>2026-05-01T15:23:45Z</time></trkpt><trkpt lat="44.531328098159" lon="6.312010406551288"><ele>861.6666666666667</ele><time>2026-05-01T15:23:46Z</time></trkpt><trkpt lat="44.531421632612386" lon="6.311743333404814"><ele>860.0</ele><time>2026-05-01T15:23:47Z</time></trkpt><trkpt lat="44.53152597569501" lon="6.311473344526774"><ele>859.6666666666667</ele><time>2026-05-01T15:23:48Z</time></trkpt><trkpt lat="44.531613469257266" lon="6.311219317152765"><ele>859.3333333333333</ele><time>2026-05-01T15:23:49Z</time></trkpt><trkpt lat="44.53169902830277" lon="6.3109279788208665"><ele>859.0</ele><time>2026-05-01T15:23:50Z</time></trkpt><trkpt lat="44.53178307793065" lon="6.310652465315647"><ele>858.6666666666666</ele><time>2026-05-01T15:23:51Z</time></trkpt><trkpt lat="44.53187715048269" lon="6.310378894619856"><ele>858.3333333333333</ele><time>2026-05-01T15:23:52Z</time></trkpt><trkpt lat="44.53197748468474" lon="6.310093966229455"><ele>858.0</ele><time>2026-05-01T15:23:53Z</time></trkpt><trkpt lat="44.53206506095404" lon="6.30982931704128"><ele>859.0</ele><time>2026-05-01T15:23:54Z</time></trkpt><trkpt lat="44.532150383295594" lon="6.309559579916619"><ele>860.0</ele><time>2026-05-01T15:23:55Z</time></trkpt><trkpt lat="44.532238008247575" lon="6.30931889359881"><ele>861.0</ele><time>2026-05-01T15:23:56Z</time></trkpt><trkpt lat="44.53232610531969" lon="6.3090698309667195"><ele>861.3333333333333</ele><time>2026-05-01T15:23:57Z</time></trkpt><trkpt lat="44.53241608377604" lon="6.308812606561441"><ele>861.6666666666666</ele><time>2026-05-01T15:23:58Z</time></trkpt><trkpt lat="44.532494034480784" lon="6.308539010402225"><ele>862.0</ele><time>2026-05-01T15:23:59Z</time></trkpt><trkpt lat="44.53258133962633" lon="6.3082455000619975"><ele>863.6666666666666</ele><time>2026-05-01T15:24:00Z</time></trkpt><trkpt lat="44.532680152523675" lon="6.30798113326438"><ele>865.3333333333333</ele><time>2026-05-01T15:24:01Z</time></trkpt><trkpt lat="44.53277646278149" lon="6.307713752390579"><ele>867.0</ele><time>2026-05-01T15:24:02Z</time></trkpt><trkpt lat="44.53286272227622" lon="6.307405235747655"><ele>867.3333333333333</ele><time>2026-05-01T15:24:03Z</time></trkpt><trkpt lat="44.532962341736386" lon="6.307143975142339"><ele>867.6666666666666</ele><time>2026-05-01T15:24:04Z</time></trkpt><trkpt lat="44.533055300766044" lon="6.306873320600849"><ele>868.0</ele><time>2026-05-01T15:24:05Z</time></trkpt><trkpt lat="44.533138706939155" lon="6.3066099480713955"><ele>869.0</ele><time>2026-05-01T15:24:06Z</time></trkpt><trkpt lat="44.53323548642802" lon="6.306347958460034"><ele>870.0</ele><time>2026-05-01T15:24:07Z</time></trkpt><trkpt lat="44.53332713696734" lon="6.306089527449177"><ele>871.0</ele><time>2026-05-01T15:24:08Z</time></trkpt><trkpt lat="44.533419152747854" lon="6.3058242724165785"><ele>871.6666666666666</ele><time>2026-05-01T15:24:09Z</time></trkpt><trkpt lat="44.533504237648614" lon="6.305553167833924"><ele>872.3333333333333</ele><time>2026-05-01T15:24:10Z</time></trkpt><trkpt lat="44.5335864026159" lon="6.305283201416786"><ele>873.0</ele><time>2026-05-01T15:24:11Z</time></trkpt><trkpt lat="44.53368496811756" lon="6.305008602004789"><ele>872.0</ele><time>2026-05-01T15:24:12Z</time></trkpt><trkpt lat="44.533783202941585" lon="6.304739244281289"><ele>871.0</ele><time>2026-05-01T15:24:13Z</time></trkpt><trkpt lat="44.533868392933094" lon="6.3044756356617"><ele>870.0</ele><time>2026-05-01T15:24:14Z</time></trkpt><trkpt lat="44.53396708111226" lon="6.304199336258201"><ele>870.0</ele><time>2026-05-01T15:24:15Z</time></trkpt><trkpt lat="44.53406126262545" lon="6.303931582718522"><ele>870.0</ele><time>2026-05-01T15:24:16Z</time></trkpt><trkpt lat="44.534152349386595" lon="6.303651856119422"><ele>870.0</ele><time>2026-05-01T15:24:17Z</time></trkpt><trkpt lat="44.534245271877694" lon="6.303387481134832"><ele>870.5</ele><time>2026-05-01T15:24:18Z</time></trkpt><trkpt lat="44.534342022139604" lon="6.30311225567991"><ele>871.0</ele><time>2026-05-01T15:24:19Z</time></trkpt><trkpt lat="44.53443447052994" lon="6.3027888798972285"><ele>871.5</ele><time>2026-05-01T15:24:20Z</time></trkpt><trkpt lat="44.53453552526542" lon="6.302495019883198"><ele>872.0</ele><time>2026-05-01T15:24:21Z</time></trkpt><trkpt lat="44.53463042578724" lon="6.3021979066021725"><ele>871.3333333333334</ele><time>2026-05-01T15:24:22Z</time></trkpt><trkpt lat="44.53473815798275" lon="6.3019236385500745"><ele>870.6666666666667</ele><time>2026-05-01T15:24:23Z</time></trkpt><trkpt lat="44.53482740656936" lon="6.301641612857243"><ele>870.0</ele><time>2026-05-01T15:24:24Z</time></trkpt><trkpt lat="44.53492238113429" lon="6.301349652875675"><ele>869.3333333333333</ele><time>2026-05-01T15:24:25Z</time></trkpt><trkpt lat="44.5350257946132" lon="6.301085111176869"><ele>868.6666666666666</ele><time>2026-05-01T15:24:26Z</time></trkpt><trkpt lat="44.53513018552853" lon="6.300800561028843"><ele>868.0</ele><time>2026-05-01T15:24:27Z</time></trkpt><trkpt lat="44.53523957346479" lon="6.3005210059243275"><ele>868.0</ele><time>2026-05-01T15:24:28Z</time></trkpt><trkpt lat="44.5353804288704" lon="6.300288203776597"><ele>868.0</ele><time>2026-05-01T15:24:29Z</time></trkpt><trkpt lat="44.53552359634807" lon="6.300051360334624"><ele>868.0</ele><time>2026-05-01T15:24:30Z</time></trkpt><trkpt lat="44.53566673540657" lon="6.299832079943154"><ele>867.3333333333333</ele><time>2026-05-01T15:24:31Z</time></trkpt><trkpt lat="44.535827144854004" lon="6.299609206896384"><ele>866.6666666666667</ele><time>2026-05-01T15:24:32.001Z</time></trkpt><trkpt lat="44.53599684590842" lon="6.299405571705157"><ele>866.0</ele><time>2026-05-01T15:24:33.001Z</time></trkpt><trkpt lat="44.53618016707792" lon="6.299205792140005"><ele>866.6666666666667</ele><time>2026-05-01T15:24:34.001Z</time></trkpt><trkpt lat="44.53633899261799" lon="6.299020232983626"><ele>867.3333333333333</ele><time>2026-05-01T15:24:35.001Z</time></trkpt><trkpt lat="44.5365312785956" lon="6.2988207045560864"><ele>868.0</ele><time>2026-05-01T15:24:36.001Z</time></trkpt><trkpt lat="44.53672357847369" lon="6.298632410208828"><ele>868.0</ele><time>2026-05-01T15:24:37.001Z</time></trkpt><trkpt lat="44.53691987167488" lon="6.298444360515813"><ele>868.0</ele><time>2026-05-01T15:24:38.001Z</time></trkpt><trkpt lat="44.537121802646816" lon="6.2982715024567195"><ele>865.0</ele><time>2026-05-01T15:24:39.001Z</time></trkpt><trkpt lat="44.53728180888698" lon="6.297996600639733"><ele>862.0</ele><time>2026-05-01T15:24:40.001Z</time></trkpt><trkpt lat="44.53744160073837" lon="6.2977561706522565"><ele>862.0</ele><time>2026-05-01T15:24:41.001Z</time></trkpt><trkpt lat="44.53758685198642" lon="6.2974941517864185"><ele>862.0</ele><time>2026-05-01T15:24:42.001Z</time></trkpt><trkpt lat="44.53771480421214" lon="6.29721064079942"><ele>861.0</ele><time>2026-05-01T15:24:43Z</time></trkpt><trkpt lat="44.53784386698606" lon="6.296946181044717"><ele>860.0</ele><time>2026-05-01T15:24:44Z</time></trkpt><trkpt lat="44.53795231527045" lon="6.2966613419670106"><ele>866.0</ele><time>2026-05-01T15:24:45Z</time></trkpt><trkpt lat="44.53806730116467" lon="6.296332422329063"><ele>872.0</ele><time>2026-05-01T15:24:46Z</time></trkpt><trkpt lat="44.53816614603806" lon="6.296042924868769"><ele>872.0</ele><time>2026-05-01T15:24:47Z</time></trkpt><trkpt lat="44.538213347018264" lon="6.295693044973599"><ele>872.0</ele><time>2026-05-01T15:24:48Z</time></trkpt><trkpt lat="44.53825644726279" lon="6.295375567079045"><ele>872.5</ele><time>2026-05-01T15:24:49Z</time></trkpt><trkpt lat="44.53830771705569" lon="6.2950475303748314"><ele>873.0</ele><time>2026-05-01T15:24:50Z</time></trkpt><trkpt lat="44.53833795815392" lon="6.294694844499101"><ele>874.0</ele><time>2026-05-01T15:24:51Z</time></trkpt><trkpt lat="44.53835532936735" lon="6.294363440553886"><ele>875.0</ele><time>2026-05-01T15:24:52Z</time></trkpt><trkpt lat="44.538382355090306" lon="6.294005198769271"><ele>875.5</ele><time>2026-05-01T15:24:53Z</time></trkpt><trkpt lat="44.53841385402811" lon="6.293648970580058"><ele>876.0</ele><time>2026-05-01T15:24:54Z</time></trkpt><trkpt lat="44.53844609266703" lon="6.293299612840293"><ele>876.5</ele><time>2026-05-01T15:24:55Z</time></trkpt><trkpt lat="44.538481864910885" lon="6.292946197302265"><ele>877.0</ele><time>2026-05-01T15:24:56Z</time></trkpt><trkpt lat="44.53851187796706" lon="6.292626187363129"><ele>877.0</ele><time>2026-05-01T15:24:57Z</time></trkpt><trkpt lat="44.538535626571374" lon="6.2922902520729815"><ele>877.0</ele><time>2026-05-01T15:24:58Z</time></trkpt><trkpt lat="44.538563550965904" lon="6.29196265046814"><ele>877.0</ele><time>2026-05-01T15:24:59Z</time></trkpt><trkpt lat="44.53859883144183" lon="6.291646587080438"><ele>877.0</ele><time>2026-05-01T15:25:00Z</time></trkpt><trkpt lat="44.538638096336456" lon="6.291348615906827"><ele>877.0</ele><time>2026-05-01T15:25:01Z</time></trkpt><trkpt lat="44.53868314509683" lon="6.291068179099333"><ele>879.3333333333333</ele><time>2026-05-01T15:25:02Z</time></trkpt><trkpt lat="44.538741304035945" lon="6.290792364254629"><ele>881.6666666666667</ele><time>2026-05-01T15:25:03Z</time></trkpt><trkpt lat="44.538809546479385" lon="6.290511379231308"><ele>884.0</ele><time>2026-05-01T15:25:04Z</time></trkpt><trkpt lat="44.53888727245786" lon="6.290248273479249"><ele>884.0</ele><time>2026-05-01T15:25:05Z</time></trkpt><trkpt lat="44.53897684262767" lon="6.289988588610814"><ele>884.0</ele><time>2026-05-01T15:25:06Z</time></trkpt><trkpt lat="44.539073117174496" lon="6.289743000395078"><ele>884.0</ele><time>2026-05-01T15:25:07Z</time></trkpt><trkpt lat="44.539180102320785" lon="6.289508998079394"><ele>884.0</ele><time>2026-05-01T15:25:08Z</time></trkpt><trkpt lat="44.539302249771495" lon="6.289267860552844"><ele>884.0</ele><time>2026-05-01T15:25:09Z</time></trkpt><trkpt lat="44.539430679035476" lon="6.2890266660905505"><ele>884.0</ele><time>2026-05-01T15:25:10Z</time></trkpt><trkpt lat="44.53956198928043" lon="6.2887825824312005"><ele>884.0</ele><time>2026-05-01T15:25:11Z</time></trkpt><trkpt lat="44.53969253546661" lon="6.288544502846539"><ele>884.0</ele><time>2026-05-01T15:25:12Z</time></trkpt><trkpt lat="44.539825270996914" lon="6.288304477921559"><ele>884.0</ele><time>2026-05-01T15:25:13Z</time></trkpt><trkpt lat="44.539958876233655" lon="6.288062880504344"><ele>881.0</ele><time>2026-05-01T15:25:14Z</time></trkpt><trkpt lat="44.54008633660304" lon="6.287832395314312"><ele>878.0</ele><time>2026-05-01T15:25:15Z</time></trkpt><trkpt lat="44.540213131909375" lon="6.287603000610053"><ele>875.0</ele><time>2026-05-01T15:25:16Z</time></trkpt><trkpt lat="44.54034035225233" lon="6.287369214842073"><ele>876.3333333333334</ele><time>2026-05-01T15:25:17Z</time></trkpt><trkpt lat="44.54046600315027" lon="6.2871340006957555"><ele>877.6666666666667</ele><time>2026-05-01T15:25:18Z</time></trkpt><trkpt lat="44.5405864234034" lon="6.28690791568345"><ele>879.0</ele><time>2026-05-01T15:25:19Z</time></trkpt><trkpt lat="44.54070619651061" lon="6.2866736861912305"><ele>879.0</ele><time>2026-05-01T15:25:20Z</time></trkpt><trkpt lat="44.54082824250955" lon="6.286485726683989"><ele>879.0</ele><time>2026-05-01T15:25:21Z</time></trkpt><trkpt lat="44.54090924798422" lon="6.286289129298952"><ele>879.0</ele><time>2026-05-01T15:25:22Z</time></trkpt><trkpt lat="44.54100557994094" lon="6.2861109620009605"><ele>878.6666666666667</ele><time>2026-05-01T15:25:23Z</time></trkpt><trkpt lat="44.541085501129416" lon="6.2858908972101855"><ele>878.3333333333334</ele><time>2026-05-01T15:25:24Z</time></trkpt><trkpt lat="44.54117600067841" lon="6.28572352683407"><ele>878.0</ele><time>2026-05-01T15:25:25Z</time></trkpt><trkpt lat="44.541258817522404" lon="6.285544521682041"><ele>879.3333333333334</ele><time>2026-05-01T15:25:26Z</time></trkpt><trkpt lat="44.54138399273625" lon="6.285409473284488"><ele>880.6666666666667</ele><time>2026-05-01T15:25:27Z</time></trkpt><trkpt lat="44.54147876440859" lon="6.285232366143529"><ele>882.0</ele><time>2026-05-01T15:25:28Z</time></trkpt><trkpt lat="44.541573449666515" lon="6.2850556883972475"><ele>882.0</ele><time>2026-05-01T15:25:29Z</time></trkpt><trkpt lat="44.54166940181027" lon="6.284876944837206"><ele>882.0</ele><time>2026-05-01T15:25:30Z</time></trkpt><trkpt lat="44.5417559037206" lon="6.284693389371228"><ele>882.0</ele><time>2026-05-01T15:25:31Z</time></trkpt><trkpt lat="44.541843133283756" lon="6.284523673808734"><ele>882.25</ele><time>2026-05-01T15:25:32Z</time></trkpt><trkpt lat="44.541936885126674" lon="6.284385742374914"><ele>882.5</ele><time>2026-05-01T15:25:33Z</time></trkpt><trkpt lat="44.5420220151465" lon="6.284232751278023"><ele>882.75</ele><time>2026-05-01T15:25:34Z</time></trkpt><trkpt lat="44.542090061683815" lon="6.284092209658128"><ele>883.0</ele><time>2026-05-01T15:25:35Z</time></trkpt><trkpt lat="44.54215421515358" lon="6.283975296099844"><ele>882.4999999999999</ele><time>2026-05-01T15:25:36Z</time></trkpt><trkpt lat="44.542222352828965" lon="6.283899993164585"><ele>882.0</ele><time>2026-05-01T15:25:37Z</time></trkpt><trkpt lat="44.542269978322196" lon="6.283828007246926"><ele>881.5</ele><time>2026-05-01T15:25:41Z</time></trkpt><trkpt lat="44.54231429771585" lon="6.283703370583988"><ele>881.0</ele><time>2026-05-01T15:25:43Z</time></trkpt><trkpt lat="44.54234325207616" lon="6.2836124794975206"><ele>880.4999999999999</ele><time>2026-05-01T15:25:44Z</time></trkpt><trkpt lat="44.542390841931464" lon="6.283505991135852"><ele>880.0</ele><time>2026-05-01T15:25:45Z</time></trkpt><trkpt lat="44.54244744743781" lon="6.283383621497183"><ele>880.0</ele><time>2026-05-01T15:25:46Z</time></trkpt><trkpt lat="44.542508695445974" lon="6.283268856200419"><ele>880.0</ele><time>2026-05-01T15:25:47Z</time></trkpt><trkpt lat="44.5426066493612" lon="6.283104059191666"><ele>880.0</ele><time>2026-05-01T15:25:48Z</time></trkpt><trkpt lat="44.54270191496053" lon="6.282936693222754"><ele>880.0</ele><time>2026-05-01T15:25:49Z</time></trkpt><trkpt lat="44.54281466227158" lon="6.282770211379686"><ele>879.0</ele><time>2026-05-01T15:25:50Z</time></trkpt><trkpt lat="44.54290303756771" lon="6.282605686936532"><ele>878.0</ele><time>2026-05-01T15:25:51Z</time></trkpt><trkpt lat="44.54298359453164" lon="6.282438412900758"><ele>877.0</ele><time>2026-05-01T15:25:52Z</time></trkpt><trkpt lat="44.54308272406858" lon="6.282321192412743"><ele>876.0</ele><time>2026-05-01T15:25:53Z</time></trkpt><trkpt lat="44.54318274547932" lon="6.282188733123616"><ele>873.0</ele><time>2026-05-01T15:25:54Z</time></trkpt><trkpt lat="44.543292693608414" lon="6.282058097853556"><ele>870.0</ele><time>2026-05-01T15:25:55Z</time></trkpt><trkpt lat="44.54340245642854" lon="6.2819304634230315"><ele>867.0</ele><time>2026-05-01T15:25:56Z</time></trkpt><trkpt lat="44.543565968515644" lon="6.281885197964829"><ele>867.0</ele><time>2026-05-01T15:25:57Z</time></trkpt><trkpt lat="44.54368339662927" lon="6.281784891872444"><ele>867.0</ele><time>2026-05-01T15:25:58Z</time></trkpt><trkpt lat="44.54380158499379" lon="6.28170432331633"><ele>867.0</ele><time>2026-05-01T15:25:59Z</time></trkpt><trkpt lat="44.54390862948592" lon="6.281609910430342"><ele>867.0</ele><time>2026-05-01T15:26:00Z</time></trkpt><trkpt lat="44.54400796784993" lon="6.281491152656552"><ele>867.0</ele><time>2026-05-01T15:26:01Z</time></trkpt><trkpt lat="44.54412380054335" lon="6.281341071615162"><ele>867.0</ele><time>2026-05-01T15:26:02Z</time></trkpt><trkpt lat="44.544112873220605" lon="6.281180120969194"><ele>867.0</ele><time>2026-05-01T15:26:03Z</time></trkpt><trkpt lat="44.54414563250711" lon="6.281002567702429"><ele>867.0</ele><time>2026-05-01T15:26:04Z</time></trkpt><trkpt lat="44.54419586495692" lon="6.280853684279193"><ele>867.0</ele><time>2026-05-01T15:26:05Z</time></trkpt><trkpt lat="44.54425636132792" lon="6.280706548875703"><ele>867.0</ele><time>2026-05-01T15:26:06Z</time></trkpt><trkpt lat="44.54430480879678" lon="6.2805627629693825"><ele>867.0</ele><time>2026-05-01T15:26:07Z</time></trkpt><trkpt lat="44.54434163485635" lon="6.28038383517652"><ele>867.0</ele><time>2026-05-01T15:26:08Z</time></trkpt><trkpt lat="44.54439523047494" lon="6.280233207278852"><ele>867.25</ele><time>2026-05-01T15:26:09Z</time></trkpt><trkpt lat="44.54444250846289" lon="6.280060710298867"><ele>867.5</ele><time>2026-05-01T15:26:10Z</time></trkpt><trkpt lat="44.54447383948525" lon="6.279884502264185"><ele>867.75</ele><time>2026-05-01T15:26:11Z</time></trkpt><trkpt lat="44.54451059599602" lon="6.279770834163842"><ele>868.0</ele><time>2026-05-01T15:26:12Z</time></trkpt><trkpt lat="44.54453064180435" lon="6.279605874426471"><ele>867.8</ele><time>2026-05-01T15:26:13Z</time></trkpt><trkpt lat="44.54456867184882" lon="6.279466245626513"><ele>867.5999999999999</ele><time>2026-05-01T15:26:14Z</time></trkpt><trkpt lat="44.54461746328671" lon="6.279329253112621"><ele>867.4000000000001</ele><time>2026-05-01T15:26:15Z</time></trkpt><trkpt lat="44.544664519348" lon="6.279196929627823"><ele>867.2</ele><time>2026-05-01T15:26:16Z</time></trkpt><trkpt lat="44.544691846559" lon="6.279069829651097"><ele>867.0</ele><time>2026-05-01T15:26:17Z</time></trkpt><trkpt lat="44.544730197123876" lon="6.278949977150051"><ele>867.1666666666666</ele><time>2026-05-01T15:26:18Z</time></trkpt><trkpt lat="44.54476896621694" lon="6.278814766141634"><ele>867.3333333333333</ele><time>2026-05-01T15:26:19Z</time></trkpt><trkpt lat="44.54480017186078" lon="6.278697390394483"><ele>867.5</ele><time>2026-05-01T15:26:20Z</time></trkpt><trkpt lat="44.544836595553456" lon="6.278590453057117"><ele>867.6666666666666</ele><time>2026-05-01T15:26:21Z</time></trkpt><trkpt lat="44.544870392352294" lon="6.278495312551882"><ele>867.8333333333333</ele><time>2026-05-01T15:26:22Z</time></trkpt><trkpt lat="44.544896598181914" lon="6.278397580666484"><ele>868.0</ele><time>2026-05-01T15:26:23Z</time></trkpt><trkpt lat="44.544928430428186" lon="6.2783100264924245"><ele>868.0</ele><time>2026-05-01T15:26:24Z</time></trkpt><trkpt lat="44.54495870223672" lon="6.278228138140181"><ele>868.0</ele><time>2026-05-01T15:26:25Z</time></trkpt><trkpt lat="44.54499160785085" lon="6.278078457765704"><ele>868.0</ele><time>2026-05-01T15:26:27Z</time></trkpt><trkpt lat="44.54499429302907" lon="6.277958516569939"><ele>868.0</ele><time>2026-05-01T15:26:30Z</time></trkpt><trkpt lat="44.544924263910424" lon="6.277915570875618"><ele>868.0</ele><time>2026-05-01T15:26:32Z</time></trkpt><trkpt lat="44.54478447396759" lon="6.277896792942642"><ele>867.9999999999999</ele><time>2026-05-01T15:26:33Z</time></trkpt><trkpt lat="44.54470851686548" lon="6.2778900363635355"><ele>868.0</ele><time>2026-05-01T15:26:34Z</time></trkpt><trkpt lat="44.544620663108255" lon="6.277890370238815"><ele>868.0</ele><time>2026-05-01T15:26:35Z</time></trkpt><trkpt lat="44.54455416510856" lon="6.277869540345927"><ele>868.0</ele><time>2026-05-01T15:26:36Z</time></trkpt><trkpt lat="44.54444630844451" lon="6.277889159192616"><ele>867.9999999999999</ele><time>2026-05-01T15:26:37Z</time></trkpt><trkpt lat="44.54433845138181" lon="6.277882327650941"><ele>868.0</ele><time>2026-05-01T15:26:38.001Z</time></trkpt><trkpt lat="44.54424798819781" lon="6.277906445181956"><ele>866.75</ele><time>2026-05-01T15:26:39.001Z</time></trkpt><trkpt lat="44.544133172279196" lon="6.277965484701919"><ele>865.5</ele><time>2026-05-01T15:26:40.001Z</time></trkpt><trkpt lat="44.54402543469473" lon="6.277975885328738"><ele>864.25</ele><time>2026-05-01T15:26:41.001Z</time></trkpt><trkpt lat="44.54390976475881" lon="6.278051714044526"><ele>863.0</ele><time>2026-05-01T15:26:42.001Z</time></trkpt><trkpt lat="44.54379249170216" lon="6.27807811942007"><ele>862.8</ele><time>2026-05-01T15:26:43.001Z</time></trkpt><trkpt lat="44.54367657546215" lon="6.278099495158955"><ele>862.5999999999999</ele><time>2026-05-01T15:26:44.001Z</time></trkpt><trkpt lat="44.54355971218864" lon="6.278126184040981"><ele>862.4000000000001</ele><time>2026-05-01T15:26:45Z</time></trkpt><trkpt lat="44.543457789462565" lon="6.278173844163443"><ele>862.2</ele><time>2026-05-01T15:26:46Z</time></trkpt><trkpt lat="44.54335620914423" lon="6.278217044104603"><ele>862.0</ele><time>2026-05-01T15:26:47Z</time></trkpt><trkpt lat="44.54326316236639" lon="6.278240510707757"><ele>862.0</ele><time>2026-05-01T15:26:48Z</time></trkpt><trkpt lat="44.54317187458806" lon="6.278279941349236"><ele>862.0</ele><time>2026-05-01T15:26:49Z</time></trkpt><trkpt lat="44.543076431312514" lon="6.2783269680352305"><ele>862.0</ele><time>2026-05-01T15:26:50Z</time></trkpt><trkpt lat="44.542992979665286" lon="6.278405670303794"><ele>862.0</ele><time>2026-05-01T15:26:51Z</time></trkpt><trkpt lat="44.54290229172363" lon="6.278485839839332"><ele>862.0</ele><time>2026-05-01T15:26:52Z</time></trkpt><trkpt lat="44.542761272882856" lon="6.278643673802423"><ele>860.5</ele><time>2026-05-01T15:26:53Z</time></trkpt><trkpt lat="44.54263516485496" lon="6.278758072172353"><ele>859.0</ele><time>2026-05-01T15:26:54Z</time></trkpt><trkpt lat="44.542529927888566" lon="6.278862740562055"><ele>857.5</ele><time>2026-05-01T15:26:55Z</time></trkpt><trkpt lat="44.54238409070048" lon="6.278960486843305"><ele>856.0</ele><time>2026-05-01T15:26:56Z</time></trkpt><trkpt lat="44.54227634267921" lon="6.279057516920346"><ele>856.0</ele><time>2026-05-01T15:26:57Z</time></trkpt><trkpt lat="44.54216246713428" lon="6.279154007381711"><ele>856.0</ele><time>2026-05-01T15:26:58Z</time></trkpt><trkpt lat="44.5420667506003" lon="6.2792573602243005"><ele>856.0</ele><time>2026-05-01T15:26:59Z</time></trkpt><trkpt lat="44.54196121373905" lon="6.279340602417508"><ele>856.0</ele><time>2026-05-01T15:27:00Z</time></trkpt><trkpt lat="44.54185581855505" lon="6.27940274193055"><ele>855.25</ele><time>2026-05-01T15:27:01Z</time></trkpt><trkpt lat="44.54174835945726" lon="6.279476273067642"><ele>854.5</ele><time>2026-05-01T15:27:02Z</time></trkpt><trkpt lat="44.541645033266434" lon="6.279544145128604"><ele>853.75</ele><time>2026-05-01T15:27:03Z</time></trkpt><trkpt lat="44.541527701423334" lon="6.279620925189618"><ele>853.0</ele><time>2026-05-01T15:27:04Z</time></trkpt><trkpt lat="44.5414057511119" lon="6.279688793309209"><ele>853.0</ele><time>2026-05-01T15:27:05Z</time></trkpt><trkpt lat="44.54129408527453" lon="6.279754573118784"><ele>853.0</ele><time>2026-05-01T15:27:06Z</time></trkpt><trkpt lat="44.54117132653359" lon="6.279815520420129"><ele>853.0</ele><time>2026-05-01T15:27:07Z</time></trkpt><trkpt lat="44.54104225103243" lon="6.279889005514301"><ele>853.0</ele><time>2026-05-01T15:27:08Z</time></trkpt><trkpt lat="44.54090424025173" lon="6.279937083584303"><ele>851.6666666666666</ele><time>2026-05-01T15:27:09Z</time></trkpt><trkpt lat="44.540715350432684" lon="6.280013296311691"><ele>850.3333333333333</ele><time>2026-05-01T15:27:10Z</time></trkpt><trkpt lat="44.540562004239504" lon="6.280087984111198"><ele>849.0</ele><time>2026-05-01T15:27:11Z</time></trkpt><trkpt lat="44.54040342454639" lon="6.280133298026689"><ele>847.6666666666667</ele><time>2026-05-01T15:27:12Z</time></trkpt><trkpt lat="44.54020340810177" lon="6.28017245936532"><ele>846.3333333333334</ele><time>2026-05-01T15:27:13Z</time></trkpt><trkpt lat="44.540026962952744" lon="6.280217553692488"><ele>845.0</ele><time>2026-05-01T15:27:14Z</time></trkpt><trkpt lat="44.53983163960543" lon="6.280274019264962"><ele>845.0</ele><time>2026-05-01T15:27:15Z</time></trkpt><trkpt lat="44.5396374568013" lon="6.2802697554081774"><ele>845.0</ele><time>2026-05-01T15:27:16Z</time></trkpt><trkpt lat="44.53943021932603" lon="6.280271898625902"><ele>845.0</ele><time>2026-05-01T15:27:17Z</time></trkpt><trkpt lat="44.53922834747693" lon="6.280271688546623"><ele>844.3333333333334</ele><time>2026-05-01T15:27:18Z</time></trkpt><trkpt lat="44.53901517488661" lon="6.280271132168044"><ele>843.6666666666667</ele><time>2026-05-01T15:27:19Z</time></trkpt><trkpt lat="44.53879665890764" lon="6.280270561835231"><ele>843.0</ele><time>2026-05-01T15:27:20Z</time></trkpt><trkpt lat="44.538578897530215" lon="6.280270253838176"><ele>842.0</ele><time>2026-05-01T15:27:21Z</time></trkpt><trkpt lat="44.53836008819139" lon="6.280269886042463"><ele>841.0</ele><time>2026-05-01T15:27:22Z</time></trkpt><trkpt lat="44.538153993261275" lon="6.280269539610154"><ele>840.0</ele><time>2026-05-01T15:27:23Z</time></trkpt><trkpt lat="44.53794601578476" lon="6.280271833512295"><ele>839.3333333333333</ele><time>2026-05-01T15:27:24Z</time></trkpt><trkpt lat="44.53773876191618" lon="6.2802923220470905"><ele>838.6666666666666</ele><time>2026-05-01T15:27:25Z</time></trkpt><trkpt lat="44.537569028655916" lon="6.280311674798238"><ele>838.0</ele><time>2026-05-01T15:27:26Z</time></trkpt><trkpt lat="44.53741009308988" lon="6.280388573595081"><ele>838.0</ele><time>2026-05-01T15:27:27Z</time></trkpt><trkpt lat="44.53727310679811" lon="6.280502752610942"><ele>838.0</ele><time>2026-05-01T15:27:28Z</time></trkpt><trkpt lat="44.53712728385607" lon="6.280641743353596"><ele>838.0</ele><time>2026-05-01T15:27:29Z</time></trkpt><trkpt lat="44.53694862123465" lon="6.280792600069604"><ele>837.3333333333333</ele><time>2026-05-01T15:27:30Z</time></trkpt><trkpt lat="44.536748479879364" lon="6.280942442510393"><ele>836.6666666666667</ele><time>2026-05-01T15:27:31Z</time></trkpt><trkpt lat="44.53660156423914" lon="6.2811224669309915"><ele>836.0</ele><time>2026-05-01T15:27:32Z</time></trkpt><trkpt lat="44.53643785749892" lon="6.281266474087418"><ele>836.0</ele><time>2026-05-01T15:27:33Z</time></trkpt><trkpt lat="44.536271722516894" lon="6.281420149859984"><ele>836.0</ele><time>2026-05-01T15:27:34Z</time></trkpt><trkpt lat="44.53609723197547" lon="6.2815848967029835"><ele>836.0</ele><time>2026-05-01T15:27:35Z</time></trkpt><trkpt lat="44.53594979437983" lon="6.281788305669189"><ele>834.5</ele><time>2026-05-01T15:27:36Z</time></trkpt><trkpt lat="44.53576527208585" lon="6.281983105666832"><ele>833.0</ele><time>2026-05-01T15:27:37Z</time></trkpt><trkpt lat="44.53560501107026" lon="6.282239877385691"><ele>834.0</ele><time>2026-05-01T15:27:38Z</time></trkpt><trkpt lat="44.53544186711982" lon="6.282427113499171"><ele>835.0</ele><time>2026-05-01T15:27:39Z</time></trkpt><trkpt lat="44.53527670957313" lon="6.28262973117685"><ele>836.0</ele><time>2026-05-01T15:27:40Z</time></trkpt><trkpt lat="44.535105829569545" lon="6.282821687954907"><ele>835.6666666666667</ele><time>2026-05-01T15:27:41Z</time></trkpt><trkpt lat="44.53493650761642" lon="6.283024977999864"><ele>835.3333333333333</ele><time>2026-05-01T15:27:42Z</time></trkpt><trkpt lat="44.534785804287" lon="6.283217330525555"><ele>835.0</ele><time>2026-05-01T15:27:43Z</time></trkpt><trkpt lat="44.534635337353386" lon="6.283431518994201"><ele>834.0</ele><time>2026-05-01T15:27:44Z</time></trkpt><trkpt lat="44.53447710889089" lon="6.283625255053787"><ele>833.0</ele><time>2026-05-01T15:27:45Z</time></trkpt><trkpt lat="44.53432154168272" lon="6.2838032162785105"><ele>832.0</ele><time>2026-05-01T15:27:46Z</time></trkpt><trkpt lat="44.534160972029674" lon="6.2839348359242395"><ele>832.0</ele><time>2026-05-01T15:27:47Z</time></trkpt><trkpt lat="44.534010644695826" lon="6.284055643083796"><ele>832.0</ele><time>2026-05-01T15:27:48Z</time></trkpt><trkpt lat="44.53385846189849" lon="6.284156427817926"><ele>832.0</ele><time>2026-05-01T15:27:49Z</time></trkpt><trkpt lat="44.53368728318258" lon="6.284253445552953"><ele>829.0</ele><time>2026-05-01T15:27:50Z</time></trkpt><trkpt lat="44.53351715280622" lon="6.284357251819537"><ele>826.0</ele><time>2026-05-01T15:27:51Z</time></trkpt><trkpt lat="44.53337287961255" lon="6.2844858053916655"><ele>823.0</ele><time>2026-05-01T15:27:52Z</time></trkpt><trkpt lat="44.53322892648578" lon="6.284611435323025"><ele>823.0</ele><time>2026-05-01T15:27:53Z</time></trkpt><trkpt lat="44.53309527423406" lon="6.284769329258695"><ele>823.0</ele><time>2026-05-01T15:27:54Z</time></trkpt><trkpt lat="44.53294552755573" lon="6.284905862804972"><ele>823.0</ele><time>2026-05-01T15:27:55Z</time></trkpt><trkpt lat="44.532754215370026" lon="6.2849759538721415"><ele>823.0</ele><time>2026-05-01T15:27:56Z</time></trkpt><trkpt lat="44.53256789614107" lon="6.285031076754561"><ele>823.0</ele><time>2026-05-01T15:27:57Z</time></trkpt><trkpt lat="44.532387353740376" lon="6.285079479781005"><ele>823.0</ele><time>2026-05-01T15:27:58Z</time></trkpt><trkpt lat="44.532215591110756" lon="6.285121429319871"><ele>824.3333333333333</ele><time>2026-05-01T15:27:59Z</time></trkpt><trkpt lat="44.53204229510252" lon="6.285168729950078"><ele>825.6666666666667</ele><time>2026-05-01T15:28:00Z</time></trkpt><trkpt lat="44.53189725224649" lon="6.285260530413432"><ele>827.0</ele><time>2026-05-01T15:28:01Z</time></trkpt><trkpt lat="44.53178589996883" lon="6.285325769215259"><ele>827.0</ele><time>2026-05-01T15:28:02Z</time></trkpt><trkpt lat="44.53171119759691" lon="6.285467869321969"><ele>827.0</ele><time>2026-05-01T15:28:03Z</time></trkpt><trkpt lat="44.531693109488586" lon="6.285557543202718"><ele>827.0</ele><time>2026-05-01T15:28:04Z</time></trkpt><trkpt lat="44.53163951594982" lon="6.285728730382095"><ele>827.0</ele><time>2026-05-01T15:28:05Z</time></trkpt><trkpt lat="44.53155059479208" lon="6.2859562135276805"><ele>826.25</ele><time>2026-05-01T15:28:06Z</time></trkpt><trkpt lat="44.53150328667354" lon="6.28617394042198"><ele>825.5</ele><time>2026-05-01T15:28:07Z</time></trkpt><trkpt lat="44.53144623947174" lon="6.286352728344573"><ele>824.75</ele><time>2026-05-01T15:28:08Z</time></trkpt><trkpt lat="44.531365536818875" lon="6.286516999900441"><ele>824.0</ele><time>2026-05-01T15:28:09Z</time></trkpt><trkpt lat="44.53130772782161" lon="6.286690583251289"><ele>823.3333333333334</ele><time>2026-05-01T15:28:10Z</time></trkpt><trkpt lat="44.53145381497219" lon="6.286977293036853"><ele>822.6666666666667</ele><time>2026-05-01T15:28:11Z</time></trkpt><trkpt lat="44.53148757742574" lon="6.287175914232884"><ele>822.0</ele><time>2026-05-01T15:28:12Z</time></trkpt><trkpt lat="44.531523656733654" lon="6.287374040159448"><ele>821.0</ele><time>2026-05-01T15:28:13Z</time></trkpt><trkpt lat="44.53159891711937" lon="6.28754806560434"><ele>820.0</ele><time>2026-05-01T15:28:14Z</time></trkpt><trkpt lat="44.53149959901887" lon="6.2877321602038565"><ele>819.0</ele><time>2026-05-01T15:28:15Z</time></trkpt><trkpt lat="44.53144013728546" lon="6.2879421344124244"><ele>819.3333333333333</ele><time>2026-05-01T15:28:16Z</time></trkpt><trkpt lat="44.53139312345258" lon="6.288161356303254"><ele>819.6666666666666</ele><time>2026-05-01T15:28:17Z</time></trkpt><trkpt lat="44.53132362799644" lon="6.28838783506646"><ele>820.0</ele><time>2026-05-01T15:28:18Z</time></trkpt><trkpt lat="44.531233981410615" lon="6.288647963994313"><ele>819.3333333333333</ele><time>2026-05-01T15:28:19Z</time></trkpt><trkpt lat="44.53116207604009" lon="6.288885316906978"><ele>818.6666666666667</ele><time>2026-05-01T15:28:20Z</time></trkpt><trkpt lat="44.531095293134186" lon="6.289118805996824"><ele>818.0</ele><time>2026-05-01T15:28:21Z</time></trkpt><trkpt lat="44.53100156132092" lon="6.289304503789643"><ele>816.3333333333334</ele><time>2026-05-01T15:28:22Z</time></trkpt><trkpt lat="44.530901444750505" lon="6.289458346132705"><ele>814.6666666666667</ele><time>2026-05-01T15:28:23Z</time></trkpt><trkpt lat="44.53079382650184" lon="6.289599841794526"><ele>813.0</ele><time>2026-05-01T15:28:24Z</time></trkpt><trkpt lat="44.53065851229467" lon="6.289711794368603"><ele>813.3333333333333</ele><time>2026-05-01T15:28:25Z</time></trkpt><trkpt lat="44.53050695265269" lon="6.2898052235170105"><ele>813.6666666666666</ele><time>2026-05-01T15:28:26Z</time></trkpt><trkpt lat="44.530343110480544" lon="6.289894363722059"><ele>814.0</ele><time>2026-05-01T15:28:27Z</time></trkpt><trkpt lat="44.530189683576644" lon="6.2899758616490145"><ele>814.0</ele><time>2026-05-01T15:28:28Z</time></trkpt><trkpt lat="44.530025030919106" lon="6.290058416151537"><ele>814.0</ele><time>2026-05-01T15:28:29Z</time></trkpt><trkpt lat="44.52987336157323" lon="6.290146855305065"><ele>814.0</ele><time>2026-05-01T15:28:30Z</time></trkpt><trkpt lat="44.52972522153715" lon="6.29022206501704"><ele>814.0</ele><time>2026-05-01T15:28:31Z</time></trkpt><trkpt lat="44.52958729386223" lon="6.2902961693885056"><ele>814.0</ele><time>2026-05-01T15:28:32Z</time></trkpt><trkpt lat="44.529446895686206" lon="6.2903515533011545"><ele>814.0</ele><time>2026-05-01T15:28:33Z</time></trkpt><trkpt lat="44.52932212734359" lon="6.290421778265642"><ele>814.0</ele><time>2026-05-01T15:28:34Z</time></trkpt><trkpt lat="44.52918347779434" lon="6.290467365596891"><ele>812.0</ele><time>2026-05-01T15:28:35Z</time></trkpt><trkpt lat="44.52904378878407" lon="6.290518728964925"><ele>810.0</ele><time>2026-05-01T15:28:36Z</time></trkpt><trkpt lat="44.528894014408955" lon="6.290558972724701"><ele>808.0</ele><time>2026-05-01T15:28:37Z</time></trkpt><trkpt lat="44.52873350991503" lon="6.290605004524381"><ele>808.3333333333333</ele><time>2026-05-01T15:28:38Z</time></trkpt><trkpt lat="44.5286002701901" lon="6.290610062118641"><ele>808.6666666666667</ele><time>2026-05-01T15:28:39Z</time></trkpt><trkpt lat="44.52843312679584" lon="6.290610406688168"><ele>809.0</ele><time>2026-05-01T15:28:40Z</time></trkpt><trkpt lat="44.528239457097875" lon="6.290600603600931"><ele>814.0</ele><time>2026-05-01T15:28:41Z</time></trkpt><trkpt lat="44.528033960689996" lon="6.290551693726761"><ele>819.0</ele><time>2026-05-01T15:28:42Z</time></trkpt><trkpt lat="44.52781725144885" lon="6.290519388712528"><ele>824.0</ele><time>2026-05-01T15:28:43Z</time></trkpt><trkpt lat="44.527568369205014" lon="6.290481359939287"><ele>824.5</ele><time>2026-05-01T15:28:44Z</time></trkpt><trkpt lat="44.527283999886734" lon="6.290437035966705"><ele>825.0</ele><time>2026-05-01T15:28:45Z</time></trkpt><trkpt lat="44.52701266353932" lon="6.29039341973772"><ele>826.5</ele><time>2026-05-01T15:28:46Z</time></trkpt><trkpt lat="44.52676442250308" lon="6.2903641963163395"><ele>828.0</ele><time>2026-05-01T15:28:47Z</time></trkpt><trkpt lat="44.52652861123316" lon="6.290303625685224"><ele>828.0</ele><time>2026-05-01T15:28:48Z</time></trkpt><trkpt lat="44.52626712671407" lon="6.2902750873074424"><ele>828.0</ele><time>2026-05-01T15:28:49Z</time></trkpt><trkpt lat="44.526016355185455" lon="6.2902425877046735"><ele>830.0</ele><time>2026-05-01T15:28:50Z</time></trkpt><trkpt lat="44.52577592851669" lon="6.290175772702568"><ele>832.0</ele><time>2026-05-01T15:28:51Z</time></trkpt><trkpt lat="44.52554758213348" lon="6.290144240663327"><ele>832.0</ele><time>2026-05-01T15:28:52Z</time></trkpt><trkpt lat="44.52532104085705" lon="6.290073649462338"><ele>832.0</ele><time>2026-05-01T15:28:53Z</time></trkpt><trkpt lat="44.52508319999522" lon="6.2900312785506545"><ele>832.0</ele><time>2026-05-01T15:28:54Z</time></trkpt><trkpt lat="44.52484412510544" lon="6.289991309097949"><ele>832.0</ele><time>2026-05-01T15:28:55Z</time></trkpt><trkpt lat="44.524603960083056" lon="6.289973819577742"><ele>830.0</ele><time>2026-05-01T15:28:56Z</time></trkpt><trkpt lat="44.52436215960112" lon="6.289939173384798"><ele>828.0</ele><time>2026-05-01T15:28:57Z</time></trkpt><trkpt lat="44.52413484123302" lon="6.289903264396765"><ele>828.0</ele><time>2026-05-01T15:28:58Z</time></trkpt><trkpt lat="44.52394154272515" lon="6.289854691039229"><ele>828.0</ele><time>2026-05-01T15:28:59Z</time></trkpt><trkpt lat="44.52372276365756" lon="6.289831949094173"><ele>828.0</ele><time>2026-05-01T15:29:00Z</time></trkpt><trkpt lat="44.523509282468495" lon="6.289814946491165"><ele>835.0</ele><time>2026-05-01T15:29:01Z</time></trkpt><trkpt lat="44.52327408801132" lon="6.289820437216934"><ele>842.0</ele><time>2026-05-01T15:29:02Z</time></trkpt><trkpt lat="44.523044319658325" lon="6.289839829096306"><ele>843.3333333333334</ele><time>2026-05-01T15:29:03Z</time></trkpt><trkpt lat="44.52281670337508" lon="6.28984961753339"><ele>844.6666666666667</ele><time>2026-05-01T15:29:04Z</time></trkpt><trkpt lat="44.522602223361794" lon="6.28987149972125"><ele>846.0</ele><time>2026-05-01T15:29:05Z</time></trkpt><trkpt lat="44.52238651116616" lon="6.289919048577254"><ele>846.0</ele><time>2026-05-01T15:29:06Z</time></trkpt><trkpt lat="44.52216789418097" lon="6.289986795130909"><ele>846.0</ele><time>2026-05-01T15:29:07Z</time></trkpt><trkpt lat="44.5219416889597" lon="6.290068986036064"><ele>851.0</ele><time>2026-05-01T15:29:08Z</time></trkpt><trkpt lat="44.52172804007188" lon="6.290187498820362"><ele>856.0</ele><time>2026-05-01T15:29:09Z</time></trkpt><trkpt lat="44.52151059385863" lon="6.290287802041287"><ele>856.0</ele><time>2026-05-01T15:29:10Z</time></trkpt><trkpt lat="44.52129542883864" lon="6.29038161697747"><ele>856.0</ele><time>2026-05-01T15:29:11Z</time></trkpt><trkpt lat="44.521084210021044" lon="6.290472357610105"><ele>856.0</ele><time>2026-05-01T15:29:12Z</time></trkpt><trkpt lat="44.5208800359743" lon="6.29056303879899"><ele>856.0</ele><time>2026-05-01T15:29:13Z</time></trkpt><trkpt lat="44.5206608899036" lon="6.290649924261023"><ele>856.0</ele><time>2026-05-01T15:29:14Z</time></trkpt><trkpt lat="44.52045633321152" lon="6.290763145921996"><ele>856.0</ele><time>2026-05-01T15:29:15Z</time></trkpt><trkpt lat="44.52023148137875" lon="6.290854640952067"><ele>859.6666666666666</ele><time>2026-05-01T15:29:16Z</time></trkpt><trkpt lat="44.52001588649617" lon="6.290948132735672"><ele>863.3333333333333</ele><time>2026-05-01T15:29:17Z</time></trkpt><trkpt lat="44.51980449269688" lon="6.291048066068086"><ele>867.0</ele><time>2026-05-01T15:29:18Z</time></trkpt><trkpt lat="44.519596146730755" lon="6.291170502852915"><ele>866.6666666666667</ele><time>2026-05-01T15:29:19Z</time></trkpt><trkpt lat="44.51940510658946" lon="6.291259408468649"><ele>866.3333333333334</ele><time>2026-05-01T15:29:20Z</time></trkpt><trkpt lat="44.51918306188508" lon="6.291370389209012"><ele>866.0</ele><time>2026-05-01T15:29:21Z</time></trkpt><trkpt lat="44.51893067748766" lon="6.29145639584557"><ele>870.0</ele><time>2026-05-01T15:29:22Z</time></trkpt><trkpt lat="44.518716198472426" lon="6.291552329733471"><ele>874.0</ele><time>2026-05-01T15:29:23Z</time></trkpt><trkpt lat="44.5185039460418" lon="6.291649217404899"><ele>878.0</ele><time>2026-05-01T15:29:24Z</time></trkpt><trkpt lat="44.518283841455286" lon="6.291766275007452"><ele>878.0</ele><time>2026-05-01T15:29:25Z</time></trkpt><trkpt lat="44.518074740644686" lon="6.2918594323148715"><ele>878.0</ele><time>2026-05-01T15:29:26Z</time></trkpt><trkpt lat="44.51788045087369" lon="6.291937758892918"><ele>878.0</ele><time>2026-05-01T15:29:27Z</time></trkpt><trkpt lat="44.517718939126716" lon="6.292015694003626"><ele>880.6666666666667</ele><time>2026-05-01T15:29:28Z</time></trkpt><trkpt lat="44.5175488134464" lon="6.292057599449169"><ele>883.3333333333333</ele><time>2026-05-01T15:29:29Z</time></trkpt><trkpt lat="44.51735754550957" lon="6.29212015400509"><ele>886.0</ele><time>2026-05-01T15:29:30Z</time></trkpt><trkpt lat="44.51719211096441" lon="6.292124838004528"><ele>888.3333333333333</ele><time>2026-05-01T15:29:31Z</time></trkpt><trkpt lat="44.51702427945112" lon="6.292144762857933"><ele>890.6666666666667</ele><time>2026-05-01T15:29:32Z</time></trkpt><trkpt lat="44.516812465382735" lon="6.292128467970216"><ele>893.0</ele><time>2026-05-01T15:29:33Z</time></trkpt><trkpt lat="44.51662784640428" lon="6.292071947499755"><ele>893.0</ele><time>2026-05-01T15:29:34Z</time></trkpt><trkpt lat="44.516454753079664" lon="6.2920201432907135"><ele>893.0</ele><time>2026-05-01T15:29:35Z</time></trkpt><trkpt lat="44.516273111546525" lon="6.291934760322771"><ele>893.0</ele><time>2026-05-01T15:29:36Z</time></trkpt><trkpt lat="44.51609213111269" lon="6.291834077306943"><ele>892.0</ele><time>2026-05-01T15:29:37Z</time></trkpt><trkpt lat="44.51590601602251" lon="6.291721376451769"><ele>891.0</ele><time>2026-05-01T15:29:38Z</time></trkpt><trkpt lat="44.51571960345801" lon="6.291590173870398"><ele>890.0</ele><time>2026-05-01T15:29:39Z</time></trkpt><trkpt lat="44.51554352996519" lon="6.29147676352727"><ele>890.3333333333334</ele><time>2026-05-01T15:29:40Z</time></trkpt><trkpt lat="44.51538075802448" lon="6.291343846949368"><ele>890.6666666666667</ele><time>2026-05-01T15:29:41Z</time></trkpt><trkpt lat="44.515226912624065" lon="6.291193032434679"><ele>891.0</ele><time>2026-05-01T15:29:42Z</time></trkpt><trkpt lat="44.51508216611124" lon="6.290999470324307"><ele>891.0</ele><time>2026-05-01T15:29:43Z</time></trkpt><trkpt lat="44.51494099435523" lon="6.290800135546526"><ele>891.0</ele><time>2026-05-01T15:29:44Z</time></trkpt><trkpt lat="44.514793855998626" lon="6.290594819591459"><ele>891.0</ele><time>2026-05-01T15:29:45Z</time></trkpt><trkpt lat="44.51465137651545" lon="6.290380905248653"><ele>894.3333333333333</ele><time>2026-05-01T15:29:46Z</time></trkpt><trkpt lat="44.51451788131095" lon="6.290162434366214"><ele>897.6666666666666</ele><time>2026-05-01T15:29:47Z</time></trkpt><trkpt lat="44.51440219356544" lon="6.289929847446248"><ele>901.0</ele><time>2026-05-01T15:29:48Z</time></trkpt><trkpt lat="44.514309178758644" lon="6.289673261443671"><ele>901.0</ele><time>2026-05-01T15:29:49Z</time></trkpt><trkpt lat="44.51423740697406" lon="6.2894030903107225"><ele>901.0</ele><time>2026-05-01T15:29:50Z</time></trkpt><trkpt lat="44.51417432278354" lon="6.289099271057261"><ele>901.0</ele><time>2026-05-01T15:29:51Z</time></trkpt><trkpt lat="44.5141147608679" lon="6.288812348519601"><ele>906.0</ele><time>2026-05-01T15:29:52Z</time></trkpt><trkpt lat="44.514054720641525" lon="6.288524599957044"><ele>911.0</ele><time>2026-05-01T15:29:53Z</time></trkpt><trkpt lat="44.513988566110775" lon="6.288249915648385"><ele>916.0</ele><time>2026-05-01T15:29:54Z</time></trkpt><trkpt lat="44.51394398937045" lon="6.287985058284115"><ele>918.0</ele><time>2026-05-01T15:29:55Z</time></trkpt><trkpt lat="44.513899937039284" lon="6.287740635942901"><ele>920.0</ele><time>2026-05-01T15:29:56Z</time></trkpt><trkpt lat="44.513872860411986" lon="6.287494527590796"><ele>922.0</ele><time>2026-05-01T15:29:57Z</time></trkpt><trkpt lat="44.513874055057215" lon="6.287233606942574"><ele>922.0</ele><time>2026-05-01T15:29:58Z</time></trkpt><trkpt lat="44.51393178787383" lon="6.287004156303491"><ele>922.0</ele><time>2026-05-01T15:29:59Z</time></trkpt><trkpt lat="44.513955449771274" lon="6.2867571521105985"><ele>922.0</ele><time>2026-05-01T15:30:00Z</time></trkpt><trkpt lat="44.5140109927726" lon="6.28652316805864"><ele>921.3333333333333</ele><time>2026-05-01T15:30:01Z</time></trkpt><trkpt lat="44.51405972305167" lon="6.2862600984453625"><ele>920.6666666666667</ele><time>2026-05-01T15:30:02Z</time></trkpt><trkpt lat="44.51413296527672" lon="6.285992230447947"><ele>920.0</ele><time>2026-05-01T15:30:03Z</time></trkpt><trkpt lat="44.51418948039332" lon="6.2857418730023475"><ele>921.0</ele><time>2026-05-01T15:30:04Z</time></trkpt><trkpt lat="44.51421988492923" lon="6.2854604495277915"><ele>922.0</ele><time>2026-05-01T15:30:05Z</time></trkpt><trkpt lat="44.51423390537314" lon="6.285123747092046"><ele>923.0</ele><time>2026-05-01T15:30:06Z</time></trkpt><trkpt lat="44.51418774157302" lon="6.284808577946395"><ele>923.3333333333334</ele><time>2026-05-01T15:30:07Z</time></trkpt><trkpt lat="44.51419726841437" lon="6.284536392359577"><ele>923.6666666666667</ele><time>2026-05-01T15:30:08Z</time></trkpt><trkpt lat="44.51417845337215" lon="6.2842965456059545"><ele>924.0</ele><time>2026-05-01T15:30:09Z</time></trkpt><trkpt lat="44.514199958146534" lon="6.284062805307228"><ele>927.3333333333333</ele><time>2026-05-01T15:30:10Z</time></trkpt><trkpt lat="44.51419696663973" lon="6.283839493316482"><ele>930.6666666666666</ele><time>2026-05-01T15:30:11Z</time></trkpt><trkpt lat="44.514070697727675" lon="6.283665739524203"><ele>934.0</ele><time>2026-05-01T15:30:12Z</time></trkpt><trkpt lat="44.513959556146006" lon="6.283502894047906"><ele>934.0</ele><time>2026-05-01T15:30:13Z</time></trkpt><trkpt lat="44.51388185470655" lon="6.283320994420004"><ele>934.0</ele><time>2026-05-01T15:30:14Z</time></trkpt><trkpt lat="44.51380926387186" lon="6.283127266619015"><ele>934.0</ele><time>2026-05-01T15:30:15Z</time></trkpt><trkpt lat="44.51372287726261" lon="6.282912085683545"><ele>932.0</ele><time>2026-05-01T15:30:16Z</time></trkpt><trkpt lat="44.51363828747557" lon="6.282701032032652"><ele>930.0</ele><time>2026-05-01T15:30:17Z</time></trkpt><trkpt lat="44.513548119571176" lon="6.282481800183343"><ele>928.0</ele><time>2026-05-01T15:30:18Z</time></trkpt><trkpt lat="44.51345792797986" lon="6.28223956303862"><ele>931.5</ele><time>2026-05-01T15:30:19Z</time></trkpt><trkpt lat="44.51337964170377" lon="6.282031407238383"><ele>935.0</ele><time>2026-05-01T15:30:20Z</time></trkpt><trkpt lat="44.51331262072696" lon="6.281843318693528"><ele>938.5</ele><time>2026-05-01T15:30:21Z</time></trkpt><trkpt lat="44.51325536541516" lon="6.281698277960784"><ele>942.0</ele><time>2026-05-01T15:30:22Z</time></trkpt><trkpt lat="44.513147441406964" lon="6.281613343138676"><ele>942.0</ele><time>2026-05-01T15:30:23Z</time></trkpt><trkpt lat="44.513008210116084" lon="6.281588385288713"><ele>942.0</ele><time>2026-05-01T15:30:24Z</time></trkpt><trkpt lat="44.51286365035878" lon="6.28166621053793"><ele>942.0</ele><time>2026-05-01T15:30:25Z</time></trkpt><trkpt lat="44.512718311261274" lon="6.281740315976179"><ele>942.75</ele><time>2026-05-01T15:30:26Z</time></trkpt><trkpt lat="44.51258363681519" lon="6.281842719128712"><ele>943.5</ele><time>2026-05-01T15:30:27Z</time></trkpt><trkpt lat="44.512493441026635" lon="6.281955465680409"><ele>944.25</ele><time>2026-05-01T15:30:28Z</time></trkpt><trkpt lat="44.512423618378726" lon="6.282082483843355"><ele>945.0</ele><time>2026-05-01T15:30:29Z</time></trkpt><trkpt lat="44.51237882483053" lon="6.28224064275031"><ele>945.0</ele><time>2026-05-01T15:30:30Z</time></trkpt><trkpt lat="44.51239209323515" lon="6.28256133636232"><ele>945.0</ele><time>2026-05-01T15:30:31Z</time></trkpt><trkpt lat="44.512451156008204" lon="6.282778927965497"><ele>945.0</ele><time>2026-05-01T15:30:32Z</time></trkpt><trkpt lat="44.51248660666198" lon="6.283018672231917"><ele>946.3333333333333</ele><time>2026-05-01T15:30:33Z</time></trkpt><trkpt lat="44.512593718950704" lon="6.283257421766587"><ele>947.6666666666666</ele><time>2026-05-01T15:30:34Z</time></trkpt><trkpt lat="44.512583826590756" lon="6.2834936422880325"><ele>949.0</ele><time>2026-05-01T15:30:35Z</time></trkpt><trkpt lat="44.512540693515305" lon="6.2837460308318915"><ele>948.6666666666666</ele><time>2026-05-01T15:30:36Z</time></trkpt><trkpt lat="44.512507422831725" lon="6.2839512706526035"><ele>948.3333333333333</ele><time>2026-05-01T15:30:37Z</time></trkpt><trkpt lat="44.51240731317292" lon="6.284137005033295"><ele>948.0</ele><time>2026-05-01T15:30:38Z</time></trkpt><trkpt lat="44.51233108318502" lon="6.284374365066283"><ele>948.0</ele><time>2026-05-01T15:30:39Z</time></trkpt><trkpt lat="44.51221819865235" lon="6.284601166777818"><ele>948.0</ele><time>2026-05-01T15:30:40Z</time></trkpt><trkpt lat="44.512149121652" lon="6.284855050675588"><ele>948.0</ele><time>2026-05-01T15:30:41Z</time></trkpt><trkpt lat="44.51209253738043" lon="6.285096723945858"><ele>960.0</ele><time>2026-05-01T15:30:42Z</time></trkpt><trkpt lat="44.51205415348461" lon="6.285341250553537"><ele>972.0</ele><time>2026-05-01T15:30:43Z</time></trkpt><trkpt lat="44.51201384782638" lon="6.2855993447036855"><ele>984.0</ele><time>2026-05-01T15:30:44Z</time></trkpt><trkpt lat="44.51197597675992" lon="6.285862186696826"><ele>984.3333333333333</ele><time>2026-05-01T15:30:45Z</time></trkpt><trkpt lat="44.5119320756543" lon="6.286109457267276"><ele>984.6666666666666</ele><time>2026-05-01T15:30:46Z</time></trkpt><trkpt lat="44.51187938491086" lon="6.28633438647772"><ele>985.0</ele><time>2026-05-01T15:30:47Z</time></trkpt><trkpt lat="44.51185142238939" lon="6.28652593845662"><ele>982.75</ele><time>2026-05-01T15:30:48Z</time></trkpt><trkpt lat="44.511805800884616" lon="6.28665694161655"><ele>980.5</ele><time>2026-05-01T15:30:49Z</time></trkpt><trkpt lat="44.51170056785467" lon="6.286776434093828"><ele>978.25</ele><time>2026-05-01T15:30:50Z</time></trkpt><trkpt lat="44.511583287638366" lon="6.286857779377061"><ele>976.0</ele><time>2026-05-01T15:30:51Z</time></trkpt><trkpt lat="44.51146095238342" lon="6.286905301322515"><ele>976.0</ele><time>2026-05-01T15:30:52Z</time></trkpt><trkpt lat="44.51133639718688" lon="6.286913765576767"><ele>976.0</ele><time>2026-05-01T15:30:53Z</time></trkpt><trkpt lat="44.511195852009" lon="6.28694317281806"><ele>976.0</ele><time>2026-05-01T15:30:54Z</time></trkpt><trkpt lat="44.5110681367299" lon="6.287017098273444"><ele>976.0</ele><time>2026-05-01T15:30:55Z</time></trkpt><trkpt lat="44.51093021661754" lon="6.2870627942034725"><ele>977.25</ele><time>2026-05-01T15:30:56Z</time></trkpt><trkpt lat="44.51082875931705" lon="6.287221273498206"><ele>978.5</ele><time>2026-05-01T15:30:57Z</time></trkpt><trkpt lat="44.510768008344776" lon="6.287417396059075"><ele>979.75</ele><time>2026-05-01T15:30:58Z</time></trkpt><trkpt lat="44.51068800646606" lon="6.287582047104549"><ele>981.0</ele><time>2026-05-01T15:30:59Z</time></trkpt><trkpt lat="44.51065527685126" lon="6.287809020709329"><ele>981.0</ele><time>2026-05-01T15:31:00Z</time></trkpt><trkpt lat="44.51066513640838" lon="6.288007838752381"><ele>981.0</ele><time>2026-05-01T15:31:01Z</time></trkpt><trkpt lat="44.51071083885793" lon="6.288167935279526"><ele>981.0</ele><time>2026-05-01T15:31:02Z</time></trkpt><trkpt lat="44.51077195294208" lon="6.288377464573415"><ele>981.0</ele><time>2026-05-01T15:31:03Z</time></trkpt><trkpt lat="44.51083079727552" lon="6.288620435542236"><ele>982.6666666666667</ele><time>2026-05-01T15:31:04Z</time></trkpt><trkpt lat="44.51087899008046" lon="6.288859029089255"><ele>984.3333333333334</ele><time>2026-05-01T15:31:05Z</time></trkpt><trkpt lat="44.51091718022028" lon="6.289120389309329"><ele>986.0</ele><time>2026-05-01T15:31:06Z</time></trkpt><trkpt lat="44.51093517067081" lon="6.289358900967146"><ele>988.6666666666667</ele><time>2026-05-01T15:31:07Z</time></trkpt><trkpt lat="44.510970923635504" lon="6.289599469998721"><ele>991.3333333333333</ele><time>2026-05-01T15:31:08Z</time></trkpt><trkpt lat="44.51095124879271" lon="6.289840601281311"><ele>994.0</ele><time>2026-05-01T15:31:09Z</time></trkpt><trkpt lat="44.51091193847555" lon="6.2900378651377435"><ele>995.3333333333333</ele><time>2026-05-01T15:31:10Z</time></trkpt><trkpt lat="44.51083423500538" lon="6.29025151970203"><ele>996.6666666666667</ele><time>2026-05-01T15:31:11Z</time></trkpt><trkpt lat="44.510769862130246" lon="6.290477784052061"><ele>998.0</ele><time>2026-05-01T15:31:12Z</time></trkpt><trkpt lat="44.510662696205465" lon="6.290653259754065"><ele>995.0</ele><time>2026-05-01T15:31:13Z</time></trkpt><trkpt lat="44.51055158648233" lon="6.290812750555513"><ele>992.0</ele><time>2026-05-01T15:31:14Z</time></trkpt><trkpt lat="44.51042958061058" lon="6.2909916302263476"><ele>989.0</ele><time>2026-05-01T15:31:15Z</time></trkpt><trkpt lat="44.5102890480303" lon="6.291123311435728"><ele>992.0</ele><time>2026-05-01T15:31:16Z</time></trkpt><trkpt lat="44.51012613984394" lon="6.2912367023774"><ele>995.0</ele><time>2026-05-01T15:31:17Z</time></trkpt><trkpt lat="44.50996475619585" lon="6.291330427492307"><ele>998.0</ele><time>2026-05-01T15:31:18Z</time></trkpt><trkpt lat="44.5097904906115" lon="6.291428202824083"><ele>998.0</ele><time>2026-05-01T15:31:19Z</time></trkpt><trkpt lat="44.5096246051835" lon="6.2915175550377676"><ele>998.0</ele><time>2026-05-01T15:31:20Z</time></trkpt><trkpt lat="44.50939854407491" lon="6.291638627304669"><ele>998.0</ele><time>2026-05-01T15:31:21Z</time></trkpt><trkpt lat="44.5091925206806" lon="6.291746226673077"><ele>1008.5</ele><time>2026-05-01T15:31:22Z</time></trkpt><trkpt lat="44.50897858150907" lon="6.291855594717081"><ele>1019.0</ele><time>2026-05-01T15:31:23Z</time></trkpt><trkpt lat="44.50874208070503" lon="6.291976568271161"><ele>1032.5</ele><time>2026-05-01T15:31:24Z</time></trkpt><trkpt lat="44.50852677583371" lon="6.29208978477775"><ele>1046.0</ele><time>2026-05-01T15:31:25Z</time></trkpt><trkpt lat="44.50831438447239" lon="6.292202301548451"><ele>1042.6666666666667</ele><time>2026-05-01T15:31:26Z</time></trkpt><trkpt lat="44.508117190416684" lon="6.2923072028430465"><ele>1039.3333333333333</ele><time>2026-05-01T15:31:27Z</time></trkpt><trkpt lat="44.50792237282009" lon="6.292432241288874"><ele>1036.0</ele><time>2026-05-01T15:31:28Z</time></trkpt><trkpt lat="44.50772524952712" lon="6.292516565877459"><ele>1036.0</ele><time>2026-05-01T15:31:29Z</time></trkpt><trkpt lat="44.50752273613954" lon="6.2926321100403175"><ele>1036.0</ele><time>2026-05-01T15:31:30Z</time></trkpt><trkpt lat="44.507307736398204" lon="6.292778160253276"><ele>1036.0</ele><time>2026-05-01T15:31:31Z</time></trkpt><trkpt lat="44.50709177997322" lon="6.292928322649772"><ele>1036.0</ele><time>2026-05-01T15:31:32Z</time></trkpt><trkpt lat="44.50690301794231" lon="6.293084916224256"><ele>1037.0</ele><time>2026-05-01T15:31:33Z</time></trkpt><trkpt lat="44.50671511403618" lon="6.2932666930729715"><ele>1038.0</ele><time>2026-05-01T15:31:34Z</time></trkpt><trkpt lat="44.50654766116363" lon="6.293502482397818"><ele>1038.0</ele><time>2026-05-01T15:31:35Z</time></trkpt><trkpt lat="44.50635832265018" lon="6.293669008040628"><ele>1038.0</ele><time>2026-05-01T15:31:36Z</time></trkpt><trkpt lat="44.50618568379447" lon="6.293825350246913"><ele>1038.0</ele><time>2026-05-01T15:31:37Z</time></trkpt><trkpt lat="44.50601437082993" lon="6.2940010581525"><ele>1041.3333333333333</ele><time>2026-05-01T15:31:38Z</time></trkpt><trkpt lat="44.50584083713354" lon="6.294161344499409"><ele>1044.6666666666665</ele><time>2026-05-01T15:31:39Z</time></trkpt><trkpt lat="44.50567673441394" lon="6.294306865803475"><ele>1048.0</ele><time>2026-05-01T15:31:40Z</time></trkpt><trkpt lat="44.505538971448594" lon="6.294449147163045"><ele>1047.3333333333333</ele><time>2026-05-01T15:31:41Z</time></trkpt><trkpt lat="44.50541202090849" lon="6.294570260997187"><ele>1046.6666666666667</ele><time>2026-05-01T15:31:42Z</time></trkpt><trkpt lat="44.505272698837665" lon="6.294683844937075"><ele>1046.0</ele><time>2026-05-01T15:31:43Z</time></trkpt><trkpt lat="44.50514177461064" lon="6.294737546961078"><ele>1046.0</ele><time>2026-05-01T15:31:44Z</time></trkpt><trkpt lat="44.50503087672882" lon="6.294747600497871"><ele>1046.0</ele><time>2026-05-01T15:31:45Z</time></trkpt><trkpt lat="44.50496123166153" lon="6.294709745512138"><ele>1046.0</ele><time>2026-05-01T15:31:46Z</time></trkpt><trkpt lat="44.50484538538008" lon="6.294623586494779"><ele>1046.0</ele><time>2026-05-01T15:31:47Z</time></trkpt><trkpt lat="44.504765036727946" lon="6.294507616818533"><ele>1046.0</ele><time>2026-05-01T15:31:48Z</time></trkpt><trkpt lat="44.504696553613606" lon="6.2943564197854265"><ele>1046.0</ele><time>2026-05-01T15:31:49Z</time></trkpt><trkpt lat="44.50466796907143" lon="6.2942000803992055"><ele>1046.0</ele><time>2026-05-01T15:31:50Z</time></trkpt><trkpt lat="44.50468018175617" lon="6.2940498262425795"><ele>1046.0</ele><time>2026-05-01T15:31:51Z</time></trkpt><trkpt lat="44.50470507361383" lon="6.293888825057631"><ele>1046.0</ele><time>2026-05-01T15:31:52Z</time></trkpt><trkpt lat="44.50476406455122" lon="6.293750520209839"><ele>1047.0</ele><time>2026-05-01T15:31:53Z</time></trkpt><trkpt lat="44.50484815546041" lon="6.293633256288403"><ele>1048.0</ele><time>2026-05-01T15:31:54Z</time></trkpt><trkpt lat="44.50494698617477" lon="6.293563397449387"><ele>1049.0</ele><time>2026-05-01T15:31:55Z</time></trkpt><trkpt lat="44.50507537550541" lon="6.293504548356652"><ele>1050.0</ele><time>2026-05-01T15:31:56Z</time></trkpt><trkpt lat="44.50519963393676" lon="6.293465729388526"><ele>1050.0</ele><time>2026-05-01T15:31:57Z</time></trkpt><trkpt lat="44.505344306073575" lon="6.293433030802256"><ele>1050.0</ele><time>2026-05-01T15:31:58Z</time></trkpt><trkpt lat="44.50549687112977" lon="6.293400332996852"><ele>1050.0</ele><time>2026-05-01T15:31:59Z</time></trkpt><trkpt lat="44.50567077517465" lon="6.293329851746498"><ele>1051.75</ele><time>2026-05-01T15:32:00Z</time></trkpt><trkpt lat="44.5058201373342" lon="6.293289302711888"><ele>1053.5</ele><time>2026-05-01T15:32:01Z</time></trkpt><trkpt lat="44.50596122643962" lon="6.293216017369311"><ele>1055.25</ele><time>2026-05-01T15:32:02Z</time></trkpt><trkpt lat="44.506065899005804" lon="6.293112072191047"><ele>1057.0</ele><time>2026-05-01T15:32:03Z</time></trkpt><trkpt lat="44.50614088340784" lon="6.292942108404262"><ele>1057.6666666666665</ele><time>2026-05-01T15:32:04Z</time></trkpt><trkpt lat="44.50627478041937" lon="6.292748988977644"><ele>1058.3333333333333</ele><time>2026-05-01T15:32:05Z</time></trkpt><trkpt lat="44.5063877602889" lon="6.2924822505644755"><ele>1059.0</ele><time>2026-05-01T15:32:06Z</time></trkpt><trkpt lat="44.506565674538464" lon="6.292251886306874"><ele>1059.6666666666667</ele><time>2026-05-01T15:32:07Z</time></trkpt><trkpt lat="44.50673079783439" lon="6.292061229819853"><ele>1060.3333333333335</ele><time>2026-05-01T15:32:08Z</time></trkpt><trkpt lat="44.50690620060682" lon="6.291853210959396"><ele>1061.0</ele><time>2026-05-01T15:32:09Z</time></trkpt><trkpt lat="44.50709278757781" lon="6.291660157379008"><ele>1061.0</ele><time>2026-05-01T15:32:10Z</time></trkpt><trkpt lat="44.507260041044574" lon="6.2914667685967505"><ele>1061.0</ele><time>2026-05-01T15:32:11Z</time></trkpt><trkpt lat="44.507434824383886" lon="6.291251462488768"><ele>1061.0</ele><time>2026-05-01T15:32:12Z</time></trkpt><trkpt lat="44.50760723125979" lon="6.291075617272818"><ele>1063.6666666666667</ele><time>2026-05-01T15:32:13Z</time></trkpt><trkpt lat="44.50778324593819" lon="6.2908873635070846"><ele>1066.3333333333333</ele><time>2026-05-01T15:32:14Z</time></trkpt><trkpt lat="44.507945819145185" lon="6.290709060487676"><ele>1069.0</ele><time>2026-05-01T15:32:15Z</time></trkpt><trkpt lat="44.508097797478584" lon="6.290504355691946"><ele>1075.3333333333333</ele><time>2026-05-01T15:32:16Z</time></trkpt><trkpt lat="44.50823548642517" lon="6.290339940036072"><ele>1081.6666666666667</ele><time>2026-05-01T15:32:17Z</time></trkpt><trkpt lat="44.508364104331186" lon="6.290200148602691"><ele>1088.0</ele><time>2026-05-01T15:32:18Z</time></trkpt><trkpt lat="44.508484386333066" lon="6.2900620043102915"><ele>1088.0</ele><time>2026-05-01T15:32:19Z</time></trkpt><trkpt lat="44.50860411884154" lon="6.289912143953571"><ele>1088.0</ele><time>2026-05-01T15:32:20Z</time></trkpt><trkpt lat="44.508655726552284" lon="6.289703446099572"><ele>1088.0</ele><time>2026-05-01T15:32:21Z</time></trkpt><trkpt lat="44.5086934381706" lon="6.28952427665849"><ele>1091.3333333333335</ele><time>2026-05-01T15:32:22Z</time></trkpt><trkpt lat="44.508729942732586" lon="6.289251347583484"><ele>1094.6666666666667</ele><time>2026-05-01T15:32:23Z</time></trkpt><trkpt lat="44.508712444066404" lon="6.2890469002768175"><ele>1098.0</ele><time>2026-05-01T15:32:24Z</time></trkpt><trkpt lat="44.50868039747853" lon="6.28886336546288"><ele>1098.0</ele><time>2026-05-01T15:32:25Z</time></trkpt><trkpt lat="44.508649569790606" lon="6.288653802921659"><ele>1098.0</ele><time>2026-05-01T15:32:26Z</time></trkpt><trkpt lat="44.50860697653456" lon="6.288384945659731"><ele>1098.0</ele><time>2026-05-01T15:32:27Z</time></trkpt><trkpt lat="44.508550155020195" lon="6.288052125817839"><ele>1097.0</ele><time>2026-05-01T15:32:27.999Z</time></trkpt><trkpt lat="44.50849871394663" lon="6.287801731121959"><ele>1096.0</ele><time>2026-05-01T15:32:28.999Z</time></trkpt><trkpt lat="44.50843389335507" lon="6.2875288139683905"><ele>1095.0</ele><time>2026-05-01T15:32:29.999Z</time></trkpt><trkpt lat="44.508425401607795" lon="6.287249834761818"><ele>1094.5</ele><time>2026-05-01T15:32:30.999Z</time></trkpt><trkpt lat="44.5083024082625" lon="6.28691632025634"><ele>1094.0</ele><time>2026-05-01T15:32:31.999Z</time></trkpt><trkpt lat="44.5082537724877" lon="6.286638045700287"><ele>1092.6666666666667</ele><time>2026-05-01T15:32:32.999Z</time></trkpt><trkpt lat="44.508201799460636" lon="6.286385685200934"><ele>1091.3333333333333</ele><time>2026-05-01T15:32:33.999Z</time></trkpt><trkpt lat="44.50813742556339" lon="6.286141017730147"><ele>1090.0</ele><time>2026-05-01T15:32:34.999Z</time></trkpt><trkpt lat="44.50806658631442" lon="6.285897363912283"><ele>1090.0</ele><time>2026-05-01T15:32:35.999Z</time></trkpt><trkpt lat="44.50796397195029" lon="6.285631717583045"><ele>1090.0</ele><time>2026-05-01T15:32:36.999Z</time></trkpt><trkpt lat="44.507857553804556" lon="6.285384685855239"><ele>1090.0</ele><time>2026-05-01T15:32:37.999Z</time></trkpt><trkpt lat="44.50775890384205" lon="6.285147145585443"><ele>1096.3333333333333</ele><time>2026-05-01T15:32:38.999Z</time></trkpt><trkpt lat="44.50767223969949" lon="6.284909252294406"><ele>1102.6666666666667</ele><time>2026-05-01T15:32:39.999Z</time></trkpt><trkpt lat="44.507583335983156" lon="6.284674494414018"><ele>1109.0</ele><time>2026-05-01T15:32:40.999Z</time></trkpt><trkpt lat="44.50748054480857" lon="6.28447050487541"><ele>1109.0</ele><time>2026-05-01T15:32:41.999Z</time></trkpt><trkpt lat="44.50734892841258" lon="6.2843530254065065"><ele>1109.0</ele><time>2026-05-01T15:32:42.999Z</time></trkpt><trkpt lat="44.50718471977787" lon="6.284177047332056"><ele>1109.0</ele><time>2026-05-01T15:32:43.999Z</time></trkpt><trkpt lat="44.507047036547746" lon="6.284030836803805"><ele>1112.3333333333335</ele><time>2026-05-01T15:32:44.999Z</time></trkpt><trkpt lat="44.50686427036675" lon="6.283916498583248"><ele>1115.6666666666667</ele><time>2026-05-01T15:32:45.999Z</time></trkpt><trkpt lat="44.506716934587544" lon="6.283808590343157"><ele>1119.0</ele><time>2026-05-01T15:32:46.999Z</time></trkpt><trkpt lat="44.50654589631914" lon="6.283741675814286"><ele>1119.0</ele><time>2026-05-01T15:32:47.999Z</time></trkpt><trkpt lat="44.506374583764995" lon="6.283663444698602"><ele>1119.0</ele><time>2026-05-01T15:32:48.999Z</time></trkpt><trkpt lat="44.50619626835658" lon="6.283632119130581"><ele>1119.0</ele><time>2026-05-01T15:32:49.999Z</time></trkpt><trkpt lat="44.50602027784901" lon="6.283600557920776"><ele>1121.3333333333333</ele><time>2026-05-01T15:32:50.999Z</time></trkpt><trkpt lat="44.505833814534924" lon="6.283618753597163"><ele>1123.6666666666665</ele><time>2026-05-01T15:32:51.999Z</time></trkpt><trkpt lat="44.50565275662397" lon="6.283645302023808"><ele>1126.0</ele><time>2026-05-01T15:32:52.999Z</time></trkpt><trkpt lat="44.50547030054917" lon="6.283716358603262"><ele>1128.6666666666665</ele><time>2026-05-01T15:32:53.999Z</time></trkpt><trkpt lat="44.505295557400395" lon="6.283787889600021"><ele>1131.3333333333333</ele><time>2026-05-01T15:32:54.999Z</time></trkpt><trkpt lat="44.505119584200294" lon="6.2838717891923075"><ele>1134.0</ele><time>2026-05-01T15:32:56Z</time></trkpt><trkpt lat="44.5049457725768" lon="6.2839621921005815"><ele>1126.6666666666667</ele><time>2026-05-01T15:32:57Z</time></trkpt><trkpt lat="44.50475517964872" lon="6.284062554571705"><ele>1119.3333333333335</ele><time>2026-05-01T15:32:58Z</time></trkpt><trkpt lat="44.50458121818186" lon="6.284130484408223"><ele>1112.0</ele><time>2026-05-01T15:32:59Z</time></trkpt><trkpt lat="44.504389682260566" lon="6.284194158628696"><ele>1112.0</ele><time>2026-05-01T15:33:00Z</time></trkpt><trkpt lat="44.50419466570242" lon="6.28426502195479"><ele>1112.0</ele><time>2026-05-01T15:33:01Z</time></trkpt><trkpt lat="44.503981415591475" lon="6.284328278679214"><ele>1112.0</ele><time>2026-05-01T15:33:02Z</time></trkpt><trkpt lat="44.50377885209654" lon="6.2843861605026285"><ele>1110.6666666666667</ele><time>2026-05-01T15:33:03Z</time></trkpt><trkpt lat="44.50357799144684" lon="6.284449429328467"><ele>1109.3333333333333</ele><time>2026-05-01T15:33:04Z</time></trkpt><trkpt lat="44.5033804778894" lon="6.284513930796822"><ele>1108.0</ele><time>2026-05-01T15:33:05Z</time></trkpt><trkpt lat="44.5031982682904" lon="6.28455542929672"><ele>1108.0</ele><time>2026-05-01T15:33:06Z</time></trkpt><trkpt lat="44.503011519327956" lon="6.28462895609448"><ele>1108.0</ele><time>2026-05-01T15:33:07Z</time></trkpt><trkpt lat="44.50282501565168" lon="6.284700902266751"><ele>1108.0</ele><time>2026-05-01T15:33:08Z</time></trkpt><trkpt lat="44.50263517287495" lon="6.284761959484655"><ele>1100.0</ele><time>2026-05-01T15:33:09Z</time></trkpt><trkpt lat="44.502453495535775" lon="6.284782369511296"><ele>1092.0</ele><time>2026-05-01T15:33:10Z</time></trkpt><trkpt lat="44.50226116227585" lon="6.2847919013905775"><ele>1084.0</ele><time>2026-05-01T15:33:11Z</time></trkpt><trkpt lat="44.50207269341481" lon="6.284791476638549"><ele>1081.0</ele><time>2026-05-01T15:33:12Z</time></trkpt><trkpt lat="44.50189179024881" lon="6.28477488116176"><ele>1078.0</ele><time>2026-05-01T15:33:13Z</time></trkpt><trkpt lat="44.501711023542796" lon="6.284741214901261"><ele>1075.0</ele><time>2026-05-01T15:33:14Z</time></trkpt><trkpt lat="44.50152584162836" lon="6.2847026547549305"><ele>1080.0</ele><time>2026-05-01T15:33:15Z</time></trkpt><trkpt lat="44.50132827380889" lon="6.2846572810843595"><ele>1085.0</ele><time>2026-05-01T15:33:16Z</time></trkpt><trkpt lat="44.50112854399512" lon="6.2846119276885"><ele>1090.0</ele><time>2026-05-01T15:33:17Z</time></trkpt><trkpt lat="44.500927244637786" lon="6.28458477898403"><ele>1090.0</ele><time>2026-05-01T15:33:18Z</time></trkpt><trkpt lat="44.500728880428454" lon="6.284530082439828"><ele>1090.0</ele><time>2026-05-01T15:33:19Z</time></trkpt><trkpt lat="44.500526869909024" lon="6.2844874291084425"><ele>1090.0</ele><time>2026-05-01T15:33:20Z</time></trkpt><trkpt lat="44.50032089717571" lon="6.284460626587445"><ele>1085.3333333333333</ele><time>2026-05-01T15:33:21Z</time></trkpt><trkpt lat="44.50011673768331" lon="6.284404453937561"><ele>1080.6666666666667</ele><time>2026-05-01T15:33:22Z</time></trkpt><trkpt lat="44.499921210670855" lon="6.284360074937718"><ele>1076.0</ele><time>2026-05-01T15:33:23Z</time></trkpt><trkpt lat="44.499731185703524" lon="6.284288814378173"><ele>1070.0</ele><time>2026-05-01T15:33:24Z</time></trkpt><trkpt lat="44.4995466323868" lon="6.284240205782905"><ele>1064.0</ele><time>2026-05-01T15:33:25Z</time></trkpt><trkpt lat="44.49936470246913" lon="6.284200399956535"><ele>1058.0</ele><time>2026-05-01T15:33:26Z</time></trkpt><trkpt lat="44.499176524298434" lon="6.28417463647787"><ele>1058.0</ele><time>2026-05-01T15:33:27Z</time></trkpt><trkpt lat="44.49898473965414" lon="6.284146235752091"><ele>1058.0</ele><time>2026-05-01T15:33:28Z</time></trkpt><trkpt lat="44.498791871230026" lon="6.284109279580969"><ele>1058.0</ele><time>2026-05-01T15:33:29Z</time></trkpt><trkpt lat="44.49859713388662" lon="6.2840856349848"><ele>1055.6666666666667</ele><time>2026-05-01T15:33:30Z</time></trkpt><trkpt lat="44.49840711349797" lon="6.284059362012991"><ele>1053.3333333333333</ele><time>2026-05-01T15:33:31Z</time></trkpt><trkpt lat="44.49820326235577" lon="6.28404709307261"><ele>1051.0</ele><time>2026-05-01T15:33:32Z</time></trkpt><trkpt lat="44.49801130799944" lon="6.284031321745316"><ele>1048.3333333333333</ele><time>2026-05-01T15:33:33Z</time></trkpt><trkpt lat="44.49779729716049" lon="6.284081675152981"><ele>1045.6666666666667</ele><time>2026-05-01T15:33:34Z</time></trkpt><trkpt lat="44.49760997436624" lon="6.284098396304476"><ele>1043.0</ele><time>2026-05-01T15:33:35Z</time></trkpt><trkpt lat="44.497420360563794" lon="6.284126199870892"><ele>1043.0</ele><time>2026-05-01T15:33:36Z</time></trkpt><trkpt lat="44.497228059040495" lon="6.2841499329300134"><ele>1043.0</ele><time>2026-05-01T15:33:37Z</time></trkpt><trkpt lat="44.49706134818281" lon="6.284162745629999"><ele>1043.0</ele><time>2026-05-01T15:33:38Z</time></trkpt><trkpt lat="44.4969050055826" lon="6.284182283113978"><ele>1041.3333333333335</ele><time>2026-05-01T15:33:39Z</time></trkpt><trkpt lat="44.49674386685318" lon="6.284253229543618"><ele>1039.6666666666667</ele><time>2026-05-01T15:33:40Z</time></trkpt><trkpt lat="44.496585200187106" lon="6.2843495596379775"><ele>1038.0</ele><time>2026-05-01T15:33:41Z</time></trkpt><trkpt lat="44.49643473848919" lon="6.284494901658913"><ele>1038.0</ele><time>2026-05-01T15:33:42Z</time></trkpt><trkpt lat="44.496302456487" lon="6.284625793289045"><ele>1038.0</ele><time>2026-05-01T15:33:43Z</time></trkpt><trkpt lat="44.49616285308959" lon="6.284731578138605"><ele>1038.0</ele><time>2026-05-01T15:33:44Z</time></trkpt><trkpt lat="44.49603360164134" lon="6.28482756998914"><ele>1034.25</ele><time>2026-05-01T15:33:45Z</time></trkpt><trkpt lat="44.495924532196774" lon="6.284874541619314"><ele>1030.5</ele><time>2026-05-01T15:33:46Z</time></trkpt><trkpt lat="44.49580460185023" lon="6.284869190011143"><ele>1026.75</ele><time>2026-05-01T15:33:47Z</time></trkpt><trkpt lat="44.49567719672707" lon="6.28486149802249"><ele>1023.0</ele><time>2026-05-01T15:33:48Z</time></trkpt><trkpt lat="44.495558226008654" lon="6.284784890451207"><ele>1024.25</ele><time>2026-05-01T15:33:49Z</time></trkpt><trkpt lat="44.49543882076584" lon="6.284689671284046"><ele>1025.5</ele><time>2026-05-01T15:33:50Z</time></trkpt><trkpt lat="44.49534324769344" lon="6.284577898846419"><ele>1026.75</ele><time>2026-05-01T15:33:51Z</time></trkpt><trkpt lat="44.49525233154462" lon="6.2844130937142255"><ele>1028.0</ele><time>2026-05-01T15:33:52Z</time></trkpt><trkpt lat="44.49518779865612" lon="6.284233599493404"><ele>1024.5</ele><time>2026-05-01T15:33:53Z</time></trkpt><trkpt lat="44.49516233111042" lon="6.284042245073569"><ele>1021.0</ele><time>2026-05-01T15:33:54Z</time></trkpt><trkpt lat="44.49514977621688" lon="6.283843944003241"><ele>1017.5</ele><time>2026-05-01T15:33:55Z</time></trkpt><trkpt lat="44.4951380584237" lon="6.283611056880457"><ele>1014.0</ele><time>2026-05-01T15:33:56Z</time></trkpt><trkpt lat="44.49512740007453" lon="6.283381691507403"><ele>1013.0</ele><time>2026-05-01T15:33:57Z</time></trkpt><trkpt lat="44.49511635066523" lon="6.283143910633839"><ele>1012.0</ele><time>2026-05-01T15:33:58Z</time></trkpt><trkpt lat="44.49509081449199" lon="6.282924376413527"><ele>1011.0</ele><time>2026-05-01T15:33:59Z</time></trkpt><trkpt lat="44.495082442212386" lon="6.282694878589173"><ele>1010.0</ele><time>2026-05-01T15:34:00Z</time></trkpt><trkpt lat="44.495074201356125" lon="6.282479773926108"><ele>1009.0</ele><time>2026-05-01T15:34:01Z</time></trkpt><trkpt lat="44.49503409238814" lon="6.282259431759538"><ele>1008.0</ele><time>2026-05-01T15:34:02Z</time></trkpt><trkpt lat="44.49499211840474" lon="6.282077842209236"><ele>1008.0</ele><time>2026-05-01T15:34:03Z</time></trkpt><trkpt lat="44.49488239126283" lon="6.281867762427884"><ele>1008.0</ele><time>2026-05-01T15:34:04Z</time></trkpt><trkpt lat="44.494749470891534" lon="6.281741159675851"><ele>1008.0</ele><time>2026-05-01T15:34:05Z</time></trkpt><trkpt lat="44.49464195203173" lon="6.281603838054121"><ele>1006.3333333333333</ele><time>2026-05-01T15:34:06Z</time></trkpt><trkpt lat="44.49452269851639" lon="6.2814323629271955"><ele>1004.6666666666666</ele><time>2026-05-01T15:34:07Z</time></trkpt><trkpt lat="44.4943976090265" lon="6.281260847596693"><ele>1003.0</ele><time>2026-05-01T15:34:08Z</time></trkpt><trkpt lat="44.49427966762478" lon="6.281078032718388"><ele>1003.0</ele><time>2026-05-01T15:34:09Z</time></trkpt><trkpt lat="44.49415750435491" lon="6.280912560084182"><ele>1003.0</ele><time>2026-05-01T15:34:10Z</time></trkpt><trkpt lat="44.494024890976604" lon="6.2807443564393735"><ele>1003.0</ele><time>2026-05-01T15:34:11Z</time></trkpt><trkpt lat="44.49387959258853" lon="6.280644411767727"><ele>1004.6666666666666</ele><time>2026-05-01T15:34:12Z</time></trkpt><trkpt lat="44.49372171499822" lon="6.28056954248689"><ele>1006.3333333333333</ele><time>2026-05-01T15:34:13Z</time></trkpt><trkpt lat="44.49357235023024" lon="6.280489750608277"><ele>1008.0</ele><time>2026-05-01T15:34:14Z</time></trkpt><trkpt lat="44.493408790444484" lon="6.280468740121801"><ele>1008.0</ele><time>2026-05-01T15:34:15Z</time></trkpt><trkpt lat="44.49326032581542" lon="6.280469667215935"><ele>1008.0</ele><time>2026-05-01T15:34:16Z</time></trkpt><trkpt lat="44.49309088406446" lon="6.280499460583309"><ele>1008.0</ele><time>2026-05-01T15:34:17Z</time></trkpt><trkpt lat="44.49294300695118" lon="6.280567449292902"><ele>1001.0</ele><time>2026-05-01T15:34:18Z</time></trkpt><trkpt lat="44.49277841171062" lon="6.280694133484244"><ele>994.0</ele><time>2026-05-01T15:34:19Z</time></trkpt><trkpt lat="44.49262108520436" lon="6.280799875645363"><ele>987.0</ele><time>2026-05-01T15:34:20Z</time></trkpt><trkpt lat="44.49248637868001" lon="6.280965115132216"><ele>987.0</ele><time>2026-05-01T15:34:21Z</time></trkpt><trkpt lat="44.492349227194715" lon="6.281071613542101"><ele>987.0</ele><time>2026-05-01T15:34:22Z</time></trkpt><trkpt lat="44.492186507800426" lon="6.2811668758665204"><ele>987.0</ele><time>2026-05-01T15:34:23Z</time></trkpt><trkpt lat="44.49204345479771" lon="6.281241280456566"><ele>989.5</ele><time>2026-05-01T15:34:24Z</time></trkpt><trkpt lat="44.49189383833078" lon="6.2813013176148615"><ele>992.0</ele><time>2026-05-01T15:34:25Z</time></trkpt><trkpt lat="44.4917821082852" lon="6.281335102478007"><ele>994.5</ele><time>2026-05-01T15:34:26Z</time></trkpt><trkpt lat="44.49164316477423" lon="6.281295596857199"><ele>997.0</ele><time>2026-05-01T15:34:27Z</time></trkpt><trkpt lat="44.49150559645208" lon="6.281243221529283"><ele>997.0</ele><time>2026-05-01T15:34:28Z</time></trkpt><trkpt lat="44.49135804368576" lon="6.281174075375693"><ele>997.0</ele><time>2026-05-01T15:34:29Z</time></trkpt><trkpt lat="44.49120660011278" lon="6.281090057415334"><ele>997.0</ele><time>2026-05-01T15:34:30Z</time></trkpt><trkpt lat="44.491054238924754" lon="6.281023968125707"><ele>988.3333333333333</ele><time>2026-05-01T15:34:31Z</time></trkpt><trkpt lat="44.49090369717053" lon="6.2809272970185805"><ele>979.6666666666667</ele><time>2026-05-01T15:34:32Z</time></trkpt><trkpt lat="44.49076294764057" lon="6.280840735644697"><ele>971.0</ele><time>2026-05-01T15:34:33Z</time></trkpt><trkpt lat="44.49064086454714" lon="6.280736693284244"><ele>971.0</ele><time>2026-05-01T15:34:34Z</time></trkpt><trkpt lat="44.490504804030635" lon="6.280672285140087"><ele>971.0</ele><time>2026-05-01T15:34:34.999Z</time></trkpt><trkpt lat="44.49035821420596" lon="6.2806283889197365"><ele>971.0</ele><time>2026-05-01T15:34:35.999Z</time></trkpt><trkpt lat="44.49020677211214" lon="6.2806218700474075"><ele>971.0</ele><time>2026-05-01T15:34:36.999Z</time></trkpt><trkpt lat="44.49004190155846" lon="6.280632097990454"><ele>975.25</ele><time>2026-05-01T15:34:37.999Z</time></trkpt><trkpt lat="44.48989704294959" lon="6.280585100242034"><ele>979.5</ele><time>2026-05-01T15:34:38.999Z</time></trkpt><trkpt lat="44.489751394728735" lon="6.2805228471895855"><ele>983.75</ele><time>2026-05-01T15:34:39.999Z</time></trkpt><trkpt lat="44.48960834442391" lon="6.280472194651187"><ele>988.0</ele><time>2026-05-01T15:34:40.999Z</time></trkpt><trkpt lat="44.48947223287653" lon="6.2804534366472655"><ele>988.0</ele><time>2026-05-01T15:34:41.999Z</time></trkpt><trkpt lat="44.489323980878986" lon="6.280498528334251"><ele>988.0</ele><time>2026-05-01T15:34:42.999Z</time></trkpt><trkpt lat="44.489189658059296" lon="6.280588501140002"><ele>988.0</ele><time>2026-05-01T15:34:43.999Z</time></trkpt><trkpt lat="44.48904268011988" lon="6.2806288917641435"><ele>977.25</ele><time>2026-05-01T15:34:44.999Z</time></trkpt><trkpt lat="44.488893922923104" lon="6.280669650048706"><ele>966.5</ele><time>2026-05-01T15:34:45.999Z</time></trkpt><trkpt lat="44.488734830412355" lon="6.280698630431791"><ele>955.75</ele><time>2026-05-01T15:34:46.999Z</time></trkpt><trkpt lat="44.488604818848046" lon="6.280744696805685"><ele>945.0</ele><time>2026-05-01T15:34:47.999Z</time></trkpt><trkpt lat="44.48847743164436" lon="6.280772120377311"><ele>943.8</ele><time>2026-05-01T15:34:48.999Z</time></trkpt><trkpt lat="44.48836950657262" lon="6.2807293341245725"><ele>942.6</ele><time>2026-05-01T15:34:49.999Z</time></trkpt><trkpt lat="44.48828196511391" lon="6.280675617712534"><ele>941.4000000000001</ele><time>2026-05-01T15:34:50.999Z</time></trkpt><trkpt lat="44.4881942021542" lon="6.28060483389793"><ele>940.2</ele><time>2026-05-01T15:34:51.999Z</time></trkpt><trkpt lat="44.488159215425384" lon="6.280459590656659"><ele>939.0</ele><time>2026-05-01T15:34:52.999Z</time></trkpt><trkpt lat="44.48814418381046" lon="6.280334870231081"><ele>949.4000000000001</ele><time>2026-05-01T15:34:53.999Z</time></trkpt><trkpt lat="44.488104971818125" lon="6.280209729193335"><ele>959.8000000000001</ele><time>2026-05-01T15:34:54.999Z</time></trkpt><trkpt lat="44.48807254592468" lon="6.280084351339143"><ele>970.1999999999999</ele><time>2026-05-01T15:34:56.011Z</time></trkpt><trkpt lat="44.488042346001286" lon="6.279975119280222"><ele>980.5999999999999</ele><time>2026-05-01T15:34:57.017Z</time></trkpt><trkpt lat="44.48801223827713" lon="6.2798662108681125"><ele>991.0</ele><time>2026-05-01T15:34:58.014Z</time></trkpt><trkpt lat="44.48797845809837" lon="6.279746569906305"><ele>1013.0</ele><time>2026-05-01T15:34:59.014Z</time></trkpt><trkpt lat="44.48793114371107" lon="6.279626325962371"><ele>1035.0</ele><time>2026-05-01T15:35:00.012Z</time></trkpt><trkpt lat="44.4871783820827" lon="6.276999855635949"><ele>927.0</ele><time>2026-05-01T15:35:03.161Z</time></trkpt><trkpt lat="44.48691226645424" lon="6.276060246411663"><ele>937.0</ele><time>2026-05-01T15:35:04.166Z</time></trkpt><trkpt lat="44.48665070868054" lon="6.275124265416807"><ele>935.5</ele><time>2026-05-01T15:35:05.165Z</time></trkpt><trkpt lat="44.4865403" lon="6.2747318"><ele>934.0</ele><time>2026-05-01T15:35:06.165Z</time></trkpt><trkpt lat="44.486184557941264" lon="6.274095587438228"><ele>934.0</ele><time>2026-05-01T15:35:29.999Z</time></trkpt><trkpt lat="44.48626241369017" lon="6.273981442310246"><ele>934.0</ele><time>2026-05-01T15:35:30.999Z</time></trkpt><trkpt lat="44.486287998848816" lon="6.273785270951268"><ele>934.0</ele><time>2026-05-01T15:35:31.999Z</time></trkpt><trkpt lat="44.48622415388952" lon="6.273562788590255"><ele>934.0</ele><time>2026-05-01T15:35:32.999Z</time></trkpt><trkpt lat="44.48617450577394" lon="6.273393837063521"><ele>924.75</ele><time>2026-05-01T15:35:33.999Z</time></trkpt><trkpt lat="44.486128449923505" lon="6.273221532710222"><ele>915.5</ele><time>2026-05-01T15:35:34.999Z</time></trkpt><trkpt lat="44.48608841524464" lon="6.273054952232486"><ele>906.25</ele><time>2026-05-01T15:35:36Z</time></trkpt><trkpt lat="44.48605338815338" lon="6.27286139675114"><ele>897.0</ele><time>2026-05-01T15:35:37Z</time></trkpt><trkpt lat="44.48604635206732" lon="6.272674787540009"><ele>896.6666666666667</ele><time>2026-05-01T15:35:38Z</time></trkpt><trkpt lat="44.48605297363386" lon="6.272431852562189"><ele>896.3333333333334</ele><time>2026-05-01T15:35:39Z</time></trkpt><trkpt lat="44.48608160519128" lon="6.272238464430093"><ele>896.0</ele><time>2026-05-01T15:35:40Z</time></trkpt><trkpt lat="44.48611236440546" lon="6.272049752642235"><ele>897.5</ele><time>2026-05-01T15:35:41Z</time></trkpt><trkpt lat="44.486171636530706" lon="6.271870088802471"><ele>899.0</ele><time>2026-05-01T15:35:42Z</time></trkpt><trkpt lat="44.48626530987934" lon="6.271694032098602"><ele>900.5</ele><time>2026-05-01T15:35:43Z</time></trkpt><trkpt lat="44.48635818874862" lon="6.27154612800675"><ele>902.0</ele><time>2026-05-01T15:35:44Z</time></trkpt><trkpt lat="44.4864609517117" lon="6.271417492229708"><ele>898.0</ele><time>2026-05-01T15:35:45Z</time></trkpt><trkpt lat="44.48658019224132" lon="6.27130315888833"><ele>894.0</ele><time>2026-05-01T15:35:46Z</time></trkpt><trkpt lat="44.48670733871478" lon="6.2712159026043155"><ele>890.0</ele><time>2026-05-01T15:35:47Z</time></trkpt><trkpt lat="44.486840422808704" lon="6.271108796035984"><ele>886.0</ele><time>2026-05-01T15:35:48Z</time></trkpt><trkpt lat="44.48697025315366" lon="6.271038136344353"><ele>886.0</ele><time>2026-05-01T15:35:49Z</time></trkpt><trkpt lat="44.48708515992036" lon="6.270977205144051"><ele>885.9999999999999</ele><time>2026-05-01T15:35:50Z</time></trkpt><trkpt lat="44.487184734314994" lon="6.270924330763086"><ele>885.9999999999999</ele><time>2026-05-01T15:35:51Z</time></trkpt><trkpt lat="44.487259772967484" lon="6.2708594489422955"><ele>886.0</ele><time>2026-05-01T15:35:52Z</time></trkpt><trkpt lat="44.487318040421464" lon="6.270774719261897"><ele>886.0</ele><time>2026-05-01T15:35:53Z</time></trkpt><trkpt lat="44.48736667042843" lon="6.270694411641541"><ele>882.8</ele><time>2026-05-01T15:35:54Z</time></trkpt><trkpt lat="44.487379029176566" lon="6.270575507202297"><ele>879.5999999999999</ele><time>2026-05-01T15:35:55Z</time></trkpt><trkpt lat="44.48736401325733" lon="6.270440913696538"><ele>876.4</ele><time>2026-05-01T15:35:56Z</time></trkpt><trkpt lat="44.48728734110015" lon="6.270341927972566"><ele>873.2</ele><time>2026-05-01T15:35:57Z</time></trkpt><trkpt lat="44.48714694940265" lon="6.270244832449702"><ele>870.0</ele><time>2026-05-01T15:35:58Z</time></trkpt><trkpt lat="44.48701332839595" lon="6.270194477302904"><ele>869.3333333333333</ele><time>2026-05-01T15:35:59Z</time></trkpt><trkpt lat="44.48683982264264" lon="6.270213400710075"><ele>868.6666666666666</ele><time>2026-05-01T15:36:00Z</time></trkpt><trkpt lat="44.48667538034379" lon="6.27016037943216"><ele>868.0</ele><time>2026-05-01T15:36:01Z</time></trkpt><trkpt lat="44.48653123188982" lon="6.270116655898864"><ele>868.0</ele><time>2026-05-01T15:36:02Z</time></trkpt><trkpt lat="44.48637850887625" lon="6.2700704435908605"><ele>868.0</ele><time>2026-05-01T15:36:03Z</time></trkpt><trkpt lat="44.486235046383946" lon="6.270033615242328"><ele>868.0</ele><time>2026-05-01T15:36:04Z</time></trkpt><trkpt lat="44.48609696897471" lon="6.269994206677011"><ele>868.0</ele><time>2026-05-01T15:36:05Z</time></trkpt><trkpt lat="44.48595256632271" lon="6.2699562926806305"><ele>864.6666666666666</ele><time>2026-05-01T15:36:06Z</time></trkpt><trkpt lat="44.48581084179251" lon="6.269934309617692"><ele>861.3333333333333</ele><time>2026-05-01T15:36:07Z</time></trkpt><trkpt lat="44.48566759916737" lon="6.26996233495392"><ele>858.0</ele><time>2026-05-01T15:36:08Z</time></trkpt><trkpt lat="44.485513851480086" lon="6.270039646674715"><ele>853.3333333333333</ele><time>2026-05-01T15:36:09Z</time></trkpt><trkpt lat="44.485364854010015" lon="6.270137469557757"><ele>848.6666666666666</ele><time>2026-05-01T15:36:10Z</time></trkpt><trkpt lat="44.485230310058995" lon="6.270297958853156"><ele>844.0</ele><time>2026-05-01T15:36:11Z</time></trkpt><trkpt lat="44.48509519942801" lon="6.270472374773413"><ele>848.3333333333333</ele><time>2026-05-01T15:36:12Z</time></trkpt><trkpt lat="44.485001690777885" lon="6.270656556352932"><ele>852.6666666666667</ele><time>2026-05-01T15:36:13Z</time></trkpt><trkpt lat="44.48492499736844" lon="6.270854063464335"><ele>857.0</ele><time>2026-05-01T15:36:14Z</time></trkpt><trkpt lat="44.48485252402846" lon="6.271113591384165"><ele>857.0</ele><time>2026-05-01T15:36:15Z</time></trkpt><trkpt lat="44.48480353037118" lon="6.271338965508108"><ele>857.0</ele><time>2026-05-01T15:36:16Z</time></trkpt><trkpt lat="44.48472584380963" lon="6.27154589065325"><ele>857.0</ele><time>2026-05-01T15:36:17Z</time></trkpt><trkpt lat="44.484668460807015" lon="6.271763346930974"><ele>860.0</ele><time>2026-05-01T15:36:18Z</time></trkpt><trkpt lat="44.484597856727504" lon="6.271979582682013"><ele>863.0</ele><time>2026-05-01T15:36:19Z</time></trkpt><trkpt lat="44.484498368738535" lon="6.272181888542561"><ele>866.0</ele><time>2026-05-01T15:36:20Z</time></trkpt><trkpt lat="44.48444522566921" lon="6.272394474463864"><ele>859.25</ele><time>2026-05-01T15:36:21Z</time></trkpt><trkpt lat="44.484388355203926" lon="6.272584247836334"><ele>852.5</ele><time>2026-05-01T15:36:22Z</time></trkpt><trkpt lat="44.48434957216641" lon="6.272799894589995"><ele>845.75</ele><time>2026-05-01T15:36:23Z</time></trkpt><trkpt lat="44.48430605770388" lon="6.272974616467599"><ele>839.0</ele><time>2026-05-01T15:36:24Z</time></trkpt><trkpt lat="44.48425610308914" lon="6.273163484797818"><ele>839.0</ele><time>2026-05-01T15:36:25Z</time></trkpt><trkpt lat="44.48420361039136" lon="6.273344255816913"><ele>839.0</ele><time>2026-05-01T15:36:26Z</time></trkpt><trkpt lat="44.48414594128649" lon="6.273510955006888"><ele>839.0</ele><time>2026-05-01T15:36:27Z</time></trkpt><trkpt lat="44.48406229374728" lon="6.2736817017537145"><ele>839.0</ele><time>2026-05-01T15:36:28Z</time></trkpt><trkpt lat="44.48397000180681" lon="6.273842693666751"><ele>839.4000000000001</ele><time>2026-05-01T15:36:29Z</time></trkpt><trkpt lat="44.48389081859057" lon="6.273981300042634"><ele>839.8</ele><time>2026-05-01T15:36:30Z</time></trkpt><trkpt lat="44.48381938851195" lon="6.274104053198265"><ele>840.2</ele><time>2026-05-01T15:36:31Z</time></trkpt><trkpt lat="44.48374661173221" lon="6.274215111011751"><ele>840.5999999999999</ele><time>2026-05-01T15:36:32Z</time></trkpt><trkpt lat="44.48368431874118" lon="6.274285192682268"><ele>841.0</ele><time>2026-05-01T15:36:33Z</time></trkpt><trkpt lat="44.48361943024771" lon="6.274299071349373"><ele>835.4</ele><time>2026-05-01T15:36:34Z</time></trkpt><trkpt lat="44.48353651322423" lon="6.27424050268866"><ele>829.8</ele><time>2026-05-01T15:36:35Z</time></trkpt><trkpt lat="44.48349937405662" lon="6.274131382358921"><ele>824.1999999999999</ele><time>2026-05-01T15:36:36Z</time></trkpt><trkpt lat="44.48351877002106" lon="6.274007181254748"><ele>818.5999999999999</ele><time>2026-05-01T15:36:37Z</time></trkpt><trkpt lat="44.48360025121249" lon="6.273894814085764"><ele>813.0</ele><time>2026-05-01T15:36:38Z</time></trkpt><trkpt lat="44.48367490318167" lon="6.273811288557696"><ele>811.25</ele><time>2026-05-01T15:36:39Z</time></trkpt><trkpt lat="44.48376205957411" lon="6.273678070357766"><ele>809.5</ele><time>2026-05-01T15:36:40Z</time></trkpt><trkpt lat="44.48385754654302" lon="6.273514774214613"><ele>807.75</ele><time>2026-05-01T15:36:41Z</time></trkpt><trkpt lat="44.483924336526066" lon="6.273345379161092"><ele>806.0</ele><time>2026-05-01T15:36:42Z</time></trkpt><trkpt lat="44.48396494935548" lon="6.273159516679191"><ele>813.0</ele><time>2026-05-01T15:36:43Z</time></trkpt><trkpt lat="44.483974246581184" lon="6.2729862468906505"><ele>820.0</ele><time>2026-05-01T15:36:44Z</time></trkpt><trkpt lat="44.48398464955074" lon="6.272799290193886"><ele>827.0</ele><time>2026-05-01T15:36:45Z</time></trkpt><trkpt lat="44.48394561225931" lon="6.272593868979544"><ele>834.0</ele><time>2026-05-01T15:36:46Z</time></trkpt><trkpt lat="44.483945578690296" lon="6.272406768626739"><ele>833.3333333333333</ele><time>2026-05-01T15:36:47Z</time></trkpt><trkpt lat="44.48388198826743" lon="6.27214142056665"><ele>832.6666666666666</ele><time>2026-05-01T15:36:48Z</time></trkpt><trkpt lat="44.48384882918292" lon="6.271905321088038"><ele>832.0</ele><time>2026-05-01T15:36:49Z</time></trkpt><trkpt lat="44.48380607665421" lon="6.271693994819811"><ele>823.0</ele><time>2026-05-01T15:36:50Z</time></trkpt><trkpt lat="44.48375116142727" lon="6.271466887758219"><ele>814.0</ele><time>2026-05-01T15:36:51Z</time></trkpt><trkpt lat="44.483694759524376" lon="6.271248949759591"><ele>805.0</ele><time>2026-05-01T15:36:52Z</time></trkpt><trkpt lat="44.483652946033715" lon="6.271025181323132"><ele>805.0</ele><time>2026-05-01T15:36:53Z</time></trkpt><trkpt lat="44.48361955810963" lon="6.2707891492341385"><ele>805.0</ele><time>2026-05-01T15:36:54Z</time></trkpt><trkpt lat="44.48355181179413" lon="6.270572709287421"><ele>805.0</ele><time>2026-05-01T15:36:55Z</time></trkpt><trkpt lat="44.48349126470592" lon="6.270379502139915"><ele>804.3333333333333</ele><time>2026-05-01T15:36:56Z</time></trkpt><trkpt lat="44.483416215507795" lon="6.270219849597898"><ele>803.6666666666667</ele><time>2026-05-01T15:36:57Z</time></trkpt><trkpt lat="44.48330568755812" lon="6.270061282974094"><ele>803.0</ele><time>2026-05-01T15:36:58Z</time></trkpt><trkpt lat="44.48317355310706" lon="6.269911002588833"><ele>803.0</ele><time>2026-05-01T15:36:59Z</time></trkpt><trkpt lat="44.48301404753305" lon="6.2697892820997225"><ele>803.0</ele><time>2026-05-01T15:37:00Z</time></trkpt><trkpt lat="44.482841070097734" lon="6.2696840130913465"><ele>803.0</ele><time>2026-05-01T15:37:01Z</time></trkpt><trkpt lat="44.482652182297265" lon="6.269626122485557"><ele>804.3333333333334</ele><time>2026-05-01T15:37:02Z</time></trkpt><trkpt lat="44.48245888546502" lon="6.269596936400637"><ele>805.6666666666667</ele><time>2026-05-01T15:37:03Z</time></trkpt><trkpt lat="44.482280717236826" lon="6.269554665572442"><ele>807.0</ele><time>2026-05-01T15:37:04Z</time></trkpt><trkpt lat="44.482086365395304" lon="6.269514944710548"><ele>807.0</ele><time>2026-05-01T15:37:05Z</time></trkpt><trkpt lat="44.48191826704135" lon="6.269506038710556"><ele>807.0</ele><time>2026-05-01T15:37:06Z</time></trkpt><trkpt lat="44.48173839869047" lon="6.269475801368199"><ele>807.0</ele><time>2026-05-01T15:37:07Z</time></trkpt><trkpt lat="44.48156984557577" lon="6.2694296694989715"><ele>807.0</ele><time>2026-05-01T15:37:08Z</time></trkpt><trkpt lat="44.48140527814535" lon="6.269407320682633"><ele>807.0</ele><time>2026-05-01T15:37:09Z</time></trkpt><trkpt lat="44.481266606316204" lon="6.269370752357949"><ele>807.0</ele><time>2026-05-01T15:37:10Z</time></trkpt><trkpt lat="44.48111629660994" lon="6.269357603143205"><ele>808.5</ele><time>2026-05-01T15:37:11Z</time></trkpt><trkpt lat="44.480982362681274" lon="6.269387154531316"><ele>810.0</ele><time>2026-05-01T15:37:12Z</time></trkpt><trkpt lat="44.48086281036086" lon="6.26945591502743"><ele>811.5</ele><time>2026-05-01T15:37:13Z</time></trkpt><trkpt lat="44.48076136538919" lon="6.269563674033248"><ele>813.0</ele><time>2026-05-01T15:37:14Z</time></trkpt><trkpt lat="44.48065964524722" lon="6.26971946513875"><ele>811.0</ele><time>2026-05-01T15:37:15Z</time></trkpt><trkpt lat="44.480575617176655" lon="6.269892134324269"><ele>809.0</ele><time>2026-05-01T15:37:16Z</time></trkpt><trkpt lat="44.48053003903705" lon="6.2700816884546615"><ele>807.0</ele><time>2026-05-01T15:37:17Z</time></trkpt><trkpt lat="44.48052219729714" lon="6.270284557235324"><ele>805.0</ele><time>2026-05-01T15:37:18Z</time></trkpt><trkpt lat="44.48052496291427" lon="6.27049777559276"><ele>804.6666666666666</ele><time>2026-05-01T15:37:19Z</time></trkpt><trkpt lat="44.48053624775789" lon="6.270739246751347"><ele>804.3333333333333</ele><time>2026-05-01T15:37:20Z</time></trkpt><trkpt lat="44.48051510496586" lon="6.271013704279726"><ele>804.0</ele><time>2026-05-01T15:37:21Z</time></trkpt><trkpt lat="44.48045686409132" lon="6.271203357944223"><ele>804.0</ele><time>2026-05-01T15:37:22Z</time></trkpt><trkpt lat="44.48045367198668" lon="6.271345882297828"><ele>804.0</ele><time>2026-05-01T15:37:23Z</time></trkpt><trkpt lat="44.48036332685208" lon="6.271471027842404"><ele>804.0</ele><time>2026-05-01T15:37:23.999Z</time></trkpt><trkpt lat="44.480242684938005" lon="6.271561221699964"><ele>804.0</ele><time>2026-05-01T15:37:24.999Z</time></trkpt><trkpt lat="44.48012236760798" lon="6.27162368392597"><ele>809.75</ele><time>2026-05-01T15:37:25.999Z</time></trkpt><trkpt lat="44.47998314159382" lon="6.271666006245521"><ele>815.5</ele><time>2026-05-01T15:37:26.999Z</time></trkpt><trkpt lat="44.47983069335565" lon="6.271722300748163"><ele>821.25</ele><time>2026-05-01T15:37:27.999Z</time></trkpt><trkpt lat="44.47968498761211" lon="6.271754970851486"><ele>827.0</ele><time>2026-05-01T15:37:28.999Z</time></trkpt><trkpt lat="44.47951771814263" lon="6.2718074363630025"><ele>829.25</ele><time>2026-05-01T15:37:29.999Z</time></trkpt><trkpt lat="44.479376013217276" lon="6.271840479887349"><ele>831.5</ele><time>2026-05-01T15:37:30.999Z</time></trkpt><trkpt lat="44.479235482682284" lon="6.271879080806475"><ele>833.75</ele><time>2026-05-01T15:37:31.999Z</time></trkpt><trkpt lat="44.479091116071075" lon="6.2719225711306175"><ele>836.0</ele><time>2026-05-01T15:37:32.999Z</time></trkpt><trkpt lat="44.47896272771058" lon="6.271987477296053"><ele>836.0</ele><time>2026-05-01T15:37:33.999Z</time></trkpt><trkpt lat="44.478832585255475" lon="6.272021133662714"><ele>836.0</ele><time>2026-05-01T15:37:34.999Z</time></trkpt><trkpt lat="44.478709410449895" lon="6.272063303215409"><ele>836.0</ele><time>2026-05-01T15:37:35.999Z</time></trkpt><trkpt lat="44.47859612811998" lon="6.272095668834037"><ele>836.0</ele><time>2026-05-01T15:37:36.999Z</time></trkpt><trkpt lat="44.4784590763901" lon="6.272123830087799"><ele>838.25</ele><time>2026-05-01T15:37:37.999Z</time></trkpt><trkpt lat="44.478321965960035" lon="6.272164911546214"><ele>840.5</ele><time>2026-05-01T15:37:38.999Z</time></trkpt><trkpt lat="44.47819011937805" lon="6.272209461256335"><ele>842.75</ele><time>2026-05-01T15:37:39.999Z</time></trkpt><trkpt lat="44.47806094299182" lon="6.272251996832444"><ele>845.0</ele><time>2026-05-01T15:37:40.999Z</time></trkpt><trkpt lat="44.477932021253075" lon="6.27228198411001"><ele>845.0</ele><time>2026-05-01T15:37:42Z</time></trkpt><trkpt lat="44.47780000087956" lon="6.272315040863731"><ele>845.0</ele><time>2026-05-01T15:37:43Z</time></trkpt><trkpt lat="44.47765741559057" lon="6.272355025051855"><ele>845.0</ele><time>2026-05-01T15:37:44Z</time></trkpt><trkpt lat="44.47750016874055" lon="6.272397683051686"><ele>845.0</ele><time>2026-05-01T15:37:45Z</time></trkpt><trkpt lat="44.477333763732034" lon="6.272480627333285"><ele>845.0</ele><time>2026-05-01T15:37:46Z</time></trkpt><trkpt lat="44.477172119148136" lon="6.272520467727994"><ele>845.0</ele><time>2026-05-01T15:37:47Z</time></trkpt><trkpt lat="44.47704050435886" lon="6.272570643846981"><ele>845.0</ele><time>2026-05-01T15:37:48Z</time></trkpt><trkpt lat="44.47690058439843" lon="6.2726216371152566"><ele>845.0</ele><time>2026-05-01T15:37:49Z</time></trkpt><trkpt lat="44.47677076966554" lon="6.2726370010337105"><ele>847.0</ele><time>2026-05-01T15:37:50Z</time></trkpt><trkpt lat="44.47662675027986" lon="6.2725924350244915"><ele>849.0</ele><time>2026-05-01T15:37:51Z</time></trkpt><trkpt lat="44.47650697973323" lon="6.27255141550014"><ele>851.0</ele><time>2026-05-01T15:37:52Z</time></trkpt><trkpt lat="44.47640964527623" lon="6.272501715653994"><ele>853.0</ele><time>2026-05-01T15:37:53Z</time></trkpt><trkpt lat="44.47631524894085" lon="6.272441653817622"><ele>853.1666666666666</ele><time>2026-05-01T15:37:54Z</time></trkpt><trkpt lat="44.476239732983935" lon="6.272373142572456"><ele>853.3333333333333</ele><time>2026-05-01T15:37:55Z</time></trkpt><trkpt lat="44.47616450475169" lon="6.272316609034028"><ele>853.5</ele><time>2026-05-01T15:37:56Z</time></trkpt><trkpt lat="44.47611206612802" lon="6.27221764286207"><ele>853.6666666666667</ele><time>2026-05-01T15:37:57Z</time></trkpt><trkpt lat="44.4760548395209" lon="6.272115633637255"><ele>853.8333333333334</ele><time>2026-05-01T15:37:58Z</time></trkpt><trkpt lat="44.47600600861461" lon="6.272019415651238"><ele>854.0</ele><time>2026-05-01T15:37:59Z</time></trkpt><trkpt lat="44.47597707120854" lon="6.271927353531488"><ele>854.0000000000001</ele><time>2026-05-01T15:38:00Z</time></trkpt><trkpt lat="44.475949688796454" lon="6.271840515291357"><ele>854.0</ele><time>2026-05-01T15:38:01Z</time></trkpt><trkpt lat="44.47592243999664" lon="6.271753624902782"><ele>854.0</ele><time>2026-05-01T15:38:02Z</time></trkpt><trkpt lat="44.47589135571896" lon="6.271654045158609"><ele>854.0</ele><time>2026-05-01T15:38:03Z</time></trkpt><trkpt lat="44.47584509651374" lon="6.271495046965926"><ele>854.0000000000001</ele><time>2026-05-01T15:38:05Z</time></trkpt><trkpt lat="44.475803224711015" lon="6.271411910786314"><ele>854.0</ele><time>2026-05-01T15:38:06Z</time></trkpt><trkpt lat="44.475786696910035" lon="6.271295164310922"><ele>856.4000000000001</ele><time>2026-05-01T15:38:07Z</time></trkpt><trkpt lat="44.475750908455424" lon="6.271179557647028"><ele>858.8000000000001</ele><time>2026-05-01T15:38:08Z</time></trkpt><trkpt lat="44.475725530693474" lon="6.2710592677414"><ele>861.1999999999999</ele><time>2026-05-01T15:38:09Z</time></trkpt><trkpt lat="44.47569012284036" lon="6.270932309233787"><ele>863.5999999999999</ele><time>2026-05-01T15:38:10Z</time></trkpt><trkpt lat="44.47564413994495" lon="6.270800317233469"><ele>866.0</ele><time>2026-05-01T15:38:11Z</time></trkpt><trkpt lat="44.475590885878084" lon="6.2706430990518225"><ele>867.25</ele><time>2026-05-01T15:38:12Z</time></trkpt><trkpt lat="44.475531040605205" lon="6.270490957213202"><ele>868.5</ele><time>2026-05-01T15:38:13Z</time></trkpt><trkpt lat="44.47547800635321" lon="6.270317382129401"><ele>869.75</ele><time>2026-05-01T15:38:14Z</time></trkpt><trkpt lat="44.47541494835661" lon="6.270127494256178"><ele>871.0</ele><time>2026-05-01T15:38:15Z</time></trkpt><trkpt lat="44.47534885891653" lon="6.269941684534803"><ele>867.25</ele><time>2026-05-01T15:38:16Z</time></trkpt><trkpt lat="44.475286653009846" lon="6.269754440315452"><ele>863.5</ele><time>2026-05-01T15:38:17Z</time></trkpt><trkpt lat="44.47521065031835" lon="6.269574737294413"><ele>859.75</ele><time>2026-05-01T15:38:18Z</time></trkpt><trkpt lat="44.47512829680067" lon="6.269394782754068"><ele>856.0</ele><time>2026-05-01T15:38:19Z</time></trkpt><trkpt lat="44.475042097970274" lon="6.26924033332184"><ele>856.0</ele><time>2026-05-01T15:38:20Z</time></trkpt><trkpt lat="44.47495444072154" lon="6.269090533863623"><ele>856.0</ele><time>2026-05-01T15:38:21Z</time></trkpt><trkpt lat="44.47486222886535" lon="6.268932120210956"><ele>856.0</ele><time>2026-05-01T15:38:22Z</time></trkpt><trkpt lat="44.47477572299372" lon="6.2687701538708"><ele>856.0</ele><time>2026-05-01T15:38:23Z</time></trkpt><trkpt lat="44.47469425528954" lon="6.268617145926875"><ele>859.0</ele><time>2026-05-01T15:38:24Z</time></trkpt><trkpt lat="44.474625918404875" lon="6.268466051456812"><ele>862.0</ele><time>2026-05-01T15:38:25Z</time></trkpt><trkpt lat="44.47461120305036" lon="6.268280097960403"><ele>865.0</ele><time>2026-05-01T15:38:26Z</time></trkpt><trkpt lat="44.4746142352872" lon="6.268085752980903"><ele>868.0</ele><time>2026-05-01T15:38:27Z</time></trkpt><trkpt lat="44.47460335071225" lon="6.2678792068703055"><ele>857.6666666666666</ele><time>2026-05-01T15:38:28Z</time></trkpt><trkpt lat="44.47459812140847" lon="6.267666994439053"><ele>847.3333333333333</ele><time>2026-05-01T15:38:29Z</time></trkpt><trkpt lat="44.4745661226632" lon="6.267438445330926"><ele>837.0</ele><time>2026-05-01T15:38:30Z</time></trkpt><trkpt lat="44.47453311402658" lon="6.2672237817304906"><ele>837.0</ele><time>2026-05-01T15:38:31Z</time></trkpt><trkpt lat="44.47447475723733" lon="6.26698229703426"><ele>837.0</ele><time>2026-05-01T15:38:32Z</time></trkpt><trkpt lat="44.47440659036714" lon="6.266763926645033"><ele>837.0</ele><time>2026-05-01T15:38:33Z</time></trkpt><trkpt lat="44.47432545040548" lon="6.266559221771057"><ele>840.0</ele><time>2026-05-01T15:38:34Z</time></trkpt><trkpt lat="44.47423935039657" lon="6.26637217449938"><ele>843.0</ele><time>2026-05-01T15:38:35Z</time></trkpt><trkpt lat="44.47416102664176" lon="6.266196976800451"><ele>846.0</ele><time>2026-05-01T15:38:36Z</time></trkpt><trkpt lat="44.47407199908765" lon="6.266042167400702"><ele>849.0</ele><time>2026-05-01T15:38:37Z</time></trkpt><trkpt lat="44.47399119250348" lon="6.265894224108749"><ele>849.0</ele><time>2026-05-01T15:38:38Z</time></trkpt><trkpt lat="44.47393128897498" lon="6.26579365535357"><ele>849.0</ele><time>2026-05-01T15:38:39Z</time></trkpt><trkpt lat="44.47389198149396" lon="6.265663179020417"><ele>849.0</ele><time>2026-05-01T15:38:40Z</time></trkpt><trkpt lat="44.47387380094233" lon="6.265549742649301"><ele>849.0</ele><time>2026-05-01T15:38:41Z</time></trkpt><trkpt lat="44.4739267374214" lon="6.265416971089392"><ele>849.0</ele><time>2026-05-01T15:38:42Z</time></trkpt><trkpt lat="44.47395331363716" lon="6.265272743253532"><ele>846.2</ele><time>2026-05-01T15:38:43Z</time></trkpt><trkpt lat="44.47395605906818" lon="6.26512053343204"><ele>843.4000000000001</ele><time>2026-05-01T15:38:44Z</time></trkpt><trkpt lat="44.47392459961208" lon="6.265003938197622"><ele>840.6</ele><time>2026-05-01T15:38:45Z</time></trkpt><trkpt lat="44.47388617440226" lon="6.264865513750422"><ele>837.8</ele><time>2026-05-01T15:38:46Z</time></trkpt><trkpt lat="44.47380221673746" lon="6.264747344287209"><ele>835.0</ele><time>2026-05-01T15:38:47Z</time></trkpt><trkpt lat="44.47366497549135" lon="6.264657647210175"><ele>835.0</ele><time>2026-05-01T15:38:48Z</time></trkpt><trkpt lat="44.47355247285803" lon="6.264619570682459"><ele>835.0</ele><time>2026-05-01T15:38:49Z</time></trkpt><trkpt lat="44.47344241813756" lon="6.264535229172684"><ele>835.0</ele><time>2026-05-01T15:38:50Z</time></trkpt><trkpt lat="44.47337481421754" lon="6.264379560718626"><ele>835.0</ele><time>2026-05-01T15:38:51Z</time></trkpt><trkpt lat="44.47329277701455" lon="6.264223425284011"><ele>835.0</ele><time>2026-05-01T15:38:52Z</time></trkpt><trkpt lat="44.4731895026103" lon="6.264044782072271"><ele>835.0</ele><time>2026-05-01T15:38:53Z</time></trkpt><trkpt lat="44.473100359122306" lon="6.263839325742693"><ele>835.0</ele><time>2026-05-01T15:38:54Z</time></trkpt><trkpt lat="44.473013035157656" lon="6.26365973892403"><ele>833.5</ele><time>2026-05-01T15:38:55Z</time></trkpt><trkpt lat="44.47293564703456" lon="6.263495955854978"><ele>832.0</ele><time>2026-05-01T15:38:56Z</time></trkpt><trkpt lat="44.47284074574907" lon="6.2633335328564055"><ele>830.5</ele><time>2026-05-01T15:38:57Z</time></trkpt><trkpt lat="44.472749857962306" lon="6.263180608789884"><ele>829.0</ele><time>2026-05-01T15:38:58Z</time></trkpt><trkpt lat="44.47263892031452" lon="6.263046884958554"><ele>829.0</ele><time>2026-05-01T15:38:59Z</time></trkpt><trkpt lat="44.472534769878315" lon="6.262931303826709"><ele>829.0</ele><time>2026-05-01T15:39:00Z</time></trkpt><trkpt lat="44.47240291879764" lon="6.262881437876243"><ele>829.0</ele><time>2026-05-01T15:39:01Z</time></trkpt><trkpt lat="44.47230140064847" lon="6.2628301585554595"><ele>829.0</ele><time>2026-05-01T15:39:02Z</time></trkpt><trkpt lat="44.47222858705695" lon="6.262806156606916"><ele>828.9999999999999</ele><time>2026-05-01T15:39:03Z</time></trkpt><trkpt lat="44.47216548097003" lon="6.262792499724933"><ele>829.0</ele><time>2026-05-01T15:39:04Z</time></trkpt><trkpt lat="44.47208398442965" lon="6.262829558127413"><ele>829.0</ele><time>2026-05-01T15:39:05Z</time></trkpt><trkpt lat="44.47201853351603" lon="6.262934071682993"><ele>829.0</ele><time>2026-05-01T15:39:06Z</time></trkpt><trkpt lat="44.47200488791434" lon="6.263054046895816"><ele>828.9999999999999</ele><time>2026-05-01T15:39:07Z</time></trkpt><trkpt lat="44.47202641890154" lon="6.2631850287832185"><ele>829.0</ele><time>2026-05-01T15:39:08Z</time></trkpt><trkpt lat="44.47208985632166" lon="6.263290144650745"><ele>824.0</ele><time>2026-05-01T15:39:09Z</time></trkpt><trkpt lat="44.47214928787005" lon="6.263377279493329"><ele>819.0</ele><time>2026-05-01T15:39:10Z</time></trkpt><trkpt lat="44.47223000337563" lon="6.263507731434516"><ele>814.0</ele><time>2026-05-01T15:39:11Z</time></trkpt><trkpt lat="44.472330140154426" lon="6.26366079381553"><ele>809.0</ele><time>2026-05-01T15:39:12Z</time></trkpt><trkpt lat="44.47245062579616" lon="6.263830594638142"><ele>804.75</ele><time>2026-05-01T15:39:13Z</time></trkpt><trkpt lat="44.47256841544049" lon="6.263986083531237"><ele>800.5</ele><time>2026-05-01T15:39:14Z</time></trkpt><trkpt lat="44.47266557195724" lon="6.264114336008084"><ele>796.25</ele><time>2026-05-01T15:39:15Z</time></trkpt><trkpt lat="44.472752184454265" lon="6.26419382080682"><ele>792.0</ele><time>2026-05-01T15:39:16Z</time></trkpt><trkpt lat="44.47284365627979" lon="6.264278770493927"><ele>792.0</ele><time>2026-05-01T15:39:17Z</time></trkpt><trkpt lat="44.47289198729885" lon="6.264379494557195"><ele>792.0</ele><time>2026-05-01T15:39:18Z</time></trkpt><trkpt lat="44.47292952868389" lon="6.264450488108757"><ele>792.0</ele><time>2026-05-01T15:39:19Z</time></trkpt><trkpt lat="44.47283150201775" lon="6.264534947898852"><ele>792.0</ele><time>2026-05-01T15:39:20Z</time></trkpt><trkpt lat="44.472714555916845" lon="6.264549272754995"><ele>792.0</ele><time>2026-05-01T15:39:21Z</time></trkpt><trkpt lat="44.47262351707098" lon="6.264529989570421"><ele>792.0</ele><time>2026-05-01T15:39:22Z</time></trkpt><trkpt lat="44.47256392599598" lon="6.26439431230162"><ele>792.0</ele><time>2026-05-01T15:39:23Z</time></trkpt><trkpt lat="44.47245356216908" lon="6.264317527946115"><ele>792.0</ele><time>2026-05-01T15:39:24Z</time></trkpt><trkpt lat="44.472331018526496" lon="6.264232066362338"><ele>792.0</ele><time>2026-05-01T15:39:25Z</time></trkpt><trkpt lat="44.47222896473334" lon="6.264129892375237"><ele>792.0</ele><time>2026-05-01T15:39:26Z</time></trkpt><trkpt lat="44.47216079552178" lon="6.263994089599074"><ele>792.0</ele><time>2026-05-01T15:39:27Z</time></trkpt><trkpt lat="44.472082874787986" lon="6.263825948205653"><ele>792.0</ele><time>2026-05-01T15:39:28Z</time></trkpt><trkpt lat="44.47200422343469" lon="6.263648247880493"><ele>792.0</ele><time>2026-05-01T15:39:28.999Z</time></trkpt><trkpt lat="44.47192975787742" lon="6.263481267092093"><ele>789.5</ele><time>2026-05-01T15:39:29.999Z</time></trkpt><trkpt lat="44.47183374217386" lon="6.263349379876589"><ele>787.0</ele><time>2026-05-01T15:39:30.999Z</time></trkpt><trkpt lat="44.471700939559675" lon="6.263270938267973"><ele>784.5</ele><time>2026-05-01T15:39:31.999Z</time></trkpt><trkpt lat="44.47159006344533" lon="6.263168506746442"><ele>782.0</ele><time>2026-05-01T15:39:32.999Z</time></trkpt><trkpt lat="44.47149831874732" lon="6.263055987784864"><ele>787.75</ele><time>2026-05-01T15:39:33.999Z</time></trkpt><trkpt lat="44.471410207402194" lon="6.2629134522956145"><ele>793.5</ele><time>2026-05-01T15:39:34.999Z</time></trkpt><trkpt lat="44.47133734834491" lon="6.2627470867001085"><ele>799.25</ele><time>2026-05-01T15:39:35.999Z</time></trkpt><trkpt lat="44.47128348310915" lon="6.26255231735238"><ele>805.0</ele><time>2026-05-01T15:39:36.999Z</time></trkpt><trkpt lat="44.471269311030234" lon="6.262362789356719"><ele>800.8</ele><time>2026-05-01T15:39:37.999Z</time></trkpt><trkpt lat="44.47122718076145" lon="6.262200842669591"><ele>796.6</ele><time>2026-05-01T15:39:38.999Z</time></trkpt><trkpt lat="44.47119946778917" lon="6.262056993409398"><ele>792.4000000000001</ele><time>2026-05-01T15:39:39.999Z</time></trkpt><trkpt lat="44.4711444883796" lon="6.2619293191187175"><ele>788.2</ele><time>2026-05-01T15:39:41.999Z</time></trkpt><trkpt lat="44.4710889684552" lon="6.261885217801426"><ele>784.0</ele><time>2026-05-01T15:39:42.999Z</time></trkpt><trkpt lat="44.47102492177604" lon="6.26190504961153"><ele>784.0</ele><time>2026-05-01T15:39:43.999Z</time></trkpt><trkpt lat="44.47099673878822" lon="6.26199553138713"><ele>784.0</ele><time>2026-05-01T15:39:44.999Z</time></trkpt><trkpt lat="44.470997835094586" lon="6.2622236484042615"><ele>784.0</ele><time>2026-05-01T15:39:46.999Z</time></trkpt><trkpt lat="44.471069711366724" lon="6.262494640415012"><ele>784.0</ele><time>2026-05-01T15:39:48Z</time></trkpt><trkpt lat="44.471100736427246" lon="6.262673917161703"><ele>777.75</ele><time>2026-05-01T15:39:49Z</time></trkpt><trkpt lat="44.47115781241516" lon="6.262825627424645"><ele>771.5</ele><time>2026-05-01T15:39:50Z</time></trkpt><trkpt lat="44.471164739619" lon="6.263012888889397"><ele>765.25</ele><time>2026-05-01T15:39:51Z</time></trkpt><trkpt lat="44.47116043063887" lon="6.2631874510740575"><ele>759.0</ele><time>2026-05-01T15:39:52Z</time></trkpt><trkpt lat="44.471148850205076" lon="6.263337660447488"><ele>758.0</ele><time>2026-05-01T15:39:53Z</time></trkpt><trkpt lat="44.471075729461845" lon="6.2634938762230075"><ele>757.0</ele><time>2026-05-01T15:39:54Z</time></trkpt><trkpt lat="44.47097428169762" lon="6.263610236404689"><ele>756.0</ele><time>2026-05-01T15:39:55Z</time></trkpt><trkpt lat="44.47086607753659" lon="6.26374133019573"><ele>755.0</ele><time>2026-05-01T15:39:56Z</time></trkpt><trkpt lat="44.47073190772227" lon="6.263893427911934"><ele>753.6666666666666</ele><time>2026-05-01T15:39:57Z</time></trkpt><trkpt lat="44.47055310272031" lon="6.264091384510065"><ele>752.3333333333334</ele><time>2026-05-01T15:39:58Z</time></trkpt><trkpt lat="44.47040748989665" lon="6.264248299342763"><ele>751.0</ele><time>2026-05-01T15:39:59Z</time></trkpt><trkpt lat="44.470256542310835" lon="6.264409210434435"><ele>750.3333333333334</ele><time>2026-05-01T15:40:00Z</time></trkpt><trkpt lat="44.470117266770515" lon="6.2645660541647645"><ele>749.6666666666666</ele><time>2026-05-01T15:40:01Z</time></trkpt><trkpt lat="44.469982393056426" lon="6.264717363362601"><ele>749.0</ele><time>2026-05-01T15:40:02Z</time></trkpt><trkpt lat="44.46985207042444" lon="6.26487260247961"><ele>749.0</ele><time>2026-05-01T15:40:03Z</time></trkpt><trkpt lat="44.469731410387396" lon="6.264989471349448"><ele>749.0</ele><time>2026-05-01T15:40:04Z</time></trkpt><trkpt lat="44.4696163319431" lon="6.265076643068166"><ele>749.0</ele><time>2026-05-01T15:40:05Z</time></trkpt><trkpt lat="44.469551418111024" lon="6.265205263674088"><ele>749.0</ele><time>2026-05-01T15:40:06Z</time></trkpt><trkpt lat="44.46954008613987" lon="6.265420150277432"><ele>743.75</ele><time>2026-05-01T15:40:08Z</time></trkpt><trkpt lat="44.46956930904976" lon="6.2655647058043105"><ele>738.5</ele><time>2026-05-01T15:40:09Z</time></trkpt><trkpt lat="44.469635404923174" lon="6.265771253435738"><ele>733.25</ele><time>2026-05-01T15:40:10Z</time></trkpt><trkpt lat="44.469754760492926" lon="6.265877276061915"><ele>728.0</ele><time>2026-05-01T15:40:11Z</time></trkpt><trkpt lat="44.469832948881184" lon="6.26592893905394"><ele>728.0</ele><time>2026-05-01T15:40:12Z</time></trkpt><trkpt lat="44.469904794460106" lon="6.265983409562321"><ele>728.0</ele><time>2026-05-01T15:40:13Z</time></trkpt><trkpt lat="44.47004359786659" lon="6.265947006798721"><ele>728.0</ele><time>2026-05-01T15:40:14Z</time></trkpt><trkpt lat="44.470162433199114" lon="6.265910933156522"><ele>728.0</ele><time>2026-05-01T15:40:15Z</time></trkpt><trkpt lat="44.47044257414842" lon="6.265847044127426"><ele>726.75</ele><time>2026-05-01T15:40:16Z</time></trkpt><trkpt lat="44.470591367876075" lon="6.265772189200178"><ele>725.5</ele><time>2026-05-01T15:40:17Z</time></trkpt><trkpt lat="44.47073403233115" lon="6.265735272657012"><ele>724.25</ele><time>2026-05-01T15:40:18Z</time></trkpt><trkpt lat="44.47083726644285" lon="6.265651301995947"><ele>723.0</ele><time>2026-05-01T15:40:19Z</time></trkpt><trkpt lat="44.47093242302123" lon="6.265546179245408"><ele>727.5</ele><time>2026-05-01T15:40:20Z</time></trkpt><trkpt lat="44.47101623759243" lon="6.265437461704213"><ele>732.0</ele><time>2026-05-01T15:40:21Z</time></trkpt><trkpt lat="44.47106941943475" lon="6.265288351798139"><ele>736.5</ele><time>2026-05-01T15:40:22Z</time></trkpt><trkpt lat="44.471092461400396" lon="6.265068819204351"><ele>741.0</ele><time>2026-05-01T15:40:23Z</time></trkpt><trkpt lat="44.47114947036434" lon="6.265016039012797"><ele>741.0</ele><time>2026-05-01T15:40:24Z</time></trkpt><trkpt lat="44.47119910421023" lon="6.264949090450374"><ele>741.0</ele><time>2026-05-01T15:40:25Z</time></trkpt><trkpt lat="44.47127103945144" lon="6.2649347006931"><ele>741.0</ele><time>2026-05-01T15:40:26Z</time></trkpt><trkpt lat="44.471406728131015" lon="6.265048133643348"><ele>741.0</ele><time>2026-05-01T15:40:28Z</time></trkpt><trkpt lat="44.47143618639246" lon="6.265264833323403"><ele>741.0</ele><time>2026-05-01T15:40:30Z</time></trkpt><trkpt lat="44.4713518608692" lon="6.265365973017251"><ele>741.0</ele><time>2026-05-01T15:40:31Z</time></trkpt><trkpt lat="44.471280283000425" lon="6.265467905765602"><ele>741.0</ele><time>2026-05-01T15:40:32Z</time></trkpt><trkpt lat="44.47119918018263" lon="6.265582271087061"><ele>741.0</ele><time>2026-05-01T15:40:33Z</time></trkpt><trkpt lat="44.471110599581095" lon="6.265710903976653"><ele>736.5</ele><time>2026-05-01T15:40:34Z</time></trkpt><trkpt lat="44.47101439304796" lon="6.265850642493496"><ele>732.0</ele><time>2026-05-01T15:40:35Z</time></trkpt><trkpt lat="44.47089690858117" lon="6.265993127983263"><ele>727.5</ele><time>2026-05-01T15:40:36Z</time></trkpt><trkpt lat="44.470810348525525" lon="6.266043263235223"><ele>723.0</ele><time>2026-05-01T15:40:37Z</time></trkpt><trkpt lat="44.47071404442653" lon="6.266048594174917"><ele>723.0</ele><time>2026-05-01T15:40:38Z</time></trkpt><trkpt lat="44.470565321094945" lon="6.266006631272665"><ele>723.0</ele><time>2026-05-01T15:40:39Z</time></trkpt><trkpt lat="44.4704456655232" lon="6.26603840358927"><ele>723.0</ele><time>2026-05-01T15:40:40Z</time></trkpt><trkpt lat="44.47032587338216" lon="6.266095936138593"><ele>723.0</ele><time>2026-05-01T15:40:41Z</time></trkpt><trkpt lat="44.470216731205156" lon="6.2661479783967895"><ele>724.25</ele><time>2026-05-01T15:40:42Z</time></trkpt><trkpt lat="44.47006931051855" lon="6.266216287316494"><ele>725.5</ele><time>2026-05-01T15:40:43Z</time></trkpt><trkpt lat="44.46994856791511" lon="6.266288642030009"><ele>726.75</ele><time>2026-05-01T15:40:44Z</time></trkpt><trkpt lat="44.46981363328028" lon="6.266333623103491"><ele>728.0</ele><time>2026-05-01T15:40:45Z</time></trkpt><trkpt lat="44.46968688231981" lon="6.266386807170511"><ele>720.25</ele><time>2026-05-01T15:40:46Z</time></trkpt><trkpt lat="44.46956303171357" lon="6.266458465029624"><ele>712.5</ele><time>2026-05-01T15:40:47Z</time></trkpt><trkpt lat="44.469442159812985" lon="6.266549246548391"><ele>704.75</ele><time>2026-05-01T15:40:48Z</time></trkpt><trkpt lat="44.469363819757405" lon="6.266658631767793"><ele>697.0</ele><time>2026-05-01T15:40:49Z</time></trkpt><trkpt lat="44.46928861802157" lon="6.266785336091877"><ele>697.0</ele><time>2026-05-01T15:40:50Z</time></trkpt><trkpt lat="44.46923786118932" lon="6.266878375252326"><ele>697.0</ele><time>2026-05-01T15:40:51Z</time></trkpt><trkpt lat="44.46916748888361" lon="6.2669606847347445"><ele>697.0</ele><time>2026-05-01T15:40:52Z</time></trkpt><trkpt lat="44.46905250539585" lon="6.266937723311273"><ele>697.0</ele><time>2026-05-01T15:40:54Z</time></trkpt><trkpt lat="44.4689995473053" lon="6.266836657662063"><ele>697.0</ele><time>2026-05-01T15:40:55Z</time></trkpt><trkpt lat="44.46903137800243" lon="6.266710975115282"><ele>697.0</ele><time>2026-05-01T15:40:56Z</time></trkpt><trkpt lat="44.46900694522853" lon="6.26656756861445"><ele>697.0</ele><time>2026-05-01T15:40:57Z</time></trkpt><trkpt lat="44.468981207816626" lon="6.26641650680114"><ele>697.0</ele><time>2026-05-01T15:40:58Z</time></trkpt><trkpt lat="44.46895279462987" lon="6.266249739147539"><ele>697.0</ele><time>2026-05-01T15:40:59Z</time></trkpt><trkpt lat="44.46891290044154" lon="6.2660169009432725"><ele>701.25</ele><time>2026-05-01T15:41:00Z</time></trkpt><trkpt lat="44.468865759980616" lon="6.265828544316828"><ele>705.5</ele><time>2026-05-01T15:41:01Z</time></trkpt><trkpt lat="44.46886874380359" lon="6.265631854997975"><ele>709.75</ele><time>2026-05-01T15:41:02Z</time></trkpt><trkpt lat="44.468854341103345" lon="6.2654432774471145"><ele>714.0</ele><time>2026-05-01T15:41:03Z</time></trkpt><trkpt lat="44.46884294592539" lon="6.265224461234479"><ele>713.3333333333334</ele><time>2026-05-01T15:41:04Z</time></trkpt><trkpt lat="44.468855615844596" lon="6.264991735290641"><ele>712.6666666666667</ele><time>2026-05-01T15:41:05Z</time></trkpt><trkpt lat="44.46888109093199" lon="6.26478017782418"><ele>712.0</ele><time>2026-05-01T15:41:06Z</time></trkpt><trkpt lat="44.46891662003976" lon="6.264571112936661"><ele>712.0</ele><time>2026-05-01T15:41:07Z</time></trkpt><trkpt lat="44.46895516988732" lon="6.264366871022053"><ele>712.0</ele><time>2026-05-01T15:41:08Z</time></trkpt><trkpt lat="44.46899595456108" lon="6.264151083545046"><ele>712.0</ele><time>2026-05-01T15:41:09Z</time></trkpt><trkpt lat="44.46903586116758" lon="6.2639420733407425"><ele>708.25</ele><time>2026-05-01T15:41:10Z</time></trkpt><trkpt lat="44.469070388098004" lon="6.263758520409258"><ele>704.5</ele><time>2026-05-01T15:41:11Z</time></trkpt><trkpt lat="44.469100550080405" lon="6.2635892707241725"><ele>700.75</ele><time>2026-05-01T15:41:12Z</time></trkpt><trkpt lat="44.46912191978272" lon="6.263382706350234"><ele>697.0</ele><time>2026-05-01T15:41:13Z</time></trkpt><trkpt lat="44.46910544934268" lon="6.263233467600161"><ele>695.5</ele><time>2026-05-01T15:41:14Z</time></trkpt><trkpt lat="44.469095010420986" lon="6.263033690190072"><ele>694.0</ele><time>2026-05-01T15:41:14.999Z</time></trkpt><trkpt lat="44.469072764472266" lon="6.262854737552391"><ele>692.5</ele><time>2026-05-01T15:41:15.999Z</time></trkpt><trkpt lat="44.46903504311266" lon="6.262665436868205"><ele>691.0</ele><time>2026-05-01T15:41:16.999Z</time></trkpt><trkpt lat="44.46897581184908" lon="6.26247381701717"><ele>691.0</ele><time>2026-05-01T15:41:17.999Z</time></trkpt><trkpt lat="44.46890102966011" lon="6.26229342443869"><ele>691.0</ele><time>2026-05-01T15:41:18.999Z</time></trkpt><trkpt lat="44.4688302571668" lon="6.262118325991472"><ele>691.0</ele><time>2026-05-01T15:41:19.999Z</time></trkpt><trkpt lat="44.46875876688893" lon="6.261979634594804"><ele>691.0</ele><time>2026-05-01T15:41:20.999Z</time></trkpt><trkpt lat="44.46871056255286" lon="6.261832581850011"><ele>687.0</ele><time>2026-05-01T15:41:21.999Z</time></trkpt><trkpt lat="44.468660916491984" lon="6.261694791506683"><ele>683.0</ele><time>2026-05-01T15:41:22.999Z</time></trkpt><trkpt lat="44.46867269217591" lon="6.261534111419685"><ele>679.0</ele><time>2026-05-01T15:41:23.999Z</time></trkpt><trkpt lat="44.46867207870771" lon="6.261344380196389"><ele>675.0</ele><time>2026-05-01T15:41:24.999Z</time></trkpt><trkpt lat="44.468664179689725" lon="6.261156209591134"><ele>674.5</ele><time>2026-05-01T15:41:25.999Z</time></trkpt><trkpt lat="44.46867394804306" lon="6.260968241458202"><ele>674.0</ele><time>2026-05-01T15:41:26.999Z</time></trkpt><trkpt lat="44.4686828667613" lon="6.260799628836605"><ele>673.5</ele><time>2026-05-01T15:41:27.999Z</time></trkpt><trkpt lat="44.468678591852786" lon="6.260591510611028"><ele>673.0</ele><time>2026-05-01T15:41:28.999Z</time></trkpt><trkpt lat="44.46866045165578" lon="6.260402754993057"><ele>672.75</ele><time>2026-05-01T15:41:29.999Z</time></trkpt><trkpt lat="44.46864598836863" lon="6.260213538753295"><ele>672.5</ele><time>2026-05-01T15:41:30.999Z</time></trkpt><trkpt lat="44.468630850024084" lon="6.260027961811926"><ele>672.25</ele><time>2026-05-01T15:41:31.999Z</time></trkpt><trkpt lat="44.46861026621589" lon="6.259856521644937"><ele>672.0</ele><time>2026-05-01T15:41:32.999Z</time></trkpt><trkpt lat="44.46863114380317" lon="6.259680392417112"><ele>672.0</ele><time>2026-05-01T15:41:33.999Z</time></trkpt><trkpt lat="44.46864214737072" lon="6.259511301387825"><ele>672.0</ele><time>2026-05-01T15:41:34.999Z</time></trkpt><trkpt lat="44.46862961893507" lon="6.259307592586093"><ele>672.0</ele><time>2026-05-01T15:41:35.999Z</time></trkpt><trkpt lat="44.46860889471925" lon="6.259116953652943"><ele>672.0</ele><time>2026-05-01T15:41:36.999Z</time></trkpt><trkpt lat="44.46857226739502" lon="6.258890703381456"><ele>677.5</ele><time>2026-05-01T15:41:37.999Z</time></trkpt><trkpt lat="44.4685114294327" lon="6.2585911160630605"><ele>683.0</ele><time>2026-05-01T15:41:38.999Z</time></trkpt><trkpt lat="44.468373151159994" lon="6.2581662029778595"><ele>688.0</ele><time>2026-05-01T15:41:39.999Z</time></trkpt><trkpt lat="44.468287786242364" lon="6.257836113865125"><ele>693.0</ele><time>2026-05-01T15:41:40.999Z</time></trkpt><trkpt lat="44.46821433908451" lon="6.257548517134538"><ele>697.5</ele><time>2026-05-01T15:41:41.999Z</time></trkpt><trkpt lat="44.468121241070094" lon="6.257233175591985"><ele>702.0</ele><time>2026-05-01T15:41:42.999Z</time></trkpt><trkpt lat="44.46804375281999" lon="6.256941105569337"><ele>702.0</ele><time>2026-05-01T15:41:43.999Z</time></trkpt><trkpt lat="44.467973044888836" lon="6.2566822065171115"><ele>702.0</ele><time>2026-05-01T15:41:44.999Z</time></trkpt><trkpt lat="44.467900888685556" lon="6.256414450128258"><ele>702.0</ele><time>2026-05-01T15:41:45.999Z</time></trkpt><trkpt lat="44.467861596429174" lon="6.25612709904302"><ele>683.0</ele><time>2026-05-01T15:41:46.999Z</time></trkpt><trkpt lat="44.46782424821603" lon="6.25580193417668"><ele>664.0</ele><time>2026-05-01T15:41:47.999Z</time></trkpt><trkpt lat="44.467771565594575" lon="6.255476851624669"><ele>664.0</ele><time>2026-05-01T15:41:48.999Z</time></trkpt><trkpt lat="44.467748726058616" lon="6.25514783778438"><ele>664.0</ele><time>2026-05-01T15:41:49.999Z</time></trkpt><trkpt lat="44.46769937289217" lon="6.254852263001255"><ele>665.3333333333334</ele><time>2026-05-01T15:41:50.999Z</time></trkpt><trkpt lat="44.46767271289299" lon="6.254545367678032"><ele>666.6666666666666</ele><time>2026-05-01T15:41:51.999Z</time></trkpt><trkpt lat="44.46764847619035" lon="6.2542407695539675"><ele>668.0</ele><time>2026-05-01T15:41:52.999Z</time></trkpt><trkpt lat="44.467617898559915" lon="6.253934447755455"><ele>671.6666666666666</ele><time>2026-05-01T15:41:54Z</time></trkpt><trkpt lat="44.46758213967005" lon="6.253615358484454"><ele>675.3333333333334</ele><time>2026-05-01T15:41:55Z</time></trkpt><trkpt lat="44.46754882615503" lon="6.2533245752053634"><ele>679.0</ele><time>2026-05-01T15:41:56Z</time></trkpt><trkpt lat="44.467520788293115" lon="6.253017262070553"><ele>681.0</ele><time>2026-05-01T15:41:57Z</time></trkpt><trkpt lat="44.46746133616082" lon="6.252717407248885"><ele>683.0</ele><time>2026-05-01T15:41:58Z</time></trkpt><trkpt lat="44.46742559092027" lon="6.252411369999195"><ele>685.0</ele><time>2026-05-01T15:41:59Z</time></trkpt><trkpt lat="44.46738221195347" lon="6.252118329015261"><ele>689.0</ele><time>2026-05-01T15:42:00Z</time></trkpt><trkpt lat="44.46733860538861" lon="6.251809970889535"><ele>693.0</ele><time>2026-05-01T15:42:01Z</time></trkpt><trkpt lat="44.46728394663296" lon="6.251531247446668"><ele>697.0</ele><time>2026-05-01T15:42:02Z</time></trkpt><trkpt lat="44.46722398957385" lon="6.251227005571022"><ele>702.5</ele><time>2026-05-01T15:42:03Z</time></trkpt><trkpt lat="44.467128935115156" lon="6.2508987304076085"><ele>708.0</ele><time>2026-05-01T15:42:04Z</time></trkpt><trkpt lat="44.467010939382945" lon="6.250612132057005"><ele>695.6666666666666</ele><time>2026-05-01T15:42:05Z</time></trkpt><trkpt lat="44.46691611358825" lon="6.250337106290949"><ele>683.3333333333333</ele><time>2026-05-01T15:42:06Z</time></trkpt><trkpt lat="44.46682350674337" lon="6.2500675546721185"><ele>671.0</ele><time>2026-05-01T15:42:07Z</time></trkpt><trkpt lat="44.466726949851946" lon="6.24982227011641"><ele>672.3333333333333</ele><time>2026-05-01T15:42:08Z</time></trkpt><trkpt lat="44.46667305448953" lon="6.249547146852871"><ele>673.6666666666666</ele><time>2026-05-01T15:42:09Z</time></trkpt><trkpt lat="44.46661843813545" lon="6.249252361501604"><ele>675.0</ele><time>2026-05-01T15:42:10Z</time></trkpt><trkpt lat="44.466558272473264" lon="6.248932741390762"><ele>675.0</ele><time>2026-05-01T15:42:11Z</time></trkpt><trkpt lat="44.466500769507014" lon="6.24862726638755"><ele>675.0</ele><time>2026-05-01T15:42:12Z</time></trkpt><trkpt lat="44.4664405902174" lon="6.2483075736262865"><ele>677.0</ele><time>2026-05-01T15:42:13Z</time></trkpt><trkpt lat="44.46636102673478" lon="6.247969771014856"><ele>679.0</ele><time>2026-05-01T15:42:14Z</time></trkpt><trkpt lat="44.46631485173662" lon="6.24763960898632"><ele>673.6666666666667</ele><time>2026-05-01T15:42:15Z</time></trkpt><trkpt lat="44.46625521648577" lon="6.247323094876182"><ele>668.3333333333334</ele><time>2026-05-01T15:42:16Z</time></trkpt><trkpt lat="44.466201484110414" lon="6.247035650634625"><ele>663.0</ele><time>2026-05-01T15:42:17Z</time></trkpt><trkpt lat="44.46614135159838" lon="6.2467534443174735"><ele>663.0</ele><time>2026-05-01T15:42:18Z</time></trkpt><trkpt lat="44.466127087014506" lon="6.246541965402941"><ele>663.0</ele><time>2026-05-01T15:42:19Z</time></trkpt><trkpt lat="44.466128596664646" lon="6.246269463163336"><ele>663.0</ele><time>2026-05-01T15:42:20Z</time></trkpt><trkpt lat="44.46615982784887" lon="6.24598018025697"><ele>663.0</ele><time>2026-05-01T15:42:21Z</time></trkpt><trkpt lat="44.46616493813858" lon="6.245661271345697"><ele>663.0</ele><time>2026-05-01T15:42:22Z</time></trkpt><trkpt lat="44.4661943376397" lon="6.245347170813055"><ele>663.0</ele><time>2026-05-01T15:42:23Z</time></trkpt><trkpt lat="44.46623992813131" lon="6.245040591423558"><ele>663.0</ele><time>2026-05-01T15:42:24Z</time></trkpt><trkpt lat="44.466290582891226" lon="6.24470161276956"><ele>670.6666666666666</ele><time>2026-05-01T15:42:25Z</time></trkpt><trkpt lat="44.466317573865624" lon="6.244382610171338"><ele>678.3333333333333</ele><time>2026-05-01T15:42:26Z</time></trkpt><trkpt lat="44.46633810543786" lon="6.244087043108748"><ele>686.0</ele><time>2026-05-01T15:42:27Z</time></trkpt><trkpt lat="44.466351669456046" lon="6.243794136953189"><ele>686.0</ele><time>2026-05-01T15:42:28Z</time></trkpt><trkpt lat="44.466368192108405" lon="6.243520219941002"><ele>686.0</ele><time>2026-05-01T15:42:29Z</time></trkpt><trkpt lat="44.46640121925027" lon="6.243236995464287"><ele>686.0</ele><time>2026-05-01T15:42:30Z</time></trkpt><trkpt lat="44.46643432856585" lon="6.242930143129164"><ele>684.6666666666666</ele><time>2026-05-01T15:42:31Z</time></trkpt><trkpt lat="44.46644611183925" lon="6.242615055944194"><ele>683.3333333333334</ele><time>2026-05-01T15:42:32Z</time></trkpt><trkpt lat="44.466465347731095" lon="6.242306995961608"><ele>682.0</ele><time>2026-05-01T15:42:33Z</time></trkpt><trkpt lat="44.466476328127" lon="6.242016981442615"><ele>680.3333333333334</ele><time>2026-05-01T15:42:34Z</time></trkpt><trkpt lat="44.46650461043092" lon="6.241724423891731"><ele>678.6666666666666</ele><time>2026-05-01T15:42:35Z</time></trkpt><trkpt lat="44.46652573742046" lon="6.2414499059559265"><ele>677.0</ele><time>2026-05-01T15:42:36Z</time></trkpt><trkpt lat="44.46655015001358" lon="6.241165294564754"><ele>676.0</ele><time>2026-05-01T15:42:37Z</time></trkpt><trkpt lat="44.466527591961466" lon="6.240880553012944"><ele>675.0</ele><time>2026-05-01T15:42:38Z</time></trkpt><trkpt lat="44.4665091486714" lon="6.240611586417536"><ele>674.0</ele><time>2026-05-01T15:42:39Z</time></trkpt><trkpt lat="44.4664603548504" lon="6.240331236411386"><ele>676.6666666666666</ele><time>2026-05-01T15:42:40Z</time></trkpt><trkpt lat="44.466405568171886" lon="6.24006543699132"><ele>679.3333333333334</ele><time>2026-05-01T15:42:41Z</time></trkpt><trkpt lat="44.46634733168512" lon="6.239785176554192"><ele>682.0</ele><time>2026-05-01T15:42:42Z</time></trkpt><trkpt lat="44.46627216490789" lon="6.239486771348776"><ele>672.0</ele><time>2026-05-01T15:42:43Z</time></trkpt><trkpt lat="44.46619230204734" lon="6.239194375603533"><ele>662.0</ele><time>2026-05-01T15:42:44Z</time></trkpt><trkpt lat="44.4660845904836" lon="6.238895621594651"><ele>662.0</ele><time>2026-05-01T15:42:45Z</time></trkpt><trkpt lat="44.465993117501036" lon="6.23859231642178"><ele>662.0</ele><time>2026-05-01T15:42:46Z</time></trkpt><trkpt lat="44.46591675474618" lon="6.2383176526317605"><ele>662.0</ele><time>2026-05-01T15:42:47Z</time></trkpt><trkpt lat="44.465876839099224" lon="6.238032938020441"><ele>662.0</ele><time>2026-05-01T15:42:48Z</time></trkpt><trkpt lat="44.465818927568" lon="6.237731249459266"><ele>662.0</ele><time>2026-05-01T15:42:49Z</time></trkpt><trkpt lat="44.465770397416705" lon="6.237466541808748"><ele>662.0</ele><time>2026-05-01T15:42:50Z</time></trkpt><trkpt lat="44.46571187861307" lon="6.237233190005273"><ele>662.6666666666666</ele><time>2026-05-01T15:42:51Z</time></trkpt><trkpt lat="44.46566018456607" lon="6.236992008022422"><ele>663.3333333333334</ele><time>2026-05-01T15:42:52Z</time></trkpt><trkpt lat="44.46559921254595" lon="6.236753637961865"><ele>664.0</ele><time>2026-05-01T15:42:53Z</time></trkpt><trkpt lat="44.46554992148988" lon="6.236522407541107"><ele>664.6666666666667</ele><time>2026-05-01T15:42:54Z</time></trkpt><trkpt lat="44.465503787157985" lon="6.236304722054104"><ele>665.3333333333334</ele><time>2026-05-01T15:42:55Z</time></trkpt><trkpt lat="44.465468146987924" lon="6.236093943425853"><ele>666.0</ele><time>2026-05-01T15:42:56Z</time></trkpt><trkpt lat="44.4654259611859" lon="6.235913658632375"><ele>665.0</ele><time>2026-05-01T15:42:57Z</time></trkpt><trkpt lat="44.46539388253951" lon="6.235733774836156"><ele>664.0</ele><time>2026-05-01T15:42:58Z</time></trkpt><trkpt lat="44.46534879065559" lon="6.23555921836138"><ele>663.0</ele><time>2026-05-01T15:42:59Z</time></trkpt><trkpt lat="44.46533157613739" lon="6.235416311347343"><ele>662.0</ele><time>2026-05-01T15:43:00Z</time></trkpt><trkpt lat="44.465306967545686" lon="6.235314005622322"><ele>661.0</ele><time>2026-05-01T15:43:01Z</time></trkpt><trkpt lat="44.46527890772292" lon="6.235201441477608"><ele>661.0</ele><time>2026-05-01T15:43:02Z</time></trkpt><trkpt lat="44.465256525531714" lon="6.2351168119821665"><ele>661.0</ele><time>2026-05-01T15:43:03Z</time></trkpt><trkpt lat="44.465244138070275" lon="6.23502950530457"><ele>661.0</ele><time>2026-05-01T15:43:05Z</time></trkpt><trkpt lat="44.46521471482377" lon="6.234916844569804"><ele>661.0</ele><time>2026-05-01T15:43:11Z</time></trkpt><trkpt lat="44.46521127088085" lon="6.23474265238402"><ele>661.0</ele><time>2026-05-01T15:43:13Z</time></trkpt><trkpt lat="44.46521157304583" lon="6.234635831345362"><ele>661.0</ele><time>2026-05-01T15:43:14Z</time></trkpt><trkpt lat="44.46523502385639" lon="6.2345377476125465"><ele>661.0</ele><time>2026-05-01T15:43:15Z</time></trkpt><trkpt lat="44.46525203007103" lon="6.234446441606606"><ele>661.0</ele><time>2026-05-01T15:43:16Z</time></trkpt><trkpt lat="44.46527623033929" lon="6.234347830152585"><ele>661.0</ele><time>2026-05-01T15:43:17Z</time></trkpt><trkpt lat="44.46527716189423" lon="6.234248870976365"><ele>661.0</ele><time>2026-05-01T15:43:18Z</time></trkpt><trkpt lat="44.46529035320377" lon="6.234149111149402"><ele>661.0</ele><time>2026-05-01T15:43:19Z</time></trkpt><trkpt lat="44.4652984653615" lon="6.234053849710258"><ele>661.0</ele><time>2026-05-01T15:43:20Z</time></trkpt><trkpt lat="44.46530665484034" lon="6.233890668585718"><ele>661.4</ele><time>2026-05-01T15:43:22Z</time></trkpt><trkpt lat="44.46530035155518" lon="6.233767847777365"><ele>661.8</ele><time>2026-05-01T15:43:23Z</time></trkpt><trkpt lat="44.46530413396452" lon="6.2336549635987115"><ele>662.1999999999999</ele><time>2026-05-01T15:43:24Z</time></trkpt><trkpt lat="44.46530626387439" lon="6.233535499799395"><ele>662.5999999999999</ele><time>2026-05-01T15:43:25Z</time></trkpt><trkpt lat="44.465302048704885" lon="6.233378623270334"><ele>663.0</ele><time>2026-05-01T15:43:26Z</time></trkpt><trkpt lat="44.46529713706239" lon="6.23323857793628"><ele>663.4</ele><time>2026-05-01T15:43:27Z</time></trkpt><trkpt lat="44.46526422665733" lon="6.233071404701478"><ele>663.8</ele><time>2026-05-01T15:43:27.999Z</time></trkpt><trkpt lat="44.46525709621729" lon="6.232924764763262"><ele>664.2</ele><time>2026-05-01T15:43:28.999Z</time></trkpt><trkpt lat="44.46523614503763" lon="6.232780936220274"><ele>664.6</ele><time>2026-05-01T15:43:29.999Z</time></trkpt><trkpt lat="44.46521491608051" lon="6.232659095461125"><ele>665.0</ele><time>2026-05-01T15:43:30.999Z</time></trkpt><trkpt lat="44.4651992341998" lon="6.232551192222151"><ele>665.0</ele><time>2026-05-01T15:43:31.999Z</time></trkpt><trkpt lat="44.46517994468145" lon="6.232466513980301"><ele>665.0</ele><time>2026-05-01T15:43:32.999Z</time></trkpt><trkpt lat="44.46517720624218" lon="6.232318180820484"><ele>665.0</ele><time>2026-05-01T15:43:34.999Z</time></trkpt><trkpt lat="44.465173854242344" lon="6.232229752575669"><ele>665.0</ele><time>2026-05-01T15:43:35.999Z</time></trkpt><trkpt lat="44.46516758199697" lon="6.232059959700201"><ele>665.0</ele><time>2026-05-01T15:43:37.999Z</time></trkpt><trkpt lat="44.465150739267266" lon="6.231962081785052"><ele>665.0</ele><time>2026-05-01T15:43:38.999Z</time></trkpt><trkpt lat="44.46511617812752" lon="6.231825078463232"><ele>665.4</ele><time>2026-05-01T15:43:40.999Z</time></trkpt><trkpt lat="44.46512471053121" lon="6.231667115604444"><ele>665.8</ele><time>2026-05-01T15:43:42.999Z</time></trkpt><trkpt lat="44.465107907575" lon="6.231516413259704"><ele>666.2</ele><time>2026-05-01T15:43:44.999Z</time></trkpt><trkpt lat="44.46509342614317" lon="6.231386532203026"><ele>666.6</ele><time>2026-05-01T15:43:46.999Z</time></trkpt><trkpt lat="44.46514908730002" lon="6.231294435584595"><ele>667.0</ele><time>2026-05-01T15:43:49.999Z</time></trkpt><trkpt lat="44.46523683378634" lon="6.231334552127746"><ele>667.0</ele><time>2026-05-01T15:43:51.999Z</time></trkpt><trkpt lat="44.46531632136711" lon="6.231299054948474"><ele>667.0</ele><time>2026-05-01T15:43:54.999Z</time></trkpt><trkpt lat="44.46538599984715" lon="6.2311051682743965"><ele>667.0</ele><time>2026-05-01T15:43:57.999Z</time></trkpt><trkpt lat="44.465452929367686" lon="6.2310726005636266"><ele>667.0</ele><time>2026-05-01T15:44:00Z</time></trkpt><trkpt lat="44.465484415758056" lon="6.230994515780849"><ele>667.0</ele><time>2026-05-01T15:44:02Z</time></trkpt><trkpt lat="44.465464657629994" lon="6.230838035383307"><ele>675.0</ele><time>2026-05-01T15:44:04Z</time></trkpt><trkpt lat="44.46544425202151" lon="6.230706702546962"><ele>667.0</ele><time>2026-05-01T15:44:07Z</time></trkpt><trkpt lat="44.4653905627936" lon="6.23061501885412"><ele>666.0</ele><time>2026-05-01T15:44:09Z</time></trkpt><trkpt lat="44.46532417500084" lon="6.230620047189576"><ele>666.0</ele><time>2026-05-01T15:44:11Z</time></trkpt><trkpt lat="44.46524695431125" lon="6.230670789448275"><ele>667.0</ele><time>2026-05-01T15:44:32Z</time></trkpt></trkseg></trk></gpx>